<?xml version='1.0' encoding='UTF-8'?><gpx version="1.1" creator="JPX - https://github.com/jenetics/jpx" xmlns="http://www.topografix.com/GPX/1/1"><trk><trkseg><trkpt lat="44.47955651022915" lon="7.872838390650689"><ele>364.0</ele><time>2026-03-29T06:55:45.981Z</time></trkpt><trkpt lat="44.47948034512694" lon="7.872648898831501"><ele>364.0</ele><time>2026-03-29T06:56:09.999Z</time></trkpt><trkpt lat="44.47941667457085" lon="7.872617795850954"><ele>364.0</ele><time>2026-03-29T06:56:13.999Z</time></trkpt><trkpt lat="44.479274986923286" lon="7.872698290463321"><ele>364.0</ele><time>2026-03-29T06:56:20.999Z</time></trkpt><trkpt lat="44.479213117831904" lon="7.8727428815031"><ele>364.0</ele><time>2026-03-29T06:56:26.998Z</time></trkpt><trkpt lat="44.47906046032978" lon="7.872852160678653"><ele>364.0</ele><time>2026-03-29T06:56:27.998Z</time></trkpt><trkpt lat="44.47907091985483" lon="7.873005055980275"><ele>364.0</ele><time>2026-03-29T06:56:30.998Z</time></trkpt><trkpt lat="44.47909182654495" lon="7.873148097676931"><ele>364.0</ele><time>2026-03-29T06:56:32.998Z</time></trkpt><trkpt lat="44.47911697654138" lon="7.873233350609768"><ele>364.0</ele><time>2026-03-29T06:56:33.998Z</time></trkpt><trkpt lat="44.47916614328481" lon="7.873403053710797"><ele>364.0</ele><time>2026-03-29T06:56:35.998Z</time></trkpt><trkpt lat="44.479218041576715" lon="7.873520335074914"><ele>363.6</ele><time>2026-03-29T06:56:36.998Z</time></trkpt><trkpt lat="44.47925765749458" lon="7.8736239140037565"><ele>363.2</ele><time>2026-03-29T06:56:37.998Z</time></trkpt><trkpt lat="44.47929025486399" lon="7.873750915712309"><ele>362.8</ele><time>2026-03-29T06:56:38.998Z</time></trkpt><trkpt lat="44.47931827469626" lon="7.873856905844851"><ele>362.40000000000003</ele><time>2026-03-29T06:56:39.998Z</time></trkpt><trkpt lat="44.47933508786145" lon="7.873982775271294"><ele>362.0</ele><time>2026-03-29T06:56:40.998Z</time></trkpt><trkpt lat="44.479356117017105" lon="7.8741165313967265"><ele>362.0</ele><time>2026-03-29T06:56:41.998Z</time></trkpt><trkpt lat="44.47938061974271" lon="7.874253588858222"><ele>362.0</ele><time>2026-03-29T06:56:42.998Z</time></trkpt><trkpt lat="44.47940436859373" lon="7.874392709470718"><ele>362.0</ele><time>2026-03-29T06:56:43.998Z</time></trkpt><trkpt lat="44.479420520325576" lon="7.874543286243606"><ele>362.0</ele><time>2026-03-29T06:56:44.998Z</time></trkpt><trkpt lat="44.47944847173888" lon="7.874684743776278"><ele>362.0</ele><time>2026-03-29T06:56:45.998Z</time></trkpt><trkpt lat="44.47945743169887" lon="7.874821965681752"><ele>361.8</ele><time>2026-03-29T06:56:46.998Z</time></trkpt><trkpt lat="44.47946402976539" lon="7.874946260921986"><ele>361.6</ele><time>2026-03-29T06:56:47.998Z</time></trkpt><trkpt lat="44.47946283812529" lon="7.875068787290364"><ele>361.40000000000003</ele><time>2026-03-29T06:56:48.998Z</time></trkpt><trkpt lat="44.47945327050743" lon="7.875203249131146"><ele>361.20000000000005</ele><time>2026-03-29T06:56:49.998Z</time></trkpt><trkpt lat="44.47944199547997" lon="7.875341207791142"><ele>361.0</ele><time>2026-03-29T06:56:50.998Z</time></trkpt><trkpt lat="44.47944360845127" lon="7.875490715372762"><ele>361.0</ele><time>2026-03-29T06:56:51.998Z</time></trkpt><trkpt lat="44.479437631056946" lon="7.875617738067747"><ele>361.0</ele><time>2026-03-29T06:56:53Z</time></trkpt><trkpt lat="44.47943294088024" lon="7.875740400704589"><ele>361.0</ele><time>2026-03-29T06:56:54Z</time></trkpt><trkpt lat="44.479425531661235" lon="7.875864632687351"><ele>361.0</ele><time>2026-03-29T06:56:55Z</time></trkpt><trkpt lat="44.47941542587441" lon="7.875994961899919"><ele>361.0</ele><time>2026-03-29T06:56:56Z</time></trkpt><trkpt lat="44.479417946154136" lon="7.876129162756279"><ele>361.0</ele><time>2026-03-29T06:56:57Z</time></trkpt><trkpt lat="44.47940924338163" lon="7.876256788166311"><ele>361.0</ele><time>2026-03-29T06:56:58Z</time></trkpt><trkpt lat="44.47940007628286" lon="7.876387729041373"><ele>361.0</ele><time>2026-03-29T06:56:59Z</time></trkpt><trkpt lat="44.47939437582226" lon="7.876493580614708"><ele>361.0</ele><time>2026-03-29T06:57:00Z</time></trkpt><trkpt lat="44.47939947872939" lon="7.876613830767264"><ele>361.0</ele><time>2026-03-29T06:57:01Z</time></trkpt><trkpt lat="44.47940632091983" lon="7.876736109679688"><ele>361.0</ele><time>2026-03-29T06:57:02Z</time></trkpt><trkpt lat="44.47941391200845" lon="7.876852001578792"><ele>361.5</ele><time>2026-03-29T06:57:03Z</time></trkpt><trkpt lat="44.47942481166446" lon="7.876957450935009"><ele>362.0</ele><time>2026-03-29T06:57:04Z</time></trkpt><trkpt lat="44.479449740873356" lon="7.877076943014344"><ele>362.5</ele><time>2026-03-29T06:57:05Z</time></trkpt><trkpt lat="44.47946741143507" lon="7.877205861475053"><ele>363.0</ele><time>2026-03-29T06:57:06Z</time></trkpt><trkpt lat="44.479481726286366" lon="7.87731128193725"><ele>363.5</ele><time>2026-03-29T06:57:07Z</time></trkpt><trkpt lat="44.47950150113847" lon="7.8774168012612655"><ele>364.0</ele><time>2026-03-29T06:57:08Z</time></trkpt><trkpt lat="44.47952342792188" lon="7.877528368156805"><ele>364.0</ele><time>2026-03-29T06:57:09Z</time></trkpt><trkpt lat="44.47955681726946" lon="7.877671660157636"><ele>364.0</ele><time>2026-03-29T06:57:10Z</time></trkpt><trkpt lat="44.47958593831039" lon="7.877791350734514"><ele>364.0</ele><time>2026-03-29T06:57:11Z</time></trkpt><trkpt lat="44.47962245584546" lon="7.877883724036655"><ele>364.0</ele><time>2026-03-29T06:57:12Z</time></trkpt><trkpt lat="44.479657245170465" lon="7.878001727968791"><ele>364.0</ele><time>2026-03-29T06:57:13Z</time></trkpt><trkpt lat="44.47969488057708" lon="7.878135905341366"><ele>363.4</ele><time>2026-03-29T06:57:14Z</time></trkpt><trkpt lat="44.479745219184814" lon="7.8782589951248045"><ele>362.79999999999995</ele><time>2026-03-29T06:57:15Z</time></trkpt><trkpt lat="44.47979297079873" lon="7.878383182700018"><ele>362.20000000000005</ele><time>2026-03-29T06:57:16Z</time></trkpt><trkpt lat="44.47983064425044" lon="7.878489903080901"><ele>361.6</ele><time>2026-03-29T06:57:17Z</time></trkpt><trkpt lat="44.47986501994335" lon="7.878612979278281"><ele>361.0</ele><time>2026-03-29T06:57:18Z</time></trkpt><trkpt lat="44.47990524079204" lon="7.878725944282455"><ele>360.8333333333333</ele><time>2026-03-29T06:57:19Z</time></trkpt><trkpt lat="44.479949887226624" lon="7.878851027770335"><ele>360.66666666666663</ele><time>2026-03-29T06:57:20Z</time></trkpt><trkpt lat="44.479979383459316" lon="7.878949156381783"><ele>360.5</ele><time>2026-03-29T06:57:21Z</time></trkpt><trkpt lat="44.48001569408111" lon="7.87905010311507"><ele>360.3333333333333</ele><time>2026-03-29T06:57:22Z</time></trkpt><trkpt lat="44.480066213170275" lon="7.879136864140994"><ele>360.1666666666667</ele><time>2026-03-29T06:57:23Z</time></trkpt><trkpt lat="44.48011777405911" lon="7.879220530839353"><ele>360.0</ele><time>2026-03-29T06:57:24Z</time></trkpt><trkpt lat="44.480181808913756" lon="7.879284025054097"><ele>359.8333333333333</ele><time>2026-03-29T06:57:25Z</time></trkpt><trkpt lat="44.48027045531166" lon="7.879349783653457"><ele>359.6666666666667</ele><time>2026-03-29T06:57:26Z</time></trkpt><trkpt lat="44.48034450627504" lon="7.879378725529632"><ele>359.5</ele><time>2026-03-29T06:57:27Z</time></trkpt><trkpt lat="44.48041099720782" lon="7.87945350113119"><ele>359.33333333333337</ele><time>2026-03-29T06:57:28Z</time></trkpt><trkpt lat="44.480487527048815" lon="7.879511627987198"><ele>359.1666666666667</ele><time>2026-03-29T06:57:29Z</time></trkpt><trkpt lat="44.480559308034" lon="7.879557499356024"><ele>359.0</ele><time>2026-03-29T06:57:30Z</time></trkpt><trkpt lat="44.48064302459485" lon="7.879665184551291"><ele>358.79999999999995</ele><time>2026-03-29T06:57:31Z</time></trkpt><trkpt lat="44.48069862512631" lon="7.879758283901219"><ele>358.59999999999997</ele><time>2026-03-29T06:57:32Z</time></trkpt><trkpt lat="44.480775629690555" lon="7.879869683579489"><ele>358.4</ele><time>2026-03-29T06:57:33Z</time></trkpt><trkpt lat="44.480792086366066" lon="7.880013284974323"><ele>358.2</ele><time>2026-03-29T06:57:34Z</time></trkpt><trkpt lat="44.48080312376626" lon="7.88012804895033"><ele>358.0</ele><time>2026-03-29T06:57:35Z</time></trkpt><trkpt lat="44.48083832907962" lon="7.8802550958562705"><ele>358.0</ele><time>2026-03-29T06:57:35.999Z</time></trkpt><trkpt lat="44.480872046344736" lon="7.880350863974263"><ele>358.0</ele><time>2026-03-29T06:57:36.999Z</time></trkpt><trkpt lat="44.480913521478065" lon="7.880457199147976"><ele>358.0</ele><time>2026-03-29T06:57:37.999Z</time></trkpt><trkpt lat="44.48095154629679" lon="7.880542746684086"><ele>358.0</ele><time>2026-03-29T06:57:38.999Z</time></trkpt><trkpt lat="44.480991589847854" lon="7.8806311594718945"><ele>358.0</ele><time>2026-03-29T06:57:39.999Z</time></trkpt><trkpt lat="44.48103451861401" lon="7.880758808011982"><ele>358.0</ele><time>2026-03-29T06:57:40.999Z</time></trkpt><trkpt lat="44.481060005107196" lon="7.880877558031297"><ele>357.79999999999995</ele><time>2026-03-29T06:57:41.999Z</time></trkpt><trkpt lat="44.48105357557983" lon="7.880992177056268"><ele>357.6</ele><time>2026-03-29T06:57:42.999Z</time></trkpt><trkpt lat="44.481080101851056" lon="7.8811306559548795"><ele>357.4</ele><time>2026-03-29T06:57:43.999Z</time></trkpt><trkpt lat="44.48109504075658" lon="7.881254155811495"><ele>357.20000000000005</ele><time>2026-03-29T06:57:44.999Z</time></trkpt><trkpt lat="44.48113486818911" lon="7.881369377524066"><ele>357.0</ele><time>2026-03-29T06:57:45.999Z</time></trkpt><trkpt lat="44.481178788469244" lon="7.881472424782313"><ele>357.0</ele><time>2026-03-29T06:57:46.999Z</time></trkpt><trkpt lat="44.481203460132974" lon="7.881580594511751"><ele>357.0</ele><time>2026-03-29T06:57:47.999Z</time></trkpt><trkpt lat="44.481240185115446" lon="7.881694316073082"><ele>357.0</ele><time>2026-03-29T06:57:48.999Z</time></trkpt><trkpt lat="44.48129831482822" lon="7.881800482524607"><ele>357.0</ele><time>2026-03-29T06:57:49.999Z</time></trkpt><trkpt lat="44.481381695808494" lon="7.881907357384589"><ele>357.0</ele><time>2026-03-29T06:57:50.999Z</time></trkpt><trkpt lat="44.481436739212036" lon="7.882006751899591"><ele>356.40000000000003</ele><time>2026-03-29T06:57:51.999Z</time></trkpt><trkpt lat="44.481470112564324" lon="7.8821325061354885"><ele>355.8</ele><time>2026-03-29T06:57:52.999Z</time></trkpt><trkpt lat="44.48151950226815" lon="7.882243499357134"><ele>355.2</ele><time>2026-03-29T06:57:53.999Z</time></trkpt><trkpt lat="44.48157041902629" lon="7.882360585359971"><ele>354.6</ele><time>2026-03-29T06:57:54.999Z</time></trkpt><trkpt lat="44.4816314458502" lon="7.882461835494265"><ele>354.0</ele><time>2026-03-29T06:57:55.999Z</time></trkpt><trkpt lat="44.48165536451715" lon="7.882576465349905"><ele>353.0</ele><time>2026-03-29T06:57:56.999Z</time></trkpt><trkpt lat="44.481699490545125" lon="7.882682536256238"><ele>352.0</ele><time>2026-03-29T06:57:57.999Z</time></trkpt><trkpt lat="44.481737127575926" lon="7.882792012840942"><ele>351.0</ele><time>2026-03-29T06:57:58.999Z</time></trkpt><trkpt lat="44.481771441421046" lon="7.882899144799193"><ele>350.0</ele><time>2026-03-29T06:57:59.999Z</time></trkpt><trkpt lat="44.481806162695044" lon="7.883011721610485"><ele>349.0</ele><time>2026-03-29T06:58:00.999Z</time></trkpt><trkpt lat="44.48183989199273" lon="7.883124426713299"><ele>348.0</ele><time>2026-03-29T06:58:01.999Z</time></trkpt><trkpt lat="44.4818711565514" lon="7.8832715724670805"><ele>348.0</ele><time>2026-03-29T06:58:03.999Z</time></trkpt><trkpt lat="44.481890121694256" lon="7.883369142071256"><ele>348.0</ele><time>2026-03-29T06:58:04.999Z</time></trkpt><trkpt lat="44.48191998403548" lon="7.88347806442613"><ele>348.0</ele><time>2026-03-29T06:58:05.999Z</time></trkpt><trkpt lat="44.48194900839068" lon="7.8835845890472775"><ele>348.0</ele><time>2026-03-29T06:58:06.999Z</time></trkpt><trkpt lat="44.48197004182285" lon="7.8836945174554485"><ele>348.0</ele><time>2026-03-29T06:58:07.999Z</time></trkpt><trkpt lat="44.48199457722168" lon="7.883825071729286"><ele>348.0</ele><time>2026-03-29T06:58:08.999Z</time></trkpt><trkpt lat="44.482020461315386" lon="7.883970600753175"><ele>346.79999999999995</ele><time>2026-03-29T06:58:09.999Z</time></trkpt><trkpt lat="44.48204521118582" lon="7.88411980633484"><ele>345.6</ele><time>2026-03-29T06:58:10.999Z</time></trkpt><trkpt lat="44.48206540312116" lon="7.884260118006708"><ele>344.4</ele><time>2026-03-29T06:58:11.999Z</time></trkpt><trkpt lat="44.48209776795217" lon="7.884414063133092"><ele>343.20000000000005</ele><time>2026-03-29T06:58:12.999Z</time></trkpt><trkpt lat="44.48212719751502" lon="7.884574870968761"><ele>342.0</ele><time>2026-03-29T06:58:13.999Z</time></trkpt><trkpt lat="44.482163893075054" lon="7.884733479090788"><ele>341.75</ele><time>2026-03-29T06:58:14.999Z</time></trkpt><trkpt lat="44.48219861134456" lon="7.884895330511851"><ele>341.5</ele><time>2026-03-29T06:58:15.999Z</time></trkpt><trkpt lat="44.48223199622653" lon="7.885038909100225"><ele>341.25</ele><time>2026-03-29T06:58:16.999Z</time></trkpt><trkpt lat="44.482263980630485" lon="7.885190438342684"><ele>341.0</ele><time>2026-03-29T06:58:17.999Z</time></trkpt><trkpt lat="44.48230061249991" lon="7.8853469677775765"><ele>340.8</ele><time>2026-03-29T06:58:18.999Z</time></trkpt><trkpt lat="44.482343687164644" lon="7.885498339310711"><ele>340.6</ele><time>2026-03-29T06:58:19.999Z</time></trkpt><trkpt lat="44.482383007042664" lon="7.885644047669701"><ele>340.4</ele><time>2026-03-29T06:58:20.999Z</time></trkpt><trkpt lat="44.48244761897788" lon="7.8857536572585385"><ele>340.2</ele><time>2026-03-29T06:58:21.999Z</time></trkpt><trkpt lat="44.48250500209441" lon="7.885891056927025"><ele>340.0</ele><time>2026-03-29T06:58:22.999Z</time></trkpt><trkpt lat="44.48252089764331" lon="7.886065032058043"><ele>339.5</ele><time>2026-03-29T06:58:23.999Z</time></trkpt><trkpt lat="44.48256321885231" lon="7.8862260996182405"><ele>339.0</ele><time>2026-03-29T06:58:24.999Z</time></trkpt><trkpt lat="44.48261934073714" lon="7.886383881027271"><ele>338.5</ele><time>2026-03-29T06:58:25.999Z</time></trkpt><trkpt lat="44.4826707550895" lon="7.88653971150533"><ele>338.0</ele><time>2026-03-29T06:58:26.999Z</time></trkpt><trkpt lat="44.4827255604741" lon="7.886676310688236"><ele>338.0</ele><time>2026-03-29T06:58:27.999Z</time></trkpt><trkpt lat="44.48278542069038" lon="7.88682730087523"><ele>338.0</ele><time>2026-03-29T06:58:28.999Z</time></trkpt><trkpt lat="44.48284724747593" lon="7.88697763977722"><ele>338.0</ele><time>2026-03-29T06:58:29.999Z</time></trkpt><trkpt lat="44.48291194091952" lon="7.8871231075226556"><ele>338.0</ele><time>2026-03-29T06:58:30.999Z</time></trkpt><trkpt lat="44.482978304817905" lon="7.887254513293718"><ele>338.0</ele><time>2026-03-29T06:58:31.999Z</time></trkpt><trkpt lat="44.483043390509216" lon="7.887404537550961"><ele>338.0</ele><time>2026-03-29T06:58:32.998Z</time></trkpt><trkpt lat="44.48311185593985" lon="7.887542925546166"><ele>338.0</ele><time>2026-03-29T06:58:33.998Z</time></trkpt><trkpt lat="44.48317869960943" lon="7.887684322483373"><ele>338.0</ele><time>2026-03-29T06:58:34.998Z</time></trkpt><trkpt lat="44.48324120376982" lon="7.887826246954272"><ele>338.25</ele><time>2026-03-29T06:58:35.998Z</time></trkpt><trkpt lat="44.48329917224533" lon="7.887966990073153"><ele>338.5</ele><time>2026-03-29T06:58:36.998Z</time></trkpt><trkpt lat="44.483353242283" lon="7.888111742584143"><ele>338.75</ele><time>2026-03-29T06:58:37.998Z</time></trkpt><trkpt lat="44.48340444553776" lon="7.888248089289115"><ele>339.0</ele><time>2026-03-29T06:58:38.998Z</time></trkpt><trkpt lat="44.48345438036372" lon="7.888408204089914"><ele>338.5</ele><time>2026-03-29T06:58:39.998Z</time></trkpt><trkpt lat="44.48349858303996" lon="7.888567100706641"><ele>338.0</ele><time>2026-03-29T06:58:40.998Z</time></trkpt><trkpt lat="44.48353723002529" lon="7.888726662052723"><ele>337.5</ele><time>2026-03-29T06:58:41.998Z</time></trkpt><trkpt lat="44.483570544864705" lon="7.888887835585506"><ele>337.0</ele><time>2026-03-29T06:58:42.998Z</time></trkpt><trkpt lat="44.48360800925658" lon="7.88904121793351"><ele>337.0</ele><time>2026-03-29T06:58:43.998Z</time></trkpt><trkpt lat="44.48364559375764" lon="7.889188583518989"><ele>337.0</ele><time>2026-03-29T06:58:44.998Z</time></trkpt><trkpt lat="44.48368260649777" lon="7.889339538286929"><ele>337.0</ele><time>2026-03-29T06:58:45.998Z</time></trkpt><trkpt lat="44.48371672555265" lon="7.889488721686614"><ele>337.0</ele><time>2026-03-29T06:58:46.998Z</time></trkpt><trkpt lat="44.48374793036554" lon="7.889617299997171"><ele>337.0</ele><time>2026-03-29T06:58:47.998Z</time></trkpt><trkpt lat="44.48377927567023" lon="7.889754396966422"><ele>337.0</ele><time>2026-03-29T06:58:48.998Z</time></trkpt><trkpt lat="44.48379588626051" lon="7.8898654589275"><ele>337.0</ele><time>2026-03-29T06:58:49.998Z</time></trkpt><trkpt lat="44.48380206540645" lon="7.889972976593559"><ele>337.0</ele><time>2026-03-29T06:58:50.998Z</time></trkpt><trkpt lat="44.48381477014809" lon="7.890066464748306"><ele>337.0</ele><time>2026-03-29T06:58:51.998Z</time></trkpt><trkpt lat="44.483833447154986" lon="7.890232242603876"><ele>337.0</ele><time>2026-03-29T06:58:53.998Z</time></trkpt><trkpt lat="44.483841850668114" lon="7.890434685972441"><ele>336.8</ele><time>2026-03-29T06:58:55.998Z</time></trkpt><trkpt lat="44.48383132075812" lon="7.890561741729556"><ele>336.6</ele><time>2026-03-29T06:58:56.998Z</time></trkpt><trkpt lat="44.48382348730293" lon="7.890713437990983"><ele>336.40000000000003</ele><time>2026-03-29T06:58:57.998Z</time></trkpt><trkpt lat="44.48380467037147" lon="7.890857372229923"><ele>336.20000000000005</ele><time>2026-03-29T06:58:59Z</time></trkpt><trkpt lat="44.48378255806274" lon="7.891013035841953"><ele>336.0</ele><time>2026-03-29T06:59:00Z</time></trkpt><trkpt lat="44.48376033074092" lon="7.891183255052786"><ele>334.0</ele><time>2026-03-29T06:59:01Z</time></trkpt><trkpt lat="44.48373992417215" lon="7.89136547755514"><ele>332.0</ele><time>2026-03-29T06:59:02Z</time></trkpt><trkpt lat="44.48371571629029" lon="7.891543717633984"><ele>330.0</ele><time>2026-03-29T06:59:03Z</time></trkpt><trkpt lat="44.48369968340724" lon="7.891712236805265"><ele>328.0</ele><time>2026-03-29T06:59:04Z</time></trkpt><trkpt lat="44.48368365757396" lon="7.89187022970102"><ele>326.5</ele><time>2026-03-29T06:59:05Z</time></trkpt><trkpt lat="44.483674165511616" lon="7.892040008275842"><ele>325.0</ele><time>2026-03-29T06:59:06Z</time></trkpt><trkpt lat="44.483666395979135" lon="7.892214755907164"><ele>323.5</ele><time>2026-03-29T06:59:07Z</time></trkpt><trkpt lat="44.48366488532817" lon="7.89239306431581"><ele>322.0</ele><time>2026-03-29T06:59:08Z</time></trkpt><trkpt lat="44.48367506786335" lon="7.892569634527788"><ele>325.0</ele><time>2026-03-29T06:59:09Z</time></trkpt><trkpt lat="44.48369871101549" lon="7.892740318191615"><ele>328.0</ele><time>2026-03-29T06:59:10Z</time></trkpt><trkpt lat="44.48372839094782" lon="7.892896203442476"><ele>331.0</ele><time>2026-03-29T06:59:11Z</time></trkpt><trkpt lat="44.48375833258942" lon="7.8930594429661385"><ele>334.0</ele><time>2026-03-29T06:59:12Z</time></trkpt><trkpt lat="44.48378812932434" lon="7.893201129422799"><ele>334.0</ele><time>2026-03-29T06:59:13Z</time></trkpt><trkpt lat="44.483815672736874" lon="7.893354541767726"><ele>334.0</ele><time>2026-03-29T06:59:14Z</time></trkpt><trkpt lat="44.483846959857495" lon="7.893530539479054"><ele>334.0</ele><time>2026-03-29T06:59:15Z</time></trkpt><trkpt lat="44.48387969186846" lon="7.893689211606132"><ele>334.0</ele><time>2026-03-29T06:59:16Z</time></trkpt><trkpt lat="44.483915757571225" lon="7.893846732739541"><ele>332.75</ele><time>2026-03-29T06:59:17Z</time></trkpt><trkpt lat="44.483977359617256" lon="7.893985334838121"><ele>331.5</ele><time>2026-03-29T06:59:18Z</time></trkpt><trkpt lat="44.48404879993342" lon="7.894129892688683"><ele>330.25</ele><time>2026-03-29T06:59:19Z</time></trkpt><trkpt lat="44.4841209761386" lon="7.894267209300926"><ele>329.0</ele><time>2026-03-29T06:59:20Z</time></trkpt><trkpt lat="44.48419661633718" lon="7.894399612235479"><ele>325.75</ele><time>2026-03-29T06:59:21Z</time></trkpt><trkpt lat="44.48424792262434" lon="7.894546794024734"><ele>322.5</ele><time>2026-03-29T06:59:22Z</time></trkpt><trkpt lat="44.48432087790735" lon="7.894697845960437"><ele>319.25</ele><time>2026-03-29T06:59:23Z</time></trkpt><trkpt lat="44.484390979518075" lon="7.894853822764754"><ele>316.0</ele><time>2026-03-29T06:59:24Z</time></trkpt><trkpt lat="44.48445605875806" lon="7.895019673575091"><ele>319.0</ele><time>2026-03-29T06:59:25Z</time></trkpt><trkpt lat="44.48450369000181" lon="7.895193838045357"><ele>322.0</ele><time>2026-03-29T06:59:26Z</time></trkpt><trkpt lat="44.48455026897067" lon="7.895358748438195"><ele>325.0</ele><time>2026-03-29T06:59:27Z</time></trkpt><trkpt lat="44.48459926876827" lon="7.8955258846948295"><ele>328.0</ele><time>2026-03-29T06:59:28Z</time></trkpt><trkpt lat="44.48464090239865" lon="7.8956904613624594"><ele>328.0</ele><time>2026-03-29T06:59:29Z</time></trkpt><trkpt lat="44.484674868054846" lon="7.895866061929887"><ele>328.0</ele><time>2026-03-29T06:59:30Z</time></trkpt><trkpt lat="44.48469907830153" lon="7.896032009853152"><ele>328.0</ele><time>2026-03-29T06:59:31Z</time></trkpt><trkpt lat="44.48472687390527" lon="7.896193918107144"><ele>328.0</ele><time>2026-03-29T06:59:32Z</time></trkpt><trkpt lat="44.48475466848016" lon="7.896365754899147"><ele>326.79999999999995</ele><time>2026-03-29T06:59:33Z</time></trkpt><trkpt lat="44.484778628921404" lon="7.896520278998953"><ele>325.6</ele><time>2026-03-29T06:59:34Z</time></trkpt><trkpt lat="44.484800652644694" lon="7.89667812787216"><ele>324.4</ele><time>2026-03-29T06:59:35Z</time></trkpt><trkpt lat="44.48482469246467" lon="7.8968232771965505"><ele>323.20000000000005</ele><time>2026-03-29T06:59:36Z</time></trkpt><trkpt lat="44.48485359782085" lon="7.896951086282377"><ele>322.0</ele><time>2026-03-29T06:59:37Z</time></trkpt><trkpt lat="44.48488585384329" lon="7.897073519410899"><ele>317.0</ele><time>2026-03-29T06:59:38Z</time></trkpt><trkpt lat="44.484939602255615" lon="7.897199041290556"><ele>312.0</ele><time>2026-03-29T06:59:39Z</time></trkpt><trkpt lat="44.48500911840246" lon="7.89732238195557"><ele>307.0</ele><time>2026-03-29T06:59:40Z</time></trkpt><trkpt lat="44.485092457886175" lon="7.897439684868514"><ele>302.0</ele><time>2026-03-29T06:59:40.999Z</time></trkpt><trkpt lat="44.4851817898585" lon="7.897555004342808"><ele>302.75</ele><time>2026-03-29T06:59:41.999Z</time></trkpt><trkpt lat="44.485277683416754" lon="7.897679209756481"><ele>303.5</ele><time>2026-03-29T06:59:42.999Z</time></trkpt><trkpt lat="44.48537249355284" lon="7.897798473791243"><ele>304.25</ele><time>2026-03-29T06:59:43.999Z</time></trkpt><trkpt lat="44.48546757696344" lon="7.897933543596339"><ele>305.0</ele><time>2026-03-29T06:59:44.999Z</time></trkpt><trkpt lat="44.48554582331833" lon="7.898098316956367"><ele>305.0</ele><time>2026-03-29T06:59:45.999Z</time></trkpt><trkpt lat="44.48563999372964" lon="7.898241448554624"><ele>305.0</ele><time>2026-03-29T06:59:46.999Z</time></trkpt><trkpt lat="44.485727796818196" lon="7.8983821374775935"><ele>305.0</ele><time>2026-03-29T06:59:47.999Z</time></trkpt><trkpt lat="44.485815029910626" lon="7.898518532878306"><ele>305.0</ele><time>2026-03-29T06:59:48.999Z</time></trkpt><trkpt lat="44.48589597781961" lon="7.898648695402137"><ele>301.25</ele><time>2026-03-29T06:59:49.999Z</time></trkpt><trkpt lat="44.48597587426819" lon="7.89878006389137"><ele>297.5</ele><time>2026-03-29T06:59:50.999Z</time></trkpt><trkpt lat="44.4860511007947" lon="7.898907283767407"><ele>293.75</ele><time>2026-03-29T06:59:51.999Z</time></trkpt><trkpt lat="44.48612940268249" lon="7.899041403703276"><ele>290.0</ele><time>2026-03-29T06:59:52.999Z</time></trkpt><trkpt lat="44.48620667534995" lon="7.8991795938556715"><ele>290.8</ele><time>2026-03-29T06:59:53.999Z</time></trkpt><trkpt lat="44.48627775456485" lon="7.899303576063874"><ele>291.6</ele><time>2026-03-29T06:59:54.999Z</time></trkpt><trkpt lat="44.48634995694211" lon="7.899426239403263"><ele>292.4</ele><time>2026-03-29T06:59:55.999Z</time></trkpt><trkpt lat="44.4864216660229" lon="7.899547693024524"><ele>293.2</ele><time>2026-03-29T06:59:56.999Z</time></trkpt><trkpt lat="44.48648237603897" lon="7.899656808450147"><ele>294.0</ele><time>2026-03-29T06:59:57.999Z</time></trkpt><trkpt lat="44.486533913468854" lon="7.899747929148605"><ele>294.0</ele><time>2026-03-29T06:59:58.999Z</time></trkpt><trkpt lat="44.48657422986466" lon="7.899824215766052"><ele>294.0</ele><time>2026-03-29T06:59:59.999Z</time></trkpt><trkpt lat="44.48660693790087" lon="7.899899840501048"><ele>294.0</ele><time>2026-03-29T07:00:00.999Z</time></trkpt><trkpt lat="44.486625716550606" lon="7.90006836629858"><ele>294.0</ele><time>2026-03-29T07:00:02.999Z</time></trkpt><trkpt lat="44.486611224045035" lon="7.900160966657621"><ele>294.0</ele><time>2026-03-29T07:00:03.999Z</time></trkpt><trkpt lat="44.486558190508035" lon="7.900309532711107"><ele>294.0</ele><time>2026-03-29T07:00:05.999Z</time></trkpt><trkpt lat="44.486554250474036" lon="7.900470655115709"><ele>292.6666666666667</ele><time>2026-03-29T07:00:07.999Z</time></trkpt><trkpt lat="44.48659257251727" lon="7.900543948695225"><ele>291.3333333333333</ele><time>2026-03-29T07:00:08.999Z</time></trkpt><trkpt lat="44.4866492766313" lon="7.900604270518179"><ele>290.0</ele><time>2026-03-29T07:00:09.999Z</time></trkpt><trkpt lat="44.486724724883565" lon="7.9006503612697205"><ele>288.66666666666663</ele><time>2026-03-29T07:00:10.999Z</time></trkpt><trkpt lat="44.48680413711447" lon="7.900696564272477"><ele>287.3333333333333</ele><time>2026-03-29T07:00:11.999Z</time></trkpt><trkpt lat="44.48688488521282" lon="7.90073518365813"><ele>286.0</ele><time>2026-03-29T07:00:12.999Z</time></trkpt><trkpt lat="44.48694845982229" lon="7.900843593391118"><ele>286.8</ele><time>2026-03-29T07:00:13.999Z</time></trkpt><trkpt lat="44.48701372670001" lon="7.900939933579672"><ele>287.6</ele><time>2026-03-29T07:00:14.999Z</time></trkpt><trkpt lat="44.48708565877188" lon="7.901048447342523"><ele>288.4</ele><time>2026-03-29T07:00:15.999Z</time></trkpt><trkpt lat="44.48715841354393" lon="7.901160527525167"><ele>289.2</ele><time>2026-03-29T07:00:16.999Z</time></trkpt><trkpt lat="44.48723492479172" lon="7.901282711524066"><ele>290.0</ele><time>2026-03-29T07:00:17.999Z</time></trkpt><trkpt lat="44.487307848043514" lon="7.901398998022715"><ele>290.0</ele><time>2026-03-29T07:00:18.999Z</time></trkpt><trkpt lat="44.48739600721383" lon="7.901526713284542"><ele>290.0</ele><time>2026-03-29T07:00:19.999Z</time></trkpt><trkpt lat="44.487490180231475" lon="7.901647824433319"><ele>290.0</ele><time>2026-03-29T07:00:20.999Z</time></trkpt><trkpt lat="44.487592944631274" lon="7.901765003434486"><ele>290.0</ele><time>2026-03-29T07:00:21.999Z</time></trkpt><trkpt lat="44.4877048545072" lon="7.901876523323862"><ele>288.75</ele><time>2026-03-29T07:00:22.999Z</time></trkpt><trkpt lat="44.487816466189884" lon="7.901987120462205"><ele>287.5</ele><time>2026-03-29T07:00:23.999Z</time></trkpt><trkpt lat="44.48793581261312" lon="7.902097176516122"><ele>286.25</ele><time>2026-03-29T07:00:24.999Z</time></trkpt><trkpt lat="44.48805408578469" lon="7.902206248208972"><ele>285.0</ele><time>2026-03-29T07:00:25.999Z</time></trkpt><trkpt lat="44.488178880281254" lon="7.902315984613303"><ele>285.0</ele><time>2026-03-29T07:00:26.999Z</time></trkpt><trkpt lat="44.48830505959423" lon="7.90242481251115"><ele>285.0</ele><time>2026-03-29T07:00:27.999Z</time></trkpt><trkpt lat="44.48843223453622" lon="7.902535561563644"><ele>285.0</ele><time>2026-03-29T07:00:28.999Z</time></trkpt><trkpt lat="44.48856066858037" lon="7.9026466599062815"><ele>285.0</ele><time>2026-03-29T07:00:29.999Z</time></trkpt><trkpt lat="44.488693451726725" lon="7.902761945470473"><ele>285.0</ele><time>2026-03-29T07:00:30.999Z</time></trkpt><trkpt lat="44.488822818808664" lon="7.902875857886813"><ele>285.0</ele><time>2026-03-29T07:00:31.999Z</time></trkpt><trkpt lat="44.48896491211635" lon="7.9029952651936615"><ele>285.0</ele><time>2026-03-29T07:00:32.999Z</time></trkpt><trkpt lat="44.489101695076705" lon="7.903111421792686"><ele>285.0</ele><time>2026-03-29T07:00:33.999Z</time></trkpt><trkpt lat="44.489239712890786" lon="7.903230346894255"><ele>285.0</ele><time>2026-03-29T07:00:34.999Z</time></trkpt><trkpt lat="44.489380674919595" lon="7.903345266982111"><ele>285.0</ele><time>2026-03-29T07:00:35.999Z</time></trkpt><trkpt lat="44.489523697327016" lon="7.903469001921933"><ele>284.0</ele><time>2026-03-29T07:00:36.999Z</time></trkpt><trkpt lat="44.48966327718987" lon="7.9035894739236"><ele>283.0</ele><time>2026-03-29T07:00:37.998Z</time></trkpt><trkpt lat="44.489806950064235" lon="7.903718057096507"><ele>282.0</ele><time>2026-03-29T07:00:38.998Z</time></trkpt><trkpt lat="44.48993925570885" lon="7.903833533808142"><ele>282.0</ele><time>2026-03-29T07:00:39.998Z</time></trkpt><trkpt lat="44.490070014329355" lon="7.903940607516454"><ele>282.0</ele><time>2026-03-29T07:00:40.998Z</time></trkpt><trkpt lat="44.49020519435483" lon="7.904068241022054"><ele>282.0</ele><time>2026-03-29T07:00:41.998Z</time></trkpt><trkpt lat="44.490332482597694" lon="7.904203382399193"><ele>280.0</ele><time>2026-03-29T07:00:42.998Z</time></trkpt><trkpt lat="44.490468213627025" lon="7.904329319317564"><ele>278.0</ele><time>2026-03-29T07:00:43.998Z</time></trkpt><trkpt lat="44.490602053658556" lon="7.9044716989219435"><ele>276.0</ele><time>2026-03-29T07:00:44.998Z</time></trkpt><trkpt lat="44.490739436415" lon="7.904603842620538"><ele>276.0</ele><time>2026-03-29T07:00:45.998Z</time></trkpt><trkpt lat="44.49087672607337" lon="7.904697980568549"><ele>276.0</ele><time>2026-03-29T07:00:46.998Z</time></trkpt><trkpt lat="44.49101991478006" lon="7.904824068469778"><ele>276.0</ele><time>2026-03-29T07:00:47.998Z</time></trkpt><trkpt lat="44.49115199190512" lon="7.9049333081640185"><ele>274.6666666666667</ele><time>2026-03-29T07:00:48.998Z</time></trkpt><trkpt lat="44.49130164737329" lon="7.905048649193591"><ele>273.33333333333337</ele><time>2026-03-29T07:00:49.998Z</time></trkpt><trkpt lat="44.491436574392424" lon="7.905162191573128"><ele>272.0</ele><time>2026-03-29T07:00:50.998Z</time></trkpt><trkpt lat="44.49156479852526" lon="7.905288783822481"><ele>270.6666666666667</ele><time>2026-03-29T07:00:51.998Z</time></trkpt><trkpt lat="44.491710396908985" lon="7.905409965475151"><ele>269.3333333333333</ele><time>2026-03-29T07:00:52.998Z</time></trkpt><trkpt lat="44.491848284258595" lon="7.905525162976152"><ele>268.0</ele><time>2026-03-29T07:00:53.998Z</time></trkpt><trkpt lat="44.49198641081267" lon="7.905626419999549"><ele>268.0</ele><time>2026-03-29T07:00:54.998Z</time></trkpt><trkpt lat="44.49212823795145" lon="7.905774876924225"><ele>268.0</ele><time>2026-03-29T07:00:55.998Z</time></trkpt><trkpt lat="44.49226471556432" lon="7.9059096373112565"><ele>268.0</ele><time>2026-03-29T07:00:56.998Z</time></trkpt><trkpt lat="44.49241058544329" lon="7.906041346560389"><ele>268.0</ele><time>2026-03-29T07:00:57.998Z</time></trkpt><trkpt lat="44.49255742702316" lon="7.9061529474826076"><ele>268.0</ele><time>2026-03-29T07:00:58.998Z</time></trkpt><trkpt lat="44.49270728826705" lon="7.90623274597357"><ele>268.0</ele><time>2026-03-29T07:00:59.998Z</time></trkpt><trkpt lat="44.492853334970754" lon="7.906323233349166"><ele>267.0</ele><time>2026-03-29T07:01:00.998Z</time></trkpt><trkpt lat="44.49299770555903" lon="7.906406634843854"><ele>266.0</ele><time>2026-03-29T07:01:01.998Z</time></trkpt><trkpt lat="44.493147257177945" lon="7.906487934396853"><ele>265.0</ele><time>2026-03-29T07:01:02.998Z</time></trkpt><trkpt lat="44.493295002494584" lon="7.906561673204814"><ele>265.0</ele><time>2026-03-29T07:01:03.998Z</time></trkpt><trkpt lat="44.49345450454953" lon="7.906635317150865"><ele>265.0</ele><time>2026-03-29T07:01:05Z</time></trkpt><trkpt lat="44.49360385175583" lon="7.906699995425717"><ele>265.0</ele><time>2026-03-29T07:01:06Z</time></trkpt><trkpt lat="44.493753617661866" lon="7.906759109692467"><ele>263.75</ele><time>2026-03-29T07:01:07Z</time></trkpt><trkpt lat="44.49389982143524" lon="7.906810001766502"><ele>262.5</ele><time>2026-03-29T07:01:08Z</time></trkpt><trkpt lat="44.49405156693062" lon="7.906857387047211"><ele>261.25</ele><time>2026-03-29T07:01:09Z</time></trkpt><trkpt lat="44.49418855628519" lon="7.9069016894339015"><ele>260.0</ele><time>2026-03-29T07:01:10Z</time></trkpt><trkpt lat="44.49434235071947" lon="7.906928930676352"><ele>260.0</ele><time>2026-03-29T07:01:11Z</time></trkpt><trkpt lat="44.4944985239284" lon="7.9069488099321115"><ele>260.0</ele><time>2026-03-29T07:01:12Z</time></trkpt><trkpt lat="44.494650135209284" lon="7.9069569151608485"><ele>260.0</ele><time>2026-03-29T07:01:13Z</time></trkpt><trkpt lat="44.494808357649774" lon="7.906966777475097"><ele>259.6666666666667</ele><time>2026-03-29T07:01:14Z</time></trkpt><trkpt lat="44.49496582486922" lon="7.906968038802621"><ele>259.3333333333333</ele><time>2026-03-29T07:01:15Z</time></trkpt><trkpt lat="44.495125538237566" lon="7.906967134152941"><ele>259.0</ele><time>2026-03-29T07:01:16Z</time></trkpt><trkpt lat="44.49528820504045" lon="7.906966828570687"><ele>258.3333333333333</ele><time>2026-03-29T07:01:17Z</time></trkpt><trkpt lat="44.49544830435557" lon="7.906961357658852"><ele>257.6666666666667</ele><time>2026-03-29T07:01:18Z</time></trkpt><trkpt lat="44.49560723106443" lon="7.9069502502875375"><ele>257.0</ele><time>2026-03-29T07:01:19Z</time></trkpt><trkpt lat="44.49576215755146" lon="7.906923447877503"><ele>257.0</ele><time>2026-03-29T07:01:20Z</time></trkpt><trkpt lat="44.495915462185316" lon="7.906891125299835"><ele>257.0</ele><time>2026-03-29T07:01:21Z</time></trkpt><trkpt lat="44.49607237396894" lon="7.906861821087375"><ele>257.0</ele><time>2026-03-29T07:01:22Z</time></trkpt><trkpt lat="44.496224656801" lon="7.906833632360638"><ele>256.6666666666667</ele><time>2026-03-29T07:01:23Z</time></trkpt><trkpt lat="44.4963791346543" lon="7.906799463024691"><ele>256.3333333333333</ele><time>2026-03-29T07:01:24Z</time></trkpt><trkpt lat="44.496535312392275" lon="7.906757044568792"><ele>256.0</ele><time>2026-03-29T07:01:25Z</time></trkpt><trkpt lat="44.49668726248289" lon="7.906713533500266"><ele>255.66666666666666</ele><time>2026-03-29T07:01:26Z</time></trkpt><trkpt lat="44.49683830966155" lon="7.9066733887408125"><ele>255.33333333333331</ele><time>2026-03-29T07:01:27Z</time></trkpt><trkpt lat="44.496992664062105" lon="7.906635303859154"><ele>255.0</ele><time>2026-03-29T07:01:28Z</time></trkpt><trkpt lat="44.497148538583694" lon="7.906590208090775"><ele>255.0</ele><time>2026-03-29T07:01:29Z</time></trkpt><trkpt lat="44.49730145723084" lon="7.906547074385855"><ele>255.0</ele><time>2026-03-29T07:01:30Z</time></trkpt><trkpt lat="44.49745379644565" lon="7.906507929708098"><ele>255.0</ele><time>2026-03-29T07:01:31Z</time></trkpt><trkpt lat="44.4976049553188" lon="7.906469669756285"><ele>255.0</ele><time>2026-03-29T07:01:32Z</time></trkpt><trkpt lat="44.497760488524655" lon="7.906433837249755"><ele>255.0</ele><time>2026-03-29T07:01:33Z</time></trkpt><trkpt lat="44.49791036746215" lon="7.9063892886368885"><ele>255.0</ele><time>2026-03-29T07:01:34Z</time></trkpt><trkpt lat="44.49807060038933" lon="7.906349344180412"><ele>253.66666666666669</ele><time>2026-03-29T07:01:35Z</time></trkpt><trkpt lat="44.49822744914594" lon="7.9063104124301855"><ele>252.33333333333334</ele><time>2026-03-29T07:01:36Z</time></trkpt><trkpt lat="44.498380529614785" lon="7.906271287290484"><ele>251.0</ele><time>2026-03-29T07:01:37Z</time></trkpt><trkpt lat="44.49853340773422" lon="7.906229734938939"><ele>251.0</ele><time>2026-03-29T07:01:38Z</time></trkpt><trkpt lat="44.498681878490316" lon="7.906190242789241"><ele>251.0</ele><time>2026-03-29T07:01:39Z</time></trkpt><trkpt lat="44.49883779016491" lon="7.906151136490261"><ele>251.0</ele><time>2026-03-29T07:01:40Z</time></trkpt><trkpt lat="44.49899012404386" lon="7.906112392518826"><ele>254.33333333333334</ele><time>2026-03-29T07:01:41Z</time></trkpt><trkpt lat="44.499143193312804" lon="7.906072103116126"><ele>257.6666666666667</ele><time>2026-03-29T07:01:42Z</time></trkpt><trkpt lat="44.49929700429183" lon="7.906032581806083"><ele>261.0</ele><time>2026-03-29T07:01:43Z</time></trkpt><trkpt lat="44.49945512536214" lon="7.90599605037097"><ele>260.6666666666667</ele><time>2026-03-29T07:01:44Z</time></trkpt><trkpt lat="44.49960622384997" lon="7.905964704622482"><ele>260.33333333333337</ele><time>2026-03-29T07:01:45Z</time></trkpt><trkpt lat="44.49976872768044" lon="7.905932074221214"><ele>260.0</ele><time>2026-03-29T07:01:46Z</time></trkpt><trkpt lat="44.499920545574696" lon="7.905897921383682"><ele>259.0</ele><time>2026-03-29T07:01:46.999Z</time></trkpt><trkpt lat="44.500074983769146" lon="7.905859646617975"><ele>258.0</ele><time>2026-03-29T07:01:47.999Z</time></trkpt><trkpt lat="44.50022880676852" lon="7.905821499906974"><ele>257.0</ele><time>2026-03-29T07:01:48.999Z</time></trkpt><trkpt lat="44.5003724461834" lon="7.9057657342328325"><ele>257.33333333333337</ele><time>2026-03-29T07:01:49.999Z</time></trkpt><trkpt lat="44.50052424126959" lon="7.905744473077621"><ele>257.6666666666667</ele><time>2026-03-29T07:01:50.999Z</time></trkpt><trkpt lat="44.50067473629867" lon="7.905702104755633"><ele>258.0</ele><time>2026-03-29T07:01:51.999Z</time></trkpt><trkpt lat="44.50082422884116" lon="7.905661077224034"><ele>258.0</ele><time>2026-03-29T07:01:52.999Z</time></trkpt><trkpt lat="44.50097723313475" lon="7.905616341811919"><ele>258.0</ele><time>2026-03-29T07:01:53.999Z</time></trkpt><trkpt lat="44.50112759632791" lon="7.905565181892282"><ele>258.0</ele><time>2026-03-29T07:01:54.999Z</time></trkpt><trkpt lat="44.501273538465924" lon="7.9055193860396225"><ele>257.0</ele><time>2026-03-29T07:01:55.999Z</time></trkpt><trkpt lat="44.50142375876947" lon="7.905477022338905"><ele>256.0</ele><time>2026-03-29T07:01:56.999Z</time></trkpt><trkpt lat="44.50158194069745" lon="7.9054324959215245"><ele>255.0</ele><time>2026-03-29T07:01:57.999Z</time></trkpt><trkpt lat="44.50173588963205" lon="7.905394185292808"><ele>255.0</ele><time>2026-03-29T07:01:58.999Z</time></trkpt><trkpt lat="44.50188777441447" lon="7.905354185899503"><ele>255.0</ele><time>2026-03-29T07:01:59.999Z</time></trkpt><trkpt lat="44.50203906387587" lon="7.905312433422551"><ele>255.0</ele><time>2026-03-29T07:02:00.999Z</time></trkpt><trkpt lat="44.50219231755738" lon="7.9052725330209395"><ele>254.33333333333331</ele><time>2026-03-29T07:02:01.999Z</time></trkpt><trkpt lat="44.502344777522474" lon="7.9052302384022735"><ele>253.66666666666666</ele><time>2026-03-29T07:02:02.999Z</time></trkpt><trkpt lat="44.50249539849851" lon="7.905189240496748"><ele>253.0</ele><time>2026-03-29T07:02:03.999Z</time></trkpt><trkpt lat="44.5026434307363" lon="7.905150590073958"><ele>253.0</ele><time>2026-03-29T07:02:04.999Z</time></trkpt><trkpt lat="44.502794523212685" lon="7.905116007225316"><ele>253.0</ele><time>2026-03-29T07:02:05.999Z</time></trkpt><trkpt lat="44.502948192407395" lon="7.905079697806531"><ele>253.0</ele><time>2026-03-29T07:02:06.999Z</time></trkpt><trkpt lat="44.50310559402464" lon="7.905040584844735"><ele>253.33333333333331</ele><time>2026-03-29T07:02:07.999Z</time></trkpt><trkpt lat="44.50326103404338" lon="7.905000679250386"><ele>253.66666666666669</ele><time>2026-03-29T07:02:08.999Z</time></trkpt><trkpt lat="44.50341539981306" lon="7.904961475270647"><ele>254.0</ele><time>2026-03-29T07:02:09.999Z</time></trkpt><trkpt lat="44.50357266040554" lon="7.904926024653601"><ele>254.0</ele><time>2026-03-29T07:02:10.999Z</time></trkpt><trkpt lat="44.50372698627142" lon="7.9048827488477205"><ele>254.0</ele><time>2026-03-29T07:02:11.999Z</time></trkpt><trkpt lat="44.50388066560482" lon="7.904842651776907"><ele>254.0</ele><time>2026-03-29T07:02:12.999Z</time></trkpt><trkpt lat="44.504030983846235" lon="7.904804313177772"><ele>252.33333333333334</ele><time>2026-03-29T07:02:13.999Z</time></trkpt><trkpt lat="44.50418469520303" lon="7.904762442997739"><ele>250.66666666666669</ele><time>2026-03-29T07:02:14.999Z</time></trkpt><trkpt lat="44.50434094660564" lon="7.904723657746279"><ele>249.0</ele><time>2026-03-29T07:02:15.999Z</time></trkpt><trkpt lat="44.50448722441868" lon="7.904688282191319"><ele>248.0</ele><time>2026-03-29T07:02:16.999Z</time></trkpt><trkpt lat="44.50462998480288" lon="7.904650690744766"><ele>247.0</ele><time>2026-03-29T07:02:17.999Z</time></trkpt><trkpt lat="44.50478454596537" lon="7.904616071989451"><ele>246.0</ele><time>2026-03-29T07:02:18.999Z</time></trkpt><trkpt lat="44.50493240602363" lon="7.904580781847804"><ele>246.0</ele><time>2026-03-29T07:02:19.999Z</time></trkpt><trkpt lat="44.50508323062138" lon="7.904543917673913"><ele>246.0</ele><time>2026-03-29T07:02:20.999Z</time></trkpt><trkpt lat="44.50522716087452" lon="7.904506540862476"><ele>246.0</ele><time>2026-03-29T07:02:21.999Z</time></trkpt><trkpt lat="44.50538001369302" lon="7.904466073846109"><ele>248.33333333333331</ele><time>2026-03-29T07:02:22.999Z</time></trkpt><trkpt lat="44.50552888508538" lon="7.904430155934887"><ele>250.66666666666666</ele><time>2026-03-29T07:02:23.999Z</time></trkpt><trkpt lat="44.505680173878396" lon="7.904393933550431"><ele>253.0</ele><time>2026-03-29T07:02:24.999Z</time></trkpt><trkpt lat="44.50583467041673" lon="7.904356645488974"><ele>253.0</ele><time>2026-03-29T07:02:25.999Z</time></trkpt><trkpt lat="44.50598486363174" lon="7.904321807768789"><ele>253.0</ele><time>2026-03-29T07:02:26.999Z</time></trkpt><trkpt lat="44.50613308839786" lon="7.904287319316256"><ele>253.0</ele><time>2026-03-29T07:02:27.999Z</time></trkpt><trkpt lat="44.50628905395962" lon="7.904248723201521"><ele>254.75</ele><time>2026-03-29T07:02:28.999Z</time></trkpt><trkpt lat="44.506420495637165" lon="7.9042105160104175"><ele>256.5</ele><time>2026-03-29T07:02:29.999Z</time></trkpt><trkpt lat="44.50656842029283" lon="7.904169642229868"><ele>258.25</ele><time>2026-03-29T07:02:30.999Z</time></trkpt><trkpt lat="44.506708038313036" lon="7.904132650964393"><ele>260.0</ele><time>2026-03-29T07:02:31.999Z</time></trkpt><trkpt lat="44.50685523181016" lon="7.904092174817892"><ele>260.0</ele><time>2026-03-29T07:02:32.999Z</time></trkpt><trkpt lat="44.50700102564987" lon="7.9040483670157515"><ele>260.0</ele><time>2026-03-29T07:02:33.999Z</time></trkpt><trkpt lat="44.507151903969074" lon="7.904007261679587"><ele>260.0</ele><time>2026-03-29T07:02:34.999Z</time></trkpt><trkpt lat="44.50729404594326" lon="7.903971894371864"><ele>260.0</ele><time>2026-03-29T07:02:35.999Z</time></trkpt><trkpt lat="44.50743849101086" lon="7.903941532799109"><ele>260.0</ele><time>2026-03-29T07:02:36.999Z</time></trkpt><trkpt lat="44.507575621445724" lon="7.903902711076349"><ele>260.0</ele><time>2026-03-29T07:02:37.999Z</time></trkpt><trkpt lat="44.507716705262524" lon="7.903869406093972"><ele>260.0</ele><time>2026-03-29T07:02:38.999Z</time></trkpt><trkpt lat="44.50785466576294" lon="7.903840172049075"><ele>260.0</ele><time>2026-03-29T07:02:39.999Z</time></trkpt><trkpt lat="44.50799120235666" lon="7.903808593293722"><ele>259.75</ele><time>2026-03-29T07:02:40.999Z</time></trkpt><trkpt lat="44.50812459618802" lon="7.903771681598573"><ele>259.5</ele><time>2026-03-29T07:02:41.999Z</time></trkpt><trkpt lat="44.508251823617606" lon="7.903740834821947"><ele>259.25</ele><time>2026-03-29T07:02:42.999Z</time></trkpt><trkpt lat="44.508379115780926" lon="7.903714079360849"><ele>259.0</ele><time>2026-03-29T07:02:43.998Z</time></trkpt><trkpt lat="44.508479626961595" lon="7.903695816787748"><ele>259.0</ele><time>2026-03-29T07:02:44.998Z</time></trkpt><trkpt lat="44.50857758267052" lon="7.903689081221138"><ele>259.0</ele><time>2026-03-29T07:02:45.998Z</time></trkpt><trkpt lat="44.50867690597873" lon="7.903672156116106"><ele>259.0</ele><time>2026-03-29T07:02:46.998Z</time></trkpt><trkpt lat="44.508758009931576" lon="7.903664127171019"><ele>259.0</ele><time>2026-03-29T07:02:47.998Z</time></trkpt><trkpt lat="44.50883372718033" lon="7.903663111140782"><ele>259.0</ele><time>2026-03-29T07:02:48.998Z</time></trkpt><trkpt lat="44.508911214586334" lon="7.903648437782849"><ele>259.0</ele><time>2026-03-29T07:02:49.998Z</time></trkpt><trkpt lat="44.50899272724061" lon="7.903718582177423"><ele>256.8</ele><time>2026-03-29T07:02:50.998Z</time></trkpt><trkpt lat="44.50907131764294" lon="7.903791329555165"><ele>254.59999999999997</ele><time>2026-03-29T07:02:51.998Z</time></trkpt><trkpt lat="44.50914691753198" lon="7.90388200008954"><ele>252.4</ele><time>2026-03-29T07:02:52.998Z</time></trkpt><trkpt lat="44.509203842948885" lon="7.904000074532868"><ele>250.2</ele><time>2026-03-29T07:02:53.998Z</time></trkpt><trkpt lat="44.50926127066955" lon="7.904111675369612"><ele>248.0</ele><time>2026-03-29T07:02:54.998Z</time></trkpt><trkpt lat="44.50929292932542" lon="7.904235798462656"><ele>247.75</ele><time>2026-03-29T07:02:55.998Z</time></trkpt><trkpt lat="44.50924878195611" lon="7.904393647436633"><ele>247.5</ele><time>2026-03-29T07:02:56.998Z</time></trkpt><trkpt lat="44.509226058738605" lon="7.904537457499806"><ele>247.25</ele><time>2026-03-29T07:02:57.998Z</time></trkpt><trkpt lat="44.509191762363955" lon="7.904671809972284"><ele>247.0</ele><time>2026-03-29T07:02:58.998Z</time></trkpt><trkpt lat="44.5091459783279" lon="7.904835278894934"><ele>247.0</ele><time>2026-03-29T07:02:59.998Z</time></trkpt><trkpt lat="44.50909597361747" lon="7.905005540844667"><ele>247.0</ele><time>2026-03-29T07:03:00.998Z</time></trkpt><trkpt lat="44.509038133494286" lon="7.905185590362295"><ele>247.0</ele><time>2026-03-29T07:03:01.998Z</time></trkpt><trkpt lat="44.50899724178418" lon="7.905346503646995"><ele>247.0</ele><time>2026-03-29T07:03:02.998Z</time></trkpt><trkpt lat="44.50894619740798" lon="7.905516032647153"><ele>246.75</ele><time>2026-03-29T07:03:03.998Z</time></trkpt><trkpt lat="44.50889485908575" lon="7.905685180969088"><ele>246.5</ele><time>2026-03-29T07:03:04.998Z</time></trkpt><trkpt lat="44.50884369995407" lon="7.905852629548964"><ele>246.25</ele><time>2026-03-29T07:03:05.998Z</time></trkpt><trkpt lat="44.50879348762722" lon="7.906019956538021"><ele>246.0</ele><time>2026-03-29T07:03:06.998Z</time></trkpt><trkpt lat="44.50874379102922" lon="7.906205705475876"><ele>248.0</ele><time>2026-03-29T07:03:07.998Z</time></trkpt><trkpt lat="44.508694319069335" lon="7.90639629248155"><ele>250.0</ele><time>2026-03-29T07:03:08.998Z</time></trkpt><trkpt lat="44.508641338488715" lon="7.9065882385817545"><ele>252.0</ele><time>2026-03-29T07:03:09.998Z</time></trkpt><trkpt lat="44.50858533092822" lon="7.906774258396131"><ele>254.0</ele><time>2026-03-29T07:03:11Z</time></trkpt><trkpt lat="44.508534702771684" lon="7.906937657610837"><ele>254.0</ele><time>2026-03-29T07:03:12Z</time></trkpt><trkpt lat="44.50848906894657" lon="7.907100289174863"><ele>254.0</ele><time>2026-03-29T07:03:13Z</time></trkpt><trkpt lat="44.508443010402395" lon="7.907262108133642"><ele>254.0</ele><time>2026-03-29T07:03:14Z</time></trkpt><trkpt lat="44.50839638025057" lon="7.907415117720575"><ele>254.0</ele><time>2026-03-29T07:03:15Z</time></trkpt><trkpt lat="44.5083562167972" lon="7.907554133141085"><ele>253.33333333333334</ele><time>2026-03-29T07:03:16Z</time></trkpt><trkpt lat="44.50833343834668" lon="7.9076862758557045"><ele>252.66666666666669</ele><time>2026-03-29T07:03:17Z</time></trkpt><trkpt lat="44.50831324226971" lon="7.907810724303178"><ele>252.0</ele><time>2026-03-29T07:03:18Z</time></trkpt><trkpt lat="44.50829976255072" lon="7.907918563730619"><ele>251.33333333333331</ele><time>2026-03-29T07:03:19Z</time></trkpt><trkpt lat="44.50828940680656" lon="7.9080154979777895"><ele>250.66666666666666</ele><time>2026-03-29T07:03:20Z</time></trkpt><trkpt lat="44.5082722319171" lon="7.90816166477142"><ele>250.0</ele><time>2026-03-29T07:03:22Z</time></trkpt><trkpt lat="44.508255226572125" lon="7.908278435454134"><ele>249.25</ele><time>2026-03-29T07:03:24Z</time></trkpt><trkpt lat="44.50833962704556" lon="7.90846807205539"><ele>248.5</ele><time>2026-03-29T07:03:26Z</time></trkpt><trkpt lat="44.50843224447527" lon="7.908517464956009"><ele>247.75</ele><time>2026-03-29T07:03:27Z</time></trkpt><trkpt lat="44.50852515039095" lon="7.908589235280529"><ele>247.0</ele><time>2026-03-29T07:03:28Z</time></trkpt><trkpt lat="44.50863845828485" lon="7.908653641400669"><ele>247.0</ele><time>2026-03-29T07:03:29Z</time></trkpt><trkpt lat="44.50874208319567" lon="7.908729187824946"><ele>247.0</ele><time>2026-03-29T07:03:30Z</time></trkpt><trkpt lat="44.50884000245772" lon="7.908797147628417"><ele>247.0</ele><time>2026-03-29T07:03:31Z</time></trkpt><trkpt lat="44.50892877098618" lon="7.908860149625169"><ele>247.0</ele><time>2026-03-29T07:03:32Z</time></trkpt><trkpt lat="44.50901428338356" lon="7.908932153259382"><ele>247.0</ele><time>2026-03-29T07:03:33Z</time></trkpt><trkpt lat="44.509092711435414" lon="7.909027805651653"><ele>246.8</ele><time>2026-03-29T07:03:34Z</time></trkpt><trkpt lat="44.50916171895565" lon="7.909133486141131"><ele>246.6</ele><time>2026-03-29T07:03:35Z</time></trkpt><trkpt lat="44.50921857270271" lon="7.90924105346967"><ele>246.40000000000003</ele><time>2026-03-29T07:03:36Z</time></trkpt><trkpt lat="44.50927888546823" lon="7.909340259526605"><ele>246.20000000000002</ele><time>2026-03-29T07:03:37Z</time></trkpt><trkpt lat="44.50935659040846" lon="7.909435371721331"><ele>246.0</ele><time>2026-03-29T07:03:38Z</time></trkpt><trkpt lat="44.50944445078317" lon="7.909533041659657"><ele>245.8</ele><time>2026-03-29T07:03:39Z</time></trkpt><trkpt lat="44.50954124424501" lon="7.909608317494811"><ele>245.60000000000002</ele><time>2026-03-29T07:03:40Z</time></trkpt><trkpt lat="44.5096283133891" lon="7.909686848527921"><ele>245.4</ele><time>2026-03-29T07:03:41Z</time></trkpt><trkpt lat="44.50971034894346" lon="7.9097578553912005"><ele>245.2</ele><time>2026-03-29T07:03:42Z</time></trkpt><trkpt lat="44.509795711320926" lon="7.909828046337392"><ele>245.0</ele><time>2026-03-29T07:03:43Z</time></trkpt><trkpt lat="44.50988597540724" lon="7.909902814717684"><ele>244.2</ele><time>2026-03-29T07:03:44Z</time></trkpt><trkpt lat="44.50997334077489" lon="7.909976597455565"><ele>243.4</ele><time>2026-03-29T07:03:45Z</time></trkpt><trkpt lat="44.510066855189656" lon="7.910051918715558"><ele>242.60000000000002</ele><time>2026-03-29T07:03:46Z</time></trkpt><trkpt lat="44.510159171744704" lon="7.910127345602349"><ele>241.8</ele><time>2026-03-29T07:03:47Z</time></trkpt><trkpt lat="44.510257458019886" lon="7.910219364178721"><ele>241.0</ele><time>2026-03-29T07:03:48Z</time></trkpt><trkpt lat="44.51034117650947" lon="7.910293222712302"><ele>242.0</ele><time>2026-03-29T07:03:49Z</time></trkpt><trkpt lat="44.51043191096917" lon="7.910364269013006"><ele>243.00000000000003</ele><time>2026-03-29T07:03:50Z</time></trkpt><trkpt lat="44.51052617279227" lon="7.910444044667951"><ele>244.00000000000003</ele><time>2026-03-29T07:03:51Z</time></trkpt><trkpt lat="44.51061455938825" lon="7.910522260101467"><ele>245.0</ele><time>2026-03-29T07:03:52Z</time></trkpt><trkpt lat="44.510712327555154" lon="7.910608846267815"><ele>246.0</ele><time>2026-03-29T07:03:53Z</time></trkpt><trkpt lat="44.51079496492462" lon="7.9106836334469195"><ele>246.0</ele><time>2026-03-29T07:03:53.999Z</time></trkpt><trkpt lat="44.51087877310145" lon="7.910755670706949"><ele>246.0</ele><time>2026-03-29T07:03:54.999Z</time></trkpt><trkpt lat="44.51095406823116" lon="7.910822245702721"><ele>246.0</ele><time>2026-03-29T07:03:55.999Z</time></trkpt><trkpt lat="44.51101653710181" lon="7.9108806173831505"><ele>246.0</ele><time>2026-03-29T07:03:56.999Z</time></trkpt><trkpt lat="44.51107653947128" lon="7.91095269376318"><ele>246.0</ele><time>2026-03-29T07:03:57.999Z</time></trkpt><trkpt lat="44.51111843551241" lon="7.9110190348373965"><ele>246.0</ele><time>2026-03-29T07:03:58.999Z</time></trkpt><trkpt lat="44.511177113936164" lon="7.911114624956041"><ele>247.66666666666666</ele><time>2026-03-29T07:04:00.999Z</time></trkpt><trkpt lat="44.511271995134294" lon="7.911123084960104"><ele>249.33333333333331</ele><time>2026-03-29T07:04:02.999Z</time></trkpt><trkpt lat="44.511326405003324" lon="7.9110760513857565"><ele>251.0</ele><time>2026-03-29T07:04:03.999Z</time></trkpt><trkpt lat="44.5113642212643" lon="7.911004776710568"><ele>252.66666666666666</ele><time>2026-03-29T07:04:04.999Z</time></trkpt><trkpt lat="44.51140708115145" lon="7.9109046261114715"><ele>254.33333333333331</ele><time>2026-03-29T07:04:05.999Z</time></trkpt><trkpt lat="44.51143529925566" lon="7.910807791233808"><ele>256.0</ele><time>2026-03-29T07:04:06.999Z</time></trkpt><trkpt lat="44.51147176024877" lon="7.910709685705431"><ele>256.0</ele><time>2026-03-29T07:04:07.999Z</time></trkpt><trkpt lat="44.51151118288512" lon="7.910591981664449"><ele>256.0</ele><time>2026-03-29T07:04:08.999Z</time></trkpt><trkpt lat="44.511548961244266" lon="7.91046356941427"><ele>256.0</ele><time>2026-03-29T07:04:09.999Z</time></trkpt><trkpt lat="44.51159283601835" lon="7.910338907302425"><ele>256.0</ele><time>2026-03-29T07:04:10.999Z</time></trkpt><trkpt lat="44.511632211283555" lon="7.9102193928320395"><ele>256.0</ele><time>2026-03-29T07:04:11.999Z</time></trkpt><trkpt lat="44.51167003328956" lon="7.9101138425571"><ele>255.4</ele><time>2026-03-29T07:04:12.999Z</time></trkpt><trkpt lat="44.51169919721411" lon="7.910007713947049"><ele>254.8</ele><time>2026-03-29T07:04:13.999Z</time></trkpt><trkpt lat="44.511724138933765" lon="7.909920720772435"><ele>254.20000000000002</ele><time>2026-03-29T07:04:14.999Z</time></trkpt><trkpt lat="44.51176635570082" lon="7.909798005159585"><ele>253.60000000000002</ele><time>2026-03-29T07:04:16.999Z</time></trkpt><trkpt lat="44.511867419134646" lon="7.909950357997558"><ele>253.0</ele><time>2026-03-29T07:04:21.999Z</time></trkpt><trkpt lat="44.51186531942492" lon="7.910053841218767"><ele>253.49999999999997</ele><time>2026-03-29T07:04:22.999Z</time></trkpt><trkpt lat="44.51187347798307" lon="7.910153692693098"><ele>254.0</ele><time>2026-03-29T07:04:23.999Z</time></trkpt><trkpt lat="44.51187512233375" lon="7.910245454100576"><ele>254.5</ele><time>2026-03-29T07:04:24.999Z</time></trkpt><trkpt lat="44.51185030599984" lon="7.910348833394091"><ele>255.0</ele><time>2026-03-29T07:04:25.999Z</time></trkpt><trkpt lat="44.511814994923256" lon="7.910459361616384"><ele>255.49999999999997</ele><time>2026-03-29T07:04:26.999Z</time></trkpt><trkpt lat="44.51177765310795" lon="7.910579534981068"><ele>256.0</ele><time>2026-03-29T07:04:27.999Z</time></trkpt><trkpt lat="44.51175558727859" lon="7.9107109856654985"><ele>255.99999999999997</ele><time>2026-03-29T07:04:28.999Z</time></trkpt><trkpt lat="44.51176236375955" lon="7.91083064933676"><ele>256.0</ele><time>2026-03-29T07:04:29.999Z</time></trkpt><trkpt lat="44.51176400618772" lon="7.910967992692627"><ele>256.0</ele><time>2026-03-29T07:04:30.999Z</time></trkpt><trkpt lat="44.51177617802167" lon="7.911082072124598"><ele>256.0</ele><time>2026-03-29T07:04:31.999Z</time></trkpt><trkpt lat="44.51178858813935" lon="7.911188537824474"><ele>255.99999999999997</ele><time>2026-03-29T07:04:32.999Z</time></trkpt><trkpt lat="44.51179911016707" lon="7.911302711461356"><ele>256.0</ele><time>2026-03-29T07:04:33.999Z</time></trkpt><trkpt lat="44.511806354019164" lon="7.91139339279476"><ele>256.3333333333333</ele><time>2026-03-29T07:04:34.999Z</time></trkpt><trkpt lat="44.511822293434456" lon="7.911499599708121"><ele>256.66666666666663</ele><time>2026-03-29T07:04:35.999Z</time></trkpt><trkpt lat="44.51182862433817" lon="7.911622848749129"><ele>257.0</ele><time>2026-03-29T07:04:36.999Z</time></trkpt><trkpt lat="44.511857288669006" lon="7.911712615789506"><ele>257.3333333333333</ele><time>2026-03-29T07:04:37.999Z</time></trkpt><trkpt lat="44.51188368394318" lon="7.911874274733419"><ele>257.6666666666667</ele><time>2026-03-29T07:04:39.999Z</time></trkpt><trkpt lat="44.5118992915951" lon="7.911973334738346"><ele>258.0</ele><time>2026-03-29T07:04:40.999Z</time></trkpt><trkpt lat="44.51191290945244" lon="7.912083360186248"><ele>258.5</ele><time>2026-03-29T07:04:41.999Z</time></trkpt><trkpt lat="44.51192517199361" lon="7.912198074053097"><ele>259.0</ele><time>2026-03-29T07:04:42.999Z</time></trkpt><trkpt lat="44.51193793941859" lon="7.91231547026477"><ele>259.5</ele><time>2026-03-29T07:04:43.999Z</time></trkpt><trkpt lat="44.51195144777486" lon="7.912421248065934"><ele>260.0</ele><time>2026-03-29T07:04:44.999Z</time></trkpt><trkpt lat="44.51197737512239" lon="7.91252232407829"><ele>260.5</ele><time>2026-03-29T07:04:45.999Z</time></trkpt><trkpt lat="44.51200157008944" lon="7.912623943611805"><ele>261.0</ele><time>2026-03-29T07:04:46.999Z</time></trkpt><trkpt lat="44.51201938997937" lon="7.9127491208708385"><ele>261.2</ele><time>2026-03-29T07:04:47.999Z</time></trkpt><trkpt lat="44.512049740292994" lon="7.9128670671866255"><ele>261.40000000000003</ele><time>2026-03-29T07:04:48.999Z</time></trkpt><trkpt lat="44.51208280979391" lon="7.9129939488039245"><ele>261.6</ele><time>2026-03-29T07:04:49.999Z</time></trkpt><trkpt lat="44.51211587693802" lon="7.913122438655543"><ele>261.8</ele><time>2026-03-29T07:04:50.998Z</time></trkpt><trkpt lat="44.512149315785955" lon="7.913243788829189"><ele>262.0</ele><time>2026-03-29T07:04:51.998Z</time></trkpt><trkpt lat="44.51217591125665" lon="7.913351474646631"><ele>262.3333333333333</ele><time>2026-03-29T07:04:52.998Z</time></trkpt><trkpt lat="44.51219190875025" lon="7.913460551555359"><ele>262.66666666666663</ele><time>2026-03-29T07:04:53.998Z</time></trkpt><trkpt lat="44.51219858786345" lon="7.913577058445864"><ele>263.0</ele><time>2026-03-29T07:04:54.998Z</time></trkpt><trkpt lat="44.512203827702265" lon="7.913705457659687"><ele>263.3333333333333</ele><time>2026-03-29T07:04:55.998Z</time></trkpt><trkpt lat="44.51220237211191" lon="7.913808808340002"><ele>263.6666666666667</ele><time>2026-03-29T07:04:56.998Z</time></trkpt><trkpt lat="44.512198877855695" lon="7.913938667920487"><ele>264.0</ele><time>2026-03-29T07:04:58.998Z</time></trkpt><trkpt lat="44.512248439855384" lon="7.914096842729299"><ele>264.0</ele><time>2026-03-29T07:05:00.998Z</time></trkpt><trkpt lat="44.51228768769951" lon="7.914201686525765"><ele>264.0</ele><time>2026-03-29T07:05:01.998Z</time></trkpt><trkpt lat="44.51233917979706" lon="7.914313888523221"><ele>264.0</ele><time>2026-03-29T07:05:02.998Z</time></trkpt><trkpt lat="44.51240035415335" lon="7.9144015741724285"><ele>264.0</ele><time>2026-03-29T07:05:03.998Z</time></trkpt><trkpt lat="44.512460193505156" lon="7.914476280786418"><ele>264.0</ele><time>2026-03-29T07:05:04.998Z</time></trkpt><trkpt lat="44.51252109609499" lon="7.914554452976215"><ele>264.0</ele><time>2026-03-29T07:05:05.998Z</time></trkpt><trkpt lat="44.51257146427213" lon="7.914631705752233"><ele>264.1666666666667</ele><time>2026-03-29T07:05:06.998Z</time></trkpt><trkpt lat="44.512603932218234" lon="7.914709565295867"><ele>264.3333333333333</ele><time>2026-03-29T07:05:07.998Z</time></trkpt><trkpt lat="44.51264034436371" lon="7.914852939801937"><ele>264.5</ele><time>2026-03-29T07:05:09.998Z</time></trkpt><trkpt lat="44.51260028763568" lon="7.914965643548104"><ele>264.66666666666663</ele><time>2026-03-29T07:05:11.998Z</time></trkpt><trkpt lat="44.512530516115774" lon="7.914997002322114"><ele>264.8333333333333</ele><time>2026-03-29T07:05:12.998Z</time></trkpt><trkpt lat="44.51246598868244" lon="7.915067912200084"><ele>265.0</ele><time>2026-03-29T07:05:13.998Z</time></trkpt><trkpt lat="44.512377200375646" lon="7.9151054164073065"><ele>265.3333333333333</ele><time>2026-03-29T07:05:14.998Z</time></trkpt><trkpt lat="44.51230943045152" lon="7.915155290544011"><ele>265.66666666666663</ele><time>2026-03-29T07:05:15.998Z</time></trkpt><trkpt lat="44.512250411839105" lon="7.9152028426219845"><ele>266.0</ele><time>2026-03-29T07:05:17Z</time></trkpt><trkpt lat="44.51219153888762" lon="7.915285530394437"><ele>266.3333333333333</ele><time>2026-03-29T07:05:19Z</time></trkpt><trkpt lat="44.51220502497284" lon="7.915459568504868"><ele>266.6666666666667</ele><time>2026-03-29T07:05:21Z</time></trkpt><trkpt lat="44.51223928643265" lon="7.915571122253075"><ele>267.0</ele><time>2026-03-29T07:05:22Z</time></trkpt><trkpt lat="44.51227314963196" lon="7.915693255772866"><ele>267.0</ele><time>2026-03-29T07:05:23Z</time></trkpt><trkpt lat="44.51230463431772" lon="7.915821327732768"><ele>267.0</ele><time>2026-03-29T07:05:24Z</time></trkpt><trkpt lat="44.51233727470232" lon="7.915965350797273"><ele>267.0</ele><time>2026-03-29T07:05:25Z</time></trkpt><trkpt lat="44.51238045456376" lon="7.916126483229863"><ele>267.0</ele><time>2026-03-29T07:05:26Z</time></trkpt><trkpt lat="44.51241900110912" lon="7.916269452934387"><ele>267.0</ele><time>2026-03-29T07:05:27Z</time></trkpt><trkpt lat="44.512446527177346" lon="7.916390964243492"><ele>268.0</ele><time>2026-03-29T07:05:28Z</time></trkpt><trkpt lat="44.5124701946749" lon="7.916490834426698"><ele>269.0</ele><time>2026-03-29T07:05:29Z</time></trkpt><trkpt lat="44.512493010579696" lon="7.916631712418169"><ele>270.0</ele><time>2026-03-29T07:05:31Z</time></trkpt><trkpt lat="44.512496846463236" lon="7.916724691241218"><ele>271.0</ele><time>2026-03-29T07:05:35Z</time></trkpt><trkpt lat="44.512393816846796" lon="7.916751708851872"><ele>272.0</ele><time>2026-03-29T07:05:36Z</time></trkpt><trkpt lat="44.51228826348903" lon="7.916815772974474"><ele>272.6666666666667</ele><time>2026-03-29T07:05:38Z</time></trkpt><trkpt lat="44.51221876114675" lon="7.91686045744589"><ele>273.33333333333337</ele><time>2026-03-29T07:05:39Z</time></trkpt><trkpt lat="44.51214827049267" lon="7.916889880016801"><ele>274.0</ele><time>2026-03-29T07:05:40Z</time></trkpt><trkpt lat="44.512068999149776" lon="7.916923316018994"><ele>274.6666666666667</ele><time>2026-03-29T07:05:41Z</time></trkpt><trkpt lat="44.51198708683221" lon="7.91695405934846"><ele>275.3333333333333</ele><time>2026-03-29T07:05:42Z</time></trkpt><trkpt lat="44.511904048111504" lon="7.916988049619171"><ele>276.0</ele><time>2026-03-29T07:05:43Z</time></trkpt><trkpt lat="44.51181091063277" lon="7.9170754150257885"><ele>276.0</ele><time>2026-03-29T07:05:44Z</time></trkpt><trkpt lat="44.51172206635317" lon="7.917131487573432"><ele>276.0</ele><time>2026-03-29T07:05:45Z</time></trkpt><trkpt lat="44.511640630897745" lon="7.917164045130918"><ele>276.0</ele><time>2026-03-29T07:05:46Z</time></trkpt><trkpt lat="44.511571901858275" lon="7.917211336965892"><ele>276.0</ele><time>2026-03-29T07:05:47Z</time></trkpt><trkpt lat="44.51150039697797" lon="7.917210838329357"><ele>276.0</ele><time>2026-03-29T07:05:49Z</time></trkpt><trkpt lat="44.511480009888" lon="7.9174682837948716"><ele>276.0</ele><time>2026-03-29T07:05:59Z</time></trkpt><trkpt lat="44.511525496295" lon="7.917541944304982"><ele>276.0</ele><time>2026-03-29T07:05:59.999Z</time></trkpt><trkpt lat="44.511579607578525" lon="7.91761804935789"><ele>276.0</ele><time>2026-03-29T07:06:00.999Z</time></trkpt><trkpt lat="44.51164942016217" lon="7.917695809511507"><ele>276.0</ele><time>2026-03-29T07:06:01.999Z</time></trkpt><trkpt lat="44.51173842053235" lon="7.917692401971898"><ele>276.0</ele><time>2026-03-29T07:06:02.999Z</time></trkpt><trkpt lat="44.5118165436085" lon="7.917703262188722"><ele>276.0</ele><time>2026-03-29T07:06:03.999Z</time></trkpt><trkpt lat="44.511974500252926" lon="7.917697386031009"><ele>276.8571428571429</ele><time>2026-03-29T07:06:05.999Z</time></trkpt><trkpt lat="44.512045324046156" lon="7.917686937666962"><ele>277.7142857142857</ele><time>2026-03-29T07:06:06.999Z</time></trkpt><trkpt lat="44.512120881612105" lon="7.917664271197353"><ele>278.57142857142856</ele><time>2026-03-29T07:06:07.999Z</time></trkpt><trkpt lat="44.512197302085056" lon="7.917643859101816"><ele>279.42857142857144</ele><time>2026-03-29T07:06:08.999Z</time></trkpt><trkpt lat="44.51226415662697" lon="7.917613220970194"><ele>280.2857142857143</ele><time>2026-03-29T07:06:09.999Z</time></trkpt><trkpt lat="44.51233776190049" lon="7.917590575571845"><ele>281.14285714285717</ele><time>2026-03-29T07:06:10.999Z</time></trkpt><trkpt lat="44.512406526056544" lon="7.917554232610489"><ele>282.0</ele><time>2026-03-29T07:06:11.999Z</time></trkpt><trkpt lat="44.51254186931176" lon="7.91749937786199"><ele>282.3333333333333</ele><time>2026-03-29T07:06:13.999Z</time></trkpt><trkpt lat="44.51261156769898" lon="7.917472557866148"><ele>282.6666666666667</ele><time>2026-03-29T07:06:14.999Z</time></trkpt><trkpt lat="44.5126893628327" lon="7.917445408446728"><ele>283.0</ele><time>2026-03-29T07:06:15.999Z</time></trkpt><trkpt lat="44.51276293979134" lon="7.917408415973752"><ele>283.33333333333337</ele><time>2026-03-29T07:06:16.999Z</time></trkpt><trkpt lat="44.512838210677046" lon="7.917373863514794"><ele>283.6666666666667</ele><time>2026-03-29T07:06:17.999Z</time></trkpt><trkpt lat="44.51292860944685" lon="7.917365677377203"><ele>284.0</ele><time>2026-03-29T07:06:18.999Z</time></trkpt><trkpt lat="44.51300666805991" lon="7.9173691431521185"><ele>285.4</ele><time>2026-03-29T07:06:19.999Z</time></trkpt><trkpt lat="44.51309689282668" lon="7.917361811163085"><ele>286.79999999999995</ele><time>2026-03-29T07:06:20.999Z</time></trkpt><trkpt lat="44.51319155599356" lon="7.917360095871931"><ele>288.20000000000005</ele><time>2026-03-29T07:06:21.999Z</time></trkpt><trkpt lat="44.51329026439148" lon="7.917363755480013"><ele>289.6</ele><time>2026-03-29T07:06:22.999Z</time></trkpt><trkpt lat="44.51339874394893" lon="7.91736946689965"><ele>291.0</ele><time>2026-03-29T07:06:23.999Z</time></trkpt><trkpt lat="44.513505287011846" lon="7.917378193052883"><ele>291.0</ele><time>2026-03-29T07:06:24.999Z</time></trkpt><trkpt lat="44.51360892215745" lon="7.917388312258112"><ele>291.0</ele><time>2026-03-29T07:06:25.999Z</time></trkpt><trkpt lat="44.51374845461071" lon="7.917408020408412"><ele>291.0</ele><time>2026-03-29T07:06:26.999Z</time></trkpt><trkpt lat="44.51386948692883" lon="7.917445275154323"><ele>291.0</ele><time>2026-03-29T07:06:27.999Z</time></trkpt><trkpt lat="44.51398582803037" lon="7.917493057179659"><ele>291.6</ele><time>2026-03-29T07:06:28.999Z</time></trkpt><trkpt lat="44.51409035891347" lon="7.917562486492212"><ele>292.20000000000005</ele><time>2026-03-29T07:06:29.999Z</time></trkpt><trkpt lat="44.51417989055135" lon="7.917675071052643"><ele>292.79999999999995</ele><time>2026-03-29T07:06:30.999Z</time></trkpt><trkpt lat="44.51426672918486" lon="7.917770669505572"><ele>293.4</ele><time>2026-03-29T07:06:31.999Z</time></trkpt><trkpt lat="44.514342989625355" lon="7.917849375143873"><ele>294.0</ele><time>2026-03-29T07:06:32.999Z</time></trkpt><trkpt lat="44.51442366166329" lon="7.917910767706985"><ele>297.2</ele><time>2026-03-29T07:06:33.999Z</time></trkpt><trkpt lat="44.51451648563753" lon="7.9179308137067315"><ele>300.4</ele><time>2026-03-29T07:06:34.999Z</time></trkpt><trkpt lat="44.51461801463604" lon="7.917908080405107"><ele>303.6</ele><time>2026-03-29T07:06:35.999Z</time></trkpt><trkpt lat="44.51471255287259" lon="7.917848857513245"><ele>306.8</ele><time>2026-03-29T07:06:36.999Z</time></trkpt><trkpt lat="44.514813414096146" lon="7.9177635807458"><ele>310.0</ele><time>2026-03-29T07:06:37.999Z</time></trkpt><trkpt lat="44.5149147990956" lon="7.917633032072471"><ele>308.2</ele><time>2026-03-29T07:06:38.999Z</time></trkpt><trkpt lat="44.515020945954205" lon="7.917550805409446"><ele>306.4</ele><time>2026-03-29T07:06:39.999Z</time></trkpt><trkpt lat="44.51512240380943" lon="7.917480165046639"><ele>304.6</ele><time>2026-03-29T07:06:40.999Z</time></trkpt><trkpt lat="44.51520660209003" lon="7.917416943658289"><ele>302.8</ele><time>2026-03-29T07:06:41.999Z</time></trkpt><trkpt lat="44.51526928022922" lon="7.917375230535491"><ele>301.0</ele><time>2026-03-29T07:06:42.999Z</time></trkpt><trkpt lat="44.515330846100795" lon="7.917327733568548"><ele>302.8</ele><time>2026-03-29T07:06:43.999Z</time></trkpt><trkpt lat="44.51542504581095" lon="7.9173162792795235"><ele>304.6</ele><time>2026-03-29T07:06:45.999Z</time></trkpt><trkpt lat="44.515507696681276" lon="7.917398747262483"><ele>306.4</ele><time>2026-03-29T07:06:47.999Z</time></trkpt><trkpt lat="44.51546543160965" lon="7.91754192301516"><ele>308.2</ele><time>2026-03-29T07:06:49.999Z</time></trkpt><trkpt lat="44.51534234459764" lon="7.9176106293688715"><ele>310.0</ele><time>2026-03-29T07:06:51.999Z</time></trkpt><trkpt lat="44.51526246966813" lon="7.917701936278093"><ele>311.4</ele><time>2026-03-29T07:06:52.999Z</time></trkpt><trkpt lat="44.51516993549539" lon="7.917770516314166"><ele>312.8</ele><time>2026-03-29T07:06:53.999Z</time></trkpt><trkpt lat="44.5151009160379" lon="7.91784051755947"><ele>314.2</ele><time>2026-03-29T07:06:54.999Z</time></trkpt><trkpt lat="44.51501490054334" lon="7.917910302566897"><ele>315.6</ele><time>2026-03-29T07:06:55.998Z</time></trkpt><trkpt lat="44.51493125193996" lon="7.9180276059890975"><ele>317.0</ele><time>2026-03-29T07:06:56.998Z</time></trkpt><trkpt lat="44.51486129280416" lon="7.918160541870078"><ele>317.0</ele><time>2026-03-29T07:06:57.998Z</time></trkpt><trkpt lat="44.514808561016274" lon="7.918306502593138"><ele>317.0</ele><time>2026-03-29T07:06:58.998Z</time></trkpt><trkpt lat="44.514767987696096" lon="7.91846213947242"><ele>317.0</ele><time>2026-03-29T07:06:59.998Z</time></trkpt><trkpt lat="44.51473010767177" lon="7.9186285358548965"><ele>317.0</ele><time>2026-03-29T07:07:00.998Z</time></trkpt><trkpt lat="44.514700407991825" lon="7.918814211710458"><ele>319.0</ele><time>2026-03-29T07:07:01.998Z</time></trkpt><trkpt lat="44.51465351814647" lon="7.918986567738907"><ele>321.0</ele><time>2026-03-29T07:07:02.998Z</time></trkpt><trkpt lat="44.51460145844836" lon="7.9191517772407005"><ele>323.0</ele><time>2026-03-29T07:07:03.998Z</time></trkpt><trkpt lat="44.514536116235924" lon="7.919297078476765"><ele>325.0</ele><time>2026-03-29T07:07:04.998Z</time></trkpt><trkpt lat="44.514439794604186" lon="7.9194329454797385"><ele>326.0</ele><time>2026-03-29T07:07:05.998Z</time></trkpt><trkpt lat="44.514324917953644" lon="7.9195468266835345"><ele>327.0</ele><time>2026-03-29T07:07:06.998Z</time></trkpt><trkpt lat="44.51421255833825" lon="7.919660452062252"><ele>328.0</ele><time>2026-03-29T07:07:07.998Z</time></trkpt><trkpt lat="44.514110835071826" lon="7.919780932729627"><ele>329.0</ele><time>2026-03-29T07:07:08.998Z</time></trkpt><trkpt lat="44.513998016515444" lon="7.919912616710902"><ele>329.0</ele><time>2026-03-29T07:07:09.998Z</time></trkpt><trkpt lat="44.513912672441776" lon="7.9200624496155"><ele>329.0</ele><time>2026-03-29T07:07:10.998Z</time></trkpt><trkpt lat="44.5138471463956" lon="7.920235430607079"><ele>329.0</ele><time>2026-03-29T07:07:11.998Z</time></trkpt><trkpt lat="44.51377817973811" lon="7.920411428518914"><ele>329.0</ele><time>2026-03-29T07:07:12.998Z</time></trkpt><trkpt lat="44.51371343892655" lon="7.920602681648312"><ele>330.33333333333337</ele><time>2026-03-29T07:07:13.998Z</time></trkpt><trkpt lat="44.5136550294843" lon="7.9207977144853965"><ele>331.6666666666667</ele><time>2026-03-29T07:07:14.998Z</time></trkpt><trkpt lat="44.51361088298164" lon="7.921009824490252"><ele>333.0</ele><time>2026-03-29T07:07:15.998Z</time></trkpt><trkpt lat="44.513565201358304" lon="7.9212249362800105"><ele>333.0</ele><time>2026-03-29T07:07:16.998Z</time></trkpt><trkpt lat="44.51353076825021" lon="7.921435522756423"><ele>333.0</ele><time>2026-03-29T07:07:17.998Z</time></trkpt><trkpt lat="44.51347835886312" lon="7.921652466686075"><ele>333.0</ele><time>2026-03-29T07:07:18.998Z</time></trkpt><trkpt lat="44.51345102683449" lon="7.92187868367519"><ele>332.6666666666667</ele><time>2026-03-29T07:07:19.998Z</time></trkpt><trkpt lat="44.51339931278965" lon="7.922095037019788"><ele>332.33333333333337</ele><time>2026-03-29T07:07:20.998Z</time></trkpt><trkpt lat="44.51334951345479" lon="7.9223242274324575"><ele>332.0</ele><time>2026-03-29T07:07:21.998Z</time></trkpt><trkpt lat="44.51330727089603" lon="7.9225639601377065"><ele>333.0</ele><time>2026-03-29T07:07:23Z</time></trkpt><trkpt lat="44.51326093610841" lon="7.922803361564622"><ele>334.0</ele><time>2026-03-29T07:07:24Z</time></trkpt><trkpt lat="44.51321448380535" lon="7.9230501955187815"><ele>335.0</ele><time>2026-03-29T07:07:25Z</time></trkpt><trkpt lat="44.51316085552143" lon="7.92329771119848"><ele>334.6666666666667</ele><time>2026-03-29T07:07:26Z</time></trkpt><trkpt lat="44.51311302505739" lon="7.9235519170431505"><ele>334.3333333333333</ele><time>2026-03-29T07:07:27Z</time></trkpt><trkpt lat="44.51306288458799" lon="7.923811441884602"><ele>334.0</ele><time>2026-03-29T07:07:28Z</time></trkpt><trkpt lat="44.51301855455722" lon="7.924077830538216"><ele>333.66666666666663</ele><time>2026-03-29T07:07:29Z</time></trkpt><trkpt lat="44.51296959560696" lon="7.924337903634633"><ele>333.3333333333333</ele><time>2026-03-29T07:07:30Z</time></trkpt><trkpt lat="44.512922602554504" lon="7.924584855855849"><ele>333.0</ele><time>2026-03-29T07:07:31Z</time></trkpt><trkpt lat="44.51288515990249" lon="7.924816290665542"><ele>334.0</ele><time>2026-03-29T07:07:32Z</time></trkpt><trkpt lat="44.51284304332735" lon="7.925038889278404"><ele>335.0</ele><time>2026-03-29T07:07:33Z</time></trkpt><trkpt lat="44.51280941830877" lon="7.925268747044115"><ele>336.0</ele><time>2026-03-29T07:07:34Z</time></trkpt><trkpt lat="44.51278618032374" lon="7.925503572978507"><ele>336.3333333333333</ele><time>2026-03-29T07:07:35Z</time></trkpt><trkpt lat="44.512774852942314" lon="7.925748254318558"><ele>336.66666666666663</ele><time>2026-03-29T07:07:36Z</time></trkpt><trkpt lat="44.51277578043724" lon="7.92600205031999"><ele>337.0</ele><time>2026-03-29T07:07:37Z</time></trkpt><trkpt lat="44.51279080610076" lon="7.926253735231297"><ele>337.0</ele><time>2026-03-29T07:07:38Z</time></trkpt><trkpt lat="44.51281711015122" lon="7.926510564262875"><ele>337.0</ele><time>2026-03-29T07:07:39Z</time></trkpt><trkpt lat="44.512859059381505" lon="7.926756233801277"><ele>337.0</ele><time>2026-03-29T07:07:40Z</time></trkpt><trkpt lat="44.51289895208063" lon="7.927012640064197"><ele>336.66666666666663</ele><time>2026-03-29T07:07:41Z</time></trkpt><trkpt lat="44.512936210712304" lon="7.927287295641233"><ele>336.3333333333333</ele><time>2026-03-29T07:07:42Z</time></trkpt><trkpt lat="44.512983579309235" lon="7.927549352384879"><ele>336.0</ele><time>2026-03-29T07:07:43Z</time></trkpt><trkpt lat="44.51302370054329" lon="7.927823487170835"><ele>336.0</ele><time>2026-03-29T07:07:44Z</time></trkpt><trkpt lat="44.51306482692396" lon="7.928085014931719"><ele>336.0</ele><time>2026-03-29T07:07:45Z</time></trkpt><trkpt lat="44.513101234990046" lon="7.928325150968124"><ele>336.0</ele><time>2026-03-29T07:07:46Z</time></trkpt><trkpt lat="44.51313826308791" lon="7.928566492986221"><ele>335.6666666666667</ele><time>2026-03-29T07:07:47Z</time></trkpt><trkpt lat="44.513175849491766" lon="7.928805949229612"><ele>335.33333333333337</ele><time>2026-03-29T07:07:48Z</time></trkpt><trkpt lat="44.51321034302743" lon="7.929045715692178"><ele>335.0</ele><time>2026-03-29T07:07:49Z</time></trkpt><trkpt lat="44.51324666400447" lon="7.92928036793939"><ele>335.0</ele><time>2026-03-29T07:07:50Z</time></trkpt><trkpt lat="44.51328001628774" lon="7.9295175906382775"><ele>335.0</ele><time>2026-03-29T07:07:51Z</time></trkpt><trkpt lat="44.51331473938545" lon="7.929747475546941"><ele>335.0</ele><time>2026-03-29T07:07:52Z</time></trkpt><trkpt lat="44.51334989697448" lon="7.929977191676843"><ele>334.33333333333337</ele><time>2026-03-29T07:07:53Z</time></trkpt><trkpt lat="44.51338493044243" lon="7.930196361865835"><ele>333.6666666666667</ele><time>2026-03-29T07:07:54Z</time></trkpt><trkpt lat="44.51341904747791" lon="7.930409873223883"><ele>333.0</ele><time>2026-03-29T07:07:55Z</time></trkpt><trkpt lat="44.513451550277786" lon="7.930622139275978"><ele>333.0</ele><time>2026-03-29T07:07:56Z</time></trkpt><trkpt lat="44.51348174031829" lon="7.930833727070773"><ele>333.0</ele><time>2026-03-29T07:07:57Z</time></trkpt><trkpt lat="44.51350649760285" lon="7.931057112570097"><ele>333.0</ele><time>2026-03-29T07:07:58Z</time></trkpt><trkpt lat="44.51352143290138" lon="7.931287473019592"><ele>332.6666666666667</ele><time>2026-03-29T07:07:59Z</time></trkpt><trkpt lat="44.513523397435016" lon="7.9315393458290995"><ele>332.33333333333337</ele><time>2026-03-29T07:08:00Z</time></trkpt><trkpt lat="44.51351899603062" lon="7.9317896576300075"><ele>332.0</ele><time>2026-03-29T07:08:01Z</time></trkpt><trkpt lat="44.51350579692303" lon="7.93204702851336"><ele>332.0</ele><time>2026-03-29T07:08:02Z</time></trkpt><trkpt lat="44.51349411335623" lon="7.932295579951763"><ele>332.0</ele><time>2026-03-29T07:08:03Z</time></trkpt><trkpt lat="44.513494401225174" lon="7.932520840334704"><ele>332.0</ele><time>2026-03-29T07:08:04Z</time></trkpt><trkpt lat="44.51350771597348" lon="7.93274137047863"><ele>333.6666666666667</ele><time>2026-03-29T07:08:04.999Z</time></trkpt><trkpt lat="44.51354209233281" lon="7.93295433725907"><ele>335.3333333333333</ele><time>2026-03-29T07:08:05.999Z</time></trkpt><trkpt lat="44.513602081361576" lon="7.933164875652748"><ele>337.0</ele><time>2026-03-29T07:08:06.999Z</time></trkpt><trkpt lat="44.51367622949136" lon="7.93335945566079"><ele>338.0</ele><time>2026-03-29T07:08:07.999Z</time></trkpt><trkpt lat="44.51376131533439" lon="7.933546244536238"><ele>339.0</ele><time>2026-03-29T07:08:08.999Z</time></trkpt><trkpt lat="44.5138471647351" lon="7.9337354064167975"><ele>340.0</ele><time>2026-03-29T07:08:09.999Z</time></trkpt><trkpt lat="44.513933004272594" lon="7.933927149265137"><ele>340.0</ele><time>2026-03-29T07:08:10.999Z</time></trkpt><trkpt lat="44.51401792488322" lon="7.934118299384796"><ele>340.0</ele><time>2026-03-29T07:08:11.999Z</time></trkpt><trkpt lat="44.51410289801413" lon="7.934314280193392"><ele>340.0</ele><time>2026-03-29T07:08:12.999Z</time></trkpt><trkpt lat="44.51418520714173" lon="7.934520617697565"><ele>340.0</ele><time>2026-03-29T07:08:13.999Z</time></trkpt><trkpt lat="44.51426133801111" lon="7.934730331873821"><ele>340.0</ele><time>2026-03-29T07:08:14.999Z</time></trkpt><trkpt lat="44.514336481953066" lon="7.934945790789616"><ele>340.0</ele><time>2026-03-29T07:08:15.999Z</time></trkpt><trkpt lat="44.51440591007398" lon="7.935171564495636"><ele>340.0</ele><time>2026-03-29T07:08:16.999Z</time></trkpt><trkpt lat="44.51445406554002" lon="7.93540909844404"><ele>340.0</ele><time>2026-03-29T07:08:17.999Z</time></trkpt><trkpt lat="44.51451845633844" lon="7.935643492088403"><ele>340.0</ele><time>2026-03-29T07:08:18.999Z</time></trkpt><trkpt lat="44.514555473139374" lon="7.935887593539012"><ele>343.66666666666663</ele><time>2026-03-29T07:08:19.999Z</time></trkpt><trkpt lat="44.51459430192595" lon="7.936141594328167"><ele>347.3333333333333</ele><time>2026-03-29T07:08:20.999Z</time></trkpt><trkpt lat="44.51462008457599" lon="7.936399260596599"><ele>351.0</ele><time>2026-03-29T07:08:21.999Z</time></trkpt><trkpt lat="44.514648364841996" lon="7.93665716649885"><ele>350.0</ele><time>2026-03-29T07:08:22.999Z</time></trkpt><trkpt lat="44.5146806988861" lon="7.936907912025749"><ele>349.0</ele><time>2026-03-29T07:08:23.999Z</time></trkpt><trkpt lat="44.514712031206194" lon="7.93715634263218"><ele>348.0</ele><time>2026-03-29T07:08:24.999Z</time></trkpt><trkpt lat="44.51474371528619" lon="7.937404037912599"><ele>347.6666666666667</ele><time>2026-03-29T07:08:25.999Z</time></trkpt><trkpt lat="44.51475801971916" lon="7.937649252556504"><ele>347.33333333333337</ele><time>2026-03-29T07:08:26.999Z</time></trkpt><trkpt lat="44.51478763027966" lon="7.937888388248442"><ele>347.0</ele><time>2026-03-29T07:08:27.999Z</time></trkpt><trkpt lat="44.514825753695014" lon="7.93811509695716"><ele>347.0</ele><time>2026-03-29T07:08:28.999Z</time></trkpt><trkpt lat="44.51488168937939" lon="7.9383423575294945"><ele>347.0</ele><time>2026-03-29T07:08:29.999Z</time></trkpt><trkpt lat="44.51497129575245" lon="7.938553953635111"><ele>347.0</ele><time>2026-03-29T07:08:30.999Z</time></trkpt><trkpt lat="44.515056029216204" lon="7.938768697469069"><ele>347.33333333333337</ele><time>2026-03-29T07:08:31.999Z</time></trkpt><trkpt lat="44.51514488637822" lon="7.938984630316934"><ele>347.6666666666667</ele><time>2026-03-29T07:08:32.999Z</time></trkpt><trkpt lat="44.51523023835273" lon="7.9392056739561285"><ele>348.0</ele><time>2026-03-29T07:08:33.999Z</time></trkpt><trkpt lat="44.515315193047115" lon="7.939433356673312"><ele>350.0</ele><time>2026-03-29T07:08:34.999Z</time></trkpt><trkpt lat="44.515406378516175" lon="7.939660359189176"><ele>352.0</ele><time>2026-03-29T07:08:35.999Z</time></trkpt><trkpt lat="44.51550572627898" lon="7.939882827446211"><ele>354.0</ele><time>2026-03-29T07:08:36.999Z</time></trkpt><trkpt lat="44.51561016453849" lon="7.940091855056882"><ele>354.0</ele><time>2026-03-29T07:08:37.999Z</time></trkpt><trkpt lat="44.5157265277571" lon="7.9402946225643944"><ele>354.0</ele><time>2026-03-29T07:08:38.999Z</time></trkpt><trkpt lat="44.515850461120245" lon="7.940481448709381"><ele>354.0</ele><time>2026-03-29T07:08:39.999Z</time></trkpt><trkpt lat="44.515983157954274" lon="7.940656914950808"><ele>354.0</ele><time>2026-03-29T07:08:40.999Z</time></trkpt><trkpt lat="44.516119227826685" lon="7.940820161114145"><ele>354.0</ele><time>2026-03-29T07:08:41.999Z</time></trkpt><trkpt lat="44.516259829927314" lon="7.940983131426281"><ele>354.0</ele><time>2026-03-29T07:08:42.999Z</time></trkpt><trkpt lat="44.516401500390536" lon="7.941147811504878"><ele>356.3333333333333</ele><time>2026-03-29T07:08:43.999Z</time></trkpt><trkpt lat="44.51654807232029" lon="7.941312530867402"><ele>358.66666666666663</ele><time>2026-03-29T07:08:44.999Z</time></trkpt><trkpt lat="44.51668823586212" lon="7.9414815015402125"><ele>361.0</ele><time>2026-03-29T07:08:45.999Z</time></trkpt><trkpt lat="44.51683032045441" lon="7.941650467078659"><ele>363.0</ele><time>2026-03-29T07:08:46.999Z</time></trkpt><trkpt lat="44.51697153613545" lon="7.941806461291582"><ele>365.0</ele><time>2026-03-29T07:08:47.999Z</time></trkpt><trkpt lat="44.51711692635816" lon="7.941976730319878"><ele>367.0</ele><time>2026-03-29T07:08:48.999Z</time></trkpt><trkpt lat="44.51726157553559" lon="7.942140167189485"><ele>367.0</ele><time>2026-03-29T07:08:49.999Z</time></trkpt><trkpt lat="44.51740274530577" lon="7.942305454163468"><ele>367.0</ele><time>2026-03-29T07:08:50.999Z</time></trkpt><trkpt lat="44.51754785659076" lon="7.942468388698294"><ele>367.0</ele><time>2026-03-29T07:08:51.999Z</time></trkpt><trkpt lat="44.517690930794686" lon="7.942633142905959"><ele>367.66666666666663</ele><time>2026-03-29T07:08:52.999Z</time></trkpt><trkpt lat="44.51783526232243" lon="7.942808143267536"><ele>368.3333333333333</ele><time>2026-03-29T07:08:53.999Z</time></trkpt><trkpt lat="44.517980560025144" lon="7.942962506816014"><ele>369.0</ele><time>2026-03-29T07:08:54.999Z</time></trkpt><trkpt lat="44.518125247214705" lon="7.94312162965187"><ele>370.3333333333333</ele><time>2026-03-29T07:08:55.999Z</time></trkpt><trkpt lat="44.518280958940665" lon="7.943285563046019"><ele>371.66666666666663</ele><time>2026-03-29T07:08:56.999Z</time></trkpt><trkpt lat="44.51842667044366" lon="7.9434450687958895"><ele>373.0</ele><time>2026-03-29T07:08:57.999Z</time></trkpt><trkpt lat="44.51857107708722" lon="7.943604728320374"><ele>373.66666666666663</ele><time>2026-03-29T07:08:58.999Z</time></trkpt><trkpt lat="44.51870367400344" lon="7.943741583846039"><ele>374.3333333333333</ele><time>2026-03-29T07:08:59.999Z</time></trkpt><trkpt lat="44.51884590247881" lon="7.943867278049982"><ele>375.0</ele><time>2026-03-29T07:09:00.999Z</time></trkpt><trkpt lat="44.51899769977974" lon="7.943973699244926"><ele>376.3333333333333</ele><time>2026-03-29T07:09:01.998Z</time></trkpt><trkpt lat="44.51915307604628" lon="7.944078349049027"><ele>377.66666666666663</ele><time>2026-03-29T07:09:02.998Z</time></trkpt><trkpt lat="44.51931150588319" lon="7.944167786508747"><ele>379.0</ele><time>2026-03-29T07:09:03.998Z</time></trkpt><trkpt lat="44.51947111348078" lon="7.9442622447095985"><ele>380.3333333333333</ele><time>2026-03-29T07:09:04.998Z</time></trkpt><trkpt lat="44.519635252272806" lon="7.944360194480241"><ele>381.6666666666667</ele><time>2026-03-29T07:09:05.998Z</time></trkpt><trkpt lat="44.519783635086625" lon="7.9444473778434945"><ele>383.0</ele><time>2026-03-29T07:09:06.998Z</time></trkpt><trkpt lat="44.519913890780906" lon="7.944524840186538"><ele>383.0</ele><time>2026-03-29T07:09:07.998Z</time></trkpt><trkpt lat="44.520032866531324" lon="7.944596127933688"><ele>383.0</ele><time>2026-03-29T07:09:08.998Z</time></trkpt><trkpt lat="44.520149741533025" lon="7.944650199173424"><ele>383.0</ele><time>2026-03-29T07:09:09.998Z</time></trkpt><trkpt lat="44.52027688964414" lon="7.944680165056254"><ele>383.0</ele><time>2026-03-29T07:09:10.998Z</time></trkpt><trkpt lat="44.520406333144294" lon="7.944669899673788"><ele>386.25</ele><time>2026-03-29T07:09:11.998Z</time></trkpt><trkpt lat="44.52053442960611" lon="7.944623029641707"><ele>389.5</ele><time>2026-03-29T07:09:12.998Z</time></trkpt><trkpt lat="44.5206603116086" lon="7.944557822105947"><ele>392.75</ele><time>2026-03-29T07:09:13.998Z</time></trkpt><trkpt lat="44.520774022953816" lon="7.944499668364929"><ele>396.0</ele><time>2026-03-29T07:09:14.998Z</time></trkpt><trkpt lat="44.52087476205056" lon="7.944450096695855"><ele>396.0</ele><time>2026-03-29T07:09:15.998Z</time></trkpt><trkpt lat="44.520969904061765" lon="7.944398186810689"><ele>396.0</ele><time>2026-03-29T07:09:16.998Z</time></trkpt><trkpt lat="44.52106033002102" lon="7.944355859793438"><ele>396.0</ele><time>2026-03-29T07:09:17.998Z</time></trkpt><trkpt lat="44.521148324983756" lon="7.9443150456226235"><ele>396.0</ele><time>2026-03-29T07:09:18.998Z</time></trkpt><trkpt lat="44.521238550086146" lon="7.9442746136704185"><ele>396.0</ele><time>2026-03-29T07:09:19.998Z</time></trkpt><trkpt lat="44.5213236508571" lon="7.944241859888295"><ele>395.6</ele><time>2026-03-29T07:09:20.998Z</time></trkpt><trkpt lat="44.5213991517833" lon="7.944215666860898"><ele>395.20000000000005</ele><time>2026-03-29T07:09:21.998Z</time></trkpt><trkpt lat="44.521470664425" lon="7.94420282974268"><ele>394.79999999999995</ele><time>2026-03-29T07:09:22.998Z</time></trkpt><trkpt lat="44.52153836627939" lon="7.944204462957648"><ele>394.4</ele><time>2026-03-29T07:09:23.998Z</time></trkpt><trkpt lat="44.52165804308707" lon="7.944167903588044"><ele>394.0</ele><time>2026-03-29T07:09:25.998Z</time></trkpt><trkpt lat="44.5217479387487" lon="7.944438431716268"><ele>394.0</ele><time>2026-03-29T07:09:27.998Z</time></trkpt><trkpt lat="44.52179217432889" lon="7.944533844666601"><ele>394.0</ele><time>2026-03-29T07:09:29Z</time></trkpt><trkpt lat="44.52182900396828" lon="7.944636525053999"><ele>394.0</ele><time>2026-03-29T07:09:30Z</time></trkpt><trkpt lat="44.5218773461074" lon="7.944752008837945"><ele>394.0</ele><time>2026-03-29T07:09:31Z</time></trkpt><trkpt lat="44.52193019929409" lon="7.944885757890192"><ele>394.0</ele><time>2026-03-29T07:09:32Z</time></trkpt><trkpt lat="44.521992532898146" lon="7.945031267570144"><ele>394.0</ele><time>2026-03-29T07:09:33Z</time></trkpt><trkpt lat="44.52205639221192" lon="7.945178255990636"><ele>394.0</ele><time>2026-03-29T07:09:34Z</time></trkpt><trkpt lat="44.52211420752784" lon="7.945322780243835"><ele>394.0</ele><time>2026-03-29T07:09:35Z</time></trkpt><trkpt lat="44.522174468135766" lon="7.945481905125765"><ele>394.0</ele><time>2026-03-29T07:09:36Z</time></trkpt><trkpt lat="44.522238837251166" lon="7.945648285772311"><ele>394.0</ele><time>2026-03-29T07:09:37Z</time></trkpt><trkpt lat="44.52230528404572" lon="7.945824694462972"><ele>394.0</ele><time>2026-03-29T07:09:38Z</time></trkpt><trkpt lat="44.522367474697894" lon="7.946000742218971"><ele>394.0</ele><time>2026-03-29T07:09:39Z</time></trkpt><trkpt lat="44.522423318318424" lon="7.946147267689085"><ele>394.0</ele><time>2026-03-29T07:09:40Z</time></trkpt><trkpt lat="44.522474273847" lon="7.946279528212464"><ele>394.6666666666667</ele><time>2026-03-29T07:09:41Z</time></trkpt><trkpt lat="44.52252463518639" lon="7.946395300494043"><ele>395.33333333333337</ele><time>2026-03-29T07:09:42Z</time></trkpt><trkpt lat="44.52256297098346" lon="7.946496206900257"><ele>396.0</ele><time>2026-03-29T07:09:43Z</time></trkpt><trkpt lat="44.52258221912053" lon="7.946599093896132"><ele>396.66666666666663</ele><time>2026-03-29T07:09:44Z</time></trkpt><trkpt lat="44.522586771512174" lon="7.946711920602325"><ele>397.3333333333333</ele><time>2026-03-29T07:09:45Z</time></trkpt><trkpt lat="44.52255098576032" lon="7.94683186960354"><ele>398.0</ele><time>2026-03-29T07:09:46Z</time></trkpt><trkpt lat="44.52249613378611" lon="7.9469545662402705"><ele>398.0</ele><time>2026-03-29T07:09:47Z</time></trkpt><trkpt lat="44.5224192708958" lon="7.9470742694202965"><ele>398.0</ele><time>2026-03-29T07:09:48Z</time></trkpt><trkpt lat="44.52233639766275" lon="7.947197666630947"><ele>398.0</ele><time>2026-03-29T07:09:49Z</time></trkpt><trkpt lat="44.52225832799895" lon="7.947315501526237"><ele>398.0</ele><time>2026-03-29T07:09:50Z</time></trkpt><trkpt lat="44.522177659379885" lon="7.947441748154164"><ele>396.5</ele><time>2026-03-29T07:09:51Z</time></trkpt><trkpt lat="44.52209146463542" lon="7.947572371269519"><ele>395.0</ele><time>2026-03-29T07:09:52Z</time></trkpt><trkpt lat="44.52200107500203" lon="7.947696594316828"><ele>393.5</ele><time>2026-03-29T07:09:53Z</time></trkpt><trkpt lat="44.52190219326247" lon="7.947825679981164"><ele>392.0</ele><time>2026-03-29T07:09:54Z</time></trkpt><trkpt lat="44.521806424817065" lon="7.947951930902881"><ele>396.25</ele><time>2026-03-29T07:09:55Z</time></trkpt><trkpt lat="44.52172768092315" lon="7.948063463270841"><ele>400.5</ele><time>2026-03-29T07:09:56Z</time></trkpt><trkpt lat="44.52165469553964" lon="7.948188491268693"><ele>404.75</ele><time>2026-03-29T07:09:57Z</time></trkpt><trkpt lat="44.52158877365629" lon="7.948332070988112"><ele>409.0</ele><time>2026-03-29T07:09:58Z</time></trkpt><trkpt lat="44.52153268330655" lon="7.948478727351761"><ele>409.75</ele><time>2026-03-29T07:09:59Z</time></trkpt><trkpt lat="44.521495287344614" lon="7.948650971273648"><ele>410.5</ele><time>2026-03-29T07:10:00Z</time></trkpt><trkpt lat="44.52147152638209" lon="7.9488320594591295"><ele>411.25</ele><time>2026-03-29T07:10:01Z</time></trkpt><trkpt lat="44.52146685591725" lon="7.949027698287702"><ele>412.0</ele><time>2026-03-29T07:10:02Z</time></trkpt><trkpt lat="44.52145224595785" lon="7.94922435990634"><ele>412.5</ele><time>2026-03-29T07:10:03Z</time></trkpt><trkpt lat="44.5214345132625" lon="7.949413334124298"><ele>413.0</ele><time>2026-03-29T07:10:04Z</time></trkpt><trkpt lat="44.52140663001666" lon="7.949607731694653"><ele>413.5</ele><time>2026-03-29T07:10:05Z</time></trkpt><trkpt lat="44.52137597554804" lon="7.949807223240802"><ele>414.0</ele><time>2026-03-29T07:10:06Z</time></trkpt><trkpt lat="44.521347979871" lon="7.950005151137308"><ele>415.0</ele><time>2026-03-29T07:10:07Z</time></trkpt><trkpt lat="44.52131745413595" lon="7.950192925189655"><ele>416.0</ele><time>2026-03-29T07:10:08Z</time></trkpt><trkpt lat="44.521296304165986" lon="7.950357012257125"><ele>417.0</ele><time>2026-03-29T07:10:09Z</time></trkpt><trkpt lat="44.52128164067396" lon="7.95052984835622"><ele>418.0</ele><time>2026-03-29T07:10:10Z</time></trkpt><trkpt lat="44.52131032390471" lon="7.9507061488033814"><ele>418.00000000000006</ele><time>2026-03-29T07:10:10.999Z</time></trkpt><trkpt lat="44.521349602422134" lon="7.950842757871368"><ele>418.0</ele><time>2026-03-29T07:10:11.999Z</time></trkpt><trkpt lat="44.52135273955528" lon="7.950946676783206"><ele>418.0</ele><time>2026-03-29T07:10:12.999Z</time></trkpt><trkpt lat="44.52134189285025" lon="7.951047009937652"><ele>418.0</ele><time>2026-03-29T07:10:13.999Z</time></trkpt><trkpt lat="44.5213049635803" lon="7.951151695616924"><ele>418.00000000000006</ele><time>2026-03-29T07:10:14.999Z</time></trkpt><trkpt lat="44.52124605732577" lon="7.951254433266876"><ele>418.0</ele><time>2026-03-29T07:10:15.999Z</time></trkpt><trkpt lat="44.52115619825475" lon="7.951302878782565"><ele>421.59999999999997</ele><time>2026-03-29T07:10:16.999Z</time></trkpt><trkpt lat="44.52106071680847" lon="7.951361319088775"><ele>425.2</ele><time>2026-03-29T07:10:17.999Z</time></trkpt><trkpt lat="44.5209690046279" lon="7.951423999724578"><ele>428.8</ele><time>2026-03-29T07:10:18.999Z</time></trkpt><trkpt lat="44.520870569690636" lon="7.951499273620983"><ele>432.4</ele><time>2026-03-29T07:10:19.999Z</time></trkpt><trkpt lat="44.520762200858414" lon="7.95158212814018"><ele>436.0</ele><time>2026-03-29T07:10:20.999Z</time></trkpt><trkpt lat="44.52066099525206" lon="7.951659505964537"><ele>437.75</ele><time>2026-03-29T07:10:21.999Z</time></trkpt><trkpt lat="44.5205537247432" lon="7.951741520805735"><ele>439.5</ele><time>2026-03-29T07:10:22.999Z</time></trkpt><trkpt lat="44.52043494050568" lon="7.951833584554566"><ele>441.25</ele><time>2026-03-29T07:10:23.999Z</time></trkpt><trkpt lat="44.520313579537586" lon="7.9519295248621065"><ele>443.0</ele><time>2026-03-29T07:10:24.999Z</time></trkpt><trkpt lat="44.52018871249104" lon="7.952028236803869"><ele>443.0</ele><time>2026-03-29T07:10:25.999Z</time></trkpt><trkpt lat="44.52008117061575" lon="7.952118698669962"><ele>443.0</ele><time>2026-03-29T07:10:26.999Z</time></trkpt><trkpt lat="44.519990009231044" lon="7.9522283866344425"><ele>443.0</ele><time>2026-03-29T07:10:27.999Z</time></trkpt><trkpt lat="44.51988573495865" lon="7.952351915381674"><ele>443.0</ele><time>2026-03-29T07:10:28.999Z</time></trkpt><trkpt lat="44.51979447282497" lon="7.952490446929543"><ele>441.5</ele><time>2026-03-29T07:10:29.999Z</time></trkpt><trkpt lat="44.51971139511499" lon="7.952636158212841"><ele>440.0</ele><time>2026-03-29T07:10:30.999Z</time></trkpt><trkpt lat="44.51962770806922" lon="7.9527936533586585"><ele>438.5</ele><time>2026-03-29T07:10:31.999Z</time></trkpt><trkpt lat="44.51953799364037" lon="7.952960381394913"><ele>437.0</ele><time>2026-03-29T07:10:32.999Z</time></trkpt><trkpt lat="44.51945145744955" lon="7.9531240911487595"><ele>440.75</ele><time>2026-03-29T07:10:33.999Z</time></trkpt><trkpt lat="44.51935169185491" lon="7.953271339191878"><ele>444.5</ele><time>2026-03-29T07:10:34.999Z</time></trkpt><trkpt lat="44.51926514140783" lon="7.953415160203969"><ele>448.25</ele><time>2026-03-29T07:10:35.999Z</time></trkpt><trkpt lat="44.519204520435764" lon="7.953565480245316"><ele>452.0</ele><time>2026-03-29T07:10:36.999Z</time></trkpt><trkpt lat="44.51914418257614" lon="7.953711153077622"><ele>452.0</ele><time>2026-03-29T07:10:37.999Z</time></trkpt><trkpt lat="44.519110960951195" lon="7.953875303391008"><ele>452.0</ele><time>2026-03-29T07:10:38.999Z</time></trkpt><trkpt lat="44.519073063655995" lon="7.954040414905092"><ele>452.0</ele><time>2026-03-29T07:10:39.999Z</time></trkpt><trkpt lat="44.51903298525368" lon="7.954227475484743"><ele>452.0</ele><time>2026-03-29T07:10:40.999Z</time></trkpt><trkpt lat="44.51899523345808" lon="7.95441307053645"><ele>452.0</ele><time>2026-03-29T07:10:41.999Z</time></trkpt><trkpt lat="44.518956856386716" lon="7.954596456938821"><ele>452.0</ele><time>2026-03-29T07:10:42.999Z</time></trkpt><trkpt lat="44.51891827118052" lon="7.954785683433691"><ele>452.0</ele><time>2026-03-29T07:10:43.999Z</time></trkpt><trkpt lat="44.5188858806436" lon="7.954971710781731"><ele>452.0</ele><time>2026-03-29T07:10:44.999Z</time></trkpt><trkpt lat="44.51885594741264" lon="7.9551634043817305"><ele>452.0</ele><time>2026-03-29T07:10:45.999Z</time></trkpt><trkpt lat="44.518824398747135" lon="7.955358831607167"><ele>452.0</ele><time>2026-03-29T07:10:46.999Z</time></trkpt><trkpt lat="44.518788764584855" lon="7.95555002607523"><ele>452.0</ele><time>2026-03-29T07:10:47.999Z</time></trkpt><trkpt lat="44.51875126007181" lon="7.955731090847458"><ele>452.0</ele><time>2026-03-29T07:10:48.999Z</time></trkpt><trkpt lat="44.518721795944785" lon="7.955891960967188"><ele>455.40000000000003</ele><time>2026-03-29T07:10:49.999Z</time></trkpt><trkpt lat="44.51869951925042" lon="7.956041948507611"><ele>458.80000000000007</ele><time>2026-03-29T07:10:50.999Z</time></trkpt><trkpt lat="44.51867728859792" lon="7.956174714907251"><ele>462.2</ele><time>2026-03-29T07:10:51.999Z</time></trkpt><trkpt lat="44.518654148324295" lon="7.956308512513058"><ele>465.6</ele><time>2026-03-29T07:10:52.999Z</time></trkpt><trkpt lat="44.518615047854965" lon="7.956430865772813"><ele>469.0</ele><time>2026-03-29T07:10:53.999Z</time></trkpt><trkpt lat="44.51855717913549" lon="7.956536475400439"><ele>469.0</ele><time>2026-03-29T07:10:54.999Z</time></trkpt><trkpt lat="44.5184830608033" lon="7.956613185377606"><ele>469.0</ele><time>2026-03-29T07:10:55.999Z</time></trkpt><trkpt lat="44.51839164109679" lon="7.956640145179256"><ele>469.0</ele><time>2026-03-29T07:10:56.999Z</time></trkpt><trkpt lat="44.518304865042715" lon="7.95669125444558"><ele>469.0</ele><time>2026-03-29T07:10:57.999Z</time></trkpt><trkpt lat="44.51823889701046" lon="7.956786081647029"><ele>469.0</ele><time>2026-03-29T07:10:58.999Z</time></trkpt><trkpt lat="44.51817862111404" lon="7.956888214760949"><ele>470.6</ele><time>2026-03-29T07:10:59.999Z</time></trkpt><trkpt lat="44.518142009069024" lon="7.957021834706717"><ele>472.2</ele><time>2026-03-29T07:11:00.999Z</time></trkpt><trkpt lat="44.518121315137705" lon="7.957167766410339"><ele>473.80000000000007</ele><time>2026-03-29T07:11:01.999Z</time></trkpt><trkpt lat="44.51809818518195" lon="7.957323422624393"><ele>475.40000000000003</ele><time>2026-03-29T07:11:02.999Z</time></trkpt><trkpt lat="44.51807489694432" lon="7.957487100773571"><ele>477.0</ele><time>2026-03-29T07:11:03.999Z</time></trkpt><trkpt lat="44.5180491571236" lon="7.957654884834046"><ele>479.0</ele><time>2026-03-29T07:11:04.999Z</time></trkpt><trkpt lat="44.51801895066295" lon="7.957826051857438"><ele>481.0</ele><time>2026-03-29T07:11:05.999Z</time></trkpt><trkpt lat="44.51798237441232" lon="7.9579998537265935"><ele>483.0</ele><time>2026-03-29T07:11:06.998Z</time></trkpt><trkpt lat="44.51794537418483" lon="7.958180043621827"><ele>485.0</ele><time>2026-03-29T07:11:07.998Z</time></trkpt><trkpt lat="44.51790511705568" lon="7.958367197837978"><ele>483.75</ele><time>2026-03-29T07:11:08.998Z</time></trkpt><trkpt lat="44.51786493515635" lon="7.958547168011353"><ele>482.5</ele><time>2026-03-29T07:11:09.998Z</time></trkpt><trkpt lat="44.517824702029024" lon="7.958729212694394"><ele>481.25</ele><time>2026-03-29T07:11:10.998Z</time></trkpt><trkpt lat="44.51778983954395" lon="7.958913839915282"><ele>480.0</ele><time>2026-03-29T07:11:11.998Z</time></trkpt><trkpt lat="44.51775450384668" lon="7.959099629647153"><ele>482.5</ele><time>2026-03-29T07:11:12.998Z</time></trkpt><trkpt lat="44.51771653612697" lon="7.959283695030856"><ele>485.0</ele><time>2026-03-29T07:11:13.998Z</time></trkpt><trkpt lat="44.517660289076716" lon="7.9594752861047455"><ele>487.5</ele><time>2026-03-29T07:11:14.998Z</time></trkpt><trkpt lat="44.51758920244897" lon="7.95963704525745"><ele>490.0</ele><time>2026-03-29T07:11:15.998Z</time></trkpt><trkpt lat="44.51752261216226" lon="7.959798774059655"><ele>490.0</ele><time>2026-03-29T07:11:16.998Z</time></trkpt><trkpt lat="44.51747206562297" lon="7.959977007798748"><ele>490.0</ele><time>2026-03-29T07:11:17.998Z</time></trkpt><trkpt lat="44.5174380092261" lon="7.960164936829348"><ele>490.0</ele><time>2026-03-29T07:11:18.998Z</time></trkpt><trkpt lat="44.51740924002883" lon="7.960343046865591"><ele>490.0</ele><time>2026-03-29T07:11:19.998Z</time></trkpt><trkpt lat="44.51737520412159" lon="7.9604960919277215"><ele>492.75</ele><time>2026-03-29T07:11:20.998Z</time></trkpt><trkpt lat="44.51733715058446" lon="7.960633771079836"><ele>495.5</ele><time>2026-03-29T07:11:21.998Z</time></trkpt><trkpt lat="44.517284047998515" lon="7.960773616896103"><ele>498.25</ele><time>2026-03-29T07:11:22.998Z</time></trkpt><trkpt lat="44.517203165430026" lon="7.960900535738832"><ele>501.0</ele><time>2026-03-29T07:11:23.998Z</time></trkpt><trkpt lat="44.5171063014235" lon="7.961016811233846"><ele>502.5</ele><time>2026-03-29T07:11:24.998Z</time></trkpt><trkpt lat="44.516999057542485" lon="7.961112638113338"><ele>504.0</ele><time>2026-03-29T07:11:25.998Z</time></trkpt><trkpt lat="44.5168883384685" lon="7.961167590405584"><ele>505.5</ele><time>2026-03-29T07:11:26.998Z</time></trkpt><trkpt lat="44.51676276439688" lon="7.961199996198716"><ele>507.0</ele><time>2026-03-29T07:11:27.998Z</time></trkpt><trkpt lat="44.516631858641226" lon="7.961225206712136"><ele>507.0</ele><time>2026-03-29T07:11:28.998Z</time></trkpt><trkpt lat="44.516503306946966" lon="7.961242192765455"><ele>507.00000000000006</ele><time>2026-03-29T07:11:29.998Z</time></trkpt><trkpt lat="44.51639749976787" lon="7.961242539731526"><ele>507.00000000000006</ele><time>2026-03-29T07:11:30.998Z</time></trkpt><trkpt lat="44.51629243010938" lon="7.961229377438348"><ele>507.0</ele><time>2026-03-29T07:11:31.998Z</time></trkpt><trkpt lat="44.516187715862735" lon="7.961213211379482"><ele>507.0</ele><time>2026-03-29T07:11:32.998Z</time></trkpt><trkpt lat="44.51607913299447" lon="7.961219649624233"><ele>508.75</ele><time>2026-03-29T07:11:33.998Z</time></trkpt><trkpt lat="44.51597163135744" lon="7.9612538634155205"><ele>510.5</ele><time>2026-03-29T07:11:35Z</time></trkpt><trkpt lat="44.515871446553795" lon="7.961326764482121"><ele>512.25</ele><time>2026-03-29T07:11:36Z</time></trkpt><trkpt lat="44.515775705510464" lon="7.961420194470441"><ele>514.0</ele><time>2026-03-29T07:11:37Z</time></trkpt><trkpt lat="44.5156836038548" lon="7.961523685116176"><ele>514.0</ele><time>2026-03-29T07:11:38Z</time></trkpt><trkpt lat="44.51559065520994" lon="7.961594639329897"><ele>514.0</ele><time>2026-03-29T07:11:39Z</time></trkpt><trkpt lat="44.515483824530115" lon="7.961640033061474"><ele>514.0</ele><time>2026-03-29T07:11:40Z</time></trkpt><trkpt lat="44.51536843925995" lon="7.961655664996312"><ele>514.0</ele><time>2026-03-29T07:11:41Z</time></trkpt><trkpt lat="44.515257424262586" lon="7.961650490952261"><ele>514.0</ele><time>2026-03-29T07:11:42Z</time></trkpt><trkpt lat="44.51514909688632" lon="7.9616164821887345"><ele>515.4</ele><time>2026-03-29T07:11:43Z</time></trkpt><trkpt lat="44.51504891630577" lon="7.961555232062705"><ele>516.8</ele><time>2026-03-29T07:11:44Z</time></trkpt><trkpt lat="44.51497279183668" lon="7.96143950426409"><ele>518.2</ele><time>2026-03-29T07:11:45Z</time></trkpt><trkpt lat="44.51487905456153" lon="7.961348137521436"><ele>519.6</ele><time>2026-03-29T07:11:46Z</time></trkpt><trkpt lat="44.51479975390928" lon="7.961233808260184"><ele>521.0</ele><time>2026-03-29T07:11:47Z</time></trkpt><trkpt lat="44.51471099682686" lon="7.961108817610686"><ele>521.0</ele><time>2026-03-29T07:11:48Z</time></trkpt><trkpt lat="44.514617157092495" lon="7.96098092991666"><ele>521.0</ele><time>2026-03-29T07:11:49Z</time></trkpt><trkpt lat="44.51452569699952" lon="7.960836990306391"><ele>521.0</ele><time>2026-03-29T07:11:50Z</time></trkpt><trkpt lat="44.514429700004186" lon="7.960685711282726"><ele>521.0</ele><time>2026-03-29T07:11:51Z</time></trkpt><trkpt lat="44.5143463683058" lon="7.960541254690934"><ele>522.8</ele><time>2026-03-29T07:11:52Z</time></trkpt><trkpt lat="44.514273925853914" lon="7.960411298830566"><ele>524.6</ele><time>2026-03-29T07:11:53Z</time></trkpt><trkpt lat="44.51419507330802" lon="7.960296879866815"><ele>526.4</ele><time>2026-03-29T07:11:54Z</time></trkpt><trkpt lat="44.51411341363182" lon="7.960195888735701"><ele>528.2</ele><time>2026-03-29T07:11:55Z</time></trkpt><trkpt lat="44.51403426661311" lon="7.960125589431297"><ele>530.0</ele><time>2026-03-29T07:11:56Z</time></trkpt><trkpt lat="44.513945911809955" lon="7.96007088917915"><ele>530.0</ele><time>2026-03-29T07:11:57Z</time></trkpt><trkpt lat="44.51384942217071" lon="7.960049843955058"><ele>530.0</ele><time>2026-03-29T07:11:58Z</time></trkpt><trkpt lat="44.51374231495186" lon="7.960055865989908"><ele>530.0</ele><time>2026-03-29T07:11:59Z</time></trkpt><trkpt lat="44.513635078298165" lon="7.960078624373256"><ele>530.0</ele><time>2026-03-29T07:12:00Z</time></trkpt><trkpt lat="44.51353068354425" lon="7.9601163489608835"><ele>530.0</ele><time>2026-03-29T07:12:01Z</time></trkpt><trkpt lat="44.51341313150568" lon="7.9601590713729315"><ele>531.25</ele><time>2026-03-29T07:12:02Z</time></trkpt><trkpt lat="44.51328910082235" lon="7.960203578100546"><ele>532.5</ele><time>2026-03-29T07:12:03Z</time></trkpt><trkpt lat="44.51315356614905" lon="7.960244722356696"><ele>533.75</ele><time>2026-03-29T07:12:04Z</time></trkpt><trkpt lat="44.513015785827434" lon="7.960285069783032"><ele>535.0</ele><time>2026-03-29T07:12:05Z</time></trkpt><trkpt lat="44.51286662969118" lon="7.960331082126544"><ele>535.0</ele><time>2026-03-29T07:12:06Z</time></trkpt><trkpt lat="44.51271291680084" lon="7.960388514101753"><ele>535.0</ele><time>2026-03-29T07:12:07Z</time></trkpt><trkpt lat="44.51256058402751" lon="7.960441732477189"><ele>535.0</ele><time>2026-03-29T07:12:08Z</time></trkpt><trkpt lat="44.512403223091816" lon="7.960499733984333"><ele>535.0</ele><time>2026-03-29T07:12:09Z</time></trkpt><trkpt lat="44.51224422330227" lon="7.9605580768788125"><ele>535.0</ele><time>2026-03-29T07:12:10Z</time></trkpt><trkpt lat="44.51208035660248" lon="7.960613683551819"><ele>535.0</ele><time>2026-03-29T07:12:11Z</time></trkpt><trkpt lat="44.51190866107675" lon="7.960673681043535"><ele>534.6666666666667</ele><time>2026-03-29T07:12:12Z</time></trkpt><trkpt lat="44.51173537085392" lon="7.960732593861356"><ele>534.3333333333334</ele><time>2026-03-29T07:12:13Z</time></trkpt><trkpt lat="44.51157019525744" lon="7.960794760626045"><ele>534.0</ele><time>2026-03-29T07:12:14Z</time></trkpt><trkpt lat="44.511407363549594" lon="7.960852103345344"><ele>532.3333333333334</ele><time>2026-03-29T07:12:15Z</time></trkpt><trkpt lat="44.51124229780926" lon="7.96091215931289"><ele>530.6666666666667</ele><time>2026-03-29T07:12:16Z</time></trkpt><trkpt lat="44.5110682546326" lon="7.9609528053959435"><ele>529.0</ele><time>2026-03-29T07:12:16.999Z</time></trkpt><trkpt lat="44.510888286636536" lon="7.961008046422088"><ele>529.0</ele><time>2026-03-29T07:12:17.999Z</time></trkpt><trkpt lat="44.51070567316137" lon="7.96106171162111"><ele>529.0</ele><time>2026-03-29T07:12:18.999Z</time></trkpt><trkpt lat="44.51054077522352" lon="7.961108437019416"><ele>529.0</ele><time>2026-03-29T07:12:19.999Z</time></trkpt><trkpt lat="44.51037300317695" lon="7.961150774729179"><ele>533.3333333333334</ele><time>2026-03-29T07:12:20.999Z</time></trkpt><trkpt lat="44.510198745698524" lon="7.96118517888448"><ele>537.6666666666666</ele><time>2026-03-29T07:12:21.999Z</time></trkpt><trkpt lat="44.51002692719333" lon="7.961233178205126"><ele>542.0</ele><time>2026-03-29T07:12:22.999Z</time></trkpt><trkpt lat="44.50985676875425" lon="7.9612609046499045"><ele>542.0</ele><time>2026-03-29T07:12:23.999Z</time></trkpt><trkpt lat="44.50969331272226" lon="7.961268653988875"><ele>542.0</ele><time>2026-03-29T07:12:24.999Z</time></trkpt><trkpt lat="44.50954609751323" lon="7.96129103143602"><ele>542.0</ele><time>2026-03-29T07:12:25.999Z</time></trkpt><trkpt lat="44.509399908023056" lon="7.961313252977152"><ele>541.6666666666666</ele><time>2026-03-29T07:12:26.999Z</time></trkpt><trkpt lat="44.50925253891521" lon="7.9613356538703295"><ele>541.3333333333334</ele><time>2026-03-29T07:12:27.999Z</time></trkpt><trkpt lat="44.509101399370266" lon="7.9613584320872315"><ele>541.0</ele><time>2026-03-29T07:12:28.999Z</time></trkpt><trkpt lat="44.508942595391154" lon="7.961382373930569"><ele>541.0</ele><time>2026-03-29T07:12:29.999Z</time></trkpt><trkpt lat="44.5087743994187" lon="7.961407952932145"><ele>541.0</ele><time>2026-03-29T07:12:30.999Z</time></trkpt><trkpt lat="44.50860049711061" lon="7.961437150127417"><ele>541.0</ele><time>2026-03-29T07:12:31.999Z</time></trkpt><trkpt lat="44.50841863903405" lon="7.961472208238214"><ele>540.0</ele><time>2026-03-29T07:12:32.999Z</time></trkpt><trkpt lat="44.5082272521261" lon="7.96151459331601"><ele>539.0</ele><time>2026-03-29T07:12:33.999Z</time></trkpt><trkpt lat="44.50803178804109" lon="7.961563100749912"><ele>538.0</ele><time>2026-03-29T07:12:34.999Z</time></trkpt><trkpt lat="44.50783027976598" lon="7.961628879166587"><ele>536.3333333333334</ele><time>2026-03-29T07:12:35.999Z</time></trkpt><trkpt lat="44.50762582924091" lon="7.961679162902269"><ele>534.6666666666666</ele><time>2026-03-29T07:12:36.999Z</time></trkpt><trkpt lat="44.507411164290744" lon="7.9617289120122745"><ele>533.0</ele><time>2026-03-29T07:12:37.999Z</time></trkpt><trkpt lat="44.507193769027346" lon="7.961780305677528"><ele>529.0</ele><time>2026-03-29T07:12:38.999Z</time></trkpt><trkpt lat="44.50697068171728" lon="7.961833703011653"><ele>525.0</ele><time>2026-03-29T07:12:39.999Z</time></trkpt><trkpt lat="44.50674002787164" lon="7.961892775604597"><ele>525.0</ele><time>2026-03-29T07:12:40.999Z</time></trkpt><trkpt lat="44.506507810530096" lon="7.961954329989686"><ele>525.0</ele><time>2026-03-29T07:12:41.999Z</time></trkpt><trkpt lat="44.506306140947345" lon="7.962007074034612"><ele>525.0</ele><time>2026-03-29T07:12:42.999Z</time></trkpt><trkpt lat="44.50611695029953" lon="7.9620505949504015"><ele>527.6666666666666</ele><time>2026-03-29T07:12:43.999Z</time></trkpt><trkpt lat="44.50594498282113" lon="7.962096395455938"><ele>530.3333333333333</ele><time>2026-03-29T07:12:44.999Z</time></trkpt><trkpt lat="44.50577790775073" lon="7.9621391485218025"><ele>533.0</ele><time>2026-03-29T07:12:45.999Z</time></trkpt><trkpt lat="44.505625100338065" lon="7.9621803502447905"><ele>533.0</ele><time>2026-03-29T07:12:46.999Z</time></trkpt><trkpt lat="44.50548653245399" lon="7.9622158665246365"><ele>533.0</ele><time>2026-03-29T07:12:47.999Z</time></trkpt><trkpt lat="44.505355761498166" lon="7.962237349765664"><ele>533.0</ele><time>2026-03-29T07:12:48.999Z</time></trkpt><trkpt lat="44.505222993611234" lon="7.96224049353712"><ele>533.0</ele><time>2026-03-29T07:12:49.999Z</time></trkpt><trkpt lat="44.50507727209424" lon="7.962224949959745"><ele>534.0</ele><time>2026-03-29T07:12:50.999Z</time></trkpt><trkpt lat="44.504930337111226" lon="7.962197753373958"><ele>535.0</ele><time>2026-03-29T07:12:51.999Z</time></trkpt><trkpt lat="44.50477403774417" lon="7.962162739371849"><ele>536.0</ele><time>2026-03-29T07:12:52.999Z</time></trkpt><trkpt lat="44.504606186635705" lon="7.96213697483065"><ele>535.3333333333333</ele><time>2026-03-29T07:12:53.999Z</time></trkpt><trkpt lat="44.50443553881049" lon="7.96215002685408"><ele>534.6666666666666</ele><time>2026-03-29T07:12:54.999Z</time></trkpt><trkpt lat="44.50427149968121" lon="7.962181626128532"><ele>534.0</ele><time>2026-03-29T07:12:55.999Z</time></trkpt><trkpt lat="44.504089864715034" lon="7.962219019617795"><ele>534.0</ele><time>2026-03-29T07:12:56.999Z</time></trkpt><trkpt lat="44.50390725753838" lon="7.962256491808354"><ele>534.0</ele><time>2026-03-29T07:12:57.999Z</time></trkpt><trkpt lat="44.50372076049439" lon="7.962291865011233"><ele>534.0</ele><time>2026-03-29T07:12:58.999Z</time></trkpt><trkpt lat="44.50353963483928" lon="7.962335018335138"><ele>537.3333333333334</ele><time>2026-03-29T07:12:59.999Z</time></trkpt><trkpt lat="44.50334683355634" lon="7.962387729506329"><ele>540.6666666666667</ele><time>2026-03-29T07:13:00.999Z</time></trkpt><trkpt lat="44.50315381013005" lon="7.96244590269797"><ele>544.0</ele><time>2026-03-29T07:13:01.999Z</time></trkpt><trkpt lat="44.502962149167104" lon="7.962524700945859"><ele>543.6666666666667</ele><time>2026-03-29T07:13:02.999Z</time></trkpt><trkpt lat="44.50277212161173" lon="7.962633588643436"><ele>543.3333333333334</ele><time>2026-03-29T07:13:03.999Z</time></trkpt><trkpt lat="44.50259112263111" lon="7.962756322137287"><ele>543.0</ele><time>2026-03-29T07:13:04.999Z</time></trkpt><trkpt lat="44.50241146701272" lon="7.962886291649314"><ele>543.0</ele><time>2026-03-29T07:13:05.999Z</time></trkpt><trkpt lat="44.502236424837946" lon="7.963008286483474"><ele>543.0</ele><time>2026-03-29T07:13:06.999Z</time></trkpt><trkpt lat="44.502075879513924" lon="7.963110187852806"><ele>543.0</ele><time>2026-03-29T07:13:07.999Z</time></trkpt><trkpt lat="44.50193003875916" lon="7.963197950063798"><ele>547.6666666666666</ele><time>2026-03-29T07:13:08.999Z</time></trkpt><trkpt lat="44.50177880208901" lon="7.963272311301184"><ele>552.3333333333333</ele><time>2026-03-29T07:13:09.999Z</time></trkpt><trkpt lat="44.50162863595902" lon="7.963331918261082"><ele>557.0</ele><time>2026-03-29T07:13:10.999Z</time></trkpt><trkpt lat="44.501480964081956" lon="7.963381799998598"><ele>557.0</ele><time>2026-03-29T07:13:11.999Z</time></trkpt><trkpt lat="44.50132933351995" lon="7.963426824009996"><ele>557.0</ele><time>2026-03-29T07:13:12.998Z</time></trkpt><trkpt lat="44.5011763303589" lon="7.963472220278381"><ele>557.0</ele><time>2026-03-29T07:13:13.998Z</time></trkpt><trkpt lat="44.50101753564831" lon="7.963525125445779"><ele>562.3333333333333</ele><time>2026-03-29T07:13:14.998Z</time></trkpt><trkpt lat="44.50085900936765" lon="7.963570833790283"><ele>567.6666666666666</ele><time>2026-03-29T07:13:15.998Z</time></trkpt><trkpt lat="44.500704848165874" lon="7.963614558048463"><ele>573.0</ele><time>2026-03-29T07:13:16.998Z</time></trkpt><trkpt lat="44.500570073716105" lon="7.9636495889802115"><ele>573.0</ele><time>2026-03-29T07:13:17.998Z</time></trkpt><trkpt lat="44.50043891611453" lon="7.963680278323453"><ele>573.0</ele><time>2026-03-29T07:13:18.998Z</time></trkpt><trkpt lat="44.50029958894626" lon="7.963688667763107"><ele>573.0</ele><time>2026-03-29T07:13:19.998Z</time></trkpt><trkpt lat="44.50015978483818" lon="7.963671088498578"><ele>573.0</ele><time>2026-03-29T07:13:20.998Z</time></trkpt><trkpt lat="44.50002512274307" lon="7.963629598087344"><ele>572.75</ele><time>2026-03-29T07:13:21.998Z</time></trkpt><trkpt lat="44.49988982363192" lon="7.963564971164879"><ele>572.5</ele><time>2026-03-29T07:13:22.998Z</time></trkpt><trkpt lat="44.49976312123123" lon="7.963486645764639"><ele>572.25</ele><time>2026-03-29T07:13:23.998Z</time></trkpt><trkpt lat="44.499654040987416" lon="7.963411530117187"><ele>572.0</ele><time>2026-03-29T07:13:24.998Z</time></trkpt><trkpt lat="44.49956534901701" lon="7.963346587583317"><ele>572.0</ele><time>2026-03-29T07:13:25.998Z</time></trkpt><trkpt lat="44.49949209833175" lon="7.963291432988106"><ele>572.0</ele><time>2026-03-29T07:13:26.998Z</time></trkpt><trkpt lat="44.49942559839734" lon="7.963241050257851"><ele>572.0</ele><time>2026-03-29T07:13:27.998Z</time></trkpt><trkpt lat="44.499364593114315" lon="7.963200402344178"><ele>572.0</ele><time>2026-03-29T07:13:28.998Z</time></trkpt><trkpt lat="44.49926477553002" lon="7.963205635398349"><ele>572.0</ele><time>2026-03-29T07:13:30.998Z</time></trkpt><trkpt lat="44.49919677753647" lon="7.963309206579446"><ele>572.0</ele><time>2026-03-29T07:13:32.998Z</time></trkpt><trkpt lat="44.49920888947346" lon="7.9634053950062"><ele>572.8333333333333</ele><time>2026-03-29T07:13:33.998Z</time></trkpt><trkpt lat="44.49923919952425" lon="7.963504451788906"><ele>573.6666666666666</ele><time>2026-03-29T07:13:34.998Z</time></trkpt><trkpt lat="44.49927412994071" lon="7.963609844549718"><ele>574.5</ele><time>2026-03-29T07:13:35.998Z</time></trkpt><trkpt lat="44.49930296298997" lon="7.963730917706435"><ele>575.3333333333334</ele><time>2026-03-29T07:13:36.998Z</time></trkpt><trkpt lat="44.49931939955295" lon="7.963858987730532"><ele>576.1666666666667</ele><time>2026-03-29T07:13:37.998Z</time></trkpt><trkpt lat="44.499329584870154" lon="7.963993778168959"><ele>577.0</ele><time>2026-03-29T07:13:38.998Z</time></trkpt><trkpt lat="44.49933480467509" lon="7.964133035440305"><ele>576.4</ele><time>2026-03-29T07:13:39.998Z</time></trkpt><trkpt lat="44.499324527974785" lon="7.964271854406116"><ele>575.8000000000001</ele><time>2026-03-29T07:13:41Z</time></trkpt><trkpt lat="44.49934795692269" lon="7.9644187127738295"><ele>575.2</ele><time>2026-03-29T07:13:42Z</time></trkpt><trkpt lat="44.49938008768053" lon="7.964576633001491"><ele>574.6</ele><time>2026-03-29T07:13:43Z</time></trkpt><trkpt lat="44.499418483677154" lon="7.9647431228531715"><ele>574.0</ele><time>2026-03-29T07:13:44Z</time></trkpt><trkpt lat="44.49945892973637" lon="7.964913343743013"><ele>574.8333333333334</ele><time>2026-03-29T07:13:45Z</time></trkpt><trkpt lat="44.49949778370877" lon="7.965064248897008"><ele>575.6666666666667</ele><time>2026-03-29T07:13:46Z</time></trkpt><trkpt lat="44.49954540484223" lon="7.965187590849223"><ele>576.5</ele><time>2026-03-29T07:13:47Z</time></trkpt><trkpt lat="44.49956938629512" lon="7.965301402054232"><ele>577.3333333333334</ele><time>2026-03-29T07:13:48Z</time></trkpt><trkpt lat="44.499573630023114" lon="7.965403145918848"><ele>578.1666666666666</ele><time>2026-03-29T07:13:49Z</time></trkpt><trkpt lat="44.499563227250775" lon="7.965498667330311"><ele>579.0</ele><time>2026-03-29T07:13:50Z</time></trkpt><trkpt lat="44.49953386936606" lon="7.96560483065903"><ele>579.0</ele><time>2026-03-29T07:13:51Z</time></trkpt><trkpt lat="44.49947353543511" lon="7.965695981181038"><ele>579.0</ele><time>2026-03-29T07:13:52Z</time></trkpt><trkpt lat="44.49940040057334" lon="7.9657949530846"><ele>579.0</ele><time>2026-03-29T07:13:53Z</time></trkpt><trkpt lat="44.49932366142339" lon="7.965904402958651"><ele>579.0</ele><time>2026-03-29T07:13:54Z</time></trkpt><trkpt lat="44.49923289877131" lon="7.966030551699307"><ele>579.0</ele><time>2026-03-29T07:13:55Z</time></trkpt><trkpt lat="44.499145365800224" lon="7.966156540378546"><ele>582.25</ele><time>2026-03-29T07:13:56Z</time></trkpt><trkpt lat="44.499060210013894" lon="7.966269329768445"><ele>585.5</ele><time>2026-03-29T07:13:57Z</time></trkpt><trkpt lat="44.498978562657506" lon="7.966391395538821"><ele>588.75</ele><time>2026-03-29T07:13:58Z</time></trkpt><trkpt lat="44.4988952572961" lon="7.966514436437102"><ele>592.0</ele><time>2026-03-29T07:13:59Z</time></trkpt><trkpt lat="44.498809519906246" lon="7.966620833550845"><ele>592.0</ele><time>2026-03-29T07:14:00Z</time></trkpt><trkpt lat="44.49872272263903" lon="7.9667139452585785"><ele>592.0</ele><time>2026-03-29T07:14:01Z</time></trkpt><trkpt lat="44.49863242546307" lon="7.966804115072061"><ele>592.0</ele><time>2026-03-29T07:14:02Z</time></trkpt><trkpt lat="44.49853501156295" lon="7.966901612652858"><ele>592.0</ele><time>2026-03-29T07:14:03Z</time></trkpt><trkpt lat="44.498435022140676" lon="7.966986728495106"><ele>592.0</ele><time>2026-03-29T07:14:04Z</time></trkpt><trkpt lat="44.49833682079451" lon="7.967084464924218"><ele>592.0</ele><time>2026-03-29T07:14:05Z</time></trkpt><trkpt lat="44.49824829915341" lon="7.967191074710301"><ele>592.0</ele><time>2026-03-29T07:14:06Z</time></trkpt><trkpt lat="44.49816261985559" lon="7.967298410773313"><ele>592.0</ele><time>2026-03-29T07:14:07Z</time></trkpt><trkpt lat="44.49808700163814" lon="7.9673938779688385"><ele>592.0</ele><time>2026-03-29T07:14:08Z</time></trkpt><trkpt lat="44.49800421828858" lon="7.96749438149827"><ele>592.0</ele><time>2026-03-29T07:14:09Z</time></trkpt><trkpt lat="44.497922592613854" lon="7.9675924671888465"><ele>592.0</ele><time>2026-03-29T07:14:10Z</time></trkpt><trkpt lat="44.49783861562667" lon="7.967692497641625"><ele>592.0</ele><time>2026-03-29T07:14:11Z</time></trkpt><trkpt lat="44.49775679947755" lon="7.967789788846366"><ele>592.0</ele><time>2026-03-29T07:14:12Z</time></trkpt><trkpt lat="44.497673228254605" lon="7.967887834006037"><ele>592.0</ele><time>2026-03-29T07:14:13Z</time></trkpt><trkpt lat="44.49758971561034" lon="7.967989554519908"><ele>592.0</ele><time>2026-03-29T07:14:14Z</time></trkpt><trkpt lat="44.497514342896245" lon="7.968080515095481"><ele>592.0</ele><time>2026-03-29T07:14:15Z</time></trkpt><trkpt lat="44.497426881929044" lon="7.968180563610949"><ele>592.0</ele><time>2026-03-29T07:14:16Z</time></trkpt><trkpt lat="44.49732954596684" lon="7.968272877417485"><ele>592.0</ele><time>2026-03-29T07:14:17Z</time></trkpt><trkpt lat="44.497250194933834" lon="7.96836005402174"><ele>591.8000000000001</ele><time>2026-03-29T07:14:18Z</time></trkpt><trkpt lat="44.49716326000274" lon="7.968450689742506"><ele>591.6</ele><time>2026-03-29T07:14:19Z</time></trkpt><trkpt lat="44.49706869412764" lon="7.968540227591003"><ele>591.4000000000001</ele><time>2026-03-29T07:14:20Z</time></trkpt><trkpt lat="44.49697246882974" lon="7.968625544766414"><ele>591.2</ele><time>2026-03-29T07:14:21Z</time></trkpt><trkpt lat="44.49688251388794" lon="7.968704877153099"><ele>591.0</ele><time>2026-03-29T07:14:22Z</time></trkpt><trkpt lat="44.49679375203016" lon="7.968783538006697"><ele>591.0</ele><time>2026-03-29T07:14:22.999Z</time></trkpt><trkpt lat="44.496704187637135" lon="7.968858846205647"><ele>591.0</ele><time>2026-03-29T07:14:23.999Z</time></trkpt><trkpt lat="44.496611935568176" lon="7.968936194259905"><ele>591.0</ele><time>2026-03-29T07:14:24.999Z</time></trkpt><trkpt lat="44.49652576190477" lon="7.9690124798370565"><ele>591.0</ele><time>2026-03-29T07:14:25.999Z</time></trkpt><trkpt lat="44.49643422109894" lon="7.969087980138768"><ele>591.0</ele><time>2026-03-29T07:14:26.999Z</time></trkpt><trkpt lat="44.49634632855817" lon="7.96916464565463"><ele>591.6</ele><time>2026-03-29T07:14:27.999Z</time></trkpt><trkpt lat="44.496247571846204" lon="7.969242938007882"><ele>592.2</ele><time>2026-03-29T07:14:28.999Z</time></trkpt><trkpt lat="44.496153456158076" lon="7.96932504948445"><ele>592.8</ele><time>2026-03-29T07:14:29.999Z</time></trkpt><trkpt lat="44.496054731628" lon="7.969404482094862"><ele>593.4</ele><time>2026-03-29T07:14:30.999Z</time></trkpt><trkpt lat="44.49596198580682" lon="7.969487864193863"><ele>594.0</ele><time>2026-03-29T07:14:31.999Z</time></trkpt><trkpt lat="44.495865849047206" lon="7.969563510439789"><ele>594.0</ele><time>2026-03-29T07:14:32.999Z</time></trkpt><trkpt lat="44.49577445433945" lon="7.9696386644213275"><ele>594.0</ele><time>2026-03-29T07:14:33.999Z</time></trkpt><trkpt lat="44.49568547696503" lon="7.969715903509522"><ele>594.0</ele><time>2026-03-29T07:14:34.999Z</time></trkpt><trkpt lat="44.495591338186145" lon="7.96979391606919"><ele>594.0</ele><time>2026-03-29T07:14:35.999Z</time></trkpt><trkpt lat="44.49550325673401" lon="7.969871053110872"><ele>594.0</ele><time>2026-03-29T07:14:36.999Z</time></trkpt><trkpt lat="44.495414436313375" lon="7.969959831542417"><ele>595.6</ele><time>2026-03-29T07:14:37.999Z</time></trkpt><trkpt lat="44.49533370899156" lon="7.970048906737295"><ele>597.2</ele><time>2026-03-29T07:14:38.999Z</time></trkpt><trkpt lat="44.49525757747279" lon="7.970152557349121"><ele>598.8000000000001</ele><time>2026-03-29T07:14:39.999Z</time></trkpt><trkpt lat="44.495192950055795" lon="7.970272638894468"><ele>600.4</ele><time>2026-03-29T07:14:40.999Z</time></trkpt><trkpt lat="44.49512267992891" lon="7.9703861256992345"><ele>602.0</ele><time>2026-03-29T07:14:41.999Z</time></trkpt><trkpt lat="44.49505816243822" lon="7.970492646145705"><ele>602.0</ele><time>2026-03-29T07:14:42.999Z</time></trkpt><trkpt lat="44.49499705860035" lon="7.970596035957672"><ele>602.0</ele><time>2026-03-29T07:14:43.999Z</time></trkpt><trkpt lat="44.4949344650787" lon="7.970698583265672"><ele>602.0</ele><time>2026-03-29T07:14:44.999Z</time></trkpt><trkpt lat="44.49486808046962" lon="7.9708031154312"><ele>602.0</ele><time>2026-03-29T07:14:45.999Z</time></trkpt><trkpt lat="44.494798884785396" lon="7.970911793035192"><ele>602.0</ele><time>2026-03-29T07:14:46.999Z</time></trkpt><trkpt lat="44.494725451185886" lon="7.971015369877402"><ele>603.0</ele><time>2026-03-29T07:14:47.999Z</time></trkpt><trkpt lat="44.49465243783642" lon="7.971127374559564"><ele>604.0</ele><time>2026-03-29T07:14:48.999Z</time></trkpt><trkpt lat="44.49457539211862" lon="7.971230884898622"><ele>605.0</ele><time>2026-03-29T07:14:49.999Z</time></trkpt><trkpt lat="44.49449820634161" lon="7.971325361674403"><ele>606.0</ele><time>2026-03-29T07:14:50.999Z</time></trkpt><trkpt lat="44.49440628857071" lon="7.971427177677076"><ele>607.0</ele><time>2026-03-29T07:14:51.999Z</time></trkpt><trkpt lat="44.494304368672786" lon="7.971521368422548"><ele>607.5</ele><time>2026-03-29T07:14:52.999Z</time></trkpt><trkpt lat="44.49419588068657" lon="7.971608686488229"><ele>608.0</ele><time>2026-03-29T07:14:53.999Z</time></trkpt><trkpt lat="44.49408343700119" lon="7.971691664506459"><ele>608.5</ele><time>2026-03-29T07:14:54.999Z</time></trkpt><trkpt lat="44.49397322883371" lon="7.971775485682755"><ele>609.0</ele><time>2026-03-29T07:14:55.999Z</time></trkpt><trkpt lat="44.49386363625513" lon="7.971868615373895"><ele>611.0</ele><time>2026-03-29T07:14:56.999Z</time></trkpt><trkpt lat="44.493744342726785" lon="7.971970990448829"><ele>613.0</ele><time>2026-03-29T07:14:57.999Z</time></trkpt><trkpt lat="44.49362077808979" lon="7.972080933546271"><ele>615.0</ele><time>2026-03-29T07:14:58.999Z</time></trkpt><trkpt lat="44.49350349332878" lon="7.9722016438573515"><ele>617.0</ele><time>2026-03-29T07:14:59.999Z</time></trkpt><trkpt lat="44.493401001710524" lon="7.972304441188704"><ele>617.0</ele><time>2026-03-29T07:15:00.999Z</time></trkpt><trkpt lat="44.4933214484867" lon="7.9723798752285"><ele>617.0</ele><time>2026-03-29T07:15:01.999Z</time></trkpt><trkpt lat="44.49325328754654" lon="7.972431217289931"><ele>617.0</ele><time>2026-03-29T07:15:02.999Z</time></trkpt><trkpt lat="44.4931797486009" lon="7.97246113202926"><ele>617.0</ele><time>2026-03-29T07:15:03.999Z</time></trkpt><trkpt lat="44.49309064743878" lon="7.972438166396118"><ele>617.0</ele><time>2026-03-29T07:15:04.999Z</time></trkpt><trkpt lat="44.49299518084474" lon="7.972418680150823"><ele>617.0</ele><time>2026-03-29T07:15:05.999Z</time></trkpt><trkpt lat="44.49290919681239" lon="7.972362309097275"><ele>617.2</ele><time>2026-03-29T07:15:06.999Z</time></trkpt><trkpt lat="44.49280977798835" lon="7.97232860838804"><ele>617.4000000000001</ele><time>2026-03-29T07:15:07.999Z</time></trkpt><trkpt lat="44.492703685216014" lon="7.972306631166233"><ele>617.5999999999999</ele><time>2026-03-29T07:15:08.999Z</time></trkpt><trkpt lat="44.49259950739487" lon="7.972296897829839"><ele>617.8</ele><time>2026-03-29T07:15:09.999Z</time></trkpt><trkpt lat="44.49249272808624" lon="7.972299869098719"><ele>618.0</ele><time>2026-03-29T07:15:10.999Z</time></trkpt><trkpt lat="44.4923905932306" lon="7.972313597106005"><ele>618.0</ele><time>2026-03-29T07:15:11.999Z</time></trkpt><trkpt lat="44.49228793963991" lon="7.972355746081592"><ele>618.0</ele><time>2026-03-29T07:15:12.999Z</time></trkpt><trkpt lat="44.49218812481678" lon="7.972417237510303"><ele>618.0</ele><time>2026-03-29T07:15:13.999Z</time></trkpt><trkpt lat="44.492104982653345" lon="7.972489506894585"><ele>618.0</ele><time>2026-03-29T07:15:14.999Z</time></trkpt><trkpt lat="44.492046574105395" lon="7.972583982227916"><ele>618.0</ele><time>2026-03-29T07:15:15.999Z</time></trkpt><trkpt lat="44.4919997683169" lon="7.972706846005959"><ele>618.0</ele><time>2026-03-29T07:15:16.999Z</time></trkpt><trkpt lat="44.49196991220016" lon="7.972838356625523"><ele>618.0</ele><time>2026-03-29T07:15:17.999Z</time></trkpt><trkpt lat="44.49195307939875" lon="7.9729857170681075"><ele>618.0</ele><time>2026-03-29T07:15:18.998Z</time></trkpt><trkpt lat="44.49194299678299" lon="7.973130401454743"><ele>618.0</ele><time>2026-03-29T07:15:19.998Z</time></trkpt><trkpt lat="44.4919302475863" lon="7.973273961646631"><ele>618.0</ele><time>2026-03-29T07:15:20.998Z</time></trkpt><trkpt lat="44.49188601156999" lon="7.973411161239132"><ele>620.0</ele><time>2026-03-29T07:15:21.998Z</time></trkpt><trkpt lat="44.49185142970929" lon="7.973556246750936"><ele>622.0</ele><time>2026-03-29T07:15:22.998Z</time></trkpt><trkpt lat="44.491811296462885" lon="7.973700376544675"><ele>624.0</ele><time>2026-03-29T07:15:23.998Z</time></trkpt><trkpt lat="44.49178061619856" lon="7.973852521035947"><ele>626.0</ele><time>2026-03-29T07:15:24.998Z</time></trkpt><trkpt lat="44.4917316294438" lon="7.974002225054942"><ele>626.0</ele><time>2026-03-29T07:15:25.998Z</time></trkpt><trkpt lat="44.49167637007005" lon="7.97413876006532"><ele>626.0</ele><time>2026-03-29T07:15:26.998Z</time></trkpt><trkpt lat="44.49162930258712" lon="7.974275557904879"><ele>626.0</ele><time>2026-03-29T07:15:27.998Z</time></trkpt><trkpt lat="44.49158534102881" lon="7.974412328405415"><ele>626.0</ele><time>2026-03-29T07:15:28.998Z</time></trkpt><trkpt lat="44.49153033850149" lon="7.974536856438285"><ele>626.0</ele><time>2026-03-29T07:15:29.998Z</time></trkpt><trkpt lat="44.49147453067272" lon="7.974644818037522"><ele>626.2</ele><time>2026-03-29T07:15:30.998Z</time></trkpt><trkpt lat="44.49140886155789" lon="7.974751177164076"><ele>626.4000000000001</ele><time>2026-03-29T07:15:31.998Z</time></trkpt><trkpt lat="44.49133984068892" lon="7.974837322957043"><ele>626.6</ele><time>2026-03-29T07:15:32.998Z</time></trkpt><trkpt lat="44.49126147770402" lon="7.974910636806358"><ele>626.8000000000001</ele><time>2026-03-29T07:15:33.998Z</time></trkpt><trkpt lat="44.491163209529546" lon="7.97496580087374"><ele>627.0</ele><time>2026-03-29T07:15:34.998Z</time></trkpt><trkpt lat="44.49106446346016" lon="7.975009838100942"><ele>628.5</ele><time>2026-03-29T07:15:35.998Z</time></trkpt><trkpt lat="44.49095467139592" lon="7.975058794413736"><ele>630.0</ele><time>2026-03-29T07:15:36.998Z</time></trkpt><trkpt lat="44.4908494091556" lon="7.975099764855474"><ele>631.5</ele><time>2026-03-29T07:15:37.998Z</time></trkpt><trkpt lat="44.49073809324279" lon="7.97514395576039"><ele>633.0</ele><time>2026-03-29T07:15:38.998Z</time></trkpt><trkpt lat="44.49062283599767" lon="7.975203071690976"><ele>633.0</ele><time>2026-03-29T07:15:39.998Z</time></trkpt><trkpt lat="44.49050891688902" lon="7.975254715129104"><ele>633.0</ele><time>2026-03-29T07:15:40.998Z</time></trkpt><trkpt lat="44.490401947592545" lon="7.975291664261263"><ele>633.0</ele><time>2026-03-29T07:15:41.998Z</time></trkpt><trkpt lat="44.49029404269265" lon="7.975331552322488"><ele>633.0</ele><time>2026-03-29T07:15:42.998Z</time></trkpt><trkpt lat="44.49018102834243" lon="7.975378409063111"><ele>632.75</ele><time>2026-03-29T07:15:43.998Z</time></trkpt><trkpt lat="44.49006626359021" lon="7.975427330201416"><ele>632.5</ele><time>2026-03-29T07:15:44.998Z</time></trkpt><trkpt lat="44.48994729673157" lon="7.975473277234962"><ele>632.25</ele><time>2026-03-29T07:15:45.998Z</time></trkpt><trkpt lat="44.48982441552751" lon="7.975524132118432"><ele>632.0</ele><time>2026-03-29T07:15:47Z</time></trkpt><trkpt lat="44.48969003381985" lon="7.975578100149258"><ele>628.6666666666666</ele><time>2026-03-29T07:15:48Z</time></trkpt><trkpt lat="44.48955014877556" lon="7.975636359488212"><ele>625.3333333333334</ele><time>2026-03-29T07:15:49Z</time></trkpt><trkpt lat="44.48940826371281" lon="7.975694452997075"><ele>622.0</ele><time>2026-03-29T07:15:50Z</time></trkpt><trkpt lat="44.4892506443143" lon="7.975759368744432"><ele>622.0</ele><time>2026-03-29T07:15:51Z</time></trkpt><trkpt lat="44.48909149751763" lon="7.975825295719324"><ele>622.0</ele><time>2026-03-29T07:15:52Z</time></trkpt><trkpt lat="44.488935941569764" lon="7.975887338474148"><ele>622.0</ele><time>2026-03-29T07:15:53Z</time></trkpt><trkpt lat="44.4887722034366" lon="7.975961644375373"><ele>626.3333333333334</ele><time>2026-03-29T07:15:54Z</time></trkpt><trkpt lat="44.48861164058308" lon="7.976036308705312"><ele>630.6666666666666</ele><time>2026-03-29T07:15:55Z</time></trkpt><trkpt lat="44.48844427271792" lon="7.976112033948969"><ele>635.0</ele><time>2026-03-29T07:15:56Z</time></trkpt><trkpt lat="44.48827748788179" lon="7.976184476214155"><ele>635.0</ele><time>2026-03-29T07:15:57Z</time></trkpt><trkpt lat="44.48811291432889" lon="7.976257432244064"><ele>635.0</ele><time>2026-03-29T07:15:58Z</time></trkpt><trkpt lat="44.48793955942157" lon="7.976331469493744"><ele>635.0</ele><time>2026-03-29T07:15:59Z</time></trkpt><trkpt lat="44.48777122836273" lon="7.976400728853537"><ele>636.0</ele><time>2026-03-29T07:16:00Z</time></trkpt><trkpt lat="44.4876295425351" lon="7.976467076503751"><ele>637.0</ele><time>2026-03-29T07:16:01Z</time></trkpt><trkpt lat="44.487520302173195" lon="7.976526137086052"><ele>638.0</ele><time>2026-03-29T07:16:02Z</time></trkpt><trkpt lat="44.487420869239855" lon="7.976580128400512"><ele>639.0</ele><time>2026-03-29T07:16:03Z</time></trkpt><trkpt lat="44.487339514852636" lon="7.976652589940484"><ele>638.0</ele><time>2026-03-29T07:16:04Z</time></trkpt><trkpt lat="44.48727094472995" lon="7.9767509707773385"><ele>637.0</ele><time>2026-03-29T07:16:05Z</time></trkpt><trkpt lat="44.487208054501934" lon="7.976868337153212"><ele>636.0</ele><time>2026-03-29T07:16:06Z</time></trkpt><trkpt lat="44.48715726106258" lon="7.9770069942063415"><ele>635.0</ele><time>2026-03-29T07:16:07Z</time></trkpt><trkpt lat="44.48711688128701" lon="7.977167304251395"><ele>634.0</ele><time>2026-03-29T07:16:08Z</time></trkpt><trkpt lat="44.487079705533326" lon="7.977327921093047"><ele>634.0</ele><time>2026-03-29T07:16:09Z</time></trkpt><trkpt lat="44.48703766686354" lon="7.9774820629972325"><ele>634.0</ele><time>2026-03-29T07:16:10Z</time></trkpt><trkpt lat="44.4869920861434" lon="7.977638883529351"><ele>634.0</ele><time>2026-03-29T07:16:11Z</time></trkpt><trkpt lat="44.48694960765771" lon="7.977811729495075"><ele>634.0</ele><time>2026-03-29T07:16:12Z</time></trkpt><trkpt lat="44.486904858985454" lon="7.977985441579297"><ele>634.0</ele><time>2026-03-29T07:16:13Z</time></trkpt><trkpt lat="44.486860939492324" lon="7.978176823633913"><ele>634.0</ele><time>2026-03-29T07:16:14Z</time></trkpt><trkpt lat="44.486812318544395" lon="7.97837306693123"><ele>634.0</ele><time>2026-03-29T07:16:15Z</time></trkpt><trkpt lat="44.48676026004226" lon="7.978577434288371"><ele>634.0</ele><time>2026-03-29T07:16:16Z</time></trkpt><trkpt lat="44.48670768715061" lon="7.9787954563523735"><ele>635.0</ele><time>2026-03-29T07:16:17Z</time></trkpt><trkpt lat="44.48665916951551" lon="7.979001175630377"><ele>636.0</ele><time>2026-03-29T07:16:18Z</time></trkpt><trkpt lat="44.486606742511505" lon="7.979219917549783"><ele>637.0</ele><time>2026-03-29T07:16:19Z</time></trkpt><trkpt lat="44.48654820301282" lon="7.979448063927407"><ele>638.6666666666667</ele><time>2026-03-29T07:16:20Z</time></trkpt><trkpt lat="44.48648509397094" lon="7.9796805924683385"><ele>640.3333333333334</ele><time>2026-03-29T07:16:21Z</time></trkpt><trkpt lat="44.48642059341364" lon="7.979917333978881"><ele>642.0</ele><time>2026-03-29T07:16:22Z</time></trkpt><trkpt lat="44.48634974618711" lon="7.980172662588315"><ele>642.0</ele><time>2026-03-29T07:16:23Z</time></trkpt><trkpt lat="44.48627751713456" lon="7.9804222875643385"><ele>642.0</ele><time>2026-03-29T07:16:24Z</time></trkpt><trkpt lat="44.48619940706607" lon="7.980668433978537"><ele>642.0</ele><time>2026-03-29T07:16:25Z</time></trkpt><trkpt lat="44.486118672950106" lon="7.980920062333778"><ele>645.0</ele><time>2026-03-29T07:16:26Z</time></trkpt><trkpt lat="44.4860448516839" lon="7.981171902793954"><ele>648.0</ele><time>2026-03-29T07:16:27Z</time></trkpt><trkpt lat="44.48596905324605" lon="7.98141393658476"><ele>651.0</ele><time>2026-03-29T07:16:27.999Z</time></trkpt><trkpt lat="44.485900142749394" lon="7.981619338025502"><ele>650.0</ele><time>2026-03-29T07:16:28.999Z</time></trkpt><trkpt lat="44.48583596086676" lon="7.981822255888968"><ele>649.0</ele><time>2026-03-29T07:16:29.999Z</time></trkpt><trkpt lat="44.48575866731418" lon="7.982033347235312"><ele>648.0</ele><time>2026-03-29T07:16:30.999Z</time></trkpt><trkpt lat="44.485669534349555" lon="7.982243802674383"><ele>648.0</ele><time>2026-03-29T07:16:31.999Z</time></trkpt><trkpt lat="44.48555991881366" lon="7.982432934460902"><ele>648.0</ele><time>2026-03-29T07:16:32.999Z</time></trkpt><trkpt lat="44.48543880524199" lon="7.982600649745279"><ele>648.0</ele><time>2026-03-29T07:16:33.999Z</time></trkpt><trkpt lat="44.48531455165828" lon="7.982763921979894"><ele>650.3333333333334</ele><time>2026-03-29T07:16:34.999Z</time></trkpt><trkpt lat="44.48518850925174" lon="7.982935160365047"><ele>652.6666666666667</ele><time>2026-03-29T07:16:35.999Z</time></trkpt><trkpt lat="44.48506615453029" lon="7.983109763271214"><ele>655.0</ele><time>2026-03-29T07:16:36.999Z</time></trkpt><trkpt lat="44.48494630116919" lon="7.983290839470738"><ele>655.3333333333334</ele><time>2026-03-29T07:16:37.999Z</time></trkpt><trkpt lat="44.48482987054457" lon="7.983475933087259"><ele>655.6666666666666</ele><time>2026-03-29T07:16:38.999Z</time></trkpt><trkpt lat="44.48471215593576" lon="7.9836677256546595"><ele>656.0</ele><time>2026-03-29T07:16:39.999Z</time></trkpt><trkpt lat="44.48460061045362" lon="7.983873186775594"><ele>655.3333333333333</ele><time>2026-03-29T07:16:40.999Z</time></trkpt><trkpt lat="44.48449097547183" lon="7.984057424149737"><ele>654.6666666666666</ele><time>2026-03-29T07:16:41.999Z</time></trkpt><trkpt lat="44.484397873988954" lon="7.984239487952291"><ele>654.0</ele><time>2026-03-29T07:16:42.999Z</time></trkpt><trkpt lat="44.48431921963325" lon="7.984370917386242"><ele>655.6</ele><time>2026-03-29T07:16:43.999Z</time></trkpt><trkpt lat="44.48425427476431" lon="7.984505708697783"><ele>657.2</ele><time>2026-03-29T07:16:44.999Z</time></trkpt><trkpt lat="44.48418962159824" lon="7.984637316745167"><ele>658.8000000000001</ele><time>2026-03-29T07:16:45.999Z</time></trkpt><trkpt lat="44.484128941367025" lon="7.984765260548589"><ele>660.4000000000001</ele><time>2026-03-29T07:16:46.999Z</time></trkpt><trkpt lat="44.484076132699364" lon="7.9848865800254964"><ele>662.0</ele><time>2026-03-29T07:16:47.999Z</time></trkpt><trkpt lat="44.48405285193798" lon="7.985050541121653"><ele>662.0</ele><time>2026-03-29T07:16:48.999Z</time></trkpt><trkpt lat="44.48405605523013" lon="7.985228977123283"><ele>662.0</ele><time>2026-03-29T07:16:49.999Z</time></trkpt><trkpt lat="44.484052306268666" lon="7.985431273041415"><ele>662.0</ele><time>2026-03-29T07:16:50.999Z</time></trkpt><trkpt lat="44.48403494664592" lon="7.985649157570128"><ele>662.0</ele><time>2026-03-29T07:16:51.999Z</time></trkpt><trkpt lat="44.48402097950711" lon="7.985873006207438"><ele>659.6666666666666</ele><time>2026-03-29T07:16:52.999Z</time></trkpt><trkpt lat="44.48400264151263" lon="7.986105852832711"><ele>657.3333333333334</ele><time>2026-03-29T07:16:53.999Z</time></trkpt><trkpt lat="44.48397088957102" lon="7.986336649434775"><ele>655.0</ele><time>2026-03-29T07:16:54.999Z</time></trkpt><trkpt lat="44.48392949083899" lon="7.986587083436729"><ele>653.6666666666667</ele><time>2026-03-29T07:16:55.999Z</time></trkpt><trkpt lat="44.48388979423956" lon="7.986841296689938"><ele>652.3333333333334</ele><time>2026-03-29T07:16:56.999Z</time></trkpt><trkpt lat="44.48385015322823" lon="7.98710491102732"><ele>651.0</ele><time>2026-03-29T07:16:57.999Z</time></trkpt><trkpt lat="44.48379206111515" lon="7.987369853731332"><ele>656.6666666666666</ele><time>2026-03-29T07:16:58.999Z</time></trkpt><trkpt lat="44.483746574167355" lon="7.987636675892049"><ele>662.3333333333333</ele><time>2026-03-29T07:16:59.999Z</time></trkpt><trkpt lat="44.48370019327052" lon="7.9879090925497165"><ele>668.0</ele><time>2026-03-29T07:17:00.999Z</time></trkpt><trkpt lat="44.48365318957483" lon="7.988185934081392"><ele>670.3333333333333</ele><time>2026-03-29T07:17:01.999Z</time></trkpt><trkpt lat="44.4836067843179" lon="7.988459250954985"><ele>672.6666666666666</ele><time>2026-03-29T07:17:02.999Z</time></trkpt><trkpt lat="44.48356009911396" lon="7.988734216644549"><ele>675.0</ele><time>2026-03-29T07:17:03.999Z</time></trkpt><trkpt lat="44.48352809868259" lon="7.989008146828465"><ele>677.0</ele><time>2026-03-29T07:17:04.999Z</time></trkpt><trkpt lat="44.483480851803535" lon="7.989268539601204"><ele>679.0</ele><time>2026-03-29T07:17:05.999Z</time></trkpt><trkpt lat="44.4834355482564" lon="7.989495984028585"><ele>681.0</ele><time>2026-03-29T07:17:06.999Z</time></trkpt><trkpt lat="44.483390246084355" lon="7.989728157483844"><ele>681.0</ele><time>2026-03-29T07:17:07.999Z</time></trkpt><trkpt lat="44.4833476803847" lon="7.989953637757787"><ele>681.0</ele><time>2026-03-29T07:17:08.999Z</time></trkpt><trkpt lat="44.48330686836182" lon="7.99016406303145"><ele>681.0</ele><time>2026-03-29T07:17:09.999Z</time></trkpt><trkpt lat="44.483246100418626" lon="7.99036660945442"><ele>681.75</ele><time>2026-03-29T07:17:10.999Z</time></trkpt><trkpt lat="44.483176517658016" lon="7.990557115574387"><ele>682.5</ele><time>2026-03-29T07:17:11.999Z</time></trkpt><trkpt lat="44.48311160898868" lon="7.990732237082058"><ele>683.25</ele><time>2026-03-29T07:17:12.999Z</time></trkpt><trkpt lat="44.4830417884019" lon="7.990904647846598"><ele>684.0</ele><time>2026-03-29T07:17:13.999Z</time></trkpt><trkpt lat="44.48297625346417" lon="7.991099048025113"><ele>679.0</ele><time>2026-03-29T07:17:14.999Z</time></trkpt><trkpt lat="44.48292553631954" lon="7.991306965671113"><ele>674.0</ele><time>2026-03-29T07:17:15.999Z</time></trkpt><trkpt lat="44.48288892618036" lon="7.991531491614384"><ele>669.0</ele><time>2026-03-29T07:17:16.999Z</time></trkpt><trkpt lat="44.48286473201847" lon="7.991772981926178"><ele>669.0</ele><time>2026-03-29T07:17:17.999Z</time></trkpt><trkpt lat="44.482841770846" lon="7.992024187652712"><ele>669.0</ele><time>2026-03-29T07:17:18.999Z</time></trkpt><trkpt lat="44.48281855427486" lon="7.992269628753275"><ele>669.0</ele><time>2026-03-29T07:17:19.999Z</time></trkpt><trkpt lat="44.48279756901661" lon="7.992529724001438"><ele>669.3333333333334</ele><time>2026-03-29T07:17:20.999Z</time></trkpt><trkpt lat="44.482775252740005" lon="7.992810852197263"><ele>669.6666666666667</ele><time>2026-03-29T07:17:21.999Z</time></trkpt><trkpt lat="44.48275412814109" lon="7.993093339820691"><ele>670.0</ele><time>2026-03-29T07:17:22.999Z</time></trkpt><trkpt lat="44.48272875852781" lon="7.9933771610474675"><ele>672.0</ele><time>2026-03-29T07:17:23.999Z</time></trkpt><trkpt lat="44.4827188803911" lon="7.993632041878899"><ele>674.0</ele><time>2026-03-29T07:17:24.998Z</time></trkpt><trkpt lat="44.482706192399064" lon="7.993838663376708"><ele>676.0</ele><time>2026-03-29T07:17:25.998Z</time></trkpt><trkpt lat="44.482689270288105" lon="7.994006934757229"><ele>677.5</ele><time>2026-03-29T07:17:26.998Z</time></trkpt><trkpt lat="44.482669880145096" lon="7.994194097326766"><ele>679.0</ele><time>2026-03-29T07:17:27.998Z</time></trkpt><trkpt lat="44.48264197862236" lon="7.994360062843414"><ele>680.5</ele><time>2026-03-29T07:17:28.998Z</time></trkpt><trkpt lat="44.48259593962853" lon="7.994525117608601"><ele>682.0</ele><time>2026-03-29T07:17:29.998Z</time></trkpt><trkpt lat="44.48252147845329" lon="7.994692317531503"><ele>682.0</ele><time>2026-03-29T07:17:30.998Z</time></trkpt><trkpt lat="44.48242968117237" lon="7.994851028007082"><ele>682.0</ele><time>2026-03-29T07:17:31.998Z</time></trkpt><trkpt lat="44.48232361333541" lon="7.995014633129249"><ele>682.0</ele><time>2026-03-29T07:17:32.998Z</time></trkpt><trkpt lat="44.48221428644945" lon="7.995181700799731"><ele>680.3333333333334</ele><time>2026-03-29T07:17:33.998Z</time></trkpt><trkpt lat="44.48210129220911" lon="7.9953676683395685"><ele>678.6666666666666</ele><time>2026-03-29T07:17:34.998Z</time></trkpt><trkpt lat="44.48198866523044" lon="7.995557514934973"><ele>677.0</ele><time>2026-03-29T07:17:35.998Z</time></trkpt><trkpt lat="44.48186577205788" lon="7.995744666851022"><ele>675.0</ele><time>2026-03-29T07:17:36.998Z</time></trkpt><trkpt lat="44.48173046706843" lon="7.995928600820716"><ele>673.0</ele><time>2026-03-29T07:17:37.998Z</time></trkpt><trkpt lat="44.48157862817187" lon="7.996107890313257"><ele>671.0</ele><time>2026-03-29T07:17:38.998Z</time></trkpt><trkpt lat="44.48141370058105" lon="7.996277055894142"><ele>672.3333333333333</ele><time>2026-03-29T07:17:39.998Z</time></trkpt><trkpt lat="44.48123761212859" lon="7.996441763809798"><ele>673.6666666666666</ele><time>2026-03-29T07:17:40.998Z</time></trkpt><trkpt lat="44.481057611878185" lon="7.996610222024617"><ele>675.0</ele><time>2026-03-29T07:17:41.998Z</time></trkpt><trkpt lat="44.48087637128908" lon="7.99679074155448"><ele>676.3333333333334</ele><time>2026-03-29T07:17:42.998Z</time></trkpt><trkpt lat="44.48069707060955" lon="7.996968655934692"><ele>677.6666666666667</ele><time>2026-03-29T07:17:43.998Z</time></trkpt><trkpt lat="44.48050807445127" lon="7.997147987463508"><ele>679.0</ele><time>2026-03-29T07:17:44.998Z</time></trkpt><trkpt lat="44.4803334273314" lon="7.997326035558532"><ele>682.6666666666667</ele><time>2026-03-29T07:17:45.998Z</time></trkpt><trkpt lat="44.48015091945039" lon="7.997503869159217"><ele>686.3333333333334</ele><time>2026-03-29T07:17:46.998Z</time></trkpt><trkpt lat="44.47996758484815" lon="7.997682758949647"><ele>690.0</ele><time>2026-03-29T07:17:47.998Z</time></trkpt><trkpt lat="44.47980661385141" lon="7.997839655518207"><ele>690.0</ele><time>2026-03-29T07:17:48.998Z</time></trkpt><trkpt lat="44.47967384084527" lon="7.9979751775273975"><ele>690.0</ele><time>2026-03-29T07:17:49.998Z</time></trkpt><trkpt lat="44.47954935447939" lon="7.998080775257402"><ele>690.0</ele><time>2026-03-29T07:17:50.998Z</time></trkpt><trkpt lat="44.479434291091785" lon="7.998171143733685"><ele>690.0</ele><time>2026-03-29T07:17:51.998Z</time></trkpt><trkpt lat="44.479320622238774" lon="7.998238830411628"><ele>690.75</ele><time>2026-03-29T07:17:53Z</time></trkpt><trkpt lat="44.47919271736395" lon="7.998287356767039"><ele>691.5</ele><time>2026-03-29T07:17:54Z</time></trkpt><trkpt lat="44.47905614782818" lon="7.998320477075251"><ele>692.25</ele><time>2026-03-29T07:17:55Z</time></trkpt><trkpt lat="44.47892564299015" lon="7.998360572328203"><ele>693.0</ele><time>2026-03-29T07:17:56Z</time></trkpt><trkpt lat="44.47878644434717" lon="7.998407370812636"><ele>696.6666666666666</ele><time>2026-03-29T07:17:57Z</time></trkpt><trkpt lat="44.47864773215469" lon="7.998450556530073"><ele>700.3333333333333</ele><time>2026-03-29T07:17:58Z</time></trkpt><trkpt lat="44.47850073317178" lon="7.998499835208466"><ele>704.0</ele><time>2026-03-29T07:17:59Z</time></trkpt><trkpt lat="44.47834852161052" lon="7.998553814964593"><ele>704.0</ele><time>2026-03-29T07:18:00Z</time></trkpt><trkpt lat="44.4781933874484" lon="7.998598004920703"><ele>704.0</ele><time>2026-03-29T07:18:01Z</time></trkpt><trkpt lat="44.47804974403067" lon="7.998645019663356"><ele>704.0</ele><time>2026-03-29T07:18:02Z</time></trkpt><trkpt lat="44.477920160675225" lon="7.998677022570375"><ele>704.0</ele><time>2026-03-29T07:18:03Z</time></trkpt><trkpt lat="44.477812164124" lon="7.9987024847865245"><ele>704.8333333333333</ele><time>2026-03-29T07:18:04Z</time></trkpt><trkpt lat="44.47770419633199" lon="7.998722428065318"><ele>705.6666666666666</ele><time>2026-03-29T07:18:05Z</time></trkpt><trkpt lat="44.47760731081994" lon="7.99874031221312"><ele>706.5</ele><time>2026-03-29T07:18:06Z</time></trkpt><trkpt lat="44.47752422689929" lon="7.9987565489169725"><ele>707.3333333333334</ele><time>2026-03-29T07:18:07Z</time></trkpt><trkpt lat="44.477444261833845" lon="7.9987631820549066"><ele>708.1666666666667</ele><time>2026-03-29T07:18:08Z</time></trkpt><trkpt lat="44.47737634182449" lon="7.998782983161372"><ele>709.0</ele><time>2026-03-29T07:18:09Z</time></trkpt><trkpt lat="44.47728774632127" lon="7.998868450739235"><ele>709.0</ele><time>2026-03-29T07:18:11Z</time></trkpt><trkpt lat="44.4772950438551" lon="7.9990387451867555"><ele>709.0</ele><time>2026-03-29T07:18:13Z</time></trkpt><trkpt lat="44.47734209476884" lon="7.999117415407586"><ele>709.0</ele><time>2026-03-29T07:18:14Z</time></trkpt><trkpt lat="44.47740442179158" lon="7.999188702416506"><ele>709.0</ele><time>2026-03-29T07:18:15Z</time></trkpt><trkpt lat="44.47748041140829" lon="7.999243923985585"><ele>709.0</ele><time>2026-03-29T07:18:16Z</time></trkpt><trkpt lat="44.477559414970074" lon="7.999304531331019"><ele>710.6666666666667</ele><time>2026-03-29T07:18:17Z</time></trkpt><trkpt lat="44.477644942826274" lon="7.999379193316471"><ele>712.3333333333334</ele><time>2026-03-29T07:18:18Z</time></trkpt><trkpt lat="44.477714865014974" lon="7.999458716335035"><ele>714.0</ele><time>2026-03-29T07:18:19Z</time></trkpt><trkpt lat="44.47777855367524" lon="7.99950962395611"><ele>715.6666666666666</ele><time>2026-03-29T07:18:20Z</time></trkpt><trkpt lat="44.477824070138475" lon="7.999598186072792"><ele>717.3333333333333</ele><time>2026-03-29T07:18:21Z</time></trkpt><trkpt lat="44.477858441033405" lon="7.999711035635616"><ele>719.0</ele><time>2026-03-29T07:18:22Z</time></trkpt><trkpt lat="44.47786160221925" lon="7.999827201820104"><ele>719.0</ele><time>2026-03-29T07:18:23Z</time></trkpt><trkpt lat="44.477838363605485" lon="7.999946002784015"><ele>719.0</ele><time>2026-03-29T07:18:24Z</time></trkpt><trkpt lat="44.47780260324159" lon="8.000070798592631"><ele>719.0</ele><time>2026-03-29T07:18:25Z</time></trkpt><trkpt lat="44.477749248157394" lon="8.0001900285258"><ele>719.0</ele><time>2026-03-29T07:18:26Z</time></trkpt><trkpt lat="44.47768508247393" lon="8.000314201464132"><ele>719.0</ele><time>2026-03-29T07:18:27Z</time></trkpt><trkpt lat="44.47762221734771" lon="8.000469355397174"><ele>719.0</ele><time>2026-03-29T07:18:28Z</time></trkpt><trkpt lat="44.47755219505869" lon="8.000596885752037"><ele>719.0</ele><time>2026-03-29T07:18:29Z</time></trkpt><trkpt lat="44.47747861799471" lon="8.000744949347034"><ele>719.0</ele><time>2026-03-29T07:18:30Z</time></trkpt><trkpt lat="44.4774079565975" lon="8.000897509127773"><ele>719.0</ele><time>2026-03-29T07:18:31Z</time></trkpt><trkpt lat="44.477354136187294" lon="8.001032799187929"><ele>717.6</ele><time>2026-03-29T07:18:32Z</time></trkpt><trkpt lat="44.47730211203662" lon="8.001156520826127"><ele>716.2</ele><time>2026-03-29T07:18:32.999Z</time></trkpt><trkpt lat="44.477246236587156" lon="8.001275465503017"><ele>714.8000000000001</ele><time>2026-03-29T07:18:33.999Z</time></trkpt><trkpt lat="44.477179898570036" lon="8.001406759285308"><ele>713.4000000000001</ele><time>2026-03-29T07:18:34.999Z</time></trkpt><trkpt lat="44.477116588177196" lon="8.00154400995973"><ele>712.0</ele><time>2026-03-29T07:18:35.999Z</time></trkpt><trkpt lat="44.47704907203552" lon="8.00167661169826"><ele>711.8</ele><time>2026-03-29T07:18:36.999Z</time></trkpt><trkpt lat="44.47699077283186" lon="8.0017907462247"><ele>711.6</ele><time>2026-03-29T07:18:37.999Z</time></trkpt><trkpt lat="44.4769368369984" lon="8.00193126271732"><ele>711.4</ele><time>2026-03-29T07:18:38.999Z</time></trkpt><trkpt lat="44.476870201613586" lon="8.002056125264366"><ele>711.1999999999999</ele><time>2026-03-29T07:18:39.999Z</time></trkpt><trkpt lat="44.47680325601343" lon="8.002193243569712"><ele>711.0</ele><time>2026-03-29T07:18:40.999Z</time></trkpt><trkpt lat="44.47674248696777" lon="8.00233035431157"><ele>711.0</ele><time>2026-03-29T07:18:41.999Z</time></trkpt><trkpt lat="44.476662312634026" lon="8.002445190209166"><ele>711.0</ele><time>2026-03-29T07:18:42.999Z</time></trkpt><trkpt lat="44.47661565220332" lon="8.002572025903417"><ele>711.0</ele><time>2026-03-29T07:18:43.999Z</time></trkpt><trkpt lat="44.47657470575758" lon="8.002710309139882"><ele>711.0</ele><time>2026-03-29T07:18:44.999Z</time></trkpt><trkpt lat="44.47654012093715" lon="8.002870229179022"><ele>711.0</ele><time>2026-03-29T07:18:45.999Z</time></trkpt><trkpt lat="44.47651886588943" lon="8.003025830578983"><ele>710.5999999999999</ele><time>2026-03-29T07:18:46.999Z</time></trkpt><trkpt lat="44.47649888060776" lon="8.003179851581699"><ele>710.2</ele><time>2026-03-29T07:18:47.999Z</time></trkpt><trkpt lat="44.47648275186711" lon="8.003321036093219"><ele>709.8</ele><time>2026-03-29T07:18:48.999Z</time></trkpt><trkpt lat="44.47646538989287" lon="8.003479257539698"><ele>709.4000000000001</ele><time>2026-03-29T07:18:49.999Z</time></trkpt><trkpt lat="44.4764517209071" lon="8.003626451931398"><ele>709.0</ele><time>2026-03-29T07:18:50.999Z</time></trkpt><trkpt lat="44.47643198618133" lon="8.003771508720998"><ele>707.6</ele><time>2026-03-29T07:18:51.999Z</time></trkpt><trkpt lat="44.476415128201324" lon="8.003915616535867"><ele>706.2</ele><time>2026-03-29T07:18:52.999Z</time></trkpt><trkpt lat="44.47640201144021" lon="8.00405023675451"><ele>704.8000000000001</ele><time>2026-03-29T07:18:53.999Z</time></trkpt><trkpt lat="44.47639072326686" lon="8.004174332431328"><ele>703.4000000000001</ele><time>2026-03-29T07:18:54.999Z</time></trkpt><trkpt lat="44.47637528336871" lon="8.00431297625408"><ele>702.0</ele><time>2026-03-29T07:18:55.999Z</time></trkpt><trkpt lat="44.4763585939706" lon="8.004444120723116"><ele>701.4000000000001</ele><time>2026-03-29T07:18:56.999Z</time></trkpt><trkpt lat="44.47634303868051" lon="8.00458253984047"><ele>700.8000000000001</ele><time>2026-03-29T07:18:57.999Z</time></trkpt><trkpt lat="44.47632396071282" lon="8.004724771078774"><ele>700.2</ele><time>2026-03-29T07:18:58.999Z</time></trkpt><trkpt lat="44.47630034061951" lon="8.004871137686974"><ele>699.6</ele><time>2026-03-29T07:18:59.999Z</time></trkpt><trkpt lat="44.47627752004735" lon="8.005005045796858"><ele>699.0</ele><time>2026-03-29T07:19:00.999Z</time></trkpt><trkpt lat="44.47625167384193" lon="8.005142105064039"><ele>699.0</ele><time>2026-03-29T07:19:01.999Z</time></trkpt><trkpt lat="44.47622477705559" lon="8.005271920644478"><ele>699.0</ele><time>2026-03-29T07:19:02.999Z</time></trkpt><trkpt lat="44.47619677602237" lon="8.005421672519192"><ele>699.0</ele><time>2026-03-29T07:19:03.999Z</time></trkpt><trkpt lat="44.47616465668965" lon="8.00555914417013"><ele>699.0</ele><time>2026-03-29T07:19:04.999Z</time></trkpt><trkpt lat="44.47613550929734" lon="8.005683975225063"><ele>699.0</ele><time>2026-03-29T07:19:05.999Z</time></trkpt><trkpt lat="44.47610631317653" lon="8.005823654872291"><ele>697.8000000000001</ele><time>2026-03-29T07:19:06.999Z</time></trkpt><trkpt lat="44.47607601056916" lon="8.00596558593168"><ele>696.6</ele><time>2026-03-29T07:19:07.999Z</time></trkpt><trkpt lat="44.47605012268319" lon="8.006110480926658"><ele>695.4</ele><time>2026-03-29T07:19:08.999Z</time></trkpt><trkpt lat="44.47602153727847" lon="8.006247223239662"><ele>694.2</ele><time>2026-03-29T07:19:09.999Z</time></trkpt><trkpt lat="44.475987547243" lon="8.006389638320883"><ele>693.0</ele><time>2026-03-29T07:19:10.999Z</time></trkpt><trkpt lat="44.47595505149154" lon="8.006539487748142"><ele>694.2</ele><time>2026-03-29T07:19:11.999Z</time></trkpt><trkpt lat="44.47592255734916" lon="8.006691334223031"><ele>695.4</ele><time>2026-03-29T07:19:12.999Z</time></trkpt><trkpt lat="44.475889620007756" lon="8.006840544660639"><ele>696.6</ele><time>2026-03-29T07:19:13.999Z</time></trkpt><trkpt lat="44.47586063322701" lon="8.006991082288177"><ele>697.8000000000001</ele><time>2026-03-29T07:19:14.999Z</time></trkpt><trkpt lat="44.47582851630691" lon="8.007136694589231"><ele>699.0</ele><time>2026-03-29T07:19:15.999Z</time></trkpt><trkpt lat="44.47580412335" lon="8.007277944086033"><ele>699.0</ele><time>2026-03-29T07:19:16.999Z</time></trkpt><trkpt lat="44.47578030276579" lon="8.007428487081908"><ele>699.0</ele><time>2026-03-29T07:19:17.999Z</time></trkpt><trkpt lat="44.475756185932504" lon="8.007576599899927"><ele>699.0</ele><time>2026-03-29T07:19:18.999Z</time></trkpt><trkpt lat="44.47573755078538" lon="8.007728841937995"><ele>699.0</ele><time>2026-03-29T07:19:19.999Z</time></trkpt><trkpt lat="44.47572232956734" lon="8.00787987998555"><ele>699.0</ele><time>2026-03-29T07:19:20.999Z</time></trkpt><trkpt lat="44.475713128856434" lon="8.008017724215689"><ele>700.0</ele><time>2026-03-29T07:19:21.999Z</time></trkpt><trkpt lat="44.47569784451586" lon="8.008155888164925"><ele>701.0</ele><time>2026-03-29T07:19:22.999Z</time></trkpt><trkpt lat="44.47567701088679" lon="8.008298834087473"><ele>702.0</ele><time>2026-03-29T07:19:23.999Z</time></trkpt><trkpt lat="44.47564903005201" lon="8.008441752309693"><ele>703.0</ele><time>2026-03-29T07:19:24.999Z</time></trkpt><trkpt lat="44.47561291702511" lon="8.008589367850261"><ele>704.0</ele><time>2026-03-29T07:19:25.999Z</time></trkpt><trkpt lat="44.475563119133895" lon="8.00874225768451"><ele>704.0</ele><time>2026-03-29T07:19:26.999Z</time></trkpt><trkpt lat="44.47551413460772" lon="8.008889485378253"><ele>704.0</ele><time>2026-03-29T07:19:27.999Z</time></trkpt><trkpt lat="44.47546400693797" lon="8.00904378390152"><ele>704.0</ele><time>2026-03-29T07:19:28.999Z</time></trkpt><trkpt lat="44.475417969142676" lon="8.00920520105938"><ele>704.0</ele><time>2026-03-29T07:19:29.998Z</time></trkpt><trkpt lat="44.47537838373758" lon="8.009367109896578"><ele>704.75</ele><time>2026-03-29T07:19:30.998Z</time></trkpt><trkpt lat="44.47534362213687" lon="8.009524449556137"><ele>705.5</ele><time>2026-03-29T07:19:31.998Z</time></trkpt><trkpt lat="44.47530923890498" lon="8.009683893350603"><ele>706.25</ele><time>2026-03-29T07:19:32.998Z</time></trkpt><trkpt lat="44.475274876994746" lon="8.009849112472278"><ele>707.0</ele><time>2026-03-29T07:19:33.998Z</time></trkpt><trkpt lat="44.47524107659342" lon="8.010010101614869"><ele>707.0</ele><time>2026-03-29T07:19:34.998Z</time></trkpt><trkpt lat="44.47521085474866" lon="8.010153654563124"><ele>707.0</ele><time>2026-03-29T07:19:35.998Z</time></trkpt><trkpt lat="44.47518117887204" lon="8.01030315371855"><ele>707.0</ele><time>2026-03-29T07:19:36.998Z</time></trkpt><trkpt lat="44.47514869992094" lon="8.010453183957045"><ele>707.0</ele><time>2026-03-29T07:19:37.998Z</time></trkpt><trkpt lat="44.475115499299996" lon="8.01060530007219"><ele>707.0</ele><time>2026-03-29T07:19:38.998Z</time></trkpt><trkpt lat="44.47508036414378" lon="8.010759095706582"><ele>707.25</ele><time>2026-03-29T07:19:39.998Z</time></trkpt><trkpt lat="44.475041452962614" lon="8.010906476093249"><ele>707.5</ele><time>2026-03-29T07:19:40.998Z</time></trkpt><trkpt lat="44.47500257223636" lon="8.01106514684323"><ele>707.75</ele><time>2026-03-29T07:19:41.998Z</time></trkpt><trkpt lat="44.47496371854369" lon="8.011210193229028"><ele>708.0</ele><time>2026-03-29T07:19:42.998Z</time></trkpt><trkpt lat="44.47491640868377" lon="8.011354272131301"><ele>708.0</ele><time>2026-03-29T07:19:43.998Z</time></trkpt><trkpt lat="44.47486404113189" lon="8.011497478858969"><ele>708.0</ele><time>2026-03-29T07:19:44.998Z</time></trkpt><trkpt lat="44.47481387676679" lon="8.011645362354022"><ele>708.0</ele><time>2026-03-29T07:19:45.998Z</time></trkpt><trkpt lat="44.47476317514396" lon="8.011776926709043"><ele>708.0</ele><time>2026-03-29T07:19:46.998Z</time></trkpt><trkpt lat="44.47470953481976" lon="8.011907132071192"><ele>708.0</ele><time>2026-03-29T07:19:47.998Z</time></trkpt><trkpt lat="44.474656292229135" lon="8.012041155293089"><ele>707.8</ele><time>2026-03-29T07:19:48.998Z</time></trkpt><trkpt lat="44.474604727540665" lon="8.012171256881492"><ele>707.5999999999999</ele><time>2026-03-29T07:19:49.998Z</time></trkpt><trkpt lat="44.47455230022182" lon="8.01230785181651"><ele>707.4000000000001</ele><time>2026-03-29T07:19:50.998Z</time></trkpt><trkpt lat="44.4744874916592" lon="8.01243693665018"><ele>707.2</ele><time>2026-03-29T07:19:51.998Z</time></trkpt><trkpt lat="44.474441181242604" lon="8.012583778357177"><ele>707.0</ele><time>2026-03-29T07:19:52.998Z</time></trkpt><trkpt lat="44.4743887363935" lon="8.012725858932383"><ele>707.6</ele><time>2026-03-29T07:19:53.998Z</time></trkpt><trkpt lat="44.47433814522477" lon="8.012871023155334"><ele>708.2</ele><time>2026-03-29T07:19:54.998Z</time></trkpt><trkpt lat="44.47428891616746" lon="8.013021861564182"><ele>708.8</ele><time>2026-03-29T07:19:55.998Z</time></trkpt><trkpt lat="44.4742426035007" lon="8.013142587875603"><ele>709.4</ele><time>2026-03-29T07:19:56.998Z</time></trkpt><trkpt lat="44.47418950475713" lon="8.013276008005729"><ele>710.0</ele><time>2026-03-29T07:19:57.998Z</time></trkpt><trkpt lat="44.47413966842109" lon="8.01341221302105"><ele>710.4</ele><time>2026-03-29T07:19:59Z</time></trkpt><trkpt lat="44.47409331262614" lon="8.013552912179899"><ele>710.8</ele><time>2026-03-29T07:20:00Z</time></trkpt><trkpt lat="44.47404620099674" lon="8.013683149498002"><ele>711.2</ele><time>2026-03-29T07:20:01Z</time></trkpt><trkpt lat="44.474007066621326" lon="8.013802625872712"><ele>711.6</ele><time>2026-03-29T07:20:02Z</time></trkpt><trkpt lat="44.47396756449028" lon="8.013911496339228"><ele>712.0</ele><time>2026-03-29T07:20:03Z</time></trkpt><trkpt lat="44.47393327933577" lon="8.014002976950083"><ele>712.0</ele><time>2026-03-29T07:20:04Z</time></trkpt><trkpt lat="44.47390122091446" lon="8.014097604546716"><ele>712.0</ele><time>2026-03-29T07:20:05Z</time></trkpt><trkpt lat="44.47386849883251" lon="8.014187277026537"><ele>712.0</ele><time>2026-03-29T07:20:06Z</time></trkpt><trkpt lat="44.47383097519506" lon="8.014349821627633"><ele>712.0</ele><time>2026-03-29T07:20:08Z</time></trkpt><trkpt lat="44.47383608880747" lon="8.014439600040077"><ele>712.0</ele><time>2026-03-29T07:20:09Z</time></trkpt><trkpt lat="44.47387275502778" lon="8.014540733752657"><ele>712.0</ele><time>2026-03-29T07:20:10Z</time></trkpt><trkpt lat="44.47386076338639" lon="8.014656349310421"><ele>712.0</ele><time>2026-03-29T07:20:11Z</time></trkpt><trkpt lat="44.47384468348371" lon="8.01478892051081"><ele>712.0</ele><time>2026-03-29T07:20:12Z</time></trkpt><trkpt lat="44.4738351659904" lon="8.014897628752609"><ele>712.0</ele><time>2026-03-29T07:20:13Z</time></trkpt><trkpt lat="44.47382198518055" lon="8.01501157535815"><ele>712.0</ele><time>2026-03-29T07:20:14Z</time></trkpt><trkpt lat="44.47380544155545" lon="8.015120236561659"><ele>712.0</ele><time>2026-03-29T07:20:15Z</time></trkpt><trkpt lat="44.47379067793369" lon="8.01522475480598"><ele>712.0</ele><time>2026-03-29T07:20:16Z</time></trkpt><trkpt lat="44.473775461838834" lon="8.015332810322828"><ele>711.7142857142857</ele><time>2026-03-29T07:20:17Z</time></trkpt><trkpt lat="44.47376155641243" lon="8.015438241300442"><ele>711.4285714285714</ele><time>2026-03-29T07:20:18Z</time></trkpt><trkpt lat="44.47375043060168" lon="8.015533608162258"><ele>711.1428571428571</ele><time>2026-03-29T07:20:19Z</time></trkpt><trkpt lat="44.47374000150131" lon="8.015627424689416"><ele>710.8571428571429</ele><time>2026-03-29T07:20:20Z</time></trkpt><trkpt lat="44.47372520511011" lon="8.015724955043735"><ele>710.5714285714286</ele><time>2026-03-29T07:20:21Z</time></trkpt><trkpt lat="44.4737157835373" lon="8.01582685487706"><ele>710.2857142857142</ele><time>2026-03-29T07:20:22Z</time></trkpt><trkpt lat="44.473696595134484" lon="8.015924372518063"><ele>710.0</ele><time>2026-03-29T07:20:23Z</time></trkpt><trkpt lat="44.47368396453382" lon="8.016019237746683"><ele>710.0</ele><time>2026-03-29T07:20:24Z</time></trkpt><trkpt lat="44.473668920973964" lon="8.016119835798317"><ele>710.0</ele><time>2026-03-29T07:20:25Z</time></trkpt><trkpt lat="44.47365957286733" lon="8.016222195049789"><ele>710.0</ele><time>2026-03-29T07:20:26Z</time></trkpt><trkpt lat="44.47364805954474" lon="8.016323749090713"><ele>710.0</ele><time>2026-03-29T07:20:27Z</time></trkpt><trkpt lat="44.47363565955165" lon="8.016419465020968"><ele>710.0</ele><time>2026-03-29T07:20:28Z</time></trkpt><trkpt lat="44.473624679571394" lon="8.016516360567207"><ele>710.0</ele><time>2026-03-29T07:20:29Z</time></trkpt><trkpt lat="44.47361201685326" lon="8.016623322005932"><ele>710.0</ele><time>2026-03-29T07:20:30Z</time></trkpt><trkpt lat="44.47360363231684" lon="8.016807924715827"><ele>710.0</ele><time>2026-03-29T07:20:32Z</time></trkpt><trkpt lat="44.473606132775856" lon="8.01689934447202"><ele>710.0</ele><time>2026-03-29T07:20:33Z</time></trkpt><trkpt lat="44.4736080892146" lon="8.016993056474178"><ele>710.0</ele><time>2026-03-29T07:20:34Z</time></trkpt><trkpt lat="44.473611441529236" lon="8.017098193939423"><ele>710.0</ele><time>2026-03-29T07:20:35Z</time></trkpt><trkpt lat="44.4736110211421" lon="8.017213022351"><ele>710.0</ele><time>2026-03-29T07:20:36Z</time></trkpt><trkpt lat="44.473609905826784" lon="8.017313588019315"><ele>710.0</ele><time>2026-03-29T07:20:37Z</time></trkpt><trkpt lat="44.47360697297636" lon="8.017405217353812"><ele>710.0</ele><time>2026-03-29T07:20:38Z</time></trkpt><trkpt lat="44.473600727501506" lon="8.017503118270108"><ele>710.3333333333333</ele><time>2026-03-29T07:20:39Z</time></trkpt><trkpt lat="44.47359278551092" lon="8.017602588697079"><ele>710.6666666666666</ele><time>2026-03-29T07:20:40Z</time></trkpt><trkpt lat="44.47358945873692" lon="8.017720271898941"><ele>711.0</ele><time>2026-03-29T07:20:41Z</time></trkpt><trkpt lat="44.47358109322104" lon="8.017837098307563"><ele>711.3333333333334</ele><time>2026-03-29T07:20:41.999Z</time></trkpt><trkpt lat="44.47357516192048" lon="8.017955256279679"><ele>711.6666666666667</ele><time>2026-03-29T07:20:42.999Z</time></trkpt><trkpt lat="44.4735645246488" lon="8.018050200882604"><ele>712.0</ele><time>2026-03-29T07:20:43.999Z</time></trkpt><trkpt lat="44.47354611175667" lon="8.018225556617598"><ele>713.2</ele><time>2026-03-29T07:20:45.999Z</time></trkpt><trkpt lat="44.473556583651565" lon="8.018338328850197"><ele>714.4000000000001</ele><time>2026-03-29T07:20:46.999Z</time></trkpt><trkpt lat="44.473563805534475" lon="8.018462315250638"><ele>715.5999999999999</ele><time>2026-03-29T07:20:47.999Z</time></trkpt><trkpt lat="44.473587479912325" lon="8.018605579948023"><ele>716.8</ele><time>2026-03-29T07:20:48.999Z</time></trkpt><trkpt lat="44.473608043866406" lon="8.018747676803612"><ele>718.0</ele><time>2026-03-29T07:20:49.999Z</time></trkpt><trkpt lat="44.47363260906566" lon="8.018896884916487"><ele>718.0</ele><time>2026-03-29T07:20:50.999Z</time></trkpt><trkpt lat="44.47364616031713" lon="8.01903813351415"><ele>718.0</ele><time>2026-03-29T07:20:51.999Z</time></trkpt><trkpt lat="44.47366320410942" lon="8.01916186481893"><ele>718.0</ele><time>2026-03-29T07:20:52.999Z</time></trkpt><trkpt lat="44.47369060348823" lon="8.019289061311808"><ele>718.0</ele><time>2026-03-29T07:20:53.999Z</time></trkpt><trkpt lat="44.47368895628691" lon="8.01939007431809"><ele>718.0</ele><time>2026-03-29T07:20:54.999Z</time></trkpt><trkpt lat="44.47370759874751" lon="8.019479628667229"><ele>718.0</ele><time>2026-03-29T07:20:55.999Z</time></trkpt><trkpt lat="44.47371198203355" lon="8.019621523008981"><ele>718.1666666666667</ele><time>2026-03-29T07:20:57.999Z</time></trkpt><trkpt lat="44.47370643796544" lon="8.019747441191901"><ele>718.3333333333334</ele><time>2026-03-29T07:20:59.999Z</time></trkpt><trkpt lat="44.473731025891674" lon="8.019833929382855"><ele>718.5</ele><time>2026-03-29T07:21:01.999Z</time></trkpt><trkpt lat="44.47381349916049" lon="8.01988602366356"><ele>718.6666666666666</ele><time>2026-03-29T07:21:03.999Z</time></trkpt><trkpt lat="44.473872949774766" lon="8.019939838190728"><ele>718.8333333333333</ele><time>2026-03-29T07:21:04.999Z</time></trkpt><trkpt lat="44.473960920575166" lon="8.020056226764678"><ele>719.0</ele><time>2026-03-29T07:21:06.999Z</time></trkpt><trkpt lat="44.47397254248406" lon="8.020171847750804"><ele>720.8333333333333</ele><time>2026-03-29T07:21:07.999Z</time></trkpt><trkpt lat="44.474055399125035" lon="8.02029850103743"><ele>722.6666666666666</ele><time>2026-03-29T07:21:09.999Z</time></trkpt><trkpt lat="44.4741145449369" lon="8.020368032228214"><ele>724.5</ele><time>2026-03-29T07:21:10.999Z</time></trkpt><trkpt lat="44.47417642077296" lon="8.020415596683579"><ele>726.3333333333334</ele><time>2026-03-29T07:21:11.999Z</time></trkpt><trkpt lat="44.47423632682423" lon="8.020454477044307"><ele>728.1666666666667</ele><time>2026-03-29T07:21:12.999Z</time></trkpt><trkpt lat="44.47430018735362" lon="8.02051998000667"><ele>730.0</ele><time>2026-03-29T07:21:13.999Z</time></trkpt><trkpt lat="44.47435771119831" lon="8.020580318930415"><ele>730.0000000000001</ele><time>2026-03-29T07:21:14.999Z</time></trkpt><trkpt lat="44.474412566220316" lon="8.020632178122808"><ele>730.0</ele><time>2026-03-29T07:21:15.999Z</time></trkpt><trkpt lat="44.474471206027175" lon="8.020686105826595"><ele>730.0</ele><time>2026-03-29T07:21:16.999Z</time></trkpt><trkpt lat="44.47453654850738" lon="8.020724955126486"><ele>730.0</ele><time>2026-03-29T07:21:17.999Z</time></trkpt><trkpt lat="44.474596469286375" lon="8.02076668744891"><ele>730.0</ele><time>2026-03-29T07:21:18.999Z</time></trkpt><trkpt lat="44.47465756954107" lon="8.020819453461248"><ele>730.0000000000001</ele><time>2026-03-29T07:21:19.999Z</time></trkpt><trkpt lat="44.47472124737051" lon="8.020889948147124"><ele>730.0</ele><time>2026-03-29T07:21:20.999Z</time></trkpt><trkpt lat="44.474774440381616" lon="8.020945430623017"><ele>730.4285714285714</ele><time>2026-03-29T07:21:21.999Z</time></trkpt><trkpt lat="44.47482549270121" lon="8.02100637811082"><ele>730.8571428571429</ele><time>2026-03-29T07:21:22.999Z</time></trkpt><trkpt lat="44.474872063856346" lon="8.021097299327874"><ele>731.2857142857142</ele><time>2026-03-29T07:21:24.999Z</time></trkpt><trkpt lat="44.47485881675744" lon="8.02122101650183"><ele>731.7142857142858</ele><time>2026-03-29T07:21:25.999Z</time></trkpt><trkpt lat="44.474851646457005" lon="8.021318021170304"><ele>732.1428571428571</ele><time>2026-03-29T07:21:26.999Z</time></trkpt><trkpt lat="44.474851552922175" lon="8.02141699960552"><ele>732.5714285714286</ele><time>2026-03-29T07:21:27.999Z</time></trkpt><trkpt lat="44.474866027262614" lon="8.021503140789527"><ele>733.0</ele><time>2026-03-29T07:21:28.999Z</time></trkpt><trkpt lat="44.474849275254606" lon="8.0216308726693"><ele>733.1666666666667</ele><time>2026-03-29T07:21:30.999Z</time></trkpt><trkpt lat="44.47480578871177" lon="8.021723457133046"><ele>733.3333333333334</ele><time>2026-03-29T07:21:31.999Z</time></trkpt><trkpt lat="44.474664599487014" lon="8.021725956969371"><ele>733.5</ele><time>2026-03-29T07:21:32.999Z</time></trkpt><trkpt lat="44.47459944840504" lon="8.021739298938373"><ele>733.6666666666666</ele><time>2026-03-29T07:21:33.999Z</time></trkpt><trkpt lat="44.474536515452854" lon="8.021752699155902"><ele>733.8333333333333</ele><time>2026-03-29T07:21:34.999Z</time></trkpt><trkpt lat="44.47446681200601" lon="8.02176245524069"><ele>734.0</ele><time>2026-03-29T07:21:35.999Z</time></trkpt><trkpt lat="44.474347114230696" lon="8.02177769567995"><ele>735.3333333333333</ele><time>2026-03-29T07:21:37.999Z</time></trkpt><trkpt lat="44.47428078523824" lon="8.021786463040845"><ele>736.6666666666666</ele><time>2026-03-29T07:21:39.998Z</time></trkpt><trkpt lat="44.47419406925301" lon="8.02180218602962"><ele>738.0</ele><time>2026-03-29T07:21:41.998Z</time></trkpt><trkpt lat="44.474126892696766" lon="8.021811513708604"><ele>739.3333333333334</ele><time>2026-03-29T07:21:43.998Z</time></trkpt><trkpt lat="44.474047318983935" lon="8.021871243142469"><ele>740.6666666666667</ele><time>2026-03-29T07:22:11Z</time></trkpt><trkpt lat="44.47398889954811" lon="8.021917511656413"><ele>742.0</ele><time>2026-03-29T07:22:15Z</time></trkpt><trkpt lat="44.4739074328102" lon="8.021968030187516"><ele>742.0</ele><time>2026-03-29T07:22:17Z</time></trkpt><trkpt lat="44.473804615597174" lon="8.022006505375751"><ele>742.0</ele><time>2026-03-29T07:22:19Z</time></trkpt><trkpt lat="44.47368866099306" lon="8.02208432457781"><ele>742.0</ele><time>2026-03-29T07:22:21Z</time></trkpt><trkpt lat="44.47361857791614" lon="8.02213434133023"><ele>742.0</ele><time>2026-03-29T07:22:22Z</time></trkpt><trkpt lat="44.473546433679836" lon="8.022199182996435"><ele>742.0</ele><time>2026-03-29T07:22:23Z</time></trkpt><trkpt lat="44.47348272049611" lon="8.02225682384652"><ele>741.5</ele><time>2026-03-29T07:22:24Z</time></trkpt><trkpt lat="44.473392984915904" lon="8.022331920252567"><ele>741.0</ele><time>2026-03-29T07:22:25Z</time></trkpt><trkpt lat="44.473333158660225" lon="8.022394544391984"><ele>740.5</ele><time>2026-03-29T07:22:26Z</time></trkpt><trkpt lat="44.47327599784441" lon="8.022456672933671"><ele>740.0</ele><time>2026-03-29T07:22:27Z</time></trkpt><trkpt lat="44.47320218732082" lon="8.022525491397012"><ele>739.5</ele><time>2026-03-29T07:22:28Z</time></trkpt><trkpt lat="44.47314215069583" lon="8.022588737807084"><ele>739.0</ele><time>2026-03-29T07:22:29Z</time></trkpt><trkpt lat="44.47307456311163" lon="8.022660582666026"><ele>737.0</ele><time>2026-03-29T07:22:30Z</time></trkpt><trkpt lat="44.47300658534092" lon="8.022701682160736"><ele>735.0</ele><time>2026-03-29T07:22:31Z</time></trkpt><trkpt lat="44.47294888323472" lon="8.022753202056824"><ele>733.0</ele><time>2026-03-29T07:22:32Z</time></trkpt><trkpt lat="44.47289164877643" lon="8.022816016557183"><ele>731.0</ele><time>2026-03-29T07:22:33Z</time></trkpt><trkpt lat="44.47283038189375" lon="8.022862289367005"><ele>729.0</ele><time>2026-03-29T07:22:34Z</time></trkpt><trkpt lat="44.47275991594968" lon="8.022906867540964"><ele>727.0</ele><time>2026-03-29T07:22:35Z</time></trkpt><trkpt lat="44.47269082592892" lon="8.0229523052749"><ele>725.0</ele><time>2026-03-29T07:22:36Z</time></trkpt><trkpt lat="44.47262056751281" lon="8.022981942974216"><ele>723.8333333333333</ele><time>2026-03-29T07:22:37Z</time></trkpt><trkpt lat="44.47254987281241" lon="8.023006861313103"><ele>722.6666666666666</ele><time>2026-03-29T07:22:38Z</time></trkpt><trkpt lat="44.47248489904915" lon="8.023029941934489"><ele>721.5</ele><time>2026-03-29T07:22:39Z</time></trkpt><trkpt lat="44.472368222883915" lon="8.02303589401524"><ele>720.3333333333334</ele><time>2026-03-29T07:22:41Z</time></trkpt><trkpt lat="44.47227670035537" lon="8.023055034498613"><ele>719.1666666666667</ele><time>2026-03-29T07:22:43Z</time></trkpt><trkpt lat="44.47224242480561" lon="8.022966366418318"><ele>718.0</ele><time>2026-03-29T07:22:45Z</time></trkpt><trkpt lat="44.47215571835246" lon="8.022965494214626"><ele>716.7142857142858</ele><time>2026-03-29T07:22:47.999Z</time></trkpt><trkpt lat="44.472098922694094" lon="8.023018634992217"><ele>715.4285714285714</ele><time>2026-03-29T07:22:48.999Z</time></trkpt><trkpt lat="44.47202278131713" lon="8.023057063340104"><ele>714.1428571428571</ele><time>2026-03-29T07:22:49.999Z</time></trkpt><trkpt lat="44.47196132431358" lon="8.023085816380867"><ele>712.8571428571429</ele><time>2026-03-29T07:22:50.999Z</time></trkpt><trkpt lat="44.47188424025182" lon="8.023120851373283"><ele>711.5714285714286</ele><time>2026-03-29T07:22:51.999Z</time></trkpt><trkpt lat="44.471826761975805" lon="8.023170083316716"><ele>710.2857142857143</ele><time>2026-03-29T07:22:52.999Z</time></trkpt><trkpt lat="44.47175482268955" lon="8.023229605967563"><ele>709.0</ele><time>2026-03-29T07:22:53.999Z</time></trkpt><trkpt lat="44.47163712628427" lon="8.023328557000584"><ele>709.0</ele><time>2026-03-29T07:22:55.999Z</time></trkpt><trkpt lat="44.47157584904627" lon="8.02338710842906"><ele>709.0</ele><time>2026-03-29T07:22:56.999Z</time></trkpt><trkpt lat="44.471506973849564" lon="8.023494789048206"><ele>709.0</ele><time>2026-03-29T07:22:57.999Z</time></trkpt><trkpt lat="44.471436907501136" lon="8.023572702741754"><ele>709.0</ele><time>2026-03-29T07:22:58.999Z</time></trkpt><trkpt lat="44.471382059646416" lon="8.023634647330987"><ele>709.0</ele><time>2026-03-29T07:22:59.999Z</time></trkpt><trkpt lat="44.471328861410264" lon="8.023701758390882"><ele>709.0</ele><time>2026-03-29T07:23:00.999Z</time></trkpt><trkpt lat="44.471273324410284" lon="8.023780982224215"><ele>708.1666666666667</ele><time>2026-03-29T07:23:01.999Z</time></trkpt><trkpt lat="44.471224207787195" lon="8.023870741595172"><ele>707.3333333333334</ele><time>2026-03-29T07:23:02.999Z</time></trkpt><trkpt lat="44.47117114405526" lon="8.023975413964077"><ele>706.5</ele><time>2026-03-29T07:23:03.999Z</time></trkpt><trkpt lat="44.47116605346733" lon="8.024108030479162"><ele>705.6666666666666</ele><time>2026-03-29T07:23:04.999Z</time></trkpt><trkpt lat="44.47112699119159" lon="8.024211294540157"><ele>704.8333333333333</ele><time>2026-03-29T07:23:05.999Z</time></trkpt><trkpt lat="44.47108649145922" lon="8.024322000924245"><ele>704.0</ele><time>2026-03-29T07:23:06.999Z</time></trkpt><trkpt lat="44.47103512994347" lon="8.024414025719807"><ele>704.0</ele><time>2026-03-29T07:23:07.999Z</time></trkpt><trkpt lat="44.47100946090019" lon="8.024529058271861"><ele>704.0</ele><time>2026-03-29T07:23:08.999Z</time></trkpt><trkpt lat="44.470979155176025" lon="8.024625497159185"><ele>704.0</ele><time>2026-03-29T07:23:09.999Z</time></trkpt><trkpt lat="44.470936546028945" lon="8.024704609584997"><ele>704.0</ele><time>2026-03-29T07:23:10.999Z</time></trkpt><trkpt lat="44.47090457473191" lon="8.024804109899113"><ele>704.0</ele><time>2026-03-29T07:23:11.999Z</time></trkpt><trkpt lat="44.470882200683945" lon="8.024918403686286"><ele>704.0</ele><time>2026-03-29T07:23:12.999Z</time></trkpt><trkpt lat="44.47084168679493" lon="8.025001752196683"><ele>704.3333333333333</ele><time>2026-03-29T07:23:13.999Z</time></trkpt><trkpt lat="44.470807754577656" lon="8.025087157860007"><ele>704.6666666666666</ele><time>2026-03-29T07:23:14.999Z</time></trkpt><trkpt lat="44.47077103173394" lon="8.025187487008035"><ele>705.0</ele><time>2026-03-29T07:23:15.999Z</time></trkpt><trkpt lat="44.47073921273865" lon="8.025286384802833"><ele>705.3333333333334</ele><time>2026-03-29T07:23:16.999Z</time></trkpt><trkpt lat="44.470698604559026" lon="8.025376179093152"><ele>705.6666666666667</ele><time>2026-03-29T07:23:17.999Z</time></trkpt><trkpt lat="44.470609234102554" lon="8.025492243066072"><ele>706.0</ele><time>2026-03-29T07:23:19.999Z</time></trkpt><trkpt lat="44.4705636837545" lon="8.025558323486457"><ele>700.75</ele><time>2026-03-29T07:23:21.999Z</time></trkpt><trkpt lat="44.47037764751241" lon="8.025438942706787"><ele>695.5</ele><time>2026-03-29T07:23:24.999Z</time></trkpt><trkpt lat="44.470288753218334" lon="8.025505316414172"><ele>690.25</ele><time>2026-03-29T07:23:27.999Z</time></trkpt><trkpt lat="44.470245875309494" lon="8.025590806784255"><ele>685.0</ele><time>2026-03-29T07:23:28.999Z</time></trkpt><trkpt lat="44.470218685767996" lon="8.025705478645584"><ele>688.2</ele><time>2026-03-29T07:23:29.999Z</time></trkpt><trkpt lat="44.47018600048271" lon="8.02584051608745"><ele>691.4</ele><time>2026-03-29T07:23:30.999Z</time></trkpt><trkpt lat="44.470141004485214" lon="8.025956512126358"><ele>694.5999999999999</ele><time>2026-03-29T07:23:31.999Z</time></trkpt><trkpt lat="44.4700855043229" lon="8.026075895825759"><ele>697.8</ele><time>2026-03-29T07:23:32.999Z</time></trkpt><trkpt lat="44.4700119805126" lon="8.026189858970401"><ele>701.0</ele><time>2026-03-29T07:23:33.999Z</time></trkpt><trkpt lat="44.46991515153436" lon="8.026322591472674"><ele>701.0</ele><time>2026-03-29T07:23:34.999Z</time></trkpt><trkpt lat="44.46981332814643" lon="8.026424654555552"><ele>701.0</ele><time>2026-03-29T07:23:35.999Z</time></trkpt><trkpt lat="44.469710923808215" lon="8.026546795521204"><ele>701.0</ele><time>2026-03-29T07:23:36.999Z</time></trkpt><trkpt lat="44.469607206691435" lon="8.026672922331235"><ele>701.0</ele><time>2026-03-29T07:23:37.999Z</time></trkpt><trkpt lat="44.46951230532407" lon="8.026822292633042"><ele>701.75</ele><time>2026-03-29T07:23:38.999Z</time></trkpt><trkpt lat="44.4694258129788" lon="8.026974903996802"><ele>702.5</ele><time>2026-03-29T07:23:39.999Z</time></trkpt><trkpt lat="44.469353223311096" lon="8.027130466224685"><ele>703.25</ele><time>2026-03-29T07:23:40.999Z</time></trkpt><trkpt lat="44.4692910893348" lon="8.027313782532744"><ele>704.0</ele><time>2026-03-29T07:23:41.999Z</time></trkpt><trkpt lat="44.46924996061716" lon="8.027500894623893"><ele>706.75</ele><time>2026-03-29T07:23:42.999Z</time></trkpt><trkpt lat="44.469189190011214" lon="8.02769207356658"><ele>709.5</ele><time>2026-03-29T07:23:43.999Z</time></trkpt><trkpt lat="44.46916218923917" lon="8.02786413771172"><ele>712.25</ele><time>2026-03-29T07:23:44.998Z</time></trkpt><trkpt lat="44.46916116249497" lon="8.028048326992797"><ele>715.0</ele><time>2026-03-29T07:23:45.998Z</time></trkpt><trkpt lat="44.46913649434381" lon="8.02823186946067"><ele>716.1666666666667</ele><time>2026-03-29T07:23:46.998Z</time></trkpt><trkpt lat="44.46912406991086" lon="8.028363466426093"><ele>717.3333333333334</ele><time>2026-03-29T07:23:47.998Z</time></trkpt><trkpt lat="44.46910935757607" lon="8.028466143909949"><ele>718.5</ele><time>2026-03-29T07:23:48.998Z</time></trkpt><trkpt lat="44.46908022070096" lon="8.028579573666144"><ele>719.6666666666666</ele><time>2026-03-29T07:23:49.998Z</time></trkpt><trkpt lat="44.46902177660419" lon="8.0286716597174"><ele>720.8333333333333</ele><time>2026-03-29T07:23:50.998Z</time></trkpt><trkpt lat="44.468938577114194" lon="8.028746379102243"><ele>722.0</ele><time>2026-03-29T07:23:51.998Z</time></trkpt><trkpt lat="44.46885075365622" lon="8.028785502148121"><ele>721.2</ele><time>2026-03-29T07:23:52.998Z</time></trkpt><trkpt lat="44.468757894855926" lon="8.02879985918114"><ele>720.4000000000001</ele><time>2026-03-29T07:23:53.998Z</time></trkpt><trkpt lat="44.46866735894675" lon="8.028750278967953"><ele>719.5999999999999</ele><time>2026-03-29T07:23:54.998Z</time></trkpt><trkpt lat="44.46856960299014" lon="8.028727393022008"><ele>718.8</ele><time>2026-03-29T07:23:55.998Z</time></trkpt><trkpt lat="44.46847156965062" lon="8.028711691141094"><ele>718.0</ele><time>2026-03-29T07:23:56.998Z</time></trkpt><trkpt lat="44.46838317420056" lon="8.028722943598549"><ele>718.0</ele><time>2026-03-29T07:23:57.998Z</time></trkpt><trkpt lat="44.46828733234484" lon="8.028757399970722"><ele>718.0</ele><time>2026-03-29T07:23:58.998Z</time></trkpt><trkpt lat="44.468190360553145" lon="8.028805740662268"><ele>718.0</ele><time>2026-03-29T07:23:59.998Z</time></trkpt><trkpt lat="44.46809865429065" lon="8.028895782401683"><ele>718.0</ele><time>2026-03-29T07:24:00.998Z</time></trkpt><trkpt lat="44.468009293570326" lon="8.028982408059719"><ele>718.0</ele><time>2026-03-29T07:24:01.998Z</time></trkpt><trkpt lat="44.467927256863305" lon="8.029095636627556"><ele>719.8</ele><time>2026-03-29T07:24:02.998Z</time></trkpt><trkpt lat="44.46784155280476" lon="8.029207169864002"><ele>721.5999999999999</ele><time>2026-03-29T07:24:03.998Z</time></trkpt><trkpt lat="44.4677840924925" lon="8.029322632990674"><ele>723.4000000000001</ele><time>2026-03-29T07:24:04.998Z</time></trkpt><trkpt lat="44.46773084416586" lon="8.029426608685204"><ele>725.2</ele><time>2026-03-29T07:24:05.998Z</time></trkpt><trkpt lat="44.46767027569432" lon="8.029531502247014"><ele>727.0</ele><time>2026-03-29T07:24:06.998Z</time></trkpt><trkpt lat="44.4675971236306" lon="8.029617932958683"><ele>727.0</ele><time>2026-03-29T07:24:07.998Z</time></trkpt><trkpt lat="44.46751911803086" lon="8.029705497824361"><ele>727.0</ele><time>2026-03-29T07:24:08.998Z</time></trkpt><trkpt lat="44.467422297781916" lon="8.029742211866413"><ele>727.0</ele><time>2026-03-29T07:24:09.998Z</time></trkpt><trkpt lat="44.46731282926563" lon="8.029760325660758"><ele>727.0</ele><time>2026-03-29T07:24:11Z</time></trkpt><trkpt lat="44.46720150861665" lon="8.029770613972437"><ele>727.0</ele><time>2026-03-29T07:24:12Z</time></trkpt><trkpt lat="44.467089666790905" lon="8.029767853181669"><ele>727.8</ele><time>2026-03-29T07:24:13Z</time></trkpt><trkpt lat="44.46697589394855" lon="8.029767306903178"><ele>728.6</ele><time>2026-03-29T07:24:14Z</time></trkpt><trkpt lat="44.46686510963986" lon="8.029774816349237"><ele>729.4</ele><time>2026-03-29T07:24:15Z</time></trkpt><trkpt lat="44.46675720310321" lon="8.029755496761766"><ele>730.1999999999999</ele><time>2026-03-29T07:24:16Z</time></trkpt><trkpt lat="44.46664939761843" lon="8.029770934087193"><ele>731.0</ele><time>2026-03-29T07:24:17Z</time></trkpt><trkpt lat="44.46654798533977" lon="8.029799412428263"><ele>731.0</ele><time>2026-03-29T07:24:18Z</time></trkpt><trkpt lat="44.466452336163734" lon="8.029834325893297"><ele>731.0</ele><time>2026-03-29T07:24:19Z</time></trkpt><trkpt lat="44.46635606646207" lon="8.029880345993162"><ele>731.0</ele><time>2026-03-29T07:24:20Z</time></trkpt><trkpt lat="44.466271181355815" lon="8.029947979591155"><ele>731.0</ele><time>2026-03-29T07:24:21Z</time></trkpt><trkpt lat="44.46622277082307" lon="8.030028844979373"><ele>731.0</ele><time>2026-03-29T07:24:22Z</time></trkpt><trkpt lat="44.46617200430944" lon="8.030114108351821"><ele>731.5999999999999</ele><time>2026-03-29T07:24:23Z</time></trkpt><trkpt lat="44.46613983430534" lon="8.030226125968706"><ele>732.2</ele><time>2026-03-29T07:24:24Z</time></trkpt><trkpt lat="44.46611737590097" lon="8.030329678058516"><ele>732.8</ele><time>2026-03-29T07:24:25Z</time></trkpt><trkpt lat="44.4661131701329" lon="8.030471935903597"><ele>733.4000000000001</ele><time>2026-03-29T07:24:26Z</time></trkpt><trkpt lat="44.466132361442014" lon="8.03061794787898"><ele>734.0</ele><time>2026-03-29T07:24:27Z</time></trkpt><trkpt lat="44.466164786891405" lon="8.030764835178728"><ele>733.75</ele><time>2026-03-29T07:24:28Z</time></trkpt><trkpt lat="44.466201508801106" lon="8.030907943084308"><ele>733.5</ele><time>2026-03-29T07:24:29Z</time></trkpt><trkpt lat="44.46625231212884" lon="8.031047166531593"><ele>733.25</ele><time>2026-03-29T07:24:30Z</time></trkpt><trkpt lat="44.46628216910574" lon="8.031204032097401"><ele>733.0</ele><time>2026-03-29T07:24:31Z</time></trkpt><trkpt lat="44.46631911921747" lon="8.031366585302054"><ele>737.5999999999999</ele><time>2026-03-29T07:24:32Z</time></trkpt><trkpt lat="44.46636214588789" lon="8.031527723055905"><ele>742.1999999999999</ele><time>2026-03-29T07:24:33Z</time></trkpt><trkpt lat="44.466398416258734" lon="8.031670243044013"><ele>746.8</ele><time>2026-03-29T07:24:34Z</time></trkpt><trkpt lat="44.466429152895856" lon="8.031792215905027"><ele>751.4</ele><time>2026-03-29T07:24:35Z</time></trkpt><trkpt lat="44.466444986588755" lon="8.031918270463397"><ele>756.0</ele><time>2026-03-29T07:24:36Z</time></trkpt><trkpt lat="44.466446572849016" lon="8.032052916061925"><ele>755.0</ele><time>2026-03-29T07:24:37Z</time></trkpt><trkpt lat="44.46643567194524" lon="8.032191756070933"><ele>754.0</ele><time>2026-03-29T07:24:38Z</time></trkpt><trkpt lat="44.46639952224459" lon="8.032316962824355"><ele>753.0</ele><time>2026-03-29T07:24:39Z</time></trkpt><trkpt lat="44.466346279708674" lon="8.032435300303595"><ele>752.0</ele><time>2026-03-29T07:24:40Z</time></trkpt><trkpt lat="44.466273329087386" lon="8.03254306213059"><ele>751.0</ele><time>2026-03-29T07:24:41Z</time></trkpt><trkpt lat="44.46618397844101" lon="8.032630582680536"><ele>751.0</ele><time>2026-03-29T07:24:42Z</time></trkpt><trkpt lat="44.46608839498195" lon="8.032707767622984"><ele>751.0</ele><time>2026-03-29T07:24:43Z</time></trkpt><trkpt lat="44.465988380508975" lon="8.032790353280268"><ele>751.0</ele><time>2026-03-29T07:24:44Z</time></trkpt><trkpt lat="44.46589218303218" lon="8.032890452185432"><ele>751.0</ele><time>2026-03-29T07:24:45Z</time></trkpt><trkpt lat="44.46580835973672" lon="8.033010525868047"><ele>751.0</ele><time>2026-03-29T07:24:46Z</time></trkpt><trkpt lat="44.46572868441078" lon="8.033153148764507"><ele>751.0</ele><time>2026-03-29T07:24:47Z</time></trkpt><trkpt lat="44.465647611616774" lon="8.033303278576657"><ele>751.0</ele><time>2026-03-29T07:24:48Z</time></trkpt><trkpt lat="44.465561297810524" lon="8.033462226981808"><ele>751.0</ele><time>2026-03-29T07:24:49Z</time></trkpt><trkpt lat="44.46547746495114" lon="8.033622554772014"><ele>749.5</ele><time>2026-03-29T07:24:50Z</time></trkpt><trkpt lat="44.46539051188761" lon="8.033776688864767"><ele>748.0</ele><time>2026-03-29T07:24:51Z</time></trkpt><trkpt lat="44.465291276225244" lon="8.033922882243944"><ele>746.5</ele><time>2026-03-29T07:24:52Z</time></trkpt><trkpt lat="44.46518508606415" lon="8.034063197346486"><ele>745.0</ele><time>2026-03-29T07:24:52.999Z</time></trkpt><trkpt lat="44.46507576318939" lon="8.034198343337648"><ele>750.6666666666667</ele><time>2026-03-29T07:24:53.999Z</time></trkpt><trkpt lat="44.46495794515872" lon="8.034326652259962"><ele>756.3333333333334</ele><time>2026-03-29T07:24:54.999Z</time></trkpt><trkpt lat="44.46483238066694" lon="8.034451632035342"><ele>762.0</ele><time>2026-03-29T07:24:55.999Z</time></trkpt><trkpt lat="44.46470140444495" lon="8.03457508594916"><ele>757.6666666666666</ele><time>2026-03-29T07:24:56.999Z</time></trkpt><trkpt lat="44.46456086176115" lon="8.034692715686786"><ele>753.3333333333333</ele><time>2026-03-29T07:24:57.999Z</time></trkpt><trkpt lat="44.46442196353398" lon="8.034818784811307"><ele>749.0</ele><time>2026-03-29T07:24:58.999Z</time></trkpt><trkpt lat="44.4642979540899" lon="8.03495845445561"><ele>755.6666666666666</ele><time>2026-03-29T07:24:59.999Z</time></trkpt><trkpt lat="44.46414681203554" lon="8.03507004982944"><ele>762.3333333333333</ele><time>2026-03-29T07:25:00.999Z</time></trkpt><trkpt lat="44.46401620039025" lon="8.03520877803108"><ele>769.0</ele><time>2026-03-29T07:25:01.999Z</time></trkpt><trkpt lat="44.46388002158374" lon="8.035321213089755"><ele>767.25</ele><time>2026-03-29T07:25:02.999Z</time></trkpt><trkpt lat="44.46376340565295" lon="8.035435157271465"><ele>765.5</ele><time>2026-03-29T07:25:03.999Z</time></trkpt><trkpt lat="44.46364347508091" lon="8.035544914113535"><ele>763.75</ele><time>2026-03-29T07:25:04.999Z</time></trkpt><trkpt lat="44.46352023631909" lon="8.035637022529633"><ele>762.0</ele><time>2026-03-29T07:25:05.999Z</time></trkpt><trkpt lat="44.46339343618789" lon="8.035705428328216"><ele>762.0</ele><time>2026-03-29T07:25:06.999Z</time></trkpt><trkpt lat="44.46326153603649" lon="8.03575134738621"><ele>762.0</ele><time>2026-03-29T07:25:07.999Z</time></trkpt><trkpt lat="44.463127823095995" lon="8.035755836177076"><ele>762.0</ele><time>2026-03-29T07:25:08.999Z</time></trkpt><trkpt lat="44.46299226731934" lon="8.035761860210764"><ele>762.0</ele><time>2026-03-29T07:25:09.999Z</time></trkpt><trkpt lat="44.4628551745763" lon="8.035782791723246"><ele>767.5</ele><time>2026-03-29T07:25:10.999Z</time></trkpt><trkpt lat="44.46271461897289" lon="8.035819084042602"><ele>773.0</ele><time>2026-03-29T07:25:11.999Z</time></trkpt><trkpt lat="44.46257366540129" lon="8.035875078961265"><ele>778.5</ele><time>2026-03-29T07:25:12.999Z</time></trkpt><trkpt lat="44.462424401649926" lon="8.035939578661145"><ele>784.0</ele><time>2026-03-29T07:25:13.999Z</time></trkpt><trkpt lat="44.46228332744152" lon="8.03601475930861"><ele>784.0</ele><time>2026-03-29T07:25:14.999Z</time></trkpt><trkpt lat="44.462134390492494" lon="8.036096919271628"><ele>784.0</ele><time>2026-03-29T07:25:15.999Z</time></trkpt><trkpt lat="44.4619841349701" lon="8.036171906615214"><ele>784.0</ele><time>2026-03-29T07:25:16.999Z</time></trkpt><trkpt lat="44.46182510931161" lon="8.03624260966283"><ele>783.3333333333333</ele><time>2026-03-29T07:25:17.999Z</time></trkpt><trkpt lat="44.461667073835436" lon="8.03631130553612"><ele>782.6666666666667</ele><time>2026-03-29T07:25:18.999Z</time></trkpt><trkpt lat="44.46151976385182" lon="8.036376797157962"><ele>782.0</ele><time>2026-03-29T07:25:19.999Z</time></trkpt><trkpt lat="44.4613838158443" lon="8.036422516251905"><ele>782.6</ele><time>2026-03-29T07:25:20.999Z</time></trkpt><trkpt lat="44.461262606554826" lon="8.036472607647102"><ele>783.2</ele><time>2026-03-29T07:25:21.999Z</time></trkpt><trkpt lat="44.46114415295344" lon="8.036482115359536"><ele>783.8</ele><time>2026-03-29T07:25:22.999Z</time></trkpt><trkpt lat="44.4610493284119" lon="8.036521260424086"><ele>784.4</ele><time>2026-03-29T07:25:23.999Z</time></trkpt><trkpt lat="44.460969290314466" lon="8.036569825171894"><ele>785.0</ele><time>2026-03-29T07:25:24.999Z</time></trkpt><trkpt lat="44.460894699043074" lon="8.036634136339135"><ele>787.0</ele><time>2026-03-29T07:25:25.999Z</time></trkpt><trkpt lat="44.46082106672885" lon="8.036713661151959"><ele>789.0</ele><time>2026-03-29T07:25:26.999Z</time></trkpt><trkpt lat="44.46075916246616" lon="8.036816203628105"><ele>791.0</ele><time>2026-03-29T07:25:27.999Z</time></trkpt><trkpt lat="44.46071339683061" lon="8.03695580761015"><ele>793.0</ele><time>2026-03-29T07:25:28.999Z</time></trkpt><trkpt lat="44.460657204342574" lon="8.037100323561962"><ele>795.0</ele><time>2026-03-29T07:25:29.999Z</time></trkpt><trkpt lat="44.46059286092689" lon="8.037242874258327"><ele>795.0</ele><time>2026-03-29T07:25:30.999Z</time></trkpt><trkpt lat="44.46050655287231" lon="8.037376124087345"><ele>795.0</ele><time>2026-03-29T07:25:31.999Z</time></trkpt><trkpt lat="44.4604203490027" lon="8.037488527887684"><ele>795.0</ele><time>2026-03-29T07:25:32.999Z</time></trkpt><trkpt lat="44.46033328089812" lon="8.037593807851644"><ele>795.0</ele><time>2026-03-29T07:25:33.999Z</time></trkpt><trkpt lat="44.460235545773735" lon="8.037694661156523"><ele>793.5</ele><time>2026-03-29T07:25:34.999Z</time></trkpt><trkpt lat="44.46013615287913" lon="8.03779236579585"><ele>792.0</ele><time>2026-03-29T07:25:35.999Z</time></trkpt><trkpt lat="44.46002637843731" lon="8.037885371878176"><ele>790.5</ele><time>2026-03-29T07:25:36.999Z</time></trkpt><trkpt lat="44.45991070024911" lon="8.037963077919164"><ele>789.0</ele><time>2026-03-29T07:25:37.999Z</time></trkpt><trkpt lat="44.45979832193073" lon="8.038024763019836"><ele>789.0</ele><time>2026-03-29T07:25:38.999Z</time></trkpt><trkpt lat="44.45968367881208" lon="8.038067615447558"><ele>789.0</ele><time>2026-03-29T07:25:39.999Z</time></trkpt><trkpt lat="44.459562559468544" lon="8.038098742300935"><ele>789.0</ele><time>2026-03-29T07:25:40.999Z</time></trkpt><trkpt lat="44.4594355025724" lon="8.038127378302779"><ele>789.0</ele><time>2026-03-29T07:25:41.999Z</time></trkpt><trkpt lat="44.45931762640604" lon="8.038146599500921"><ele>786.75</ele><time>2026-03-29T07:25:42.999Z</time></trkpt><trkpt lat="44.459207695328956" lon="8.038153501974778"><ele>784.5</ele><time>2026-03-29T07:25:43.999Z</time></trkpt><trkpt lat="44.4591007978278" lon="8.03815183544436"><ele>782.25</ele><time>2026-03-29T07:25:44.999Z</time></trkpt><trkpt lat="44.458982158050986" lon="8.038137163864524"><ele>780.0</ele><time>2026-03-29T07:25:45.999Z</time></trkpt><trkpt lat="44.45886954045718" lon="8.038107853294434"><ele>779.6</ele><time>2026-03-29T07:25:46.999Z</time></trkpt><trkpt lat="44.45876861684261" lon="8.038077921370963"><ele>779.2</ele><time>2026-03-29T07:25:47.999Z</time></trkpt><trkpt lat="44.45866888582072" lon="8.038048695117695"><ele>778.8</ele><time>2026-03-29T07:25:48.999Z</time></trkpt><trkpt lat="44.45858423572528" lon="8.038039300936877"><ele>778.4</ele><time>2026-03-29T07:25:49.999Z</time></trkpt><trkpt lat="44.458506766449865" lon="8.038040518100182"><ele>778.0</ele><time>2026-03-29T07:25:50.999Z</time></trkpt><trkpt lat="44.458423699736194" lon="8.038046383028437"><ele>777.9999999999999</ele><time>2026-03-29T07:25:51.998Z</time></trkpt><trkpt lat="44.45834344946664" lon="8.038066840870652"><ele>778.0</ele><time>2026-03-29T07:25:52.998Z</time></trkpt><trkpt lat="44.45826302148751" lon="8.038111071988883"><ele>778.0</ele><time>2026-03-29T07:25:53.998Z</time></trkpt><trkpt lat="44.458194569282654" lon="8.03816908638604"><ele>778.0</ele><time>2026-03-29T07:25:54.998Z</time></trkpt><trkpt lat="44.45813585098522" lon="8.03825026453626"><ele>777.9999999999999</ele><time>2026-03-29T07:25:55.998Z</time></trkpt><trkpt lat="44.45808637902256" lon="8.038363718076836"><ele>778.0</ele><time>2026-03-29T07:25:56.998Z</time></trkpt><trkpt lat="44.458050132893895" lon="8.03847526628821"><ele>780.2</ele><time>2026-03-29T07:25:57.998Z</time></trkpt><trkpt lat="44.45803649988523" lon="8.038601152773438"><ele>782.4</ele><time>2026-03-29T07:25:58.998Z</time></trkpt><trkpt lat="44.45805105414395" lon="8.038737713943311"><ele>784.6</ele><time>2026-03-29T07:25:59.998Z</time></trkpt><trkpt lat="44.45808119449281" lon="8.038880495834603"><ele>786.8000000000001</ele><time>2026-03-29T07:26:00.998Z</time></trkpt><trkpt lat="44.45812475533304" lon="8.03902435895961"><ele>789.0</ele><time>2026-03-29T07:26:01.998Z</time></trkpt><trkpt lat="44.45817356997464" lon="8.039176161177663"><ele>789.0</ele><time>2026-03-29T07:26:02.998Z</time></trkpt><trkpt lat="44.45821842142852" lon="8.039324793705003"><ele>789.0</ele><time>2026-03-29T07:26:03.998Z</time></trkpt><trkpt lat="44.458264982966035" lon="8.039472803417487"><ele>789.0</ele><time>2026-03-29T07:26:04.998Z</time></trkpt><trkpt lat="44.458311104687" lon="8.039610079964504"><ele>789.0</ele><time>2026-03-29T07:26:05.998Z</time></trkpt><trkpt lat="44.45834632236054" lon="8.039753631721121"><ele>789.0</ele><time>2026-03-29T07:26:06.998Z</time></trkpt><trkpt lat="44.45837384348422" lon="8.039886519190151"><ele>787.2</ele><time>2026-03-29T07:26:07.998Z</time></trkpt><trkpt lat="44.45839229555115" lon="8.040034908203284"><ele>785.4000000000001</ele><time>2026-03-29T07:26:08.998Z</time></trkpt><trkpt lat="44.45839920788315" lon="8.04019550970925"><ele>783.6</ele><time>2026-03-29T07:26:09.998Z</time></trkpt><trkpt lat="44.458396573233394" lon="8.04035479525912"><ele>781.8</ele><time>2026-03-29T07:26:10.998Z</time></trkpt><trkpt lat="44.458384895718055" lon="8.040510815264513"><ele>780.0</ele><time>2026-03-29T07:26:11.998Z</time></trkpt><trkpt lat="44.45836684811998" lon="8.040664972835481"><ele>779.4</ele><time>2026-03-29T07:26:12.998Z</time></trkpt><trkpt lat="44.458347891513554" lon="8.040809816681277"><ele>778.8</ele><time>2026-03-29T07:26:13.998Z</time></trkpt><trkpt lat="44.45832754331937" lon="8.04095342804011"><ele>778.2</ele><time>2026-03-29T07:26:14.998Z</time></trkpt><trkpt lat="44.458301288279166" lon="8.0410907575367"><ele>777.6</ele><time>2026-03-29T07:26:15.998Z</time></trkpt><trkpt lat="44.45826871999756" lon="8.0412271387402"><ele>777.0</ele><time>2026-03-29T07:26:17Z</time></trkpt><trkpt lat="44.458224917708115" lon="8.041353963504047"><ele>777.0</ele><time>2026-03-29T07:26:18Z</time></trkpt><trkpt lat="44.45817637867611" lon="8.041477539110286"><ele>777.0</ele><time>2026-03-29T07:26:19Z</time></trkpt><trkpt lat="44.45812194992485" lon="8.041595183809049"><ele>777.0</ele><time>2026-03-29T07:26:20Z</time></trkpt><trkpt lat="44.45806048431368" lon="8.041721550817824"><ele>777.0</ele><time>2026-03-29T07:26:21Z</time></trkpt><trkpt lat="44.45799740748358" lon="8.041845966152534"><ele>777.0</ele><time>2026-03-29T07:26:22Z</time></trkpt><trkpt lat="44.45793232462096" lon="8.041952676157266"><ele>775.0</ele><time>2026-03-29T07:26:23Z</time></trkpt><trkpt lat="44.45786203608494" lon="8.042060125319242"><ele>773.0</ele><time>2026-03-29T07:26:24Z</time></trkpt><trkpt lat="44.45777949428935" lon="8.042161909825962"><ele>771.0</ele><time>2026-03-29T07:26:25Z</time></trkpt><trkpt lat="44.45769944192274" lon="8.042263778714347"><ele>769.0</ele><time>2026-03-29T07:26:26Z</time></trkpt><trkpt lat="44.45761619289938" lon="8.042368515292551"><ele>767.0</ele><time>2026-03-29T07:26:27Z</time></trkpt><trkpt lat="44.457526254679" lon="8.042478383606538"><ele>767.0</ele><time>2026-03-29T07:26:28Z</time></trkpt><trkpt lat="44.45744025796275" lon="8.04258758674605"><ele>767.0</ele><time>2026-03-29T07:26:29Z</time></trkpt><trkpt lat="44.45733160677165" lon="8.042679751440955"><ele>767.0</ele><time>2026-03-29T07:26:30Z</time></trkpt><trkpt lat="44.45724605488204" lon="8.042810592390413"><ele>767.0</ele><time>2026-03-29T07:26:31Z</time></trkpt><trkpt lat="44.45716235853796" lon="8.042945428475933"><ele>764.0</ele><time>2026-03-29T07:26:32Z</time></trkpt><trkpt lat="44.457089601012896" lon="8.043074793868561"><ele>761.0</ele><time>2026-03-29T07:26:33Z</time></trkpt><trkpt lat="44.457012277224194" lon="8.043228627475385"><ele>758.0</ele><time>2026-03-29T07:26:34Z</time></trkpt><trkpt lat="44.45695812249356" lon="8.043402134580473"><ele>755.0</ele><time>2026-03-29T07:26:35Z</time></trkpt><trkpt lat="44.45690209681329" lon="8.043605091654758"><ele>755.0</ele><time>2026-03-29T07:26:36Z</time></trkpt><trkpt lat="44.45685978950353" lon="8.043793979464452"><ele>755.0</ele><time>2026-03-29T07:26:37Z</time></trkpt><trkpt lat="44.4568201486374" lon="8.043971932705404"><ele>755.0</ele><time>2026-03-29T07:26:38Z</time></trkpt><trkpt lat="44.45675299530323" lon="8.044157563742592"><ele>755.0</ele><time>2026-03-29T07:26:39Z</time></trkpt><trkpt lat="44.4566613170454" lon="8.044317046357172"><ele>757.3333333333333</ele><time>2026-03-29T07:26:40Z</time></trkpt><trkpt lat="44.45657357283139" lon="8.04451383617067"><ele>759.6666666666666</ele><time>2026-03-29T07:26:41Z</time></trkpt><trkpt lat="44.456467214961755" lon="8.044706368477064"><ele>762.0</ele><time>2026-03-29T07:26:42Z</time></trkpt><trkpt lat="44.45635760678719" lon="8.044897860734247"><ele>758.0</ele><time>2026-03-29T07:26:43Z</time></trkpt><trkpt lat="44.45626132760446" lon="8.045081468041877"><ele>754.0</ele><time>2026-03-29T07:26:44Z</time></trkpt><trkpt lat="44.45616785537733" lon="8.045254005843809"><ele>750.0</ele><time>2026-03-29T07:26:45Z</time></trkpt><trkpt lat="44.456080214243215" lon="8.045428981934258"><ele>750.0</ele><time>2026-03-29T07:26:46Z</time></trkpt><trkpt lat="44.45600329127058" lon="8.04558453962043"><ele>750.0</ele><time>2026-03-29T07:26:47Z</time></trkpt><trkpt lat="44.455927353177515" lon="8.045739849527699"><ele>750.0</ele><time>2026-03-29T07:26:48Z</time></trkpt><trkpt lat="44.45586073893551" lon="8.045888542569127"><ele>750.0</ele><time>2026-03-29T07:26:49Z</time></trkpt><trkpt lat="44.45579188600051" lon="8.046029728358468"><ele>748.75</ele><time>2026-03-29T07:26:50Z</time></trkpt><trkpt lat="44.45571431006298" lon="8.046150662560757"><ele>747.5</ele><time>2026-03-29T07:26:51Z</time></trkpt><trkpt lat="44.45562055773292" lon="8.046255430369493"><ele>746.25</ele><time>2026-03-29T07:26:52Z</time></trkpt><trkpt lat="44.455511384284044" lon="8.046348068885887"><ele>745.0</ele><time>2026-03-29T07:26:53Z</time></trkpt><trkpt lat="44.455408440788105" lon="8.046420721246362"><ele>745.0</ele><time>2026-03-29T07:26:54Z</time></trkpt><trkpt lat="44.4553065956215" lon="8.046496409084712"><ele>745.0</ele><time>2026-03-29T07:26:55Z</time></trkpt><trkpt lat="44.455225458470444" lon="8.04659248769171"><ele>745.0</ele><time>2026-03-29T07:26:56Z</time></trkpt><trkpt lat="44.455145346146246" lon="8.046717361663996"><ele>745.0</ele><time>2026-03-29T07:26:57Z</time></trkpt><trkpt lat="44.45508151701956" lon="8.046869943349748"><ele>748.5</ele><time>2026-03-29T07:26:57.999Z</time></trkpt><trkpt lat="44.45503231352679" lon="8.047046933221907"><ele>752.0</ele><time>2026-03-29T07:26:58.999Z</time></trkpt><trkpt lat="44.45499956294973" lon="8.047222915514036"><ele>755.5</ele><time>2026-03-29T07:26:59.999Z</time></trkpt><trkpt lat="44.45497248881036" lon="8.04742246983004"><ele>759.0</ele><time>2026-03-29T07:27:00.999Z</time></trkpt><trkpt lat="44.45492099272075" lon="8.047632198721052"><ele>761.0</ele><time>2026-03-29T07:27:01.999Z</time></trkpt><trkpt lat="44.454875625246416" lon="8.047852511584829"><ele>763.0</ele><time>2026-03-29T07:27:02.999Z</time></trkpt><trkpt lat="44.45481320744813" lon="8.048074687790377"><ele>765.0</ele><time>2026-03-29T07:27:03.999Z</time></trkpt><trkpt lat="44.45475247989628" lon="8.048267387314755"><ele>765.75</ele><time>2026-03-29T07:27:04.999Z</time></trkpt><trkpt lat="44.45468703189453" lon="8.048435203956018"><ele>766.5</ele><time>2026-03-29T07:27:05.999Z</time></trkpt><trkpt lat="44.45461774617135" lon="8.048568296104806"><ele>767.25</ele><time>2026-03-29T07:27:06.999Z</time></trkpt><trkpt lat="44.454546562135214" lon="8.048687481195511"><ele>768.0</ele><time>2026-03-29T07:27:07.999Z</time></trkpt><trkpt lat="44.454486915653284" lon="8.048807403159758"><ele>767.2</ele><time>2026-03-29T07:27:08.999Z</time></trkpt><trkpt lat="44.45443885482723" lon="8.048934593258997"><ele>766.4</ele><time>2026-03-29T07:27:09.999Z</time></trkpt><trkpt lat="44.454395442502864" lon="8.049074419677673"><ele>765.6</ele><time>2026-03-29T07:27:10.999Z</time></trkpt><trkpt lat="44.45434315219785" lon="8.049223963332466"><ele>764.8000000000001</ele><time>2026-03-29T07:27:11.999Z</time></trkpt><trkpt lat="44.45428241298069" lon="8.049359986592972"><ele>764.0</ele><time>2026-03-29T07:27:12.999Z</time></trkpt><trkpt lat="44.45423662782163" lon="8.049492241495969"><ele>764.0</ele><time>2026-03-29T07:27:13.999Z</time></trkpt><trkpt lat="44.454192245142096" lon="8.049622667399202"><ele>764.0</ele><time>2026-03-29T07:27:14.999Z</time></trkpt><trkpt lat="44.45414683741773" lon="8.049747165263117"><ele>764.0</ele><time>2026-03-29T07:27:15.999Z</time></trkpt><trkpt lat="44.454100091956605" lon="8.049859873222905"><ele>764.0</ele><time>2026-03-29T07:27:16.999Z</time></trkpt><trkpt lat="44.45405663131109" lon="8.049970986928809"><ele>764.0</ele><time>2026-03-29T07:27:17.999Z</time></trkpt><trkpt lat="44.45400460150803" lon="8.050085536963211"><ele>763.0</ele><time>2026-03-29T07:27:18.999Z</time></trkpt><trkpt lat="44.45394199427963" lon="8.05020006619191"><ele>762.0</ele><time>2026-03-29T07:27:19.999Z</time></trkpt><trkpt lat="44.45386793562655" lon="8.05030954341771"><ele>761.0</ele><time>2026-03-29T07:27:20.999Z</time></trkpt><trkpt lat="44.453787171302594" lon="8.050416672081491"><ele>760.0</ele><time>2026-03-29T07:27:21.999Z</time></trkpt><trkpt lat="44.453697585011476" lon="8.050511508236111"><ele>759.0</ele><time>2026-03-29T07:27:22.999Z</time></trkpt><trkpt lat="44.45360186927621" lon="8.050604574392564"><ele>759.0</ele><time>2026-03-29T07:27:23.999Z</time></trkpt><trkpt lat="44.45349081321032" lon="8.05068086165851"><ele>759.0</ele><time>2026-03-29T07:27:24.999Z</time></trkpt><trkpt lat="44.453382715806626" lon="8.050755354046862"><ele>759.0</ele><time>2026-03-29T07:27:25.999Z</time></trkpt><trkpt lat="44.45328293289334" lon="8.050820530357472"><ele>759.0</ele><time>2026-03-29T07:27:26.999Z</time></trkpt><trkpt lat="44.45318259813078" lon="8.05084152018072"><ele>760.4000000000001</ele><time>2026-03-29T07:27:27.999Z</time></trkpt><trkpt lat="44.45308115441824" lon="8.05088032989207"><ele>761.8</ele><time>2026-03-29T07:27:28.999Z</time></trkpt><trkpt lat="44.45296814644097" lon="8.050903772758998"><ele>763.2</ele><time>2026-03-29T07:27:29.999Z</time></trkpt><trkpt lat="44.45285025288903" lon="8.050912445305746"><ele>764.5999999999999</ele><time>2026-03-29T07:27:30.999Z</time></trkpt><trkpt lat="44.452757659860886" lon="8.050915131515776"><ele>766.0</ele><time>2026-03-29T07:27:31.999Z</time></trkpt><trkpt lat="44.452650831860396" lon="8.050923409890737"><ele>766.0</ele><time>2026-03-29T07:27:32.999Z</time></trkpt><trkpt lat="44.45254534632452" lon="8.050934332351401"><ele>766.0</ele><time>2026-03-29T07:27:33.999Z</time></trkpt><trkpt lat="44.452434755896434" lon="8.050972448020504"><ele>766.0</ele><time>2026-03-29T07:27:34.999Z</time></trkpt><trkpt lat="44.452328994147415" lon="8.051026614957275"><ele>766.0</ele><time>2026-03-29T07:27:35.999Z</time></trkpt><trkpt lat="44.45224123731826" lon="8.051099909779198"><ele>766.0</ele><time>2026-03-29T07:27:36.999Z</time></trkpt><trkpt lat="44.45215627354506" lon="8.051180218634835"><ele>764.4</ele><time>2026-03-29T07:27:37.999Z</time></trkpt><trkpt lat="44.45207817248851" lon="8.051287184504407"><ele>762.8</ele><time>2026-03-29T07:27:38.999Z</time></trkpt><trkpt lat="44.45201425604141" lon="8.05140227453359"><ele>761.1999999999999</ele><time>2026-03-29T07:27:39.999Z</time></trkpt><trkpt lat="44.45194371208602" lon="8.05152262369821"><ele>759.5999999999999</ele><time>2026-03-29T07:27:40.999Z</time></trkpt><trkpt lat="44.451908516753385" lon="8.051688869890377"><ele>758.0</ele><time>2026-03-29T07:27:41.999Z</time></trkpt><trkpt lat="44.45186139653199" lon="8.051863037126203"><ele>758.0</ele><time>2026-03-29T07:27:42.999Z</time></trkpt><trkpt lat="44.4517944465532" lon="8.052039189080489"><ele>758.0</ele><time>2026-03-29T07:27:43.999Z</time></trkpt><trkpt lat="44.45174728997658" lon="8.052206516122213"><ele>758.0</ele><time>2026-03-29T07:27:44.999Z</time></trkpt><trkpt lat="44.451685285946475" lon="8.052380193120271"><ele>758.0</ele><time>2026-03-29T07:27:45.999Z</time></trkpt><trkpt lat="44.45161268742461" lon="8.05255528726126"><ele>760.5</ele><time>2026-03-29T07:27:46.999Z</time></trkpt><trkpt lat="44.451537921905235" lon="8.052722748823959"><ele>763.0</ele><time>2026-03-29T07:27:47.999Z</time></trkpt><trkpt lat="44.45146174309792" lon="8.052877937195555"><ele>765.5</ele><time>2026-03-29T07:27:48.999Z</time></trkpt><trkpt lat="44.45138709299693" lon="8.053022697769391"><ele>768.0</ele><time>2026-03-29T07:27:49.999Z</time></trkpt><trkpt lat="44.45132113562664" lon="8.053151976253417"><ele>763.75</ele><time>2026-03-29T07:27:50.999Z</time></trkpt><trkpt lat="44.45125492429108" lon="8.053283433749344"><ele>759.5</ele><time>2026-03-29T07:27:51.999Z</time></trkpt><trkpt lat="44.45119880977181" lon="8.053437214148573"><ele>755.25</ele><time>2026-03-29T07:27:52.999Z</time></trkpt><trkpt lat="44.45115950681093" lon="8.053612295298628"><ele>751.0</ele><time>2026-03-29T07:27:53.999Z</time></trkpt><trkpt lat="44.45113561087958" lon="8.053802093854774"><ele>751.0</ele><time>2026-03-29T07:27:54.999Z</time></trkpt><trkpt lat="44.45111220375137" lon="8.053975407519413"><ele>751.0</ele><time>2026-03-29T07:27:55.999Z</time></trkpt><trkpt lat="44.45107718243922" lon="8.054152717461184"><ele>751.0</ele><time>2026-03-29T07:27:56.999Z</time></trkpt><trkpt lat="44.45103515708405" lon="8.054339375295946"><ele>751.0</ele><time>2026-03-29T07:27:57.998Z</time></trkpt><trkpt lat="44.45098816735855" lon="8.05452081985037"><ele>751.75</ele><time>2026-03-29T07:27:58.998Z</time></trkpt><trkpt lat="44.45093883189323" lon="8.05469527079631"><ele>752.5</ele><time>2026-03-29T07:27:59.998Z</time></trkpt><trkpt lat="44.450877899119625" lon="8.054865874622536"><ele>753.25</ele><time>2026-03-29T07:28:00.998Z</time></trkpt><trkpt lat="44.45080599643739" lon="8.055030368798592"><ele>754.0</ele><time>2026-03-29T07:28:01.998Z</time></trkpt><trkpt lat="44.45072230093806" lon="8.055189887715434"><ele>755.3333333333334</ele><time>2026-03-29T07:28:02.998Z</time></trkpt><trkpt lat="44.450626318917344" lon="8.055342749070867"><ele>756.6666666666666</ele><time>2026-03-29T07:28:03.998Z</time></trkpt><trkpt lat="44.45051612082746" lon="8.05549557606333"><ele>758.0</ele><time>2026-03-29T07:28:04.998Z</time></trkpt><trkpt lat="44.45039848007864" lon="8.055637252830024"><ele>758.6666666666666</ele><time>2026-03-29T07:28:05.998Z</time></trkpt><trkpt lat="44.45026789117797" lon="8.055764723185106"><ele>759.3333333333334</ele><time>2026-03-29T07:28:06.998Z</time></trkpt><trkpt lat="44.45011657272658" lon="8.055867262242407"><ele>760.0</ele><time>2026-03-29T07:28:07.998Z</time></trkpt><trkpt lat="44.44995948573269" lon="8.055954145299406"><ele>760.0</ele><time>2026-03-29T07:28:08.998Z</time></trkpt><trkpt lat="44.449793022813125" lon="8.056037605452861"><ele>760.0</ele><time>2026-03-29T07:28:09.998Z</time></trkpt><trkpt lat="44.44963809783172" lon="8.056126188616583"><ele>760.0</ele><time>2026-03-29T07:28:10.998Z</time></trkpt><trkpt lat="44.44948220730511" lon="8.0562171530451"><ele>759.25</ele><time>2026-03-29T07:28:11.998Z</time></trkpt><trkpt lat="44.449335993383606" lon="8.056288554759542"><ele>758.5</ele><time>2026-03-29T07:28:12.998Z</time></trkpt><trkpt lat="44.44920256896183" lon="8.056342634090939"><ele>757.75</ele><time>2026-03-29T07:28:13.998Z</time></trkpt><trkpt lat="44.44908558384758" lon="8.05638449027354"><ele>757.0</ele><time>2026-03-29T07:28:14.998Z</time></trkpt><trkpt lat="44.44897065016641" lon="8.056432195849293"><ele>757.0</ele><time>2026-03-29T07:28:15.998Z</time></trkpt><trkpt lat="44.448843027063305" lon="8.056477971682092"><ele>757.0</ele><time>2026-03-29T07:28:16.998Z</time></trkpt><trkpt lat="44.44872471500079" lon="8.056543072238304"><ele>757.0</ele><time>2026-03-29T07:28:17.998Z</time></trkpt><trkpt lat="44.44860302159724" lon="8.056629680388838"><ele>757.0</ele><time>2026-03-29T07:28:18.998Z</time></trkpt><trkpt lat="44.448483293503074" lon="8.05672671386286"><ele>759.75</ele><time>2026-03-29T07:28:19.998Z</time></trkpt><trkpt lat="44.4483649439922" lon="8.05683340039287"><ele>762.5</ele><time>2026-03-29T07:28:20.998Z</time></trkpt><trkpt lat="44.448249756423" lon="8.056949005547777"><ele>765.25</ele><time>2026-03-29T07:28:21.998Z</time></trkpt><trkpt lat="44.44814008507562" lon="8.05708245419569"><ele>768.0</ele><time>2026-03-29T07:28:23Z</time></trkpt><trkpt lat="44.448035618012355" lon="8.057230489435895"><ele>766.3333333333334</ele><time>2026-03-29T07:28:24Z</time></trkpt><trkpt lat="44.44792453074505" lon="8.05736893194122"><ele>764.6666666666667</ele><time>2026-03-29T07:28:25Z</time></trkpt><trkpt lat="44.44780851328982" lon="8.057514199801577"><ele>763.0</ele><time>2026-03-29T07:28:26Z</time></trkpt><trkpt lat="44.44768817389951" lon="8.057660523801793"><ele>768.0</ele><time>2026-03-29T07:28:27Z</time></trkpt><trkpt lat="44.44755869456319" lon="8.057794360544944"><ele>773.0</ele><time>2026-03-29T07:28:28Z</time></trkpt><trkpt lat="44.44742977507783" lon="8.05792759381578"><ele>778.0</ele><time>2026-03-29T07:28:29Z</time></trkpt><trkpt lat="44.44731426205114" lon="8.05805127648875"><ele>778.0</ele><time>2026-03-29T07:28:30Z</time></trkpt><trkpt lat="44.44720083560216" lon="8.058166837118904"><ele>778.0</ele><time>2026-03-29T07:28:31Z</time></trkpt><trkpt lat="44.44709136161876" lon="8.058276047787679"><ele>778.0</ele><time>2026-03-29T07:28:32Z</time></trkpt><trkpt lat="44.446993662142496" lon="8.058371934288456"><ele>778.0</ele><time>2026-03-29T07:28:33Z</time></trkpt><trkpt lat="44.44691168151628" lon="8.058464726176592"><ele>781.0</ele><time>2026-03-29T07:28:34Z</time></trkpt><trkpt lat="44.44683309911439" lon="8.058566164197147"><ele>784.0</ele><time>2026-03-29T07:28:35Z</time></trkpt><trkpt lat="44.446775857412256" lon="8.058704727879057"><ele>787.0</ele><time>2026-03-29T07:28:36Z</time></trkpt><trkpt lat="44.44673571877878" lon="8.058859584761525"><ele>790.0</ele><time>2026-03-29T07:28:37Z</time></trkpt><trkpt lat="44.44671510707329" lon="8.059016530775088"><ele>790.5</ele><time>2026-03-29T07:28:38Z</time></trkpt><trkpt lat="44.44670862191952" lon="8.05918794502546"><ele>791.0</ele><time>2026-03-29T07:28:39Z</time></trkpt><trkpt lat="44.44671068233783" lon="8.059365196988743"><ele>791.5</ele><time>2026-03-29T07:28:40Z</time></trkpt><trkpt lat="44.44673185896369" lon="8.059560950914811"><ele>792.0</ele><time>2026-03-29T07:28:41Z</time></trkpt><trkpt lat="44.44675817913305" lon="8.059758856825958"><ele>792.0</ele><time>2026-03-29T07:28:42Z</time></trkpt><trkpt lat="44.44676969477258" lon="8.059942174662082"><ele>792.0</ele><time>2026-03-29T07:28:43Z</time></trkpt><trkpt lat="44.44679204730524" lon="8.060119074891807"><ele>792.0</ele><time>2026-03-29T07:28:44Z</time></trkpt><trkpt lat="44.446821780060404" lon="8.060292822224453"><ele>792.0</ele><time>2026-03-29T07:28:45Z</time></trkpt><trkpt lat="44.446863147886866" lon="8.060460691488396"><ele>790.75</ele><time>2026-03-29T07:28:46Z</time></trkpt><trkpt lat="44.44691308350182" lon="8.060623076520773"><ele>789.5</ele><time>2026-03-29T07:28:47Z</time></trkpt><trkpt lat="44.44698430702751" lon="8.060758867270216"><ele>788.25</ele><time>2026-03-29T07:28:48Z</time></trkpt><trkpt lat="44.447062451828295" lon="8.060884715011355"><ele>787.0</ele><time>2026-03-29T07:28:49Z</time></trkpt><trkpt lat="44.447109335490225" lon="8.061029962151563"><ele>786.5</ele><time>2026-03-29T07:28:50Z</time></trkpt><trkpt lat="44.44717747164473" lon="8.061149774434618"><ele>786.0</ele><time>2026-03-29T07:28:51Z</time></trkpt><trkpt lat="44.44720973167798" lon="8.061313290812784"><ele>785.5</ele><time>2026-03-29T07:28:52Z</time></trkpt><trkpt lat="44.4472260907078" lon="8.061491658807435"><ele>785.0</ele><time>2026-03-29T07:28:53Z</time></trkpt><trkpt lat="44.44721036747467" lon="8.061683124615767"><ele>785.0</ele><time>2026-03-29T07:28:54Z</time></trkpt><trkpt lat="44.44719236694124" lon="8.061886905951374"><ele>785.0</ele><time>2026-03-29T07:28:55Z</time></trkpt><trkpt lat="44.44717614389114" lon="8.062088776043318"><ele>785.0</ele><time>2026-03-29T07:28:56Z</time></trkpt><trkpt lat="44.44716209331997" lon="8.062302571086681"><ele>785.0</ele><time>2026-03-29T07:28:57Z</time></trkpt><trkpt lat="44.44715145664608" lon="8.062530956740739"><ele>784.3333333333334</ele><time>2026-03-29T07:28:58Z</time></trkpt><trkpt lat="44.44714103364275" lon="8.062766852281664"><ele>783.6666666666667</ele><time>2026-03-29T07:28:59Z</time></trkpt><trkpt lat="44.44712487367706" lon="8.06300880423419"><ele>783.0</ele><time>2026-03-29T07:29:00Z</time></trkpt><trkpt lat="44.44710169167846" lon="8.06322499677579"><ele>779.0</ele><time>2026-03-29T07:29:01Z</time></trkpt><trkpt lat="44.44708633320795" lon="8.063435482391816"><ele>775.0</ele><time>2026-03-29T07:29:02Z</time></trkpt><trkpt lat="44.447069402077446" lon="8.063634956273008"><ele>771.0</ele><time>2026-03-29T07:29:03Z</time></trkpt><trkpt lat="44.44705694740232" lon="8.063823421132561"><ele>767.0</ele><time>2026-03-29T07:29:04Z</time></trkpt><trkpt lat="44.44704786223705" lon="8.063996757056499"><ele>768.25</ele><time>2026-03-29T07:29:05Z</time></trkpt><trkpt lat="44.44702972767897" lon="8.064164527494595"><ele>769.5</ele><time>2026-03-29T07:29:06Z</time></trkpt><trkpt lat="44.447012728952075" lon="8.064313998523412"><ele>770.75</ele><time>2026-03-29T07:29:06.999Z</time></trkpt><trkpt lat="44.446970784016706" lon="8.064483655537353"><ele>772.0</ele><time>2026-03-29T07:29:07.999Z</time></trkpt><trkpt lat="44.44691244713098" lon="8.064629296166727"><ele>772.0</ele><time>2026-03-29T07:29:08.999Z</time></trkpt><trkpt lat="44.44685119595983" lon="8.064764863865433"><ele>772.0</ele><time>2026-03-29T07:29:09.999Z</time></trkpt><trkpt lat="44.446781866651214" lon="8.064905791816255"><ele>772.0</ele><time>2026-03-29T07:29:10.999Z</time></trkpt><trkpt lat="44.44672053161496" lon="8.065048491692608"><ele>772.0</ele><time>2026-03-29T07:29:11.999Z</time></trkpt><trkpt lat="44.44667029242373" lon="8.065198688341795"><ele>773.75</ele><time>2026-03-29T07:29:12.999Z</time></trkpt><trkpt lat="44.446630062190806" lon="8.065365276195093"><ele>775.5</ele><time>2026-03-29T07:29:13.999Z</time></trkpt><trkpt lat="44.44660732665925" lon="8.065551920283777"><ele>777.25</ele><time>2026-03-29T07:29:14.999Z</time></trkpt><trkpt lat="44.44659352312912" lon="8.06577967175102"><ele>779.0</ele><time>2026-03-29T07:29:15.999Z</time></trkpt><trkpt lat="44.44659186219009" lon="8.066005675164176"><ele>778.5</ele><time>2026-03-29T07:29:16.999Z</time></trkpt><trkpt lat="44.44659912254852" lon="8.066219841166422"><ele>778.0</ele><time>2026-03-29T07:29:17.999Z</time></trkpt><trkpt lat="44.44660709915327" lon="8.066430770314835"><ele>777.5</ele><time>2026-03-29T07:29:18.999Z</time></trkpt><trkpt lat="44.4466155189635" lon="8.066624892174742"><ele>777.0</ele><time>2026-03-29T07:29:19.999Z</time></trkpt><trkpt lat="44.446617380973215" lon="8.066802665876912"><ele>777.0</ele><time>2026-03-29T07:29:20.999Z</time></trkpt><trkpt lat="44.44661281188118" lon="8.066967024117286"><ele>777.0</ele><time>2026-03-29T07:29:21.999Z</time></trkpt><trkpt lat="44.44660277338425" lon="8.067154628363001"><ele>777.0</ele><time>2026-03-29T07:29:22.999Z</time></trkpt><trkpt lat="44.44658692069346" lon="8.067344438992622"><ele>777.0</ele><time>2026-03-29T07:29:23.999Z</time></trkpt><trkpt lat="44.446539650957014" lon="8.067543597732413"><ele>778.0</ele><time>2026-03-29T07:29:24.999Z</time></trkpt><trkpt lat="44.44646249077644" lon="8.06774261397121"><ele>779.0</ele><time>2026-03-29T07:29:25.999Z</time></trkpt><trkpt lat="44.44639010826609" lon="8.06792281497676"><ele>780.0</ele><time>2026-03-29T07:29:26.999Z</time></trkpt><trkpt lat="44.44632218482415" lon="8.068093605923409"><ele>781.0</ele><time>2026-03-29T07:29:27.999Z</time></trkpt><trkpt lat="44.44626124434944" lon="8.06822621334936"><ele>777.25</ele><time>2026-03-29T07:29:28.999Z</time></trkpt><trkpt lat="44.44621472495437" lon="8.068371883731688"><ele>773.5</ele><time>2026-03-29T07:29:29.999Z</time></trkpt><trkpt lat="44.44619110993788" lon="8.068540604803413"><ele>769.75</ele><time>2026-03-29T07:29:30.999Z</time></trkpt><trkpt lat="44.44617811073943" lon="8.068734958250488"><ele>766.0</ele><time>2026-03-29T07:29:31.999Z</time></trkpt><trkpt lat="44.44619290797282" lon="8.068946378708361"><ele>767.6666666666667</ele><time>2026-03-29T07:29:32.999Z</time></trkpt><trkpt lat="44.44622173926746" lon="8.06916292678002"><ele>769.3333333333334</ele><time>2026-03-29T07:29:33.999Z</time></trkpt><trkpt lat="44.44623623001119" lon="8.069378087145415"><ele>771.0</ele><time>2026-03-29T07:29:34.999Z</time></trkpt><trkpt lat="44.44625821181536" lon="8.069575234589756"><ele>771.0</ele><time>2026-03-29T07:29:35.999Z</time></trkpt><trkpt lat="44.44628369683233" lon="8.069768700636866"><ele>771.0</ele><time>2026-03-29T07:29:36.999Z</time></trkpt><trkpt lat="44.44631323912036" lon="8.06996021090251"><ele>771.0</ele><time>2026-03-29T07:29:37.999Z</time></trkpt><trkpt lat="44.44634264131135" lon="8.070154747804335"><ele>771.0</ele><time>2026-03-29T07:29:38.999Z</time></trkpt><trkpt lat="44.44635891899749" lon="8.070366133418313"><ele>773.75</ele><time>2026-03-29T07:29:39.999Z</time></trkpt><trkpt lat="44.4463914545962" lon="8.07056629614804"><ele>776.5</ele><time>2026-03-29T07:29:40.999Z</time></trkpt><trkpt lat="44.446424488982345" lon="8.07076225429792"><ele>779.25</ele><time>2026-03-29T07:29:41.999Z</time></trkpt><trkpt lat="44.44645815629498" lon="8.070968683200274"><ele>782.0</ele><time>2026-03-29T07:29:42.999Z</time></trkpt><trkpt lat="44.446491439729925" lon="8.071180474194769"><ele>782.0</ele><time>2026-03-29T07:29:43.999Z</time></trkpt><trkpt lat="44.44652305734603" lon="8.071394699195706"><ele>782.0</ele><time>2026-03-29T07:29:44.999Z</time></trkpt><trkpt lat="44.44655708386199" lon="8.071605796412372"><ele>782.0</ele><time>2026-03-29T07:29:45.999Z</time></trkpt><trkpt lat="44.44660300071898" lon="8.071819133519375"><ele>781.0</ele><time>2026-03-29T07:29:46.999Z</time></trkpt><trkpt lat="44.44664405528415" lon="8.072020625969918"><ele>780.0</ele><time>2026-03-29T07:29:47.999Z</time></trkpt><trkpt lat="44.44668632624049" lon="8.072230061409659"><ele>779.0</ele><time>2026-03-29T07:29:48.999Z</time></trkpt><trkpt lat="44.44672792744207" lon="8.07241820509826"><ele>778.0</ele><time>2026-03-29T07:29:49.999Z</time></trkpt><trkpt lat="44.446766848637246" lon="8.072601552037954"><ele>777.25</ele><time>2026-03-29T07:29:50.999Z</time></trkpt><trkpt lat="44.44680506161405" lon="8.072767483788738"><ele>776.5</ele><time>2026-03-29T07:29:51.999Z</time></trkpt><trkpt lat="44.44683807742756" lon="8.072941587077052"><ele>775.75</ele><time>2026-03-29T07:29:52.999Z</time></trkpt><trkpt lat="44.44686710309231" lon="8.073129631862873"><ele>775.0</ele><time>2026-03-29T07:29:53.999Z</time></trkpt><trkpt lat="44.44689067249534" lon="8.07334239591117"><ele>772.6666666666666</ele><time>2026-03-29T07:29:54.999Z</time></trkpt><trkpt lat="44.44691397325315" lon="8.07355794068554"><ele>770.3333333333333</ele><time>2026-03-29T07:29:55.999Z</time></trkpt><trkpt lat="44.44694516881865" lon="8.073794535073613"><ele>768.0</ele><time>2026-03-29T07:29:56.999Z</time></trkpt><trkpt lat="44.44697683103908" lon="8.074036308588267"><ele>767.0</ele><time>2026-03-29T07:29:57.999Z</time></trkpt><trkpt lat="44.44700927576717" lon="8.074243828144583"><ele>766.0</ele><time>2026-03-29T07:29:58.999Z</time></trkpt><trkpt lat="44.44704972755881" lon="8.07442559060815"><ele>765.0</ele><time>2026-03-29T07:29:59.999Z</time></trkpt><trkpt lat="44.44707266653261" lon="8.074606162395593"><ele>764.0</ele><time>2026-03-29T07:30:00.999Z</time></trkpt><trkpt lat="44.44708661322427" lon="8.0747907399895"><ele>764.6666666666666</ele><time>2026-03-29T07:30:01.999Z</time></trkpt><trkpt lat="44.44706395533364" lon="8.074993748242711"><ele>765.3333333333334</ele><time>2026-03-29T07:30:02.999Z</time></trkpt><trkpt lat="44.44700928131399" lon="8.075186069816949"><ele>766.0</ele><time>2026-03-29T07:30:03.999Z</time></trkpt><trkpt lat="44.44693509093213" lon="8.075380326860591"><ele>766.0</ele><time>2026-03-29T07:30:04.999Z</time></trkpt><trkpt lat="44.44684670366365" lon="8.075558989930157"><ele>766.0</ele><time>2026-03-29T07:30:05.998Z</time></trkpt><trkpt lat="44.446768629518346" lon="8.075717209271275"><ele>766.0</ele><time>2026-03-29T07:30:06.998Z</time></trkpt><trkpt lat="44.4467041964958" lon="8.07586668550906"><ele>766.0</ele><time>2026-03-29T07:30:07.998Z</time></trkpt><trkpt lat="44.44664500051326" lon="8.07600614966866"><ele>768.25</ele><time>2026-03-29T07:30:08.998Z</time></trkpt><trkpt lat="44.44659782039819" lon="8.076161484806361"><ele>770.5</ele><time>2026-03-29T07:30:09.998Z</time></trkpt><trkpt lat="44.44656813622566" lon="8.076352786284277"><ele>772.75</ele><time>2026-03-29T07:30:10.998Z</time></trkpt><trkpt lat="44.44655723753168" lon="8.076558785715227"><ele>775.0</ele><time>2026-03-29T07:30:11.998Z</time></trkpt><trkpt lat="44.44654049008239" lon="8.07676235001607"><ele>777.6666666666666</ele><time>2026-03-29T07:30:12.998Z</time></trkpt><trkpt lat="44.44650063195478" lon="8.076972785594064"><ele>780.3333333333333</ele><time>2026-03-29T07:30:13.998Z</time></trkpt><trkpt lat="44.44645911456277" lon="8.077186678585225"><ele>783.0</ele><time>2026-03-29T07:30:14.998Z</time></trkpt><trkpt lat="44.446419294376746" lon="8.077414825551033"><ele>786.0</ele><time>2026-03-29T07:30:15.998Z</time></trkpt><trkpt lat="44.446404244679606" lon="8.077657098628128"><ele>789.0</ele><time>2026-03-29T07:30:16.998Z</time></trkpt><trkpt lat="44.446390986103545" lon="8.07789859035823"><ele>792.0</ele><time>2026-03-29T07:30:17.998Z</time></trkpt><trkpt lat="44.44638020286023" lon="8.07810800265438"><ele>792.25</ele><time>2026-03-29T07:30:18.998Z</time></trkpt><trkpt lat="44.446355872735346" lon="8.07832259087891"><ele>792.5</ele><time>2026-03-29T07:30:19.998Z</time></trkpt><trkpt lat="44.44634080598042" lon="8.078515317756386"><ele>792.75</ele><time>2026-03-29T07:30:20.998Z</time></trkpt><trkpt lat="44.44633230671451" lon="8.07868168189219"><ele>793.0</ele><time>2026-03-29T07:30:21.998Z</time></trkpt><trkpt lat="44.44630013668214" lon="8.078873857286368"><ele>784.6666666666666</ele><time>2026-03-29T07:30:22.998Z</time></trkpt><trkpt lat="44.446244316478534" lon="8.079057245747478"><ele>776.3333333333333</ele><time>2026-03-29T07:30:23.998Z</time></trkpt><trkpt lat="44.44617292686294" lon="8.079250435360304"><ele>768.0</ele><time>2026-03-29T07:30:24.998Z</time></trkpt><trkpt lat="44.44609182488973" lon="8.079452503225387"><ele>768.0</ele><time>2026-03-29T07:30:25.998Z</time></trkpt><trkpt lat="44.44600228369305" lon="8.079662829790657"><ele>768.0</ele><time>2026-03-29T07:30:26.998Z</time></trkpt><trkpt lat="44.44591761337874" lon="8.079879208351581"><ele>768.0</ele><time>2026-03-29T07:30:27.998Z</time></trkpt><trkpt lat="44.445842189002605" lon="8.080075342294894"><ele>771.3333333333333</ele><time>2026-03-29T07:30:29Z</time></trkpt><trkpt lat="44.44575594616555" lon="8.080277571215495"><ele>774.6666666666666</ele><time>2026-03-29T07:30:30Z</time></trkpt><trkpt lat="44.445668664137074" lon="8.080471381378954"><ele>778.0</ele><time>2026-03-29T07:30:31Z</time></trkpt><trkpt lat="44.445583054521656" lon="8.08065308171827"><ele>780.5</ele><time>2026-03-29T07:30:32Z</time></trkpt><trkpt lat="44.44550727138326" lon="8.080833211942778"><ele>783.0</ele><time>2026-03-29T07:30:33Z</time></trkpt><trkpt lat="44.44543186577127" lon="8.080996779174045"><ele>785.5</ele><time>2026-03-29T07:30:34Z</time></trkpt><trkpt lat="44.44536540661267" lon="8.081164762983976"><ele>788.0</ele><time>2026-03-29T07:30:35Z</time></trkpt><trkpt lat="44.445303373393614" lon="8.08131610323627"><ele>783.25</ele><time>2026-03-29T07:30:36Z</time></trkpt><trkpt lat="44.445244377967555" lon="8.08146596112349"><ele>778.5</ele><time>2026-03-29T07:30:37Z</time></trkpt><trkpt lat="44.44518985489538" lon="8.081628269257934"><ele>773.75</ele><time>2026-03-29T07:30:38Z</time></trkpt><trkpt lat="44.445149148119626" lon="8.081820630699223"><ele>769.0</ele><time>2026-03-29T07:30:39Z</time></trkpt><trkpt lat="44.44512406884826" lon="8.082024093919571"><ele>769.0</ele><time>2026-03-29T07:30:40Z</time></trkpt><trkpt lat="44.445102181620285" lon="8.082241326200965"><ele>769.0</ele><time>2026-03-29T07:30:41Z</time></trkpt><trkpt lat="44.44507528707306" lon="8.08246278122209"><ele>769.0</ele><time>2026-03-29T07:30:42Z</time></trkpt><trkpt lat="44.44505309035156" lon="8.082693332800849"><ele>770.25</ele><time>2026-03-29T07:30:43Z</time></trkpt><trkpt lat="44.445029445395406" lon="8.082896820841977"><ele>771.5</ele><time>2026-03-29T07:30:44Z</time></trkpt><trkpt lat="44.445014871253804" lon="8.083091844553568"><ele>772.75</ele><time>2026-03-29T07:30:45Z</time></trkpt><trkpt lat="44.444998630009685" lon="8.083273721531205"><ele>774.0</ele><time>2026-03-29T07:30:46Z</time></trkpt><trkpt lat="44.44498266550021" lon="8.083439625745417"><ele>774.6</ele><time>2026-03-29T07:30:47Z</time></trkpt><trkpt lat="44.44496767647971" lon="8.083593604960603"><ele>775.2</ele><time>2026-03-29T07:30:48Z</time></trkpt><trkpt lat="44.44495000924968" lon="8.083744562657609"><ele>775.8000000000001</ele><time>2026-03-29T07:30:49Z</time></trkpt><trkpt lat="44.44492311975159" lon="8.08388657541059"><ele>776.4000000000001</ele><time>2026-03-29T07:30:50Z</time></trkpt><trkpt lat="44.444879777415004" lon="8.084017679767763"><ele>777.0</ele><time>2026-03-29T07:30:51Z</time></trkpt><trkpt lat="44.444801527250625" lon="8.084159501855702"><ele>778.5</ele><time>2026-03-29T07:30:52Z</time></trkpt><trkpt lat="44.44471079991756" lon="8.084277874379804"><ele>780.0</ele><time>2026-03-29T07:30:53Z</time></trkpt><trkpt lat="44.444598722412074" lon="8.084374162639799"><ele>781.5</ele><time>2026-03-29T07:30:54Z</time></trkpt><trkpt lat="44.44448155782029" lon="8.084485439098545"><ele>783.0</ele><time>2026-03-29T07:30:55Z</time></trkpt><trkpt lat="44.44436608072082" lon="8.084618041698272"><ele>781.0</ele><time>2026-03-29T07:30:56Z</time></trkpt><trkpt lat="44.44425745735377" lon="8.084765070232976"><ele>779.0</ele><time>2026-03-29T07:30:57Z</time></trkpt><trkpt lat="44.44416177505209" lon="8.084898393869343"><ele>777.0</ele><time>2026-03-29T07:30:58Z</time></trkpt><trkpt lat="44.444075373276085" lon="8.085022547007144"><ele>775.0</ele><time>2026-03-29T07:30:59Z</time></trkpt><trkpt lat="44.44399768720324" lon="8.085143894494784"><ele>775.0</ele><time>2026-03-29T07:31:00Z</time></trkpt><trkpt lat="44.44391995891221" lon="8.08523665884935"><ele>775.0</ele><time>2026-03-29T07:31:01Z</time></trkpt><trkpt lat="44.443830274025025" lon="8.085310919694919"><ele>775.0</ele><time>2026-03-29T07:31:02Z</time></trkpt><trkpt lat="44.44372056099632" lon="8.08535852514146"><ele>775.0</ele><time>2026-03-29T07:31:03Z</time></trkpt><trkpt lat="44.4436015624523" lon="8.085377382316254"><ele>775.0</ele><time>2026-03-29T07:31:04Z</time></trkpt><trkpt lat="44.44346836487151" lon="8.085383358678403"><ele>771.25</ele><time>2026-03-29T07:31:05Z</time></trkpt><trkpt lat="44.44333815745493" lon="8.085394508625512"><ele>767.5</ele><time>2026-03-29T07:31:06Z</time></trkpt><trkpt lat="44.44320933180519" lon="8.085410552891252"><ele>763.75</ele><time>2026-03-29T07:31:07Z</time></trkpt><trkpt lat="44.443063353921104" lon="8.085417240923265"><ele>760.0</ele><time>2026-03-29T07:31:08Z</time></trkpt><trkpt lat="44.442924578529684" lon="8.085451170228334"><ele>757.3333333333334</ele><time>2026-03-29T07:31:09Z</time></trkpt><trkpt lat="44.44277294935481" lon="8.08550618869817"><ele>754.6666666666666</ele><time>2026-03-29T07:31:10Z</time></trkpt><trkpt lat="44.44261813580654" lon="8.08557135001881"><ele>752.0</ele><time>2026-03-29T07:31:11Z</time></trkpt><trkpt lat="44.4424602372079" lon="8.085651701447835"><ele>752.0</ele><time>2026-03-29T07:31:11.999Z</time></trkpt><trkpt lat="44.44231929133254" lon="8.085727190717705"><ele>752.0</ele><time>2026-03-29T07:31:12.999Z</time></trkpt><trkpt lat="44.44219590484427" lon="8.085791020663198"><ele>752.0</ele><time>2026-03-29T07:31:13.999Z</time></trkpt><trkpt lat="44.44208150673889" lon="8.085837588794988"><ele>752.0</ele><time>2026-03-29T07:31:14.999Z</time></trkpt><trkpt lat="44.44198263422775" lon="8.085880843341931"><ele>753.25</ele><time>2026-03-29T07:31:15.999Z</time></trkpt><trkpt lat="44.44188921202003" lon="8.085930008699952"><ele>754.5</ele><time>2026-03-29T07:31:16.999Z</time></trkpt><trkpt lat="44.44179444668623" lon="8.086004571275051"><ele>755.75</ele><time>2026-03-29T07:31:17.999Z</time></trkpt><trkpt lat="44.44171007020351" lon="8.086130683706086"><ele>757.0</ele><time>2026-03-29T07:31:18.999Z</time></trkpt><trkpt lat="44.441643165981105" lon="8.086293931070012"><ele>757.0</ele><time>2026-03-29T07:31:19.999Z</time></trkpt><trkpt lat="44.44157343234217" lon="8.08647045094813"><ele>757.0</ele><time>2026-03-29T07:31:20.999Z</time></trkpt><trkpt lat="44.44150139295337" lon="8.086662154461846"><ele>757.0</ele><time>2026-03-29T07:31:21.999Z</time></trkpt><trkpt lat="44.441433674374146" lon="8.086852323655814"><ele>760.3333333333334</ele><time>2026-03-29T07:31:22.999Z</time></trkpt><trkpt lat="44.441358483311575" lon="8.087062298517786"><ele>763.6666666666666</ele><time>2026-03-29T07:31:23.999Z</time></trkpt><trkpt lat="44.441285140065744" lon="8.0872864997566"><ele>767.0</ele><time>2026-03-29T07:31:24.999Z</time></trkpt><trkpt lat="44.44121585184271" lon="8.087499563433846"><ele>760.0</ele><time>2026-03-29T07:31:25.999Z</time></trkpt><trkpt lat="44.44114615316646" lon="8.08769925839943"><ele>753.0</ele><time>2026-03-29T07:31:26.999Z</time></trkpt><trkpt lat="44.441069251649004" lon="8.087912169751059"><ele>746.0</ele><time>2026-03-29T07:31:27.999Z</time></trkpt><trkpt lat="44.44100191481133" lon="8.08814362518569"><ele>748.0</ele><time>2026-03-29T07:31:28.999Z</time></trkpt><trkpt lat="44.440934071194" lon="8.08840146984365"><ele>750.0</ele><time>2026-03-29T07:31:29.999Z</time></trkpt><trkpt lat="44.44086368793049" lon="8.088655295261502"><ele>752.0</ele><time>2026-03-29T07:31:30.999Z</time></trkpt><trkpt lat="44.44078179193471" lon="8.088916965860545"><ele>753.3333333333333</ele><time>2026-03-29T07:31:31.999Z</time></trkpt><trkpt lat="44.440703300675956" lon="8.089166827707762"><ele>754.6666666666666</ele><time>2026-03-29T07:31:32.999Z</time></trkpt><trkpt lat="44.440634289987386" lon="8.089390455797778"><ele>756.0</ele><time>2026-03-29T07:31:33.999Z</time></trkpt><trkpt lat="44.4405808785603" lon="8.089572159165455"><ele>756.0</ele><time>2026-03-29T07:31:34.999Z</time></trkpt><trkpt lat="44.440523487598135" lon="8.08974921274528"><ele>756.0</ele><time>2026-03-29T07:31:35.999Z</time></trkpt><trkpt lat="44.440462773842086" lon="8.089910594233215"><ele>756.0</ele><time>2026-03-29T07:31:36.999Z</time></trkpt><trkpt lat="44.440391782346275" lon="8.090065501230404"><ele>756.0</ele><time>2026-03-29T07:31:37.999Z</time></trkpt><trkpt lat="44.44031371302783" lon="8.09020876473519"><ele>755.4</ele><time>2026-03-29T07:31:38.999Z</time></trkpt><trkpt lat="44.440229134008106" lon="8.090325266450103"><ele>754.8</ele><time>2026-03-29T07:31:39.999Z</time></trkpt><trkpt lat="44.44015881107469" lon="8.090434794186129"><ele>754.1999999999999</ele><time>2026-03-29T07:31:40.999Z</time></trkpt><trkpt lat="44.44009571884792" lon="8.090538385158967"><ele>753.5999999999999</ele><time>2026-03-29T07:31:41.999Z</time></trkpt><trkpt lat="44.44004350152729" lon="8.090650627266918"><ele>753.0</ele><time>2026-03-29T07:31:42.999Z</time></trkpt><trkpt lat="44.43999988578041" lon="8.090791139062288"><ele>753.0</ele><time>2026-03-29T07:31:43.999Z</time></trkpt><trkpt lat="44.43997072295318" lon="8.09097354758224"><ele>753.0</ele><time>2026-03-29T07:31:44.999Z</time></trkpt><trkpt lat="44.439964643152315" lon="8.09117040376406"><ele>753.0</ele><time>2026-03-29T07:31:45.999Z</time></trkpt><trkpt lat="44.43995717963619" lon="8.091385865667629"><ele>753.0</ele><time>2026-03-29T07:31:46.999Z</time></trkpt><trkpt lat="44.43994616983453" lon="8.091601172516143"><ele>751.75</ele><time>2026-03-29T07:31:47.999Z</time></trkpt><trkpt lat="44.43993898757335" lon="8.091797300117472"><ele>750.5</ele><time>2026-03-29T07:31:48.999Z</time></trkpt><trkpt lat="44.43992982606804" lon="8.091981419388507"><ele>749.25</ele><time>2026-03-29T07:31:49.999Z</time></trkpt><trkpt lat="44.4399146217645" lon="8.092151987683403"><ele>748.0</ele><time>2026-03-29T07:31:50.999Z</time></trkpt><trkpt lat="44.439899361492174" lon="8.092311773097254"><ele>747.5</ele><time>2026-03-29T07:31:51.999Z</time></trkpt><trkpt lat="44.43987171259277" lon="8.092471614935919"><ele>747.0</ele><time>2026-03-29T07:31:52.999Z</time></trkpt><trkpt lat="44.43981153004276" lon="8.092650478772827"><ele>746.5</ele><time>2026-03-29T07:31:53.999Z</time></trkpt><trkpt lat="44.43972450006059" lon="8.092814648969897"><ele>746.0</ele><time>2026-03-29T07:31:54.999Z</time></trkpt><trkpt lat="44.43962306597118" lon="8.093001222192044"><ele>743.75</ele><time>2026-03-29T07:31:55.999Z</time></trkpt><trkpt lat="44.43952473559017" lon="8.093178714233101"><ele>741.5</ele><time>2026-03-29T07:31:56.999Z</time></trkpt><trkpt lat="44.43943525121276" lon="8.093334527372772"><ele>739.25</ele><time>2026-03-29T07:31:57.999Z</time></trkpt><trkpt lat="44.43933745739559" lon="8.093471632234873"><ele>737.0</ele><time>2026-03-29T07:31:58.999Z</time></trkpt><trkpt lat="44.439216514914214" lon="8.093620517122677"><ele>737.0</ele><time>2026-03-29T07:31:59.999Z</time></trkpt><trkpt lat="44.439074733602375" lon="8.093770542163856"><ele>737.0</ele><time>2026-03-29T07:32:00.999Z</time></trkpt><trkpt lat="44.43892355437909" lon="8.093919587711145"><ele>737.0</ele><time>2026-03-29T07:32:01.999Z</time></trkpt><trkpt lat="44.43878967390085" lon="8.094055866694632"><ele>737.25</ele><time>2026-03-29T07:32:02.999Z</time></trkpt><trkpt lat="44.438664922003326" lon="8.094192617364682"><ele>737.5</ele><time>2026-03-29T07:32:03.999Z</time></trkpt><trkpt lat="44.43854175392128" lon="8.094317927915629"><ele>737.75</ele><time>2026-03-29T07:32:04.999Z</time></trkpt><trkpt lat="44.43843103573772" lon="8.094421012352498"><ele>738.0</ele><time>2026-03-29T07:32:05.999Z</time></trkpt><trkpt lat="44.438320466568534" lon="8.094516716152404"><ele>738.0</ele><time>2026-03-29T07:32:06.999Z</time></trkpt><trkpt lat="44.438208671849914" lon="8.094588170990578"><ele>738.0</ele><time>2026-03-29T07:32:07.999Z</time></trkpt><trkpt lat="44.438062296546505" lon="8.094625195595237"><ele>738.0</ele><time>2026-03-29T07:32:08.999Z</time></trkpt><trkpt lat="44.43790287007328" lon="8.094630250397554"><ele>738.0</ele><time>2026-03-29T07:32:09.999Z</time></trkpt><trkpt lat="44.43773771565014" lon="8.094611830665324"><ele>735.6666666666666</ele><time>2026-03-29T07:32:10.998Z</time></trkpt><trkpt lat="44.43757425714601" lon="8.094593839701183"><ele>733.3333333333333</ele><time>2026-03-29T07:32:11.998Z</time></trkpt><trkpt lat="44.437423313220144" lon="8.09457730308625"><ele>731.0</ele><time>2026-03-29T07:32:12.998Z</time></trkpt><trkpt lat="44.43728695612594" lon="8.094565412767837"><ele>731.0</ele><time>2026-03-29T07:32:13.998Z</time></trkpt><trkpt lat="44.43714523262514" lon="8.094560663144275"><ele>731.0</ele><time>2026-03-29T07:32:14.998Z</time></trkpt><trkpt lat="44.436993977373334" lon="8.094550735191278"><ele>731.0</ele><time>2026-03-29T07:32:15.998Z</time></trkpt><trkpt lat="44.436862782187006" lon="8.094521790526816"><ele>731.0</ele><time>2026-03-29T07:32:16.998Z</time></trkpt><trkpt lat="44.436741271881054" lon="8.094496550796329"><ele>730.8</ele><time>2026-03-29T07:32:17.998Z</time></trkpt><trkpt lat="44.43662701496649" lon="8.09445648757309"><ele>730.5999999999999</ele><time>2026-03-29T07:32:18.998Z</time></trkpt><trkpt lat="44.436517766761284" lon="8.094422489185435"><ele>730.4</ele><time>2026-03-29T07:32:19.998Z</time></trkpt><trkpt lat="44.4364150133704" lon="8.094396805029536"><ele>730.2</ele><time>2026-03-29T07:32:20.998Z</time></trkpt><trkpt lat="44.4363305099665" lon="8.09438322368449"><ele>730.0</ele><time>2026-03-29T07:32:21.998Z</time></trkpt><trkpt lat="44.43622612587901" lon="8.094381670893705"><ele>729.0</ele><time>2026-03-29T07:32:22.998Z</time></trkpt><trkpt lat="44.4361250891304" lon="8.094426311957065"><ele>728.0</ele><time>2026-03-29T07:32:23.998Z</time></trkpt><trkpt lat="44.43601974308189" lon="8.094522374479928"><ele>727.0</ele><time>2026-03-29T07:32:24.998Z</time></trkpt><trkpt lat="44.43594252450446" lon="8.094662138334423"><ele>726.0</ele><time>2026-03-29T07:32:25.998Z</time></trkpt><trkpt lat="44.43585936509121" lon="8.09481531567199"><ele>728.5</ele><time>2026-03-29T07:32:26.998Z</time></trkpt><trkpt lat="44.43578256850954" lon="8.094985592895588"><ele>731.0</ele><time>2026-03-29T07:32:27.998Z</time></trkpt><trkpt lat="44.4357047571377" lon="8.095115619141307"><ele>733.5</ele><time>2026-03-29T07:32:28.998Z</time></trkpt><trkpt lat="44.43563697343066" lon="8.095259862763305"><ele>736.0</ele><time>2026-03-29T07:32:29.998Z</time></trkpt><trkpt lat="44.43555919397052" lon="8.095404888552043"><ele>732.0</ele><time>2026-03-29T07:32:30.998Z</time></trkpt><trkpt lat="44.43544677887479" lon="8.095519929029741"><ele>728.0</ele><time>2026-03-29T07:32:31.998Z</time></trkpt><trkpt lat="44.43530149647613" lon="8.095584778493375"><ele>724.0</ele><time>2026-03-29T07:32:32.998Z</time></trkpt><trkpt lat="44.435166122293225" lon="8.095634562576791"><ele>720.0</ele><time>2026-03-29T07:32:33.998Z</time></trkpt><trkpt lat="44.43503441135248" lon="8.095678422437185"><ele>720.0</ele><time>2026-03-29T07:32:35Z</time></trkpt><trkpt lat="44.434913743689414" lon="8.095722914208377"><ele>720.0</ele><time>2026-03-29T07:32:36Z</time></trkpt><trkpt lat="44.434806945212706" lon="8.095791510330779"><ele>720.0</ele><time>2026-03-29T07:32:37Z</time></trkpt><trkpt lat="44.43471107892748" lon="8.095855402604943"><ele>720.0</ele><time>2026-03-29T07:32:38Z</time></trkpt><trkpt lat="44.43461807488691" lon="8.095967335889872"><ele>720.0</ele><time>2026-03-29T07:32:39Z</time></trkpt><trkpt lat="44.43451974219521" lon="8.096097270236776"><ele>720.0</ele><time>2026-03-29T07:32:40Z</time></trkpt><trkpt lat="44.434435292616044" lon="8.096272741439817"><ele>720.0</ele><time>2026-03-29T07:32:41Z</time></trkpt><trkpt lat="44.43434351346116" lon="8.09644201241749"><ele>720.0</ele><time>2026-03-29T07:32:42Z</time></trkpt><trkpt lat="44.434241287510574" lon="8.096638209231598"><ele>723.6666666666666</ele><time>2026-03-29T07:32:43Z</time></trkpt><trkpt lat="44.43413219286483" lon="8.09683752647807"><ele>727.3333333333333</ele><time>2026-03-29T07:32:44Z</time></trkpt><trkpt lat="44.43403751669927" lon="8.097021695761004"><ele>731.0</ele><time>2026-03-29T07:32:45Z</time></trkpt><trkpt lat="44.433948792505355" lon="8.097176345755495"><ele>731.0</ele><time>2026-03-29T07:32:46Z</time></trkpt><trkpt lat="44.433870814311966" lon="8.097325913288412"><ele>731.0</ele><time>2026-03-29T07:32:47Z</time></trkpt><trkpt lat="44.4337827024746" lon="8.097468660219352"><ele>731.0</ele><time>2026-03-29T07:32:48Z</time></trkpt><trkpt lat="44.4336848459752" lon="8.097588560559963"><ele>731.0</ele><time>2026-03-29T07:32:49Z</time></trkpt><trkpt lat="44.4335602614847" lon="8.09768908878656"><ele>729.5</ele><time>2026-03-29T07:32:50Z</time></trkpt><trkpt lat="44.43342225057059" lon="8.097752262633072"><ele>728.0</ele><time>2026-03-29T07:32:51Z</time></trkpt><trkpt lat="44.43326674051886" lon="8.09779525527008"><ele>726.5</ele><time>2026-03-29T07:32:52Z</time></trkpt><trkpt lat="44.433144971224124" lon="8.097843435690587"><ele>725.0</ele><time>2026-03-29T07:32:53Z</time></trkpt><trkpt lat="44.433007358366375" lon="8.097876545992676"><ele>724.25</ele><time>2026-03-29T07:32:54Z</time></trkpt><trkpt lat="44.43286463377658" lon="8.097866314122381"><ele>723.5</ele><time>2026-03-29T07:32:55Z</time></trkpt><trkpt lat="44.4327308793408" lon="8.097834376302805"><ele>722.75</ele><time>2026-03-29T07:32:56Z</time></trkpt><trkpt lat="44.43260256308711" lon="8.097793908983014"><ele>722.0</ele><time>2026-03-29T07:32:57Z</time></trkpt><trkpt lat="44.43250065073342" lon="8.097766363731202"><ele>722.0</ele><time>2026-03-29T07:32:58Z</time></trkpt><trkpt lat="44.432388369940696" lon="8.097751412885287"><ele>722.0</ele><time>2026-03-29T07:32:59Z</time></trkpt><trkpt lat="44.43227852431728" lon="8.097759130254868"><ele>722.0</ele><time>2026-03-29T07:33:00Z</time></trkpt><trkpt lat="44.432170247258426" lon="8.097802772859337"><ele>722.0</ele><time>2026-03-29T07:33:01Z</time></trkpt><trkpt lat="44.432056724436066" lon="8.097885246604886"><ele>718.3333333333333</ele><time>2026-03-29T07:33:02Z</time></trkpt><trkpt lat="44.43194013599175" lon="8.09799258497613"><ele>714.6666666666666</ele><time>2026-03-29T07:33:03Z</time></trkpt><trkpt lat="44.43180994410278" lon="8.098103967450673"><ele>711.0</ele><time>2026-03-29T07:33:04Z</time></trkpt><trkpt lat="44.431677442304" lon="8.098223396787537"><ele>714.25</ele><time>2026-03-29T07:33:05Z</time></trkpt><trkpt lat="44.43155198145633" lon="8.098337624484428"><ele>717.5</ele><time>2026-03-29T07:33:06Z</time></trkpt><trkpt lat="44.431437385654846" lon="8.098440428213511"><ele>720.75</ele><time>2026-03-29T07:33:07Z</time></trkpt><trkpt lat="44.43132626977873" lon="8.098542383907482"><ele>724.0</ele><time>2026-03-29T07:33:08Z</time></trkpt><trkpt lat="44.43122225889677" lon="8.098628998303361"><ele>724.0</ele><time>2026-03-29T07:33:09Z</time></trkpt><trkpt lat="44.43111331536627" lon="8.098713225065646"><ele>724.0</ele><time>2026-03-29T07:33:10Z</time></trkpt><trkpt lat="44.43101567664699" lon="8.098782845684095"><ele>724.0</ele><time>2026-03-29T07:33:11Z</time></trkpt><trkpt lat="44.430915702764516" lon="8.098834149947313"><ele>724.0</ele><time>2026-03-29T07:33:12Z</time></trkpt><trkpt lat="44.430788273158704" lon="8.098863838251352"><ele>724.0</ele><time>2026-03-29T07:33:13Z</time></trkpt><trkpt lat="44.43066284681294" lon="8.098800369154738"><ele>724.0</ele><time>2026-03-29T07:33:14Z</time></trkpt><trkpt lat="44.430517697458846" lon="8.098776908830452"><ele>724.0</ele><time>2026-03-29T07:33:15Z</time></trkpt><trkpt lat="44.43036552353107" lon="8.098733942548751"><ele>724.0</ele><time>2026-03-29T07:33:16Z</time></trkpt><trkpt lat="44.430216248951695" lon="8.098714661385404"><ele>725.3333333333334</ele><time>2026-03-29T07:33:16.999Z</time></trkpt><trkpt lat="44.43004748185197" lon="8.098692550775398"><ele>726.6666666666666</ele><time>2026-03-29T07:33:17.999Z</time></trkpt><trkpt lat="44.42988649054222" lon="8.098700960829554"><ele>728.0</ele><time>2026-03-29T07:33:18.999Z</time></trkpt><trkpt lat="44.42971744491431" lon="8.098737432952172"><ele>727.75</ele><time>2026-03-29T07:33:19.999Z</time></trkpt><trkpt lat="44.42957983698216" lon="8.098794167686528"><ele>727.5</ele><time>2026-03-29T07:33:20.999Z</time></trkpt><trkpt lat="44.42944848158075" lon="8.09881699588082"><ele>727.25</ele><time>2026-03-29T07:33:21.999Z</time></trkpt><trkpt lat="44.42932451129108" lon="8.098807399269834"><ele>727.0</ele><time>2026-03-29T07:33:22.999Z</time></trkpt><trkpt lat="44.42919737401238" lon="8.098762750966893"><ele>727.0</ele><time>2026-03-29T07:33:23.999Z</time></trkpt><trkpt lat="44.42908957978125" lon="8.098680346054877"><ele>727.0</ele><time>2026-03-29T07:33:24.999Z</time></trkpt><trkpt lat="44.42897803000276" lon="8.098579609474356"><ele>727.0</ele><time>2026-03-29T07:33:25.999Z</time></trkpt><trkpt lat="44.42885535986673" lon="8.098473167729235"><ele>727.0</ele><time>2026-03-29T07:33:26.999Z</time></trkpt><trkpt lat="44.428737931318075" lon="8.098364654363605"><ele>727.3333333333334</ele><time>2026-03-29T07:33:27.999Z</time></trkpt><trkpt lat="44.428618595503316" lon="8.098233298550232"><ele>727.6666666666666</ele><time>2026-03-29T07:33:28.999Z</time></trkpt><trkpt lat="44.42850689877727" lon="8.09808166963918"><ele>728.0</ele><time>2026-03-29T07:33:29.999Z</time></trkpt><trkpt lat="44.42838201998705" lon="8.097931603857885"><ele>728.0</ele><time>2026-03-29T07:33:30.999Z</time></trkpt><trkpt lat="44.42827950755514" lon="8.097804456530588"><ele>728.0</ele><time>2026-03-29T07:33:31.999Z</time></trkpt><trkpt lat="44.42818461310226" lon="8.097686469501417"><ele>728.0</ele><time>2026-03-29T07:33:32.999Z</time></trkpt><trkpt lat="44.42809450259014" lon="8.097576100384584"><ele>728.0</ele><time>2026-03-29T07:33:33.999Z</time></trkpt><trkpt lat="44.42800307125712" lon="8.097470422529419"><ele>728.0</ele><time>2026-03-29T07:33:34.999Z</time></trkpt><trkpt lat="44.42789402423669" lon="8.097366452013503"><ele>728.0</ele><time>2026-03-29T07:33:35.999Z</time></trkpt><trkpt lat="44.42776599967061" lon="8.09728075736714"><ele>728.0</ele><time>2026-03-29T07:33:36.999Z</time></trkpt><trkpt lat="44.4276281288717" lon="8.097226351228551"><ele>728.0</ele><time>2026-03-29T07:33:37.999Z</time></trkpt><trkpt lat="44.42748002887541" lon="8.097160033779362"><ele>728.0</ele><time>2026-03-29T07:33:38.999Z</time></trkpt><trkpt lat="44.427318073929406" lon="8.097133129197555"><ele>728.0</ele><time>2026-03-29T07:33:39.999Z</time></trkpt><trkpt lat="44.427152704516665" lon="8.09711004605282"><ele>728.0</ele><time>2026-03-29T07:33:40.999Z</time></trkpt><trkpt lat="44.42698081054936" lon="8.097073322974923"><ele>729.3333333333333</ele><time>2026-03-29T07:33:41.999Z</time></trkpt><trkpt lat="44.42682268167714" lon="8.097047882360904"><ele>730.6666666666666</ele><time>2026-03-29T07:33:42.999Z</time></trkpt><trkpt lat="44.42667110151142" lon="8.097016279401132"><ele>732.0</ele><time>2026-03-29T07:33:43.999Z</time></trkpt><trkpt lat="44.42653327013186" lon="8.096981326810077"><ele>732.0</ele><time>2026-03-29T07:33:44.999Z</time></trkpt><trkpt lat="44.426407844056115" lon="8.096949545688298"><ele>732.0</ele><time>2026-03-29T07:33:45.999Z</time></trkpt><trkpt lat="44.42628649810005" lon="8.096896843879302"><ele>732.0</ele><time>2026-03-29T07:33:46.999Z</time></trkpt><trkpt lat="44.42616730823319" lon="8.096830053385903"><ele>732.0</ele><time>2026-03-29T07:33:47.999Z</time></trkpt><trkpt lat="44.42606872058659" lon="8.096746600615306"><ele>732.4000000000001</ele><time>2026-03-29T07:33:48.999Z</time></trkpt><trkpt lat="44.42599436719308" lon="8.096683917755094"><ele>732.8000000000001</ele><time>2026-03-29T07:33:49.999Z</time></trkpt><trkpt lat="44.425888267794264" lon="8.096605179513869"><ele>733.2</ele><time>2026-03-29T07:33:50.999Z</time></trkpt><trkpt lat="44.425798872412734" lon="8.09654164264428"><ele>733.6</ele><time>2026-03-29T07:33:51.999Z</time></trkpt><trkpt lat="44.4257154853552" lon="8.096472004471728"><ele>734.0</ele><time>2026-03-29T07:33:52.999Z</time></trkpt><trkpt lat="44.42564060542741" lon="8.096406655795182"><ele>734.1666666666666</ele><time>2026-03-29T07:33:53.999Z</time></trkpt><trkpt lat="44.425573186057136" lon="8.096344184714598"><ele>734.3333333333333</ele><time>2026-03-29T07:33:54.999Z</time></trkpt><trkpt lat="44.425518851881165" lon="8.09628510546948"><ele>734.5</ele><time>2026-03-29T07:33:55.999Z</time></trkpt><trkpt lat="44.42544273209821" lon="8.096169889515277"><ele>734.6666666666666</ele><time>2026-03-29T07:33:57.999Z</time></trkpt><trkpt lat="44.42540756852864" lon="8.096093861563618"><ele>734.8333333333334</ele><time>2026-03-29T07:33:58.999Z</time></trkpt><trkpt lat="44.42531263885179" lon="8.09598537363796"><ele>735.0</ele><time>2026-03-29T07:34:00.999Z</time></trkpt><trkpt lat="44.42523821267356" lon="8.095945994800271"><ele>734.6</ele><time>2026-03-29T07:34:01.999Z</time></trkpt><trkpt lat="44.42514599265054" lon="8.095915660365613"><ele>734.2</ele><time>2026-03-29T07:34:02.999Z</time></trkpt><trkpt lat="44.425051744033446" lon="8.095885441697089"><ele>733.8</ele><time>2026-03-29T07:34:03.999Z</time></trkpt><trkpt lat="44.42495469056359" lon="8.09584659848304"><ele>733.4</ele><time>2026-03-29T07:34:04.999Z</time></trkpt><trkpt lat="44.42486168073391" lon="8.095804760432815"><ele>733.0</ele><time>2026-03-29T07:34:05.999Z</time></trkpt><trkpt lat="44.42476803926003" lon="8.095757533402024"><ele>732.0</ele><time>2026-03-29T07:34:06.999Z</time></trkpt><trkpt lat="44.42466946277174" lon="8.095705686258253"><ele>731.0</ele><time>2026-03-29T07:34:07.999Z</time></trkpt><trkpt lat="44.42457422494787" lon="8.095661270259512"><ele>730.0</ele><time>2026-03-29T07:34:08.999Z</time></trkpt><trkpt lat="44.42448249521839" lon="8.095612893557437"><ele>729.0</ele><time>2026-03-29T07:34:09.999Z</time></trkpt><trkpt lat="44.4243854405155" lon="8.095561474316632"><ele>728.0</ele><time>2026-03-29T07:34:10.999Z</time></trkpt><trkpt lat="44.42428187866862" lon="8.095501256169017"><ele>728.0</ele><time>2026-03-29T07:34:11.999Z</time></trkpt><trkpt lat="44.424182540600206" lon="8.095430280450504"><ele>728.0</ele><time>2026-03-29T07:34:12.999Z</time></trkpt><trkpt lat="44.42408813835654" lon="8.095358860027249"><ele>728.0</ele><time>2026-03-29T07:34:13.999Z</time></trkpt><trkpt lat="44.423998497237925" lon="8.095286813006789"><ele>728.0</ele><time>2026-03-29T07:34:14.999Z</time></trkpt><trkpt lat="44.42391287729821" lon="8.095210120811819"><ele>728.0</ele><time>2026-03-29T07:34:15.999Z</time></trkpt><trkpt lat="44.423815885600916" lon="8.095128659460672"><ele>727.8</ele><time>2026-03-29T07:34:16.998Z</time></trkpt><trkpt lat="44.42371279256901" lon="8.09504498626816"><ele>727.5999999999999</ele><time>2026-03-29T07:34:17.998Z</time></trkpt><trkpt lat="44.42361772860809" lon="8.09498303680636"><ele>727.4000000000001</ele><time>2026-03-29T07:34:18.998Z</time></trkpt><trkpt lat="44.4235383716585" lon="8.09489448959588"><ele>727.2</ele><time>2026-03-29T07:34:19.998Z</time></trkpt><trkpt lat="44.42345043710532" lon="8.094797867794236"><ele>727.0</ele><time>2026-03-29T07:34:20.998Z</time></trkpt><trkpt lat="44.42337287249905" lon="8.094679859794622"><ele>727.0</ele><time>2026-03-29T07:34:21.998Z</time></trkpt><trkpt lat="44.42329009756758" lon="8.094557431017892"><ele>727.0</ele><time>2026-03-29T07:34:22.998Z</time></trkpt><trkpt lat="44.423200937804936" lon="8.094425615676768"><ele>727.0</ele><time>2026-03-29T07:34:23.998Z</time></trkpt><trkpt lat="44.42312072723016" lon="8.094297511546584"><ele>727.0</ele><time>2026-03-29T07:34:24.998Z</time></trkpt><trkpt lat="44.42304386652623" lon="8.094173499511978"><ele>726.8</ele><time>2026-03-29T07:34:25.998Z</time></trkpt><trkpt lat="44.42297899133862" lon="8.09406335424926"><ele>726.6</ele><time>2026-03-29T07:34:26.998Z</time></trkpt><trkpt lat="44.422906746523545" lon="8.093951935236813"><ele>726.4</ele><time>2026-03-29T07:34:27.998Z</time></trkpt><trkpt lat="44.42284333647536" lon="8.09382187919568"><ele>726.1999999999999</ele><time>2026-03-29T07:34:28.998Z</time></trkpt><trkpt lat="44.422753225741474" lon="8.093715422227477"><ele>726.0</ele><time>2026-03-29T07:34:29.998Z</time></trkpt><trkpt lat="44.422652319726936" lon="8.093628494305639"><ele>726.0</ele><time>2026-03-29T07:34:30.998Z</time></trkpt><trkpt lat="44.4225394238214" lon="8.093568117317908"><ele>726.0</ele><time>2026-03-29T07:34:31.998Z</time></trkpt><trkpt lat="44.42241338082537" lon="8.093522255238486"><ele>726.0</ele><time>2026-03-29T07:34:32.998Z</time></trkpt><trkpt lat="44.42228120471773" lon="8.09348809622837"><ele>726.0</ele><time>2026-03-29T07:34:33.998Z</time></trkpt><trkpt lat="44.42214329417397" lon="8.093452975360758"><ele>727.25</ele><time>2026-03-29T07:34:34.998Z</time></trkpt><trkpt lat="44.42201153436934" lon="8.093438698292415"><ele>728.5</ele><time>2026-03-29T07:34:35.998Z</time></trkpt><trkpt lat="44.42189209742543" lon="8.093377901338506"><ele>729.75</ele><time>2026-03-29T07:34:36.998Z</time></trkpt><trkpt lat="44.42178700520086" lon="8.09334478020146"><ele>731.0</ele><time>2026-03-29T07:34:37.998Z</time></trkpt><trkpt lat="44.42168471621216" lon="8.093299688551479"><ele>729.25</ele><time>2026-03-29T07:34:38.998Z</time></trkpt><trkpt lat="44.421589759842824" lon="8.09322696928903"><ele>727.5</ele><time>2026-03-29T07:34:39.998Z</time></trkpt><trkpt lat="44.42150241733297" lon="8.093126554834914"><ele>725.75</ele><time>2026-03-29T07:34:41Z</time></trkpt><trkpt lat="44.42142166243917" lon="8.093010659145111"><ele>724.0</ele><time>2026-03-29T07:34:42Z</time></trkpt><trkpt lat="44.4213533576122" lon="8.092875458073237"><ele>724.6</ele><time>2026-03-29T07:34:43Z</time></trkpt><trkpt lat="44.421304634651264" lon="8.09273755160718"><ele>725.2</ele><time>2026-03-29T07:34:44Z</time></trkpt><trkpt lat="44.42127818074855" lon="8.092571291204225"><ele>725.8000000000001</ele><time>2026-03-29T07:34:45Z</time></trkpt><trkpt lat="44.421252411689714" lon="8.092424976845894"><ele>726.4000000000001</ele><time>2026-03-29T07:34:46Z</time></trkpt><trkpt lat="44.42121327976924" lon="8.09230008532979"><ele>727.0</ele><time>2026-03-29T07:34:47Z</time></trkpt><trkpt lat="44.421191026224356" lon="8.092188112378397"><ele>727.0</ele><time>2026-03-29T07:34:48Z</time></trkpt><trkpt lat="44.42116141990484" lon="8.092075656678782"><ele>727.0</ele><time>2026-03-29T07:34:49Z</time></trkpt><trkpt lat="44.421122287495564" lon="8.091991925938245"><ele>727.0</ele><time>2026-03-29T07:34:50Z</time></trkpt><trkpt lat="44.421067820566314" lon="8.091904025029576"><ele>727.0</ele><time>2026-03-29T07:34:51Z</time></trkpt><trkpt lat="44.421002487934224" lon="8.091818648926095"><ele>727.0</ele><time>2026-03-29T07:34:52Z</time></trkpt><trkpt lat="44.4209136353008" lon="8.091768075931872"><ele>727.0</ele><time>2026-03-29T07:34:53Z</time></trkpt><trkpt lat="44.42080620363226" lon="8.091754953771062"><ele>727.0</ele><time>2026-03-29T07:34:54Z</time></trkpt><trkpt lat="44.42069600187451" lon="8.091802543546352"><ele>727.0</ele><time>2026-03-29T07:34:55Z</time></trkpt><trkpt lat="44.42059328673186" lon="8.091839966583937"><ele>727.0</ele><time>2026-03-29T07:34:56Z</time></trkpt><trkpt lat="44.42048483301968" lon="8.091887354357883"><ele>727.0</ele><time>2026-03-29T07:34:57Z</time></trkpt><trkpt lat="44.42037370009791" lon="8.091934844838839"><ele>725.0</ele><time>2026-03-29T07:34:58Z</time></trkpt><trkpt lat="44.420255615329914" lon="8.091988096265181"><ele>723.0</ele><time>2026-03-29T07:34:59Z</time></trkpt><trkpt lat="44.42013068105582" lon="8.092031711382566"><ele>721.0</ele><time>2026-03-29T07:35:00Z</time></trkpt><trkpt lat="44.420007055790315" lon="8.092083275207624"><ele>719.0</ele><time>2026-03-29T07:35:01Z</time></trkpt><trkpt lat="44.41989771368281" lon="8.092133041295604"><ele>719.0</ele><time>2026-03-29T07:35:02Z</time></trkpt><trkpt lat="44.419791650329685" lon="8.092175270038027"><ele>719.0</ele><time>2026-03-29T07:35:03Z</time></trkpt><trkpt lat="44.41968346078975" lon="8.092206738896888"><ele>719.0</ele><time>2026-03-29T07:35:04Z</time></trkpt><trkpt lat="44.419576837831556" lon="8.092229928981629"><ele>719.0</ele><time>2026-03-29T07:35:05Z</time></trkpt><trkpt lat="44.41946518603767" lon="8.092239535762937"><ele>719.0</ele><time>2026-03-29T07:35:06Z</time></trkpt><trkpt lat="44.41934260109341" lon="8.092219583594801"><ele>719.0</ele><time>2026-03-29T07:35:07Z</time></trkpt><trkpt lat="44.41921954973022" lon="8.092164544078388"><ele>719.0</ele><time>2026-03-29T07:35:08Z</time></trkpt><trkpt lat="44.41908997791841" lon="8.092087403295727"><ele>719.0</ele><time>2026-03-29T07:35:09Z</time></trkpt><trkpt lat="44.41897817551132" lon="8.092020977542198"><ele>719.0</ele><time>2026-03-29T07:35:10Z</time></trkpt><trkpt lat="44.418872852418644" lon="8.091952088296853"><ele>720.0</ele><time>2026-03-29T07:35:11Z</time></trkpt><trkpt lat="44.418773185777965" lon="8.09187849513759"><ele>721.0</ele><time>2026-03-29T07:35:12Z</time></trkpt><trkpt lat="44.418678540122066" lon="8.091783205440326"><ele>722.0</ele><time>2026-03-29T07:35:13Z</time></trkpt><trkpt lat="44.41859291011373" lon="8.0916705231268"><ele>723.0</ele><time>2026-03-29T07:35:14Z</time></trkpt><trkpt lat="44.41851420081353" lon="8.091546551940025"><ele>723.0</ele><time>2026-03-29T07:35:15Z</time></trkpt><trkpt lat="44.418433054049125" lon="8.091416235465896"><ele>723.0</ele><time>2026-03-29T07:35:16Z</time></trkpt><trkpt lat="44.41835282247518" lon="8.09128351915937"><ele>723.0</ele><time>2026-03-29T07:35:17Z</time></trkpt><trkpt lat="44.41828927761272" lon="8.091159612605743"><ele>723.0</ele><time>2026-03-29T07:35:18Z</time></trkpt><trkpt lat="44.418229880247296" lon="8.09103625041651"><ele>723.0</ele><time>2026-03-29T07:35:19Z</time></trkpt><trkpt lat="44.41818404677519" lon="8.090904635804447"><ele>723.0</ele><time>2026-03-29T07:35:20Z</time></trkpt><trkpt lat="44.41815838081112" lon="8.090751788835394"><ele>723.0</ele><time>2026-03-29T07:35:21Z</time></trkpt><trkpt lat="44.41814552636506" lon="8.090569012900021"><ele>723.0</ele><time>2026-03-29T07:35:22Z</time></trkpt><trkpt lat="44.41814849682342" lon="8.090392810307701"><ele>722.2</ele><time>2026-03-29T07:35:23Z</time></trkpt><trkpt lat="44.41814951090235" lon="8.09022314200457"><ele>721.4</ele><time>2026-03-29T07:35:23.999Z</time></trkpt><trkpt lat="44.418146336489016" lon="8.09006540710953"><ele>720.6</ele><time>2026-03-29T07:35:24.999Z</time></trkpt><trkpt lat="44.418133926253894" lon="8.089924234062432"><ele>719.8000000000001</ele><time>2026-03-29T07:35:25.999Z</time></trkpt><trkpt lat="44.41812137785651" lon="8.08979270847983"><ele>719.0</ele><time>2026-03-29T07:35:26.999Z</time></trkpt><trkpt lat="44.4180930390543" lon="8.089671986006826"><ele>717.4000000000001</ele><time>2026-03-29T07:35:27.999Z</time></trkpt><trkpt lat="44.41805259175069" lon="8.0895682781414"><ele>715.8</ele><time>2026-03-29T07:35:28.999Z</time></trkpt><trkpt lat="44.417989234749875" lon="8.089455321157423"><ele>714.2</ele><time>2026-03-29T07:35:29.999Z</time></trkpt><trkpt lat="44.417908912907166" lon="8.089357464858097"><ele>712.5999999999999</ele><time>2026-03-29T07:35:30.999Z</time></trkpt><trkpt lat="44.417809326354565" lon="8.089265916282637"><ele>711.0</ele><time>2026-03-29T07:35:31.999Z</time></trkpt><trkpt lat="44.41771318488733" lon="8.089163365158667"><ele>711.75</ele><time>2026-03-29T07:35:32.999Z</time></trkpt><trkpt lat="44.41762633354708" lon="8.089060587724145"><ele>712.5</ele><time>2026-03-29T07:35:33.999Z</time></trkpt><trkpt lat="44.417542640692595" lon="8.08894778206266"><ele>713.25</ele><time>2026-03-29T07:35:34.999Z</time></trkpt><trkpt lat="44.417463340935704" lon="8.08883037406115"><ele>714.0</ele><time>2026-03-29T07:35:35.999Z</time></trkpt><trkpt lat="44.417394114073225" lon="8.088720172624678"><ele>714.0</ele><time>2026-03-29T07:35:36.999Z</time></trkpt><trkpt lat="44.417323347832465" lon="8.088613462109771"><ele>714.0</ele><time>2026-03-29T07:35:37.999Z</time></trkpt><trkpt lat="44.41724824807352" lon="8.088521410467726"><ele>714.0</ele><time>2026-03-29T07:35:38.999Z</time></trkpt><trkpt lat="44.417196710473604" lon="8.088416234735334"><ele>714.0</ele><time>2026-03-29T07:35:39.999Z</time></trkpt><trkpt lat="44.41712459871132" lon="8.088366549830035"><ele>714.0</ele><time>2026-03-29T07:35:40.999Z</time></trkpt><trkpt lat="44.41704441554762" lon="8.088332071255948"><ele>714.4000000000001</ele><time>2026-03-29T07:35:41.999Z</time></trkpt><trkpt lat="44.4169578365082" lon="8.088322364914966"><ele>714.8</ele><time>2026-03-29T07:35:42.999Z</time></trkpt><trkpt lat="44.41686507470553" lon="8.088334987551253"><ele>715.2</ele><time>2026-03-29T07:35:43.999Z</time></trkpt><trkpt lat="44.41677416062654" lon="8.088390177686579"><ele>715.5999999999999</ele><time>2026-03-29T07:35:44.999Z</time></trkpt><trkpt lat="44.41668436532549" lon="8.088466238034217"><ele>716.0</ele><time>2026-03-29T07:35:45.999Z</time></trkpt><trkpt lat="44.41658956073869" lon="8.088558664584008"><ele>716.0</ele><time>2026-03-29T07:35:46.999Z</time></trkpt><trkpt lat="44.416491363921686" lon="8.0886624328267"><ele>716.0</ele><time>2026-03-29T07:35:47.999Z</time></trkpt><trkpt lat="44.41638314947869" lon="8.088761069845535"><ele>716.0</ele><time>2026-03-29T07:35:48.999Z</time></trkpt><trkpt lat="44.41627600228824" lon="8.088844878232402"><ele>716.0</ele><time>2026-03-29T07:35:49.999Z</time></trkpt><trkpt lat="44.41617877731862" lon="8.088936214263603"><ele>716.0</ele><time>2026-03-29T07:35:50.999Z</time></trkpt><trkpt lat="44.41607863017814" lon="8.089037058446607"><ele>716.0</ele><time>2026-03-29T07:35:51.999Z</time></trkpt><trkpt lat="44.41598070790155" lon="8.089172736448361"><ele>716.0</ele><time>2026-03-29T07:35:52.999Z</time></trkpt><trkpt lat="44.41588858392269" lon="8.08928559982885"><ele>716.0</ele><time>2026-03-29T07:35:53.999Z</time></trkpt><trkpt lat="44.41579530561116" lon="8.089389112128554"><ele>716.0</ele><time>2026-03-29T07:35:54.999Z</time></trkpt><trkpt lat="44.415686606491995" lon="8.089464696503377"><ele>716.0</ele><time>2026-03-29T07:35:55.999Z</time></trkpt><trkpt lat="44.41555380981311" lon="8.0895273696875"><ele>716.0</ele><time>2026-03-29T07:35:56.999Z</time></trkpt><trkpt lat="44.41541991000848" lon="8.089586880209156"><ele>716.0</ele><time>2026-03-29T07:35:57.999Z</time></trkpt><trkpt lat="44.41529768913651" lon="8.089629635344313"><ele>712.8</ele><time>2026-03-29T07:35:58.999Z</time></trkpt><trkpt lat="44.41517657091847" lon="8.089665157107842"><ele>709.5999999999999</ele><time>2026-03-29T07:35:59.999Z</time></trkpt><trkpt lat="44.415075908460054" lon="8.08969976353946"><ele>706.4</ele><time>2026-03-29T07:36:00.999Z</time></trkpt><trkpt lat="44.41497183136492" lon="8.089726284509462"><ele>703.2</ele><time>2026-03-29T07:36:01.999Z</time></trkpt><trkpt lat="44.41487622715891" lon="8.089746753869912"><ele>700.0</ele><time>2026-03-29T07:36:02.999Z</time></trkpt><trkpt lat="44.414770835349216" lon="8.089778413160452"><ele>700.0</ele><time>2026-03-29T07:36:03.999Z</time></trkpt><trkpt lat="44.41467265152661" lon="8.089850208647674"><ele>700.0</ele><time>2026-03-29T07:36:04.999Z</time></trkpt><trkpt lat="44.414572547228595" lon="8.089963629477541"><ele>700.0</ele><time>2026-03-29T07:36:05.999Z</time></trkpt><trkpt lat="44.41448431687769" lon="8.090097422388746"><ele>700.0</ele><time>2026-03-29T07:36:06.999Z</time></trkpt><trkpt lat="44.41440047172594" lon="8.090222266217417"><ele>701.5</ele><time>2026-03-29T07:36:07.999Z</time></trkpt><trkpt lat="44.4143179728388" lon="8.090324981347948"><ele>703.0</ele><time>2026-03-29T07:36:08.999Z</time></trkpt><trkpt lat="44.41422471174834" lon="8.090423749245966"><ele>704.5</ele><time>2026-03-29T07:36:09.999Z</time></trkpt><trkpt lat="44.41410605791147" lon="8.09050511150053"><ele>706.0</ele><time>2026-03-29T07:36:10.999Z</time></trkpt><trkpt lat="44.413970233118604" lon="8.090578796245762"><ele>706.0</ele><time>2026-03-29T07:36:11.999Z</time></trkpt><trkpt lat="44.41384467685112" lon="8.090642155302561"><ele>706.0</ele><time>2026-03-29T07:36:12.999Z</time></trkpt><trkpt lat="44.413730835535354" lon="8.09070834603134"><ele>706.0</ele><time>2026-03-29T07:36:13.999Z</time></trkpt><trkpt lat="44.413627889913755" lon="8.090754856209484"><ele>706.0</ele><time>2026-03-29T07:36:14.999Z</time></trkpt><trkpt lat="44.41353004755688" lon="8.090819966448779"><ele>707.25</ele><time>2026-03-29T07:36:15.999Z</time></trkpt><trkpt lat="44.413433538782215" lon="8.090935152830324"><ele>708.5</ele><time>2026-03-29T07:36:16.999Z</time></trkpt><trkpt lat="44.41333522043564" lon="8.091042998264665"><ele>709.75</ele><time>2026-03-29T07:36:17.999Z</time></trkpt><trkpt lat="44.413247159155596" lon="8.091157886381618"><ele>711.0</ele><time>2026-03-29T07:36:18.999Z</time></trkpt><trkpt lat="44.4131675988391" lon="8.091274232718646"><ele>711.0</ele><time>2026-03-29T07:36:19.999Z</time></trkpt><trkpt lat="44.41307772744182" lon="8.091384612748598"><ele>711.0</ele><time>2026-03-29T07:36:20.999Z</time></trkpt><trkpt lat="44.41297549577472" lon="8.09149249039132"><ele>711.0</ele><time>2026-03-29T07:36:21.999Z</time></trkpt><trkpt lat="44.41284994994127" lon="8.091557387863894"><ele>711.0</ele><time>2026-03-29T07:36:22.999Z</time></trkpt><trkpt lat="44.41271278330759" lon="8.091613530592062"><ele>710.75</ele><time>2026-03-29T07:36:23.999Z</time></trkpt><trkpt lat="44.41256610340677" lon="8.091665523770281"><ele>710.5</ele><time>2026-03-29T07:36:24.998Z</time></trkpt><trkpt lat="44.41243586260676" lon="8.09171147263081"><ele>710.25</ele><time>2026-03-29T07:36:25.998Z</time></trkpt><trkpt lat="44.41230797319681" lon="8.0917683324557"><ele>710.0</ele><time>2026-03-29T07:36:26.998Z</time></trkpt><trkpt lat="44.412195031362295" lon="8.091805509768616"><ele>706.4</ele><time>2026-03-29T07:36:27.998Z</time></trkpt><trkpt lat="44.412083471205676" lon="8.091867156731116"><ele>702.8</ele><time>2026-03-29T07:36:28.998Z</time></trkpt><trkpt lat="44.411986251232996" lon="8.091931881544415"><ele>699.2</ele><time>2026-03-29T07:36:29.998Z</time></trkpt><trkpt lat="44.4119028354463" lon="8.091996856470697"><ele>695.6</ele><time>2026-03-29T07:36:30.998Z</time></trkpt><trkpt lat="44.41182747291943" lon="8.092066878026912"><ele>692.0</ele><time>2026-03-29T07:36:31.998Z</time></trkpt><trkpt lat="44.41174670773328" lon="8.092168939618729"><ele>692.0</ele><time>2026-03-29T07:36:32.998Z</time></trkpt><trkpt lat="44.41167899902727" lon="8.092288759323997"><ele>692.0</ele><time>2026-03-29T07:36:33.998Z</time></trkpt><trkpt lat="44.41160475547514" lon="8.092441427022468"><ele>692.0</ele><time>2026-03-29T07:36:34.998Z</time></trkpt><trkpt lat="44.411551343714144" lon="8.09263861447998"><ele>692.0</ele><time>2026-03-29T07:36:35.998Z</time></trkpt><trkpt lat="44.411516013302496" lon="8.092843567792881"><ele>692.0</ele><time>2026-03-29T07:36:36.998Z</time></trkpt><trkpt lat="44.41147840878798" lon="8.093033113490572"><ele>692.0</ele><time>2026-03-29T07:36:37.998Z</time></trkpt><trkpt lat="44.41142049393443" lon="8.093221626136971"><ele>692.0</ele><time>2026-03-29T07:36:38.998Z</time></trkpt><trkpt lat="44.41132169983488" lon="8.093400248428656"><ele>692.0</ele><time>2026-03-29T07:36:39.998Z</time></trkpt><trkpt lat="44.411229788353715" lon="8.093586222327582"><ele>692.0</ele><time>2026-03-29T07:36:40.998Z</time></trkpt><trkpt lat="44.41112866864876" lon="8.093785181238525"><ele>692.0</ele><time>2026-03-29T07:36:41.998Z</time></trkpt><trkpt lat="44.41101554207781" lon="8.09400725916721"><ele>692.0</ele><time>2026-03-29T07:36:42.998Z</time></trkpt><trkpt lat="44.41090790389622" lon="8.094218562986054"><ele>694.6666666666666</ele><time>2026-03-29T07:36:43.998Z</time></trkpt><trkpt lat="44.41079725801594" lon="8.094434373349907"><ele>697.3333333333334</ele><time>2026-03-29T07:36:44.998Z</time></trkpt><trkpt lat="44.41070510785539" lon="8.094652446699856"><ele>700.0</ele><time>2026-03-29T07:36:45.998Z</time></trkpt><trkpt lat="44.41058124474565" lon="8.094853625769423"><ele>700.6666666666667</ele><time>2026-03-29T07:36:47Z</time></trkpt><trkpt lat="44.41048176328371" lon="8.095048874120165"><ele>701.3333333333334</ele><time>2026-03-29T07:36:48Z</time></trkpt><trkpt lat="44.410392526885005" lon="8.095224626442826"><ele>702.0</ele><time>2026-03-29T07:36:49Z</time></trkpt><trkpt lat="44.41030631061569" lon="8.095396574312769"><ele>702.0</ele><time>2026-03-29T07:36:50Z</time></trkpt><trkpt lat="44.41021967203655" lon="8.09558646356124"><ele>702.0</ele><time>2026-03-29T07:36:51Z</time></trkpt><trkpt lat="44.41015575489545" lon="8.095807058339307"><ele>702.0</ele><time>2026-03-29T07:36:52Z</time></trkpt><trkpt lat="44.41007450801617" lon="8.096025859792556"><ele>704.75</ele><time>2026-03-29T07:36:53Z</time></trkpt><trkpt lat="44.41002604854164" lon="8.09620303362144"><ele>707.5</ele><time>2026-03-29T07:36:54Z</time></trkpt><trkpt lat="44.409996737685" lon="8.09637889943845"><ele>710.25</ele><time>2026-03-29T07:36:55Z</time></trkpt><trkpt lat="44.409959181574806" lon="8.096548582468252"><ele>713.0</ele><time>2026-03-29T07:36:56Z</time></trkpt><trkpt lat="44.40993176628661" lon="8.096734902201096"><ele>715.0</ele><time>2026-03-29T07:36:57Z</time></trkpt><trkpt lat="44.40992656282644" lon="8.096943064142625"><ele>717.0</ele><time>2026-03-29T07:36:58Z</time></trkpt><trkpt lat="44.409949320653226" lon="8.097146510959773"><ele>719.0</ele><time>2026-03-29T07:36:59Z</time></trkpt><trkpt lat="44.40998930361125" lon="8.097335702942257"><ele>721.0</ele><time>2026-03-29T07:37:00Z</time></trkpt><trkpt lat="44.41004046740912" lon="8.097520100193162"><ele>722.0</ele><time>2026-03-29T07:37:01Z</time></trkpt><trkpt lat="44.41009844282477" lon="8.097705380595619"><ele>723.0</ele><time>2026-03-29T07:37:02Z</time></trkpt><trkpt lat="44.41015698916128" lon="8.097888402540903"><ele>724.0</ele><time>2026-03-29T07:37:03Z</time></trkpt><trkpt lat="44.410225364819695" lon="8.098066897929558"><ele>725.0</ele><time>2026-03-29T07:37:04Z</time></trkpt><trkpt lat="44.410294757828034" lon="8.098246833146385"><ele>724.75</ele><time>2026-03-29T07:37:05Z</time></trkpt><trkpt lat="44.41036402117493" lon="8.09842707102429"><ele>724.5</ele><time>2026-03-29T07:37:06Z</time></trkpt><trkpt lat="44.41043116163954" lon="8.098587067206273"><ele>724.25</ele><time>2026-03-29T07:37:07Z</time></trkpt><trkpt lat="44.41049246687915" lon="8.098739392711575"><ele>724.0</ele><time>2026-03-29T07:37:08Z</time></trkpt><trkpt lat="44.41054241017979" lon="8.09885972616923"><ele>724.6</ele><time>2026-03-29T07:37:09Z</time></trkpt><trkpt lat="44.41058306594469" lon="8.098980164046038"><ele>725.2</ele><time>2026-03-29T07:37:10Z</time></trkpt><trkpt lat="44.41061400181639" lon="8.099112441521793"><ele>725.8000000000001</ele><time>2026-03-29T07:37:11Z</time></trkpt><trkpt lat="44.410628217282934" lon="8.099256754673428"><ele>726.4000000000001</ele><time>2026-03-29T07:37:12Z</time></trkpt><trkpt lat="44.41062190598044" lon="8.099415872431718"><ele>727.0</ele><time>2026-03-29T07:37:13Z</time></trkpt><trkpt lat="44.41057069606726" lon="8.099565965287454"><ele>727.0</ele><time>2026-03-29T07:37:14Z</time></trkpt><trkpt lat="44.41052680130818" lon="8.099722805053394"><ele>727.0</ele><time>2026-03-29T07:37:15Z</time></trkpt><trkpt lat="44.4104810496846" lon="8.099900020711578"><ele>727.0</ele><time>2026-03-29T07:37:16Z</time></trkpt><trkpt lat="44.41041574173332" lon="8.10007123081873"><ele>727.0</ele><time>2026-03-29T07:37:17Z</time></trkpt><trkpt lat="44.41035761254187" lon="8.100258385774762"><ele>725.75</ele><time>2026-03-29T07:37:18Z</time></trkpt><trkpt lat="44.41029959553005" lon="8.100444311967802"><ele>724.5</ele><time>2026-03-29T07:37:19Z</time></trkpt><trkpt lat="44.41024230119777" lon="8.100602800581358"><ele>723.25</ele><time>2026-03-29T07:37:20Z</time></trkpt><trkpt lat="44.41018101743435" lon="8.100757806043053"><ele>722.0</ele><time>2026-03-29T07:37:21Z</time></trkpt><trkpt lat="44.41011342493316" lon="8.10091091835395"><ele>722.0</ele><time>2026-03-29T07:37:22Z</time></trkpt><trkpt lat="44.41002266117818" lon="8.101036583761704"><ele>722.0</ele><time>2026-03-29T07:37:23Z</time></trkpt><trkpt lat="44.40994333786621" lon="8.101190348764044"><ele>722.0</ele><time>2026-03-29T07:37:24Z</time></trkpt><trkpt lat="44.40987163502519" lon="8.101353682638896"><ele>722.0</ele><time>2026-03-29T07:37:25Z</time></trkpt><trkpt lat="44.409815976828476" lon="8.101523877720636"><ele>722.25</ele><time>2026-03-29T07:37:26Z</time></trkpt><trkpt lat="44.40977074980035" lon="8.101692618904849"><ele>722.5</ele><time>2026-03-29T07:37:27Z</time></trkpt><trkpt lat="44.409738661554556" lon="8.101860280255675"><ele>722.75</ele><time>2026-03-29T07:37:28Z</time></trkpt><trkpt lat="44.409711092007434" lon="8.102010415943493"><ele>723.0</ele><time>2026-03-29T07:37:29Z</time></trkpt><trkpt lat="44.409687739314855" lon="8.10215094790205"><ele>723.0</ele><time>2026-03-29T07:37:30Z</time></trkpt><trkpt lat="44.40966472173073" lon="8.102292352408973"><ele>723.0</ele><time>2026-03-29T07:37:31Z</time></trkpt><trkpt lat="44.409644971185884" lon="8.102426716739968"><ele>723.0</ele><time>2026-03-29T07:37:32Z</time></trkpt><trkpt lat="44.409621804634206" lon="8.102570549344263"><ele>723.0</ele><time>2026-03-29T07:37:32.999Z</time></trkpt><trkpt lat="44.40960221358567" lon="8.10271796633869"><ele>723.0</ele><time>2026-03-29T07:37:33.999Z</time></trkpt><trkpt lat="44.409588043921495" lon="8.102846703094006"><ele>720.5999999999999</ele><time>2026-03-29T07:37:34.999Z</time></trkpt><trkpt lat="44.40957782456158" lon="8.102978157113675"><ele>718.1999999999999</ele><time>2026-03-29T07:37:35.999Z</time></trkpt><trkpt lat="44.40956403963372" lon="8.1031126687738"><ele>715.8</ele><time>2026-03-29T07:37:36.999Z</time></trkpt><trkpt lat="44.40954238701267" lon="8.103251958566435"><ele>713.4</ele><time>2026-03-29T07:37:37.999Z</time></trkpt><trkpt lat="44.4095143672978" lon="8.103406738522782"><ele>711.0</ele><time>2026-03-29T07:37:38.999Z</time></trkpt><trkpt lat="44.409491811349305" lon="8.103539734661503"><ele>711.0</ele><time>2026-03-29T07:37:39.999Z</time></trkpt><trkpt lat="44.409442909776" lon="8.103651687232732"><ele>711.0</ele><time>2026-03-29T07:37:40.999Z</time></trkpt><trkpt lat="44.40942392339879" lon="8.103785565199798"><ele>711.0</ele><time>2026-03-29T07:37:41.999Z</time></trkpt><trkpt lat="44.40941509962457" lon="8.103923192594374"><ele>711.0</ele><time>2026-03-29T07:37:42.999Z</time></trkpt><trkpt lat="44.4094125458443" lon="8.10407036642619"><ele>711.0</ele><time>2026-03-29T07:37:43.999Z</time></trkpt><trkpt lat="44.409408612564235" lon="8.104200711306275"><ele>711.8333333333334</ele><time>2026-03-29T07:37:44.999Z</time></trkpt><trkpt lat="44.40940104485985" lon="8.104326178712052"><ele>712.6666666666666</ele><time>2026-03-29T07:37:45.999Z</time></trkpt><trkpt lat="44.40939075176214" lon="8.104448597927684"><ele>713.5</ele><time>2026-03-29T07:37:46.999Z</time></trkpt><trkpt lat="44.40936743810632" lon="8.104569988898533"><ele>714.3333333333333</ele><time>2026-03-29T07:37:47.999Z</time></trkpt><trkpt lat="44.40934202262555" lon="8.104689599691202"><ele>715.1666666666666</ele><time>2026-03-29T07:37:48.999Z</time></trkpt><trkpt lat="44.409311769264136" lon="8.104807013732298"><ele>716.0</ele><time>2026-03-29T07:37:49.999Z</time></trkpt><trkpt lat="44.40927070660434" lon="8.10492386653036"><ele>716.8</ele><time>2026-03-29T07:37:50.999Z</time></trkpt><trkpt lat="44.40921791771802" lon="8.105018272848607"><ele>717.5999999999999</ele><time>2026-03-29T07:37:51.999Z</time></trkpt><trkpt lat="44.40914901759948" lon="8.105108839034484"><ele>718.4</ele><time>2026-03-29T07:37:52.999Z</time></trkpt><trkpt lat="44.40908966196154" lon="8.105223146059153"><ele>719.2</ele><time>2026-03-29T07:37:53.999Z</time></trkpt><trkpt lat="44.40903907100273" lon="8.105348466467666"><ele>720.0</ele><time>2026-03-29T07:37:54.999Z</time></trkpt><trkpt lat="44.40899857457834" lon="8.105466132748893"><ele>720.0</ele><time>2026-03-29T07:37:55.999Z</time></trkpt><trkpt lat="44.4089587346378" lon="8.10555951827173"><ele>720.0</ele><time>2026-03-29T07:37:56.999Z</time></trkpt><trkpt lat="44.408920474673" lon="8.105660889417381"><ele>720.0</ele><time>2026-03-29T07:37:57.999Z</time></trkpt><trkpt lat="44.40886316905415" lon="8.105745693209183"><ele>720.0</ele><time>2026-03-29T07:37:58.999Z</time></trkpt><trkpt lat="44.40879556076752" lon="8.105828849711733"><ele>720.0</ele><time>2026-03-29T07:37:59.999Z</time></trkpt><trkpt lat="44.4087103170888" lon="8.105895442319676"><ele>720.0</ele><time>2026-03-29T07:38:00.999Z</time></trkpt><trkpt lat="44.40862121291423" lon="8.105942813240198"><ele>718.6</ele><time>2026-03-29T07:38:01.999Z</time></trkpt><trkpt lat="44.40852774655418" lon="8.105993256140783"><ele>717.2</ele><time>2026-03-29T07:38:02.999Z</time></trkpt><trkpt lat="44.40843525108717" lon="8.106039189472275"><ele>715.8</ele><time>2026-03-29T07:38:03.999Z</time></trkpt><trkpt lat="44.40833858575827" lon="8.106089475154691"><ele>714.4</ele><time>2026-03-29T07:38:04.999Z</time></trkpt><trkpt lat="44.408249176318925" lon="8.106174124472977"><ele>713.0</ele><time>2026-03-29T07:38:05.999Z</time></trkpt><trkpt lat="44.40816437076098" lon="8.106274576638114"><ele>713.0</ele><time>2026-03-29T07:38:06.999Z</time></trkpt><trkpt lat="44.40807906467909" lon="8.106391700451116"><ele>713.0</ele><time>2026-03-29T07:38:07.999Z</time></trkpt><trkpt lat="44.408002022682304" lon="8.10651261229457"><ele>713.0</ele><time>2026-03-29T07:38:08.999Z</time></trkpt><trkpt lat="44.40792163866466" lon="8.106622566518904"><ele>713.0</ele><time>2026-03-29T07:38:09.999Z</time></trkpt><trkpt lat="44.407832372431095" lon="8.106725464527177"><ele>712.25</ele><time>2026-03-29T07:38:10.999Z</time></trkpt><trkpt lat="44.407736632066424" lon="8.10680984295909"><ele>711.5</ele><time>2026-03-29T07:38:11.999Z</time></trkpt><trkpt lat="44.40762174016482" lon="8.106868335553422"><ele>710.75</ele><time>2026-03-29T07:38:12.999Z</time></trkpt><trkpt lat="44.407508070663596" lon="8.106929791389648"><ele>710.0</ele><time>2026-03-29T07:38:13.999Z</time></trkpt><trkpt lat="44.4074088074785" lon="8.10699696765397"><ele>710.0</ele><time>2026-03-29T07:38:14.999Z</time></trkpt><trkpt lat="44.407304846719335" lon="8.107068336912342"><ele>710.0</ele><time>2026-03-29T07:38:15.999Z</time></trkpt><trkpt lat="44.40720339292789" lon="8.107142054391389"><ele>710.0</ele><time>2026-03-29T07:38:16.999Z</time></trkpt><trkpt lat="44.40709409049632" lon="8.107228532169833"><ele>710.0</ele><time>2026-03-29T07:38:17.999Z</time></trkpt><trkpt lat="44.40699368362248" lon="8.107329062227786"><ele>710.25</ele><time>2026-03-29T07:38:18.999Z</time></trkpt><trkpt lat="44.40689724453868" lon="8.107437563345034"><ele>710.5</ele><time>2026-03-29T07:38:19.999Z</time></trkpt><trkpt lat="44.40681036468191" lon="8.107564542430936"><ele>710.75</ele><time>2026-03-29T07:38:20.999Z</time></trkpt><trkpt lat="44.40673170482782" lon="8.107689903291913"><ele>711.0</ele><time>2026-03-29T07:38:21.999Z</time></trkpt><trkpt lat="44.406655958514705" lon="8.107813471600334"><ele>711.0</ele><time>2026-03-29T07:38:22.999Z</time></trkpt><trkpt lat="44.406578580336934" lon="8.10794353259863"><ele>711.0</ele><time>2026-03-29T07:38:23.999Z</time></trkpt><trkpt lat="44.40649675854306" lon="8.108079662793225"><ele>711.0</ele><time>2026-03-29T07:38:24.999Z</time></trkpt><trkpt lat="44.4064056958226" lon="8.108225802445943"><ele>711.0</ele><time>2026-03-29T07:38:25.999Z</time></trkpt><trkpt lat="44.40631020327689" lon="8.108377412944877"><ele>707.6666666666666</ele><time>2026-03-29T07:38:26.999Z</time></trkpt><trkpt lat="44.406211508423446" lon="8.108536180362995"><ele>704.3333333333333</ele><time>2026-03-29T07:38:27.999Z</time></trkpt><trkpt lat="44.40610288198205" lon="8.108699268385001"><ele>701.0</ele><time>2026-03-29T07:38:28.999Z</time></trkpt><trkpt lat="44.40599181314746" lon="8.108857132568403"><ele>701.0</ele><time>2026-03-29T07:38:29.999Z</time></trkpt><trkpt lat="44.40588648739012" lon="8.109022293958196"><ele>701.0</ele><time>2026-03-29T07:38:30.999Z</time></trkpt><trkpt lat="44.40577499412848" lon="8.109161497603928"><ele>701.0</ele><time>2026-03-29T07:38:31.999Z</time></trkpt><trkpt lat="44.4056695732382" lon="8.109286362440379"><ele>701.0</ele><time>2026-03-29T07:38:32.998Z</time></trkpt><trkpt lat="44.40556956508508" lon="8.109407543579643"><ele>699.25</ele><time>2026-03-29T07:38:33.998Z</time></trkpt><trkpt lat="44.40546782586323" lon="8.109526017431861"><ele>697.5</ele><time>2026-03-29T07:38:34.998Z</time></trkpt><trkpt lat="44.40536729669121" lon="8.109655695860571"><ele>695.75</ele><time>2026-03-29T07:38:35.998Z</time></trkpt><trkpt lat="44.405277226925094" lon="8.1097676732134"><ele>694.0</ele><time>2026-03-29T07:38:36.998Z</time></trkpt><trkpt lat="44.40518452332127" lon="8.109885441702545"><ele>697.5</ele><time>2026-03-29T07:38:37.998Z</time></trkpt><trkpt lat="44.405100537597725" lon="8.110032827087533"><ele>701.0</ele><time>2026-03-29T07:38:38.998Z</time></trkpt><trkpt lat="44.405020162803865" lon="8.110213880701618"><ele>704.5</ele><time>2026-03-29T07:38:39.998Z</time></trkpt><trkpt lat="44.40494997381272" lon="8.110391667378389"><ele>708.0</ele><time>2026-03-29T07:38:40.998Z</time></trkpt><trkpt lat="44.40488011849516" lon="8.110585789327695"><ele>709.25</ele><time>2026-03-29T07:38:41.998Z</time></trkpt><trkpt lat="44.404815739841126" lon="8.11076189665969"><ele>710.5</ele><time>2026-03-29T07:38:42.998Z</time></trkpt><trkpt lat="44.404739809243075" lon="8.11093246435826"><ele>711.75</ele><time>2026-03-29T07:38:43.998Z</time></trkpt><trkpt lat="44.404649279843944" lon="8.111106755904066"><ele>713.0</ele><time>2026-03-29T07:38:44.998Z</time></trkpt><trkpt lat="44.40455920562418" lon="8.111276708143672"><ele>710.5</ele><time>2026-03-29T07:38:45.998Z</time></trkpt><trkpt lat="44.404469023494975" lon="8.11141470279496"><ele>708.0</ele><time>2026-03-29T07:38:46.998Z</time></trkpt><trkpt lat="44.404379375856934" lon="8.111559645905507"><ele>705.5</ele><time>2026-03-29T07:38:47.998Z</time></trkpt><trkpt lat="44.40430063315213" lon="8.111709740263244"><ele>703.0</ele><time>2026-03-29T07:38:48.998Z</time></trkpt><trkpt lat="44.40421570820584" lon="8.11184203896554"><ele>703.0</ele><time>2026-03-29T07:38:49.998Z</time></trkpt><trkpt lat="44.4041353396944" lon="8.111980144783038"><ele>703.0</ele><time>2026-03-29T07:38:50.998Z</time></trkpt><trkpt lat="44.404046004473734" lon="8.11210489673852"><ele>703.0</ele><time>2026-03-29T07:38:51.998Z</time></trkpt><trkpt lat="44.40396008478163" lon="8.112231682740608"><ele>703.0</ele><time>2026-03-29T07:38:53Z</time></trkpt><trkpt lat="44.403873618219876" lon="8.112343637402528"><ele>701.4</ele><time>2026-03-29T07:38:54Z</time></trkpt><trkpt lat="44.40380686178176" lon="8.112441108287221"><ele>699.8</ele><time>2026-03-29T07:38:55Z</time></trkpt><trkpt lat="44.403732852586174" lon="8.112548470214504"><ele>698.2</ele><time>2026-03-29T07:38:56Z</time></trkpt><trkpt lat="44.403664489836316" lon="8.11267058827176"><ele>696.6</ele><time>2026-03-29T07:38:57Z</time></trkpt><trkpt lat="44.40361106562679" lon="8.112791890937503"><ele>695.0</ele><time>2026-03-29T07:38:58Z</time></trkpt><trkpt lat="44.40355074760785" lon="8.112944678307432"><ele>695.0</ele><time>2026-03-29T07:38:59Z</time></trkpt><trkpt lat="44.4035214482399" lon="8.113137287174435"><ele>695.0</ele><time>2026-03-29T07:39:00Z</time></trkpt><trkpt lat="44.403485807361626" lon="8.11333960289552"><ele>695.0</ele><time>2026-03-29T07:39:01Z</time></trkpt><trkpt lat="44.403445952149724" lon="8.113552242441573"><ele>695.0</ele><time>2026-03-29T07:39:02Z</time></trkpt><trkpt lat="44.40341697884803" lon="8.11378267491427"><ele>696.0</ele><time>2026-03-29T07:39:03Z</time></trkpt><trkpt lat="44.403390782594165" lon="8.113991394526636"><ele>697.0</ele><time>2026-03-29T07:39:04Z</time></trkpt><trkpt lat="44.40337053974804" lon="8.11419418349076"><ele>698.0</ele><time>2026-03-29T07:39:05Z</time></trkpt><trkpt lat="44.403357109355625" lon="8.11438349535201"><ele>699.0</ele><time>2026-03-29T07:39:06Z</time></trkpt><trkpt lat="44.403341688659204" lon="8.114547712995819"><ele>699.0</ele><time>2026-03-29T07:39:07Z</time></trkpt><trkpt lat="44.40332381148881" lon="8.114711460414506"><ele>699.0</ele><time>2026-03-29T07:39:08Z</time></trkpt><trkpt lat="44.40330326900005" lon="8.114860600798329"><ele>699.0</ele><time>2026-03-29T07:39:09Z</time></trkpt><trkpt lat="44.40328520283209" lon="8.11500216667186"><ele>699.0</ele><time>2026-03-29T07:39:10Z</time></trkpt><trkpt lat="44.403248084466775" lon="8.115145499153193"><ele>699.0</ele><time>2026-03-29T07:39:11Z</time></trkpt><trkpt lat="44.40319025715319" lon="8.115290378740506"><ele>699.0</ele><time>2026-03-29T07:39:12Z</time></trkpt><trkpt lat="44.40311077962116" lon="8.115417134010903"><ele>699.0</ele><time>2026-03-29T07:39:13Z</time></trkpt><trkpt lat="44.40301075348836" lon="8.115533506396257"><ele>699.0</ele><time>2026-03-29T07:39:14Z</time></trkpt><trkpt lat="44.40290573366668" lon="8.115650503681719"><ele>699.0</ele><time>2026-03-29T07:39:15Z</time></trkpt><trkpt lat="44.40280582895191" lon="8.115763438180394"><ele>698.5</ele><time>2026-03-29T07:39:16Z</time></trkpt><trkpt lat="44.402717211152165" lon="8.115873484770749"><ele>698.0</ele><time>2026-03-29T07:39:17Z</time></trkpt><trkpt lat="44.402634176840664" lon="8.116012274605898"><ele>697.5</ele><time>2026-03-29T07:39:18Z</time></trkpt><trkpt lat="44.402529461882985" lon="8.116154901163421"><ele>697.0</ele><time>2026-03-29T07:39:19Z</time></trkpt><trkpt lat="44.402446362325016" lon="8.116327600974426"><ele>697.0</ele><time>2026-03-29T07:39:20Z</time></trkpt><trkpt lat="44.40237259091344" lon="8.116462714368199"><ele>697.0</ele><time>2026-03-29T07:39:21Z</time></trkpt><trkpt lat="44.40229092981646" lon="8.116601738444336"><ele>697.0</ele><time>2026-03-29T07:39:22Z</time></trkpt><trkpt lat="44.402200459743064" lon="8.116719794711376"><ele>697.0</ele><time>2026-03-29T07:39:23Z</time></trkpt><trkpt lat="44.402117911548494" lon="8.116825420341366"><ele>696.6</ele><time>2026-03-29T07:39:24Z</time></trkpt><trkpt lat="44.402037148911376" lon="8.11692479702243"><ele>696.2</ele><time>2026-03-29T07:39:25Z</time></trkpt><trkpt lat="44.40196266508435" lon="8.11701578001223"><ele>695.8</ele><time>2026-03-29T07:39:26Z</time></trkpt><trkpt lat="44.401890171070036" lon="8.117102314357131"><ele>695.4</ele><time>2026-03-29T07:39:27Z</time></trkpt><trkpt lat="44.401826118114485" lon="8.117174867324742"><ele>695.0</ele><time>2026-03-29T07:39:28Z</time></trkpt><trkpt lat="44.40176481519297" lon="8.11724263221066"><ele>695.0</ele><time>2026-03-29T07:39:29Z</time></trkpt><trkpt lat="44.40170335624467" lon="8.117288791318375"><ele>695.0</ele><time>2026-03-29T07:39:30Z</time></trkpt><trkpt lat="44.40163189296462" lon="8.117320486418144"><ele>695.0</ele><time>2026-03-29T07:39:31Z</time></trkpt><trkpt lat="44.401557558762335" lon="8.117347989016661"><ele>695.0</ele><time>2026-03-29T07:39:32Z</time></trkpt><trkpt lat="44.40147995968146" lon="8.117394289267207"><ele>695.0</ele><time>2026-03-29T07:39:33Z</time></trkpt><trkpt lat="44.40141822865889" lon="8.117453690811201"><ele>695.0</ele><time>2026-03-29T07:39:34Z</time></trkpt><trkpt lat="44.40135861605121" lon="8.117541701586344"><ele>697.4</ele><time>2026-03-29T07:39:35Z</time></trkpt><trkpt lat="44.401303345921995" lon="8.117638686240406"><ele>699.8</ele><time>2026-03-29T07:39:36Z</time></trkpt><trkpt lat="44.40122449708153" lon="8.117719010798652"><ele>702.2</ele><time>2026-03-29T07:39:37Z</time></trkpt><trkpt lat="44.40114847260315" lon="8.117779543550808"><ele>704.6</ele><time>2026-03-29T07:39:37.999Z</time></trkpt><trkpt lat="44.40107210914043" lon="8.117845638723798"><ele>707.0</ele><time>2026-03-29T07:39:38.999Z</time></trkpt><trkpt lat="44.4009890210487" lon="8.117922563550865"><ele>707.0</ele><time>2026-03-29T07:39:39.999Z</time></trkpt><trkpt lat="44.40090693659097" lon="8.118010195857263"><ele>707.0</ele><time>2026-03-29T07:39:40.999Z</time></trkpt><trkpt lat="44.40081934326391" lon="8.1181188558176"><ele>707.0</ele><time>2026-03-29T07:39:41.999Z</time></trkpt><trkpt lat="44.400745970718305" lon="8.118233253406034"><ele>707.0</ele><time>2026-03-29T07:39:42.999Z</time></trkpt><trkpt lat="44.40067049232391" lon="8.1183673703548"><ele>705.5</ele><time>2026-03-29T07:39:43.999Z</time></trkpt><trkpt lat="44.40058554396197" lon="8.118512749248634"><ele>704.0</ele><time>2026-03-29T07:39:44.999Z</time></trkpt><trkpt lat="44.40050835679281" lon="8.118661089154603"><ele>702.5</ele><time>2026-03-29T07:39:45.999Z</time></trkpt><trkpt lat="44.40043803526311" lon="8.118827243678142"><ele>701.0</ele><time>2026-03-29T07:39:46.999Z</time></trkpt><trkpt lat="44.40037632260104" lon="8.119022410214537"><ele>706.0</ele><time>2026-03-29T07:39:47.999Z</time></trkpt><trkpt lat="44.400319960473226" lon="8.119225497437272"><ele>711.0</ele><time>2026-03-29T07:39:48.999Z</time></trkpt><trkpt lat="44.400263831099146" lon="8.119448613665833"><ele>716.0</ele><time>2026-03-29T07:39:49.999Z</time></trkpt><trkpt lat="44.40021993429983" lon="8.11968452910766"><ele>715.0</ele><time>2026-03-29T07:39:50.999Z</time></trkpt><trkpt lat="44.400173602114606" lon="8.11990231935235"><ele>714.0</ele><time>2026-03-29T07:39:51.999Z</time></trkpt><trkpt lat="44.40013187653916" lon="8.120101313206508"><ele>713.0</ele><time>2026-03-29T07:39:52.999Z</time></trkpt><trkpt lat="44.4000949544013" lon="8.120278492665458"><ele>712.0</ele><time>2026-03-29T07:39:53.999Z</time></trkpt><trkpt lat="44.40006164032428" lon="8.120439911746374"><ele>712.0</ele><time>2026-03-29T07:39:54.999Z</time></trkpt><trkpt lat="44.400008499684176" lon="8.12058979179842"><ele>712.0</ele><time>2026-03-29T07:39:55.999Z</time></trkpt><trkpt lat="44.39995585145507" lon="8.12072645333265"><ele>712.0</ele><time>2026-03-29T07:39:56.999Z</time></trkpt><trkpt lat="44.39988865893607" lon="8.120862004218946"><ele>712.0</ele><time>2026-03-29T07:39:57.999Z</time></trkpt><trkpt lat="44.39980553960059" lon="8.121000635569766"><ele>712.0</ele><time>2026-03-29T07:39:58.999Z</time></trkpt><trkpt lat="44.39970974357692" lon="8.121135847300582"><ele>712.0</ele><time>2026-03-29T07:39:59.999Z</time></trkpt><trkpt lat="44.39960566342259" lon="8.121276522526612"><ele>712.0</ele><time>2026-03-29T07:40:00.999Z</time></trkpt><trkpt lat="44.39949580539461" lon="8.121420910228927"><ele>712.0</ele><time>2026-03-29T07:40:01.999Z</time></trkpt><trkpt lat="44.39938934395088" lon="8.121583084904794"><ele>711.0</ele><time>2026-03-29T07:40:02.999Z</time></trkpt><trkpt lat="44.39928652913687" lon="8.121721382008614"><ele>710.0</ele><time>2026-03-29T07:40:03.999Z</time></trkpt><trkpt lat="44.39918109592254" lon="8.121848911393133"><ele>709.0</ele><time>2026-03-29T07:40:04.999Z</time></trkpt><trkpt lat="44.399072184984" lon="8.121963525681315"><ele>708.0</ele><time>2026-03-29T07:40:05.999Z</time></trkpt><trkpt lat="44.398947353282324" lon="8.122088144630773"><ele>705.3333333333334</ele><time>2026-03-29T07:40:06.999Z</time></trkpt><trkpt lat="44.39881362723243" lon="8.122222092610967"><ele>702.6666666666667</ele><time>2026-03-29T07:40:07.999Z</time></trkpt><trkpt lat="44.39868270803145" lon="8.122314126184726"><ele>700.0</ele><time>2026-03-29T07:40:08.999Z</time></trkpt><trkpt lat="44.39855380913849" lon="8.122431956204492"><ele>700.0</ele><time>2026-03-29T07:40:09.999Z</time></trkpt><trkpt lat="44.39845580870786" lon="8.122520990666235"><ele>700.0</ele><time>2026-03-29T07:40:10.999Z</time></trkpt><trkpt lat="44.39833090994684" lon="8.122634579394546"><ele>700.0</ele><time>2026-03-29T07:40:11.999Z</time></trkpt><trkpt lat="44.39822972509337" lon="8.122747084105294"><ele>700.0</ele><time>2026-03-29T07:40:12.999Z</time></trkpt><trkpt lat="44.39811414631373" lon="8.122822478119792"><ele>700.0</ele><time>2026-03-29T07:40:13.999Z</time></trkpt><trkpt lat="44.39801919431" lon="8.122908908340829"><ele>700.0</ele><time>2026-03-29T07:40:14.999Z</time></trkpt><trkpt lat="44.397957747441716" lon="8.122982924170552"><ele>700.0</ele><time>2026-03-29T07:40:15.999Z</time></trkpt><trkpt lat="44.3978968649753" lon="8.123043297513643"><ele>700.0</ele><time>2026-03-29T07:40:16.999Z</time></trkpt><trkpt lat="44.397840665438814" lon="8.123115393302436"><ele>700.0</ele><time>2026-03-29T07:40:17.999Z</time></trkpt><trkpt lat="44.3977910161495" lon="8.123192721989925"><ele>700.0</ele><time>2026-03-29T07:40:18.999Z</time></trkpt><trkpt lat="44.39774503304118" lon="8.123306044466979"><ele>698.2</ele><time>2026-03-29T07:40:19.999Z</time></trkpt><trkpt lat="44.397725262803924" lon="8.123437589510237"><ele>696.4</ele><time>2026-03-29T07:40:20.999Z</time></trkpt><trkpt lat="44.397703767453486" lon="8.123560855721486"><ele>694.5999999999999</ele><time>2026-03-29T07:40:21.999Z</time></trkpt><trkpt lat="44.397689116940725" lon="8.123705363956498"><ele>692.8</ele><time>2026-03-29T07:40:22.999Z</time></trkpt><trkpt lat="44.3976905739741" lon="8.123844862732819"><ele>691.0</ele><time>2026-03-29T07:40:23.999Z</time></trkpt><trkpt lat="44.39769608198127" lon="8.123975193048746"><ele>690.5</ele><time>2026-03-29T07:40:24.999Z</time></trkpt><trkpt lat="44.39770064209419" lon="8.124089881573171"><ele>690.0</ele><time>2026-03-29T07:40:25.999Z</time></trkpt><trkpt lat="44.397692637673494" lon="8.124209894116907"><ele>689.5</ele><time>2026-03-29T07:40:26.999Z</time></trkpt><trkpt lat="44.39767516067094" lon="8.124328012738705"><ele>689.0</ele><time>2026-03-29T07:40:27.999Z</time></trkpt><trkpt lat="44.397634964850155" lon="8.124446135240387"><ele>688.5</ele><time>2026-03-29T07:40:28.999Z</time></trkpt><trkpt lat="44.397580583702144" lon="8.124565942792351"><ele>688.0</ele><time>2026-03-29T07:40:29.999Z</time></trkpt><trkpt lat="44.39750521003166" lon="8.124677222902347"><ele>688.0</ele><time>2026-03-29T07:40:30.999Z</time></trkpt><trkpt lat="44.39741304462967" lon="8.124780657615275"><ele>688.0</ele><time>2026-03-29T07:40:31.999Z</time></trkpt><trkpt lat="44.39730296722268" lon="8.124881294239069"><ele>688.0</ele><time>2026-03-29T07:40:32.999Z</time></trkpt><trkpt lat="44.39718926219868" lon="8.124985343529831"><ele>688.0</ele><time>2026-03-29T07:40:33.999Z</time></trkpt><trkpt lat="44.3970756112452" lon="8.125075035900926"><ele>686.5</ele><time>2026-03-29T07:40:34.999Z</time></trkpt><trkpt lat="44.39697405112499" lon="8.125162262046505"><ele>685.0</ele><time>2026-03-29T07:40:35.999Z</time></trkpt><trkpt lat="44.39688800926335" lon="8.125240810544193"><ele>683.5</ele><time>2026-03-29T07:40:36.999Z</time></trkpt><trkpt lat="44.39678234720361" lon="8.125301939762682"><ele>682.0</ele><time>2026-03-29T07:40:37.998Z</time></trkpt><trkpt lat="44.39668446876697" lon="8.125394468908391"><ele>682.0</ele><time>2026-03-29T07:40:38.998Z</time></trkpt><trkpt lat="44.39659812016922" lon="8.125500925504584"><ele>682.0</ele><time>2026-03-29T07:40:39.998Z</time></trkpt><trkpt lat="44.39652054055493" lon="8.125619603884921"><ele>682.0</ele><time>2026-03-29T07:40:40.998Z</time></trkpt><trkpt lat="44.39644916681654" lon="8.125754854025574"><ele>682.0</ele><time>2026-03-29T07:40:41.998Z</time></trkpt><trkpt lat="44.39640005899333" lon="8.125891962378958"><ele>681.75</ele><time>2026-03-29T07:40:42.998Z</time></trkpt><trkpt lat="44.39635414041936" lon="8.126055545450695"><ele>681.5</ele><time>2026-03-29T07:40:43.998Z</time></trkpt><trkpt lat="44.39632538816377" lon="8.126240430861618"><ele>681.25</ele><time>2026-03-29T07:40:44.998Z</time></trkpt><trkpt lat="44.39630023371298" lon="8.12641831782742"><ele>681.0</ele><time>2026-03-29T07:40:45.998Z</time></trkpt><trkpt lat="44.39628286212738" lon="8.126581904179664"><ele>681.0</ele><time>2026-03-29T07:40:46.998Z</time></trkpt><trkpt lat="44.396256705771364" lon="8.126743816625558"><ele>681.0</ele><time>2026-03-29T07:40:47.998Z</time></trkpt><trkpt lat="44.39622764051229" lon="8.126906715715608"><ele>681.0</ele><time>2026-03-29T07:40:48.998Z</time></trkpt><trkpt lat="44.396200783562115" lon="8.127053347838949"><ele>681.0</ele><time>2026-03-29T07:40:49.998Z</time></trkpt><trkpt lat="44.39615932624484" lon="8.127188642301986"><ele>681.0</ele><time>2026-03-29T07:40:50.998Z</time></trkpt><trkpt lat="44.39611583262639" lon="8.127317535958005"><ele>681.0</ele><time>2026-03-29T07:40:51.998Z</time></trkpt><trkpt lat="44.396058406768454" lon="8.127455814874525"><ele>681.0</ele><time>2026-03-29T07:40:52.998Z</time></trkpt><trkpt lat="44.39598622762047" lon="8.127592370890289"><ele>681.0</ele><time>2026-03-29T07:40:53.998Z</time></trkpt><trkpt lat="44.395905499908565" lon="8.127727120452215"><ele>680.25</ele><time>2026-03-29T07:40:54.998Z</time></trkpt><trkpt lat="44.39581967716987" lon="8.12785411812624"><ele>679.5</ele><time>2026-03-29T07:40:55.998Z</time></trkpt><trkpt lat="44.395727361421024" lon="8.127968432400262"><ele>678.75</ele><time>2026-03-29T07:40:56.998Z</time></trkpt><trkpt lat="44.395624227806486" lon="8.128072139385852"><ele>678.0</ele><time>2026-03-29T07:40:57.998Z</time></trkpt><trkpt lat="44.39550429074981" lon="8.128184376909447"><ele>674.3333333333334</ele><time>2026-03-29T07:40:59Z</time></trkpt><trkpt lat="44.395362472808294" lon="8.128287400536678"><ele>670.6666666666667</ele><time>2026-03-29T07:41:00Z</time></trkpt><trkpt lat="44.39522362197063" lon="8.128371316552284"><ele>667.0</ele><time>2026-03-29T07:41:01Z</time></trkpt><trkpt lat="44.39507520588181" lon="8.128457147440471"><ele>667.0</ele><time>2026-03-29T07:41:02Z</time></trkpt><trkpt lat="44.39493786056773" lon="8.12853538587671"><ele>667.0</ele><time>2026-03-29T07:41:03Z</time></trkpt><trkpt lat="44.39479469009726" lon="8.128605091284147"><ele>667.0</ele><time>2026-03-29T07:41:04Z</time></trkpt><trkpt lat="44.3946386523303" lon="8.12865338455128"><ele>667.75</ele><time>2026-03-29T07:41:05Z</time></trkpt><trkpt lat="44.39449283633125" lon="8.128677603653792"><ele>668.5</ele><time>2026-03-29T07:41:06Z</time></trkpt><trkpt lat="44.39436860115625" lon="8.12869009245884"><ele>669.25</ele><time>2026-03-29T07:41:07Z</time></trkpt><trkpt lat="44.39425402028951" lon="8.128706574450769"><ele>670.0</ele><time>2026-03-29T07:41:08Z</time></trkpt><trkpt lat="44.39414063865609" lon="8.12871415642388"><ele>670.0</ele><time>2026-03-29T07:41:09Z</time></trkpt><trkpt lat="44.39404053586476" lon="8.128746232638244"><ele>670.0</ele><time>2026-03-29T07:41:10Z</time></trkpt><trkpt lat="44.39392679695147" lon="8.128789602821193"><ele>670.0</ele><time>2026-03-29T07:41:11Z</time></trkpt><trkpt lat="44.39381064963837" lon="8.128856279355732"><ele>670.0</ele><time>2026-03-29T07:41:12Z</time></trkpt><trkpt lat="44.393692599680016" lon="8.128934462114254"><ele>671.5</ele><time>2026-03-29T07:41:13Z</time></trkpt><trkpt lat="44.39357238874721" lon="8.129035380677445"><ele>673.0</ele><time>2026-03-29T07:41:14Z</time></trkpt><trkpt lat="44.393453342896464" lon="8.129145547280368"><ele>674.5</ele><time>2026-03-29T07:41:15Z</time></trkpt><trkpt lat="44.39333920264365" lon="8.129275938604595"><ele>676.0</ele><time>2026-03-29T07:41:16Z</time></trkpt><trkpt lat="44.39323855343601" lon="8.129440094506934"><ele>676.0</ele><time>2026-03-29T07:41:17Z</time></trkpt><trkpt lat="44.39313348942073" lon="8.129591358349558"><ele>676.0</ele><time>2026-03-29T07:41:18Z</time></trkpt><trkpt lat="44.39303906111592" lon="8.129722326596982"><ele>676.0</ele><time>2026-03-29T07:41:19Z</time></trkpt><trkpt lat="44.39292556875542" lon="8.129842391217407"><ele>676.0</ele><time>2026-03-29T07:41:20Z</time></trkpt><trkpt lat="44.392811311157374" lon="8.129962765254128"><ele>678.5</ele><time>2026-03-29T07:41:21Z</time></trkpt><trkpt lat="44.392691056927234" lon="8.130068111944022"><ele>681.0</ele><time>2026-03-29T07:41:22Z</time></trkpt><trkpt lat="44.39256622387861" lon="8.130171842526893"><ele>683.5</ele><time>2026-03-29T07:41:23Z</time></trkpt><trkpt lat="44.392464985582215" lon="8.130227453942812"><ele>686.0</ele><time>2026-03-29T07:41:24Z</time></trkpt><trkpt lat="44.392370349775824" lon="8.130294534815826"><ele>686.0</ele><time>2026-03-29T07:41:25Z</time></trkpt><trkpt lat="44.392272970054805" lon="8.130346872312671"><ele>686.0</ele><time>2026-03-29T07:41:26Z</time></trkpt><trkpt lat="44.39216679782932" lon="8.130399289871097"><ele>686.0</ele><time>2026-03-29T07:41:27Z</time></trkpt><trkpt lat="44.392061433903415" lon="8.130427334790163"><ele>686.0</ele><time>2026-03-29T07:41:28Z</time></trkpt><trkpt lat="44.3919570239423" lon="8.130429406047158"><ele>686.0</ele><time>2026-03-29T07:41:29Z</time></trkpt><trkpt lat="44.391853349167526" lon="8.130389325349219"><ele>687.4</ele><time>2026-03-29T07:41:30Z</time></trkpt><trkpt lat="44.39174288016614" lon="8.130353937914247"><ele>688.8</ele><time>2026-03-29T07:41:31Z</time></trkpt><trkpt lat="44.3916350157661" lon="8.130296416415908"><ele>690.1999999999999</ele><time>2026-03-29T07:41:32Z</time></trkpt><trkpt lat="44.39152552168764" lon="8.130214929212128"><ele>691.5999999999999</ele><time>2026-03-29T07:41:33Z</time></trkpt><trkpt lat="44.39144140703304" lon="8.13015743408872"><ele>693.0</ele><time>2026-03-29T07:41:34Z</time></trkpt><trkpt lat="44.39136084960405" lon="8.13010103664698"><ele>693.8</ele><time>2026-03-29T07:41:35Z</time></trkpt><trkpt lat="44.39128605689221" lon="8.130047680008262"><ele>694.5999999999999</ele><time>2026-03-29T07:41:36Z</time></trkpt><trkpt lat="44.3911996545459" lon="8.130017036801114"><ele>695.4000000000001</ele><time>2026-03-29T07:41:37Z</time></trkpt><trkpt lat="44.39110110222272" lon="8.13000911312448"><ele>696.2</ele><time>2026-03-29T07:41:38Z</time></trkpt><trkpt lat="44.39100925606236" lon="8.130015647289316"><ele>697.0</ele><time>2026-03-29T07:41:39Z</time></trkpt><trkpt lat="44.39091084574484" lon="8.13004467127689"><ele>697.0</ele><time>2026-03-29T07:41:40Z</time></trkpt><trkpt lat="44.390828781782595" lon="8.130110007902333"><ele>697.0</ele><time>2026-03-29T07:41:41Z</time></trkpt><trkpt lat="44.39076773996086" lon="8.130202085272991"><ele>697.0</ele><time>2026-03-29T07:41:42Z</time></trkpt><trkpt lat="44.390707084877" lon="8.130322900944197"><ele>697.0</ele><time>2026-03-29T07:41:42.999Z</time></trkpt><trkpt lat="44.39065509574237" lon="8.13045959734208"><ele>697.0</ele><time>2026-03-29T07:41:43.999Z</time></trkpt><trkpt lat="44.39058908572986" lon="8.130603804580018"><ele>698.0</ele><time>2026-03-29T07:41:44.999Z</time></trkpt><trkpt lat="44.390519950231486" lon="8.13074082452553"><ele>699.0</ele><time>2026-03-29T07:41:45.999Z</time></trkpt><trkpt lat="44.39042291614002" lon="8.13086723491927"><ele>700.0</ele><time>2026-03-29T07:41:46.999Z</time></trkpt><trkpt lat="44.39030674118056" lon="8.130993554899918"><ele>701.0</ele><time>2026-03-29T07:41:47.999Z</time></trkpt><trkpt lat="44.390194606505446" lon="8.131107567807959"><ele>701.0</ele><time>2026-03-29T07:41:48.999Z</time></trkpt><trkpt lat="44.39007759887315" lon="8.13122746134611"><ele>701.0</ele><time>2026-03-29T07:41:49.999Z</time></trkpt><trkpt lat="44.389960694972636" lon="8.13134359000998"><ele>701.0</ele><time>2026-03-29T07:41:50.999Z</time></trkpt><trkpt lat="44.38985229356777" lon="8.131458115298665"><ele>701.0</ele><time>2026-03-29T07:41:51.999Z</time></trkpt><trkpt lat="44.38974112932321" lon="8.13155685550119"><ele>702.75</ele><time>2026-03-29T07:41:52.999Z</time></trkpt><trkpt lat="44.389615310274166" lon="8.131625433858433"><ele>704.5</ele><time>2026-03-29T07:41:53.999Z</time></trkpt><trkpt lat="44.38947835245754" lon="8.131698518454378"><ele>706.25</ele><time>2026-03-29T07:41:54.999Z</time></trkpt><trkpt lat="44.38932745664007" lon="8.131775873628444"><ele>708.0</ele><time>2026-03-29T07:41:55.999Z</time></trkpt><trkpt lat="44.38918000882698" lon="8.131852188403046"><ele>708.0</ele><time>2026-03-29T07:41:56.999Z</time></trkpt><trkpt lat="44.389040087518744" lon="8.131949648910876"><ele>708.0</ele><time>2026-03-29T07:41:57.999Z</time></trkpt><trkpt lat="44.38890385436858" lon="8.132014238449406"><ele>708.0</ele><time>2026-03-29T07:41:58.999Z</time></trkpt><trkpt lat="44.388777750193064" lon="8.132062399623479"><ele>708.0</ele><time>2026-03-29T07:41:59.999Z</time></trkpt><trkpt lat="44.388664087564315" lon="8.132117025854564"><ele>710.25</ele><time>2026-03-29T07:42:00.999Z</time></trkpt><trkpt lat="44.38855580844933" lon="8.132165660996947"><ele>712.5</ele><time>2026-03-29T07:42:01.999Z</time></trkpt><trkpt lat="44.38846669333569" lon="8.132216685147016"><ele>714.75</ele><time>2026-03-29T07:42:02.999Z</time></trkpt><trkpt lat="44.38835082766397" lon="8.132214945904852"><ele>717.0</ele><time>2026-03-29T07:42:03.999Z</time></trkpt><trkpt lat="44.38822530875148" lon="8.132193175988855"><ele>717.0</ele><time>2026-03-29T07:42:04.999Z</time></trkpt><trkpt lat="44.38810299547917" lon="8.132147199295117"><ele>717.0</ele><time>2026-03-29T07:42:05.999Z</time></trkpt><trkpt lat="44.38797308483713" lon="8.132079774739081"><ele>717.0</ele><time>2026-03-29T07:42:06.999Z</time></trkpt><trkpt lat="44.38783970933317" lon="8.132008362870074"><ele>717.0</ele><time>2026-03-29T07:42:07.999Z</time></trkpt><trkpt lat="44.38768564044805" lon="8.13195669261945"><ele>717.75</ele><time>2026-03-29T07:42:08.999Z</time></trkpt><trkpt lat="44.387570923087004" lon="8.13187626644178"><ele>718.5</ele><time>2026-03-29T07:42:09.999Z</time></trkpt><trkpt lat="44.387430325334066" lon="8.13183671180948"><ele>719.25</ele><time>2026-03-29T07:42:10.999Z</time></trkpt><trkpt lat="44.38731250613682" lon="8.13181635141893"><ele>720.0</ele><time>2026-03-29T07:42:11.999Z</time></trkpt><trkpt lat="44.387189024497225" lon="8.131800692448596"><ele>719.25</ele><time>2026-03-29T07:42:12.999Z</time></trkpt><trkpt lat="44.38707770358196" lon="8.131786284722198"><ele>718.5</ele><time>2026-03-29T07:42:13.999Z</time></trkpt><trkpt lat="44.38696035421024" lon="8.131759429351208"><ele>717.75</ele><time>2026-03-29T07:42:14.999Z</time></trkpt><trkpt lat="44.38684513578672" lon="8.13170896100078"><ele>717.0</ele><time>2026-03-29T07:42:15.999Z</time></trkpt><trkpt lat="44.386738930008455" lon="8.131652951553757"><ele>717.0</ele><time>2026-03-29T07:42:16.999Z</time></trkpt><trkpt lat="44.38661527347028" lon="8.131562780772711"><ele>717.0</ele><time>2026-03-29T07:42:17.999Z</time></trkpt><trkpt lat="44.38652057059723" lon="8.1314794792552"><ele>717.0</ele><time>2026-03-29T07:42:18.999Z</time></trkpt><trkpt lat="44.38642541350194" lon="8.131406727035573"><ele>717.0</ele><time>2026-03-29T07:42:19.999Z</time></trkpt><trkpt lat="44.386320438546726" lon="8.131324933234124"><ele>717.8</ele><time>2026-03-29T07:42:20.999Z</time></trkpt><trkpt lat="44.38624680520551" lon="8.131279602230238"><ele>718.6</ele><time>2026-03-29T07:42:21.999Z</time></trkpt><trkpt lat="44.38613699437554" lon="8.13124720322171"><ele>719.4</ele><time>2026-03-29T07:42:22.999Z</time></trkpt><trkpt lat="44.386023617941596" lon="8.131226970025802"><ele>720.1999999999999</ele><time>2026-03-29T07:42:23.999Z</time></trkpt><trkpt lat="44.38591722477278" lon="8.13122457504572"><ele>721.0</ele><time>2026-03-29T07:42:24.999Z</time></trkpt><trkpt lat="44.38581789659934" lon="8.131228053659624"><ele>721.0</ele><time>2026-03-29T07:42:25.999Z</time></trkpt><trkpt lat="44.38571952419373" lon="8.13123353459161"><ele>721.0</ele><time>2026-03-29T07:42:26.999Z</time></trkpt><trkpt lat="44.38560717473473" lon="8.131244653080358"><ele>721.0</ele><time>2026-03-29T07:42:27.999Z</time></trkpt><trkpt lat="44.385496302381" lon="8.131253647044767"><ele>721.0</ele><time>2026-03-29T07:42:28.999Z</time></trkpt><trkpt lat="44.38539000172264" lon="8.131264709675216"><ele>721.0</ele><time>2026-03-29T07:42:29.999Z</time></trkpt><trkpt lat="44.385272483046855" lon="8.131267523217991"><ele>723.0</ele><time>2026-03-29T07:42:30.999Z</time></trkpt><trkpt lat="44.3851630288103" lon="8.131293794021163"><ele>725.0</ele><time>2026-03-29T07:42:31.999Z</time></trkpt><trkpt lat="44.385055626278245" lon="8.131311955783014"><ele>727.0</ele><time>2026-03-29T07:42:32.999Z</time></trkpt><trkpt lat="44.38494157978483" lon="8.131324919033876"><ele>729.0</ele><time>2026-03-29T07:42:33.999Z</time></trkpt><trkpt lat="44.38482871437777" lon="8.131348644072576"><ele>731.0</ele><time>2026-03-29T07:42:34.999Z</time></trkpt><trkpt lat="44.384718368818234" lon="8.13136851507007"><ele>732.0</ele><time>2026-03-29T07:42:35.999Z</time></trkpt><trkpt lat="44.384614485191406" lon="8.13138223733411"><ele>733.0</ele><time>2026-03-29T07:42:36.999Z</time></trkpt><trkpt lat="44.384523983937925" lon="8.131398366491469"><ele>734.0</ele><time>2026-03-29T07:42:37.999Z</time></trkpt><trkpt lat="44.384424701891156" lon="8.13142136906055"><ele>735.0</ele><time>2026-03-29T07:42:38.999Z</time></trkpt><trkpt lat="44.38432997493006" lon="8.13145277972149"><ele>736.0</ele><time>2026-03-29T07:42:39.999Z</time></trkpt><trkpt lat="44.384226951290884" lon="8.131475357469116"><ele>736.0</ele><time>2026-03-29T07:42:40.999Z</time></trkpt><trkpt lat="44.38410712290829" lon="8.131519611260433"><ele>736.0</ele><time>2026-03-29T07:42:41.999Z</time></trkpt><trkpt lat="44.384001986483064" lon="8.131568781706738"><ele>736.0</ele><time>2026-03-29T07:42:42.998Z</time></trkpt><trkpt lat="44.38390244916153" lon="8.131562795415844"><ele>736.0</ele><time>2026-03-29T07:42:43.998Z</time></trkpt><trkpt lat="44.383797993508736" lon="8.13162040937161"><ele>736.0</ele><time>2026-03-29T07:42:44.998Z</time></trkpt><trkpt lat="44.383704030789566" lon="8.131677735946182"><ele>734.5999999999999</ele><time>2026-03-29T07:42:45.998Z</time></trkpt><trkpt lat="44.38360801883508" lon="8.131730884558783"><ele>733.2</ele><time>2026-03-29T07:42:46.998Z</time></trkpt><trkpt lat="44.38350271401454" lon="8.131780081886392"><ele>731.8</ele><time>2026-03-29T07:42:47.998Z</time></trkpt><trkpt lat="44.38341217830528" lon="8.131814671114542"><ele>730.4000000000001</ele><time>2026-03-29T07:42:48.998Z</time></trkpt><trkpt lat="44.383328655802195" lon="8.131843288001594"><ele>729.0</ele><time>2026-03-29T07:42:49.998Z</time></trkpt><trkpt lat="44.38323627516752" lon="8.131878807223314"><ele>729.0</ele><time>2026-03-29T07:42:50.998Z</time></trkpt><trkpt lat="44.38314436217886" lon="8.131928462718976"><ele>729.0</ele><time>2026-03-29T07:42:51.998Z</time></trkpt><trkpt lat="44.38304965054094" lon="8.13199023078412"><ele>729.0</ele><time>2026-03-29T07:42:52.998Z</time></trkpt><trkpt lat="44.38296085797455" lon="8.132065835829723"><ele>729.0</ele><time>2026-03-29T07:42:53.998Z</time></trkpt><trkpt lat="44.38287910522197" lon="8.132143069325444"><ele>729.0</ele><time>2026-03-29T07:42:54.998Z</time></trkpt><trkpt lat="44.38279086968807" lon="8.132225953366886"><ele>729.0</ele><time>2026-03-29T07:42:55.998Z</time></trkpt><trkpt lat="44.38271754550175" lon="8.132297968140783"><ele>729.0</ele><time>2026-03-29T07:42:56.998Z</time></trkpt><trkpt lat="44.382647623904084" lon="8.132378649673553"><ele>729.0</ele><time>2026-03-29T07:42:57.998Z</time></trkpt><trkpt lat="44.382576332651695" lon="8.132461545646578"><ele>729.0</ele><time>2026-03-29T07:42:58.998Z</time></trkpt><trkpt lat="44.38251018199335" lon="8.132549128459036"><ele>729.0</ele><time>2026-03-29T07:42:59.998Z</time></trkpt><trkpt lat="44.38245995634676" lon="8.132631095007694"><ele>729.0</ele><time>2026-03-29T07:43:00.998Z</time></trkpt><trkpt lat="44.382391467363114" lon="8.13275078997668"><ele>729.0</ele><time>2026-03-29T07:43:01.998Z</time></trkpt><trkpt lat="44.382327188457786" lon="8.132884408350124"><ele>729.0</ele><time>2026-03-29T07:43:02.998Z</time></trkpt><trkpt lat="44.38225587059248" lon="8.133005647155647"><ele>729.0</ele><time>2026-03-29T07:43:03.998Z</time></trkpt><trkpt lat="44.3821736203808" lon="8.13312015692089"><ele>729.0</ele><time>2026-03-29T07:43:05Z</time></trkpt><trkpt lat="44.38210311727736" lon="8.133221117915356"><ele>729.0</ele><time>2026-03-29T07:43:06Z</time></trkpt><trkpt lat="44.38202479073788" lon="8.133321571298918"><ele>728.0</ele><time>2026-03-29T07:43:07Z</time></trkpt><trkpt lat="44.38194142666126" lon="8.133433016519543"><ele>727.0</ele><time>2026-03-29T07:43:08Z</time></trkpt><trkpt lat="44.38186512803592" lon="8.133560042694723"><ele>726.0</ele><time>2026-03-29T07:43:09Z</time></trkpt><trkpt lat="44.38178933309728" lon="8.133677833112102"><ele>725.0</ele><time>2026-03-29T07:43:10Z</time></trkpt><trkpt lat="44.38173089767876" lon="8.13379035690554"><ele>724.0</ele><time>2026-03-29T07:43:11Z</time></trkpt><trkpt lat="44.38165210033261" lon="8.133895318134195"><ele>724.0</ele><time>2026-03-29T07:43:12Z</time></trkpt><trkpt lat="44.3815670441976" lon="8.133981233028074"><ele>724.0</ele><time>2026-03-29T07:43:13Z</time></trkpt><trkpt lat="44.381466658291956" lon="8.13406559278481"><ele>724.0</ele><time>2026-03-29T07:43:14Z</time></trkpt><trkpt lat="44.381359939711" lon="8.134143485273814"><ele>724.0</ele><time>2026-03-29T07:43:15Z</time></trkpt><trkpt lat="44.381269436601" lon="8.134227340647625"><ele>723.8000000000001</ele><time>2026-03-29T07:43:16Z</time></trkpt><trkpt lat="44.38117518419298" lon="8.134315449474695"><ele>723.6</ele><time>2026-03-29T07:43:17Z</time></trkpt><trkpt lat="44.3810815167751" lon="8.134407742363743"><ele>723.4</ele><time>2026-03-29T07:43:18Z</time></trkpt><trkpt lat="44.380996466448124" lon="8.13450488828317"><ele>723.2</ele><time>2026-03-29T07:43:19Z</time></trkpt><trkpt lat="44.38095287723798" lon="8.134594307949666"><ele>723.0</ele><time>2026-03-29T07:43:20Z</time></trkpt><trkpt lat="44.38088419418545" lon="8.134703289014023"><ele>723.0</ele><time>2026-03-29T07:43:21Z</time></trkpt><trkpt lat="44.38080799542099" lon="8.134831856877264"><ele>723.0</ele><time>2026-03-29T07:43:22Z</time></trkpt><trkpt lat="44.380753859774245" lon="8.134974802329591"><ele>723.0</ele><time>2026-03-29T07:43:23Z</time></trkpt><trkpt lat="44.38070816357084" lon="8.135122389268858"><ele>723.0</ele><time>2026-03-29T07:43:24Z</time></trkpt><trkpt lat="44.380676026442806" lon="8.135267193500766"><ele>725.5</ele><time>2026-03-29T07:43:25Z</time></trkpt><trkpt lat="44.380666120035734" lon="8.135429526109595"><ele>728.0</ele><time>2026-03-29T07:43:26Z</time></trkpt><trkpt lat="44.380651916892084" lon="8.135588625813671"><ele>730.5</ele><time>2026-03-29T07:43:27Z</time></trkpt><trkpt lat="44.38064039488047" lon="8.135750208998667"><ele>733.0</ele><time>2026-03-29T07:43:28Z</time></trkpt><trkpt lat="44.38063036728427" lon="8.13589376031668"><ele>734.5999999999999</ele><time>2026-03-29T07:43:29Z</time></trkpt><trkpt lat="44.38062532201812" lon="8.136054423216121"><ele>736.1999999999999</ele><time>2026-03-29T07:43:30Z</time></trkpt><trkpt lat="44.38060938400977" lon="8.136170867607039"><ele>737.8</ele><time>2026-03-29T07:43:31Z</time></trkpt><trkpt lat="44.3805977673843" lon="8.13632204722175"><ele>739.4</ele><time>2026-03-29T07:43:32Z</time></trkpt><trkpt lat="44.38058178865192" lon="8.13645999794381"><ele>741.0</ele><time>2026-03-29T07:43:33Z</time></trkpt><trkpt lat="44.380549884668106" lon="8.136600296626842"><ele>737.0</ele><time>2026-03-29T07:43:34Z</time></trkpt><trkpt lat="44.38051249560747" lon="8.136742082696392"><ele>733.0</ele><time>2026-03-29T07:43:35Z</time></trkpt><trkpt lat="44.38046146320424" lon="8.136873196310656"><ele>729.0</ele><time>2026-03-29T07:43:36Z</time></trkpt><trkpt lat="44.38040969947385" lon="8.136986933334802"><ele>725.0</ele><time>2026-03-29T07:43:37Z</time></trkpt><trkpt lat="44.38035407178399" lon="8.137101534390196"><ele>721.0</ele><time>2026-03-29T07:43:38Z</time></trkpt><trkpt lat="44.38030014246874" lon="8.137236587549173"><ele>723.1999999999999</ele><time>2026-03-29T07:43:39Z</time></trkpt><trkpt lat="44.38025992668345" lon="8.137386472350506"><ele>725.4</ele><time>2026-03-29T07:43:40Z</time></trkpt><trkpt lat="44.38022497771326" lon="8.13752983667427"><ele>727.6</ele><time>2026-03-29T07:43:41Z</time></trkpt><trkpt lat="44.38019028369302" lon="8.13766756837813"><ele>729.8</ele><time>2026-03-29T07:43:42Z</time></trkpt><trkpt lat="44.38014383569315" lon="8.137806518758387"><ele>732.0</ele><time>2026-03-29T07:43:43Z</time></trkpt><trkpt lat="44.38009760587092" lon="8.137933218770344"><ele>732.0</ele><time>2026-03-29T07:43:44Z</time></trkpt><trkpt lat="44.38004352421576" lon="8.138062973380437"><ele>732.0</ele><time>2026-03-29T07:43:45Z</time></trkpt><trkpt lat="44.379973266064304" lon="8.138183506999928"><ele>732.0</ele><time>2026-03-29T07:43:46Z</time></trkpt><trkpt lat="44.37989077346272" lon="8.13827923843357"><ele>732.0</ele><time>2026-03-29T07:43:47Z</time></trkpt><trkpt lat="44.3797924654316" lon="8.138366808313542"><ele>732.0</ele><time>2026-03-29T07:43:47.999Z</time></trkpt><trkpt lat="44.37967850949495" lon="8.138445573007294"><ele>731.6</ele><time>2026-03-29T07:43:48.999Z</time></trkpt><trkpt lat="44.37956564522647" lon="8.138499652852566"><ele>731.2</ele><time>2026-03-29T07:43:49.999Z</time></trkpt><trkpt lat="44.37945563604505" lon="8.13854619458258"><ele>730.8</ele><time>2026-03-29T07:43:50.999Z</time></trkpt><trkpt lat="44.379356845807784" lon="8.138593177055249"><ele>730.4</ele><time>2026-03-29T07:43:51.999Z</time></trkpt><trkpt lat="44.37927188854714" lon="8.138638875216422"><ele>730.0</ele><time>2026-03-29T07:43:52.999Z</time></trkpt><trkpt lat="44.379181755782426" lon="8.138684153563196"><ele>730.0</ele><time>2026-03-29T07:43:53.999Z</time></trkpt><trkpt lat="44.37909836990183" lon="8.138771432298993"><ele>730.0</ele><time>2026-03-29T07:43:54.999Z</time></trkpt><trkpt lat="44.37902744293903" lon="8.138865483363466"><ele>730.0</ele><time>2026-03-29T07:43:55.999Z</time></trkpt><trkpt lat="44.37895809578332" lon="8.138977997071347"><ele>730.0</ele><time>2026-03-29T07:43:56.999Z</time></trkpt><trkpt lat="44.378902738109" lon="8.13910335852777"><ele>730.0</ele><time>2026-03-29T07:43:57.999Z</time></trkpt><trkpt lat="44.37885028326998" lon="8.139231960706557"><ele>730.0</ele><time>2026-03-29T07:43:58.999Z</time></trkpt><trkpt lat="44.37880714049396" lon="8.139358088040575"><ele>730.0</ele><time>2026-03-29T07:43:59.999Z</time></trkpt><trkpt lat="44.37876005666303" lon="8.139491524097348"><ele>730.0</ele><time>2026-03-29T07:44:00.999Z</time></trkpt><trkpt lat="44.37871602800922" lon="8.139643100055272"><ele>730.0</ele><time>2026-03-29T07:44:01.999Z</time></trkpt><trkpt lat="44.378700101586894" lon="8.139779669213965"><ele>730.0</ele><time>2026-03-29T07:44:02.999Z</time></trkpt><trkpt lat="44.378680860524284" lon="8.139919285064781"><ele>730.0</ele><time>2026-03-29T07:44:03.999Z</time></trkpt><trkpt lat="44.37865816759015" lon="8.140051591129627"><ele>730.0</ele><time>2026-03-29T07:44:04.999Z</time></trkpt><trkpt lat="44.378639085581874" lon="8.140204091575711"><ele>730.0</ele><time>2026-03-29T07:44:05.999Z</time></trkpt><trkpt lat="44.37861164872626" lon="8.140351066203298"><ele>730.0</ele><time>2026-03-29T07:44:06.999Z</time></trkpt><trkpt lat="44.37857275272465" lon="8.14049186702702"><ele>730.0</ele><time>2026-03-29T07:44:07.999Z</time></trkpt><trkpt lat="44.37853657734727" lon="8.140639786392008"><ele>731.8</ele><time>2026-03-29T07:44:08.999Z</time></trkpt><trkpt lat="44.37849698915373" lon="8.140761941877745"><ele>733.6</ele><time>2026-03-29T07:44:09.999Z</time></trkpt><trkpt lat="44.37845991447127" lon="8.140870218239115"><ele>735.4000000000001</ele><time>2026-03-29T07:44:10.999Z</time></trkpt><trkpt lat="44.37839515362178" lon="8.140999954241401"><ele>737.2</ele><time>2026-03-29T07:44:11.999Z</time></trkpt><trkpt lat="44.37834289379552" lon="8.141100008511064"><ele>739.0</ele><time>2026-03-29T07:44:12.999Z</time></trkpt><trkpt lat="44.37828775289371" lon="8.141185387145061"><ele>739.0</ele><time>2026-03-29T07:44:13.999Z</time></trkpt><trkpt lat="44.37825525725144" lon="8.141265958832548"><ele>739.0</ele><time>2026-03-29T07:44:14.999Z</time></trkpt><trkpt lat="44.37816831630467" lon="8.141374743884672"><ele>739.0</ele><time>2026-03-29T07:44:16.999Z</time></trkpt><trkpt lat="44.37806471764786" lon="8.141428815749535"><ele>739.0</ele><time>2026-03-29T07:44:18.999Z</time></trkpt><trkpt lat="44.37799118188426" lon="8.141428533664552"><ele>739.0</ele><time>2026-03-29T07:44:19.999Z</time></trkpt><trkpt lat="44.37788930646585" lon="8.141440160172971"><ele>737.8000000000001</ele><time>2026-03-29T07:44:20.999Z</time></trkpt><trkpt lat="44.37777195854587" lon="8.141455585809323"><ele>736.6</ele><time>2026-03-29T07:44:21.999Z</time></trkpt><trkpt lat="44.37766919069728" lon="8.141471063471231"><ele>735.4</ele><time>2026-03-29T07:44:22.999Z</time></trkpt><trkpt lat="44.377586264066956" lon="8.141483552782075"><ele>734.2</ele><time>2026-03-29T07:44:23.999Z</time></trkpt><trkpt lat="44.37749822382966" lon="8.141492579964998"><ele>733.0</ele><time>2026-03-29T07:44:24.999Z</time></trkpt><trkpt lat="44.37739785820817" lon="8.141504331911557"><ele>733.0</ele><time>2026-03-29T07:44:25.999Z</time></trkpt><trkpt lat="44.37731620529361" lon="8.141485485955194"><ele>733.0</ele><time>2026-03-29T07:44:26.999Z</time></trkpt><trkpt lat="44.377206427095366" lon="8.141437173117447"><ele>733.0</ele><time>2026-03-29T07:44:27.999Z</time></trkpt><trkpt lat="44.3771041452268" lon="8.1413821894685"><ele>733.0</ele><time>2026-03-29T07:44:28.999Z</time></trkpt><trkpt lat="44.37698530270459" lon="8.141319303636124"><ele>733.0</ele><time>2026-03-29T07:44:29.999Z</time></trkpt><trkpt lat="44.37686093264692" lon="8.141304117742365"><ele>733.2</ele><time>2026-03-29T07:44:30.999Z</time></trkpt><trkpt lat="44.37674976937213" lon="8.14123051866536"><ele>733.4</ele><time>2026-03-29T07:44:31.999Z</time></trkpt><trkpt lat="44.37665335198351" lon="8.141167267400837"><ele>733.6</ele><time>2026-03-29T07:44:32.999Z</time></trkpt><trkpt lat="44.37656542656886" lon="8.141123943124242"><ele>733.8000000000001</ele><time>2026-03-29T07:44:33.999Z</time></trkpt><trkpt lat="44.37647943830884" lon="8.141047181396496"><ele>734.0</ele><time>2026-03-29T07:44:34.999Z</time></trkpt><trkpt lat="44.3763824493872" lon="8.140990146413099"><ele>734.0</ele><time>2026-03-29T07:44:35.999Z</time></trkpt><trkpt lat="44.376300606770734" lon="8.140936361219294"><ele>734.0</ele><time>2026-03-29T07:44:36.999Z</time></trkpt><trkpt lat="44.37620854735014" lon="8.140867868079479"><ele>734.0</ele><time>2026-03-29T07:44:37.999Z</time></trkpt><trkpt lat="44.376130433058876" lon="8.140798122663565"><ele>734.0</ele><time>2026-03-29T07:44:38.999Z</time></trkpt><trkpt lat="44.37607294089639" lon="8.14072419613308"><ele>734.0</ele><time>2026-03-29T07:44:39.999Z</time></trkpt><trkpt lat="44.37598985212265" lon="8.140637881198598"><ele>733.8000000000001</ele><time>2026-03-29T07:44:40.999Z</time></trkpt><trkpt lat="44.37589001608789" lon="8.14052948647187"><ele>733.6</ele><time>2026-03-29T07:44:41.999Z</time></trkpt><trkpt lat="44.37580854922016" lon="8.140453671944288"><ele>733.4</ele><time>2026-03-29T07:44:42.999Z</time></trkpt><trkpt lat="44.375726481562026" lon="8.140375847521868"><ele>733.2</ele><time>2026-03-29T07:44:43.999Z</time></trkpt><trkpt lat="44.37566131563232" lon="8.140324436383423"><ele>733.0</ele><time>2026-03-29T07:44:44.999Z</time></trkpt><trkpt lat="44.37558370674233" lon="8.140254194607039"><ele>732.6666666666667</ele><time>2026-03-29T07:44:45.999Z</time></trkpt><trkpt lat="44.375508316759436" lon="8.14018328446208"><ele>732.3333333333334</ele><time>2026-03-29T07:44:46.999Z</time></trkpt><trkpt lat="44.37544704206434" lon="8.14013211151818"><ele>732.0</ele><time>2026-03-29T07:44:47.999Z</time></trkpt><trkpt lat="44.3753853194273" lon="8.14006606856192"><ele>731.6666666666666</ele><time>2026-03-29T07:44:48.998Z</time></trkpt><trkpt lat="44.3753278103271" lon="8.140004365796432"><ele>731.3333333333333</ele><time>2026-03-29T07:44:49.998Z</time></trkpt><trkpt lat="44.37523259088421" lon="8.13989968576348"><ele>731.0</ele><time>2026-03-29T07:44:51.998Z</time></trkpt><trkpt lat="44.37515755247366" lon="8.139803431661694"><ele>730.3333333333333</ele><time>2026-03-29T07:44:53.998Z</time></trkpt><trkpt lat="44.3751268982822" lon="8.139710216607627"><ele>729.6666666666666</ele><time>2026-03-29T07:44:56.998Z</time></trkpt><trkpt lat="44.37509383725257" lon="8.139566175751336"><ele>729.0</ele><time>2026-03-29T07:45:02.998Z</time></trkpt><trkpt lat="44.375034934179645" lon="8.139508903491175"><ele>728.3333333333334</ele><time>2026-03-29T07:45:05.998Z</time></trkpt><trkpt lat="44.37496467975154" lon="8.139520030057724"><ele>727.6666666666667</ele><time>2026-03-29T07:45:07.998Z</time></trkpt><trkpt lat="44.37489820287578" lon="8.139595135696013"><ele>727.0</ele><time>2026-03-29T07:45:09.998Z</time></trkpt><trkpt lat="44.37486117770083" lon="8.139703735533654"><ele>727.0</ele><time>2026-03-29T07:45:12Z</time></trkpt><trkpt lat="44.37480223655572" lon="8.139833221250637"><ele>727.0</ele><time>2026-03-29T07:45:15Z</time></trkpt><trkpt lat="44.37473414216982" lon="8.139838376710387"><ele>727.0</ele><time>2026-03-29T07:45:18Z</time></trkpt><trkpt lat="44.374775062367654" lon="8.139763224107602"><ele>727.0</ele><time>2026-03-29T07:47:38Z</time></trkpt><trkpt lat="44.37475643411885" lon="8.13966957394067"><ele>727.0</ele><time>2026-03-29T07:47:45Z</time></trkpt><trkpt lat="44.37476815226837" lon="8.139790204108136"><ele>727.0</ele><time>2026-03-29T07:50:28.016Z</time></trkpt><trkpt lat="44.374769356892045" lon="8.13969843669183"><ele>727.0</ele><time>2026-03-29T08:05:26.998Z</time></trkpt><trkpt lat="44.37475478984998" lon="8.1398213566378"><ele>727.0</ele><time>2026-03-29T08:05:49Z</time></trkpt><trkpt lat="44.374813698629104" lon="8.139774318982404"><ele>727.0</ele><time>2026-03-29T08:06:01Z</time></trkpt><trkpt lat="44.374840054159755" lon="8.1396755795966"><ele>727.0</ele><time>2026-03-29T08:06:06Z</time></trkpt><trkpt lat="44.37476701576987" lon="8.139665260410867"><ele>727.0</ele><time>2026-03-29T08:06:19Z</time></trkpt><trkpt lat="44.37484551810768" lon="8.139659224479207"><ele>727.0</ele><time>2026-03-29T08:13:09.999Z</time></trkpt><trkpt lat="44.37478498629285" lon="8.139698445850714"><ele>727.0</ele><time>2026-03-29T08:14:23Z</time></trkpt><trkpt lat="44.3747267790963" lon="8.139662055961214"><ele>727.0</ele><time>2026-03-29T08:18:09.999Z</time></trkpt><trkpt lat="44.37479102689386" lon="8.139634851029601"><ele>727.0</ele><time>2026-03-29T08:18:25.999Z</time></trkpt><trkpt lat="44.374857718501545" lon="8.139630991907964"><ele>727.0</ele><time>2026-03-29T08:21:05.998Z</time></trkpt><trkpt lat="44.37479993144542" lon="8.139690310732865"><ele>727.0</ele><time>2026-03-29T08:21:33Z</time></trkpt><trkpt lat="44.37487432923227" lon="8.139773651851685"><ele>727.0</ele><time>2026-03-29T08:21:36Z</time></trkpt><trkpt lat="44.37495903902733" lon="8.139770375785206"><ele>727.0</ele><time>2026-03-29T08:21:38Z</time></trkpt><trkpt lat="44.37503205257327" lon="8.139704875153818"><ele>727.0</ele><time>2026-03-29T08:21:40Z</time></trkpt><trkpt lat="44.375075185427065" lon="8.13960005491035"><ele>727.0</ele><time>2026-03-29T08:21:42Z</time></trkpt><trkpt lat="44.37510851313715" lon="8.139523716056562"><ele>727.0</ele><time>2026-03-29T08:21:43Z</time></trkpt><trkpt lat="44.37517542566153" lon="8.13944061383923"><ele>727.0</ele><time>2026-03-29T08:21:45Z</time></trkpt><trkpt lat="44.375233323249915" lon="8.139388525757761"><ele>727.0</ele><time>2026-03-29T08:21:47Z</time></trkpt><trkpt lat="44.37530825492545" lon="8.13935889660215"><ele>727.0</ele><time>2026-03-29T08:21:49Z</time></trkpt><trkpt lat="44.37545329843548" lon="8.139345162242687"><ele>726.0</ele><time>2026-03-29T08:21:50.999Z</time></trkpt><trkpt lat="44.375538720784206" lon="8.139345683876213"><ele>725.0</ele><time>2026-03-29T08:21:51.999Z</time></trkpt><trkpt lat="44.37566862508234" lon="8.139345774530982"><ele>724.0</ele><time>2026-03-29T08:21:53.999Z</time></trkpt><trkpt lat="44.37573992517143" lon="8.13935412838792"><ele>723.0</ele><time>2026-03-29T08:21:54.999Z</time></trkpt><trkpt lat="44.37585203719231" lon="8.13936257969122"><ele>722.0</ele><time>2026-03-29T08:21:56.999Z</time></trkpt><trkpt lat="44.37591253029785" lon="8.139398653687012"><ele>722.0</ele><time>2026-03-29T08:21:57.999Z</time></trkpt><trkpt lat="44.37604219651057" lon="8.139454298450982"><ele>722.0</ele><time>2026-03-29T08:21:58.999Z</time></trkpt><trkpt lat="44.37610802133833" lon="8.139519654808323"><ele>722.0</ele><time>2026-03-29T08:21:59.999Z</time></trkpt><trkpt lat="44.376175667358346" lon="8.139568267362487"><ele>722.0</ele><time>2026-03-29T08:22:00.999Z</time></trkpt><trkpt lat="44.37624984060122" lon="8.139644154610274"><ele>722.0</ele><time>2026-03-29T08:22:01.999Z</time></trkpt><trkpt lat="44.37633110400972" lon="8.139697557070598"><ele>721.5</ele><time>2026-03-29T08:22:02.999Z</time></trkpt><trkpt lat="44.37640084865498" lon="8.13974087688188"><ele>721.0</ele><time>2026-03-29T08:22:03.999Z</time></trkpt><trkpt lat="44.376475948678554" lon="8.139780230874974"><ele>720.5</ele><time>2026-03-29T08:22:04.999Z</time></trkpt><trkpt lat="44.37654217336238" lon="8.139830274183453"><ele>720.0</ele><time>2026-03-29T08:22:05.999Z</time></trkpt><trkpt lat="44.376604131587314" lon="8.13986714438576"><ele>719.5</ele><time>2026-03-29T08:22:06.999Z</time></trkpt><trkpt lat="44.3766661398875" lon="8.13989749950873"><ele>719.0</ele><time>2026-03-29T08:22:07.999Z</time></trkpt><trkpt lat="44.37678285328598" lon="8.13997145461535"><ele>719.0</ele><time>2026-03-29T08:22:09.999Z</time></trkpt><trkpt lat="44.376851358649105" lon="8.140005073192814"><ele>719.0</ele><time>2026-03-29T08:22:10.999Z</time></trkpt><trkpt lat="44.376914816221735" lon="8.140025843099666"><ele>719.0</ele><time>2026-03-29T08:22:11.999Z</time></trkpt><trkpt lat="44.37698818005328" lon="8.140026369968975"><ele>719.0</ele><time>2026-03-29T08:22:12.999Z</time></trkpt><trkpt lat="44.37705082673779" lon="8.14000867109484"><ele>719.0</ele><time>2026-03-29T08:22:13.999Z</time></trkpt><trkpt lat="44.37712609520003" lon="8.139996150572353"><ele>719.0</ele><time>2026-03-29T08:22:14.999Z</time></trkpt><trkpt lat="44.37724550245428" lon="8.139964622729416"><ele>717.6</ele><time>2026-03-29T08:22:16.999Z</time></trkpt><trkpt lat="44.37734422386642" lon="8.139863825225415"><ele>716.2</ele><time>2026-03-29T08:22:18.999Z</time></trkpt><trkpt lat="44.37743353333339" lon="8.139775726308974"><ele>714.8000000000001</ele><time>2026-03-29T08:22:20.999Z</time></trkpt><trkpt lat="44.37745119831139" lon="8.139670163969061"><ele>713.4000000000001</ele><time>2026-03-29T08:22:21.999Z</time></trkpt><trkpt lat="44.37748143243815" lon="8.13957594047357"><ele>712.0</ele><time>2026-03-29T08:22:22.999Z</time></trkpt><trkpt lat="44.377497392784285" lon="8.13945746052435"><ele>712.0</ele><time>2026-03-29T08:22:23.999Z</time></trkpt><trkpt lat="44.377516951879606" lon="8.13934169870941"><ele>712.0</ele><time>2026-03-29T08:22:24.999Z</time></trkpt><trkpt lat="44.37753115627697" lon="8.13922253721132"><ele>712.0</ele><time>2026-03-29T08:22:25.999Z</time></trkpt><trkpt lat="44.37755740640897" lon="8.139104300189013"><ele>712.0</ele><time>2026-03-29T08:22:26.999Z</time></trkpt><trkpt lat="44.37755196499494" lon="8.138998855099745"><ele>712.0</ele><time>2026-03-29T08:22:27.999Z</time></trkpt><trkpt lat="44.377566928804285" lon="8.138891125371355"><ele>712.0</ele><time>2026-03-29T08:22:28.999Z</time></trkpt><trkpt lat="44.37757587744717" lon="8.138778671620013"><ele>710.5</ele><time>2026-03-29T08:22:29.999Z</time></trkpt><trkpt lat="44.37760217559545" lon="8.138687652095758"><ele>709.0</ele><time>2026-03-29T08:22:30.999Z</time></trkpt><trkpt lat="44.377632022461775" lon="8.138575400355547"><ele>707.5</ele><time>2026-03-29T08:22:31.999Z</time></trkpt><trkpt lat="44.37767181761561" lon="8.138459952439176"><ele>706.0</ele><time>2026-03-29T08:22:32.999Z</time></trkpt><trkpt lat="44.37771732435975" lon="8.138363488700744"><ele>704.5</ele><time>2026-03-29T08:22:33.999Z</time></trkpt><trkpt lat="44.37777262162784" lon="8.1382683880716"><ele>703.0</ele><time>2026-03-29T08:22:34.999Z</time></trkpt><trkpt lat="44.3778331758555" lon="8.13817086008897"><ele>701.4</ele><time>2026-03-29T08:22:35.999Z</time></trkpt><trkpt lat="44.377897654498945" lon="8.138086340710359"><ele>699.8</ele><time>2026-03-29T08:22:36.999Z</time></trkpt><trkpt lat="44.37796369614111" lon="8.138016985273397"><ele>698.2</ele><time>2026-03-29T08:22:37.999Z</time></trkpt><trkpt lat="44.37803858506771" lon="8.137928787760409"><ele>696.6</ele><time>2026-03-29T08:22:38.999Z</time></trkpt><trkpt lat="44.37812035311795" lon="8.137871978392253"><ele>695.0</ele><time>2026-03-29T08:22:39.999Z</time></trkpt><trkpt lat="44.37821351657124" lon="8.137805677189315"><ele>695.0</ele><time>2026-03-29T08:22:40.999Z</time></trkpt><trkpt lat="44.37829052177749" lon="8.137746851489432"><ele>695.0</ele><time>2026-03-29T08:22:41.999Z</time></trkpt><trkpt lat="44.378379141598074" lon="8.137678159144748"><ele>695.0</ele><time>2026-03-29T08:22:42.999Z</time></trkpt><trkpt lat="44.37845607309441" lon="8.137624678036513"><ele>695.0</ele><time>2026-03-29T08:22:43.999Z</time></trkpt><trkpt lat="44.37853168507253" lon="8.137577009031071"><ele>695.0</ele><time>2026-03-29T08:22:44.999Z</time></trkpt><trkpt lat="44.37861268985896" lon="8.137511420146318"><ele>695.0</ele><time>2026-03-29T08:22:45.999Z</time></trkpt><trkpt lat="44.378704279329334" lon="8.137402164031263"><ele>695.0</ele><time>2026-03-29T08:22:46.999Z</time></trkpt><trkpt lat="44.3787827430239" lon="8.13730362395434"><ele>695.0</ele><time>2026-03-29T08:22:47.999Z</time></trkpt><trkpt lat="44.378860138437815" lon="8.137201210043832"><ele>695.0</ele><time>2026-03-29T08:22:48.999Z</time></trkpt><trkpt lat="44.378933803538665" lon="8.137118628474186"><ele>695.0</ele><time>2026-03-29T08:22:49.999Z</time></trkpt><trkpt lat="44.37899230264948" lon="8.137025748773613"><ele>694.2</ele><time>2026-03-29T08:22:50.998Z</time></trkpt><trkpt lat="44.3790494704901" lon="8.136918110189983"><ele>693.4</ele><time>2026-03-29T08:22:51.998Z</time></trkpt><trkpt lat="44.37910580839087" lon="8.136794415540834"><ele>692.5999999999999</ele><time>2026-03-29T08:22:52.998Z</time></trkpt><trkpt lat="44.37915489807058" lon="8.136671754885938"><ele>691.8</ele><time>2026-03-29T08:22:53.998Z</time></trkpt><trkpt lat="44.3791871576412" lon="8.136517666538357"><ele>691.0</ele><time>2026-03-29T08:22:54.998Z</time></trkpt><trkpt lat="44.379230734113236" lon="8.136373499182202"><ele>689.0</ele><time>2026-03-29T08:22:55.998Z</time></trkpt><trkpt lat="44.37926729186996" lon="8.136233591694129"><ele>687.0</ele><time>2026-03-29T08:22:56.998Z</time></trkpt><trkpt lat="44.3792901334968" lon="8.13609058043109"><ele>685.0</ele><time>2026-03-29T08:22:57.998Z</time></trkpt><trkpt lat="44.3793111455537" lon="8.135943019771087"><ele>683.0</ele><time>2026-03-29T08:22:58.998Z</time></trkpt><trkpt lat="44.37932281110336" lon="8.135802728429093"><ele>681.0</ele><time>2026-03-29T08:22:59.998Z</time></trkpt><trkpt lat="44.37932176386397" lon="8.135640822371037"><ele>680.8</ele><time>2026-03-29T08:23:00.998Z</time></trkpt><trkpt lat="44.37932449570223" lon="8.135514547602236"><ele>680.5999999999999</ele><time>2026-03-29T08:23:01.998Z</time></trkpt><trkpt lat="44.37932133649708" lon="8.135382677587064"><ele>680.4</ele><time>2026-03-29T08:23:02.998Z</time></trkpt><trkpt lat="44.37931075460256" lon="8.135249858420185"><ele>680.2</ele><time>2026-03-29T08:23:03.998Z</time></trkpt><trkpt lat="44.379281850905436" lon="8.13510477867983"><ele>680.0</ele><time>2026-03-29T08:23:04.998Z</time></trkpt><trkpt lat="44.379261213712596" lon="8.134961932467537"><ele>679.0</ele><time>2026-03-29T08:23:05.998Z</time></trkpt><trkpt lat="44.37923296689221" lon="8.1348386144233"><ele>678.0</ele><time>2026-03-29T08:23:06.998Z</time></trkpt><trkpt lat="44.37920108061067" lon="8.134701656782589"><ele>677.0</ele><time>2026-03-29T08:23:07.998Z</time></trkpt><trkpt lat="44.379191986558894" lon="8.134556596228155"><ele>676.0</ele><time>2026-03-29T08:23:08.998Z</time></trkpt><trkpt lat="44.379183306708846" lon="8.134439830996513"><ele>675.0</ele><time>2026-03-29T08:23:09.998Z</time></trkpt><trkpt lat="44.37916444064005" lon="8.134316574676374"><ele>675.0</ele><time>2026-03-29T08:23:10.998Z</time></trkpt><trkpt lat="44.37915173038323" lon="8.134196469857866"><ele>675.0</ele><time>2026-03-29T08:23:11.998Z</time></trkpt><trkpt lat="44.37915002672813" lon="8.134071665170264"><ele>675.0</ele><time>2026-03-29T08:23:12.998Z</time></trkpt><trkpt lat="44.37915725111158" lon="8.13394466062205"><ele>675.0</ele><time>2026-03-29T08:23:14Z</time></trkpt><trkpt lat="44.37916610915623" lon="8.133801083160762"><ele>675.0</ele><time>2026-03-29T08:23:15Z</time></trkpt><trkpt lat="44.37919613769923" lon="8.13366987847852"><ele>673.4</ele><time>2026-03-29T08:23:16Z</time></trkpt><trkpt lat="44.37921506275154" lon="8.133503729409943"><ele>671.8</ele><time>2026-03-29T08:23:17Z</time></trkpt><trkpt lat="44.37924810984722" lon="8.133369629985024"><ele>670.2</ele><time>2026-03-29T08:23:18Z</time></trkpt><trkpt lat="44.37928244678311" lon="8.13322801506275"><ele>668.6</ele><time>2026-03-29T08:23:19Z</time></trkpt><trkpt lat="44.37932151896179" lon="8.13309893501636"><ele>667.0</ele><time>2026-03-29T08:23:20Z</time></trkpt><trkpt lat="44.37935419868884" lon="8.13297003082398"><ele>665.0</ele><time>2026-03-29T08:23:21Z</time></trkpt><trkpt lat="44.37938902165632" lon="8.13284667610415"><ele>663.0</ele><time>2026-03-29T08:23:22Z</time></trkpt><trkpt lat="44.37941789648879" lon="8.132734620767621"><ele>661.0</ele><time>2026-03-29T08:23:23Z</time></trkpt><trkpt lat="44.3794406274576" lon="8.132635646595467"><ele>659.0</ele><time>2026-03-29T08:23:24Z</time></trkpt><trkpt lat="44.379456112310535" lon="8.132535924174892"><ele>657.0</ele><time>2026-03-29T08:23:25Z</time></trkpt><trkpt lat="44.37946190523556" lon="8.132434566092533"><ele>655.0</ele><time>2026-03-29T08:23:26Z</time></trkpt><trkpt lat="44.37945053381547" lon="8.132323639099452"><ele>652.0</ele><time>2026-03-29T08:23:27Z</time></trkpt><trkpt lat="44.379421773817526" lon="8.13223892489294"><ele>649.0</ele><time>2026-03-29T08:23:28Z</time></trkpt><trkpt lat="44.37937552816185" lon="8.132151834386187"><ele>646.0</ele><time>2026-03-29T08:23:29Z</time></trkpt><trkpt lat="44.379306065538636" lon="8.132084236178288"><ele>643.0</ele><time>2026-03-29T08:23:30Z</time></trkpt><trkpt lat="44.37924328543704" lon="8.13203556716382"><ele>640.0</ele><time>2026-03-29T08:23:31Z</time></trkpt><trkpt lat="44.379161055721" lon="8.132010422628765"><ele>637.0</ele><time>2026-03-29T08:23:32Z</time></trkpt><trkpt lat="44.379078399017324" lon="8.13200662521491"><ele>637.0</ele><time>2026-03-29T08:23:33Z</time></trkpt><trkpt lat="44.3789984495494" lon="8.132057970668281"><ele>637.0</ele><time>2026-03-29T08:23:34Z</time></trkpt><trkpt lat="44.37892932279773" lon="8.132115692247883"><ele>637.0</ele><time>2026-03-29T08:23:35Z</time></trkpt><trkpt lat="44.37886853075201" lon="8.132196664173017"><ele>637.0</ele><time>2026-03-29T08:23:36Z</time></trkpt><trkpt lat="44.37882159338715" lon="8.132308155190634"><ele>637.0</ele><time>2026-03-29T08:23:37Z</time></trkpt><trkpt lat="44.378788243463426" lon="8.132436300663814"><ele>637.0</ele><time>2026-03-29T08:23:38Z</time></trkpt><trkpt lat="44.37876976987528" lon="8.132637640898412"><ele>637.4</ele><time>2026-03-29T08:23:39Z</time></trkpt><trkpt lat="44.37875597606847" lon="8.132778033201614"><ele>637.8000000000001</ele><time>2026-03-29T08:23:40Z</time></trkpt><trkpt lat="44.37874510098705" lon="8.132913584280148"><ele>638.2</ele><time>2026-03-29T08:23:41Z</time></trkpt><trkpt lat="44.37871753616959" lon="8.133077691240405"><ele>638.6</ele><time>2026-03-29T08:23:42Z</time></trkpt><trkpt lat="44.37869091068801" lon="8.133240138466928"><ele>639.0</ele><time>2026-03-29T08:23:43Z</time></trkpt><trkpt lat="44.37866654516599" lon="8.133387223145265"><ele>640.1666666666666</ele><time>2026-03-29T08:23:44Z</time></trkpt><trkpt lat="44.37865166326813" lon="8.133496470543658"><ele>641.3333333333334</ele><time>2026-03-29T08:23:45Z</time></trkpt><trkpt lat="44.37863631952305" lon="8.133620594184901"><ele>642.5</ele><time>2026-03-29T08:23:46Z</time></trkpt><trkpt lat="44.378626326005815" lon="8.133746953293373"><ele>643.6666666666667</ele><time>2026-03-29T08:23:47Z</time></trkpt><trkpt lat="44.37861395588943" lon="8.133884036962884"><ele>644.8333333333334</ele><time>2026-03-29T08:23:48Z</time></trkpt><trkpt lat="44.378602449005534" lon="8.134008048460517"><ele>646.0</ele><time>2026-03-29T08:23:49Z</time></trkpt><trkpt lat="44.37858820395352" lon="8.134114102271365"><ele>646.8333333333334</ele><time>2026-03-29T08:23:50Z</time></trkpt><trkpt lat="44.37856803972113" lon="8.134233114919528"><ele>647.6666666666667</ele><time>2026-03-29T08:23:51Z</time></trkpt><trkpt lat="44.37854608877978" lon="8.134329074931076"><ele>648.5</ele><time>2026-03-29T08:23:52Z</time></trkpt><trkpt lat="44.37852378003895" lon="8.134421139610692"><ele>649.3333333333334</ele><time>2026-03-29T08:23:53Z</time></trkpt><trkpt lat="44.37849245278806" lon="8.134510057078092"><ele>650.1666666666666</ele><time>2026-03-29T08:23:54Z</time></trkpt><trkpt lat="44.378406518060935" lon="8.134650604499825"><ele>651.0</ele><time>2026-03-29T08:23:56Z</time></trkpt><trkpt lat="44.378346726311065" lon="8.134696661758888"><ele>651.0</ele><time>2026-03-29T08:23:57Z</time></trkpt><trkpt lat="44.3782771630507" lon="8.13473162389769"><ele>651.0</ele><time>2026-03-29T08:23:57.999Z</time></trkpt><trkpt lat="44.3782113839733" lon="8.13475515007028"><ele>651.0</ele><time>2026-03-29T08:23:58.999Z</time></trkpt><trkpt lat="44.37808140685436" lon="8.134724267868442"><ele>651.0</ele><time>2026-03-29T08:24:00.999Z</time></trkpt><trkpt lat="44.37802338670997" lon="8.134665780656684"><ele>651.0</ele><time>2026-03-29T08:24:01.999Z</time></trkpt><trkpt lat="44.377964420006215" lon="8.134586975107606"><ele>651.0</ele><time>2026-03-29T08:24:02.999Z</time></trkpt><trkpt lat="44.377905081895335" lon="8.13449457063495"><ele>649.5999999999999</ele><time>2026-03-29T08:24:03.999Z</time></trkpt><trkpt lat="44.37787325299337" lon="8.134395031753924"><ele>648.2</ele><time>2026-03-29T08:24:04.999Z</time></trkpt><trkpt lat="44.37787782339178" lon="8.134182465284633"><ele>646.8</ele><time>2026-03-29T08:24:06.999Z</time></trkpt><trkpt lat="44.3778839388205" lon="8.134041204656675"><ele>645.4000000000001</ele><time>2026-03-29T08:24:07.999Z</time></trkpt><trkpt lat="44.37790537523615" lon="8.133895385272066"><ele>644.0</ele><time>2026-03-29T08:24:08.999Z</time></trkpt><trkpt lat="44.3779213512249" lon="8.133769479357"><ele>640.5</ele><time>2026-03-29T08:24:09.999Z</time></trkpt><trkpt lat="44.37794193679427" lon="8.133570800415246"><ele>637.0</ele><time>2026-03-29T08:24:10.999Z</time></trkpt><trkpt lat="44.37796014577251" lon="8.133371560561473"><ele>633.5</ele><time>2026-03-29T08:24:11.999Z</time></trkpt><trkpt lat="44.37797646687462" lon="8.133191506445892"><ele>630.0</ele><time>2026-03-29T08:24:12.999Z</time></trkpt><trkpt lat="44.37799269252991" lon="8.133019073197604"><ele>629.1666666666666</ele><time>2026-03-29T08:24:13.999Z</time></trkpt><trkpt lat="44.37801396267896" lon="8.132893662714617"><ele>628.3333333333334</ele><time>2026-03-29T08:24:14.999Z</time></trkpt><trkpt lat="44.378033240496876" lon="8.132763498303625"><ele>627.5</ele><time>2026-03-29T08:24:15.999Z</time></trkpt><trkpt lat="44.378051319473734" lon="8.13264495220833"><ele>626.6666666666667</ele><time>2026-03-29T08:24:16.999Z</time></trkpt><trkpt lat="44.378076946208594" lon="8.132508191123286"><ele>625.8333333333334</ele><time>2026-03-29T08:24:17.999Z</time></trkpt><trkpt lat="44.378102824529634" lon="8.132416027744599"><ele>625.0</ele><time>2026-03-29T08:24:18.999Z</time></trkpt><trkpt lat="44.37813356111062" lon="8.132294110983787"><ele>625.0</ele><time>2026-03-29T08:24:19.999Z</time></trkpt><trkpt lat="44.37817320423461" lon="8.132173558540307"><ele>625.0</ele><time>2026-03-29T08:24:20.999Z</time></trkpt><trkpt lat="44.378255890425294" lon="8.132111383990168"><ele>625.0</ele><time>2026-03-29T08:24:21.999Z</time></trkpt><trkpt lat="44.378347569079466" lon="8.132019697684395"><ele>625.0</ele><time>2026-03-29T08:24:22.999Z</time></trkpt><trkpt lat="44.37845174610066" lon="8.131917175626393"><ele>625.0</ele><time>2026-03-29T08:24:23.999Z</time></trkpt><trkpt lat="44.37853521152106" lon="8.131816961809717"><ele>625.0</ele><time>2026-03-29T08:24:24.999Z</time></trkpt><trkpt lat="44.378628284037774" lon="8.131756297350014"><ele>625.0</ele><time>2026-03-29T08:24:25.999Z</time></trkpt><trkpt lat="44.37870711111261" lon="8.131655001033216"><ele>625.0</ele><time>2026-03-29T08:24:26.999Z</time></trkpt><trkpt lat="44.37879025851394" lon="8.131563884864171"><ele>625.0</ele><time>2026-03-29T08:24:27.999Z</time></trkpt><trkpt lat="44.37886333658121" lon="8.13151080589021"><ele>625.0</ele><time>2026-03-29T08:24:28.999Z</time></trkpt><trkpt lat="44.37893164126693" lon="8.131450135102888"><ele>624.0</ele><time>2026-03-29T08:24:29.999Z</time></trkpt><trkpt lat="44.37900330170639" lon="8.131397819423057"><ele>623.0</ele><time>2026-03-29T08:24:30.999Z</time></trkpt><trkpt lat="44.37907564307868" lon="8.131356999684671"><ele>622.0</ele><time>2026-03-29T08:24:31.999Z</time></trkpt><trkpt lat="44.37915759564478" lon="8.131327147374071"><ele>621.0</ele><time>2026-03-29T08:24:32.999Z</time></trkpt><trkpt lat="44.379246133325665" lon="8.131303954308217"><ele>620.0</ele><time>2026-03-29T08:24:33.999Z</time></trkpt><trkpt lat="44.37932791718795" lon="8.131288741343461"><ele>619.0</ele><time>2026-03-29T08:24:34.999Z</time></trkpt><trkpt lat="44.37941811482856" lon="8.13127287123037"><ele>619.0</ele><time>2026-03-29T08:24:35.999Z</time></trkpt><trkpt lat="44.379503148193095" lon="8.131257909667244"><ele>619.0</ele><time>2026-03-29T08:24:36.999Z</time></trkpt><trkpt lat="44.379562968587024" lon="8.131227581797424"><ele>619.0</ele><time>2026-03-29T08:24:37.999Z</time></trkpt><trkpt lat="44.37969217539787" lon="8.131198627976428"><ele>619.0</ele><time>2026-03-29T08:24:39.999Z</time></trkpt><trkpt lat="44.37976977744041" lon="8.131121198471353"><ele>619.0</ele><time>2026-03-29T08:24:40.999Z</time></trkpt><trkpt lat="44.379833571424214" lon="8.131008060649538"><ele>618.0</ele><time>2026-03-29T08:24:41.999Z</time></trkpt><trkpt lat="44.379888234519925" lon="8.130859846745047"><ele>617.0</ele><time>2026-03-29T08:24:42.999Z</time></trkpt><trkpt lat="44.37993141543804" lon="8.130732118323376"><ele>616.0</ele><time>2026-03-29T08:24:43.999Z</time></trkpt><trkpt lat="44.37997844375304" lon="8.130570945638675"><ele>615.0</ele><time>2026-03-29T08:24:44.999Z</time></trkpt><trkpt lat="44.38002581074583" lon="8.130404184273159"><ele>615.0</ele><time>2026-03-29T08:24:45.999Z</time></trkpt><trkpt lat="44.38007663607994" lon="8.13022524758262"><ele>615.0</ele><time>2026-03-29T08:24:46.999Z</time></trkpt><trkpt lat="44.380126246434244" lon="8.13005058815982"><ele>615.0</ele><time>2026-03-29T08:24:47.999Z</time></trkpt><trkpt lat="44.3801719780182" lon="8.129889631243548"><ele>615.0</ele><time>2026-03-29T08:24:48.999Z</time></trkpt><trkpt lat="44.38021476478551" lon="8.129742763790382"><ele>611.75</ele><time>2026-03-29T08:24:49.999Z</time></trkpt><trkpt lat="44.3802587327687" lon="8.129591841723736"><ele>608.5</ele><time>2026-03-29T08:24:50.999Z</time></trkpt><trkpt lat="44.380303049845764" lon="8.12943972150857"><ele>605.25</ele><time>2026-03-29T08:24:51.999Z</time></trkpt><trkpt lat="44.38034494412506" lon="8.129295917377773"><ele>602.0</ele><time>2026-03-29T08:24:52.999Z</time></trkpt><trkpt lat="44.38038670998353" lon="8.129152534169561"><ele>602.75</ele><time>2026-03-29T08:24:53.999Z</time></trkpt><trkpt lat="44.380417794276546" lon="8.128995787205763"><ele>603.5</ele><time>2026-03-29T08:24:54.999Z</time></trkpt><trkpt lat="44.38047090311821" lon="8.128849242987165"><ele>604.25</ele><time>2026-03-29T08:24:55.998Z</time></trkpt><trkpt lat="44.380531547000125" lon="8.128706112245888"><ele>605.0</ele><time>2026-03-29T08:24:56.998Z</time></trkpt><trkpt lat="44.38062128598222" lon="8.128560256756657"><ele>605.0</ele><time>2026-03-29T08:24:57.998Z</time></trkpt><trkpt lat="44.38070294233315" lon="8.128405235324403"><ele>605.0</ele><time>2026-03-29T08:24:58.998Z</time></trkpt><trkpt lat="44.38076654740453" lon="8.128248239694305"><ele>605.0</ele><time>2026-03-29T08:24:59.998Z</time></trkpt><trkpt lat="44.38085483055236" lon="8.12808268262229"><ele>605.0</ele><time>2026-03-29T08:25:00.998Z</time></trkpt><trkpt lat="44.38094586858249" lon="8.127932423943992"><ele>599.6666666666666</ele><time>2026-03-29T08:25:01.998Z</time></trkpt><trkpt lat="44.381036658221625" lon="8.127765053005383"><ele>594.3333333333334</ele><time>2026-03-29T08:25:02.998Z</time></trkpt><trkpt lat="44.38114755954787" lon="8.12756294425034"><ele>589.0</ele><time>2026-03-29T08:25:03.998Z</time></trkpt><trkpt lat="44.38125875508175" lon="8.12735114555688"><ele>588.0</ele><time>2026-03-29T08:25:04.998Z</time></trkpt><trkpt lat="44.381346172677524" lon="8.127181014555857"><ele>587.0</ele><time>2026-03-29T08:25:05.998Z</time></trkpt><trkpt lat="44.381451474769534" lon="8.126984401808352"><ele>586.0</ele><time>2026-03-29T08:25:06.998Z</time></trkpt><trkpt lat="44.381555704591406" lon="8.126789680994612"><ele>584.6666666666667</ele><time>2026-03-29T08:25:07.998Z</time></trkpt><trkpt lat="44.38166549367464" lon="8.12658850834709"><ele>583.3333333333334</ele><time>2026-03-29T08:25:08.998Z</time></trkpt><trkpt lat="44.381774333102584" lon="8.126379951733137"><ele>582.0</ele><time>2026-03-29T08:25:09.998Z</time></trkpt><trkpt lat="44.381871221211235" lon="8.126199826695277"><ele>582.0</ele><time>2026-03-29T08:25:10.998Z</time></trkpt><trkpt lat="44.38196683135603" lon="8.126005567112818"><ele>582.0</ele><time>2026-03-29T08:25:11.998Z</time></trkpt><trkpt lat="44.382055408048956" lon="8.12582858363539"><ele>582.0</ele><time>2026-03-29T08:25:12.998Z</time></trkpt><trkpt lat="44.38213421219301" lon="8.12565463210361"><ele>583.5</ele><time>2026-03-29T08:25:13.998Z</time></trkpt><trkpt lat="44.382209551942374" lon="8.125503641860114"><ele>585.0</ele><time>2026-03-29T08:25:14.998Z</time></trkpt><trkpt lat="44.382275190798396" lon="8.125378247877551"><ele>586.5</ele><time>2026-03-29T08:25:15.998Z</time></trkpt><trkpt lat="44.3823424205893" lon="8.125236080276744"><ele>588.0</ele><time>2026-03-29T08:25:16.998Z</time></trkpt><trkpt lat="44.38241556616119" lon="8.125057492661211"><ele>584.5</ele><time>2026-03-29T08:25:17.998Z</time></trkpt><trkpt lat="44.38247503271558" lon="8.124874242966953"><ele>581.0</ele><time>2026-03-29T08:25:18.998Z</time></trkpt><trkpt lat="44.38252868787688" lon="8.12469083335381"><ele>577.5</ele><time>2026-03-29T08:25:20Z</time></trkpt><trkpt lat="44.38259190401154" lon="8.124516193483323"><ele>574.0</ele><time>2026-03-29T08:25:21Z</time></trkpt><trkpt lat="44.38265607103791" lon="8.124358530327216"><ele>574.0</ele><time>2026-03-29T08:25:22Z</time></trkpt><trkpt lat="44.382713150927124" lon="8.124173370191047"><ele>574.0</ele><time>2026-03-29T08:25:23Z</time></trkpt><trkpt lat="44.38276264667193" lon="8.123967417973187"><ele>574.0</ele><time>2026-03-29T08:25:24Z</time></trkpt><trkpt lat="44.382814826139175" lon="8.123740397011867"><ele>572.6666666666667</ele><time>2026-03-29T08:25:25Z</time></trkpt><trkpt lat="44.38285375646365" lon="8.12353872136529"><ele>571.3333333333334</ele><time>2026-03-29T08:25:26Z</time></trkpt><trkpt lat="44.382897295852906" lon="8.123327741185058"><ele>570.0</ele><time>2026-03-29T08:25:27Z</time></trkpt><trkpt lat="44.382941621993865" lon="8.123134754252092"><ele>569.25</ele><time>2026-03-29T08:25:28Z</time></trkpt><trkpt lat="44.38298170986213" lon="8.122961699018578"><ele>568.5</ele><time>2026-03-29T08:25:29Z</time></trkpt><trkpt lat="44.38302704878459" lon="8.122780846524376"><ele>567.75</ele><time>2026-03-29T08:25:30Z</time></trkpt><trkpt lat="44.38307422680578" lon="8.122620540191779"><ele>567.0</ele><time>2026-03-29T08:25:31Z</time></trkpt><trkpt lat="44.38312138224824" lon="8.122481288966963"><ele>565.5</ele><time>2026-03-29T08:25:32Z</time></trkpt><trkpt lat="44.383174844083314" lon="8.122329110837176"><ele>564.0</ele><time>2026-03-29T08:25:33Z</time></trkpt><trkpt lat="44.38323079144095" lon="8.122191661268918"><ele>562.5</ele><time>2026-03-29T08:25:34Z</time></trkpt><trkpt lat="44.383287201690386" lon="8.12205062553762"><ele>561.0</ele><time>2026-03-29T08:25:35Z</time></trkpt><trkpt lat="44.383343491057346" lon="8.121922053003242"><ele>561.0</ele><time>2026-03-29T08:25:36Z</time></trkpt><trkpt lat="44.38341811501227" lon="8.12179988752307"><ele>561.0</ele><time>2026-03-29T08:25:37Z</time></trkpt><trkpt lat="44.38351737308704" lon="8.121659026279477"><ele>561.0</ele><time>2026-03-29T08:25:38Z</time></trkpt><trkpt lat="44.3836107911478" lon="8.12155683126907"><ele>561.0</ele><time>2026-03-29T08:25:39Z</time></trkpt><trkpt lat="44.38370075088055" lon="8.12144817102532"><ele>560.5</ele><time>2026-03-29T08:25:40Z</time></trkpt><trkpt lat="44.38379292532422" lon="8.121338743855215"><ele>560.0</ele><time>2026-03-29T08:25:41Z</time></trkpt><trkpt lat="44.38387961008244" lon="8.12123489426841"><ele>559.5</ele><time>2026-03-29T08:25:42Z</time></trkpt><trkpt lat="44.38396623526068" lon="8.121128237318896"><ele>559.0</ele><time>2026-03-29T08:25:43Z</time></trkpt><trkpt lat="44.38405728055493" lon="8.12100706435803"><ele>558.5</ele><time>2026-03-29T08:25:44Z</time></trkpt><trkpt lat="44.3841431643681" lon="8.120889314030567"><ele>558.0</ele><time>2026-03-29T08:25:45Z</time></trkpt><trkpt lat="44.38422510592821" lon="8.120758239073641"><ele>557.5</ele><time>2026-03-29T08:25:46Z</time></trkpt><trkpt lat="44.384306754249245" lon="8.120623478180006"><ele>557.0</ele><time>2026-03-29T08:25:47Z</time></trkpt><trkpt lat="44.384381227237284" lon="8.120498254052327"><ele>554.5</ele><time>2026-03-29T08:25:48Z</time></trkpt><trkpt lat="44.38446867537416" lon="8.120389552292327"><ele>552.0</ele><time>2026-03-29T08:25:49Z</time></trkpt><trkpt lat="44.38453570062103" lon="8.12025755787686"><ele>549.5</ele><time>2026-03-29T08:25:50Z</time></trkpt><trkpt lat="44.384602212907375" lon="8.120107024892365"><ele>547.0</ele><time>2026-03-29T08:25:51Z</time></trkpt><trkpt lat="44.38468199346206" lon="8.119911000949665"><ele>546.75</ele><time>2026-03-29T08:25:52Z</time></trkpt><trkpt lat="44.38474198222559" lon="8.119728996610581"><ele>546.5</ele><time>2026-03-29T08:25:53Z</time></trkpt><trkpt lat="44.384792050528816" lon="8.119554706482857"><ele>546.25</ele><time>2026-03-29T08:25:54Z</time></trkpt><trkpt lat="44.38484483774112" lon="8.11937507506712"><ele>546.0</ele><time>2026-03-29T08:25:55Z</time></trkpt><trkpt lat="44.3848785708362" lon="8.11919510324697"><ele>546.5</ele><time>2026-03-29T08:25:56Z</time></trkpt><trkpt lat="44.38490970135749" lon="8.1190069013966"><ele>547.0</ele><time>2026-03-29T08:25:57Z</time></trkpt><trkpt lat="44.38493411165479" lon="8.118820436285276"><ele>547.5</ele><time>2026-03-29T08:25:58Z</time></trkpt><trkpt lat="44.38494618716816" lon="8.118621956339338"><ele>548.0</ele><time>2026-03-29T08:25:59Z</time></trkpt><trkpt lat="44.38494677770338" lon="8.118419233267716"><ele>549.0</ele><time>2026-03-29T08:26:00Z</time></trkpt><trkpt lat="44.38494158468372" lon="8.118218569398259"><ele>550.0</ele><time>2026-03-29T08:26:01Z</time></trkpt><trkpt lat="44.38492667996145" lon="8.118026080784418"><ele>551.0</ele><time>2026-03-29T08:26:02Z</time></trkpt><trkpt lat="44.38491015555109" lon="8.117837206997093"><ele>552.0</ele><time>2026-03-29T08:26:03Z</time></trkpt><trkpt lat="44.38489654251467" lon="8.117658902152927"><ele>552.0</ele><time>2026-03-29T08:26:04Z</time></trkpt><trkpt lat="44.3848787665587" lon="8.11746019729188"><ele>552.0</ele><time>2026-03-29T08:26:05Z</time></trkpt><trkpt lat="44.38485078282438" lon="8.11724689048298"><ele>552.0</ele><time>2026-03-29T08:26:05.999Z</time></trkpt><trkpt lat="44.38483870196792" lon="8.117040329262457"><ele>552.0</ele><time>2026-03-29T08:26:06.999Z</time></trkpt><trkpt lat="44.38479652369806" lon="8.116852953024807"><ele>553.25</ele><time>2026-03-29T08:26:07.999Z</time></trkpt><trkpt lat="44.384757836858" lon="8.116673300262647"><ele>554.5</ele><time>2026-03-29T08:26:08.999Z</time></trkpt><trkpt lat="44.384717060837914" lon="8.116499321871434"><ele>555.75</ele><time>2026-03-29T08:26:09.999Z</time></trkpt><trkpt lat="44.38467805458956" lon="8.116340756583629"><ele>557.0</ele><time>2026-03-29T08:26:10.999Z</time></trkpt><trkpt lat="44.384647531638464" lon="8.116198659309433"><ele>552.8000000000001</ele><time>2026-03-29T08:26:11.999Z</time></trkpt><trkpt lat="44.38461554032508" lon="8.116061695843204"><ele>548.6</ele><time>2026-03-29T08:26:12.999Z</time></trkpt><trkpt lat="44.384582635818866" lon="8.115936297489771"><ele>544.4000000000001</ele><time>2026-03-29T08:26:13.999Z</time></trkpt><trkpt lat="44.38454505702435" lon="8.115812172327185"><ele>540.2</ele><time>2026-03-29T08:26:14.999Z</time></trkpt><trkpt lat="44.384493047649684" lon="8.115683713641154"><ele>536.0</ele><time>2026-03-29T08:26:15.999Z</time></trkpt><trkpt lat="44.38442916001173" lon="8.115554306859432"><ele>536.0</ele><time>2026-03-29T08:26:16.999Z</time></trkpt><trkpt lat="44.38436499523304" lon="8.115451741859742"><ele>536.0</ele><time>2026-03-29T08:26:17.999Z</time></trkpt><trkpt lat="44.38428242235269" lon="8.115353337140352"><ele>536.0</ele><time>2026-03-29T08:26:18.999Z</time></trkpt><trkpt lat="44.38417709984476" lon="8.115270708155686"><ele>536.0</ele><time>2026-03-29T08:26:19.999Z</time></trkpt><trkpt lat="44.38408046840858" lon="8.115212665326759"><ele>536.0</ele><time>2026-03-29T08:26:20.999Z</time></trkpt><trkpt lat="44.38399072900013" lon="8.115164184852365"><ele>536.0</ele><time>2026-03-29T08:26:21.999Z</time></trkpt><trkpt lat="44.383898287687565" lon="8.115119839952426"><ele>536.0</ele><time>2026-03-29T08:26:22.999Z</time></trkpt><trkpt lat="44.38381057594454" lon="8.115064170432294"><ele>536.0</ele><time>2026-03-29T08:26:23.999Z</time></trkpt><trkpt lat="44.38372736859217" lon="8.115005281309907"><ele>536.0</ele><time>2026-03-29T08:26:24.999Z</time></trkpt><trkpt lat="44.383656645716755" lon="8.114936388428914"><ele>536.0</ele><time>2026-03-29T08:26:25.999Z</time></trkpt><trkpt lat="44.38359183714743" lon="8.114846733180002"><ele>533.2</ele><time>2026-03-29T08:26:26.999Z</time></trkpt><trkpt lat="44.38353749678311" lon="8.114746099229073"><ele>530.4000000000001</ele><time>2026-03-29T08:26:27.999Z</time></trkpt><trkpt lat="44.38349825962832" lon="8.114636588415674"><ele>527.6</ele><time>2026-03-29T08:26:28.999Z</time></trkpt><trkpt lat="44.38345868187791" lon="8.114515181236094"><ele>524.8000000000001</ele><time>2026-03-29T08:26:29.999Z</time></trkpt><trkpt lat="44.383432544990924" lon="8.114361270922243"><ele>522.0</ele><time>2026-03-29T08:26:30.999Z</time></trkpt><trkpt lat="44.38343285634058" lon="8.114204388893707"><ele>522.75</ele><time>2026-03-29T08:26:31.999Z</time></trkpt><trkpt lat="44.38344714960825" lon="8.114034289188982"><ele>523.5</ele><time>2026-03-29T08:26:32.999Z</time></trkpt><trkpt lat="44.383475512561134" lon="8.113861310262752"><ele>524.25</ele><time>2026-03-29T08:26:33.999Z</time></trkpt><trkpt lat="44.38351348170913" lon="8.113683650452186"><ele>525.0</ele><time>2026-03-29T08:26:34.999Z</time></trkpt><trkpt lat="44.38356138455687" lon="8.113496831367156"><ele>525.0</ele><time>2026-03-29T08:26:35.999Z</time></trkpt><trkpt lat="44.38363037043577" lon="8.113325382914486"><ele>525.0</ele><time>2026-03-29T08:26:36.999Z</time></trkpt><trkpt lat="44.38367115442075" lon="8.113150298866955"><ele>525.0</ele><time>2026-03-29T08:26:37.999Z</time></trkpt><trkpt lat="44.383702027816575" lon="8.112983179435346"><ele>525.0</ele><time>2026-03-29T08:26:38.999Z</time></trkpt><trkpt lat="44.383727740659154" lon="8.112821937732944"><ele>524.6</ele><time>2026-03-29T08:26:39.999Z</time></trkpt><trkpt lat="44.3837525205739" lon="8.112664654061215"><ele>524.2</ele><time>2026-03-29T08:26:40.999Z</time></trkpt><trkpt lat="44.383776953488" lon="8.11251444100759"><ele>523.8</ele><time>2026-03-29T08:26:41.999Z</time></trkpt><trkpt lat="44.38379530148326" lon="8.112375124270926"><ele>523.4</ele><time>2026-03-29T08:26:42.999Z</time></trkpt><trkpt lat="44.38380606706805" lon="8.112235750935076"><ele>523.0</ele><time>2026-03-29T08:26:43.999Z</time></trkpt><trkpt lat="44.38380984334733" lon="8.112087758455488"><ele>523.0</ele><time>2026-03-29T08:26:44.999Z</time></trkpt><trkpt lat="44.38379969939055" lon="8.111926286920367"><ele>523.0</ele><time>2026-03-29T08:26:45.999Z</time></trkpt><trkpt lat="44.38376876217318" lon="8.111762069174185"><ele>523.0</ele><time>2026-03-29T08:26:46.999Z</time></trkpt><trkpt lat="44.383724259723095" lon="8.111591810016014"><ele>523.0</ele><time>2026-03-29T08:26:47.999Z</time></trkpt><trkpt lat="44.38367714337288" lon="8.111435748632914"><ele>523.0</ele><time>2026-03-29T08:26:48.999Z</time></trkpt><trkpt lat="44.38362276552377" lon="8.11127528591065"><ele>523.0</ele><time>2026-03-29T08:26:49.999Z</time></trkpt><trkpt lat="44.383536682790606" lon="8.111113922715363"><ele>523.0</ele><time>2026-03-29T08:26:50.999Z</time></trkpt><trkpt lat="44.383443574816745" lon="8.11096496732612"><ele>523.0</ele><time>2026-03-29T08:26:51.999Z</time></trkpt><trkpt lat="44.38335873472237" lon="8.110846457075711"><ele>524.4</ele><time>2026-03-29T08:26:52.999Z</time></trkpt><trkpt lat="44.38328373806764" lon="8.110728893080108"><ele>525.8</ele><time>2026-03-29T08:26:53.999Z</time></trkpt><trkpt lat="44.38322702033561" lon="8.110624236908194"><ele>527.2</ele><time>2026-03-29T08:26:54.999Z</time></trkpt><trkpt lat="44.383177548240965" lon="8.110508885069654"><ele>528.6</ele><time>2026-03-29T08:26:55.999Z</time></trkpt><trkpt lat="44.38314164174371" lon="8.110354186510575"><ele>530.0</ele><time>2026-03-29T08:26:56.999Z</time></trkpt><trkpt lat="44.38313257197037" lon="8.110162245729324"><ele>530.0</ele><time>2026-03-29T08:26:57.999Z</time></trkpt><trkpt lat="44.38312371296404" lon="8.109977738501064"><ele>530.0</ele><time>2026-03-29T08:26:58.999Z</time></trkpt><trkpt lat="44.383113227872606" lon="8.10977908751165"><ele>530.0</ele><time>2026-03-29T08:26:59.999Z</time></trkpt><trkpt lat="44.383096383082" lon="8.109581518262958"><ele>530.0</ele><time>2026-03-29T08:27:00.999Z</time></trkpt><trkpt lat="44.383068344835856" lon="8.109385155510687"><ele>533.0</ele><time>2026-03-29T08:27:01.999Z</time></trkpt><trkpt lat="44.38303700162862" lon="8.109201493132783"><ele>536.0</ele><time>2026-03-29T08:27:02.999Z</time></trkpt><trkpt lat="44.38296086367949" lon="8.108984411722622"><ele>539.0</ele><time>2026-03-29T08:27:03.998Z</time></trkpt><trkpt lat="44.382897489584025" lon="8.108796401549384"><ele>535.25</ele><time>2026-03-29T08:27:04.998Z</time></trkpt><trkpt lat="44.38283499820197" lon="8.108612297338018"><ele>531.5</ele><time>2026-03-29T08:27:05.998Z</time></trkpt><trkpt lat="44.38277416944821" lon="8.108447155141146"><ele>527.75</ele><time>2026-03-29T08:27:06.998Z</time></trkpt><trkpt lat="44.382711361762084" lon="8.10826861912314"><ele>524.0</ele><time>2026-03-29T08:27:07.998Z</time></trkpt><trkpt lat="44.382659493296146" lon="8.10812342405523"><ele>524.0</ele><time>2026-03-29T08:27:08.998Z</time></trkpt><trkpt lat="44.38258658845388" lon="8.107956111824222"><ele>524.0</ele><time>2026-03-29T08:27:09.998Z</time></trkpt><trkpt lat="44.3825006576173" lon="8.107787567316038"><ele>524.0</ele><time>2026-03-29T08:27:10.998Z</time></trkpt><trkpt lat="44.38238931248947" lon="8.107629798967471"><ele>524.0</ele><time>2026-03-29T08:27:11.998Z</time></trkpt><trkpt lat="44.38227433255678" lon="8.107476858221116"><ele>520.6666666666666</ele><time>2026-03-29T08:27:12.998Z</time></trkpt><trkpt lat="44.38215695276003" lon="8.107318288569603"><ele>517.3333333333334</ele><time>2026-03-29T08:27:13.998Z</time></trkpt><trkpt lat="44.3820365182759" lon="8.107165557224727"><ele>514.0</ele><time>2026-03-29T08:27:14.998Z</time></trkpt><trkpt lat="44.38192668949102" lon="8.107016033148863"><ele>514.0</ele><time>2026-03-29T08:27:15.998Z</time></trkpt><trkpt lat="44.381806583584016" lon="8.106861694232759"><ele>514.0</ele><time>2026-03-29T08:27:16.998Z</time></trkpt><trkpt lat="44.381694116444436" lon="8.10670065428718"><ele>514.0</ele><time>2026-03-29T08:27:17.998Z</time></trkpt><trkpt lat="44.381568536761066" lon="8.106529457392682"><ele>511.33333333333337</ele><time>2026-03-29T08:27:18.998Z</time></trkpt><trkpt lat="44.381466982539536" lon="8.106360589744629"><ele>508.66666666666663</ele><time>2026-03-29T08:27:19.998Z</time></trkpt><trkpt lat="44.38135685065664" lon="8.106193120406514"><ele>506.0</ele><time>2026-03-29T08:27:20.998Z</time></trkpt><trkpt lat="44.38125909376038" lon="8.106048625568386"><ele>506.0</ele><time>2026-03-29T08:27:21.998Z</time></trkpt><trkpt lat="44.381173243177884" lon="8.105905618779941"><ele>506.0</ele><time>2026-03-29T08:27:22.998Z</time></trkpt><trkpt lat="44.38109834571963" lon="8.105772848962006"><ele>506.0</ele><time>2026-03-29T08:27:23.998Z</time></trkpt><trkpt lat="44.38103615006719" lon="8.105673273637942"><ele>506.0</ele><time>2026-03-29T08:27:24.998Z</time></trkpt><trkpt lat="44.3809737578309" lon="8.105560145533861"><ele>507.4</ele><time>2026-03-29T08:27:26Z</time></trkpt><trkpt lat="44.38091552647116" lon="8.105459874221458"><ele>508.8</ele><time>2026-03-29T08:27:27Z</time></trkpt><trkpt lat="44.38085738515307" lon="8.105354190285638"><ele>510.19999999999993</ele><time>2026-03-29T08:27:28Z</time></trkpt><trkpt lat="44.38080506285481" lon="8.1052273074854"><ele>511.59999999999997</ele><time>2026-03-29T08:27:29Z</time></trkpt><trkpt lat="44.38077016559791" lon="8.105095746343787"><ele>513.0</ele><time>2026-03-29T08:27:30Z</time></trkpt><trkpt lat="44.38077175752561" lon="8.104925815602511"><ele>515.25</ele><time>2026-03-29T08:27:31Z</time></trkpt><trkpt lat="44.380762374735745" lon="8.104757123273624"><ele>517.5</ele><time>2026-03-29T08:27:32Z</time></trkpt><trkpt lat="44.380741742393795" lon="8.104579331498954"><ele>519.75</ele><time>2026-03-29T08:27:33Z</time></trkpt><trkpt lat="44.38070320585292" lon="8.104398875574693"><ele>522.0</ele><time>2026-03-29T08:27:34Z</time></trkpt><trkpt lat="44.38064776619864" lon="8.104248916287418"><ele>527.5</ele><time>2026-03-29T08:27:35Z</time></trkpt><trkpt lat="44.38059693389397" lon="8.104070097087183"><ele>533.0</ele><time>2026-03-29T08:27:36Z</time></trkpt><trkpt lat="44.38055017434355" lon="8.10393044555219"><ele>538.5</ele><time>2026-03-29T08:27:37Z</time></trkpt><trkpt lat="44.38050098633595" lon="8.103779490846502"><ele>544.0</ele><time>2026-03-29T08:27:38Z</time></trkpt><trkpt lat="44.38044641903299" lon="8.103631816953856"><ele>537.8</ele><time>2026-03-29T08:27:39Z</time></trkpt><trkpt lat="44.3803853207195" lon="8.103490623263694"><ele>531.5999999999999</ele><time>2026-03-29T08:27:40Z</time></trkpt><trkpt lat="44.3803190489973" lon="8.10334982885928"><ele>525.4</ele><time>2026-03-29T08:27:41Z</time></trkpt><trkpt lat="44.3802584603235" lon="8.103229853441803"><ele>519.1999999999999</ele><time>2026-03-29T08:27:42Z</time></trkpt><trkpt lat="44.3801942726573" lon="8.10311532140242"><ele>513.0</ele><time>2026-03-29T08:27:43Z</time></trkpt><trkpt lat="44.38010611965261" lon="8.102986826699835"><ele>513.0</ele><time>2026-03-29T08:27:44Z</time></trkpt><trkpt lat="44.3800127012989" lon="8.102873160067142"><ele>513.0</ele><time>2026-03-29T08:27:45Z</time></trkpt><trkpt lat="44.37989912324179" lon="8.102745814329865"><ele>513.0</ele><time>2026-03-29T08:27:46Z</time></trkpt><trkpt lat="44.37977814327451" lon="8.10261895512568"><ele>513.0</ele><time>2026-03-29T08:27:47Z</time></trkpt><trkpt lat="44.37965318386979" lon="8.10248694044919"><ele>510.33333333333337</ele><time>2026-03-29T08:27:48Z</time></trkpt><trkpt lat="44.37952582746775" lon="8.102358305418154"><ele>507.6666666666667</ele><time>2026-03-29T08:27:49Z</time></trkpt><trkpt lat="44.37938627979443" lon="8.102211762272901"><ele>505.0</ele><time>2026-03-29T08:27:50Z</time></trkpt><trkpt lat="44.379240589207114" lon="8.102055920149192"><ele>505.0</ele><time>2026-03-29T08:27:51Z</time></trkpt><trkpt lat="44.37910913668247" lon="8.101932029478068"><ele>505.0</ele><time>2026-03-29T08:27:52Z</time></trkpt><trkpt lat="44.378982161313225" lon="8.101798638646208"><ele>505.0</ele><time>2026-03-29T08:27:53Z</time></trkpt><trkpt lat="44.37887587394557" lon="8.101691261041312"><ele>505.0</ele><time>2026-03-29T08:27:54Z</time></trkpt><trkpt lat="44.37876447084811" lon="8.101585490248723"><ele>502.25</ele><time>2026-03-29T08:27:55Z</time></trkpt><trkpt lat="44.378665366080746" lon="8.101479201044802"><ele>499.5</ele><time>2026-03-29T08:27:56Z</time></trkpt><trkpt lat="44.37857177506133" lon="8.101380272886056"><ele>496.75</ele><time>2026-03-29T08:27:57Z</time></trkpt><trkpt lat="44.37849376593261" lon="8.101288779609632"><ele>494.0</ele><time>2026-03-29T08:27:58Z</time></trkpt><trkpt lat="44.3784048695647" lon="8.101174524185751"><ele>494.0</ele><time>2026-03-29T08:27:59Z</time></trkpt><trkpt lat="44.37832380498465" lon="8.101045039635473"><ele>494.0</ele><time>2026-03-29T08:28:00Z</time></trkpt><trkpt lat="44.37824602269774" lon="8.10091483722133"><ele>494.0</ele><time>2026-03-29T08:28:01Z</time></trkpt><trkpt lat="44.37817147468661" lon="8.100761881699297"><ele>494.0</ele><time>2026-03-29T08:28:02Z</time></trkpt><trkpt lat="44.37810076586309" lon="8.100626234936303"><ele>493.25</ele><time>2026-03-29T08:28:03Z</time></trkpt><trkpt lat="44.378024402871354" lon="8.10050372698523"><ele>492.5</ele><time>2026-03-29T08:28:04Z</time></trkpt><trkpt lat="44.3779327266149" lon="8.100384063203753"><ele>491.75</ele><time>2026-03-29T08:28:05Z</time></trkpt><trkpt lat="44.377834823016975" lon="8.100280745245596"><ele>491.0</ele><time>2026-03-29T08:28:06Z</time></trkpt><trkpt lat="44.37774207474855" lon="8.10018051482344"><ele>491.0</ele><time>2026-03-29T08:28:07Z</time></trkpt><trkpt lat="44.37762206322648" lon="8.100054321774774"><ele>491.0</ele><time>2026-03-29T08:28:08Z</time></trkpt><trkpt lat="44.37752333994763" lon="8.099963205721442"><ele>491.0</ele><time>2026-03-29T08:28:09Z</time></trkpt><trkpt lat="44.37743086484749" lon="8.09987011510835"><ele>491.0</ele><time>2026-03-29T08:28:10Z</time></trkpt><trkpt lat="44.37734354238569" lon="8.099778631530032"><ele>490.8</ele><time>2026-03-29T08:28:10.999Z</time></trkpt><trkpt lat="44.377249796682136" lon="8.099706323645743"><ele>490.6</ele><time>2026-03-29T08:28:11.999Z</time></trkpt><trkpt lat="44.37716574871402" lon="8.0996293658201"><ele>490.4</ele><time>2026-03-29T08:28:12.999Z</time></trkpt><trkpt lat="44.37708239364081" lon="8.099548225764654"><ele>490.2</ele><time>2026-03-29T08:28:13.999Z</time></trkpt><trkpt lat="44.377004583068654" lon="8.099480646898929"><ele>490.0</ele><time>2026-03-29T08:28:14.999Z</time></trkpt><trkpt lat="44.376939774341054" lon="8.09942775914718"><ele>490.00000000000006</ele><time>2026-03-29T08:28:15.999Z</time></trkpt><trkpt lat="44.37686425747759" lon="8.09935630629992"><ele>490.0</ele><time>2026-03-29T08:28:16.999Z</time></trkpt><trkpt lat="44.37679253381641" lon="8.09929678382523"><ele>490.0</ele><time>2026-03-29T08:28:17.999Z</time></trkpt><trkpt lat="44.376734961552856" lon="8.099234233165957"><ele>490.0</ele><time>2026-03-29T08:28:18.999Z</time></trkpt><trkpt lat="44.376674139565274" lon="8.099159615506101"><ele>490.00000000000006</ele><time>2026-03-29T08:28:19.999Z</time></trkpt><trkpt lat="44.37659345758641" lon="8.099087446857148"><ele>490.0</ele><time>2026-03-29T08:28:20.999Z</time></trkpt><trkpt lat="44.37656328001921" lon="8.098999199988281"><ele>490.33333333333337</ele><time>2026-03-29T08:28:21.999Z</time></trkpt><trkpt lat="44.37650964221827" lon="8.098896581646507"><ele>490.6666666666667</ele><time>2026-03-29T08:28:22.999Z</time></trkpt><trkpt lat="44.37646186974505" lon="8.098782866161601"><ele>491.0</ele><time>2026-03-29T08:28:23.999Z</time></trkpt><trkpt lat="44.37641685210526" lon="8.098675237697275"><ele>491.33333333333337</ele><time>2026-03-29T08:28:24.999Z</time></trkpt><trkpt lat="44.37639640231527" lon="8.09855762752894"><ele>491.6666666666667</ele><time>2026-03-29T08:28:25.999Z</time></trkpt><trkpt lat="44.37638354758702" lon="8.09844184868335"><ele>492.0</ele><time>2026-03-29T08:28:26.999Z</time></trkpt><trkpt lat="44.37637359993535" lon="8.09830309171083"><ele>491.20000000000005</ele><time>2026-03-29T08:28:27.999Z</time></trkpt><trkpt lat="44.37636838907528" lon="8.098151115436174"><ele>490.40000000000003</ele><time>2026-03-29T08:28:28.999Z</time></trkpt><trkpt lat="44.3763686392533" lon="8.09801226495485"><ele>489.59999999999997</ele><time>2026-03-29T08:28:29.999Z</time></trkpt><trkpt lat="44.37636057705405" lon="8.097874065625168"><ele>488.79999999999995</ele><time>2026-03-29T08:28:30.999Z</time></trkpt><trkpt lat="44.37636140258418" lon="8.097754869319798"><ele>488.0</ele><time>2026-03-29T08:28:31.999Z</time></trkpt><trkpt lat="44.37634453360507" lon="8.09760757699512"><ele>486.2</ele><time>2026-03-29T08:28:32.999Z</time></trkpt><trkpt lat="44.37631423122277" lon="8.09745755300855"><ele>484.4</ele><time>2026-03-29T08:28:33.999Z</time></trkpt><trkpt lat="44.376278584769494" lon="8.097334018360367"><ele>482.59999999999997</ele><time>2026-03-29T08:28:34.999Z</time></trkpt><trkpt lat="44.376237148955525" lon="8.097212125697352"><ele>480.79999999999995</ele><time>2026-03-29T08:28:35.999Z</time></trkpt><trkpt lat="44.37617573145115" lon="8.09709561086793"><ele>479.0</ele><time>2026-03-29T08:28:36.999Z</time></trkpt><trkpt lat="44.37609602867398" lon="8.09697343998464"><ele>479.0</ele><time>2026-03-29T08:28:37.999Z</time></trkpt><trkpt lat="44.376027047749574" lon="8.096873935683297"><ele>479.0</ele><time>2026-03-29T08:28:38.999Z</time></trkpt><trkpt lat="44.37596326307307" lon="8.09679149243097"><ele>479.0</ele><time>2026-03-29T08:28:39.999Z</time></trkpt><trkpt lat="44.37589742413977" lon="8.096693556004288"><ele>479.0</ele><time>2026-03-29T08:28:40.999Z</time></trkpt><trkpt lat="44.37584203426288" lon="8.096602156110174"><ele>479.0</ele><time>2026-03-29T08:28:41.999Z</time></trkpt><trkpt lat="44.37578177887457" lon="8.096514625056352"><ele>479.16666666666663</ele><time>2026-03-29T08:28:42.999Z</time></trkpt><trkpt lat="44.375708461134096" lon="8.096420202262752"><ele>479.3333333333333</ele><time>2026-03-29T08:28:43.999Z</time></trkpt><trkpt lat="44.37565084766139" lon="8.096333645598474"><ele>479.5</ele><time>2026-03-29T08:28:44.999Z</time></trkpt><trkpt lat="44.375604225642576" lon="8.096263722763842"><ele>479.66666666666663</ele><time>2026-03-29T08:28:45.999Z</time></trkpt><trkpt lat="44.37556034518367" lon="8.096190660689997"><ele>479.8333333333333</ele><time>2026-03-29T08:28:46.999Z</time></trkpt><trkpt lat="44.37551127710583" lon="8.096116259750815"><ele>480.0</ele><time>2026-03-29T08:28:47.999Z</time></trkpt><trkpt lat="44.375471946342245" lon="8.09603123228774"><ele>479.2</ele><time>2026-03-29T08:28:48.999Z</time></trkpt><trkpt lat="44.37544607246692" lon="8.095947084407824"><ele>478.4</ele><time>2026-03-29T08:28:49.999Z</time></trkpt><trkpt lat="44.375424223177795" lon="8.095770240129085"><ele>477.6</ele><time>2026-03-29T08:28:51.999Z</time></trkpt><trkpt lat="44.37544487409864" lon="8.095669101158876"><ele>476.8</ele><time>2026-03-29T08:28:52.999Z</time></trkpt><trkpt lat="44.37548009592817" lon="8.09551896216952"><ele>476.0</ele><time>2026-03-29T08:28:54.999Z</time></trkpt><trkpt lat="44.375509207816584" lon="8.095386370919327"><ele>476.20000000000005</ele><time>2026-03-29T08:28:56.999Z</time></trkpt><trkpt lat="44.375543198278756" lon="8.095231691731799"><ele>476.40000000000003</ele><time>2026-03-29T08:28:58.999Z</time></trkpt><trkpt lat="44.37558211133614" lon="8.09506503007916"><ele>476.6</ele><time>2026-03-29T08:29:00.999Z</time></trkpt><trkpt lat="44.37560160932836" lon="8.094979314544153"><ele>476.8</ele><time>2026-03-29T08:29:01.999Z</time></trkpt><trkpt lat="44.37562229482402" lon="8.094888378587386"><ele>477.0</ele><time>2026-03-29T08:29:02.999Z</time></trkpt><trkpt lat="44.37564736692058" lon="8.09477816022938"><ele>477.0</ele><time>2026-03-29T08:29:03.999Z</time></trkpt><trkpt lat="44.37566736857149" lon="8.094687283809243"><ele>477.0</ele><time>2026-03-29T08:29:04.999Z</time></trkpt><trkpt lat="44.37569185412789" lon="8.094578017772772"><ele>477.0</ele><time>2026-03-29T08:29:05.999Z</time></trkpt><trkpt lat="44.37571393695513" lon="8.094479473912127"><ele>477.0</ele><time>2026-03-29T08:29:06.999Z</time></trkpt><trkpt lat="44.37575228431863" lon="8.094308350041462"><ele>477.0</ele><time>2026-03-29T08:29:08.998Z</time></trkpt><trkpt lat="44.37577311943987" lon="8.0942153739654"><ele>477.0</ele><time>2026-03-29T08:29:09.998Z</time></trkpt><trkpt lat="44.37579505238504" lon="8.09411750006719"><ele>476.3333333333333</ele><time>2026-03-29T08:29:10.998Z</time></trkpt><trkpt lat="44.37582540711679" lon="8.093983476193392"><ele>475.66666666666663</ele><time>2026-03-29T08:29:11.998Z</time></trkpt><trkpt lat="44.375849018545075" lon="8.09387885998135"><ele>475.0</ele><time>2026-03-29T08:29:12.998Z</time></trkpt><trkpt lat="44.37586187276611" lon="8.093772686614592"><ele>474.3333333333333</ele><time>2026-03-29T08:29:13.998Z</time></trkpt><trkpt lat="44.37588144205052" lon="8.093673097678874"><ele>473.66666666666663</ele><time>2026-03-29T08:29:14.998Z</time></trkpt><trkpt lat="44.37591929721304" lon="8.093562863594796"><ele>473.0</ele><time>2026-03-29T08:29:15.998Z</time></trkpt><trkpt lat="44.37596287253934" lon="8.093435225320759"><ele>473.0</ele><time>2026-03-29T08:29:16.998Z</time></trkpt><trkpt lat="44.37599977048295" lon="8.093287400421058"><ele>472.99999999999994</ele><time>2026-03-29T08:29:17.998Z</time></trkpt><trkpt lat="44.3760185249692" lon="8.093131259065528"><ele>472.99999999999994</ele><time>2026-03-29T08:29:18.998Z</time></trkpt><trkpt lat="44.376051668313494" lon="8.092977363780241"><ele>473.0</ele><time>2026-03-29T08:29:19.998Z</time></trkpt><trkpt lat="44.37607780697991" lon="8.092832750243465"><ele>473.0</ele><time>2026-03-29T08:29:20.998Z</time></trkpt><trkpt lat="44.37610909094444" lon="8.092715014616157"><ele>472.59999999999997</ele><time>2026-03-29T08:29:21.998Z</time></trkpt><trkpt lat="44.37613348053153" lon="8.092605336741235"><ele>472.19999999999993</ele><time>2026-03-29T08:29:22.998Z</time></trkpt><trkpt lat="44.376155429205596" lon="8.092490554135711"><ele>471.8</ele><time>2026-03-29T08:29:23.998Z</time></trkpt><trkpt lat="44.37617481932619" lon="8.092365731835118"><ele>471.4</ele><time>2026-03-29T08:29:24.998Z</time></trkpt><trkpt lat="44.37619126773266" lon="8.092226895882195"><ele>471.0</ele><time>2026-03-29T08:29:25.998Z</time></trkpt><trkpt lat="44.37621324189599" lon="8.092066755965833"><ele>470.8</ele><time>2026-03-29T08:29:26.998Z</time></trkpt><trkpt lat="44.37623039784848" lon="8.091942142805513"><ele>470.6</ele><time>2026-03-29T08:29:27.998Z</time></trkpt><trkpt lat="44.37624758575533" lon="8.091807718158643"><ele>470.4</ele><time>2026-03-29T08:29:28.998Z</time></trkpt><trkpt lat="44.37626853414042" lon="8.091671603676746"><ele>470.2</ele><time>2026-03-29T08:29:29.998Z</time></trkpt><trkpt lat="44.37628674091729" lon="8.091534991148913"><ele>470.0</ele><time>2026-03-29T08:29:30.998Z</time></trkpt><trkpt lat="44.37630185571192" lon="8.091418209409312"><ele>470.0</ele><time>2026-03-29T08:29:32Z</time></trkpt><trkpt lat="44.3763168290493" lon="8.091289576875154"><ele>470.0</ele><time>2026-03-29T08:29:33Z</time></trkpt><trkpt lat="44.376332935288715" lon="8.09114116423496"><ele>470.0</ele><time>2026-03-29T08:29:34Z</time></trkpt><trkpt lat="44.37635002455805" lon="8.090993719917755"><ele>470.0</ele><time>2026-03-29T08:29:35Z</time></trkpt><trkpt lat="44.376355977369734" lon="8.090858376740714"><ele>470.0</ele><time>2026-03-29T08:29:36Z</time></trkpt><trkpt lat="44.37636489862876" lon="8.090735049308968"><ele>470.0</ele><time>2026-03-29T08:29:37Z</time></trkpt><trkpt lat="44.37636859212016" lon="8.090596426819216"><ele>470.0</ele><time>2026-03-29T08:29:38Z</time></trkpt><trkpt lat="44.376373749189355" lon="8.090455678203519"><ele>470.0</ele><time>2026-03-29T08:29:39Z</time></trkpt><trkpt lat="44.37637944041559" lon="8.090305679064475"><ele>470.0</ele><time>2026-03-29T08:29:40Z</time></trkpt><trkpt lat="44.376385391958685" lon="8.090169262012566"><ele>470.0</ele><time>2026-03-29T08:29:41Z</time></trkpt><trkpt lat="44.37639407152338" lon="8.09007132260576"><ele>470.0</ele><time>2026-03-29T08:29:42Z</time></trkpt><trkpt lat="44.37639634787196" lon="8.089935976368295"><ele>470.0</ele><time>2026-03-29T08:29:43Z</time></trkpt><trkpt lat="44.37639587340123" lon="8.089796627469378"><ele>470.0</ele><time>2026-03-29T08:29:44Z</time></trkpt><trkpt lat="44.37639186026234" lon="8.089650970381484"><ele>470.0</ele><time>2026-03-29T08:29:45Z</time></trkpt><trkpt lat="44.37640640903258" lon="8.089501256071353"><ele>470.0</ele><time>2026-03-29T08:29:46Z</time></trkpt><trkpt lat="44.376403689972605" lon="8.089357595785135"><ele>469.8</ele><time>2026-03-29T08:29:47Z</time></trkpt><trkpt lat="44.37640022045655" lon="8.08921671337022"><ele>469.6</ele><time>2026-03-29T08:29:48Z</time></trkpt><trkpt lat="44.3763928002038" lon="8.089057486737081"><ele>469.4</ele><time>2026-03-29T08:29:49Z</time></trkpt><trkpt lat="44.376384430146686" lon="8.088895442569566"><ele>469.2</ele><time>2026-03-29T08:29:50Z</time></trkpt><trkpt lat="44.3763745522843" lon="8.088746191013572"><ele>469.0</ele><time>2026-03-29T08:29:51Z</time></trkpt><trkpt lat="44.37636492302105" lon="8.088600067709462"><ele>469.0</ele><time>2026-03-29T08:29:52Z</time></trkpt><trkpt lat="44.376349472825034" lon="8.088447910772633"><ele>469.0</ele><time>2026-03-29T08:29:53Z</time></trkpt><trkpt lat="44.37633368292895" lon="8.08829360852219"><ele>469.0</ele><time>2026-03-29T08:29:54Z</time></trkpt><trkpt lat="44.376319978490635" lon="8.0881400522361"><ele>469.0</ele><time>2026-03-29T08:29:55Z</time></trkpt><trkpt lat="44.37630393160725" lon="8.088024506262963"><ele>469.0</ele><time>2026-03-29T08:29:56Z</time></trkpt><trkpt lat="44.376281195677784" lon="8.087892339361245"><ele>468.79999999999995</ele><time>2026-03-29T08:29:57Z</time></trkpt><trkpt lat="44.37626068252212" lon="8.087759285130584"><ele>468.59999999999997</ele><time>2026-03-29T08:29:58Z</time></trkpt><trkpt lat="44.37623662637031" lon="8.08762353008993"><ele>468.4</ele><time>2026-03-29T08:29:59Z</time></trkpt><trkpt lat="44.37621177378426" lon="8.087478338503148"><ele>468.2</ele><time>2026-03-29T08:30:00Z</time></trkpt><trkpt lat="44.376187243562796" lon="8.087350726481244"><ele>468.0</ele><time>2026-03-29T08:30:01Z</time></trkpt><trkpt lat="44.37615515684078" lon="8.087236015327132"><ele>468.0</ele><time>2026-03-29T08:30:02Z</time></trkpt><trkpt lat="44.376108957690754" lon="8.0871195169118"><ele>467.99999999999994</ele><time>2026-03-29T08:30:03Z</time></trkpt><trkpt lat="44.37604379598297" lon="8.086991689863918"><ele>467.99999999999994</ele><time>2026-03-29T08:30:04Z</time></trkpt><trkpt lat="44.37598253773292" lon="8.086881783386234"><ele>468.0</ele><time>2026-03-29T08:30:05Z</time></trkpt><trkpt lat="44.37593132448569" lon="8.086770874261267"><ele>468.0</ele><time>2026-03-29T08:30:06Z</time></trkpt><trkpt lat="44.37589102938214" lon="8.086673853652243"><ele>468.0</ele><time>2026-03-29T08:30:07Z</time></trkpt><trkpt lat="44.37585623697342" lon="8.08657543828936"><ele>467.99999999999994</ele><time>2026-03-29T08:30:08Z</time></trkpt><trkpt lat="44.37582309598043" lon="8.086435850270165"><ele>467.99999999999994</ele><time>2026-03-29T08:30:09Z</time></trkpt><trkpt lat="44.37578800485985" lon="8.086275262248293"><ele>468.0</ele><time>2026-03-29T08:30:10Z</time></trkpt><trkpt lat="44.37575599849446" lon="8.086102323724974"><ele>468.0</ele><time>2026-03-29T08:30:11Z</time></trkpt><trkpt lat="44.37573366523178" lon="8.08589531823221"><ele>468.66666666666663</ele><time>2026-03-29T08:30:12Z</time></trkpt><trkpt lat="44.37571170880364" lon="8.085674758085789"><ele>469.3333333333333</ele><time>2026-03-29T08:30:13Z</time></trkpt><trkpt lat="44.37568019654927" lon="8.0854624246968"><ele>470.0</ele><time>2026-03-29T08:30:14Z</time></trkpt><trkpt lat="44.37564627874779" lon="8.08525377173855"><ele>470.0</ele><time>2026-03-29T08:30:14.999Z</time></trkpt><trkpt lat="44.3755846661945" lon="8.085019731945987"><ele>470.0</ele><time>2026-03-29T08:30:15.999Z</time></trkpt><trkpt lat="44.37552679815582" lon="8.08479416027901"><ele>470.0</ele><time>2026-03-29T08:30:16.999Z</time></trkpt><trkpt lat="44.37545944662749" lon="8.084545836347864"><ele>470.0</ele><time>2026-03-29T08:30:17.999Z</time></trkpt><trkpt lat="44.37537247093208" lon="8.084303996330467"><ele>470.0</ele><time>2026-03-29T08:30:18.999Z</time></trkpt><trkpt lat="44.37528469328035" lon="8.084039654633004"><ele>470.0</ele><time>2026-03-29T08:30:19.999Z</time></trkpt><trkpt lat="44.375204730855934" lon="8.083793407968551"><ele>469.66666666666663</ele><time>2026-03-29T08:30:20.999Z</time></trkpt><trkpt lat="44.375128376970814" lon="8.083546969585006"><ele>469.33333333333337</ele><time>2026-03-29T08:30:21.999Z</time></trkpt><trkpt lat="44.375047888675454" lon="8.083286160874088"><ele>469.0</ele><time>2026-03-29T08:30:22.999Z</time></trkpt><trkpt lat="44.37496317784742" lon="8.083023356558895"><ele>469.0</ele><time>2026-03-29T08:30:23.999Z</time></trkpt><trkpt lat="44.374879763264964" lon="8.08274836005612"><ele>469.0</ele><time>2026-03-29T08:30:24.999Z</time></trkpt><trkpt lat="44.37480532135163" lon="8.08245043910627"><ele>469.0</ele><time>2026-03-29T08:30:25.999Z</time></trkpt><trkpt lat="44.37473146670358" lon="8.082240239671654"><ele>468.33333333333337</ele><time>2026-03-29T08:30:26.999Z</time></trkpt><trkpt lat="44.37465049359137" lon="8.081970167341442"><ele>467.66666666666663</ele><time>2026-03-29T08:30:27.999Z</time></trkpt><trkpt lat="44.37456847411596" lon="8.081701100468944"><ele>467.0</ele><time>2026-03-29T08:30:28.999Z</time></trkpt><trkpt lat="44.37449431218883" lon="8.081432305445587"><ele>467.0</ele><time>2026-03-29T08:30:29.999Z</time></trkpt><trkpt lat="44.37440161012573" lon="8.08114862280306"><ele>467.0</ele><time>2026-03-29T08:30:30.999Z</time></trkpt><trkpt lat="44.37432902124335" lon="8.080905340677596"><ele>467.0</ele><time>2026-03-29T08:30:31.999Z</time></trkpt><trkpt lat="44.37426054586148" lon="8.080660333129666"><ele>467.66666666666663</ele><time>2026-03-29T08:30:32.999Z</time></trkpt><trkpt lat="44.37418673787383" lon="8.0804371444063"><ele>468.33333333333337</ele><time>2026-03-29T08:30:33.999Z</time></trkpt><trkpt lat="44.374137059760166" lon="8.080253789977975"><ele>469.0</ele><time>2026-03-29T08:30:34.999Z</time></trkpt><trkpt lat="44.3740873116839" lon="8.080062141218002"><ele>468.33333333333337</ele><time>2026-03-29T08:30:35.999Z</time></trkpt><trkpt lat="44.374036374444714" lon="8.079858511394324"><ele>467.66666666666663</ele><time>2026-03-29T08:30:36.999Z</time></trkpt><trkpt lat="44.373994755638876" lon="8.079642336327153"><ele>467.0</ele><time>2026-03-29T08:30:37.999Z</time></trkpt><trkpt lat="44.373982142227824" lon="8.079404504492414"><ele>467.0</ele><time>2026-03-29T08:30:38.999Z</time></trkpt><trkpt lat="44.37398798512314" lon="8.079151488943364"><ele>467.0</ele><time>2026-03-29T08:30:39.999Z</time></trkpt><trkpt lat="44.37398763949483" lon="8.078902502151434"><ele>467.0</ele><time>2026-03-29T08:30:40.999Z</time></trkpt><trkpt lat="44.37397776379445" lon="8.078647434722464"><ele>466.66666666666663</ele><time>2026-03-29T08:30:41.999Z</time></trkpt><trkpt lat="44.37397318007118" lon="8.078389264685814"><ele>466.33333333333337</ele><time>2026-03-29T08:30:42.999Z</time></trkpt><trkpt lat="44.37398388880039" lon="8.078160306247334"><ele>466.0</ele><time>2026-03-29T08:30:43.999Z</time></trkpt><trkpt lat="44.3739808601772" lon="8.07795477557382"><ele>465.75</ele><time>2026-03-29T08:30:44.999Z</time></trkpt><trkpt lat="44.37396049184499" lon="8.077771959741009"><ele>465.5</ele><time>2026-03-29T08:30:45.999Z</time></trkpt><trkpt lat="44.37395002296304" lon="8.077590606991482"><ele>465.25</ele><time>2026-03-29T08:30:46.999Z</time></trkpt><trkpt lat="44.37392478140088" lon="8.077386474797379"><ele>465.0</ele><time>2026-03-29T08:30:47.999Z</time></trkpt><trkpt lat="44.37387561630122" lon="8.077176414968582"><ele>463.33333333333337</ele><time>2026-03-29T08:30:48.999Z</time></trkpt><trkpt lat="44.37380777657859" lon="8.076978086546678"><ele>461.6666666666667</ele><time>2026-03-29T08:30:49.999Z</time></trkpt><trkpt lat="44.37372791112538" lon="8.076789561280622"><ele>460.0</ele><time>2026-03-29T08:30:50.999Z</time></trkpt><trkpt lat="44.37365894354174" lon="8.0765598870143"><ele>459.6666666666667</ele><time>2026-03-29T08:30:51.999Z</time></trkpt><trkpt lat="44.373583064809" lon="8.076333641086656"><ele>459.33333333333337</ele><time>2026-03-29T08:30:52.999Z</time></trkpt><trkpt lat="44.37350510277503" lon="8.076101443992034"><ele>459.0</ele><time>2026-03-29T08:30:53.999Z</time></trkpt><trkpt lat="44.37343427817287" lon="8.075886664274698"><ele>459.66666666666663</ele><time>2026-03-29T08:30:54.999Z</time></trkpt><trkpt lat="44.37336156387784" lon="8.075650558474335"><ele>460.3333333333333</ele><time>2026-03-29T08:30:55.999Z</time></trkpt><trkpt lat="44.37329241651974" lon="8.075448134873454"><ele>461.0</ele><time>2026-03-29T08:30:56.999Z</time></trkpt><trkpt lat="44.37321757012492" lon="8.075213312980306"><ele>461.0</ele><time>2026-03-29T08:30:57.999Z</time></trkpt><trkpt lat="44.37314385484685" lon="8.074990809645415"><ele>461.0</ele><time>2026-03-29T08:30:58.999Z</time></trkpt><trkpt lat="44.373076839724575" lon="8.074799295958135"><ele>461.0</ele><time>2026-03-29T08:30:59.999Z</time></trkpt><trkpt lat="44.37301204004472" lon="8.074600596229807"><ele>459.5</ele><time>2026-03-29T08:31:00.999Z</time></trkpt><trkpt lat="44.372954021956076" lon="8.074421517885785"><ele>458.0</ele><time>2026-03-29T08:31:01.999Z</time></trkpt><trkpt lat="44.3728995248446" lon="8.074248945240823"><ele>456.5</ele><time>2026-03-29T08:31:02.999Z</time></trkpt><trkpt lat="44.37285906364483" lon="8.074102760840242"><ele>455.0</ele><time>2026-03-29T08:31:03.999Z</time></trkpt><trkpt lat="44.37282268121697" lon="8.073957463472953"><ele>455.0</ele><time>2026-03-29T08:31:04.999Z</time></trkpt><trkpt lat="44.372796989387" lon="8.073818832740137"><ele>455.0</ele><time>2026-03-29T08:31:05.999Z</time></trkpt><trkpt lat="44.37278164187765" lon="8.073688203914053"><ele>455.0</ele><time>2026-03-29T08:31:06.999Z</time></trkpt><trkpt lat="44.37277336198991" lon="8.073561285504917"><ele>455.0</ele><time>2026-03-29T08:31:07.999Z</time></trkpt><trkpt lat="44.372776945895524" lon="8.073434619382061"><ele>455.0</ele><time>2026-03-29T08:31:08.999Z</time></trkpt><trkpt lat="44.3727857792752" lon="8.073305421712888"><ele>454.4</ele><time>2026-03-29T08:31:09.999Z</time></trkpt><trkpt lat="44.372795353047955" lon="8.073184351990017"><ele>453.8</ele><time>2026-03-29T08:31:10.998Z</time></trkpt><trkpt lat="44.372807608005445" lon="8.073049378325809"><ele>453.20000000000005</ele><time>2026-03-29T08:31:11.998Z</time></trkpt><trkpt lat="44.37282801543978" lon="8.07291855254164"><ele>452.6</ele><time>2026-03-29T08:31:12.998Z</time></trkpt><trkpt lat="44.372858847965055" lon="8.072801359556745"><ele>452.0</ele><time>2026-03-29T08:31:13.998Z</time></trkpt><trkpt lat="44.37290003505263" lon="8.072685876228741"><ele>452.0</ele><time>2026-03-29T08:31:14.998Z</time></trkpt><trkpt lat="44.37294481891441" lon="8.072593300249371"><ele>452.00000000000006</ele><time>2026-03-29T08:31:15.998Z</time></trkpt><trkpt lat="44.37300242833807" lon="8.072504892264645"><ele>452.00000000000006</ele><time>2026-03-29T08:31:16.998Z</time></trkpt><trkpt lat="44.37305201105241" lon="8.072448052311893"><ele>452.0</ele><time>2026-03-29T08:31:17.998Z</time></trkpt><trkpt lat="44.373129233804754" lon="8.072349356965072"><ele>452.0</ele><time>2026-03-29T08:31:19.998Z</time></trkpt><trkpt lat="44.37330039155524" lon="8.072104250961258"><ele>451.40000000000003</ele><time>2026-03-29T08:31:55Z</time></trkpt><trkpt lat="44.37334984850142" lon="8.072035474569628"><ele>450.80000000000007</ele><time>2026-03-29T08:31:56Z</time></trkpt><trkpt lat="44.37341260626592" lon="8.071953527354458"><ele>450.2</ele><time>2026-03-29T08:31:57Z</time></trkpt><trkpt lat="44.37349875763324" lon="8.071852738571906"><ele>449.6</ele><time>2026-03-29T08:31:58Z</time></trkpt><trkpt lat="44.373581196476344" lon="8.071744049454065"><ele>449.0</ele><time>2026-03-29T08:31:59Z</time></trkpt><trkpt lat="44.373694919396115" lon="8.071608943091315"><ele>448.66666666666663</ele><time>2026-03-29T08:32:00Z</time></trkpt><trkpt lat="44.37380160629297" lon="8.071483571534877"><ele>448.33333333333337</ele><time>2026-03-29T08:32:01Z</time></trkpt><trkpt lat="44.37392444231479" lon="8.071349796933344"><ele>448.0</ele><time>2026-03-29T08:32:02Z</time></trkpt><trkpt lat="44.37405633700236" lon="8.071206615175122"><ele>448.0</ele><time>2026-03-29T08:32:03Z</time></trkpt><trkpt lat="44.374177655380144" lon="8.071067419354641"><ele>448.0</ele><time>2026-03-29T08:32:04Z</time></trkpt><trkpt lat="44.374311127971644" lon="8.07090938166475"><ele>448.0</ele><time>2026-03-29T08:32:05Z</time></trkpt><trkpt lat="44.37444353050729" lon="8.070749007504507"><ele>448.33333333333337</ele><time>2026-03-29T08:32:06Z</time></trkpt><trkpt lat="44.37459390333086" lon="8.070583559943056"><ele>448.66666666666663</ele><time>2026-03-29T08:32:07Z</time></trkpt><trkpt lat="44.374733619650044" lon="8.070418984111056"><ele>449.0</ele><time>2026-03-29T08:32:08Z</time></trkpt><trkpt lat="44.37487351178364" lon="8.070251456673294"><ele>449.3333333333333</ele><time>2026-03-29T08:32:09Z</time></trkpt><trkpt lat="44.375016945750964" lon="8.070084589820574"><ele>449.66666666666663</ele><time>2026-03-29T08:32:10Z</time></trkpt><trkpt lat="44.375155426332796" lon="8.069909383030812"><ele>450.0</ele><time>2026-03-29T08:32:11Z</time></trkpt><trkpt lat="44.3752856145581" lon="8.069719100303912"><ele>450.0</ele><time>2026-03-29T08:32:12Z</time></trkpt><trkpt lat="44.375397370636136" lon="8.069515576043004"><ele>450.0</ele><time>2026-03-29T08:32:13Z</time></trkpt><trkpt lat="44.37550189608726" lon="8.069299165228932"><ele>450.0</ele><time>2026-03-29T08:32:14Z</time></trkpt><trkpt lat="44.375580059465584" lon="8.069092544134818"><ele>450.66666666666663</ele><time>2026-03-29T08:32:15Z</time></trkpt><trkpt lat="44.375642965308494" lon="8.068909541893687"><ele>451.3333333333333</ele><time>2026-03-29T08:32:16Z</time></trkpt><trkpt lat="44.37570336003409" lon="8.068692110193933"><ele>452.0</ele><time>2026-03-29T08:32:17Z</time></trkpt><trkpt lat="44.37574619994649" lon="8.068506082625538"><ele>452.0</ele><time>2026-03-29T08:32:18Z</time></trkpt><trkpt lat="44.37577853102829" lon="8.068320929796576"><ele>452.0</ele><time>2026-03-29T08:32:19Z</time></trkpt><trkpt lat="44.375802099127824" lon="8.068127234493138"><ele>452.0</ele><time>2026-03-29T08:32:19.999Z</time></trkpt><trkpt lat="44.37581063257168" lon="8.067950008531925"><ele>452.0</ele><time>2026-03-29T08:32:20.999Z</time></trkpt><trkpt lat="44.375820991716544" lon="8.067798177041745"><ele>453.0</ele><time>2026-03-29T08:32:21.999Z</time></trkpt><trkpt lat="44.375828801594984" lon="8.067671086041837"><ele>454.00000000000006</ele><time>2026-03-29T08:32:22.999Z</time></trkpt><trkpt lat="44.37583310346476" lon="8.067572155852703"><ele>455.00000000000006</ele><time>2026-03-29T08:32:23.999Z</time></trkpt><trkpt lat="44.37585186774777" lon="8.067427849552004"><ele>456.0</ele><time>2026-03-29T08:32:25.999Z</time></trkpt><trkpt lat="44.3758825930457" lon="8.067333783017336"><ele>457.0</ele><time>2026-03-29T08:32:29.999Z</time></trkpt><trkpt lat="44.375909249087925" lon="8.067160124765708"><ele>458.0</ele><time>2026-03-29T08:32:31.999Z</time></trkpt><trkpt lat="44.37590190688058" lon="8.067061873651744"><ele>459.00000000000006</ele><time>2026-03-29T08:32:32.999Z</time></trkpt><trkpt lat="44.37581758660844" lon="8.066905595890066"><ele>460.00000000000006</ele><time>2026-03-29T08:32:34.999Z</time></trkpt><trkpt lat="44.3757574908238" lon="8.066801177320308"><ele>461.0</ele><time>2026-03-29T08:32:35.999Z</time></trkpt><trkpt lat="44.37572642752432" lon="8.066676542975761"><ele>462.0</ele><time>2026-03-29T08:32:36.999Z</time></trkpt><trkpt lat="44.37569990157186" lon="8.066512136911692"><ele>462.0</ele><time>2026-03-29T08:32:37.999Z</time></trkpt><trkpt lat="44.37567811579133" lon="8.0662992466165"><ele>462.0</ele><time>2026-03-29T08:32:38.999Z</time></trkpt><trkpt lat="44.375656024581" lon="8.066123355169577"><ele>462.0</ele><time>2026-03-29T08:32:39.999Z</time></trkpt><trkpt lat="44.37562447056577" lon="8.065922134344495"><ele>462.0</ele><time>2026-03-29T08:32:40.999Z</time></trkpt><trkpt lat="44.37559183181964" lon="8.065719303357012"><ele>460.0</ele><time>2026-03-29T08:32:41.999Z</time></trkpt><trkpt lat="44.37555826644845" lon="8.065499122844173"><ele>458.0</ele><time>2026-03-29T08:32:42.999Z</time></trkpt><trkpt lat="44.375521621227904" lon="8.065259213618663"><ele>456.0</ele><time>2026-03-29T08:32:43.999Z</time></trkpt><trkpt lat="44.37548116229598" lon="8.065009313118205"><ele>450.33333333333337</ele><time>2026-03-29T08:32:44.999Z</time></trkpt><trkpt lat="44.375445193307286" lon="8.064772685544739"><ele>444.6666666666667</ele><time>2026-03-29T08:32:45.999Z</time></trkpt><trkpt lat="44.37540153737395" lon="8.064495091210752"><ele>439.0</ele><time>2026-03-29T08:32:46.999Z</time></trkpt><trkpt lat="44.37536892372106" lon="8.064227482623371"><ele>435.33333333333337</ele><time>2026-03-29T08:32:47.999Z</time></trkpt><trkpt lat="44.37532496520523" lon="8.063934885455591"><ele>431.66666666666663</ele><time>2026-03-29T08:32:48.999Z</time></trkpt><trkpt lat="44.375288976322715" lon="8.063627451980771"><ele>428.0</ele><time>2026-03-29T08:32:49.999Z</time></trkpt><trkpt lat="44.37527197736564" lon="8.06337843200553"><ele>429.0</ele><time>2026-03-29T08:32:50.999Z</time></trkpt><trkpt lat="44.37524980993791" lon="8.06309107979344"><ele>430.0</ele><time>2026-03-29T08:32:51.999Z</time></trkpt><trkpt lat="44.37522996223078" lon="8.062830737708715"><ele>431.0</ele><time>2026-03-29T08:32:52.999Z</time></trkpt><trkpt lat="44.37521059558192" lon="8.062532441193465"><ele>434.5</ele><time>2026-03-29T08:32:53.999Z</time></trkpt><trkpt lat="44.37518293215923" lon="8.062178418942706"><ele>438.0</ele><time>2026-03-29T08:32:54.999Z</time></trkpt><trkpt lat="44.37517984741067" lon="8.061862178610221"><ele>438.5</ele><time>2026-03-29T08:32:55.999Z</time></trkpt><trkpt lat="44.37517429646073" lon="8.06151785624069"><ele>439.0</ele><time>2026-03-29T08:32:56.999Z</time></trkpt><trkpt lat="44.375175098330004" lon="8.061204064605237"><ele>439.0</ele><time>2026-03-29T08:32:57.999Z</time></trkpt><trkpt lat="44.37517081770649" lon="8.06088960907606"><ele>439.0</ele><time>2026-03-29T08:32:58.999Z</time></trkpt><trkpt lat="44.37516162416443" lon="8.060548191802088"><ele>439.5</ele><time>2026-03-29T08:32:59.999Z</time></trkpt><trkpt lat="44.375173389618396" lon="8.060232067716486"><ele>440.0</ele><time>2026-03-29T08:33:00.999Z</time></trkpt><trkpt lat="44.3751695456553" lon="8.059899651519897"><ele>440.5</ele><time>2026-03-29T08:33:01.999Z</time></trkpt><trkpt lat="44.37512929030319" lon="8.059553763076277"><ele>441.0</ele><time>2026-03-29T08:33:02.999Z</time></trkpt><trkpt lat="44.375131451152214" lon="8.05923349605509"><ele>440.0</ele><time>2026-03-29T08:33:03.999Z</time></trkpt><trkpt lat="44.37514061487348" lon="8.05890273536085"><ele>439.0</ele><time>2026-03-29T08:33:04.999Z</time></trkpt><trkpt lat="44.3751512839944" lon="8.058547900415585"><ele>439.0</ele><time>2026-03-29T08:33:05.999Z</time></trkpt><trkpt lat="44.375156940598984" lon="8.05818070613515"><ele>439.0</ele><time>2026-03-29T08:33:06.999Z</time></trkpt><trkpt lat="44.37514007663563" lon="8.057856536134471"><ele>439.0</ele><time>2026-03-29T08:33:07.999Z</time></trkpt><trkpt lat="44.37513842605066" lon="8.057511214334838"><ele>439.0</ele><time>2026-03-29T08:33:08.999Z</time></trkpt><trkpt lat="44.375136466273524" lon="8.057181531175798"><ele>438.6666666666667</ele><time>2026-03-29T08:33:09.999Z</time></trkpt><trkpt lat="44.37513130569051" lon="8.05686863360697"><ele>438.33333333333337</ele><time>2026-03-29T08:33:10.999Z</time></trkpt><trkpt lat="44.375125183334" lon="8.056553532875883"><ele>438.0</ele><time>2026-03-29T08:33:11.999Z</time></trkpt><trkpt lat="44.37513134359801" lon="8.056246689817984"><ele>437.5</ele><time>2026-03-29T08:33:12.999Z</time></trkpt><trkpt lat="44.37511326274382" lon="8.055936222256557"><ele>437.0</ele><time>2026-03-29T08:33:13.999Z</time></trkpt><trkpt lat="44.37511010577476" lon="8.055603934383846"><ele>436.0</ele><time>2026-03-29T08:33:14.999Z</time></trkpt><trkpt lat="44.375107310076324" lon="8.055283879551975"><ele>435.0</ele><time>2026-03-29T08:33:15.999Z</time></trkpt><trkpt lat="44.37510173907836" lon="8.054953014828083"><ele>435.0</ele><time>2026-03-29T08:33:16.998Z</time></trkpt><trkpt lat="44.37511102189694" lon="8.054642218721257"><ele>435.0</ele><time>2026-03-29T08:33:17.998Z</time></trkpt><trkpt lat="44.37510740797571" lon="8.054333203341756"><ele>435.0</ele><time>2026-03-29T08:33:18.998Z</time></trkpt><trkpt lat="44.37510392508417" lon="8.054018848196693"><ele>435.66666666666663</ele><time>2026-03-29T08:33:19.998Z</time></trkpt><trkpt lat="44.37510046395708" lon="8.053706457566276"><ele>436.3333333333333</ele><time>2026-03-29T08:33:20.998Z</time></trkpt><trkpt lat="44.37509718715138" lon="8.053410702839486"><ele>437.0</ele><time>2026-03-29T08:33:21.998Z</time></trkpt><trkpt lat="44.37509348392928" lon="8.05311218976756"><ele>437.0</ele><time>2026-03-29T08:33:22.998Z</time></trkpt><trkpt lat="44.3750892079742" lon="8.05280037657393"><ele>437.0</ele><time>2026-03-29T08:33:23.998Z</time></trkpt><trkpt lat="44.3750850189793" lon="8.05249490645662"><ele>437.0</ele><time>2026-03-29T08:33:24.998Z</time></trkpt><trkpt lat="44.375071017859064" lon="8.052211790829464"><ele>437.0</ele><time>2026-03-29T08:33:25.998Z</time></trkpt><trkpt lat="44.37506146034622" lon="8.051924448796372"><ele>437.0</ele><time>2026-03-29T08:33:26.998Z</time></trkpt><trkpt lat="44.37505952117141" lon="8.051635278763536"><ele>437.0</ele><time>2026-03-29T08:33:27.998Z</time></trkpt><trkpt lat="44.37504843205304" lon="8.051325916076374"><ele>436.66666666666663</ele><time>2026-03-29T08:33:28.998Z</time></trkpt><trkpt lat="44.37504461638565" lon="8.05105030048855"><ele>436.33333333333337</ele><time>2026-03-29T08:33:29.998Z</time></trkpt><trkpt lat="44.37504583047468" lon="8.050792226846163"><ele>436.0</ele><time>2026-03-29T08:33:30.998Z</time></trkpt><trkpt lat="44.37504160398294" lon="8.050552794031056"><ele>436.6666666666667</ele><time>2026-03-29T08:33:31.998Z</time></trkpt><trkpt lat="44.375039397081316" lon="8.050283358349345"><ele>437.33333333333337</ele><time>2026-03-29T08:33:32.998Z</time></trkpt><trkpt lat="44.37504146492818" lon="8.050071797491574"><ele>438.0</ele><time>2026-03-29T08:33:33.998Z</time></trkpt><trkpt lat="44.37506069058646" lon="8.049856709584056"><ele>438.33333333333337</ele><time>2026-03-29T08:33:34.998Z</time></trkpt><trkpt lat="44.375089894141865" lon="8.0496081057228"><ele>438.6666666666667</ele><time>2026-03-29T08:33:35.998Z</time></trkpt><trkpt lat="44.37514185923792" lon="8.049365291974462"><ele>439.0</ele><time>2026-03-29T08:33:36.998Z</time></trkpt><trkpt lat="44.3752065555232" lon="8.049118464568428"><ele>439.33333333333337</ele><time>2026-03-29T08:33:37.998Z</time></trkpt><trkpt lat="44.37526661756111" lon="8.048903772271938"><ele>439.66666666666663</ele><time>2026-03-29T08:33:38.998Z</time></trkpt><trkpt lat="44.375319808889806" lon="8.048702281009279"><ele>440.0</ele><time>2026-03-29T08:33:39.998Z</time></trkpt><trkpt lat="44.37537540660673" lon="8.048515618912504"><ele>440.0</ele><time>2026-03-29T08:33:40.998Z</time></trkpt><trkpt lat="44.37542676823491" lon="8.048345975675984"><ele>440.0</ele><time>2026-03-29T08:33:41.998Z</time></trkpt><trkpt lat="44.37548626532342" lon="8.0481861531803"><ele>440.0</ele><time>2026-03-29T08:33:42.998Z</time></trkpt><trkpt lat="44.37554852844883" lon="8.048027804824233"><ele>440.0</ele><time>2026-03-29T08:33:44Z</time></trkpt><trkpt lat="44.375603363114834" lon="8.047863482017094"><ele>439.75</ele><time>2026-03-29T08:33:45Z</time></trkpt><trkpt lat="44.375647345951236" lon="8.047715856297723"><ele>439.5</ele><time>2026-03-29T08:33:46Z</time></trkpt><trkpt lat="44.37568776111435" lon="8.047567852612026"><ele>439.25</ele><time>2026-03-29T08:33:47Z</time></trkpt><trkpt lat="44.375728214291" lon="8.047416869419672"><ele>439.0</ele><time>2026-03-29T08:33:48Z</time></trkpt><trkpt lat="44.375772863320066" lon="8.047267508030966"><ele>439.0</ele><time>2026-03-29T08:33:49Z</time></trkpt><trkpt lat="44.37581347823842" lon="8.047110238471703"><ele>439.0</ele><time>2026-03-29T08:33:50Z</time></trkpt><trkpt lat="44.375851793543255" lon="8.046969609219666"><ele>439.0</ele><time>2026-03-29T08:33:51Z</time></trkpt><trkpt lat="44.37589055302303" lon="8.046829852599082"><ele>439.0</ele><time>2026-03-29T08:33:52Z</time></trkpt><trkpt lat="44.375930199754556" lon="8.046686810743322"><ele>439.0</ele><time>2026-03-29T08:33:53Z</time></trkpt><trkpt lat="44.375977301043896" lon="8.04652785610183"><ele>439.5</ele><time>2026-03-29T08:33:54Z</time></trkpt><trkpt lat="44.376020605604396" lon="8.046370541482384"><ele>440.0</ele><time>2026-03-29T08:33:55Z</time></trkpt><trkpt lat="44.37606552264729" lon="8.04622099304276"><ele>440.5</ele><time>2026-03-29T08:33:56Z</time></trkpt><trkpt lat="44.376115279061" lon="8.046064274220473"><ele>441.0</ele><time>2026-03-29T08:33:57Z</time></trkpt><trkpt lat="44.37616099952445" lon="8.045907472338728"><ele>441.25</ele><time>2026-03-29T08:33:58Z</time></trkpt><trkpt lat="44.37620103575414" lon="8.045751175035953"><ele>441.5</ele><time>2026-03-29T08:33:59Z</time></trkpt><trkpt lat="44.376242895884715" lon="8.04561077292685"><ele>441.75</ele><time>2026-03-29T08:34:00Z</time></trkpt><trkpt lat="44.37628544743" lon="8.04545568918065"><ele>442.0</ele><time>2026-03-29T08:34:01Z</time></trkpt><trkpt lat="44.37633183322193" lon="8.045305969908227"><ele>441.75</ele><time>2026-03-29T08:34:02Z</time></trkpt><trkpt lat="44.37637170813997" lon="8.045155622635468"><ele>441.5</ele><time>2026-03-29T08:34:03Z</time></trkpt><trkpt lat="44.37642078713305" lon="8.045002991667836"><ele>441.25</ele><time>2026-03-29T08:34:04Z</time></trkpt><trkpt lat="44.37645999344362" lon="8.044844647460955"><ele>441.0</ele><time>2026-03-29T08:34:05Z</time></trkpt><trkpt lat="44.376490648550885" lon="8.044712793119022"><ele>441.0</ele><time>2026-03-29T08:34:06Z</time></trkpt><trkpt lat="44.37654252798217" lon="8.04457139047952"><ele>441.0</ele><time>2026-03-29T08:34:07Z</time></trkpt><trkpt lat="44.37659055091798" lon="8.04442694688988"><ele>441.0</ele><time>2026-03-29T08:34:08Z</time></trkpt><trkpt lat="44.37662396664511" lon="8.044297331320351"><ele>441.0</ele><time>2026-03-29T08:34:09Z</time></trkpt><trkpt lat="44.37666915318266" lon="8.044138953377361"><ele>441.0</ele><time>2026-03-29T08:34:10Z</time></trkpt><trkpt lat="44.376710932634886" lon="8.043996923821602"><ele>441.0</ele><time>2026-03-29T08:34:11Z</time></trkpt><trkpt lat="44.37675622776249" lon="8.043847898947588"><ele>441.0</ele><time>2026-03-29T08:34:12Z</time></trkpt><trkpt lat="44.37679514764626" lon="8.043704786427122"><ele>441.0</ele><time>2026-03-29T08:34:13Z</time></trkpt><trkpt lat="44.3768327419884" lon="8.043575492445166"><ele>441.0</ele><time>2026-03-29T08:34:14Z</time></trkpt><trkpt lat="44.37687566901368" lon="8.043435722015985"><ele>441.0</ele><time>2026-03-29T08:34:15Z</time></trkpt><trkpt lat="44.37692153888768" lon="8.043282829216738"><ele>441.0</ele><time>2026-03-29T08:34:16Z</time></trkpt><trkpt lat="44.376969225278266" lon="8.043150670214553"><ele>441.0</ele><time>2026-03-29T08:34:17Z</time></trkpt><trkpt lat="44.37700887197494" lon="8.043029326747446"><ele>441.0</ele><time>2026-03-29T08:34:18Z</time></trkpt><trkpt lat="44.37705688174874" lon="8.042890832199685"><ele>441.0</ele><time>2026-03-29T08:34:19Z</time></trkpt><trkpt lat="44.37709073037865" lon="8.042759452511186"><ele>441.0</ele><time>2026-03-29T08:34:20Z</time></trkpt><trkpt lat="44.37712520598993" lon="8.042632766646117"><ele>441.0</ele><time>2026-03-29T08:34:21Z</time></trkpt><trkpt lat="44.37715058658422" lon="8.042509474339791"><ele>441.0</ele><time>2026-03-29T08:34:22Z</time></trkpt><trkpt lat="44.37719696164907" lon="8.04239103288313"><ele>441.0</ele><time>2026-03-29T08:34:23Z</time></trkpt><trkpt lat="44.377238631654386" lon="8.042256096434654"><ele>441.0</ele><time>2026-03-29T08:34:24Z</time></trkpt><trkpt lat="44.37727477363056" lon="8.042113362081523"><ele>441.0</ele><time>2026-03-29T08:34:25Z</time></trkpt><trkpt lat="44.37730594943224" lon="8.041991422721953"><ele>440.6666666666667</ele><time>2026-03-29T08:34:25.999Z</time></trkpt><trkpt lat="44.37733614044756" lon="8.041877644208851"><ele>440.33333333333337</ele><time>2026-03-29T08:34:26.999Z</time></trkpt><trkpt lat="44.377365375740226" lon="8.041773905499559"><ele>440.0</ele><time>2026-03-29T08:34:27.999Z</time></trkpt><trkpt lat="44.37739314258175" lon="8.04168324350878"><ele>439.6666666666667</ele><time>2026-03-29T08:34:28.999Z</time></trkpt><trkpt lat="44.3774398405752" lon="8.04156079046189"><ele>439.33333333333337</ele><time>2026-03-29T08:34:30.999Z</time></trkpt><trkpt lat="44.37747922666125" lon="8.041490473783613"><ele>439.0</ele><time>2026-03-29T08:34:31.999Z</time></trkpt><trkpt lat="44.37752636600463" lon="8.04141835481065"><ele>438.83333333333337</ele><time>2026-03-29T08:34:32.999Z</time></trkpt><trkpt lat="44.377569920694526" lon="8.041336321631853"><ele>438.6666666666667</ele><time>2026-03-29T08:34:33.999Z</time></trkpt><trkpt lat="44.37761030352058" lon="8.0412123434137"><ele>438.5</ele><time>2026-03-29T08:34:35.999Z</time></trkpt><trkpt lat="44.377601701507025" lon="8.041123508320746"><ele>438.33333333333337</ele><time>2026-03-29T08:34:36.999Z</time></trkpt><trkpt lat="44.3775690923787" lon="8.041026004311284"><ele>438.1666666666667</ele><time>2026-03-29T08:34:37.999Z</time></trkpt><trkpt lat="44.377531278183284" lon="8.04093089481508"><ele>438.0</ele><time>2026-03-29T08:34:38.999Z</time></trkpt><trkpt lat="44.37749227043449" lon="8.040835610570154"><ele>438.0</ele><time>2026-03-29T08:34:39.999Z</time></trkpt><trkpt lat="44.377462533354915" lon="8.040732359803556"><ele>438.0</ele><time>2026-03-29T08:34:40.999Z</time></trkpt><trkpt lat="44.37743491203684" lon="8.040631825067008"><ele>438.0</ele><time>2026-03-29T08:34:41.999Z</time></trkpt><trkpt lat="44.37740473480771" lon="8.040527486012348"><ele>438.0</ele><time>2026-03-29T08:34:42.999Z</time></trkpt><trkpt lat="44.37737374453071" lon="8.040408472374203"><ele>438.0</ele><time>2026-03-29T08:34:43.999Z</time></trkpt><trkpt lat="44.37734204656181" lon="8.04029939402479"><ele>438.0</ele><time>2026-03-29T08:34:44.999Z</time></trkpt><trkpt lat="44.37732631833053" lon="8.040212627336073"><ele>438.0</ele><time>2026-03-29T08:34:45.999Z</time></trkpt><trkpt lat="44.37731146533004" lon="8.040120796269262"><ele>438.0</ele><time>2026-03-29T08:34:46.999Z</time></trkpt><trkpt lat="44.37729064448794" lon="8.040019909441476"><ele>438.0</ele><time>2026-03-29T08:34:47.999Z</time></trkpt><trkpt lat="44.37725539588082" lon="8.039901207194085"><ele>438.0</ele><time>2026-03-29T08:34:48.999Z</time></trkpt><trkpt lat="44.37720991755858" lon="8.039767513548453"><ele>438.0</ele><time>2026-03-29T08:34:49.999Z</time></trkpt><trkpt lat="44.37717843042007" lon="8.039639732255605"><ele>438.0</ele><time>2026-03-29T08:34:50.999Z</time></trkpt><trkpt lat="44.37714773979324" lon="8.039512496995815"><ele>437.4</ele><time>2026-03-29T08:34:51.999Z</time></trkpt><trkpt lat="44.37711649940742" lon="8.039392039291121"><ele>436.79999999999995</ele><time>2026-03-29T08:34:52.999Z</time></trkpt><trkpt lat="44.37708539397453" lon="8.039263253991743"><ele>436.2</ele><time>2026-03-29T08:34:53.999Z</time></trkpt><trkpt lat="44.377050179241095" lon="8.039129047778241"><ele>435.6</ele><time>2026-03-29T08:34:54.999Z</time></trkpt><trkpt lat="44.37701655221541" lon="8.03899402036674"><ele>435.0</ele><time>2026-03-29T08:34:55.999Z</time></trkpt><trkpt lat="44.376981089976375" lon="8.038862643794424"><ele>434.4</ele><time>2026-03-29T08:34:56.999Z</time></trkpt><trkpt lat="44.376944587679716" lon="8.038727519210944"><ele>433.8</ele><time>2026-03-29T08:34:57.999Z</time></trkpt><trkpt lat="44.37690540685219" lon="8.038595739585473"><ele>433.20000000000005</ele><time>2026-03-29T08:34:58.999Z</time></trkpt><trkpt lat="44.37688211613971" lon="8.03845623597565"><ele>432.6</ele><time>2026-03-29T08:34:59.999Z</time></trkpt><trkpt lat="44.376854874694416" lon="8.038334036802738"><ele>432.0</ele><time>2026-03-29T08:35:00.999Z</time></trkpt><trkpt lat="44.37682512724342" lon="8.038209401582883"><ele>431.6</ele><time>2026-03-29T08:35:01.999Z</time></trkpt><trkpt lat="44.37680263340601" lon="8.03806886788618"><ele>431.20000000000005</ele><time>2026-03-29T08:35:02.999Z</time></trkpt><trkpt lat="44.37676607311933" lon="8.037919334861762"><ele>430.8</ele><time>2026-03-29T08:35:03.999Z</time></trkpt><trkpt lat="44.37674775930079" lon="8.037783888147677"><ele>430.4</ele><time>2026-03-29T08:35:04.999Z</time></trkpt><trkpt lat="44.37672109015723" lon="8.037618721721884"><ele>430.0</ele><time>2026-03-29T08:35:05.999Z</time></trkpt><trkpt lat="44.376717487080356" lon="8.037470011889692"><ele>429.2</ele><time>2026-03-29T08:35:06.999Z</time></trkpt><trkpt lat="44.37672572951436" lon="8.037317063186377"><ele>428.4</ele><time>2026-03-29T08:35:07.999Z</time></trkpt><trkpt lat="44.376737443212775" lon="8.037171148133913"><ele>427.6</ele><time>2026-03-29T08:35:08.999Z</time></trkpt><trkpt lat="44.376760099625045" lon="8.03701831320306"><ele>426.8</ele><time>2026-03-29T08:35:09.999Z</time></trkpt><trkpt lat="44.376800663205174" lon="8.036858318449685"><ele>426.0</ele><time>2026-03-29T08:35:10.999Z</time></trkpt><trkpt lat="44.376853098077206" lon="8.036697781996399"><ele>424.75</ele><time>2026-03-29T08:35:11.999Z</time></trkpt><trkpt lat="44.37690345027343" lon="8.036525565229725"><ele>423.5</ele><time>2026-03-29T08:35:12.999Z</time></trkpt><trkpt lat="44.37696508478507" lon="8.036345734596491"><ele>422.25</ele><time>2026-03-29T08:35:13.999Z</time></trkpt><trkpt lat="44.377043011835376" lon="8.036153262248067"><ele>421.0</ele><time>2026-03-29T08:35:14.999Z</time></trkpt><trkpt lat="44.37711763255634" lon="8.0359449589484"><ele>421.0</ele><time>2026-03-29T08:35:15.999Z</time></trkpt><trkpt lat="44.37720818465949" lon="8.035709646682534"><ele>421.0</ele><time>2026-03-29T08:35:16.999Z</time></trkpt><trkpt lat="44.377286319674525" lon="8.03549314042073"><ele>421.0</ele><time>2026-03-29T08:35:17.999Z</time></trkpt><trkpt lat="44.37737884516115" lon="8.035252182394183"><ele>421.0</ele><time>2026-03-29T08:35:18.999Z</time></trkpt><trkpt lat="44.37746749371649" lon="8.035023599603075"><ele>421.0</ele><time>2026-03-29T08:35:19.999Z</time></trkpt><trkpt lat="44.377563285076036" lon="8.034776143818668"><ele>421.0</ele><time>2026-03-29T08:35:20.999Z</time></trkpt><trkpt lat="44.37765671198118" lon="8.03452823425752"><ele>420.0</ele><time>2026-03-29T08:35:21.998Z</time></trkpt><trkpt lat="44.377759883820474" lon="8.034264323373382"><ele>419.0</ele><time>2026-03-29T08:35:22.998Z</time></trkpt><trkpt lat="44.37785708888312" lon="8.034009159806594"><ele>418.0</ele><time>2026-03-29T08:35:23.998Z</time></trkpt><trkpt lat="44.37793556979148" lon="8.033793952938085"><ele>418.0</ele><time>2026-03-29T08:35:24.998Z</time></trkpt><trkpt lat="44.37802157317271" lon="8.033590927134785"><ele>418.0</ele><time>2026-03-29T08:35:25.998Z</time></trkpt><trkpt lat="44.378096326769985" lon="8.033394443069115"><ele>418.0</ele><time>2026-03-29T08:35:26.998Z</time></trkpt><trkpt lat="44.3781735165458" lon="8.033210351973509"><ele>418.0</ele><time>2026-03-29T08:35:27.998Z</time></trkpt><trkpt lat="44.37825226940687" lon="8.032999816590497"><ele>418.0</ele><time>2026-03-29T08:35:28.998Z</time></trkpt><trkpt lat="44.378331071528834" lon="8.032787885268023"><ele>418.0</ele><time>2026-03-29T08:35:29.998Z</time></trkpt><trkpt lat="44.37840646542019" lon="8.032568964669979"><ele>417.5</ele><time>2026-03-29T08:35:30.998Z</time></trkpt><trkpt lat="44.378476806064036" lon="8.03239773594686"><ele>417.0</ele><time>2026-03-29T08:35:31.998Z</time></trkpt><trkpt lat="44.378546069570724" lon="8.032236970515534"><ele>416.5</ele><time>2026-03-29T08:35:32.998Z</time></trkpt><trkpt lat="44.378606307902146" lon="8.032090371274796"><ele>416.0</ele><time>2026-03-29T08:35:33.998Z</time></trkpt><trkpt lat="44.37866694670055" lon="8.03193573322816"><ele>416.0</ele><time>2026-03-29T08:35:34.998Z</time></trkpt><trkpt lat="44.378722314528325" lon="8.031790907255285"><ele>416.0</ele><time>2026-03-29T08:35:35.998Z</time></trkpt><trkpt lat="44.3787767817707" lon="8.031661191539657"><ele>416.0</ele><time>2026-03-29T08:35:36.998Z</time></trkpt><trkpt lat="44.37883600611525" lon="8.031531714194319"><ele>416.0</ele><time>2026-03-29T08:35:37.998Z</time></trkpt><trkpt lat="44.378889398864786" lon="8.031401903674295"><ele>416.0</ele><time>2026-03-29T08:35:38.998Z</time></trkpt><trkpt lat="44.37894412170985" lon="8.031285186858565"><ele>414.25</ele><time>2026-03-29T08:35:39.998Z</time></trkpt><trkpt lat="44.37902100606664" lon="8.031155152250989"><ele>412.5</ele><time>2026-03-29T08:35:40.998Z</time></trkpt><trkpt lat="44.379109061275535" lon="8.031065278880504"><ele>410.75</ele><time>2026-03-29T08:35:41.998Z</time></trkpt><trkpt lat="44.3792009928587" lon="8.030970525596857"><ele>409.0</ele><time>2026-03-29T08:35:42.998Z</time></trkpt><trkpt lat="44.3793095401174" lon="8.030903836399087"><ele>409.0</ele><time>2026-03-29T08:35:43.998Z</time></trkpt><trkpt lat="44.37941463913933" lon="8.03085083140014"><ele>409.0</ele><time>2026-03-29T08:35:44.998Z</time></trkpt><trkpt lat="44.37952467764213" lon="8.030806766333592"><ele>409.0</ele><time>2026-03-29T08:35:45.998Z</time></trkpt><trkpt lat="44.37962704456025" lon="8.030769500848459"><ele>409.0</ele><time>2026-03-29T08:35:46.998Z</time></trkpt><trkpt lat="44.379735611879426" lon="8.030748527831893"><ele>409.0</ele><time>2026-03-29T08:35:47.998Z</time></trkpt><trkpt lat="44.37985177618801" lon="8.030726237239941"><ele>406.25</ele><time>2026-03-29T08:35:48.998Z</time></trkpt><trkpt lat="44.37997015584115" lon="8.030720581215393"><ele>403.5</ele><time>2026-03-29T08:35:50Z</time></trkpt><trkpt lat="44.38008501240806" lon="8.030716869342545"><ele>400.75</ele><time>2026-03-29T08:35:51Z</time></trkpt><trkpt lat="44.38021409067051" lon="8.030724828701295"><ele>398.0</ele><time>2026-03-29T08:35:52Z</time></trkpt><trkpt lat="44.38030870293648" lon="8.030739495139889"><ele>398.0</ele><time>2026-03-29T08:35:53Z</time></trkpt><trkpt lat="44.38040634101933" lon="8.030758730212064"><ele>398.0</ele><time>2026-03-29T08:35:54Z</time></trkpt><trkpt lat="44.380497010236944" lon="8.030772489980512"><ele>398.0</ele><time>2026-03-29T08:35:55Z</time></trkpt><trkpt lat="44.38058328092219" lon="8.030796872020417"><ele>398.0</ele><time>2026-03-29T08:35:56Z</time></trkpt><trkpt lat="44.38066780165599" lon="8.030842632191177"><ele>398.0</ele><time>2026-03-29T08:35:57Z</time></trkpt><trkpt lat="44.38075156516975" lon="8.030910889351098"><ele>397.2</ele><time>2026-03-29T08:35:58Z</time></trkpt><trkpt lat="44.38081896394419" lon="8.031002784789441"><ele>396.4</ele><time>2026-03-29T08:35:59Z</time></trkpt><trkpt lat="44.380884580319176" lon="8.031118140147836"><ele>395.59999999999997</ele><time>2026-03-29T08:36:00Z</time></trkpt><trkpt lat="44.38094451588008" lon="8.03125327719788"><ele>394.79999999999995</ele><time>2026-03-29T08:36:01Z</time></trkpt><trkpt lat="44.3810180320056" lon="8.031404190253584"><ele>394.0</ele><time>2026-03-29T08:36:02Z</time></trkpt><trkpt lat="44.381097642485436" lon="8.031560063761425"><ele>390.75</ele><time>2026-03-29T08:36:03Z</time></trkpt><trkpt lat="44.381186732674664" lon="8.031728642071041"><ele>387.5</ele><time>2026-03-29T08:36:04Z</time></trkpt><trkpt lat="44.38126215796297" lon="8.031896573787774"><ele>384.25</ele><time>2026-03-29T08:36:05Z</time></trkpt><trkpt lat="44.38134077109383" lon="8.032070653986892"><ele>381.0</ele><time>2026-03-29T08:36:06Z</time></trkpt><trkpt lat="44.38141161551916" lon="8.032231214107133"><ele>381.0</ele><time>2026-03-29T08:36:07Z</time></trkpt><trkpt lat="44.38148559877628" lon="8.032383076315071"><ele>381.0</ele><time>2026-03-29T08:36:08Z</time></trkpt><trkpt lat="44.38155384304882" lon="8.032531788008077"><ele>381.0</ele><time>2026-03-29T08:36:09Z</time></trkpt><trkpt lat="44.38161249331366" lon="8.032659851987368"><ele>381.0</ele><time>2026-03-29T08:36:10Z</time></trkpt><trkpt lat="44.38166432208719" lon="8.03276562411657"><ele>382.8333333333333</ele><time>2026-03-29T08:36:11Z</time></trkpt><trkpt lat="44.38171880774431" lon="8.032870416826032"><ele>384.66666666666663</ele><time>2026-03-29T08:36:12Z</time></trkpt><trkpt lat="44.381769003918464" lon="8.03295533621164"><ele>386.5</ele><time>2026-03-29T08:36:13Z</time></trkpt><trkpt lat="44.38182665552362" lon="8.03302752889577"><ele>388.3333333333333</ele><time>2026-03-29T08:36:14Z</time></trkpt><trkpt lat="44.38189976081908" lon="8.033104369025429"><ele>390.16666666666663</ele><time>2026-03-29T08:36:15Z</time></trkpt><trkpt lat="44.38197998562888" lon="8.033133762580583"><ele>392.0</ele><time>2026-03-29T08:36:16Z</time></trkpt><trkpt lat="44.38206350469438" lon="8.033130703910082"><ele>391.99999999999994</ele><time>2026-03-29T08:36:17Z</time></trkpt><trkpt lat="44.38213798190709" lon="8.03309828895968"><ele>392.0</ele><time>2026-03-29T08:36:18Z</time></trkpt><trkpt lat="44.38220600880624" lon="8.033047376130163"><ele>392.0</ele><time>2026-03-29T08:36:19Z</time></trkpt><trkpt lat="44.382266903781805" lon="8.03296812653036"><ele>392.0</ele><time>2026-03-29T08:36:20Z</time></trkpt><trkpt lat="44.382314837321346" lon="8.032869124117013"><ele>391.99999999999994</ele><time>2026-03-29T08:36:21Z</time></trkpt><trkpt lat="44.38233979210783" lon="8.032746408191809"><ele>392.0</ele><time>2026-03-29T08:36:22Z</time></trkpt><trkpt lat="44.38232701247929" lon="8.032595095067691"><ele>389.0</ele><time>2026-03-29T08:36:23Z</time></trkpt><trkpt lat="44.38232075810411" lon="8.032456431385594"><ele>386.0</ele><time>2026-03-29T08:36:24Z</time></trkpt><trkpt lat="44.38230765256296" lon="8.032306104092271"><ele>383.0</ele><time>2026-03-29T08:36:25Z</time></trkpt><trkpt lat="44.382295995602156" lon="8.032183581920647"><ele>380.0</ele><time>2026-03-29T08:36:26Z</time></trkpt><trkpt lat="44.38228957845156" lon="8.032066815937014"><ele>377.0</ele><time>2026-03-29T08:36:27Z</time></trkpt><trkpt lat="44.38229411014932" lon="8.031958161125877"><ele>377.0</ele><time>2026-03-29T08:36:28Z</time></trkpt><trkpt lat="44.3823017017139" lon="8.03185966038635"><ele>377.0</ele><time>2026-03-29T08:36:29Z</time></trkpt><trkpt lat="44.38231725727853" lon="8.031741877583185"><ele>377.0</ele><time>2026-03-29T08:36:30Z</time></trkpt><trkpt lat="44.382359587607425" lon="8.031629182995585"><ele>377.0</ele><time>2026-03-29T08:36:31Z</time></trkpt><trkpt lat="44.38239871124415" lon="8.031551357720902"><ele>377.0</ele><time>2026-03-29T08:36:31.999Z</time></trkpt><trkpt lat="44.38242220184841" lon="8.031445100694427"><ele>377.0</ele><time>2026-03-29T08:36:32.999Z</time></trkpt><trkpt lat="44.382426956199915" lon="8.031313874517474"><ele>376.8</ele><time>2026-03-29T08:36:33.999Z</time></trkpt><trkpt lat="44.382417638028436" lon="8.031183813949598"><ele>376.6</ele><time>2026-03-29T08:36:34.999Z</time></trkpt><trkpt lat="44.38241995926872" lon="8.031067209405418"><ele>376.40000000000003</ele><time>2026-03-29T08:36:35.999Z</time></trkpt><trkpt lat="44.382457910733976" lon="8.030868102874562"><ele>376.20000000000005</ele><time>2026-03-29T08:36:37.999Z</time></trkpt><trkpt lat="44.3824836381728" lon="8.030732907610654"><ele>376.0</ele><time>2026-03-29T08:36:38.999Z</time></trkpt><trkpt lat="44.382511843495585" lon="8.030575795954725"><ele>375.8</ele><time>2026-03-29T08:36:39.999Z</time></trkpt><trkpt lat="44.3825429647561" lon="8.030466473544164"><ele>375.6</ele><time>2026-03-29T08:36:40.999Z</time></trkpt><trkpt lat="44.38256698027621" lon="8.03033896429048"><ele>375.4</ele><time>2026-03-29T08:36:41.999Z</time></trkpt><trkpt lat="44.38259506866497" lon="8.030217192538299"><ele>375.2</ele><time>2026-03-29T08:36:42.999Z</time></trkpt><trkpt lat="44.382619431607296" lon="8.030076253866708"><ele>375.0</ele><time>2026-03-29T08:36:43.999Z</time></trkpt><trkpt lat="44.38264514291131" lon="8.02993608072465"><ele>375.6</ele><time>2026-03-29T08:36:44.999Z</time></trkpt><trkpt lat="44.382669515093376" lon="8.02980346464594"><ele>376.2</ele><time>2026-03-29T08:36:45.999Z</time></trkpt><trkpt lat="44.382693838422696" lon="8.029679723094892"><ele>376.79999999999995</ele><time>2026-03-29T08:36:46.999Z</time></trkpt><trkpt lat="44.38271602658139" lon="8.029545294211896"><ele>377.4</ele><time>2026-03-29T08:36:47.999Z</time></trkpt><trkpt lat="44.382743554334645" lon="8.02940776450684"><ele>378.0</ele><time>2026-03-29T08:36:48.999Z</time></trkpt><trkpt lat="44.3827707509327" lon="8.029253686083395"><ele>378.4</ele><time>2026-03-29T08:36:49.999Z</time></trkpt><trkpt lat="44.382797123168146" lon="8.029118886797235"><ele>378.79999999999995</ele><time>2026-03-29T08:36:50.999Z</time></trkpt><trkpt lat="44.38282256746963" lon="8.028992084006909"><ele>379.2</ele><time>2026-03-29T08:36:51.999Z</time></trkpt><trkpt lat="44.382842926539574" lon="8.028839669617186"><ele>379.6</ele><time>2026-03-29T08:36:52.999Z</time></trkpt><trkpt lat="44.38286477933901" lon="8.028709073790662"><ele>380.0</ele><time>2026-03-29T08:36:53.999Z</time></trkpt><trkpt lat="44.382891146779" lon="8.02858239001666"><ele>380.0</ele><time>2026-03-29T08:36:54.999Z</time></trkpt><trkpt lat="44.38291456782289" lon="8.028460507834852"><ele>380.0</ele><time>2026-03-29T08:36:55.999Z</time></trkpt><trkpt lat="44.38294123265271" lon="8.028318928755944"><ele>380.0</ele><time>2026-03-29T08:36:56.999Z</time></trkpt><trkpt lat="44.38296995157395" lon="8.028180065183577"><ele>380.0</ele><time>2026-03-29T08:36:57.999Z</time></trkpt><trkpt lat="44.38299831107076" lon="8.028025560368373"><ele>380.0</ele><time>2026-03-29T08:36:58.999Z</time></trkpt><trkpt lat="44.38302304952849" lon="8.027866695919304"><ele>380.0</ele><time>2026-03-29T08:36:59.999Z</time></trkpt><trkpt lat="44.38305513857511" lon="8.027716153238632"><ele>380.0</ele><time>2026-03-29T08:37:00.999Z</time></trkpt><trkpt lat="44.38308843736667" lon="8.02755198000265"><ele>380.0</ele><time>2026-03-29T08:37:01.999Z</time></trkpt><trkpt lat="44.38311168139966" lon="8.027454081724015"><ele>380.0</ele><time>2026-03-29T08:37:02.999Z</time></trkpt><trkpt lat="44.38313332561327" lon="8.027342363603946"><ele>380.0</ele><time>2026-03-29T08:37:03.999Z</time></trkpt><trkpt lat="44.38315875726" lon="8.027211007662753"><ele>380.0</ele><time>2026-03-29T08:37:04.999Z</time></trkpt><trkpt lat="44.38318725598987" lon="8.027070555623867"><ele>380.0</ele><time>2026-03-29T08:37:05.999Z</time></trkpt><trkpt lat="44.3832123105859" lon="8.026928887176894"><ele>380.0</ele><time>2026-03-29T08:37:06.999Z</time></trkpt><trkpt lat="44.383238906213094" lon="8.026796007317529"><ele>380.0</ele><time>2026-03-29T08:37:07.999Z</time></trkpt><trkpt lat="44.38326117872759" lon="8.02666310625652"><ele>380.0</ele><time>2026-03-29T08:37:08.999Z</time></trkpt><trkpt lat="44.383291924588875" lon="8.026533478011416"><ele>380.0</ele><time>2026-03-29T08:37:09.999Z</time></trkpt><trkpt lat="44.38332087442969" lon="8.026390907563007"><ele>380.0</ele><time>2026-03-29T08:37:10.999Z</time></trkpt><trkpt lat="44.383345250305744" lon="8.026253894021023"><ele>380.0</ele><time>2026-03-29T08:37:11.999Z</time></trkpt><trkpt lat="44.38339331132921" lon="8.026104741435368"><ele>380.0</ele><time>2026-03-29T08:37:12.999Z</time></trkpt><trkpt lat="44.38345367896579" lon="8.025981185508293"><ele>380.0</ele><time>2026-03-29T08:37:13.999Z</time></trkpt><trkpt lat="44.38352630824564" lon="8.025852078224677"><ele>382.75</ele><time>2026-03-29T08:37:14.999Z</time></trkpt><trkpt lat="44.38363274336269" lon="8.025742156672852"><ele>385.5</ele><time>2026-03-29T08:37:15.999Z</time></trkpt><trkpt lat="44.38375716606152" lon="8.02566602860266"><ele>388.25</ele><time>2026-03-29T08:37:16.999Z</time></trkpt><trkpt lat="44.383891765774806" lon="8.025669776099491"><ele>391.0</ele><time>2026-03-29T08:37:17.999Z</time></trkpt><trkpt lat="44.38402497195948" lon="8.025666712762039"><ele>390.0</ele><time>2026-03-29T08:37:18.999Z</time></trkpt><trkpt lat="44.38415708616431" lon="8.025711339394116"><ele>389.0</ele><time>2026-03-29T08:37:19.999Z</time></trkpt><trkpt lat="44.384298187784225" lon="8.025767619647933"><ele>388.0</ele><time>2026-03-29T08:37:20.999Z</time></trkpt><trkpt lat="44.384454905660036" lon="8.025846381653373"><ele>387.0</ele><time>2026-03-29T08:37:21.999Z</time></trkpt><trkpt lat="44.38460551175847" lon="8.025943013167618"><ele>391.66666666666663</ele><time>2026-03-29T08:37:22.999Z</time></trkpt><trkpt lat="44.38474444605395" lon="8.026047864882889"><ele>396.3333333333333</ele><time>2026-03-29T08:37:23.999Z</time></trkpt><trkpt lat="44.38488164783386" lon="8.026156218115197"><ele>401.0</ele><time>2026-03-29T08:37:24.999Z</time></trkpt><trkpt lat="44.38499095733825" lon="8.026338307101902"><ele>401.0</ele><time>2026-03-29T08:37:25.999Z</time></trkpt><trkpt lat="44.38509653986359" lon="8.026493592223304"><ele>401.0</ele><time>2026-03-29T08:37:26.999Z</time></trkpt><trkpt lat="44.38518314310995" lon="8.026603307575078"><ele>401.0</ele><time>2026-03-29T08:37:27.998Z</time></trkpt><trkpt lat="44.385239620963524" lon="8.026727740162768"><ele>401.0</ele><time>2026-03-29T08:37:28.998Z</time></trkpt><trkpt lat="44.385260519984406" lon="8.026870282986978"><ele>400.6</ele><time>2026-03-29T08:37:29.998Z</time></trkpt><trkpt lat="44.385302694472465" lon="8.02696844874442"><ele>400.20000000000005</ele><time>2026-03-29T08:37:30.998Z</time></trkpt><trkpt lat="44.38536367650961" lon="8.027126703567959"><ele>399.79999999999995</ele><time>2026-03-29T08:37:32.998Z</time></trkpt><trkpt lat="44.38544009273675" lon="8.02719552649606"><ele>399.4</ele><time>2026-03-29T08:37:34.998Z</time></trkpt><trkpt lat="44.38554912830381" lon="8.027286896046665"><ele>399.0</ele><time>2026-03-29T08:37:36.998Z</time></trkpt><trkpt lat="44.38563099841362" lon="8.027371314313692"><ele>399.0</ele><time>2026-03-29T08:37:38.998Z</time></trkpt><trkpt lat="44.385732287508404" lon="8.027393487819587"><ele>399.0</ele><time>2026-03-29T08:37:40.998Z</time></trkpt><trkpt lat="44.38579548564389" lon="8.027261423422615"><ele>399.0</ele><time>2026-03-29T08:37:42.998Z</time></trkpt><trkpt lat="44.385796273136876" lon="8.027170548386621"><ele>399.0</ele><time>2026-03-29T08:37:43.998Z</time></trkpt><trkpt lat="44.38577962859019" lon="8.02706632710741"><ele>399.0</ele><time>2026-03-29T08:37:44.998Z</time></trkpt><trkpt lat="44.385774886604494" lon="8.026928728943728"><ele>399.0</ele><time>2026-03-29T08:37:45.998Z</time></trkpt><trkpt lat="44.38577123228672" lon="8.026800265238604"><ele>399.0</ele><time>2026-03-29T08:37:46.998Z</time></trkpt><trkpt lat="44.38577417886835" lon="8.026671799525454"><ele>399.0</ele><time>2026-03-29T08:37:47.998Z</time></trkpt><trkpt lat="44.38577873864721" lon="8.026526822853365"><ele>399.0</ele><time>2026-03-29T08:37:48.998Z</time></trkpt><trkpt lat="44.385775535938464" lon="8.026383430732745"><ele>399.0</ele><time>2026-03-29T08:37:49.998Z</time></trkpt><trkpt lat="44.38577764113733" lon="8.02624319550964"><ele>400.6</ele><time>2026-03-29T08:37:50.998Z</time></trkpt><trkpt lat="44.38579231835282" lon="8.026106272620089"><ele>402.2</ele><time>2026-03-29T08:37:51.998Z</time></trkpt><trkpt lat="44.38584140008525" lon="8.025970627780236"><ele>403.8</ele><time>2026-03-29T08:37:52.998Z</time></trkpt><trkpt lat="44.38586040345404" lon="8.025817107833804"><ele>405.40000000000003</ele><time>2026-03-29T08:37:53.998Z</time></trkpt><trkpt lat="44.38585935631122" lon="8.025665765383087"><ele>407.0</ele><time>2026-03-29T08:37:54.998Z</time></trkpt><trkpt lat="44.385883702329124" lon="8.025511725344888"><ele>408.0</ele><time>2026-03-29T08:37:56Z</time></trkpt><trkpt lat="44.38590112539297" lon="8.025347367753287"><ele>409.0</ele><time>2026-03-29T08:37:57Z</time></trkpt><trkpt lat="44.38591053128885" lon="8.02517607613992"><ele>410.0</ele><time>2026-03-29T08:37:58Z</time></trkpt><trkpt lat="44.38593703055904" lon="8.025012023746092"><ele>411.0</ele><time>2026-03-29T08:37:59Z</time></trkpt><trkpt lat="44.38595359329038" lon="8.024835917536299"><ele>411.5</ele><time>2026-03-29T08:38:00Z</time></trkpt><trkpt lat="44.38595227189263" lon="8.024676069576062"><ele>412.0</ele><time>2026-03-29T08:38:01Z</time></trkpt><trkpt lat="44.385984126884885" lon="8.024511263326152"><ele>412.5</ele><time>2026-03-29T08:38:02Z</time></trkpt><trkpt lat="44.38599758506243" lon="8.024368166799517"><ele>413.0</ele><time>2026-03-29T08:38:03Z</time></trkpt><trkpt lat="44.38601214436225" lon="8.024213362416475"><ele>413.25</ele><time>2026-03-29T08:38:04Z</time></trkpt><trkpt lat="44.386028017875674" lon="8.024044584440842"><ele>413.5</ele><time>2026-03-29T08:38:05Z</time></trkpt><trkpt lat="44.3860417756791" lon="8.023898301977228"><ele>413.75</ele><time>2026-03-29T08:38:06Z</time></trkpt><trkpt lat="44.38604485045639" lon="8.023745535700462"><ele>414.0</ele><time>2026-03-29T08:38:07Z</time></trkpt><trkpt lat="44.38605647353877" lon="8.023577535223808"><ele>414.0</ele><time>2026-03-29T08:38:08Z</time></trkpt><trkpt lat="44.38607527756533" lon="8.023434089201892"><ele>414.0</ele><time>2026-03-29T08:38:09Z</time></trkpt><trkpt lat="44.386087610457125" lon="8.023287807827108"><ele>414.0</ele><time>2026-03-29T08:38:10Z</time></trkpt><trkpt lat="44.38611538149583" lon="8.023136092885062"><ele>414.0</ele><time>2026-03-29T08:38:11Z</time></trkpt><trkpt lat="44.38613072561897" lon="8.02298190267119"><ele>414.0</ele><time>2026-03-29T08:38:12Z</time></trkpt><trkpt lat="44.38613235158938" lon="8.0228371992188"><ele>414.2</ele><time>2026-03-29T08:38:13Z</time></trkpt><trkpt lat="44.38615934223936" lon="8.022687575889337"><ele>414.4</ele><time>2026-03-29T08:38:14Z</time></trkpt><trkpt lat="44.38616921715511" lon="8.022535465654716"><ele>414.6</ele><time>2026-03-29T08:38:15Z</time></trkpt><trkpt lat="44.38618390548202" lon="8.02239717991577"><ele>414.8</ele><time>2026-03-29T08:38:16Z</time></trkpt><trkpt lat="44.386203223205264" lon="8.022253949232006"><ele>415.0</ele><time>2026-03-29T08:38:17Z</time></trkpt><trkpt lat="44.386213996811456" lon="8.022115351816366"><ele>415.0</ele><time>2026-03-29T08:38:18Z</time></trkpt><trkpt lat="44.3862285082344" lon="8.021963010174177"><ele>415.0</ele><time>2026-03-29T08:38:19Z</time></trkpt><trkpt lat="44.38624311003417" lon="8.021809359425658"><ele>415.0</ele><time>2026-03-29T08:38:20Z</time></trkpt><trkpt lat="44.38625898385641" lon="8.021633874525298"><ele>415.0</ele><time>2026-03-29T08:38:21Z</time></trkpt><trkpt lat="44.38627664019452" lon="8.021478656762273"><ele>415.0</ele><time>2026-03-29T08:38:22Z</time></trkpt><trkpt lat="44.386288825349574" lon="8.021316933670908"><ele>415.0</ele><time>2026-03-29T08:38:23Z</time></trkpt><trkpt lat="44.38630236538007" lon="8.021165171904835"><ele>415.0</ele><time>2026-03-29T08:38:24Z</time></trkpt><trkpt lat="44.386313633949285" lon="8.02102897898368"><ele>415.0</ele><time>2026-03-29T08:38:25Z</time></trkpt><trkpt lat="44.38633120461991" lon="8.020870647321182"><ele>415.0</ele><time>2026-03-29T08:38:26Z</time></trkpt><trkpt lat="44.386344465340905" lon="8.020705114260808"><ele>414.8</ele><time>2026-03-29T08:38:27Z</time></trkpt><trkpt lat="44.38635257161836" lon="8.020545226254892"><ele>414.6</ele><time>2026-03-29T08:38:28Z</time></trkpt><trkpt lat="44.38637545791361" lon="8.020401219688983"><ele>414.4</ele><time>2026-03-29T08:38:29Z</time></trkpt><trkpt lat="44.386386845650826" lon="8.020247875215539"><ele>414.2</ele><time>2026-03-29T08:38:30Z</time></trkpt><trkpt lat="44.38640040690739" lon="8.020094280916322"><ele>414.0</ele><time>2026-03-29T08:38:31Z</time></trkpt><trkpt lat="44.38641334365488" lon="8.019930621372994"><ele>414.0</ele><time>2026-03-29T08:38:32Z</time></trkpt><trkpt lat="44.386430918332586" lon="8.019766265276196"><ele>414.0</ele><time>2026-03-29T08:38:33Z</time></trkpt><trkpt lat="44.38644604730677" lon="8.019599927937117"><ele>414.0</ele><time>2026-03-29T08:38:34Z</time></trkpt><trkpt lat="44.38646252935568" lon="8.01944775454522"><ele>414.0</ele><time>2026-03-29T08:38:35Z</time></trkpt><trkpt lat="44.386477434880305" lon="8.019292061918952"><ele>414.0</ele><time>2026-03-29T08:38:36Z</time></trkpt><trkpt lat="44.38649131347943" lon="8.019134755239987"><ele>414.0</ele><time>2026-03-29T08:38:36.999Z</time></trkpt><trkpt lat="44.38651033455297" lon="8.018976111462594"><ele>414.0</ele><time>2026-03-29T08:38:37.999Z</time></trkpt><trkpt lat="44.38652805223806" lon="8.018811703904536"><ele>414.0</ele><time>2026-03-29T08:38:38.999Z</time></trkpt><trkpt lat="44.38654220283572" lon="8.01864825300081"><ele>414.0</ele><time>2026-03-29T08:38:39.999Z</time></trkpt><trkpt lat="44.38655925678919" lon="8.018479267604977"><ele>414.0</ele><time>2026-03-29T08:38:40.999Z</time></trkpt><trkpt lat="44.386573095232976" lon="8.018319379367288"><ele>414.0</ele><time>2026-03-29T08:38:41.999Z</time></trkpt><trkpt lat="44.38658971710709" lon="8.018164021024168"><ele>414.0</ele><time>2026-03-29T08:38:42.999Z</time></trkpt><trkpt lat="44.386605773533105" lon="8.018006833421166"><ele>414.0</ele><time>2026-03-29T08:38:43.999Z</time></trkpt><trkpt lat="44.38662035199299" lon="8.017848668798143"><ele>414.0</ele><time>2026-03-29T08:38:44.999Z</time></trkpt><trkpt lat="44.386631080670824" lon="8.017690751665949"><ele>414.0</ele><time>2026-03-29T08:38:45.999Z</time></trkpt><trkpt lat="44.38664949838432" lon="8.017532444599183"><ele>414.0</ele><time>2026-03-29T08:38:46.999Z</time></trkpt><trkpt lat="44.386664728132494" lon="8.017373698092474"><ele>414.0</ele><time>2026-03-29T08:38:47.999Z</time></trkpt><trkpt lat="44.38668035845166" lon="8.01722318538341"><ele>414.0</ele><time>2026-03-29T08:38:48.999Z</time></trkpt><trkpt lat="44.38669581552635" lon="8.017059439546575"><ele>414.0</ele><time>2026-03-29T08:38:49.999Z</time></trkpt><trkpt lat="44.38671354522644" lon="8.016890684863387"><ele>414.0</ele><time>2026-03-29T08:38:50.999Z</time></trkpt><trkpt lat="44.38673183889099" lon="8.016732387929906"><ele>413.75</ele><time>2026-03-29T08:38:51.999Z</time></trkpt><trkpt lat="44.3867502346736" lon="8.016562197360264"><ele>413.5</ele><time>2026-03-29T08:38:52.999Z</time></trkpt><trkpt lat="44.38676502891021" lon="8.016407553817162"><ele>413.25</ele><time>2026-03-29T08:38:53.999Z</time></trkpt><trkpt lat="44.386774365759216" lon="8.016241303327515"><ele>413.0</ele><time>2026-03-29T08:38:54.999Z</time></trkpt><trkpt lat="44.38678951356089" lon="8.016077221090796"><ele>413.0</ele><time>2026-03-29T08:38:55.999Z</time></trkpt><trkpt lat="44.386801371861964" lon="8.015902821431988"><ele>413.0</ele><time>2026-03-29T08:38:56.999Z</time></trkpt><trkpt lat="44.38681452634203" lon="8.015725832061088"><ele>413.0</ele><time>2026-03-29T08:38:57.999Z</time></trkpt><trkpt lat="44.38683869531034" lon="8.015566482417027"><ele>413.0</ele><time>2026-03-29T08:38:58.999Z</time></trkpt><trkpt lat="44.38685456141183" lon="8.015404190549289"><ele>413.0</ele><time>2026-03-29T08:38:59.999Z</time></trkpt><trkpt lat="44.3868726805262" lon="8.015234500447807"><ele>413.0</ele><time>2026-03-29T08:39:00.999Z</time></trkpt><trkpt lat="44.386886782926325" lon="8.015064521652588"><ele>413.0</ele><time>2026-03-29T08:39:01.999Z</time></trkpt><trkpt lat="44.386903187810724" lon="8.014907207889443"><ele>413.0</ele><time>2026-03-29T08:39:02.999Z</time></trkpt><trkpt lat="44.38691881250025" lon="8.014755394341591"><ele>413.0</ele><time>2026-03-29T08:39:03.999Z</time></trkpt><trkpt lat="44.38693116377866" lon="8.014602313913327"><ele>413.0</ele><time>2026-03-29T08:39:04.999Z</time></trkpt><trkpt lat="44.386939955082966" lon="8.01444919190512"><ele>413.0</ele><time>2026-03-29T08:39:05.999Z</time></trkpt><trkpt lat="44.386956557037635" lon="8.014293750199094"><ele>413.0</ele><time>2026-03-29T08:39:06.999Z</time></trkpt><trkpt lat="44.38697428826218" lon="8.014145459610141"><ele>413.0</ele><time>2026-03-29T08:39:07.999Z</time></trkpt><trkpt lat="44.3869892259827" lon="8.013987786468252"><ele>413.0</ele><time>2026-03-29T08:39:08.999Z</time></trkpt><trkpt lat="44.387001195030535" lon="8.013823788206883"><ele>413.0</ele><time>2026-03-29T08:39:09.999Z</time></trkpt><trkpt lat="44.38701729472253" lon="8.013673244785783"><ele>413.0</ele><time>2026-03-29T08:39:10.999Z</time></trkpt><trkpt lat="44.38703062605279" lon="8.013528602014837"><ele>413.0</ele><time>2026-03-29T08:39:11.999Z</time></trkpt><trkpt lat="44.387042126145055" lon="8.013378179259048"><ele>413.0</ele><time>2026-03-29T08:39:12.999Z</time></trkpt><trkpt lat="44.38705117726407" lon="8.013218577887065"><ele>412.75</ele><time>2026-03-29T08:39:13.999Z</time></trkpt><trkpt lat="44.38708481842059" lon="8.01306372653986"><ele>412.5</ele><time>2026-03-29T08:39:14.999Z</time></trkpt><trkpt lat="44.387099603881715" lon="8.012903485646094"><ele>412.25</ele><time>2026-03-29T08:39:15.999Z</time></trkpt><trkpt lat="44.38711492478015" lon="8.012739277490589"><ele>412.0</ele><time>2026-03-29T08:39:16.999Z</time></trkpt><trkpt lat="44.38713176182601" lon="8.01258635366932"><ele>412.20000000000005</ele><time>2026-03-29T08:39:17.999Z</time></trkpt><trkpt lat="44.38714738798999" lon="8.012429113844675"><ele>412.4</ele><time>2026-03-29T08:39:18.999Z</time></trkpt><trkpt lat="44.38716232853253" lon="8.012276773820764"><ele>412.6</ele><time>2026-03-29T08:39:19.999Z</time></trkpt><trkpt lat="44.38718067795312" lon="8.012122034264353"><ele>412.79999999999995</ele><time>2026-03-29T08:39:20.999Z</time></trkpt><trkpt lat="44.387193349299515" lon="8.011970330611756"><ele>413.0</ele><time>2026-03-29T08:39:21.999Z</time></trkpt><trkpt lat="44.387202229995744" lon="8.01180291019992"><ele>412.75</ele><time>2026-03-29T08:39:22.999Z</time></trkpt><trkpt lat="44.38721538130458" lon="8.011634860277338"><ele>412.5</ele><time>2026-03-29T08:39:23.999Z</time></trkpt><trkpt lat="44.387232716471566" lon="8.011463370919044"><ele>412.25</ele><time>2026-03-29T08:39:24.999Z</time></trkpt><trkpt lat="44.38726018373598" lon="8.011293143886878"><ele>412.0</ele><time>2026-03-29T08:39:25.999Z</time></trkpt><trkpt lat="44.3872985328372" lon="8.011127088720198"><ele>412.0</ele><time>2026-03-29T08:39:26.999Z</time></trkpt><trkpt lat="44.38734993138168" lon="8.010966793203869"><ele>412.0</ele><time>2026-03-29T08:39:27.999Z</time></trkpt><trkpt lat="44.38742078131006" lon="8.01082601985602"><ele>412.0</ele><time>2026-03-29T08:39:28.999Z</time></trkpt><trkpt lat="44.38749052958361" lon="8.010672483516851"><ele>412.0</ele><time>2026-03-29T08:39:29.999Z</time></trkpt><trkpt lat="44.38756379862906" lon="8.010531957330121"><ele>414.25</ele><time>2026-03-29T08:39:30.999Z</time></trkpt><trkpt lat="44.38764749157259" lon="8.010380301232383"><ele>416.5</ele><time>2026-03-29T08:39:31.999Z</time></trkpt><trkpt lat="44.3877386526119" lon="8.01024150463764"><ele>418.75</ele><time>2026-03-29T08:39:32.999Z</time></trkpt><trkpt lat="44.38784351390665" lon="8.010116059756475"><ele>421.0</ele><time>2026-03-29T08:39:33.998Z</time></trkpt><trkpt lat="44.38796453939775" lon="8.009981692849832"><ele>422.0</ele><time>2026-03-29T08:39:34.998Z</time></trkpt><trkpt lat="44.38808829278465" lon="8.009864234671582"><ele>423.0</ele><time>2026-03-29T08:39:35.998Z</time></trkpt><trkpt lat="44.38821419583864" lon="8.00975229813113"><ele>424.0</ele><time>2026-03-29T08:39:36.998Z</time></trkpt><trkpt lat="44.38834379252378" lon="8.009617143452616"><ele>424.0</ele><time>2026-03-29T08:39:37.998Z</time></trkpt><trkpt lat="44.388481248108164" lon="8.00948090009814"><ele>424.0</ele><time>2026-03-29T08:39:38.998Z</time></trkpt><trkpt lat="44.38861893277485" lon="8.009337411149499"><ele>424.0</ele><time>2026-03-29T08:39:39.998Z</time></trkpt><trkpt lat="44.388766866976106" lon="8.009182945214413"><ele>424.33333333333337</ele><time>2026-03-29T08:39:40.998Z</time></trkpt><trkpt lat="44.38891217293113" lon="8.009023748111437"><ele>424.66666666666663</ele><time>2026-03-29T08:39:41.998Z</time></trkpt><trkpt lat="44.38903293364194" lon="8.00885376418553"><ele>425.0</ele><time>2026-03-29T08:39:42.998Z</time></trkpt><trkpt lat="44.38916731434386" lon="8.008679167369731"><ele>425.0</ele><time>2026-03-29T08:39:43.998Z</time></trkpt><trkpt lat="44.389288285973095" lon="8.008529290554531"><ele>425.0</ele><time>2026-03-29T08:39:44.998Z</time></trkpt><trkpt lat="44.38941685962675" lon="8.008341494217243"><ele>425.0</ele><time>2026-03-29T08:39:45.998Z</time></trkpt><trkpt lat="44.38955068985086" lon="8.008163205876762"><ele>425.0</ele><time>2026-03-29T08:39:46.998Z</time></trkpt><trkpt lat="44.38968935951872" lon="8.007969492019788"><ele>425.0</ele><time>2026-03-29T08:39:47.998Z</time></trkpt><trkpt lat="44.389829644127744" lon="8.007788195830342"><ele>425.0</ele><time>2026-03-29T08:39:48.998Z</time></trkpt><trkpt lat="44.389983171561965" lon="8.007613740534849"><ele>425.0</ele><time>2026-03-29T08:39:49.998Z</time></trkpt><trkpt lat="44.39011229013962" lon="8.007393730281292"><ele>425.0</ele><time>2026-03-29T08:39:50.998Z</time></trkpt><trkpt lat="44.39026377102834" lon="8.007201421737957"><ele>425.0</ele><time>2026-03-29T08:39:51.998Z</time></trkpt><trkpt lat="44.39041963884741" lon="8.007003414746881"><ele>425.0</ele><time>2026-03-29T08:39:52.998Z</time></trkpt><trkpt lat="44.39057117178629" lon="8.006795563428563"><ele>425.0</ele><time>2026-03-29T08:39:53.998Z</time></trkpt><trkpt lat="44.39074420564089" lon="8.006618992221139"><ele>425.0</ele><time>2026-03-29T08:39:54.998Z</time></trkpt><trkpt lat="44.39089634956808" lon="8.006418254177841"><ele>425.0</ele><time>2026-03-29T08:39:55.998Z</time></trkpt><trkpt lat="44.39103423917924" lon="8.006238713463187"><ele>425.0</ele><time>2026-03-29T08:39:56.998Z</time></trkpt><trkpt lat="44.391169142645936" lon="8.006076952648652"><ele>425.0</ele><time>2026-03-29T08:39:57.998Z</time></trkpt><trkpt lat="44.39131138690027" lon="8.005900287663913"><ele>424.66666666666663</ele><time>2026-03-29T08:39:58.998Z</time></trkpt><trkpt lat="44.39143997957721" lon="8.005727126860245"><ele>424.33333333333337</ele><time>2026-03-29T08:39:59.998Z</time></trkpt><trkpt lat="44.39154380933193" lon="8.005527647326401"><ele>424.0</ele><time>2026-03-29T08:40:00.998Z</time></trkpt><trkpt lat="44.39165370709672" lon="8.00532978259553"><ele>424.0</ele><time>2026-03-29T08:40:02Z</time></trkpt><trkpt lat="44.391726120836324" lon="8.005131806807475"><ele>424.0</ele><time>2026-03-29T08:40:03Z</time></trkpt><trkpt lat="44.39179866379284" lon="8.004908680273656"><ele>424.0</ele><time>2026-03-29T08:40:04Z</time></trkpt><trkpt lat="44.3918882321199" lon="8.004663241967892"><ele>424.33333333333337</ele><time>2026-03-29T08:40:05Z</time></trkpt><trkpt lat="44.392005941108685" lon="8.00443987713725"><ele>424.66666666666663</ele><time>2026-03-29T08:40:06Z</time></trkpt><trkpt lat="44.392089466495435" lon="8.004193641323477"><ele>425.0</ele><time>2026-03-29T08:40:07Z</time></trkpt><trkpt lat="44.39217497859711" lon="8.003943997412177"><ele>424.0</ele><time>2026-03-29T08:40:08Z</time></trkpt><trkpt lat="44.39224064199298" lon="8.00372206140566"><ele>423.0</ele><time>2026-03-29T08:40:09Z</time></trkpt><trkpt lat="44.39232732154457" lon="8.003504151376688"><ele>422.0</ele><time>2026-03-29T08:40:10Z</time></trkpt><trkpt lat="44.39239859059463" lon="8.003291187208726"><ele>421.3333333333333</ele><time>2026-03-29T08:40:11Z</time></trkpt><trkpt lat="44.39247054146366" lon="8.003057643447917"><ele>420.66666666666663</ele><time>2026-03-29T08:40:12Z</time></trkpt><trkpt lat="44.39254896415584" lon="8.002817916667857"><ele>420.0</ele><time>2026-03-29T08:40:13Z</time></trkpt><trkpt lat="44.39259776474558" lon="8.00255905556712"><ele>419.33333333333337</ele><time>2026-03-29T08:40:14Z</time></trkpt><trkpt lat="44.39265052583302" lon="8.002318097007263"><ele>418.6666666666667</ele><time>2026-03-29T08:40:15Z</time></trkpt><trkpt lat="44.392696604924026" lon="8.002058463158594"><ele>418.0</ele><time>2026-03-29T08:40:16Z</time></trkpt><trkpt lat="44.39275547666184" lon="8.001780396368732"><ele>418.33333333333337</ele><time>2026-03-29T08:40:17Z</time></trkpt><trkpt lat="44.392810428391265" lon="8.001501775211235"><ele>418.66666666666663</ele><time>2026-03-29T08:40:18Z</time></trkpt><trkpt lat="44.392869942930425" lon="8.001208499214199"><ele>419.0</ele><time>2026-03-29T08:40:19Z</time></trkpt><trkpt lat="44.3929262817948" lon="8.000900843349358"><ele>419.0</ele><time>2026-03-29T08:40:20Z</time></trkpt><trkpt lat="44.39298779257401" lon="8.000594959996961"><ele>419.0</ele><time>2026-03-29T08:40:21Z</time></trkpt><trkpt lat="44.39303729794636" lon="8.000330252869437"><ele>419.0</ele><time>2026-03-29T08:40:22Z</time></trkpt><trkpt lat="44.393057782570814" lon="8.000053665879202"><ele>418.66666666666663</ele><time>2026-03-29T08:40:23Z</time></trkpt><trkpt lat="44.39309558638762" lon="7.999791935268015"><ele>418.33333333333337</ele><time>2026-03-29T08:40:24Z</time></trkpt><trkpt lat="44.393151573504866" lon="7.999546163848236"><ele>418.0</ele><time>2026-03-29T08:40:25Z</time></trkpt><trkpt lat="44.39319895805409" lon="7.999288160522839"><ele>418.0</ele><time>2026-03-29T08:40:26Z</time></trkpt><trkpt lat="44.39327042491049" lon="7.999036497868883"><ele>418.0</ele><time>2026-03-29T08:40:27Z</time></trkpt><trkpt lat="44.3933753778114" lon="7.998807854764022"><ele>418.0</ele><time>2026-03-29T08:40:28Z</time></trkpt><trkpt lat="44.39345991582373" lon="7.998556544124438"><ele>419.0</ele><time>2026-03-29T08:40:29Z</time></trkpt><trkpt lat="44.39357457350261" lon="7.998321156461305"><ele>420.0</ele><time>2026-03-29T08:40:30Z</time></trkpt><trkpt lat="44.39367985108515" lon="7.998061984527648"><ele>421.0</ele><time>2026-03-29T08:40:31Z</time></trkpt><trkpt lat="44.39378253323196" lon="7.99780263111739"><ele>420.6666666666667</ele><time>2026-03-29T08:40:32Z</time></trkpt><trkpt lat="44.3938871338264" lon="7.997540005944426"><ele>420.33333333333337</ele><time>2026-03-29T08:40:33Z</time></trkpt><trkpt lat="44.393995993344305" lon="7.997256301708181"><ele>420.0</ele><time>2026-03-29T08:40:34Z</time></trkpt><trkpt lat="44.394100738252405" lon="7.9969735334351855"><ele>419.66666666666663</ele><time>2026-03-29T08:40:35Z</time></trkpt><trkpt lat="44.39419229807559" lon="7.996717149087909"><ele>419.3333333333333</ele><time>2026-03-29T08:40:36Z</time></trkpt><trkpt lat="44.39428162915623" lon="7.996464484977301"><ele>419.0</ele><time>2026-03-29T08:40:37Z</time></trkpt><trkpt lat="44.394377144927574" lon="7.996204809385359"><ele>419.3333333333333</ele><time>2026-03-29T08:40:38Z</time></trkpt><trkpt lat="44.39447465790298" lon="7.995940368019803"><ele>419.66666666666663</ele><time>2026-03-29T08:40:39Z</time></trkpt><trkpt lat="44.3945728991498" lon="7.995661232325589"><ele>420.0</ele><time>2026-03-29T08:40:40Z</time></trkpt><trkpt lat="44.39466528782438" lon="7.9954072979010204"><ele>419.33333333333337</ele><time>2026-03-29T08:40:41Z</time></trkpt><trkpt lat="44.394749206073804" lon="7.99517664483908"><ele>418.6666666666667</ele><time>2026-03-29T08:40:42Z</time></trkpt><trkpt lat="44.394834039252785" lon="7.994943476733681"><ele>418.0</ele><time>2026-03-29T08:40:43Z</time></trkpt><trkpt lat="44.394926628052154" lon="7.994688867789113"><ele>418.0</ele><time>2026-03-29T08:40:43.999Z</time></trkpt><trkpt lat="44.39502107383403" lon="7.994429127460235"><ele>418.0</ele><time>2026-03-29T08:40:44.999Z</time></trkpt><trkpt lat="44.39511936933157" lon="7.9941587995846595"><ele>418.0</ele><time>2026-03-29T08:40:45.999Z</time></trkpt><trkpt lat="44.39521421529882" lon="7.993897013271982"><ele>418.0</ele><time>2026-03-29T08:40:46.999Z</time></trkpt><trkpt lat="44.395313662790024" lon="7.993621109312217"><ele>418.0</ele><time>2026-03-29T08:40:47.999Z</time></trkpt><trkpt lat="44.3954175801233" lon="7.993332804268384"><ele>417.6666666666667</ele><time>2026-03-29T08:40:48.999Z</time></trkpt><trkpt lat="44.39551229822757" lon="7.993071082744827"><ele>417.33333333333337</ele><time>2026-03-29T08:40:49.999Z</time></trkpt><trkpt lat="44.39560367368551" lon="7.992819186889287"><ele>417.0</ele><time>2026-03-29T08:40:50.999Z</time></trkpt><trkpt lat="44.39568789707137" lon="7.99258700728187"><ele>417.66666666666663</ele><time>2026-03-29T08:40:51.999Z</time></trkpt><trkpt lat="44.39585227043552" lon="7.992376229981206"><ele>418.3333333333333</ele><time>2026-03-29T08:40:52.999Z</time></trkpt><trkpt lat="44.39592501595094" lon="7.992135970680211"><ele>419.0</ele><time>2026-03-29T08:40:53.999Z</time></trkpt><trkpt lat="44.396010201561516" lon="7.991887700421898"><ele>419.3333333333333</ele><time>2026-03-29T08:40:54.999Z</time></trkpt><trkpt lat="44.39612254408662" lon="7.991669498896399"><ele>419.66666666666663</ele><time>2026-03-29T08:40:55.999Z</time></trkpt><trkpt lat="44.396225366357996" lon="7.991451784388269"><ele>420.0</ele><time>2026-03-29T08:40:56.999Z</time></trkpt><trkpt lat="44.39633575107392" lon="7.991277911351776"><ele>419.66666666666663</ele><time>2026-03-29T08:40:57.999Z</time></trkpt><trkpt lat="44.39642575833717" lon="7.991060483995952"><ele>419.3333333333333</ele><time>2026-03-29T08:40:58.999Z</time></trkpt><trkpt lat="44.39655035662377" lon="7.9908602277895735"><ele>419.0</ele><time>2026-03-29T08:40:59.999Z</time></trkpt><trkpt lat="44.39666126191466" lon="7.990663708618469"><ele>418.66666666666663</ele><time>2026-03-29T08:41:00.999Z</time></trkpt><trkpt lat="44.39677464518982" lon="7.990462942777157"><ele>418.33333333333337</ele><time>2026-03-29T08:41:01.999Z</time></trkpt><trkpt lat="44.39688420802776" lon="7.990244864666197"><ele>418.0</ele><time>2026-03-29T08:41:02.999Z</time></trkpt><trkpt lat="44.3969860409725" lon="7.990018690229576"><ele>417.6666666666667</ele><time>2026-03-29T08:41:03.999Z</time></trkpt><trkpt lat="44.3970801170061" lon="7.989791878334427"><ele>417.33333333333337</ele><time>2026-03-29T08:41:04.999Z</time></trkpt><trkpt lat="44.39713964657658" lon="7.989577782462364"><ele>417.0</ele><time>2026-03-29T08:41:05.999Z</time></trkpt><trkpt lat="44.397188660943236" lon="7.989340820524007"><ele>416.66666666666663</ele><time>2026-03-29T08:41:06.999Z</time></trkpt><trkpt lat="44.39722920605555" lon="7.9890816386099734"><ele>416.3333333333333</ele><time>2026-03-29T08:41:07.999Z</time></trkpt><trkpt lat="44.39727049670643" lon="7.988824935382286"><ele>416.0</ele><time>2026-03-29T08:41:08.999Z</time></trkpt><trkpt lat="44.397311205664806" lon="7.988560353919286"><ele>415.66666666666663</ele><time>2026-03-29T08:41:09.999Z</time></trkpt><trkpt lat="44.39734797180994" lon="7.988304644156228"><ele>415.33333333333337</ele><time>2026-03-29T08:41:10.999Z</time></trkpt><trkpt lat="44.39738984282489" lon="7.988063254686337"><ele>415.0</ele><time>2026-03-29T08:41:11.999Z</time></trkpt><trkpt lat="44.39743610523994" lon="7.987801107801091"><ele>415.0</ele><time>2026-03-29T08:41:12.999Z</time></trkpt><trkpt lat="44.39747082757384" lon="7.9875639199479656"><ele>415.0</ele><time>2026-03-29T08:41:13.999Z</time></trkpt><trkpt lat="44.39751942711082" lon="7.987301627997755"><ele>415.0</ele><time>2026-03-29T08:41:14.999Z</time></trkpt><trkpt lat="44.397562849256744" lon="7.9870598096633385"><ele>415.6666666666667</ele><time>2026-03-29T08:41:15.999Z</time></trkpt><trkpt lat="44.39760424758927" lon="7.986829711134013"><ele>416.33333333333337</ele><time>2026-03-29T08:41:16.999Z</time></trkpt><trkpt lat="44.39765153065571" lon="7.986610371124451"><ele>417.0</ele><time>2026-03-29T08:41:17.999Z</time></trkpt><trkpt lat="44.397692746557766" lon="7.986360756729017"><ele>418.0</ele><time>2026-03-29T08:41:18.999Z</time></trkpt><trkpt lat="44.39773621616304" lon="7.986116255241874"><ele>419.0</ele><time>2026-03-29T08:41:19.999Z</time></trkpt><trkpt lat="44.3977822203284" lon="7.985906829388776"><ele>420.0</ele><time>2026-03-29T08:41:20.999Z</time></trkpt><trkpt lat="44.3978199769346" lon="7.985678523238415"><ele>420.0</ele><time>2026-03-29T08:41:21.999Z</time></trkpt><trkpt lat="44.397863914772046" lon="7.985464067773978"><ele>420.0</ele><time>2026-03-29T08:41:22.999Z</time></trkpt><trkpt lat="44.397903848061254" lon="7.985251125136489"><ele>420.0</ele><time>2026-03-29T08:41:23.999Z</time></trkpt><trkpt lat="44.397939876363864" lon="7.985011796382595"><ele>419.66666666666663</ele><time>2026-03-29T08:41:24.999Z</time></trkpt><trkpt lat="44.397981852381086" lon="7.9848390147811275"><ele>419.3333333333333</ele><time>2026-03-29T08:41:25.999Z</time></trkpt><trkpt lat="44.398020817043296" lon="7.984602235838933"><ele>419.0</ele><time>2026-03-29T08:41:26.999Z</time></trkpt><trkpt lat="44.39805257046214" lon="7.984371132772106"><ele>418.3333333333333</ele><time>2026-03-29T08:41:27.999Z</time></trkpt><trkpt lat="44.39808363672711" lon="7.98415231887362"><ele>417.66666666666663</ele><time>2026-03-29T08:41:28.999Z</time></trkpt><trkpt lat="44.39810615134346" lon="7.9839204761915505"><ele>417.0</ele><time>2026-03-29T08:41:29.999Z</time></trkpt><trkpt lat="44.3981291455992" lon="7.983688120338181"><ele>417.0</ele><time>2026-03-29T08:41:30.999Z</time></trkpt><trkpt lat="44.398147420644904" lon="7.983455713636227"><ele>417.0</ele><time>2026-03-29T08:41:31.999Z</time></trkpt><trkpt lat="44.3981641498011" lon="7.983233200958901"><ele>417.0</ele><time>2026-03-29T08:41:32.999Z</time></trkpt><trkpt lat="44.3981756510315" lon="7.982988014116552"><ele>417.0</ele><time>2026-03-29T08:41:33.999Z</time></trkpt><trkpt lat="44.39818323087465" lon="7.982727533838063"><ele>417.0</ele><time>2026-03-29T08:41:34.999Z</time></trkpt><trkpt lat="44.39819933582792" lon="7.98249758565251"><ele>417.0</ele><time>2026-03-29T08:41:35.999Z</time></trkpt><trkpt lat="44.398208712183624" lon="7.982272597167202"><ele>417.0</ele><time>2026-03-29T08:41:36.999Z</time></trkpt><trkpt lat="44.3982245271126" lon="7.9820391247765565"><ele>417.0</ele><time>2026-03-29T08:41:37.999Z</time></trkpt><trkpt lat="44.398239041014115" lon="7.981789364600081"><ele>417.0</ele><time>2026-03-29T08:41:38.999Z</time></trkpt><trkpt lat="44.39824509634375" lon="7.981550446604596"><ele>417.33333333333337</ele><time>2026-03-29T08:41:39.999Z</time></trkpt><trkpt lat="44.39825567310006" lon="7.981306557116909"><ele>417.6666666666667</ele><time>2026-03-29T08:41:40.998Z</time></trkpt><trkpt lat="44.39827043650908" lon="7.981076845628221"><ele>418.0</ele><time>2026-03-29T08:41:41.998Z</time></trkpt><trkpt lat="44.39828120905086" lon="7.980846141138204"><ele>418.0</ele><time>2026-03-29T08:41:42.998Z</time></trkpt><trkpt lat="44.39829470045971" lon="7.980625579443645"><ele>418.0</ele><time>2026-03-29T08:41:43.998Z</time></trkpt><trkpt lat="44.39830581865605" lon="7.980383977868415"><ele>418.0</ele><time>2026-03-29T08:41:44.998Z</time></trkpt><trkpt lat="44.39831814765853" lon="7.98016123446507"><ele>419.33333333333337</ele><time>2026-03-29T08:41:45.998Z</time></trkpt><trkpt lat="44.398324511516414" lon="7.979934575084656"><ele>420.66666666666663</ele><time>2026-03-29T08:41:46.998Z</time></trkpt><trkpt lat="44.398335344732054" lon="7.979712843628418"><ele>422.0</ele><time>2026-03-29T08:41:47.998Z</time></trkpt><trkpt lat="44.39834642337488" lon="7.979472147089702"><ele>422.0</ele><time>2026-03-29T08:41:48.998Z</time></trkpt><trkpt lat="44.39835054808757" lon="7.979237470323642"><ele>422.0</ele><time>2026-03-29T08:41:49.998Z</time></trkpt><trkpt lat="44.398362354621355" lon="7.9790279009984815"><ele>422.0</ele><time>2026-03-29T08:41:50.998Z</time></trkpt><trkpt lat="44.398378004364034" lon="7.978828292004319"><ele>422.5</ele><time>2026-03-29T08:41:51.998Z</time></trkpt><trkpt lat="44.39838882953341" lon="7.978636335531453"><ele>423.0</ele><time>2026-03-29T08:41:52.998Z</time></trkpt><trkpt lat="44.39841195719586" lon="7.978453231474474"><ele>423.5</ele><time>2026-03-29T08:41:53.998Z</time></trkpt><trkpt lat="44.39845811582674" lon="7.978283485016425"><ele>424.0</ele><time>2026-03-29T08:41:54.998Z</time></trkpt><trkpt lat="44.39853283507503" lon="7.978124705069195"><ele>424.0</ele><time>2026-03-29T08:41:55.998Z</time></trkpt><trkpt lat="44.398621616761744" lon="7.977958870222433"><ele>424.0</ele><time>2026-03-29T08:41:56.998Z</time></trkpt><trkpt lat="44.39873378222536" lon="7.977807946033945"><ele>424.0</ele><time>2026-03-29T08:41:57.998Z</time></trkpt><trkpt lat="44.398864746946" lon="7.977688108444468"><ele>424.33333333333337</ele><time>2026-03-29T08:41:58.998Z</time></trkpt><trkpt lat="44.39901502581431" lon="7.97759198900262"><ele>424.66666666666663</ele><time>2026-03-29T08:41:59.998Z</time></trkpt><trkpt lat="44.3991716976043" lon="7.977494955470301"><ele>425.0</ele><time>2026-03-29T08:42:00.998Z</time></trkpt><trkpt lat="44.399322666661455" lon="7.977392488964041"><ele>425.0</ele><time>2026-03-29T08:42:01.998Z</time></trkpt><trkpt lat="44.39947251724516" lon="7.977294903491267"><ele>425.0</ele><time>2026-03-29T08:42:02.998Z</time></trkpt><trkpt lat="44.39959134171189" lon="7.97719719237299"><ele>425.0</ele><time>2026-03-29T08:42:03.998Z</time></trkpt><trkpt lat="44.399720809788626" lon="7.977116446541985"><ele>425.0</ele><time>2026-03-29T08:42:04.998Z</time></trkpt><trkpt lat="44.39984927174936" lon="7.977028402980154"><ele>424.0</ele><time>2026-03-29T08:42:05.998Z</time></trkpt><trkpt lat="44.399978871062345" lon="7.976944497707684"><ele>423.0</ele><time>2026-03-29T08:42:06.998Z</time></trkpt><trkpt lat="44.40009201898558" lon="7.9768658532492305"><ele>422.0</ele><time>2026-03-29T08:42:08Z</time></trkpt><trkpt lat="44.40019962866443" lon="7.976781588621582"><ele>421.0</ele><time>2026-03-29T08:42:09Z</time></trkpt><trkpt lat="44.40030809824095" lon="7.9766907083796825"><ele>420.5</ele><time>2026-03-29T08:42:10Z</time></trkpt><trkpt lat="44.400428872407375" lon="7.976576365870188"><ele>420.0</ele><time>2026-03-29T08:42:11Z</time></trkpt><trkpt lat="44.40054327339421" lon="7.976436752016679"><ele>419.5</ele><time>2026-03-29T08:42:12Z</time></trkpt><trkpt lat="44.400628033945836" lon="7.9762689030495695"><ele>419.0</ele><time>2026-03-29T08:42:13Z</time></trkpt><trkpt lat="44.40068480340953" lon="7.976060678214124"><ele>419.3333333333333</ele><time>2026-03-29T08:42:14Z</time></trkpt><trkpt lat="44.40073392910244" lon="7.975845873526739"><ele>419.66666666666663</ele><time>2026-03-29T08:42:15Z</time></trkpt><trkpt lat="44.40080359431788" lon="7.975603012182118"><ele>420.0</ele><time>2026-03-29T08:42:16Z</time></trkpt><trkpt lat="44.40085896373012" lon="7.975372254575705"><ele>420.0</ele><time>2026-03-29T08:42:17Z</time></trkpt><trkpt lat="44.40089702379895" lon="7.975153431305435"><ele>420.0</ele><time>2026-03-29T08:42:18Z</time></trkpt><trkpt lat="44.40093713394247" lon="7.974981235846508"><ele>420.0</ele><time>2026-03-29T08:42:19Z</time></trkpt><trkpt lat="44.400972061451036" lon="7.974823731063757"><ele>420.0</ele><time>2026-03-29T08:42:20Z</time></trkpt><trkpt lat="44.40100666869868" lon="7.974680783518683"><ele>420.4</ele><time>2026-03-29T08:42:21Z</time></trkpt><trkpt lat="44.40103302550278" lon="7.9745321947695125"><ele>420.8</ele><time>2026-03-29T08:42:22Z</time></trkpt><trkpt lat="44.4010753452839" lon="7.974404190628964"><ele>421.20000000000005</ele><time>2026-03-29T08:42:23Z</time></trkpt><trkpt lat="44.40110753065179" lon="7.97425309030748"><ele>421.6</ele><time>2026-03-29T08:42:24Z</time></trkpt><trkpt lat="44.40113523045724" lon="7.974102279559986"><ele>422.0</ele><time>2026-03-29T08:42:25Z</time></trkpt><trkpt lat="44.401139105370945" lon="7.97398821166916"><ele>422.6</ele><time>2026-03-29T08:42:26Z</time></trkpt><trkpt lat="44.401172544423915" lon="7.973867830724696"><ele>423.20000000000005</ele><time>2026-03-29T08:42:27Z</time></trkpt><trkpt lat="44.40123440695586" lon="7.974033478049145"><ele>423.8</ele><time>2026-03-29T08:42:28Z</time></trkpt><trkpt lat="44.40125686266775" lon="7.97388306921206"><ele>424.4</ele><time>2026-03-29T08:42:30Z</time></trkpt><trkpt lat="44.401257833503536" lon="7.973756621813182"><ele>425.0</ele><time>2026-03-29T08:42:31Z</time></trkpt><trkpt lat="44.401206335488006" lon="7.973651460577662"><ele>425.0</ele><time>2026-03-29T08:42:32Z</time></trkpt><trkpt lat="44.40116827309101" lon="7.973549279960992"><ele>425.0</ele><time>2026-03-29T08:42:33Z</time></trkpt><trkpt lat="44.40112500542142" lon="7.973436846932321"><ele>425.0</ele><time>2026-03-29T08:42:34Z</time></trkpt><trkpt lat="44.4011442671651" lon="7.973277693899126"><ele>425.0</ele><time>2026-03-29T08:42:35Z</time></trkpt><trkpt lat="44.40113135501289" lon="7.973115456299908"><ele>425.0</ele><time>2026-03-29T08:42:36Z</time></trkpt><trkpt lat="44.40112458060386" lon="7.972952413854891"><ele>424.75</ele><time>2026-03-29T08:42:37Z</time></trkpt><trkpt lat="44.401189960319044" lon="7.972804275141858"><ele>424.5</ele><time>2026-03-29T08:42:38Z</time></trkpt><trkpt lat="44.401221178590205" lon="7.972661266128023"><ele>424.25</ele><time>2026-03-29T08:42:39Z</time></trkpt><trkpt lat="44.401258583129454" lon="7.972531566958313"><ele>424.0</ele><time>2026-03-29T08:42:40Z</time></trkpt><trkpt lat="44.40128771029678" lon="7.972367337471803"><ele>423.4</ele><time>2026-03-29T08:42:41Z</time></trkpt><trkpt lat="44.40132528268422" lon="7.972248673679757"><ele>422.79999999999995</ele><time>2026-03-29T08:42:42Z</time></trkpt><trkpt lat="44.40134555791892" lon="7.972106021575753"><ele>422.20000000000005</ele><time>2026-03-29T08:42:43Z</time></trkpt><trkpt lat="44.4013702022881" lon="7.9719588497163425"><ele>421.6</ele><time>2026-03-29T08:42:44Z</time></trkpt><trkpt lat="44.40139667237364" lon="7.971824609737164"><ele>421.0</ele><time>2026-03-29T08:42:45Z</time></trkpt><trkpt lat="44.40142358790608" lon="7.9717047874874085"><ele>419.6</ele><time>2026-03-29T08:42:46Z</time></trkpt><trkpt lat="44.401447721447475" lon="7.971553760398468"><ele>418.20000000000005</ele><time>2026-03-29T08:42:47Z</time></trkpt><trkpt lat="44.40147777059716" lon="7.971409369931715"><ele>416.79999999999995</ele><time>2026-03-29T08:42:48Z</time></trkpt><trkpt lat="44.40150677825209" lon="7.971263601868561"><ele>415.4</ele><time>2026-03-29T08:42:49Z</time></trkpt><trkpt lat="44.401531568994464" lon="7.97113499816207"><ele>414.0</ele><time>2026-03-29T08:42:50Z</time></trkpt><trkpt lat="44.40155548673497" lon="7.970990311000374"><ele>413.79999999999995</ele><time>2026-03-29T08:42:50.999Z</time></trkpt><trkpt lat="44.401579032680196" lon="7.970841951299709"><ele>413.59999999999997</ele><time>2026-03-29T08:42:51.999Z</time></trkpt><trkpt lat="44.401602749836215" lon="7.970705948251669"><ele>413.4</ele><time>2026-03-29T08:42:52.999Z</time></trkpt><trkpt lat="44.40162359366936" lon="7.970567244760748"><ele>413.2</ele><time>2026-03-29T08:42:53.999Z</time></trkpt><trkpt lat="44.401648029709946" lon="7.970425149966031"><ele>413.0</ele><time>2026-03-29T08:42:54.999Z</time></trkpt><trkpt lat="44.40167651460337" lon="7.970268011282077"><ele>413.0</ele><time>2026-03-29T08:42:55.999Z</time></trkpt><trkpt lat="44.40170490729756" lon="7.970112683819102"><ele>413.0</ele><time>2026-03-29T08:42:56.999Z</time></trkpt><trkpt lat="44.401731241573735" lon="7.969983013529256"><ele>413.0</ele><time>2026-03-29T08:42:57.999Z</time></trkpt><trkpt lat="44.4017538723497" lon="7.969839397348145"><ele>413.0</ele><time>2026-03-29T08:42:58.999Z</time></trkpt><trkpt lat="44.40178288620934" lon="7.969717114953089"><ele>413.0</ele><time>2026-03-29T08:42:59.999Z</time></trkpt><trkpt lat="44.40180302232036" lon="7.969577459975702"><ele>412.4</ele><time>2026-03-29T08:43:00.999Z</time></trkpt><trkpt lat="44.40181548624226" lon="7.969430653744942"><ele>411.79999999999995</ele><time>2026-03-29T08:43:01.999Z</time></trkpt><trkpt lat="44.40183009644098" lon="7.969278424090702"><ele>411.2</ele><time>2026-03-29T08:43:02.999Z</time></trkpt><trkpt lat="44.40182715431148" lon="7.969115109919146"><ele>410.6</ele><time>2026-03-29T08:43:03.999Z</time></trkpt><trkpt lat="44.40181525220012" lon="7.968981770683083"><ele>410.0</ele><time>2026-03-29T08:43:04.999Z</time></trkpt><trkpt lat="44.40181318734132" lon="7.968823028903797"><ele>409.8</ele><time>2026-03-29T08:43:05.999Z</time></trkpt><trkpt lat="44.401780380932244" lon="7.968691376924445"><ele>409.6</ele><time>2026-03-29T08:43:06.999Z</time></trkpt><trkpt lat="44.40175071788183" lon="7.968555765348798"><ele>409.4</ele><time>2026-03-29T08:43:07.999Z</time></trkpt><trkpt lat="44.40175473688718" lon="7.9684153466777365"><ele>409.2</ele><time>2026-03-29T08:43:08.999Z</time></trkpt><trkpt lat="44.4017107612388" lon="7.968312533330625"><ele>409.0</ele><time>2026-03-29T08:43:09.999Z</time></trkpt><trkpt lat="44.40166923015359" lon="7.9681731910460165"><ele>409.79999999999995</ele><time>2026-03-29T08:43:10.999Z</time></trkpt><trkpt lat="44.40162933735735" lon="7.968037130485445"><ele>410.59999999999997</ele><time>2026-03-29T08:43:11.999Z</time></trkpt><trkpt lat="44.40159168640414" lon="7.967901095315945"><ele>411.4</ele><time>2026-03-29T08:43:13.016Z</time></trkpt><trkpt lat="44.40155863492842" lon="7.967767193174532"><ele>412.2</ele><time>2026-03-29T08:43:14.014Z</time></trkpt><trkpt lat="44.40151874999389" lon="7.967627230840034"><ele>413.0</ele><time>2026-03-29T08:43:15.012Z</time></trkpt><trkpt lat="44.40147767460288" lon="7.96748271755992"><ele>414.0</ele><time>2026-03-29T08:43:16.016Z</time></trkpt><trkpt lat="44.40143644985748" lon="7.96733943610899"><ele>415.0</ele><time>2026-03-29T08:43:17.014Z</time></trkpt><trkpt lat="44.4010106930371" lon="7.964800255496432"><ele>411.0</ele><time>2026-03-29T08:43:27.356Z</time></trkpt><trkpt lat="44.4008312925709" lon="7.965300120952231"><ele>407.0</ele><time>2026-03-29T08:43:29.999Z</time></trkpt><trkpt lat="44.40089973860205" lon="7.965086656976977"><ele>401.0</ele><time>2026-03-29T08:43:31.999Z</time></trkpt><trkpt lat="44.400924370294575" lon="7.964929978978436"><ele>395.0</ele><time>2026-03-29T08:43:32.999Z</time></trkpt><trkpt lat="44.400960890231396" lon="7.964657960926288"><ele>389.0</ele><time>2026-03-29T08:43:34.999Z</time></trkpt><trkpt lat="44.400992727630864" lon="7.964452131573781"><ele>389.0</ele><time>2026-03-29T08:43:35.999Z</time></trkpt><trkpt lat="44.401024778301576" lon="7.964223410532197"><ele>389.0</ele><time>2026-03-29T08:43:36.999Z</time></trkpt><trkpt lat="44.40105651963951" lon="7.96398988059893"><ele>389.0</ele><time>2026-03-29T08:43:37.999Z</time></trkpt><trkpt lat="44.40108860181802" lon="7.963782944062245"><ele>386.0</ele><time>2026-03-29T08:43:38.999Z</time></trkpt><trkpt lat="44.401113969804584" lon="7.963584498440752"><ele>383.0</ele><time>2026-03-29T08:43:39.999Z</time></trkpt><trkpt lat="44.40113716378997" lon="7.963419100202131"><ele>380.0</ele><time>2026-03-29T08:43:40.999Z</time></trkpt><trkpt lat="44.401188225402365" lon="7.963269340091553"><ele>377.0</ele><time>2026-03-29T08:43:41.999Z</time></trkpt><trkpt lat="44.40121070285418" lon="7.963099597828974"><ele>376.0</ele><time>2026-03-29T08:43:42.999Z</time></trkpt><trkpt lat="44.401229315426455" lon="7.9629730420271505"><ele>375.0</ele><time>2026-03-29T08:43:43.999Z</time></trkpt><trkpt lat="44.40124992051065" lon="7.96280898919864"><ele>374.0</ele><time>2026-03-29T08:43:44.999Z</time></trkpt><trkpt lat="44.40127115216048" lon="7.962671454295258"><ele>373.0</ele><time>2026-03-29T08:43:45.999Z</time></trkpt><trkpt lat="44.40129885794789" lon="7.96252461567594"><ele>372.0</ele><time>2026-03-29T08:43:46.998Z</time></trkpt><trkpt lat="44.401343795867724" lon="7.962412683114752"><ele>372.0</ele><time>2026-03-29T08:43:47.998Z</time></trkpt><trkpt lat="44.40140199077921" lon="7.962285223531558"><ele>372.0</ele><time>2026-03-29T08:43:48.998Z</time></trkpt><trkpt lat="44.401478345218344" lon="7.962169017733244"><ele>372.0</ele><time>2026-03-29T08:43:49.998Z</time></trkpt><trkpt lat="44.401567125080916" lon="7.962062775373699"><ele>372.0</ele><time>2026-03-29T08:43:50.998Z</time></trkpt><trkpt lat="44.40167962704204" lon="7.961963747440398"><ele>372.0</ele><time>2026-03-29T08:43:51.998Z</time></trkpt><trkpt lat="44.401801498492674" lon="7.961875058012957"><ele>372.0</ele><time>2026-03-29T08:43:52.998Z</time></trkpt><trkpt lat="44.401943548144054" lon="7.961810759456074"><ele>372.0</ele><time>2026-03-29T08:43:53.998Z</time></trkpt><trkpt lat="44.402092935678375" lon="7.961759239132693"><ele>372.0</ele><time>2026-03-29T08:43:54.998Z</time></trkpt><trkpt lat="44.4022485911523" lon="7.961719903442619"><ele>367.6666666666667</ele><time>2026-03-29T08:43:55.998Z</time></trkpt><trkpt lat="44.40240878708031" lon="7.961668444431151"><ele>363.33333333333337</ele><time>2026-03-29T08:43:56.998Z</time></trkpt><trkpt lat="44.402568611195186" lon="7.961615119108025"><ele>359.0</ele><time>2026-03-29T08:43:57.998Z</time></trkpt><trkpt lat="44.40273093593251" lon="7.9615672582449735"><ele>359.0</ele><time>2026-03-29T08:43:58.998Z</time></trkpt><trkpt lat="44.402875162364154" lon="7.961519707848835"><ele>359.0</ele><time>2026-03-29T08:43:59.998Z</time></trkpt><trkpt lat="44.403016316111284" lon="7.961477943369398"><ele>359.0</ele><time>2026-03-29T08:44:00.998Z</time></trkpt><trkpt lat="44.40313896081141" lon="7.961439675207559"><ele>359.0</ele><time>2026-03-29T08:44:01.998Z</time></trkpt><trkpt lat="44.40325777326375" lon="7.961399067274269"><ele>359.4</ele><time>2026-03-29T08:44:02.998Z</time></trkpt><trkpt lat="44.40337179157554" lon="7.961361867011981"><ele>359.79999999999995</ele><time>2026-03-29T08:44:03.998Z</time></trkpt><trkpt lat="44.40347213895117" lon="7.961316036773363"><ele>360.20000000000005</ele><time>2026-03-29T08:44:04.998Z</time></trkpt><trkpt lat="44.40357030021026" lon="7.961260901918912"><ele>360.6</ele><time>2026-03-29T08:44:05.998Z</time></trkpt><trkpt lat="44.40365781437467" lon="7.961183992606304"><ele>361.0</ele><time>2026-03-29T08:44:06.998Z</time></trkpt><trkpt lat="44.40374267708234" lon="7.9610784807990616"><ele>361.0</ele><time>2026-03-29T08:44:07.998Z</time></trkpt><trkpt lat="44.403824761557416" lon="7.960965729725507"><ele>361.0</ele><time>2026-03-29T08:44:08.998Z</time></trkpt><trkpt lat="44.40389193131025" lon="7.960823732673345"><ele>361.0</ele><time>2026-03-29T08:44:09.998Z</time></trkpt><trkpt lat="44.403952954253654" lon="7.96068082525653"><ele>361.0</ele><time>2026-03-29T08:44:10.998Z</time></trkpt><trkpt lat="44.403976506797406" lon="7.960534991145673"><ele>360.75</ele><time>2026-03-29T08:44:11.998Z</time></trkpt><trkpt lat="44.40400323636783" lon="7.960369602394221"><ele>360.5</ele><time>2026-03-29T08:44:12.998Z</time></trkpt><trkpt lat="44.40398844757783" lon="7.960201705250151"><ele>360.25</ele><time>2026-03-29T08:44:14Z</time></trkpt><trkpt lat="44.403986032585216" lon="7.960018533946276"><ele>360.0</ele><time>2026-03-29T08:44:15Z</time></trkpt><trkpt lat="44.40393386109615" lon="7.95987131303123"><ele>361.25</ele><time>2026-03-29T08:44:16Z</time></trkpt><trkpt lat="44.40388901256527" lon="7.959688133503221"><ele>362.5</ele><time>2026-03-29T08:44:17Z</time></trkpt><trkpt lat="44.40381776149437" lon="7.9595491716277875"><ele>363.75</ele><time>2026-03-29T08:44:18Z</time></trkpt><trkpt lat="44.40372922200855" lon="7.959434550302297"><ele>365.0</ele><time>2026-03-29T08:44:19Z</time></trkpt><trkpt lat="44.40361291349374" lon="7.959352715332664"><ele>366.5</ele><time>2026-03-29T08:44:20Z</time></trkpt><trkpt lat="44.40350716219821" lon="7.959272470056876"><ele>368.0</ele><time>2026-03-29T08:44:21Z</time></trkpt><trkpt lat="44.40336978417388" lon="7.95922658428507"><ele>369.5</ele><time>2026-03-29T08:44:22Z</time></trkpt><trkpt lat="44.4032305956005" lon="7.959211344812899"><ele>371.0</ele><time>2026-03-29T08:44:23Z</time></trkpt><trkpt lat="44.40309653962358" lon="7.959210905387127"><ele>373.33333333333337</ele><time>2026-03-29T08:44:24Z</time></trkpt><trkpt lat="44.40291704588873" lon="7.9592310901809"><ele>375.6666666666667</ele><time>2026-03-29T08:44:25Z</time></trkpt><trkpt lat="44.40277863581733" lon="7.959239833894372"><ele>378.0</ele><time>2026-03-29T08:44:26Z</time></trkpt><trkpt lat="44.40261999748983" lon="7.959248119306164"><ele>378.0</ele><time>2026-03-29T08:44:27Z</time></trkpt><trkpt lat="44.40246712722429" lon="7.95924693406813"><ele>378.0</ele><time>2026-03-29T08:44:28Z</time></trkpt><trkpt lat="44.40233688735446" lon="7.959229265254936"><ele>378.0</ele><time>2026-03-29T08:44:29Z</time></trkpt><trkpt lat="44.40221186510413" lon="7.959163133929995"><ele>378.0</ele><time>2026-03-29T08:44:30Z</time></trkpt><trkpt lat="44.40207336174546" lon="7.9591231535452085"><ele>382.5</ele><time>2026-03-29T08:44:31Z</time></trkpt><trkpt lat="44.40192807874366" lon="7.9590498704911266"><ele>387.0</ele><time>2026-03-29T08:44:32Z</time></trkpt><trkpt lat="44.401800372204214" lon="7.958979405650774"><ele>391.5</ele><time>2026-03-29T08:44:33Z</time></trkpt><trkpt lat="44.40167792844115" lon="7.9589194305784865"><ele>396.0</ele><time>2026-03-29T08:44:34Z</time></trkpt><trkpt lat="44.401572978336894" lon="7.958875522856578"><ele>396.0</ele><time>2026-03-29T08:44:35Z</time></trkpt><trkpt lat="44.4014656046758" lon="7.958828193001577"><ele>396.0</ele><time>2026-03-29T08:44:36Z</time></trkpt><trkpt lat="44.401353271178024" lon="7.958775898010392"><ele>396.0</ele><time>2026-03-29T08:44:37Z</time></trkpt><trkpt lat="44.40124598352531" lon="7.958729058413662"><ele>396.0</ele><time>2026-03-29T08:44:38Z</time></trkpt><trkpt lat="44.4011472308005" lon="7.958677810867559"><ele>396.0</ele><time>2026-03-29T08:44:39Z</time></trkpt><trkpt lat="44.401051848202606" lon="7.9586222161532785"><ele>396.20000000000005</ele><time>2026-03-29T08:44:40Z</time></trkpt><trkpt lat="44.40096253101308" lon="7.958531321075006"><ele>396.40000000000003</ele><time>2026-03-29T08:44:41Z</time></trkpt><trkpt lat="44.400869996685756" lon="7.958446444106662"><ele>396.6</ele><time>2026-03-29T08:44:42Z</time></trkpt><trkpt lat="44.400772094901185" lon="7.95835526665262"><ele>396.8</ele><time>2026-03-29T08:44:43Z</time></trkpt><trkpt lat="44.40068460967767" lon="7.958271635896651"><ele>397.0</ele><time>2026-03-29T08:44:44Z</time></trkpt><trkpt lat="44.400591396358664" lon="7.958160412538744"><ele>397.8</ele><time>2026-03-29T08:44:45Z</time></trkpt><trkpt lat="44.400499942514664" lon="7.958081742980538"><ele>398.6</ele><time>2026-03-29T08:44:46Z</time></trkpt><trkpt lat="44.40041944497963" lon="7.958012415956734"><ele>399.40000000000003</ele><time>2026-03-29T08:44:47Z</time></trkpt><trkpt lat="44.40033476620887" lon="7.95791244507605"><ele>400.20000000000005</ele><time>2026-03-29T08:44:48Z</time></trkpt><trkpt lat="44.40025000623332" lon="7.957819420666566"><ele>401.0</ele><time>2026-03-29T08:44:49Z</time></trkpt><trkpt lat="44.40016378379322" lon="7.95772712783296"><ele>401.5</ele><time>2026-03-29T08:44:50Z</time></trkpt><trkpt lat="44.40007054609053" lon="7.957626614762665"><ele>402.0</ele><time>2026-03-29T08:44:51Z</time></trkpt><trkpt lat="44.399979082203416" lon="7.9575318771547"><ele>402.5</ele><time>2026-03-29T08:44:52Z</time></trkpt><trkpt lat="44.39988200373125" lon="7.957418080193965"><ele>403.0</ele><time>2026-03-29T08:44:53Z</time></trkpt><trkpt lat="44.39977927627879" lon="7.957324402149829"><ele>403.75</ele><time>2026-03-29T08:44:54Z</time></trkpt><trkpt lat="44.39968382154959" lon="7.957231839750632"><ele>404.5</ele><time>2026-03-29T08:44:55Z</time></trkpt><trkpt lat="44.39958484387466" lon="7.957117354342554"><ele>405.25</ele><time>2026-03-29T08:44:55.999Z</time></trkpt><trkpt lat="44.39948023874156" lon="7.957013339816228"><ele>406.0</ele><time>2026-03-29T08:44:56.999Z</time></trkpt><trkpt lat="44.39937952223943" lon="7.956910975523722"><ele>406.5</ele><time>2026-03-29T08:44:57.999Z</time></trkpt><trkpt lat="44.399268246213055" lon="7.956801226522097"><ele>407.0</ele><time>2026-03-29T08:44:58.999Z</time></trkpt><trkpt lat="44.39915043998919" lon="7.956683141317457"><ele>407.5</ele><time>2026-03-29T08:44:59.999Z</time></trkpt><trkpt lat="44.399026865228656" lon="7.956545842313017"><ele>408.0</ele><time>2026-03-29T08:45:00.999Z</time></trkpt><trkpt lat="44.39888378322925" lon="7.956411453374238"><ele>408.0</ele><time>2026-03-29T08:45:01.999Z</time></trkpt><trkpt lat="44.39873982498633" lon="7.956271867400109"><ele>408.0</ele><time>2026-03-29T08:45:02.999Z</time></trkpt><trkpt lat="44.39858392698417" lon="7.956117112523464"><ele>408.0</ele><time>2026-03-29T08:45:03.999Z</time></trkpt><trkpt lat="44.39843270546138" lon="7.955965639534898"><ele>408.0</ele><time>2026-03-29T08:45:04.999Z</time></trkpt><trkpt lat="44.398266934522425" lon="7.955801787301093"><ele>408.0</ele><time>2026-03-29T08:45:05.999Z</time></trkpt><trkpt lat="44.39812467094325" lon="7.955654777740858"><ele>408.0</ele><time>2026-03-29T08:45:06.999Z</time></trkpt><trkpt lat="44.39797409852624" lon="7.955479674223211"><ele>408.0</ele><time>2026-03-29T08:45:07.999Z</time></trkpt><trkpt lat="44.39781937956739" lon="7.955309549232388"><ele>408.0</ele><time>2026-03-29T08:45:08.999Z</time></trkpt><trkpt lat="44.39765709962124" lon="7.955128210398248"><ele>408.0</ele><time>2026-03-29T08:45:09.999Z</time></trkpt><trkpt lat="44.39748506772876" lon="7.954952433031621"><ele>408.5</ele><time>2026-03-29T08:45:10.999Z</time></trkpt><trkpt lat="44.39729302555383" lon="7.954749061413376"><ele>409.0</ele><time>2026-03-29T08:45:11.999Z</time></trkpt><trkpt lat="44.39711639230146" lon="7.954556686782966"><ele>409.5</ele><time>2026-03-29T08:45:12.999Z</time></trkpt><trkpt lat="44.39694237363207" lon="7.954341374461388"><ele>410.0</ele><time>2026-03-29T08:45:13.999Z</time></trkpt><trkpt lat="44.39675711407368" lon="7.954108948653809"><ele>409.0</ele><time>2026-03-29T08:45:14.999Z</time></trkpt><trkpt lat="44.39654284384362" lon="7.953900236479188"><ele>408.0</ele><time>2026-03-29T08:45:15.999Z</time></trkpt><trkpt lat="44.3963686449661" lon="7.953721356042624"><ele>409.5</ele><time>2026-03-29T08:45:16.999Z</time></trkpt><trkpt lat="44.3961602717266" lon="7.9535073842965405"><ele>411.0</ele><time>2026-03-29T08:45:17.999Z</time></trkpt><trkpt lat="44.39598898880818" lon="7.953311716249753"><ele>411.0</ele><time>2026-03-29T08:45:18.999Z</time></trkpt><trkpt lat="44.395789633909786" lon="7.9531356982165455"><ele>411.0</ele><time>2026-03-29T08:45:19.999Z</time></trkpt><trkpt lat="44.39559501211489" lon="7.9529270415532665"><ele>411.0</ele><time>2026-03-29T08:45:20.999Z</time></trkpt><trkpt lat="44.395401665211864" lon="7.952728854384531"><ele>411.0</ele><time>2026-03-29T08:45:21.999Z</time></trkpt><trkpt lat="44.395200997401176" lon="7.9525236029312545"><ele>411.0</ele><time>2026-03-29T08:45:22.999Z</time></trkpt><trkpt lat="44.394989832886026" lon="7.952308443786625"><ele>411.0</ele><time>2026-03-29T08:45:23.999Z</time></trkpt><trkpt lat="44.39477727903004" lon="7.952091868886043"><ele>411.0</ele><time>2026-03-29T08:45:24.999Z</time></trkpt><trkpt lat="44.39456873225058" lon="7.95187934350345"><ele>411.0</ele><time>2026-03-29T08:45:25.999Z</time></trkpt><trkpt lat="44.3943781027845" lon="7.951698225287818"><ele>410.5</ele><time>2026-03-29T08:45:26.999Z</time></trkpt><trkpt lat="44.394210041210926" lon="7.9515681846165345"><ele>410.0</ele><time>2026-03-29T08:45:27.999Z</time></trkpt><trkpt lat="44.393980213547756" lon="7.951388365894872"><ele>411.0</ele><time>2026-03-29T08:45:28.999Z</time></trkpt><trkpt lat="44.393810072592686" lon="7.951217471407423"><ele>412.0</ele><time>2026-03-29T08:45:29.999Z</time></trkpt><trkpt lat="44.39364018490186" lon="7.951059143641542"><ele>413.0</ele><time>2026-03-29T08:45:30.999Z</time></trkpt><trkpt lat="44.39350071877163" lon="7.9509070963806625"><ele>413.0</ele><time>2026-03-29T08:45:31.999Z</time></trkpt><trkpt lat="44.39336525320115" lon="7.950783795923674"><ele>413.0</ele><time>2026-03-29T08:45:32.999Z</time></trkpt><trkpt lat="44.39322815257044" lon="7.950638441306399"><ele>413.0</ele><time>2026-03-29T08:45:33.999Z</time></trkpt><trkpt lat="44.39307476064353" lon="7.950487726777889"><ele>413.0</ele><time>2026-03-29T08:45:34.999Z</time></trkpt><trkpt lat="44.39291794545202" lon="7.9503417706063155"><ele>413.0</ele><time>2026-03-29T08:45:35.999Z</time></trkpt><trkpt lat="44.39275255034739" lon="7.950173167428546"><ele>413.0</ele><time>2026-03-29T08:45:36.999Z</time></trkpt><trkpt lat="44.392589867720396" lon="7.949982628222013"><ele>413.0</ele><time>2026-03-29T08:45:37.999Z</time></trkpt><trkpt lat="44.39241835657747" lon="7.94980703140966"><ele>413.0</ele><time>2026-03-29T08:45:38.999Z</time></trkpt><trkpt lat="44.39224769139375" lon="7.9496323008370275"><ele>413.0</ele><time>2026-03-29T08:45:39.999Z</time></trkpt><trkpt lat="44.39207487139391" lon="7.94945536440238"><ele>414.0</ele><time>2026-03-29T08:45:40.999Z</time></trkpt><trkpt lat="44.39188718725057" lon="7.949272663649327"><ele>415.0</ele><time>2026-03-29T08:45:41.999Z</time></trkpt><trkpt lat="44.39170397231601" lon="7.949071863095477"><ele>415.0</ele><time>2026-03-29T08:45:42.999Z</time></trkpt><trkpt lat="44.39152029225552" lon="7.948866416353064"><ele>415.0</ele><time>2026-03-29T08:45:43.999Z</time></trkpt><trkpt lat="44.39134578868428" lon="7.9486806912334425"><ele>416.0</ele><time>2026-03-29T08:45:44.999Z</time></trkpt><trkpt lat="44.39118652537314" lon="7.948519501787163"><ele>417.0</ele><time>2026-03-29T08:45:45.999Z</time></trkpt><trkpt lat="44.391035200576425" lon="7.948375746424735"><ele>418.0</ele><time>2026-03-29T08:45:46.999Z</time></trkpt><trkpt lat="44.39086902799389" lon="7.948203993537453"><ele>418.0</ele><time>2026-03-29T08:45:47.999Z</time></trkpt><trkpt lat="44.390699132004826" lon="7.948037348823406"><ele>418.0</ele><time>2026-03-29T08:45:48.999Z</time></trkpt><trkpt lat="44.3905433302738" lon="7.947870538043121"><ele>418.0</ele><time>2026-03-29T08:45:49.999Z</time></trkpt><trkpt lat="44.39039125006601" lon="7.947666397460245"><ele>419.0</ele><time>2026-03-29T08:45:50.999Z</time></trkpt><trkpt lat="44.39025009169415" lon="7.947446026857014"><ele>420.0</ele><time>2026-03-29T08:45:51.999Z</time></trkpt><trkpt lat="44.39013196319626" lon="7.947225704031148"><ele>421.0</ele><time>2026-03-29T08:45:52.998Z</time></trkpt><trkpt lat="44.390020395968286" lon="7.947005216706953"><ele>421.0</ele><time>2026-03-29T08:45:53.998Z</time></trkpt><trkpt lat="44.389918218209864" lon="7.946788670765659"><ele>421.0</ele><time>2026-03-29T08:45:54.998Z</time></trkpt><trkpt lat="44.38980647673292" lon="7.946568952896073"><ele>421.0</ele><time>2026-03-29T08:45:55.998Z</time></trkpt><trkpt lat="44.38969493952433" lon="7.946352271220681"><ele>421.33333333333337</ele><time>2026-03-29T08:45:56.998Z</time></trkpt><trkpt lat="44.389587624358406" lon="7.946146366094975"><ele>421.66666666666663</ele><time>2026-03-29T08:45:57.998Z</time></trkpt><trkpt lat="44.38947428694154" lon="7.945927596897719"><ele>422.0</ele><time>2026-03-29T08:45:58.998Z</time></trkpt><trkpt lat="44.38937033906995" lon="7.945729665558782"><ele>422.0</ele><time>2026-03-29T08:45:59.998Z</time></trkpt><trkpt lat="44.38927555033287" lon="7.945540514957315"><ele>422.0</ele><time>2026-03-29T08:46:00.998Z</time></trkpt><trkpt lat="44.389189499014364" lon="7.945367955178062"><ele>422.0</ele><time>2026-03-29T08:46:01.998Z</time></trkpt><trkpt lat="44.38910217496728" lon="7.94519213575578"><ele>421.25</ele><time>2026-03-29T08:46:02.998Z</time></trkpt><trkpt lat="44.389021883763746" lon="7.945031449421556"><ele>420.5</ele><time>2026-03-29T08:46:03.998Z</time></trkpt><trkpt lat="44.388937931551276" lon="7.944878411644824"><ele>419.75</ele><time>2026-03-29T08:46:04.998Z</time></trkpt><trkpt lat="44.38885448930103" lon="7.944721434449042"><ele>419.0</ele><time>2026-03-29T08:46:05.998Z</time></trkpt><trkpt lat="44.38878964889553" lon="7.944545876393196"><ele>420.0</ele><time>2026-03-29T08:46:06.998Z</time></trkpt><trkpt lat="44.388711088997646" lon="7.944394746883614"><ele>421.0</ele><time>2026-03-29T08:46:07.998Z</time></trkpt><trkpt lat="44.3886405269788" lon="7.944260263406552"><ele>422.0</ele><time>2026-03-29T08:46:08.998Z</time></trkpt><trkpt lat="44.38856662056807" lon="7.9441240296027855"><ele>423.0</ele><time>2026-03-29T08:46:09.998Z</time></trkpt><trkpt lat="44.38849642495155" lon="7.9439951214381015"><ele>423.0</ele><time>2026-03-29T08:46:10.998Z</time></trkpt><trkpt lat="44.388438188257226" lon="7.943878665996372"><ele>423.0</ele><time>2026-03-29T08:46:11.998Z</time></trkpt><trkpt lat="44.38837389568305" lon="7.9437512663250995"><ele>423.0</ele><time>2026-03-29T08:46:12.998Z</time></trkpt><trkpt lat="44.388309756245086" lon="7.943631051470601"><ele>423.0</ele><time>2026-03-29T08:46:13.998Z</time></trkpt><trkpt lat="44.38824846440681" lon="7.943507057763513"><ele>423.0</ele><time>2026-03-29T08:46:14.998Z</time></trkpt><trkpt lat="44.38818017738202" lon="7.943378564245552"><ele>423.2</ele><time>2026-03-29T08:46:15.998Z</time></trkpt><trkpt lat="44.388117949604656" lon="7.943252991342957"><ele>423.4</ele><time>2026-03-29T08:46:16.998Z</time></trkpt><trkpt lat="44.388052443562316" lon="7.943117012544137"><ele>423.59999999999997</ele><time>2026-03-29T08:46:17.998Z</time></trkpt><trkpt lat="44.387989622557754" lon="7.943002614928917"><ele>423.79999999999995</ele><time>2026-03-29T08:46:18.998Z</time></trkpt><trkpt lat="44.38792364112352" lon="7.9428697447094025"><ele>424.0</ele><time>2026-03-29T08:46:20Z</time></trkpt><trkpt lat="44.38786474813477" lon="7.942749419632591"><ele>424.0</ele><time>2026-03-29T08:46:21Z</time></trkpt><trkpt lat="44.38780380162632" lon="7.942632451745762"><ele>424.0</ele><time>2026-03-29T08:46:22Z</time></trkpt><trkpt lat="44.38774289010933" lon="7.942519568615601"><ele>424.0</ele><time>2026-03-29T08:46:23Z</time></trkpt><trkpt lat="44.38768306044163" lon="7.942399794577634"><ele>424.0</ele><time>2026-03-29T08:46:24Z</time></trkpt><trkpt lat="44.38762236765384" lon="7.942281797963321"><ele>424.0</ele><time>2026-03-29T08:46:25Z</time></trkpt><trkpt lat="44.387563178442754" lon="7.9421621957514725"><ele>423.79999999999995</ele><time>2026-03-29T08:46:26Z</time></trkpt><trkpt lat="44.38749912729688" lon="7.942034527075117"><ele>423.59999999999997</ele><time>2026-03-29T08:46:27Z</time></trkpt><trkpt lat="44.38743638157676" lon="7.94190573915132"><ele>423.4</ele><time>2026-03-29T08:46:28Z</time></trkpt><trkpt lat="44.38737011503896" lon="7.941785626308737"><ele>423.2</ele><time>2026-03-29T08:46:29Z</time></trkpt><trkpt lat="44.38730696261565" lon="7.941651892377302"><ele>423.0</ele><time>2026-03-29T08:46:30Z</time></trkpt><trkpt lat="44.38724842577581" lon="7.941532547889728"><ele>423.0</ele><time>2026-03-29T08:46:31Z</time></trkpt><trkpt lat="44.38718773762534" lon="7.941413225462487"><ele>423.0</ele><time>2026-03-29T08:46:32Z</time></trkpt><trkpt lat="44.38712270234539" lon="7.9412811571012965"><ele>423.0</ele><time>2026-03-29T08:46:33Z</time></trkpt><trkpt lat="44.38705826012398" lon="7.941146903051201"><ele>423.0</ele><time>2026-03-29T08:46:34Z</time></trkpt><trkpt lat="44.38698775738867" lon="7.941009770250195"><ele>422.75</ele><time>2026-03-29T08:46:35Z</time></trkpt><trkpt lat="44.38692393648623" lon="7.940874692717333"><ele>422.5</ele><time>2026-03-29T08:46:36Z</time></trkpt><trkpt lat="44.38684652107812" lon="7.940728936879335"><ele>422.25</ele><time>2026-03-29T08:46:37Z</time></trkpt><trkpt lat="44.386759317818246" lon="7.940555128988983"><ele>422.0</ele><time>2026-03-29T08:46:38Z</time></trkpt><trkpt lat="44.38666585104152" lon="7.940376120204749"><ele>422.0</ele><time>2026-03-29T08:46:39Z</time></trkpt><trkpt lat="44.386579603946494" lon="7.940212878819359"><ele>422.0</ele><time>2026-03-29T08:46:40Z</time></trkpt><trkpt lat="44.3865004690319" lon="7.940048975781659"><ele>422.0</ele><time>2026-03-29T08:46:41Z</time></trkpt><trkpt lat="44.38641085379156" lon="7.939873896180853"><ele>422.0</ele><time>2026-03-29T08:46:42Z</time></trkpt><trkpt lat="44.38631017303653" lon="7.939684561831543"><ele>422.3333333333333</ele><time>2026-03-29T08:46:43Z</time></trkpt><trkpt lat="44.386202726913226" lon="7.939478708711073"><ele>422.66666666666663</ele><time>2026-03-29T08:46:44Z</time></trkpt><trkpt lat="44.386099305464576" lon="7.939270402882338"><ele>423.0</ele><time>2026-03-29T08:46:45Z</time></trkpt><trkpt lat="44.38600832425604" lon="7.93908587740019"><ele>423.0</ele><time>2026-03-29T08:46:46Z</time></trkpt><trkpt lat="44.38589936680934" lon="7.938866259042866"><ele>423.0</ele><time>2026-03-29T08:46:47Z</time></trkpt><trkpt lat="44.38578699742019" lon="7.938643654810169"><ele>423.0</ele><time>2026-03-29T08:46:48Z</time></trkpt><trkpt lat="44.38568154761405" lon="7.938420145621887"><ele>423.0</ele><time>2026-03-29T08:46:49Z</time></trkpt><trkpt lat="44.385565411475866" lon="7.938195510582538"><ele>423.0</ele><time>2026-03-29T08:46:50Z</time></trkpt><trkpt lat="44.38545123527438" lon="7.937961930124901"><ele>423.0</ele><time>2026-03-29T08:46:51Z</time></trkpt><trkpt lat="44.38533097871531" lon="7.93772797124091"><ele>423.33333333333337</ele><time>2026-03-29T08:46:52Z</time></trkpt><trkpt lat="44.38520608019725" lon="7.937488314957606"><ele>423.6666666666667</ele><time>2026-03-29T08:46:53Z</time></trkpt><trkpt lat="44.38510118178611" lon="7.937232051074383"><ele>424.0</ele><time>2026-03-29T08:46:54Z</time></trkpt><trkpt lat="44.384972066160394" lon="7.936968821640284"><ele>424.0</ele><time>2026-03-29T08:46:55Z</time></trkpt><trkpt lat="44.384832531052176" lon="7.936720444563369"><ele>424.0</ele><time>2026-03-29T08:46:56Z</time></trkpt><trkpt lat="44.38467592389262" lon="7.93644657879199"><ele>425.5</ele><time>2026-03-29T08:46:57Z</time></trkpt><trkpt lat="44.38454163991253" lon="7.936209406291807"><ele>427.0</ele><time>2026-03-29T08:46:58Z</time></trkpt><trkpt lat="44.38440456165461" lon="7.9359249223877555"><ele>427.5</ele><time>2026-03-29T08:46:59Z</time></trkpt><trkpt lat="44.38427126525673" lon="7.935668938803963"><ele>428.0</ele><time>2026-03-29T08:47:00Z</time></trkpt><trkpt lat="44.38412685316936" lon="7.935391626085486"><ele>428.0</ele><time>2026-03-29T08:47:01Z</time></trkpt><trkpt lat="44.383969229729516" lon="7.935082936273894"><ele>428.0</ele><time>2026-03-29T08:47:01.999Z</time></trkpt><trkpt lat="44.38382367460393" lon="7.934807597454682"><ele>428.5</ele><time>2026-03-29T08:47:02.999Z</time></trkpt><trkpt lat="44.38368383302642" lon="7.9345008578830205"><ele>429.0</ele><time>2026-03-29T08:47:03.999Z</time></trkpt><trkpt lat="44.38353882577819" lon="7.934209857990544"><ele>429.0</ele><time>2026-03-29T08:47:04.999Z</time></trkpt><trkpt lat="44.38339155110104" lon="7.933904845554932"><ele>429.0</ele><time>2026-03-29T08:47:05.999Z</time></trkpt><trkpt lat="44.38323039300715" lon="7.933601647481036"><ele>427.5</ele><time>2026-03-29T08:47:06.999Z</time></trkpt><trkpt lat="44.38308190059761" lon="7.933285584587863"><ele>426.0</ele><time>2026-03-29T08:47:07.999Z</time></trkpt><trkpt lat="44.38294761812174" lon="7.933014451856336"><ele>426.66666666666663</ele><time>2026-03-29T08:47:08.999Z</time></trkpt><trkpt lat="44.382807786305456" lon="7.932709961658846"><ele>427.3333333333333</ele><time>2026-03-29T08:47:09.999Z</time></trkpt><trkpt lat="44.38270270074713" lon="7.932538322271645"><ele>428.0</ele><time>2026-03-29T08:47:10.999Z</time></trkpt><trkpt lat="44.38256525409644" lon="7.93226906613273"><ele>428.0</ele><time>2026-03-29T08:47:11.999Z</time></trkpt><trkpt lat="44.3824253508854" lon="7.932017711171072"><ele>428.0</ele><time>2026-03-29T08:47:12.999Z</time></trkpt><trkpt lat="44.382291663646654" lon="7.931769111212826"><ele>428.66666666666663</ele><time>2026-03-29T08:47:13.999Z</time></trkpt><trkpt lat="44.382167505675966" lon="7.931538967687384"><ele>429.33333333333337</ele><time>2026-03-29T08:47:14.999Z</time></trkpt><trkpt lat="44.38204401439418" lon="7.93128972033162"><ele>430.0</ele><time>2026-03-29T08:47:15.999Z</time></trkpt><trkpt lat="44.38191806121492" lon="7.93105008605617"><ele>429.6666666666667</ele><time>2026-03-29T08:47:16.999Z</time></trkpt><trkpt lat="44.38179839190134" lon="7.930818288620735"><ele>429.33333333333337</ele><time>2026-03-29T08:47:17.999Z</time></trkpt><trkpt lat="44.38168001879917" lon="7.930598133881931"><ele>429.0</ele><time>2026-03-29T08:47:18.999Z</time></trkpt><trkpt lat="44.3815776535097" lon="7.930366816705433"><ele>429.0</ele><time>2026-03-29T08:47:19.999Z</time></trkpt><trkpt lat="44.38145771246498" lon="7.930130659338424"><ele>429.0</ele><time>2026-03-29T08:47:20.999Z</time></trkpt><trkpt lat="44.38133766902599" lon="7.929894300235553"><ele>429.0</ele><time>2026-03-29T08:47:21.999Z</time></trkpt><trkpt lat="44.38121468713444" lon="7.92965326372805"><ele>429.33333333333337</ele><time>2026-03-29T08:47:22.999Z</time></trkpt><trkpt lat="44.381074463598196" lon="7.92941718123356"><ele>429.6666666666667</ele><time>2026-03-29T08:47:23.999Z</time></trkpt><trkpt lat="44.38094236235659" lon="7.929159042553259"><ele>430.0</ele><time>2026-03-29T08:47:24.999Z</time></trkpt><trkpt lat="44.380808898589066" lon="7.928904753848425"><ele>430.0</ele><time>2026-03-29T08:47:25.999Z</time></trkpt><trkpt lat="44.380685061811135" lon="7.928641169502824"><ele>430.0</ele><time>2026-03-29T08:47:26.999Z</time></trkpt><trkpt lat="44.38053185936567" lon="7.92840641680837"><ele>432.0</ele><time>2026-03-29T08:47:27.999Z</time></trkpt><trkpt lat="44.38038960888234" lon="7.928142885718819"><ele>434.0</ele><time>2026-03-29T08:47:28.999Z</time></trkpt><trkpt lat="44.38024068844446" lon="7.927874279909447"><ele>434.0</ele><time>2026-03-29T08:47:29.999Z</time></trkpt><trkpt lat="44.38009572495462" lon="7.927601043712795"><ele>434.0</ele><time>2026-03-29T08:47:30.999Z</time></trkpt><trkpt lat="44.37994216815678" lon="7.927331059033141"><ele>434.0</ele><time>2026-03-29T08:47:31.999Z</time></trkpt><trkpt lat="44.37978761957537" lon="7.927089139636598"><ele>434.0</ele><time>2026-03-29T08:47:32.999Z</time></trkpt><trkpt lat="44.3796569624189" lon="7.926865047307534"><ele>434.0</ele><time>2026-03-29T08:47:33.999Z</time></trkpt><trkpt lat="44.37952908146797" lon="7.926629994670206"><ele>433.66666666666663</ele><time>2026-03-29T08:47:34.999Z</time></trkpt><trkpt lat="44.37939327008529" lon="7.926382724534849"><ele>433.33333333333337</ele><time>2026-03-29T08:47:35.999Z</time></trkpt><trkpt lat="44.37926533049513" lon="7.926135518792599"><ele>433.0</ele><time>2026-03-29T08:47:36.999Z</time></trkpt><trkpt lat="44.37912426140693" lon="7.925881751697252"><ele>433.6666666666667</ele><time>2026-03-29T08:47:37.999Z</time></trkpt><trkpt lat="44.37898660126414" lon="7.9256369617665205"><ele>434.33333333333337</ele><time>2026-03-29T08:47:38.999Z</time></trkpt><trkpt lat="44.378842517539205" lon="7.925392630946662"><ele>435.0</ele><time>2026-03-29T08:47:39.999Z</time></trkpt><trkpt lat="44.37870356194955" lon="7.925139990559209"><ele>435.0</ele><time>2026-03-29T08:47:40.999Z</time></trkpt><trkpt lat="44.37856663459569" lon="7.924889707866763"><ele>435.0</ele><time>2026-03-29T08:47:41.999Z</time></trkpt><trkpt lat="44.37842992935614" lon="7.92467513829887"><ele>435.0</ele><time>2026-03-29T08:47:42.999Z</time></trkpt><trkpt lat="44.37830332812742" lon="7.924457196238608"><ele>435.0</ele><time>2026-03-29T08:47:43.999Z</time></trkpt><trkpt lat="44.37819134480007" lon="7.924243235024682"><ele>435.0</ele><time>2026-03-29T08:47:44.999Z</time></trkpt><trkpt lat="44.378066926471504" lon="7.92403167582722"><ele>435.0</ele><time>2026-03-29T08:47:45.999Z</time></trkpt><trkpt lat="44.37796177675318" lon="7.923829937820019"><ele>435.33333333333337</ele><time>2026-03-29T08:47:46.999Z</time></trkpt><trkpt lat="44.37784290582005" lon="7.923621116109077"><ele>435.6666666666667</ele><time>2026-03-29T08:47:47.999Z</time></trkpt><trkpt lat="44.377728308003206" lon="7.923427874256654"><ele>436.0</ele><time>2026-03-29T08:47:48.999Z</time></trkpt><trkpt lat="44.37760753055704" lon="7.923213979223728"><ele>436.0</ele><time>2026-03-29T08:47:49.999Z</time></trkpt><trkpt lat="44.37749415223754" lon="7.923012318223023"><ele>436.0</ele><time>2026-03-29T08:47:50.999Z</time></trkpt><trkpt lat="44.37737080432519" lon="7.9227949472657775"><ele>436.0</ele><time>2026-03-29T08:47:51.999Z</time></trkpt><trkpt lat="44.377251885481186" lon="7.922581112246709"><ele>437.33333333333337</ele><time>2026-03-29T08:47:52.999Z</time></trkpt><trkpt lat="44.37713519150373" lon="7.922366983727335"><ele>438.66666666666663</ele><time>2026-03-29T08:47:53.999Z</time></trkpt><trkpt lat="44.37701977432563" lon="7.922159436887061"><ele>440.0</ele><time>2026-03-29T08:47:54.999Z</time></trkpt><trkpt lat="44.37690340993467" lon="7.921957705595382"><ele>440.0</ele><time>2026-03-29T08:47:55.999Z</time></trkpt><trkpt lat="44.37677822559062" lon="7.9217382834847765"><ele>440.0</ele><time>2026-03-29T08:47:56.999Z</time></trkpt><trkpt lat="44.37665625592932" lon="7.921516689002318"><ele>440.0</ele><time>2026-03-29T08:47:57.999Z</time></trkpt><trkpt lat="44.37652758702609" lon="7.9212897443102435"><ele>439.0</ele><time>2026-03-29T08:47:58.998Z</time></trkpt><trkpt lat="44.37639613701533" lon="7.9210517774663005"><ele>438.0</ele><time>2026-03-29T08:47:59.998Z</time></trkpt><trkpt lat="44.37626606320204" lon="7.9208177700563445"><ele>437.0</ele><time>2026-03-29T08:48:00.998Z</time></trkpt><trkpt lat="44.37613071811524" lon="7.920563828197915"><ele>436.3333333333333</ele><time>2026-03-29T08:48:01.998Z</time></trkpt><trkpt lat="44.37599591302381" lon="7.920320764153069"><ele>435.66666666666663</ele><time>2026-03-29T08:48:02.998Z</time></trkpt><trkpt lat="44.37586011939503" lon="7.920078059455351"><ele>435.0</ele><time>2026-03-29T08:48:03.998Z</time></trkpt><trkpt lat="44.37572303706306" lon="7.919825447450913"><ele>434.33333333333337</ele><time>2026-03-29T08:48:04.998Z</time></trkpt><trkpt lat="44.37557775622723" lon="7.919615621416731"><ele>433.6666666666667</ele><time>2026-03-29T08:48:05.998Z</time></trkpt><trkpt lat="44.37544285350008" lon="7.919380275530472"><ele>433.0</ele><time>2026-03-29T08:48:06.998Z</time></trkpt><trkpt lat="44.37532233467305" lon="7.919163927345008"><ele>433.0</ele><time>2026-03-29T08:48:07.998Z</time></trkpt><trkpt lat="44.37520873424849" lon="7.918952247932996"><ele>433.0</ele><time>2026-03-29T08:48:08.998Z</time></trkpt><trkpt lat="44.37509895043311" lon="7.91874766893499"><ele>433.0</ele><time>2026-03-29T08:48:09.998Z</time></trkpt><trkpt lat="44.374980935110905" lon="7.918535259732756"><ele>429.6666666666667</ele><time>2026-03-29T08:48:10.998Z</time></trkpt><trkpt lat="44.374880283005105" lon="7.91833442960962"><ele>426.33333333333337</ele><time>2026-03-29T08:48:11.998Z</time></trkpt><trkpt lat="44.37478658868952" lon="7.918132905375536"><ele>423.0</ele><time>2026-03-29T08:48:12.998Z</time></trkpt><trkpt lat="44.3746993314858" lon="7.917942388129214"><ele>427.33333333333337</ele><time>2026-03-29T08:48:13.998Z</time></trkpt><trkpt lat="44.37461375983884" lon="7.91775969480028"><ele>431.6666666666667</ele><time>2026-03-29T08:48:14.998Z</time></trkpt><trkpt lat="44.37452417635438" lon="7.917561136052589"><ele>436.0</ele><time>2026-03-29T08:48:15.998Z</time></trkpt><trkpt lat="44.374433658519024" lon="7.91736800617773"><ele>436.0</ele><time>2026-03-29T08:48:16.998Z</time></trkpt><trkpt lat="44.37435396059167" lon="7.917177777720273"><ele>436.0</ele><time>2026-03-29T08:48:17.998Z</time></trkpt><trkpt lat="44.37427598476225" lon="7.916989665515636"><ele>436.0</ele><time>2026-03-29T08:48:18.998Z</time></trkpt><trkpt lat="44.37420479372114" lon="7.916800650559916"><ele>434.0</ele><time>2026-03-29T08:48:19.998Z</time></trkpt><trkpt lat="44.37413873938997" lon="7.916613421113272"><ele>432.0</ele><time>2026-03-29T08:48:20.998Z</time></trkpt><trkpt lat="44.37406091251509" lon="7.9163958460625725"><ele>430.0</ele><time>2026-03-29T08:48:21.998Z</time></trkpt><trkpt lat="44.37399471596887" lon="7.916191480232485"><ele>430.0</ele><time>2026-03-29T08:48:22.998Z</time></trkpt><trkpt lat="44.37393568932429" lon="7.915975905762465"><ele>430.0</ele><time>2026-03-29T08:48:23.998Z</time></trkpt><trkpt lat="44.37388157653673" lon="7.915773630585157"><ele>430.0</ele><time>2026-03-29T08:48:24.998Z</time></trkpt><trkpt lat="44.37383322667375" lon="7.915583385845459"><ele>430.25</ele><time>2026-03-29T08:48:26Z</time></trkpt><trkpt lat="44.373800877232526" lon="7.915421864337288"><ele>430.5</ele><time>2026-03-29T08:48:27Z</time></trkpt><trkpt lat="44.3737674484446" lon="7.9152653124966115"><ele>430.75</ele><time>2026-03-29T08:48:28Z</time></trkpt><trkpt lat="44.37374711499144" lon="7.915086074532918"><ele>431.0</ele><time>2026-03-29T08:48:29Z</time></trkpt><trkpt lat="44.373711447329256" lon="7.914895668719563"><ele>431.0</ele><time>2026-03-29T08:48:30Z</time></trkpt><trkpt lat="44.37367171439202" lon="7.914714724190861"><ele>431.0</ele><time>2026-03-29T08:48:31Z</time></trkpt><trkpt lat="44.37363244086567" lon="7.91452394040775"><ele>431.0</ele><time>2026-03-29T08:48:32Z</time></trkpt><trkpt lat="44.37359524733542" lon="7.914319384443466"><ele>431.0</ele><time>2026-03-29T08:48:33Z</time></trkpt><trkpt lat="44.37355455749202" lon="7.914139876594126"><ele>430.25</ele><time>2026-03-29T08:48:34Z</time></trkpt><trkpt lat="44.37351339755435" lon="7.913961225927987"><ele>429.5</ele><time>2026-03-29T08:48:35Z</time></trkpt><trkpt lat="44.37346812736617" lon="7.913776678392358"><ele>428.75</ele><time>2026-03-29T08:48:36Z</time></trkpt><trkpt lat="44.373428630382165" lon="7.913597296113041"><ele>428.0</ele><time>2026-03-29T08:48:37Z</time></trkpt><trkpt lat="44.373386951561315" lon="7.913420827625261"><ele>427.0</ele><time>2026-03-29T08:48:38Z</time></trkpt><trkpt lat="44.373346882631246" lon="7.913243186811402"><ele>426.0</ele><time>2026-03-29T08:48:39Z</time></trkpt><trkpt lat="44.37331678912059" lon="7.913076813670227"><ele>425.0</ele><time>2026-03-29T08:48:40Z</time></trkpt><trkpt lat="44.37328279373658" lon="7.912911493872533"><ele>424.0</ele><time>2026-03-29T08:48:41Z</time></trkpt><trkpt lat="44.37324028102798" lon="7.91274059371318"><ele>423.5</ele><time>2026-03-29T08:48:42Z</time></trkpt><trkpt lat="44.37320142311366" lon="7.912557575947298"><ele>423.0</ele><time>2026-03-29T08:48:43Z</time></trkpt><trkpt lat="44.373158462325655" lon="7.912362771587425"><ele>422.5</ele><time>2026-03-29T08:48:44Z</time></trkpt><trkpt lat="44.373113050123834" lon="7.912174053463973"><ele>422.0</ele><time>2026-03-29T08:48:45Z</time></trkpt><trkpt lat="44.37306879582839" lon="7.911995489174705"><ele>422.0</ele><time>2026-03-29T08:48:46Z</time></trkpt><trkpt lat="44.37302974442339" lon="7.9118095066169944"><ele>422.0</ele><time>2026-03-29T08:48:47Z</time></trkpt><trkpt lat="44.372981371671266" lon="7.91161199070823"><ele>422.0</ele><time>2026-03-29T08:48:48Z</time></trkpt><trkpt lat="44.37294433904191" lon="7.911427647709344"><ele>422.0</ele><time>2026-03-29T08:48:49Z</time></trkpt><trkpt lat="44.37290381119303" lon="7.9112431497850135"><ele>421.75</ele><time>2026-03-29T08:48:50Z</time></trkpt><trkpt lat="44.372867431635925" lon="7.911060906451324"><ele>421.5</ele><time>2026-03-29T08:48:51Z</time></trkpt><trkpt lat="44.37281715231488" lon="7.9108822627216755"><ele>421.25</ele><time>2026-03-29T08:48:52Z</time></trkpt><trkpt lat="44.37277766650796" lon="7.910691767034021"><ele>421.0</ele><time>2026-03-29T08:48:53Z</time></trkpt><trkpt lat="44.37272881632945" lon="7.9104934140293395"><ele>420.6666666666667</ele><time>2026-03-29T08:48:54Z</time></trkpt><trkpt lat="44.37269023513886" lon="7.910280513469032"><ele>420.33333333333337</ele><time>2026-03-29T08:48:55Z</time></trkpt><trkpt lat="44.37264489868645" lon="7.910072880858567"><ele>420.0</ele><time>2026-03-29T08:48:56Z</time></trkpt><trkpt lat="44.37260311521298" lon="7.909871657383752"><ele>420.0</ele><time>2026-03-29T08:48:57Z</time></trkpt><trkpt lat="44.37256459286839" lon="7.909674667639587"><ele>420.0</ele><time>2026-03-29T08:48:58Z</time></trkpt><trkpt lat="44.37251707614778" lon="7.90946508165749"><ele>420.0</ele><time>2026-03-29T08:48:59Z</time></trkpt><trkpt lat="44.37248721453814" lon="7.909241912783515"><ele>421.33333333333337</ele><time>2026-03-29T08:49:00Z</time></trkpt><trkpt lat="44.37243915187968" lon="7.909024089643363"><ele>422.6666666666667</ele><time>2026-03-29T08:49:01Z</time></trkpt><trkpt lat="44.372390335740484" lon="7.908802817878299"><ele>424.0</ele><time>2026-03-29T08:49:02Z</time></trkpt><trkpt lat="44.372340102009" lon="7.9085745364054345"><ele>426.33333333333337</ele><time>2026-03-29T08:49:03Z</time></trkpt><trkpt lat="44.37228833373449" lon="7.90833794684627"><ele>428.66666666666663</ele><time>2026-03-29T08:49:04Z</time></trkpt><trkpt lat="44.37223594007292" lon="7.908098499192439"><ele>431.0</ele><time>2026-03-29T08:49:05Z</time></trkpt><trkpt lat="44.37218328973381" lon="7.907855733028254"><ele>432.0</ele><time>2026-03-29T08:49:06Z</time></trkpt><trkpt lat="44.37211794180223" lon="7.907614625145518"><ele>433.0</ele><time>2026-03-29T08:49:07Z</time></trkpt><trkpt lat="44.37207004302706" lon="7.907339113205315"><ele>434.0</ele><time>2026-03-29T08:49:08Z</time></trkpt><trkpt lat="44.372025652782256" lon="7.907070840639391"><ele>434.0</ele><time>2026-03-29T08:49:08.999Z</time></trkpt><trkpt lat="44.37201822660627" lon="7.906813861834584"><ele>434.0</ele><time>2026-03-29T08:49:09.999Z</time></trkpt><trkpt lat="44.37200599582947" lon="7.906608249236515"><ele>434.0</ele><time>2026-03-29T08:49:10.999Z</time></trkpt><trkpt lat="44.372012727271354" lon="7.906393318989766"><ele>434.66666666666663</ele><time>2026-03-29T08:49:11.999Z</time></trkpt><trkpt lat="44.37205530011354" lon="7.906175586681336"><ele>435.33333333333337</ele><time>2026-03-29T08:49:12.999Z</time></trkpt><trkpt lat="44.372099402614396" lon="7.905933947956182"><ele>436.0</ele><time>2026-03-29T08:49:13.999Z</time></trkpt><trkpt lat="44.37215451398623" lon="7.905727526491283"><ele>437.6666666666667</ele><time>2026-03-29T08:49:14.999Z</time></trkpt><trkpt lat="44.37222517256037" lon="7.905512995997639"><ele>439.33333333333337</ele><time>2026-03-29T08:49:15.999Z</time></trkpt><trkpt lat="44.372293783082824" lon="7.905309534987453"><ele>441.0</ele><time>2026-03-29T08:49:16.999Z</time></trkpt><trkpt lat="44.37236873799833" lon="7.9050941824753185"><ele>441.33333333333337</ele><time>2026-03-29T08:49:17.999Z</time></trkpt><trkpt lat="44.37244201508351" lon="7.904883650517064"><ele>441.6666666666667</ele><time>2026-03-29T08:49:18.999Z</time></trkpt><trkpt lat="44.3725176036111" lon="7.904666477558384"><ele>442.0</ele><time>2026-03-29T08:49:19.999Z</time></trkpt><trkpt lat="44.372596793296765" lon="7.904438958140049"><ele>442.0</ele><time>2026-03-29T08:49:20.999Z</time></trkpt><trkpt lat="44.37267361396851" lon="7.90421824511345"><ele>442.0</ele><time>2026-03-29T08:49:21.999Z</time></trkpt><trkpt lat="44.37275106047628" lon="7.903986118038054"><ele>442.0</ele><time>2026-03-29T08:49:22.999Z</time></trkpt><trkpt lat="44.372810688325806" lon="7.903793728447826"><ele>442.0</ele><time>2026-03-29T08:49:23.999Z</time></trkpt><trkpt lat="44.37286462585547" lon="7.9035894013291506"><ele>442.0</ele><time>2026-03-29T08:49:24.999Z</time></trkpt><trkpt lat="44.372914132313944" lon="7.903355343342942"><ele>442.0</ele><time>2026-03-29T08:49:25.999Z</time></trkpt><trkpt lat="44.372948745998926" lon="7.903131526500311"><ele>441.6666666666667</ele><time>2026-03-29T08:49:26.999Z</time></trkpt><trkpt lat="44.37296861766372" lon="7.902897382848611"><ele>441.33333333333337</ele><time>2026-03-29T08:49:27.999Z</time></trkpt><trkpt lat="44.37297817265128" lon="7.902684736894787"><ele>441.0</ele><time>2026-03-29T08:49:28.999Z</time></trkpt><trkpt lat="44.37297735576224" lon="7.902481378719908"><ele>441.4</ele><time>2026-03-29T08:49:29.999Z</time></trkpt><trkpt lat="44.37297424335508" lon="7.902315351298518"><ele>441.8</ele><time>2026-03-29T08:49:30.999Z</time></trkpt><trkpt lat="44.37296625079064" lon="7.9021635956833"><ele>442.19999999999993</ele><time>2026-03-29T08:49:31.999Z</time></trkpt><trkpt lat="44.37294856298822" lon="7.902033331395402"><ele>442.59999999999997</ele><time>2026-03-29T08:49:32.999Z</time></trkpt><trkpt lat="44.37291747789791" lon="7.901907045256726"><ele>443.0</ele><time>2026-03-29T08:49:33.999Z</time></trkpt><trkpt lat="44.372906139980785" lon="7.901776441736626"><ele>443.75</ele><time>2026-03-29T08:49:34.999Z</time></trkpt><trkpt lat="44.37292203650044" lon="7.901623743054844"><ele>444.5</ele><time>2026-03-29T08:49:35.999Z</time></trkpt><trkpt lat="44.372946367564204" lon="7.90145594361357"><ele>445.25</ele><time>2026-03-29T08:49:36.999Z</time></trkpt><trkpt lat="44.37296278085092" lon="7.901276924305461"><ele>446.0</ele><time>2026-03-29T08:49:37.999Z</time></trkpt><trkpt lat="44.37298558172307" lon="7.9010864996015915"><ele>447.0</ele><time>2026-03-29T08:49:38.999Z</time></trkpt><trkpt lat="44.37301580827303" lon="7.900909306798875"><ele>448.0</ele><time>2026-03-29T08:49:39.999Z</time></trkpt><trkpt lat="44.37305445899988" lon="7.900685811767844"><ele>449.0</ele><time>2026-03-29T08:49:40.999Z</time></trkpt><trkpt lat="44.37310477916141" lon="7.900471082562929"><ele>452.66666666666663</ele><time>2026-03-29T08:49:41.999Z</time></trkpt><trkpt lat="44.373183770475976" lon="7.9002696396706815"><ele>456.33333333333337</ele><time>2026-03-29T08:49:42.999Z</time></trkpt><trkpt lat="44.3732501569521" lon="7.90007457969199"><ele>460.0</ele><time>2026-03-29T08:49:43.999Z</time></trkpt><trkpt lat="44.37332078242922" lon="7.89987473332234"><ele>460.0</ele><time>2026-03-29T08:49:44.999Z</time></trkpt><trkpt lat="44.373398057687645" lon="7.899660881767165"><ele>460.0</ele><time>2026-03-29T08:49:45.999Z</time></trkpt><trkpt lat="44.373477178461265" lon="7.899442272201027"><ele>460.0</ele><time>2026-03-29T08:49:46.999Z</time></trkpt><trkpt lat="44.3735595648464" lon="7.899214853708275"><ele>458.0</ele><time>2026-03-29T08:49:47.999Z</time></trkpt><trkpt lat="44.37364281365953" lon="7.898986733704375"><ele>456.0</ele><time>2026-03-29T08:49:48.999Z</time></trkpt><trkpt lat="44.37372444284901" lon="7.8987627083621526"><ele>454.0</ele><time>2026-03-29T08:49:49.999Z</time></trkpt><trkpt lat="44.37380244256357" lon="7.898548643854248"><ele>459.33333333333337</ele><time>2026-03-29T08:49:50.999Z</time></trkpt><trkpt lat="44.37388070960639" lon="7.898332169971808"><ele>464.66666666666663</ele><time>2026-03-29T08:49:51.999Z</time></trkpt><trkpt lat="44.37396009570974" lon="7.898111977075465"><ele>470.0</ele><time>2026-03-29T08:49:52.999Z</time></trkpt><trkpt lat="44.37403822464399" lon="7.89789527116291"><ele>470.0</ele><time>2026-03-29T08:49:53.999Z</time></trkpt><trkpt lat="44.374126830781535" lon="7.897653290448596"><ele>470.0</ele><time>2026-03-29T08:49:54.999Z</time></trkpt><trkpt lat="44.37409835164271" lon="7.897334398734662"><ele>470.0</ele><time>2026-03-29T08:49:55.999Z</time></trkpt><trkpt lat="44.374161503416296" lon="7.897103846743919"><ele>468.3333333333333</ele><time>2026-03-29T08:49:56.999Z</time></trkpt><trkpt lat="44.374239228894226" lon="7.896866627359059"><ele>466.66666666666663</ele><time>2026-03-29T08:49:57.999Z</time></trkpt><trkpt lat="44.374392072093364" lon="7.896608951237095"><ele>465.0</ele><time>2026-03-29T08:49:58.999Z</time></trkpt><trkpt lat="44.37457794136858" lon="7.896414108607739"><ele>464.0</ele><time>2026-03-29T08:49:59.999Z</time></trkpt><trkpt lat="44.374652941571014" lon="7.896208436545705"><ele>463.0</ele><time>2026-03-29T08:50:00.999Z</time></trkpt><trkpt lat="44.374726359613376" lon="7.89600859425721"><ele>462.0</ele><time>2026-03-29T08:50:01.999Z</time></trkpt><trkpt lat="44.374793052741545" lon="7.895788847108788"><ele>464.66666666666663</ele><time>2026-03-29T08:50:02.999Z</time></trkpt><trkpt lat="44.374888966104514" lon="7.895583066152538"><ele>467.3333333333333</ele><time>2026-03-29T08:50:03.999Z</time></trkpt><trkpt lat="44.37496764428544" lon="7.895366305077907"><ele>470.0</ele><time>2026-03-29T08:50:04.999Z</time></trkpt><trkpt lat="44.375058975838854" lon="7.8951668855621735"><ele>469.3333333333333</ele><time>2026-03-29T08:50:05.998Z</time></trkpt><trkpt lat="44.375120825686686" lon="7.894963764881456"><ele>468.66666666666663</ele><time>2026-03-29T08:50:06.998Z</time></trkpt><trkpt lat="44.375194071147504" lon="7.894800532740675"><ele>468.0</ele><time>2026-03-29T08:50:07.998Z</time></trkpt><trkpt lat="44.37524145793278" lon="7.894582961747197"><ele>468.0</ele><time>2026-03-29T08:50:08.998Z</time></trkpt><trkpt lat="44.37528143793932" lon="7.894412328394189"><ele>468.0</ele><time>2026-03-29T08:50:09.999Z</time></trkpt><trkpt lat="44.37529361739402" lon="7.89426552342867"><ele>468.0</ele><time>2026-03-29T08:50:10.998Z</time></trkpt><trkpt lat="44.37529397458624" lon="7.894076297187589"><ele>468.0</ele><time>2026-03-29T08:50:11.998Z</time></trkpt><trkpt lat="44.37526853120799" lon="7.8938823063232935"><ele>467.5</ele><time>2026-03-29T08:50:12.998Z</time></trkpt><trkpt lat="44.375223855849285" lon="7.893701191305621"><ele>467.0</ele><time>2026-03-29T08:50:13.998Z</time></trkpt><trkpt lat="44.3751600499186" lon="7.893510780774013"><ele>466.5</ele><time>2026-03-29T08:50:14.998Z</time></trkpt><trkpt lat="44.37507037485462" lon="7.893337666931908"><ele>466.0</ele><time>2026-03-29T08:50:15.998Z</time></trkpt><trkpt lat="44.37496845405243" lon="7.893170131141302"><ele>466.0</ele><time>2026-03-29T08:50:16.998Z</time></trkpt><trkpt lat="44.37485377336546" lon="7.893006933678121"><ele>466.0</ele><time>2026-03-29T08:50:17.998Z</time></trkpt><trkpt lat="44.37473554172867" lon="7.89283310966588"><ele>466.0</ele><time>2026-03-29T08:50:18.998Z</time></trkpt><trkpt lat="44.37462447469502" lon="7.89266827060158"><ele>465.33333333333337</ele><time>2026-03-29T08:50:19.998Z</time></trkpt><trkpt lat="44.374520410568415" lon="7.89252581906948"><ele>464.66666666666663</ele><time>2026-03-29T08:50:20.998Z</time></trkpt><trkpt lat="44.37441318519608" lon="7.892363597658528"><ele>464.0</ele><time>2026-03-29T08:50:21.998Z</time></trkpt><trkpt lat="44.374299587084685" lon="7.892201785714998"><ele>464.0</ele><time>2026-03-29T08:50:22.998Z</time></trkpt><trkpt lat="44.374188169445944" lon="7.892040925104378"><ele>464.0</ele><time>2026-03-29T08:50:23.998Z</time></trkpt><trkpt lat="44.374085766298755" lon="7.891884749944149"><ele>464.0</ele><time>2026-03-29T08:50:24.998Z</time></trkpt><trkpt lat="44.37398126092503" lon="7.891730251650625"><ele>464.5</ele><time>2026-03-29T08:50:25.998Z</time></trkpt><trkpt lat="44.373885694688695" lon="7.891582313813309"><ele>465.0</ele><time>2026-03-29T08:50:26.998Z</time></trkpt><trkpt lat="44.37378417522722" lon="7.891430628670755"><ele>465.5</ele><time>2026-03-29T08:50:27.998Z</time></trkpt><trkpt lat="44.37368813614973" lon="7.891291848241957"><ele>466.0</ele><time>2026-03-29T08:50:28.998Z</time></trkpt><trkpt lat="44.373594969046614" lon="7.8911499278968025"><ele>466.5</ele><time>2026-03-29T08:50:29.998Z</time></trkpt><trkpt lat="44.3735031240263" lon="7.891014813943392"><ele>467.0</ele><time>2026-03-29T08:50:30.998Z</time></trkpt><trkpt lat="44.37341326601213" lon="7.890880220655215"><ele>467.5</ele><time>2026-03-29T08:50:32Z</time></trkpt><trkpt lat="44.37333120786876" lon="7.890764155248578"><ele>468.0</ele><time>2026-03-29T08:50:33Z</time></trkpt><trkpt lat="44.37325595088152" lon="7.890661008779482"><ele>468.1666666666667</ele><time>2026-03-29T08:50:34Z</time></trkpt><trkpt lat="44.37318668993932" lon="7.890569883924066"><ele>468.33333333333337</ele><time>2026-03-29T08:50:35Z</time></trkpt><trkpt lat="44.37312574295222" lon="7.890489610809308"><ele>468.5</ele><time>2026-03-29T08:50:36Z</time></trkpt><trkpt lat="44.37306124480546" lon="7.890410365522668"><ele>468.6666666666667</ele><time>2026-03-29T08:50:37Z</time></trkpt><trkpt lat="44.37300354217669" lon="7.890343230959919"><ele>468.83333333333337</ele><time>2026-03-29T08:50:38Z</time></trkpt><trkpt lat="44.372946234587985" lon="7.890272426150553"><ele>469.0</ele><time>2026-03-29T08:50:39Z</time></trkpt><trkpt lat="44.372876872757836" lon="7.890162952217233"><ele>470.0</ele><time>2026-03-29T08:50:40Z</time></trkpt><trkpt lat="44.37279911000891" lon="7.890060084369449"><ele>471.0</ele><time>2026-03-29T08:50:41Z</time></trkpt><trkpt lat="44.372707194643695" lon="7.88996769642546"><ele>472.0</ele><time>2026-03-29T08:50:42Z</time></trkpt><trkpt lat="44.37262027961018" lon="7.889872279569898"><ele>473.0</ele><time>2026-03-29T08:50:43Z</time></trkpt><trkpt lat="44.372572438257684" lon="7.889764693530606"><ele>474.0</ele><time>2026-03-29T08:50:44Z</time></trkpt><trkpt lat="44.372532759745084" lon="7.889659837790371"><ele>474.0</ele><time>2026-03-29T08:50:45Z</time></trkpt><trkpt lat="44.37249442360096" lon="7.889558529416048"><ele>474.0</ele><time>2026-03-29T08:50:46Z</time></trkpt><trkpt lat="44.37243997333712" lon="7.88944843083975"><ele>474.0</ele><time>2026-03-29T08:50:47Z</time></trkpt><trkpt lat="44.37239359734498" lon="7.889295461999995"><ele>474.0</ele><time>2026-03-29T08:50:48Z</time></trkpt><trkpt lat="44.37234300685349" lon="7.889125190768165"><ele>474.0</ele><time>2026-03-29T08:50:49Z</time></trkpt><trkpt lat="44.37229484780695" lon="7.888964775684762"><ele>473.66666666666663</ele><time>2026-03-29T08:50:50Z</time></trkpt><trkpt lat="44.37223081699347" lon="7.888778384367876"><ele>473.3333333333333</ele><time>2026-03-29T08:50:51Z</time></trkpt><trkpt lat="44.37217111322844" lon="7.888588632370988"><ele>473.0</ele><time>2026-03-29T08:50:52Z</time></trkpt><trkpt lat="44.372113228005645" lon="7.888383951438977"><ele>473.66666666666663</ele><time>2026-03-29T08:50:53Z</time></trkpt><trkpt lat="44.37205104040999" lon="7.888184738010789"><ele>474.33333333333337</ele><time>2026-03-29T08:50:54Z</time></trkpt><trkpt lat="44.37198931121849" lon="7.8879770012812145"><ele>475.0</ele><time>2026-03-29T08:50:55Z</time></trkpt><trkpt lat="44.371923657803855" lon="7.88774679336328"><ele>476.33333333333337</ele><time>2026-03-29T08:50:56Z</time></trkpt><trkpt lat="44.37185690158489" lon="7.887537747020089"><ele>477.66666666666663</ele><time>2026-03-29T08:50:57Z</time></trkpt><trkpt lat="44.371784701625884" lon="7.887317574207189"><ele>479.0</ele><time>2026-03-29T08:50:58Z</time></trkpt><trkpt lat="44.371705135906836" lon="7.887096669865029"><ele>479.0</ele><time>2026-03-29T08:50:59Z</time></trkpt><trkpt lat="44.37160660478958" lon="7.886896264232668"><ele>479.0</ele><time>2026-03-29T08:51:00Z</time></trkpt><trkpt lat="44.37150792369693" lon="7.886719109393816"><ele>479.0</ele><time>2026-03-29T08:51:01Z</time></trkpt><trkpt lat="44.37140947654472" lon="7.886566664462497"><ele>478.3333333333333</ele><time>2026-03-29T08:51:02Z</time></trkpt><trkpt lat="44.371290033933924" lon="7.886419712364561"><ele>477.66666666666663</ele><time>2026-03-29T08:51:03Z</time></trkpt><trkpt lat="44.37115811005512" lon="7.88628774167734"><ele>477.0</ele><time>2026-03-29T08:51:04Z</time></trkpt><trkpt lat="44.37102116319358" lon="7.886156629205954"><ele>477.0</ele><time>2026-03-29T08:51:05Z</time></trkpt><trkpt lat="44.3708793023752" lon="7.8860343349097946"><ele>477.0</ele><time>2026-03-29T08:51:06Z</time></trkpt><trkpt lat="44.37073803771319" lon="7.885890376036575"><ele>477.0</ele><time>2026-03-29T08:51:07Z</time></trkpt><trkpt lat="44.3705939439223" lon="7.885755847276783"><ele>480.0</ele><time>2026-03-29T08:51:08Z</time></trkpt><trkpt lat="44.37045901687172" lon="7.885625570402909"><ele>483.0</ele><time>2026-03-29T08:51:09Z</time></trkpt><trkpt lat="44.37030069264426" lon="7.885480252083937"><ele>486.0</ele><time>2026-03-29T08:51:10Z</time></trkpt><trkpt lat="44.370141589891844" lon="7.885336630230857"><ele>486.0</ele><time>2026-03-29T08:51:11Z</time></trkpt><trkpt lat="44.369970737835" lon="7.885165989093905"><ele>486.0</ele><time>2026-03-29T08:51:12Z</time></trkpt><trkpt lat="44.369811472153984" lon="7.885027479226481"><ele>486.0</ele><time>2026-03-29T08:51:13Z</time></trkpt><trkpt lat="44.36967168039091" lon="7.884869519353922"><ele>488.0</ele><time>2026-03-29T08:51:14Z</time></trkpt><trkpt lat="44.36951555050775" lon="7.884716778622288"><ele>490.0</ele><time>2026-03-29T08:51:14.999Z</time></trkpt><trkpt lat="44.369380989130896" lon="7.884532593354205"><ele>492.0</ele><time>2026-03-29T08:51:15.999Z</time></trkpt><trkpt lat="44.369239244122255" lon="7.884349393106155"><ele>496.33333333333337</ele><time>2026-03-29T08:51:16.999Z</time></trkpt><trkpt lat="44.36910682794841" lon="7.884171471451843"><ele>500.6666666666667</ele><time>2026-03-29T08:51:17.999Z</time></trkpt><trkpt lat="44.36897992373399" lon="7.884009511926521"><ele>505.0</ele><time>2026-03-29T08:51:18.999Z</time></trkpt><trkpt lat="44.36887958561044" lon="7.883858713011742"><ele>504.0</ele><time>2026-03-29T08:51:19.999Z</time></trkpt><trkpt lat="44.36878693847329" lon="7.883720828420066"><ele>503.0</ele><time>2026-03-29T08:51:20.999Z</time></trkpt><trkpt lat="44.36870093095042" lon="7.883586902155854"><ele>502.0</ele><time>2026-03-29T08:51:21.999Z</time></trkpt><trkpt lat="44.368603684341544" lon="7.883454609744902"><ele>501.0</ele><time>2026-03-29T08:51:22.999Z</time></trkpt><trkpt lat="44.3685168471688" lon="7.883296302201475"><ele>501.0</ele><time>2026-03-29T08:51:23.999Z</time></trkpt><trkpt lat="44.368435265504026" lon="7.883118311397278"><ele>501.0</ele><time>2026-03-29T08:51:24.999Z</time></trkpt><trkpt lat="44.36836614089334" lon="7.882922340628699"><ele>501.0</ele><time>2026-03-29T08:51:25.999Z</time></trkpt><trkpt lat="44.36830299507664" lon="7.88272653589295"><ele>503.25</ele><time>2026-03-29T08:51:26.999Z</time></trkpt><trkpt lat="44.36823414634973" lon="7.882529607083057"><ele>505.5</ele><time>2026-03-29T08:51:27.999Z</time></trkpt><trkpt lat="44.3681717298823" lon="7.882342771293113"><ele>507.75</ele><time>2026-03-29T08:51:28.999Z</time></trkpt><trkpt lat="44.368119696301896" lon="7.882176898187793"><ele>510.0</ele><time>2026-03-29T08:51:29.999Z</time></trkpt><trkpt lat="44.36807660697634" lon="7.882026683211724"><ele>510.0</ele><time>2026-03-29T08:51:30.999Z</time></trkpt><trkpt lat="44.3680362047383" lon="7.881858814303213"><ele>510.0</ele><time>2026-03-29T08:51:31.999Z</time></trkpt><trkpt lat="44.36800963082547" lon="7.8816834986846205"><ele>510.0</ele><time>2026-03-29T08:51:32.999Z</time></trkpt><trkpt lat="44.36801160052498" lon="7.881509749017081"><ele>510.0</ele><time>2026-03-29T08:51:33.999Z</time></trkpt><trkpt lat="44.368029958940745" lon="7.881349911112799"><ele>511.75</ele><time>2026-03-29T08:51:34.999Z</time></trkpt><trkpt lat="44.368069712600786" lon="7.881193657705007"><ele>513.5</ele><time>2026-03-29T08:51:35.999Z</time></trkpt><trkpt lat="44.36815012045456" lon="7.881060529267486"><ele>515.25</ele><time>2026-03-29T08:51:36.999Z</time></trkpt><trkpt lat="44.368238084452415" lon="7.880921669739018"><ele>517.0</ele><time>2026-03-29T08:51:37.999Z</time></trkpt><trkpt lat="44.36834130788869" lon="7.880785026872728"><ele>517.0</ele><time>2026-03-29T08:51:38.999Z</time></trkpt><trkpt lat="44.368444008977214" lon="7.880626130580875"><ele>517.0</ele><time>2026-03-29T08:51:39.999Z</time></trkpt><trkpt lat="44.3685460969218" lon="7.880459090425382"><ele>517.0</ele><time>2026-03-29T08:51:40.999Z</time></trkpt><trkpt lat="44.36865350902269" lon="7.880290417648868"><ele>517.0</ele><time>2026-03-29T08:51:41.999Z</time></trkpt><trkpt lat="44.368742012366354" lon="7.880155082307924"><ele>517.0</ele><time>2026-03-29T08:51:42.999Z</time></trkpt><trkpt lat="44.368827902608764" lon="7.880023121054686"><ele>517.0</ele><time>2026-03-29T08:51:43.999Z</time></trkpt><trkpt lat="44.368904913965046" lon="7.879901000094441"><ele>517.0</ele><time>2026-03-29T08:51:44.999Z</time></trkpt><trkpt lat="44.36897659787531" lon="7.879794914555151"><ele>518.0</ele><time>2026-03-29T08:51:45.999Z</time></trkpt><trkpt lat="44.369046435854585" lon="7.87967067733712"><ele>519.0</ele><time>2026-03-29T08:51:46.999Z</time></trkpt><trkpt lat="44.36910359919895" lon="7.879529570741891"><ele>520.0</ele><time>2026-03-29T08:51:47.999Z</time></trkpt><trkpt lat="44.36914184795811" lon="7.8793763996639505"><ele>521.0</ele><time>2026-03-29T08:51:48.999Z</time></trkpt><trkpt lat="44.36916042031178" lon="7.879206312118372"><ele>521.0</ele><time>2026-03-29T08:51:49.999Z</time></trkpt><trkpt lat="44.36915632719331" lon="7.879038002254459"><ele>521.0</ele><time>2026-03-29T08:51:50.999Z</time></trkpt><trkpt lat="44.3691140410005" lon="7.878851080931213"><ele>521.0</ele><time>2026-03-29T08:51:51.999Z</time></trkpt><trkpt lat="44.36903713188989" lon="7.878665440361446"><ele>521.0</ele><time>2026-03-29T08:51:52.999Z</time></trkpt><trkpt lat="44.36898427750751" lon="7.878469234969044"><ele>521.3333333333333</ele><time>2026-03-29T08:51:53.999Z</time></trkpt><trkpt lat="44.36891610105762" lon="7.878273846599203"><ele>521.6666666666666</ele><time>2026-03-29T08:51:54.999Z</time></trkpt><trkpt lat="44.36884451331706" lon="7.878068681746212"><ele>522.0</ele><time>2026-03-29T08:51:55.999Z</time></trkpt><trkpt lat="44.368777955030026" lon="7.877877597309229"><ele>521.5</ele><time>2026-03-29T08:51:56.999Z</time></trkpt><trkpt lat="44.368721632268816" lon="7.877714687856765"><ele>521.0</ele><time>2026-03-29T08:51:57.999Z</time></trkpt><trkpt lat="44.36865231979484" lon="7.877557330217033"><ele>520.5</ele><time>2026-03-29T08:51:58.999Z</time></trkpt><trkpt lat="44.368613955906184" lon="7.877384604870628"><ele>520.0</ele><time>2026-03-29T08:51:59.999Z</time></trkpt><trkpt lat="44.36856167059153" lon="7.877229947901423"><ele>521.4</ele><time>2026-03-29T08:52:00.999Z</time></trkpt><trkpt lat="44.368509345718294" lon="7.877086789377738"><ele>522.8</ele><time>2026-03-29T08:52:01.999Z</time></trkpt><trkpt lat="44.36846454878715" lon="7.876962327529147"><ele>524.2</ele><time>2026-03-29T08:52:02.999Z</time></trkpt><trkpt lat="44.368423092788134" lon="7.876850041217677"><ele>525.6</ele><time>2026-03-29T08:52:03.999Z</time></trkpt><trkpt lat="44.368381528888044" lon="7.876731883796788"><ele>527.0</ele><time>2026-03-29T08:52:04.999Z</time></trkpt><trkpt lat="44.36833964353056" lon="7.876612823904475"><ele>529.6</ele><time>2026-03-29T08:52:05.999Z</time></trkpt><trkpt lat="44.368292904449284" lon="7.876483569638941"><ele>532.2</ele><time>2026-03-29T08:52:06.999Z</time></trkpt><trkpt lat="44.36825575550018" lon="7.876361215742803"><ele>534.8</ele><time>2026-03-29T08:52:07.999Z</time></trkpt><trkpt lat="44.36821596911574" lon="7.876237034007783"><ele>537.4</ele><time>2026-03-29T08:52:08.999Z</time></trkpt><trkpt lat="44.36817475189404" lon="7.876115838107185"><ele>540.0</ele><time>2026-03-29T08:52:09.999Z</time></trkpt><trkpt lat="44.3681315222237" lon="7.8759959756454005"><ele>543.0</ele><time>2026-03-29T08:52:10.999Z</time></trkpt><trkpt lat="44.36808879397464" lon="7.875872048046967"><ele>546.0</ele><time>2026-03-29T08:52:12.015Z</time></trkpt><trkpt lat="44.36805344427704" lon="7.8757696745315355"><ele>549.0</ele><time>2026-03-29T08:52:13.012Z</time></trkpt><trkpt lat="44.36802175222721" lon="7.875674680908444"><ele>552.0</ele><time>2026-03-29T08:52:14.015Z</time></trkpt><trkpt lat="44.367975167450524" lon="7.875554368860498"><ele>555.0</ele><time>2026-03-29T08:52:15.016Z</time></trkpt><trkpt lat="44.36792954591252" lon="7.875428350892624"><ele>555.25</ele><time>2026-03-29T08:52:16.016Z</time></trkpt><trkpt lat="44.36787453556608" lon="7.8752797114481465"><ele>555.5</ele><time>2026-03-29T08:52:17.014Z</time></trkpt><trkpt lat="44.36782141358832" lon="7.875137250550871"><ele>555.75</ele><time>2026-03-29T08:52:18.016Z</time></trkpt><trkpt lat="44.36778175003359" lon="7.874972809403631"><ele>556.0</ele><time>2026-03-29T08:52:19.016Z</time></trkpt><trkpt lat="44.367524636950684" lon="7.874300228439154"><ele>553.25</ele><time>2026-03-29T08:52:24.998Z</time></trkpt><trkpt lat="44.36747632604828" lon="7.874176067798327"><ele>550.5</ele><time>2026-03-29T08:52:25.998Z</time></trkpt><trkpt lat="44.36748098673912" lon="7.873957649515689"><ele>547.75</ele><time>2026-03-29T08:52:26.998Z</time></trkpt><trkpt lat="44.367401107218264" lon="7.873814067743746"><ele>545.0</ele><time>2026-03-29T08:52:27.998Z</time></trkpt><trkpt lat="44.367323049532885" lon="7.873646087764834"><ele>545.0</ele><time>2026-03-29T08:52:28.998Z</time></trkpt><trkpt lat="44.36726597528033" lon="7.873472963746144"><ele>545.0</ele><time>2026-03-29T08:52:29.998Z</time></trkpt><trkpt lat="44.36720058959489" lon="7.873320413694309"><ele>545.0</ele><time>2026-03-29T08:52:30.998Z</time></trkpt><trkpt lat="44.36716120688126" lon="7.873181393945787"><ele>545.0</ele><time>2026-03-29T08:52:31.998Z</time></trkpt><trkpt lat="44.36712570549098" lon="7.873047769296524"><ele>541.75</ele><time>2026-03-29T08:52:32.998Z</time></trkpt><trkpt lat="44.367089899291734" lon="7.872889222652478"><ele>538.5</ele><time>2026-03-29T08:52:33.998Z</time></trkpt><trkpt lat="44.36703279793126" lon="7.872737727638913"><ele>535.25</ele><time>2026-03-29T08:52:34.998Z</time></trkpt><trkpt lat="44.36695880262926" lon="7.872580643214956"><ele>532.0</ele><time>2026-03-29T08:52:35.998Z</time></trkpt><trkpt lat="44.36690429763372" lon="7.872439671547039"><ele>531.75</ele><time>2026-03-29T08:52:36.998Z</time></trkpt><trkpt lat="44.36684264227526" lon="7.872284227338374"><ele>531.5</ele><time>2026-03-29T08:52:38Z</time></trkpt><trkpt lat="44.3668060408849" lon="7.872135512178383"><ele>531.25</ele><time>2026-03-29T08:52:39Z</time></trkpt><trkpt lat="44.366751376677705" lon="7.872013088888635"><ele>531.0</ele><time>2026-03-29T08:52:40Z</time></trkpt><trkpt lat="44.366710219041344" lon="7.871858292837322"><ele>530.5</ele><time>2026-03-29T08:52:41Z</time></trkpt><trkpt lat="44.36665804295525" lon="7.87170458147054"><ele>530.0</ele><time>2026-03-29T08:52:42Z</time></trkpt><trkpt lat="44.36659984173577" lon="7.87157599280655"><ele>529.5</ele><time>2026-03-29T08:52:43Z</time></trkpt><trkpt lat="44.36655877271916" lon="7.8714201351193305"><ele>529.0</ele><time>2026-03-29T08:52:44Z</time></trkpt><trkpt lat="44.36650603317076" lon="7.8712691645179556"><ele>529.0</ele><time>2026-03-29T08:52:45Z</time></trkpt><trkpt lat="44.366457666150495" lon="7.871130710560752"><ele>529.0</ele><time>2026-03-29T08:52:46Z</time></trkpt><trkpt lat="44.3664050393767" lon="7.8709800627054625"><ele>529.0</ele><time>2026-03-29T08:52:47Z</time></trkpt><trkpt lat="44.36633810485062" lon="7.870839343504279"><ele>529.0</ele><time>2026-03-29T08:52:48Z</time></trkpt><trkpt lat="44.36629150618921" lon="7.8707045729808485"><ele>527.4</ele><time>2026-03-29T08:52:49Z</time></trkpt><trkpt lat="44.36624652013098" lon="7.870562599304835"><ele>525.8</ele><time>2026-03-29T08:52:50Z</time></trkpt><trkpt lat="44.366194670990645" lon="7.87042571148204"><ele>524.2</ele><time>2026-03-29T08:52:51Z</time></trkpt><trkpt lat="44.36614825316142" lon="7.870292015878443"><ele>522.6</ele><time>2026-03-29T08:52:52Z</time></trkpt><trkpt lat="44.36609859578222" lon="7.870154550685924"><ele>521.0</ele><time>2026-03-29T08:52:53Z</time></trkpt><trkpt lat="44.36604988051779" lon="7.87002462403272"><ele>520.6666666666666</ele><time>2026-03-29T08:52:54Z</time></trkpt><trkpt lat="44.36600186368861" lon="7.8699155648376315"><ele>520.3333333333333</ele><time>2026-03-29T08:52:55Z</time></trkpt><trkpt lat="44.36595560826418" lon="7.869821324774634"><ele>520.0</ele><time>2026-03-29T08:52:56Z</time></trkpt><trkpt lat="44.36590838060192" lon="7.869733203410944"><ele>519.6666666666666</ele><time>2026-03-29T08:52:57Z</time></trkpt><trkpt lat="44.365867578193" lon="7.869636849627388"><ele>519.3333333333334</ele><time>2026-03-29T08:52:58Z</time></trkpt><trkpt lat="44.36583508558976" lon="7.869526963249718"><ele>519.0</ele><time>2026-03-29T08:52:59Z</time></trkpt><trkpt lat="44.36581376253802" lon="7.86941057021377"><ele>519.0</ele><time>2026-03-29T08:53:00Z</time></trkpt><trkpt lat="44.36577989627067" lon="7.869294821257261"><ele>519.0</ele><time>2026-03-29T08:53:01Z</time></trkpt><trkpt lat="44.365734874569114" lon="7.869173949149399"><ele>519.0</ele><time>2026-03-29T08:53:02Z</time></trkpt><trkpt lat="44.365688684613666" lon="7.869045730060108"><ele>519.0</ele><time>2026-03-29T08:53:03Z</time></trkpt><trkpt lat="44.36565791556509" lon="7.868908182900243"><ele>519.0</ele><time>2026-03-29T08:53:04Z</time></trkpt><trkpt lat="44.36562584362897" lon="7.868752413496493"><ele>519.0</ele><time>2026-03-29T08:53:05Z</time></trkpt><trkpt lat="44.36556927367401" lon="7.86859297475835"><ele>519.0</ele><time>2026-03-29T08:53:06Z</time></trkpt><trkpt lat="44.36551421735717" lon="7.8684446454801895"><ele>519.0</ele><time>2026-03-29T08:53:07Z</time></trkpt><trkpt lat="44.3654660302109" lon="7.868296055442497"><ele>519.0</ele><time>2026-03-29T08:53:08Z</time></trkpt><trkpt lat="44.36542443150851" lon="7.868132934473661"><ele>518.4</ele><time>2026-03-29T08:53:09Z</time></trkpt><trkpt lat="44.36537548216824" lon="7.868002849941185"><ele>517.8</ele><time>2026-03-29T08:53:10Z</time></trkpt><trkpt lat="44.36533933821203" lon="7.867918284210719"><ele>517.2</ele><time>2026-03-29T08:53:11Z</time></trkpt><trkpt lat="44.365313389222706" lon="7.867817154699625"><ele>516.6</ele><time>2026-03-29T08:53:12Z</time></trkpt><trkpt lat="44.36524382431698" lon="7.867662119651519"><ele>516.0</ele><time>2026-03-29T08:53:14Z</time></trkpt><trkpt lat="44.36521180857833" lon="7.8675689118742005"><ele>516.0</ele><time>2026-03-29T08:53:15Z</time></trkpt><trkpt lat="44.36517264020972" lon="7.86744987869729"><ele>516.0</ele><time>2026-03-29T08:53:16Z</time></trkpt><trkpt lat="44.365131592692684" lon="7.86731615170412"><ele>516.0</ele><time>2026-03-29T08:53:17Z</time></trkpt><trkpt lat="44.36508425885721" lon="7.867183931317896"><ele>516.0</ele><time>2026-03-29T08:53:18Z</time></trkpt><trkpt lat="44.36504153351879" lon="7.867063051601088"><ele>516.0</ele><time>2026-03-29T08:53:19Z</time></trkpt><trkpt lat="44.365004853100444" lon="7.866942547553297"><ele>516.0</ele><time>2026-03-29T08:53:20Z</time></trkpt><trkpt lat="44.364959088081996" lon="7.866812597081118"><ele>516.0</ele><time>2026-03-29T08:53:20.999Z</time></trkpt><trkpt lat="44.36491750599639" lon="7.8666954463465615"><ele>516.0</ele><time>2026-03-29T08:53:21.999Z</time></trkpt><trkpt lat="44.364874897423064" lon="7.866576094472766"><ele>516.0</ele><time>2026-03-29T08:53:22.999Z</time></trkpt><trkpt lat="44.364841602408035" lon="7.86643592086937"><ele>516.0</ele><time>2026-03-29T08:53:23.999Z</time></trkpt><trkpt lat="44.36479907903942" lon="7.866312223806248"><ele>516.0</ele><time>2026-03-29T08:53:24.999Z</time></trkpt><trkpt lat="44.364757912719924" lon="7.8661916623145505"><ele>516.0</ele><time>2026-03-29T08:53:25.999Z</time></trkpt><trkpt lat="44.36470325541323" lon="7.866081994187297"><ele>516.0</ele><time>2026-03-29T08:53:26.999Z</time></trkpt><trkpt lat="44.364668987881345" lon="7.865951206853377"><ele>516.0</ele><time>2026-03-29T08:53:27.999Z</time></trkpt><trkpt lat="44.36462676230935" lon="7.865830158739735"><ele>516.0</ele><time>2026-03-29T08:53:28.999Z</time></trkpt><trkpt lat="44.36458540146291" lon="7.865714269757325"><ele>516.1666666666666</ele><time>2026-03-29T08:53:29.999Z</time></trkpt><trkpt lat="44.364543121955364" lon="7.86560078033261"><ele>516.3333333333334</ele><time>2026-03-29T08:53:30.999Z</time></trkpt><trkpt lat="44.36449788647518" lon="7.865511176618541"><ele>516.5</ele><time>2026-03-29T08:53:31.999Z</time></trkpt><trkpt lat="44.36444015829226" lon="7.865424009244491"><ele>516.6666666666667</ele><time>2026-03-29T08:53:32.999Z</time></trkpt><trkpt lat="44.36437070797966" lon="7.865368152302717"><ele>516.8333333333334</ele><time>2026-03-29T08:53:33.999Z</time></trkpt><trkpt lat="44.36430533577822" lon="7.865332922901499"><ele>517.0</ele><time>2026-03-29T08:53:34.999Z</time></trkpt><trkpt lat="44.36420954588214" lon="7.865286920180846"><ele>517.0</ele><time>2026-03-29T08:53:36.999Z</time></trkpt><trkpt lat="44.36425458641198" lon="7.865140807390061"><ele>517.0</ele><time>2026-03-29T08:53:39.999Z</time></trkpt><trkpt lat="44.364317427553935" lon="7.865097591741995"><ele>517.0</ele><time>2026-03-29T08:53:41.999Z</time></trkpt><trkpt lat="44.36425342187281" lon="7.864852844245999"><ele>517.0</ele><time>2026-03-29T08:53:44.999Z</time></trkpt><trkpt lat="44.36419018286813" lon="7.864762266056431"><ele>517.1666666666667</ele><time>2026-03-29T08:53:45.999Z</time></trkpt><trkpt lat="44.364139952995714" lon="7.864683372130473"><ele>517.3333333333334</ele><time>2026-03-29T08:53:46.999Z</time></trkpt><trkpt lat="44.36409111628125" lon="7.864594579750378"><ele>517.5</ele><time>2026-03-29T08:53:47.999Z</time></trkpt><trkpt lat="44.364037796428654" lon="7.86451300949059"><ele>517.6666666666666</ele><time>2026-03-29T08:53:48.999Z</time></trkpt><trkpt lat="44.363983670649674" lon="7.864426423355094"><ele>517.8333333333333</ele><time>2026-03-29T08:53:49.999Z</time></trkpt><trkpt lat="44.36391869978581" lon="7.864282371959202"><ele>518.0</ele><time>2026-03-29T08:53:51.999Z</time></trkpt><trkpt lat="44.363838344406936" lon="7.864175439438063"><ele>517.4</ele><time>2026-03-29T08:53:53.999Z</time></trkpt><trkpt lat="44.363774887014586" lon="7.864063278183466"><ele>516.8</ele><time>2026-03-29T08:53:55.999Z</time></trkpt><trkpt lat="44.36373827062433" lon="7.863974058164878"><ele>516.2</ele><time>2026-03-29T08:53:57.999Z</time></trkpt><trkpt lat="44.363689894717204" lon="7.863892856505033"><ele>515.6</ele><time>2026-03-29T08:53:59.999Z</time></trkpt><trkpt lat="44.363608998047454" lon="7.864017725405126"><ele>515.0</ele><time>2026-03-29T08:54:02.999Z</time></trkpt><trkpt lat="44.363534206820006" lon="7.864088592074223"><ele>515.0</ele><time>2026-03-29T08:54:07.999Z</time></trkpt><trkpt lat="44.36340729404915" lon="7.864083050664182"><ele>515.0</ele><time>2026-03-29T08:54:09.999Z</time></trkpt><trkpt lat="44.36332598844992" lon="7.864073985074622"><ele>515.0</ele><time>2026-03-29T08:54:10.999Z</time></trkpt><trkpt lat="44.36325075349023" lon="7.864045870886435"><ele>515.0</ele><time>2026-03-29T08:54:11.999Z</time></trkpt><trkpt lat="44.363153722175255" lon="7.86402528375596"><ele>515.0</ele><time>2026-03-29T08:54:12.999Z</time></trkpt><trkpt lat="44.36307588607352" lon="7.864023564648908"><ele>515.25</ele><time>2026-03-29T08:54:13.999Z</time></trkpt><trkpt lat="44.36299758423597" lon="7.863838480877025"><ele>515.5</ele><time>2026-03-29T08:54:15.999Z</time></trkpt><trkpt lat="44.362938306853025" lon="7.863743362336089"><ele>515.75</ele><time>2026-03-29T08:54:16.999Z</time></trkpt><trkpt lat="44.362878609085925" lon="7.863609689456267"><ele>516.0</ele><time>2026-03-29T08:54:17.998Z</time></trkpt><trkpt lat="44.36280435625206" lon="7.863488941668531"><ele>515.8333333333334</ele><time>2026-03-29T08:54:18.998Z</time></trkpt><trkpt lat="44.36274315451088" lon="7.863388463551706"><ele>515.6666666666666</ele><time>2026-03-29T08:54:19.998Z</time></trkpt><trkpt lat="44.362683191006056" lon="7.863300961195749"><ele>515.5</ele><time>2026-03-29T08:54:20.998Z</time></trkpt><trkpt lat="44.362634775707185" lon="7.863193733937503"><ele>515.3333333333333</ele><time>2026-03-29T08:54:21.998Z</time></trkpt><trkpt lat="44.36261503800332" lon="7.863079856085646"><ele>515.1666666666666</ele><time>2026-03-29T08:54:23.998Z</time></trkpt><trkpt lat="44.36266719555385" lon="7.863007454742172"><ele>515.0</ele><time>2026-03-29T08:54:24.998Z</time></trkpt><trkpt lat="44.36268037697973" lon="7.8629060921787115"><ele>515.0</ele><time>2026-03-29T08:54:25.998Z</time></trkpt><trkpt lat="44.36269696156219" lon="7.862745791541046"><ele>515.0</ele><time>2026-03-29T08:54:27.998Z</time></trkpt><trkpt lat="44.362715725784724" lon="7.862605575150873"><ele>515.0</ele><time>2026-03-29T08:54:29.998Z</time></trkpt><trkpt lat="44.36277366941316" lon="7.862550620805474"><ele>515.0</ele><time>2026-03-29T08:54:31.998Z</time></trkpt><trkpt lat="44.36284403683314" lon="7.862470267165211"><ele>515.0</ele><time>2026-03-29T08:54:33.998Z</time></trkpt><trkpt lat="44.36277626168671" lon="7.8622632721720045"><ele>514.8333333333333</ele><time>2026-03-29T08:54:35.998Z</time></trkpt><trkpt lat="44.362730235388575" lon="7.862180240343926"><ele>514.6666666666666</ele><time>2026-03-29T08:54:36.998Z</time></trkpt><trkpt lat="44.362672768594585" lon="7.862099702716424"><ele>514.5</ele><time>2026-03-29T08:54:37.998Z</time></trkpt><trkpt lat="44.36260590724518" lon="7.862010979323211"><ele>514.3333333333334</ele><time>2026-03-29T08:54:38.998Z</time></trkpt><trkpt lat="44.36255000115616" lon="7.861917229993867"><ele>514.1666666666667</ele><time>2026-03-29T08:54:39.998Z</time></trkpt><trkpt lat="44.362497971376264" lon="7.861819237795681"><ele>514.0</ele><time>2026-03-29T08:54:40.998Z</time></trkpt><trkpt lat="44.362450966763795" lon="7.861734640630565"><ele>513.6</ele><time>2026-03-29T08:54:41.998Z</time></trkpt><trkpt lat="44.36240322722401" lon="7.861647478064473"><ele>513.2</ele><time>2026-03-29T08:54:42.998Z</time></trkpt><trkpt lat="44.36234939039294" lon="7.861557405175641"><ele>512.8000000000001</ele><time>2026-03-29T08:54:44Z</time></trkpt><trkpt lat="44.36228854110395" lon="7.861445972495913"><ele>512.4</ele><time>2026-03-29T08:54:45Z</time></trkpt><trkpt lat="44.36222107011343" lon="7.86130550120094"><ele>512.0</ele><time>2026-03-29T08:54:46Z</time></trkpt><trkpt lat="44.3621462582886" lon="7.861178479201149"><ele>511.5</ele><time>2026-03-29T08:54:47Z</time></trkpt><trkpt lat="44.36208207019467" lon="7.861073471031784"><ele>511.0</ele><time>2026-03-29T08:54:48Z</time></trkpt><trkpt lat="44.36201153830891" lon="7.860943453287356"><ele>510.5</ele><time>2026-03-29T08:54:49Z</time></trkpt><trkpt lat="44.361926858463455" lon="7.860805391615344"><ele>510.0</ele><time>2026-03-29T08:54:50Z</time></trkpt><trkpt lat="44.36184530082642" lon="7.8606601848942494"><ele>510.0</ele><time>2026-03-29T08:54:51Z</time></trkpt><trkpt lat="44.36177180071128" lon="7.860532615508364"><ele>510.0</ele><time>2026-03-29T08:54:52Z</time></trkpt><trkpt lat="44.36168619190178" lon="7.860397336124021"><ele>510.0</ele><time>2026-03-29T08:54:53Z</time></trkpt><trkpt lat="44.36160539654372" lon="7.860269452014802"><ele>510.0</ele><time>2026-03-29T08:54:54Z</time></trkpt><trkpt lat="44.36153546685822" lon="7.860140419860855"><ele>509.6</ele><time>2026-03-29T08:54:55Z</time></trkpt><trkpt lat="44.3614717712242" lon="7.860011734134429"><ele>509.2</ele><time>2026-03-29T08:54:56Z</time></trkpt><trkpt lat="44.36140151629487" lon="7.859884367596699"><ele>508.79999999999995</ele><time>2026-03-29T08:54:57Z</time></trkpt><trkpt lat="44.361339057980615" lon="7.859778974393261"><ele>508.4</ele><time>2026-03-29T08:54:58Z</time></trkpt><trkpt lat="44.36128155279996" lon="7.8597056872827"><ele>508.0</ele><time>2026-03-29T08:54:59Z</time></trkpt><trkpt lat="44.36122459161066" lon="7.859623223671347"><ele>507.5</ele><time>2026-03-29T08:55:00Z</time></trkpt><trkpt lat="44.36113476343967" lon="7.859517070766157"><ele>507.0</ele><time>2026-03-29T08:55:02Z</time></trkpt><trkpt lat="44.36104292590629" lon="7.859414895345281"><ele>506.5</ele><time>2026-03-29T08:55:04Z</time></trkpt><trkpt lat="44.36098174904213" lon="7.859346831242311"><ele>506.0</ele><time>2026-03-29T08:55:05Z</time></trkpt><trkpt lat="44.3609959483455" lon="7.859103898725638"><ele>506.0</ele><time>2026-03-29T08:55:06Z</time></trkpt><trkpt lat="44.360949881451596" lon="7.8589204783358495"><ele>506.0</ele><time>2026-03-29T08:55:07Z</time></trkpt><trkpt lat="44.36089995282515" lon="7.858755393206332"><ele>506.0</ele><time>2026-03-29T08:55:08Z</time></trkpt><trkpt lat="44.36085640812884" lon="7.858608115556479"><ele>506.0</ele><time>2026-03-29T08:55:09Z</time></trkpt><trkpt lat="44.36081334024384" lon="7.858469196704631"><ele>506.0</ele><time>2026-03-29T08:55:10Z</time></trkpt><trkpt lat="44.3607682831415" lon="7.8583229961214425"><ele>506.0</ele><time>2026-03-29T08:55:11Z</time></trkpt><trkpt lat="44.36071984606117" lon="7.858169928038453"><ele>506.0</ele><time>2026-03-29T08:55:12Z</time></trkpt><trkpt lat="44.36067448255734" lon="7.858021253807281"><ele>506.0</ele><time>2026-03-29T08:55:13Z</time></trkpt><trkpt lat="44.36062233064427" lon="7.857861271572791"><ele>506.0</ele><time>2026-03-29T08:55:14Z</time></trkpt><trkpt lat="44.36055945937731" lon="7.8576759961987985"><ele>506.0</ele><time>2026-03-29T08:55:15Z</time></trkpt><trkpt lat="44.36049621027007" lon="7.85748132913417"><ele>506.0</ele><time>2026-03-29T08:55:16Z</time></trkpt><trkpt lat="44.36045008874198" lon="7.857308085704115"><ele>506.0</ele><time>2026-03-29T08:55:17Z</time></trkpt><trkpt lat="44.360405430040885" lon="7.857118187088391"><ele>505.5</ele><time>2026-03-29T08:55:18Z</time></trkpt><trkpt lat="44.36036684013214" lon="7.856984800852562"><ele>505.0</ele><time>2026-03-29T08:55:19Z</time></trkpt><trkpt lat="44.360319206528644" lon="7.8568094969423"><ele>504.5</ele><time>2026-03-29T08:55:20Z</time></trkpt><trkpt lat="44.36027174916885" lon="7.856645223710735"><ele>504.0</ele><time>2026-03-29T08:55:21Z</time></trkpt><trkpt lat="44.36023220082723" lon="7.856469174095766"><ele>503.75</ele><time>2026-03-29T08:55:22Z</time></trkpt><trkpt lat="44.360191909602136" lon="7.856327012739318"><ele>503.5</ele><time>2026-03-29T08:55:23Z</time></trkpt><trkpt lat="44.36014469474106" lon="7.856160422445141"><ele>503.25</ele><time>2026-03-29T08:55:24Z</time></trkpt><trkpt lat="44.36007011884223" lon="7.855993799288981"><ele>503.0</ele><time>2026-03-29T08:55:25Z</time></trkpt><trkpt lat="44.360029875110264" lon="7.855856441853159"><ele>502.5</ele><time>2026-03-29T08:55:26Z</time></trkpt><trkpt lat="44.35998571295037" lon="7.855702784983777"><ele>502.0</ele><time>2026-03-29T08:55:26.999Z</time></trkpt><trkpt lat="44.35994708819296" lon="7.855561656697779"><ele>501.5</ele><time>2026-03-29T08:55:27.999Z</time></trkpt><trkpt lat="44.35992266189193" lon="7.85538888057485"><ele>501.0</ele><time>2026-03-29T08:55:28.999Z</time></trkpt><trkpt lat="44.35987790144757" lon="7.855233478130084"><ele>501.25</ele><time>2026-03-29T08:55:29.999Z</time></trkpt><trkpt lat="44.35983444767962" lon="7.855082627638861"><ele>501.5</ele><time>2026-03-29T08:55:30.999Z</time></trkpt><trkpt lat="44.3597845042077" lon="7.854909226957242"><ele>501.75</ele><time>2026-03-29T08:55:31.999Z</time></trkpt><trkpt lat="44.35974030684913" lon="7.854753724680681"><ele>502.0</ele><time>2026-03-29T08:55:32.999Z</time></trkpt><trkpt lat="44.35969661314495" lon="7.854600041746965"><ele>501.5</ele><time>2026-03-29T08:55:33.999Z</time></trkpt><trkpt lat="44.35965084183235" lon="7.854439051174465"><ele>501.0</ele><time>2026-03-29T08:55:34.999Z</time></trkpt><trkpt lat="44.359607665641406" lon="7.854287188522302"><ele>500.5</ele><time>2026-03-29T08:55:35.999Z</time></trkpt><trkpt lat="44.35956710887048" lon="7.854144539050986"><ele>500.0</ele><time>2026-03-29T08:55:36.999Z</time></trkpt><trkpt lat="44.35952435587667" lon="7.853994164788742"><ele>499.75</ele><time>2026-03-29T08:55:37.999Z</time></trkpt><trkpt lat="44.359481446180766" lon="7.853843239418876"><ele>499.5</ele><time>2026-03-29T08:55:38.999Z</time></trkpt><trkpt lat="44.359437982453926" lon="7.853690365363281"><ele>499.25</ele><time>2026-03-29T08:55:39.999Z</time></trkpt><trkpt lat="44.359396239240034" lon="7.853543542837433"><ele>499.0</ele><time>2026-03-29T08:55:40.999Z</time></trkpt><trkpt lat="44.359354984847215" lon="7.85339843962123"><ele>498.79999999999995</ele><time>2026-03-29T08:55:41.999Z</time></trkpt><trkpt lat="44.35931466707807" lon="7.853256630734267"><ele>498.59999999999997</ele><time>2026-03-29T08:55:42.999Z</time></trkpt><trkpt lat="44.35924636106884" lon="7.853130555366241"><ele>498.4</ele><time>2026-03-29T08:55:43.999Z</time></trkpt><trkpt lat="44.3592085811351" lon="7.852996048974695"><ele>498.2</ele><time>2026-03-29T08:55:44.999Z</time></trkpt><trkpt lat="44.35916480616176" lon="7.852843761647459"><ele>498.0</ele><time>2026-03-29T08:55:45.999Z</time></trkpt><trkpt lat="44.35912262499513" lon="7.8526910446196005"><ele>498.75</ele><time>2026-03-29T08:55:46.999Z</time></trkpt><trkpt lat="44.35907737483417" lon="7.852521336325732"><ele>499.5</ele><time>2026-03-29T08:55:47.999Z</time></trkpt><trkpt lat="44.3590350002904" lon="7.85237241707811"><ele>500.25</ele><time>2026-03-29T08:55:48.999Z</time></trkpt><trkpt lat="44.35898696019948" lon="7.852201904737298"><ele>501.0</ele><time>2026-03-29T08:55:49.999Z</time></trkpt><trkpt lat="44.35895156493113" lon="7.852065448027845"><ele>501.0</ele><time>2026-03-29T08:55:50.999Z</time></trkpt><trkpt lat="44.35891513380637" lon="7.851939951441778"><ele>501.0</ele><time>2026-03-29T08:55:51.999Z</time></trkpt><trkpt lat="44.35887649028995" lon="7.851790322484319"><ele>501.0</ele><time>2026-03-29T08:55:52.999Z</time></trkpt><trkpt lat="44.35883366801433" lon="7.851639812999587"><ele>501.0</ele><time>2026-03-29T08:55:53.999Z</time></trkpt><trkpt lat="44.35879185822792" lon="7.851475976928337"><ele>499.25</ele><time>2026-03-29T08:55:54.999Z</time></trkpt><trkpt lat="44.35874791472323" lon="7.851326086828814"><ele>497.5</ele><time>2026-03-29T08:55:55.999Z</time></trkpt><trkpt lat="44.35869842559381" lon="7.8511495294811215"><ele>495.75</ele><time>2026-03-29T08:55:56.999Z</time></trkpt><trkpt lat="44.35865193424351" lon="7.8509833549658845"><ele>494.0</ele><time>2026-03-29T08:55:57.999Z</time></trkpt><trkpt lat="44.35861015010467" lon="7.850823459676914"><ele>494.0</ele><time>2026-03-29T08:55:58.999Z</time></trkpt><trkpt lat="44.35856599425326" lon="7.850671608141693"><ele>494.0</ele><time>2026-03-29T08:55:59.999Z</time></trkpt><trkpt lat="44.35851942066755" lon="7.850521352272379"><ele>494.0</ele><time>2026-03-29T08:56:00.999Z</time></trkpt><trkpt lat="44.35847724530885" lon="7.8503629303406735"><ele>494.0</ele><time>2026-03-29T08:56:01.999Z</time></trkpt><trkpt lat="44.35842996331873" lon="7.850209574427328"><ele>494.0</ele><time>2026-03-29T08:56:02.999Z</time></trkpt><trkpt lat="44.35837654736363" lon="7.850043149662674"><ele>494.0</ele><time>2026-03-29T08:56:03.999Z</time></trkpt><trkpt lat="44.35834953627189" lon="7.849893380694176"><ele>494.0</ele><time>2026-03-29T08:56:04.999Z</time></trkpt><trkpt lat="44.358314590665294" lon="7.8497715658449"><ele>494.0</ele><time>2026-03-29T08:56:05.999Z</time></trkpt><trkpt lat="44.358240846582156" lon="7.849623430082051"><ele>494.0</ele><time>2026-03-29T08:56:06.999Z</time></trkpt><trkpt lat="44.358197799915885" lon="7.849450581840477"><ele>494.0</ele><time>2026-03-29T08:56:07.999Z</time></trkpt><trkpt lat="44.358153438221116" lon="7.8492904561201495"><ele>494.0</ele><time>2026-03-29T08:56:08.999Z</time></trkpt><trkpt lat="44.35811116860166" lon="7.8491343440521595"><ele>494.0</ele><time>2026-03-29T08:56:09.999Z</time></trkpt><trkpt lat="44.35806352794574" lon="7.848958852117878"><ele>494.0</ele><time>2026-03-29T08:56:10.999Z</time></trkpt><trkpt lat="44.358028204554735" lon="7.848775556209668"><ele>494.0</ele><time>2026-03-29T08:56:11.999Z</time></trkpt><trkpt lat="44.35797692011047" lon="7.84859745626835"><ele>494.0</ele><time>2026-03-29T08:56:12.999Z</time></trkpt><trkpt lat="44.35791595538214" lon="7.848385737859209"><ele>494.0</ele><time>2026-03-29T08:56:13.999Z</time></trkpt><trkpt lat="44.357854168899685" lon="7.848142488640397"><ele>492.66666666666663</ele><time>2026-03-29T08:56:14.999Z</time></trkpt><trkpt lat="44.35779170563136" lon="7.84793755426264"><ele>491.33333333333337</ele><time>2026-03-29T08:56:15.999Z</time></trkpt><trkpt lat="44.357720769716344" lon="7.847700252123794"><ele>490.0</ele><time>2026-03-29T08:56:16.999Z</time></trkpt><trkpt lat="44.35765656993871" lon="7.8474920462914355"><ele>490.0</ele><time>2026-03-29T08:56:17.999Z</time></trkpt><trkpt lat="44.35759772165065" lon="7.847284123251317"><ele>490.0</ele><time>2026-03-29T08:56:18.999Z</time></trkpt><trkpt lat="44.3575491116547" lon="7.847109888057009"><ele>490.0</ele><time>2026-03-29T08:56:19.999Z</time></trkpt><trkpt lat="44.35748210091936" lon="7.846898086339145"><ele>490.33333333333337</ele><time>2026-03-29T08:56:20.999Z</time></trkpt><trkpt lat="44.35742764238608" lon="7.846721398549719"><ele>490.66666666666663</ele><time>2026-03-29T08:56:21.999Z</time></trkpt><trkpt lat="44.35736949755243" lon="7.846516309188275"><ele>491.0</ele><time>2026-03-29T08:56:22.999Z</time></trkpt><trkpt lat="44.35731677107638" lon="7.846313484768807"><ele>491.0</ele><time>2026-03-29T08:56:23.998Z</time></trkpt><trkpt lat="44.357260673081086" lon="7.846119284457724"><ele>491.0</ele><time>2026-03-29T08:56:24.998Z</time></trkpt><trkpt lat="44.357204654316526" lon="7.845922364449015"><ele>491.0</ele><time>2026-03-29T08:56:25.998Z</time></trkpt><trkpt lat="44.35714564427227" lon="7.845729758044664"><ele>489.66666666666663</ele><time>2026-03-29T08:56:26.998Z</time></trkpt><trkpt lat="44.35708865683569" lon="7.84552858695859"><ele>488.33333333333337</ele><time>2026-03-29T08:56:27.998Z</time></trkpt><trkpt lat="44.35702941652998" lon="7.845344102497545"><ele>487.0</ele><time>2026-03-29T08:56:28.998Z</time></trkpt><trkpt lat="44.35697337792237" lon="7.845146164482724"><ele>487.5</ele><time>2026-03-29T08:56:29.998Z</time></trkpt><trkpt lat="44.35691423746497" lon="7.844955705594212"><ele>488.0</ele><time>2026-03-29T08:56:30.998Z</time></trkpt><trkpt lat="44.356867651695474" lon="7.844769207997547"><ele>488.5</ele><time>2026-03-29T08:56:31.998Z</time></trkpt><trkpt lat="44.35681266911656" lon="7.8445878214188465"><ele>489.0</ele><time>2026-03-29T08:56:32.998Z</time></trkpt><trkpt lat="44.35675700684057" lon="7.844400113041876"><ele>489.5</ele><time>2026-03-29T08:56:33.998Z</time></trkpt><trkpt lat="44.35670876605311" lon="7.844238866885784"><ele>490.0</ele><time>2026-03-29T08:56:34.998Z</time></trkpt><trkpt lat="44.35665268527585" lon="7.844036781765389"><ele>490.5</ele><time>2026-03-29T08:56:35.998Z</time></trkpt><trkpt lat="44.35659381971141" lon="7.843834637296646"><ele>491.0</ele><time>2026-03-29T08:56:36.998Z</time></trkpt><trkpt lat="44.356532541430504" lon="7.843636468851542"><ele>491.0</ele><time>2026-03-29T08:56:37.998Z</time></trkpt><trkpt lat="44.35647751308483" lon="7.843445614548284"><ele>491.0</ele><time>2026-03-29T08:56:38.998Z</time></trkpt><trkpt lat="44.35642960261955" lon="7.843253178076384"><ele>491.0</ele><time>2026-03-29T08:56:39.998Z</time></trkpt><trkpt lat="44.356388474577756" lon="7.843042080154998"><ele>491.0</ele><time>2026-03-29T08:56:40.998Z</time></trkpt><trkpt lat="44.356357669320445" lon="7.842833630076014"><ele>490.75</ele><time>2026-03-29T08:56:41.998Z</time></trkpt><trkpt lat="44.35634330679901" lon="7.8426475480131685"><ele>490.5</ele><time>2026-03-29T08:56:42.998Z</time></trkpt><trkpt lat="44.35632564418452" lon="7.842454897710275"><ele>490.25</ele><time>2026-03-29T08:56:43.998Z</time></trkpt><trkpt lat="44.35633219223071" lon="7.8422707303475105"><ele>490.0</ele><time>2026-03-29T08:56:44.998Z</time></trkpt><trkpt lat="44.35637402742582" lon="7.842063314921421"><ele>490.0</ele><time>2026-03-29T08:56:45.998Z</time></trkpt><trkpt lat="44.3564182931791" lon="7.841855432710919"><ele>490.0</ele><time>2026-03-29T08:56:46.998Z</time></trkpt><trkpt lat="44.35647929351332" lon="7.841637002115676"><ele>490.0</ele><time>2026-03-29T08:56:47.998Z</time></trkpt><trkpt lat="44.35653306120053" lon="7.841465184030542"><ele>489.25</ele><time>2026-03-29T08:56:48.998Z</time></trkpt><trkpt lat="44.35659364576215" lon="7.841282274101714"><ele>488.5</ele><time>2026-03-29T08:56:50Z</time></trkpt><trkpt lat="44.35665302251593" lon="7.841104738725696"><ele>487.75</ele><time>2026-03-29T08:56:51Z</time></trkpt><trkpt lat="44.35671222422321" lon="7.840927726935989"><ele>487.0</ele><time>2026-03-29T08:56:52Z</time></trkpt><trkpt lat="44.35677348225974" lon="7.840744566690247"><ele>484.6666666666667</ele><time>2026-03-29T08:56:53Z</time></trkpt><trkpt lat="44.356838955109644" lon="7.840548804343407"><ele>482.33333333333337</ele><time>2026-03-29T08:56:54Z</time></trkpt><trkpt lat="44.35690243849069" lon="7.840358990389723"><ele>480.0</ele><time>2026-03-29T08:56:55Z</time></trkpt><trkpt lat="44.3569638207026" lon="7.840174616557041"><ele>479.0</ele><time>2026-03-29T08:56:56Z</time></trkpt><trkpt lat="44.35703430012968" lon="7.839962566072683"><ele>478.0</ele><time>2026-03-29T08:56:57Z</time></trkpt><trkpt lat="44.357101158827504" lon="7.839761409109489"><ele>477.0</ele><time>2026-03-29T08:56:58Z</time></trkpt><trkpt lat="44.35716331579169" lon="7.8395743981670725"><ele>477.66666666666663</ele><time>2026-03-29T08:56:59Z</time></trkpt><trkpt lat="44.357226477272725" lon="7.839384365101768"><ele>478.3333333333333</ele><time>2026-03-29T08:57:00Z</time></trkpt><trkpt lat="44.35729102851317" lon="7.839190753318096"><ele>479.0</ele><time>2026-03-29T08:57:01Z</time></trkpt><trkpt lat="44.3573545903396" lon="7.8390002830674606"><ele>479.0</ele><time>2026-03-29T08:57:02Z</time></trkpt><trkpt lat="44.35742169661313" lon="7.838798484910114"><ele>479.0</ele><time>2026-03-29T08:57:03Z</time></trkpt><trkpt lat="44.35748613567721" lon="7.838604001865518"><ele>479.0</ele><time>2026-03-29T08:57:04Z</time></trkpt><trkpt lat="44.35755312507754" lon="7.838401821699888"><ele>478.3333333333333</ele><time>2026-03-29T08:57:05Z</time></trkpt><trkpt lat="44.357621182897105" lon="7.83819641692242"><ele>477.66666666666663</ele><time>2026-03-29T08:57:06Z</time></trkpt><trkpt lat="44.3576913457792" lon="7.837984658915093"><ele>477.0</ele><time>2026-03-29T08:57:07Z</time></trkpt><trkpt lat="44.357769158968175" lon="7.83774786518249"><ele>475.33333333333337</ele><time>2026-03-29T08:57:08Z</time></trkpt><trkpt lat="44.357845541254996" lon="7.837515388847576"><ele>473.6666666666667</ele><time>2026-03-29T08:57:09Z</time></trkpt><trkpt lat="44.35792772952451" lon="7.837265243945247"><ele>472.0</ele><time>2026-03-29T08:57:10Z</time></trkpt><trkpt lat="44.35800645874546" lon="7.837025843517656"><ele>471.33333333333337</ele><time>2026-03-29T08:57:11Z</time></trkpt><trkpt lat="44.3580801436978" lon="7.836801781802305"><ele>470.66666666666663</ele><time>2026-03-29T08:57:12Z</time></trkpt><trkpt lat="44.3581552780883" lon="7.836573312495713"><ele>470.0</ele><time>2026-03-29T08:57:13Z</time></trkpt><trkpt lat="44.3582266997277" lon="7.8363566405135465"><ele>470.0</ele><time>2026-03-29T08:57:14Z</time></trkpt><trkpt lat="44.3582589060032" lon="7.836139305516181"><ele>470.0</ele><time>2026-03-29T08:57:15Z</time></trkpt><trkpt lat="44.35832089928242" lon="7.835944396924173"><ele>470.0</ele><time>2026-03-29T08:57:16Z</time></trkpt><trkpt lat="44.358381080706046" lon="7.83576764311032"><ele>470.0</ele><time>2026-03-29T08:57:17Z</time></trkpt><trkpt lat="44.358433966645066" lon="7.83560181456741"><ele>470.0</ele><time>2026-03-29T08:57:18Z</time></trkpt><trkpt lat="44.35852589793278" lon="7.835451406629113"><ele>470.0</ele><time>2026-03-29T08:57:19Z</time></trkpt><trkpt lat="44.35858336281529" lon="7.835313673592122"><ele>470.0</ele><time>2026-03-29T08:57:20Z</time></trkpt><trkpt lat="44.358648183167865" lon="7.835182978189956"><ele>471.0</ele><time>2026-03-29T08:57:21Z</time></trkpt><trkpt lat="44.35873433112542" lon="7.8350695551263065"><ele>472.0</ele><time>2026-03-29T08:57:22Z</time></trkpt><trkpt lat="44.35885724425352" lon="7.834971394259373"><ele>473.0</ele><time>2026-03-29T08:57:23Z</time></trkpt><trkpt lat="44.35898528114908" lon="7.83490628436426"><ele>474.0</ele><time>2026-03-29T08:57:24Z</time></trkpt><trkpt lat="44.35911689990442" lon="7.834843881912058"><ele>474.0</ele><time>2026-03-29T08:57:25Z</time></trkpt><trkpt lat="44.359261360823226" lon="7.834751088360201"><ele>474.0</ele><time>2026-03-29T08:57:26Z</time></trkpt><trkpt lat="44.35941444744832" lon="7.834686067697745"><ele>474.0</ele><time>2026-03-29T08:57:27Z</time></trkpt><trkpt lat="44.35956419459655" lon="7.834614850687819"><ele>472.66666666666663</ele><time>2026-03-29T08:57:28Z</time></trkpt><trkpt lat="44.35971549187947" lon="7.834533548652024"><ele>471.3333333333333</ele><time>2026-03-29T08:57:29Z</time></trkpt><trkpt lat="44.35986742126015" lon="7.834461444955709"><ele>470.0</ele><time>2026-03-29T08:57:30Z</time></trkpt><trkpt lat="44.36002651068629" lon="7.834443069282375"><ele>470.0</ele><time>2026-03-29T08:57:31Z</time></trkpt><trkpt lat="44.36018131873378" lon="7.834375259847484"><ele>470.0</ele><time>2026-03-29T08:57:31.999Z</time></trkpt><trkpt lat="44.36033651066028" lon="7.834307412353394"><ele>470.0</ele><time>2026-03-29T08:57:32.999Z</time></trkpt><trkpt lat="44.36049086756805" lon="7.834239929911625"><ele>471.0</ele><time>2026-03-29T08:57:33.999Z</time></trkpt><trkpt lat="44.360646809226594" lon="7.834171754633346"><ele>472.0</ele><time>2026-03-29T08:57:34.999Z</time></trkpt><trkpt lat="44.36079105647801" lon="7.83410834045884"><ele>473.0</ele><time>2026-03-29T08:57:35.999Z</time></trkpt><trkpt lat="44.360938350892674" lon="7.834042874415526"><ele>473.0</ele><time>2026-03-29T08:57:36.999Z</time></trkpt><trkpt lat="44.361089756205864" lon="7.833975581237041"><ele>473.0</ele><time>2026-03-29T08:57:37.999Z</time></trkpt><trkpt lat="44.3612302521165" lon="7.833913136854633"><ele>473.0</ele><time>2026-03-29T08:57:38.999Z</time></trkpt><trkpt lat="44.36138964514699" lon="7.833842293494559"><ele>471.3333333333333</ele><time>2026-03-29T08:57:39.999Z</time></trkpt><trkpt lat="44.361538436769536" lon="7.83377616201678"><ele>469.66666666666663</ele><time>2026-03-29T08:57:40.999Z</time></trkpt><trkpt lat="44.36170149593108" lon="7.833704030089282"><ele>468.0</ele><time>2026-03-29T08:57:41.999Z</time></trkpt><trkpt lat="44.36185158385767" lon="7.833637982847587"><ele>468.0</ele><time>2026-03-29T08:57:42.999Z</time></trkpt><trkpt lat="44.3619966899377" lon="7.833574127887706"><ele>468.0</ele><time>2026-03-29T08:57:43.999Z</time></trkpt><trkpt lat="44.362144641716746" lon="7.833486306832511"><ele>468.0</ele><time>2026-03-29T08:57:44.999Z</time></trkpt><trkpt lat="44.36228262554825" lon="7.833422369540249"><ele>468.33333333333337</ele><time>2026-03-29T08:57:45.999Z</time></trkpt><trkpt lat="44.36243420549523" lon="7.8333534892538355"><ele>468.6666666666667</ele><time>2026-03-29T08:57:46.999Z</time></trkpt><trkpt lat="44.36258328292812" lon="7.833284374308307"><ele>469.0</ele><time>2026-03-29T08:57:47.999Z</time></trkpt><trkpt lat="44.362732586899085" lon="7.833219817234662"><ele>469.0</ele><time>2026-03-29T08:57:48.999Z</time></trkpt><trkpt lat="44.36288960137683" lon="7.833177355267802"><ele>469.0</ele><time>2026-03-29T08:57:49.999Z</time></trkpt><trkpt lat="44.36303357638627" lon="7.833094926621828"><ele>469.0</ele><time>2026-03-29T08:57:50.999Z</time></trkpt><trkpt lat="44.36319844573116" lon="7.833038189938513"><ele>468.33333333333337</ele><time>2026-03-29T08:57:51.999Z</time></trkpt><trkpt lat="44.36335350408516" lon="7.8329694439330035"><ele>467.66666666666663</ele><time>2026-03-29T08:57:52.999Z</time></trkpt><trkpt lat="44.363500655188936" lon="7.832899728395069"><ele>467.0</ele><time>2026-03-29T08:57:53.999Z</time></trkpt><trkpt lat="44.36366597092425" lon="7.832829008355754"><ele>467.0</ele><time>2026-03-29T08:57:54.999Z</time></trkpt><trkpt lat="44.363821368477055" lon="7.832764669735758"><ele>467.0</ele><time>2026-03-29T08:57:55.999Z</time></trkpt><trkpt lat="44.36398576830018" lon="7.8327010130278385"><ele>467.0</ele><time>2026-03-29T08:57:56.999Z</time></trkpt><trkpt lat="44.36414316103168" lon="7.832642985868189"><ele>466.66666666666663</ele><time>2026-03-29T08:57:57.999Z</time></trkpt><trkpt lat="44.3643076192621" lon="7.832589471256525"><ele>466.33333333333337</ele><time>2026-03-29T08:57:58.999Z</time></trkpt><trkpt lat="44.364472768539194" lon="7.832533038823596"><ele>466.0</ele><time>2026-03-29T08:57:59.999Z</time></trkpt><trkpt lat="44.36464205789034" lon="7.832483887125317"><ele>466.0</ele><time>2026-03-29T08:58:00.999Z</time></trkpt><trkpt lat="44.36481008552412" lon="7.832428411476752"><ele>466.0</ele><time>2026-03-29T08:58:01.999Z</time></trkpt><trkpt lat="44.36497843434416" lon="7.832373593251362"><ele>466.0</ele><time>2026-03-29T08:58:02.999Z</time></trkpt><trkpt lat="44.36514394351488" lon="7.832340128960969"><ele>466.0</ele><time>2026-03-29T08:58:03.999Z</time></trkpt><trkpt lat="44.36532186249711" lon="7.832286197598662"><ele>466.0</ele><time>2026-03-29T08:58:04.999Z</time></trkpt><trkpt lat="44.3654974169803" lon="7.832232982980027"><ele>466.0</ele><time>2026-03-29T08:58:05.999Z</time></trkpt><trkpt lat="44.365668269728765" lon="7.832160798446117"><ele>464.0</ele><time>2026-03-29T08:58:06.999Z</time></trkpt><trkpt lat="44.3658368253997" lon="7.832109122852085"><ele>462.0</ele><time>2026-03-29T08:58:07.999Z</time></trkpt><trkpt lat="44.36600983496284" lon="7.832059671801095"><ele>460.0</ele><time>2026-03-29T08:58:08.999Z</time></trkpt><trkpt lat="44.36618693490227" lon="7.83200743059577"><ele>460.0</ele><time>2026-03-29T08:58:09.999Z</time></trkpt><trkpt lat="44.36635827922367" lon="7.8319523777881255"><ele>460.0</ele><time>2026-03-29T08:58:10.999Z</time></trkpt><trkpt lat="44.3665401826811" lon="7.831903150613817"><ele>460.0</ele><time>2026-03-29T08:58:11.999Z</time></trkpt><trkpt lat="44.366715673799035" lon="7.83185146509727"><ele>460.33333333333337</ele><time>2026-03-29T08:58:12.999Z</time></trkpt><trkpt lat="44.36689104424284" lon="7.831796924367968"><ele>460.66666666666663</ele><time>2026-03-29T08:58:13.999Z</time></trkpt><trkpt lat="44.36707235075929" lon="7.831739344644639"><ele>461.0</ele><time>2026-03-29T08:58:14.999Z</time></trkpt><trkpt lat="44.367253929656954" lon="7.831685202776647"><ele>460.0</ele><time>2026-03-29T08:58:15.999Z</time></trkpt><trkpt lat="44.367425826109375" lon="7.831627630446231"><ele>459.0</ele><time>2026-03-29T08:58:16.999Z</time></trkpt><trkpt lat="44.367611062212326" lon="7.831576306673765"><ele>458.0</ele><time>2026-03-29T08:58:17.999Z</time></trkpt><trkpt lat="44.3677898650016" lon="7.831524051347186"><ele>458.0</ele><time>2026-03-29T08:58:18.999Z</time></trkpt><trkpt lat="44.36796537723241" lon="7.831470933924691"><ele>458.0</ele><time>2026-03-29T08:58:19.999Z</time></trkpt><trkpt lat="44.36814986800228" lon="7.831414199971605"><ele>458.0</ele><time>2026-03-29T08:58:20.999Z</time></trkpt><trkpt lat="44.36833060655744" lon="7.831354835607323"><ele>457.3333333333333</ele><time>2026-03-29T08:58:21.999Z</time></trkpt><trkpt lat="44.36851309213784" lon="7.831294609039946"><ele>456.66666666666663</ele><time>2026-03-29T08:58:22.999Z</time></trkpt><trkpt lat="44.36868647135665" lon="7.831241331981976"><ele>456.0</ele><time>2026-03-29T08:58:23.999Z</time></trkpt><trkpt lat="44.36886310438245" lon="7.83118503857202"><ele>455.33333333333337</ele><time>2026-03-29T08:58:24.999Z</time></trkpt><trkpt lat="44.36903346504302" lon="7.831131514301165"><ele>454.6666666666667</ele><time>2026-03-29T08:58:25.999Z</time></trkpt><trkpt lat="44.36921018935693" lon="7.831079171701537"><ele>454.0</ele><time>2026-03-29T08:58:26.999Z</time></trkpt><trkpt lat="44.36939195515853" lon="7.8310287901229865"><ele>454.33333333333337</ele><time>2026-03-29T08:58:27.999Z</time></trkpt><trkpt lat="44.36957698109687" lon="7.8309715358603125"><ele>454.66666666666663</ele><time>2026-03-29T08:58:28.998Z</time></trkpt><trkpt lat="44.369769477312346" lon="7.830912307613601"><ele>455.0</ele><time>2026-03-29T08:58:29.998Z</time></trkpt><trkpt lat="44.369963449229495" lon="7.830857739884572"><ele>455.0</ele><time>2026-03-29T08:58:30.998Z</time></trkpt><trkpt lat="44.37016513546776" lon="7.830794425625916"><ele>455.0</ele><time>2026-03-29T08:58:31.998Z</time></trkpt><trkpt lat="44.37036759693386" lon="7.830732028245404"><ele>455.0</ele><time>2026-03-29T08:58:32.998Z</time></trkpt><trkpt lat="44.37057005553278" lon="7.830671607039504"><ele>454.3333333333333</ele><time>2026-03-29T08:58:33.998Z</time></trkpt><trkpt lat="44.37076585855479" lon="7.830613283746265"><ele>453.66666666666663</ele><time>2026-03-29T08:58:34.998Z</time></trkpt><trkpt lat="44.37095364051714" lon="7.830552810812204"><ele>453.0</ele><time>2026-03-29T08:58:35.998Z</time></trkpt><trkpt lat="44.37114009066258" lon="7.830488319786571"><ele>453.0</ele><time>2026-03-29T08:58:36.998Z</time></trkpt><trkpt lat="44.37134128911828" lon="7.830449317353755"><ele>453.0</ele><time>2026-03-29T08:58:37.998Z</time></trkpt><trkpt lat="44.37154006879907" lon="7.830389301038011"><ele>453.0</ele><time>2026-03-29T08:58:38.998Z</time></trkpt><trkpt lat="44.371743469241984" lon="7.830327889592363"><ele>451.66666666666663</ele><time>2026-03-29T08:58:39.998Z</time></trkpt><trkpt lat="44.37194250317978" lon="7.830267796511566"><ele>450.3333333333333</ele><time>2026-03-29T08:58:40.998Z</time></trkpt><trkpt lat="44.37216337944892" lon="7.830200994291202"><ele>449.0</ele><time>2026-03-29T08:58:41.998Z</time></trkpt><trkpt lat="44.37237986030892" lon="7.830135467172869"><ele>449.0</ele><time>2026-03-29T08:58:42.998Z</time></trkpt><trkpt lat="44.37259539715273" lon="7.830070737688631"><ele>449.0</ele><time>2026-03-29T08:58:43.998Z</time></trkpt><trkpt lat="44.37277888584022" lon="7.830015418680849"><ele>449.0</ele><time>2026-03-29T08:58:44.998Z</time></trkpt><trkpt lat="44.37295790038076" lon="7.829961002189458"><ele>449.66666666666663</ele><time>2026-03-29T08:58:45.998Z</time></trkpt><trkpt lat="44.37313102680516" lon="7.8299078649275025"><ele>450.33333333333337</ele><time>2026-03-29T08:58:46.998Z</time></trkpt><trkpt lat="44.373286107989124" lon="7.829860266240742"><ele>451.0</ele><time>2026-03-29T08:58:47.998Z</time></trkpt><trkpt lat="44.373442365199224" lon="7.829812306596848"><ele>451.0</ele><time>2026-03-29T08:58:48.998Z</time></trkpt><trkpt lat="44.373598259438474" lon="7.829764421635475"><ele>451.0</ele><time>2026-03-29T08:58:49.998Z</time></trkpt><trkpt lat="44.37375904390908" lon="7.829714976090363"><ele>451.0</ele><time>2026-03-29T08:58:50.998Z</time></trkpt><trkpt lat="44.37391732693751" lon="7.829666356059306"><ele>452.0</ele><time>2026-03-29T08:58:51.998Z</time></trkpt><trkpt lat="44.37406641422445" lon="7.829620590483088"><ele>453.0</ele><time>2026-03-29T08:58:52.998Z</time></trkpt><trkpt lat="44.3742196700078" lon="7.82957354526631"><ele>454.0</ele><time>2026-03-29T08:58:53.998Z</time></trkpt><trkpt lat="44.374373842392146" lon="7.829526218692401"><ele>454.0</ele><time>2026-03-29T08:58:54.998Z</time></trkpt><trkpt lat="44.37452918516266" lon="7.82947853284135"><ele>454.0</ele><time>2026-03-29T08:58:56Z</time></trkpt><trkpt lat="44.37467676651215" lon="7.829433229530899"><ele>454.0</ele><time>2026-03-29T08:58:57Z</time></trkpt><trkpt lat="44.374813708692415" lon="7.829389386533155"><ele>452.75</ele><time>2026-03-29T08:58:58Z</time></trkpt><trkpt lat="44.37494169567224" lon="7.82933953184053"><ele>451.5</ele><time>2026-03-29T08:58:59Z</time></trkpt><trkpt lat="44.37508093374672" lon="7.829268592562459"><ele>450.25</ele><time>2026-03-29T08:59:00Z</time></trkpt><trkpt lat="44.375210966485064" lon="7.829146593929834"><ele>449.0</ele><time>2026-03-29T08:59:01Z</time></trkpt><trkpt lat="44.375343595472216" lon="7.829024009041314"><ele>448.66666666666663</ele><time>2026-03-29T08:59:02Z</time></trkpt><trkpt lat="44.37548627841521" lon="7.828890058360984"><ele>448.33333333333337</ele><time>2026-03-29T08:59:03Z</time></trkpt><trkpt lat="44.37562650447659" lon="7.828761063631928"><ele>448.0</ele><time>2026-03-29T08:59:04Z</time></trkpt><trkpt lat="44.375766755942166" lon="7.828624158422046"><ele>448.0</ele><time>2026-03-29T08:59:05Z</time></trkpt><trkpt lat="44.375894431315714" lon="7.8284904967116695"><ele>448.0</ele><time>2026-03-29T08:59:06Z</time></trkpt><trkpt lat="44.376028955235675" lon="7.828368259780749"><ele>448.0</ele><time>2026-03-29T08:59:07Z</time></trkpt><trkpt lat="44.37616444226506" lon="7.828236527965951"><ele>447.33333333333337</ele><time>2026-03-29T08:59:08Z</time></trkpt><trkpt lat="44.37630490807838" lon="7.828100410433058"><ele>446.66666666666663</ele><time>2026-03-29T08:59:09Z</time></trkpt><trkpt lat="44.37643942711166" lon="7.827971819999738"><ele>446.0</ele><time>2026-03-29T08:59:10Z</time></trkpt><trkpt lat="44.37656889522158" lon="7.827845809519716"><ele>446.0</ele><time>2026-03-29T08:59:11Z</time></trkpt><trkpt lat="44.37670301480728" lon="7.8277163872593745"><ele>446.0</ele><time>2026-03-29T08:59:12Z</time></trkpt><trkpt lat="44.376823361638095" lon="7.827599237976722"><ele>446.0</ele><time>2026-03-29T08:59:13Z</time></trkpt><trkpt lat="44.37693851400348" lon="7.827488696057546"><ele>446.0</ele><time>2026-03-29T08:59:14Z</time></trkpt><trkpt lat="44.37705022598492" lon="7.827382822128319"><ele>446.0</ele><time>2026-03-29T08:59:15Z</time></trkpt><trkpt lat="44.377166431221205" lon="7.827292567545775"><ele>446.0</ele><time>2026-03-29T08:59:16Z</time></trkpt><trkpt lat="44.377286846018805" lon="7.827157380966362"><ele>446.0</ele><time>2026-03-29T08:59:17Z</time></trkpt><trkpt lat="44.377405292968525" lon="7.826992897878168"><ele>444.66666666666663</ele><time>2026-03-29T08:59:18Z</time></trkpt><trkpt lat="44.37751195931295" lon="7.826787755602277"><ele>443.33333333333337</ele><time>2026-03-29T08:59:19Z</time></trkpt><trkpt lat="44.377596733268206" lon="7.82656358189016"><ele>442.0</ele><time>2026-03-29T08:59:20Z</time></trkpt><trkpt lat="44.37767367270215" lon="7.82631605712395"><ele>442.0</ele><time>2026-03-29T08:59:21Z</time></trkpt><trkpt lat="44.377754412386494" lon="7.82609694178125"><ele>442.0</ele><time>2026-03-29T08:59:22Z</time></trkpt><trkpt lat="44.377830670950246" lon="7.825890221439754"><ele>442.0</ele><time>2026-03-29T08:59:23Z</time></trkpt><trkpt lat="44.37789658031351" lon="7.825697513965339"><ele>441.33333333333337</ele><time>2026-03-29T08:59:24Z</time></trkpt><trkpt lat="44.377963177673344" lon="7.825504620133267"><ele>440.66666666666663</ele><time>2026-03-29T08:59:25Z</time></trkpt><trkpt lat="44.37802879557975" lon="7.825290467608034"><ele>440.0</ele><time>2026-03-29T08:59:26Z</time></trkpt><trkpt lat="44.3780750798464" lon="7.825054886562193"><ele>442.3333333333333</ele><time>2026-03-29T08:59:27Z</time></trkpt><trkpt lat="44.37809779758653" lon="7.824802141254498"><ele>444.66666666666663</ele><time>2026-03-29T08:59:28Z</time></trkpt><trkpt lat="44.378115295387914" lon="7.824547201896956"><ele>447.0</ele><time>2026-03-29T08:59:29Z</time></trkpt><trkpt lat="44.37812979242657" lon="7.824319643316248"><ele>446.66666666666663</ele><time>2026-03-29T08:59:30Z</time></trkpt><trkpt lat="44.3781377114716" lon="7.824096951851295"><ele>446.3333333333333</ele><time>2026-03-29T08:59:31Z</time></trkpt><trkpt lat="44.37815434339637" lon="7.8238723015163805"><ele>446.0</ele><time>2026-03-29T08:59:32Z</time></trkpt><trkpt lat="44.378172940113565" lon="7.823655952682917"><ele>445.0</ele><time>2026-03-29T08:59:33Z</time></trkpt><trkpt lat="44.37820268547928" lon="7.823444315578171"><ele>444.0</ele><time>2026-03-29T08:59:34Z</time></trkpt><trkpt lat="44.37824249954863" lon="7.8232608433475255"><ele>443.0</ele><time>2026-03-29T08:59:35Z</time></trkpt><trkpt lat="44.37829009086345" lon="7.823070982464536"><ele>442.0</ele><time>2026-03-29T08:59:36Z</time></trkpt><trkpt lat="44.378348155341826" lon="7.822895127645231"><ele>442.0</ele><time>2026-03-29T08:59:36.999Z</time></trkpt><trkpt lat="44.37844481389439" lon="7.822723125156806"><ele>442.0</ele><time>2026-03-29T08:59:37.999Z</time></trkpt><trkpt lat="44.37854271353716" lon="7.8225468614266545"><ele>442.0</ele><time>2026-03-29T08:59:38.999Z</time></trkpt><trkpt lat="44.37866995803643" lon="7.82235729357507"><ele>441.33333333333337</ele><time>2026-03-29T08:59:39.999Z</time></trkpt><trkpt lat="44.37877474089442" lon="7.8221796451097365"><ele>440.66666666666663</ele><time>2026-03-29T08:59:40.999Z</time></trkpt><trkpt lat="44.37887505904604" lon="7.822017154860502"><ele>440.0</ele><time>2026-03-29T08:59:41.999Z</time></trkpt><trkpt lat="44.378968390434196" lon="7.821869294349091"><ele>437.0</ele><time>2026-03-29T08:59:42.999Z</time></trkpt><trkpt lat="44.379062130044225" lon="7.8217264540386005"><ele>434.0</ele><time>2026-03-29T08:59:43.999Z</time></trkpt><trkpt lat="44.37915254366626" lon="7.8216011371521095"><ele>431.0</ele><time>2026-03-29T08:59:44.999Z</time></trkpt><trkpt lat="44.37925846906018" lon="7.821488635618139"><ele>428.0</ele><time>2026-03-29T08:59:45.999Z</time></trkpt><trkpt lat="44.37938874138025" lon="7.821398703078172"><ele>428.0</ele><time>2026-03-29T08:59:46.999Z</time></trkpt><trkpt lat="44.379543125755326" lon="7.821325041738671"><ele>428.0</ele><time>2026-03-29T08:59:47.999Z</time></trkpt><trkpt lat="44.379706165511585" lon="7.82126841130012"><ele>428.0</ele><time>2026-03-29T08:59:48.999Z</time></trkpt><trkpt lat="44.37987786222569" lon="7.821215093079345"><ele>431.3333333333333</ele><time>2026-03-29T08:59:49.999Z</time></trkpt><trkpt lat="44.38004907559701" lon="7.821178711619443"><ele>434.66666666666663</ele><time>2026-03-29T08:59:50.999Z</time></trkpt><trkpt lat="44.38020195128457" lon="7.821148073900159"><ele>438.0</ele><time>2026-03-29T08:59:51.999Z</time></trkpt><trkpt lat="44.380347767505754" lon="7.821094234749425"><ele>438.0</ele><time>2026-03-29T08:59:52.999Z</time></trkpt><trkpt lat="44.38049252486827" lon="7.821047031134934"><ele>438.0</ele><time>2026-03-29T08:59:53.999Z</time></trkpt><trkpt lat="44.38063480913097" lon="7.820943310987727"><ele>438.0</ele><time>2026-03-29T08:59:54.999Z</time></trkpt><trkpt lat="44.380767481216836" lon="7.820840519786876"><ele>434.25</ele><time>2026-03-29T08:59:55.999Z</time></trkpt><trkpt lat="44.38087656966163" lon="7.820738143008421"><ele>430.5</ele><time>2026-03-29T08:59:56.999Z</time></trkpt><trkpt lat="44.3809911175331" lon="7.8206551661199555"><ele>426.75</ele><time>2026-03-29T08:59:57.999Z</time></trkpt><trkpt lat="44.381097471215554" lon="7.820577335546622"><ele>423.0</ele><time>2026-03-29T08:59:58.999Z</time></trkpt><trkpt lat="44.381188757934545" lon="7.820514367234992"><ele>423.0</ele><time>2026-03-29T08:59:59.999Z</time></trkpt><trkpt lat="44.38129047210256" lon="7.820481720408292"><ele>423.0</ele><time>2026-03-29T09:00:00.999Z</time></trkpt><trkpt lat="44.38141174366164" lon="7.820434924926451"><ele>423.0</ele><time>2026-03-29T09:00:01.999Z</time></trkpt><trkpt lat="44.38154925981267" lon="7.820434170329551"><ele>423.0</ele><time>2026-03-29T09:00:02.999Z</time></trkpt><trkpt lat="44.38169008196816" lon="7.820521554278085"><ele>424.25</ele><time>2026-03-29T09:00:03.999Z</time></trkpt><trkpt lat="44.38183014544926" lon="7.820552788065582"><ele>425.5</ele><time>2026-03-29T09:00:04.999Z</time></trkpt><trkpt lat="44.38195656259073" lon="7.820596578266594"><ele>426.75</ele><time>2026-03-29T09:00:05.999Z</time></trkpt><trkpt lat="44.38205741870769" lon="7.820643827566719"><ele>428.0</ele><time>2026-03-29T09:00:06.999Z</time></trkpt><trkpt lat="44.382173998934135" lon="7.820690224402044"><ele>425.4</ele><time>2026-03-29T09:00:07.999Z</time></trkpt><trkpt lat="44.382272743197454" lon="7.820737695013509"><ele>422.79999999999995</ele><time>2026-03-29T09:00:08.999Z</time></trkpt><trkpt lat="44.382372545557416" lon="7.820774546536311"><ele>420.2</ele><time>2026-03-29T09:00:09.999Z</time></trkpt><trkpt lat="44.38246850540283" lon="7.820800264712643"><ele>417.6</ele><time>2026-03-29T09:00:10.999Z</time></trkpt><trkpt lat="44.38254310005207" lon="7.82086014136138"><ele>415.0</ele><time>2026-03-29T09:00:11.999Z</time></trkpt><trkpt lat="44.38261077218589" lon="7.820922412017874"><ele>418.0</ele><time>2026-03-29T09:00:12.999Z</time></trkpt><trkpt lat="44.3826769999571" lon="7.821028312765914"><ele>421.0</ele><time>2026-03-29T09:00:13.999Z</time></trkpt><trkpt lat="44.38269742362538" lon="7.821196376605381"><ele>424.0</ele><time>2026-03-29T09:00:14.999Z</time></trkpt><trkpt lat="44.38273959768698" lon="7.821360292857693"><ele>427.0</ele><time>2026-03-29T09:00:15.999Z</time></trkpt><trkpt lat="44.38277401752277" lon="7.821527693360564"><ele>427.0</ele><time>2026-03-29T09:00:16.999Z</time></trkpt><trkpt lat="44.382798342271464" lon="7.821683908262845"><ele>427.00000000000006</ele><time>2026-03-29T09:00:17.999Z</time></trkpt><trkpt lat="44.38283007788358" lon="7.82183571888178"><ele>427.00000000000006</ele><time>2026-03-29T09:00:18.999Z</time></trkpt><trkpt lat="44.382859957170226" lon="7.821978573848665"><ele>427.0</ele><time>2026-03-29T09:00:19.999Z</time></trkpt><trkpt lat="44.38288198142336" lon="7.822106568703527"><ele>427.0</ele><time>2026-03-29T09:00:20.999Z</time></trkpt><trkpt lat="44.382920477349685" lon="7.822233948118849"><ele>424.5</ele><time>2026-03-29T09:00:21.999Z</time></trkpt><trkpt lat="44.38299559362745" lon="7.822350649794496"><ele>422.0</ele><time>2026-03-29T09:00:22.999Z</time></trkpt><trkpt lat="44.38310749288568" lon="7.822423905084693"><ele>419.5</ele><time>2026-03-29T09:00:23.999Z</time></trkpt><trkpt lat="44.38322237469398" lon="7.822474514607263"><ele>417.0</ele><time>2026-03-29T09:00:24.999Z</time></trkpt><trkpt lat="44.38334569437792" lon="7.822504683777065"><ele>417.0</ele><time>2026-03-29T09:00:25.999Z</time></trkpt><trkpt lat="44.383491658263864" lon="7.822526174743059"><ele>417.0</ele><time>2026-03-29T09:00:26.999Z</time></trkpt><trkpt lat="44.38362423835642" lon="7.822522124481559"><ele>417.0</ele><time>2026-03-29T09:00:27.999Z</time></trkpt><trkpt lat="44.38374426050643" lon="7.8224980275476845"><ele>417.0</ele><time>2026-03-29T09:00:28.999Z</time></trkpt><trkpt lat="44.3838453711151" lon="7.822484405168586"><ele>417.25</ele><time>2026-03-29T09:00:29.999Z</time></trkpt><trkpt lat="44.383966790307674" lon="7.8224486548874745"><ele>417.5</ele><time>2026-03-29T09:00:30.999Z</time></trkpt><trkpt lat="44.384082933183365" lon="7.82241412940337"><ele>417.75</ele><time>2026-03-29T09:00:31.999Z</time></trkpt><trkpt lat="44.38417910016453" lon="7.822385542101253"><ele>418.0</ele><time>2026-03-29T09:00:32.999Z</time></trkpt><trkpt lat="44.38428847853083" lon="7.822353027478153"><ele>418.0</ele><time>2026-03-29T09:00:33.998Z</time></trkpt><trkpt lat="44.38440017289991" lon="7.822319824390113"><ele>418.0</ele><time>2026-03-29T09:00:34.998Z</time></trkpt><trkpt lat="44.38451627114116" lon="7.822285462988462"><ele>418.0</ele><time>2026-03-29T09:00:35.998Z</time></trkpt><trkpt lat="44.38461916525086" lon="7.822245547526276"><ele>418.0</ele><time>2026-03-29T09:00:36.998Z</time></trkpt><trkpt lat="44.38472118070925" lon="7.822203243481607"><ele>418.0</ele><time>2026-03-29T09:00:37.998Z</time></trkpt><trkpt lat="44.38483197883679" lon="7.8221535459931255"><ele>418.75</ele><time>2026-03-29T09:00:38.998Z</time></trkpt><trkpt lat="44.38497552485491" lon="7.822084454833879"><ele>419.5</ele><time>2026-03-29T09:00:39.998Z</time></trkpt><trkpt lat="44.385110227561185" lon="7.82202040101324"><ele>420.25</ele><time>2026-03-29T09:00:41.998Z</time></trkpt><trkpt lat="44.38519847240469" lon="7.82197931723831"><ele>421.0</ele><time>2026-03-29T09:00:42.998Z</time></trkpt><trkpt lat="44.38530026406076" lon="7.821931926521779"><ele>421.00000000000006</ele><time>2026-03-29T09:00:43.998Z</time></trkpt><trkpt lat="44.385385793427794" lon="7.821892106979808"><ele>421.0</ele><time>2026-03-29T09:00:44.998Z</time></trkpt><trkpt lat="44.38546484876885" lon="7.821855301517234"><ele>421.0</ele><time>2026-03-29T09:00:45.998Z</time></trkpt><trkpt lat="44.38554430339604" lon="7.821818310167423"><ele>421.0</ele><time>2026-03-29T09:00:46.998Z</time></trkpt><trkpt lat="44.38562446903622" lon="7.821780987809939"><ele>421.00000000000006</ele><time>2026-03-29T09:00:47.998Z</time></trkpt><trkpt lat="44.3856918463286" lon="7.821738412050728"><ele>421.0</ele><time>2026-03-29T09:00:48.998Z</time></trkpt><trkpt lat="44.38576436376183" lon="7.821664516890011"><ele>418.50000000000006</ele><time>2026-03-29T09:00:49.998Z</time></trkpt><trkpt lat="44.38582443781317" lon="7.821563545521753"><ele>416.0</ele><time>2026-03-29T09:00:50.998Z</time></trkpt><trkpt lat="44.38587698635084" lon="7.821455455414608"><ele>413.5</ele><time>2026-03-29T09:00:51.998Z</time></trkpt><trkpt lat="44.38592582863256" lon="7.821355824616764"><ele>411.0</ele><time>2026-03-29T09:00:52.998Z</time></trkpt><trkpt lat="44.385963105990285" lon="7.821252446901723"><ele>408.50000000000006</ele><time>2026-03-29T09:00:53.998Z</time></trkpt><trkpt lat="44.38597941196785" lon="7.82112480401938"><ele>406.0</ele><time>2026-03-29T09:00:54.998Z</time></trkpt><trkpt lat="44.38599302032755" lon="7.8209908838149556"><ele>404.85714285714283</ele><time>2026-03-29T09:00:55.998Z</time></trkpt><trkpt lat="44.38600140407216" lon="7.820879783885201"><ele>403.7142857142857</ele><time>2026-03-29T09:00:56.998Z</time></trkpt><trkpt lat="44.386025498558645" lon="7.820777258488564"><ele>402.57142857142856</ele><time>2026-03-29T09:00:57.998Z</time></trkpt><trkpt lat="44.38606625511964" lon="7.820677094101949"><ele>401.42857142857144</ele><time>2026-03-29T09:00:58.998Z</time></trkpt><trkpt lat="44.386088920991945" lon="7.820585577205818"><ele>400.2857142857143</ele><time>2026-03-29T09:00:59.998Z</time></trkpt><trkpt lat="44.386120951492835" lon="7.820505269700636"><ele>399.1428571428571</ele><time>2026-03-29T09:01:00.998Z</time></trkpt><trkpt lat="44.38615666649128" lon="7.820426617575583"><ele>398.0</ele><time>2026-03-29T09:01:02Z</time></trkpt><trkpt lat="44.38625513130838" lon="7.820303937334182"><ele>398.0</ele><time>2026-03-29T09:01:04Z</time></trkpt><trkpt lat="44.3863437312306" lon="7.820188798976029"><ele>398.0</ele><time>2026-03-29T09:01:06Z</time></trkpt><trkpt lat="44.386511842881625" lon="7.820162792057899"><ele>398.0</ele><time>2026-03-29T09:01:07Z</time></trkpt><trkpt lat="44.38661453103932" lon="7.8201441470092306"><ele>398.0</ele><time>2026-03-29T09:01:08Z</time></trkpt><trkpt lat="44.386717433609064" lon="7.8201022140041925"><ele>398.25</ele><time>2026-03-29T09:01:09Z</time></trkpt><trkpt lat="44.38680627284269" lon="7.820065855757609"><ele>398.5</ele><time>2026-03-29T09:01:10Z</time></trkpt><trkpt lat="44.38689294101476" lon="7.820088580233484"><ele>398.75</ele><time>2026-03-29T09:01:11Z</time></trkpt><trkpt lat="44.387083845095596" lon="7.820059664565486"><ele>399.0</ele><time>2026-03-29T09:01:13Z</time></trkpt><trkpt lat="44.38716532287296" lon="7.820062718744998"><ele>399.0</ele><time>2026-03-29T09:01:14Z</time></trkpt><trkpt lat="44.38726870312527" lon="7.820066066798867"><ele>399.0</ele><time>2026-03-29T09:01:15Z</time></trkpt><trkpt lat="44.38736163427792" lon="7.820088445357573"><ele>399.0</ele><time>2026-03-29T09:01:16Z</time></trkpt><trkpt lat="44.38745448317085" lon="7.820119635448541"><ele>399.0</ele><time>2026-03-29T09:01:17Z</time></trkpt><trkpt lat="44.38755637668475" lon="7.820155525446428"><ele>399.0</ele><time>2026-03-29T09:01:18Z</time></trkpt><trkpt lat="44.38764044883468" lon="7.820220895557179"><ele>399.6</ele><time>2026-03-29T09:01:19Z</time></trkpt><trkpt lat="44.38772687985582" lon="7.820287651631049"><ele>400.2</ele><time>2026-03-29T09:01:20Z</time></trkpt><trkpt lat="44.387818099568385" lon="7.820328313328922"><ele>400.8</ele><time>2026-03-29T09:01:21Z</time></trkpt><trkpt lat="44.38789267431399" lon="7.820400437006618"><ele>401.40000000000003</ele><time>2026-03-29T09:01:22Z</time></trkpt><trkpt lat="44.38798532420962" lon="7.820444895696966"><ele>402.0</ele><time>2026-03-29T09:01:23Z</time></trkpt><trkpt lat="44.388068381034756" lon="7.820491891466205"><ele>402.0</ele><time>2026-03-29T09:01:24Z</time></trkpt><trkpt lat="44.388157863646505" lon="7.820529787615081"><ele>402.0</ele><time>2026-03-29T09:01:25Z</time></trkpt><trkpt lat="44.388269257183005" lon="7.820539254120917"><ele>402.0</ele><time>2026-03-29T09:01:26Z</time></trkpt><trkpt lat="44.38836783732867" lon="7.820553323662651"><ele>402.0</ele><time>2026-03-29T09:01:27Z</time></trkpt><trkpt lat="44.388463443540125" lon="7.820573405258793"><ele>402.0</ele><time>2026-03-29T09:01:28Z</time></trkpt><trkpt lat="44.38854233993463" lon="7.820533325392331"><ele>402.0</ele><time>2026-03-29T09:01:29Z</time></trkpt><trkpt lat="44.38864817567652" lon="7.820513498515583"><ele>402.0</ele><time>2026-03-29T09:01:30Z</time></trkpt><trkpt lat="44.38874809375053" lon="7.820496235157943"><ele>402.0</ele><time>2026-03-29T09:01:31Z</time></trkpt><trkpt lat="44.38884593173816" lon="7.820458443089018"><ele>402.0</ele><time>2026-03-29T09:01:32Z</time></trkpt><trkpt lat="44.38892918421798" lon="7.820416511200617"><ele>402.0</ele><time>2026-03-29T09:01:33Z</time></trkpt><trkpt lat="44.389054634078654" lon="7.820353927995227"><ele>401.5</ele><time>2026-03-29T09:01:35Z</time></trkpt><trkpt lat="44.389140361712066" lon="7.820330118497155"><ele>401.0</ele><time>2026-03-29T09:01:36Z</time></trkpt><trkpt lat="44.389210093481864" lon="7.820306316930628"><ele>400.5</ele><time>2026-03-29T09:01:37Z</time></trkpt><trkpt lat="44.38930134899688" lon="7.820308579979018"><ele>400.0</ele><time>2026-03-29T09:01:38Z</time></trkpt><trkpt lat="44.38937206993643" lon="7.820322600941612"><ele>399.5</ele><time>2026-03-29T09:01:39Z</time></trkpt><trkpt lat="44.38943573932954" lon="7.820330010706499"><ele>399.0</ele><time>2026-03-29T09:01:40Z</time></trkpt><trkpt lat="44.389534085095754" lon="7.820355921294515"><ele>399.0</ele><time>2026-03-29T09:01:42Z</time></trkpt><trkpt lat="44.389647097157194" lon="7.8203821159149225"><ele>399.0</ele><time>2026-03-29T09:01:43.999Z</time></trkpt><trkpt lat="44.389733264335185" lon="7.82041370734622"><ele>399.0</ele><time>2026-03-29T09:01:45.999Z</time></trkpt><trkpt lat="44.38982211841642" lon="7.820459433786525"><ele>399.0</ele><time>2026-03-29T09:01:47.999Z</time></trkpt><trkpt lat="44.38989872103961" lon="7.820511755399493"><ele>399.0</ele><time>2026-03-29T09:01:49.999Z</time></trkpt><trkpt lat="44.389977695765324" lon="7.820616936459227"><ele>398.1666666666667</ele><time>2026-03-29T09:01:51.999Z</time></trkpt><trkpt lat="44.39004645613833" lon="7.8206746541039225"><ele>397.33333333333337</ele><time>2026-03-29T09:01:53.999Z</time></trkpt><trkpt lat="44.39015941776811" lon="7.820712157290031"><ele>396.5</ele><time>2026-03-29T09:01:55.999Z</time></trkpt><trkpt lat="44.39022393480356" lon="7.82076680198591"><ele>395.6666666666667</ele><time>2026-03-29T09:01:56.999Z</time></trkpt><trkpt lat="44.39030073355" lon="7.820763455732217"><ele>394.83333333333337</ele><time>2026-03-29T09:01:57.999Z</time></trkpt><trkpt lat="44.39038137760747" lon="7.820761059036405"><ele>394.0</ele><time>2026-03-29T09:01:58.999Z</time></trkpt><trkpt lat="44.39049513128213" lon="7.8207434932947"><ele>393.6</ele><time>2026-03-29T09:01:59.999Z</time></trkpt><trkpt lat="44.39058810270586" lon="7.820734254779834"><ele>393.2</ele><time>2026-03-29T09:02:00.999Z</time></trkpt><trkpt lat="44.39067066903834" lon="7.820728898435018"><ele>392.8</ele><time>2026-03-29T09:02:01.999Z</time></trkpt><trkpt lat="44.390760459886394" lon="7.820715096988068"><ele>392.40000000000003</ele><time>2026-03-29T09:02:03.999Z</time></trkpt><trkpt lat="44.39091662793619" lon="7.8207186302097815"><ele>392.0</ele><time>2026-03-29T09:02:05.999Z</time></trkpt><trkpt lat="44.39103509514375" lon="7.820725187592858"><ele>392.0</ele><time>2026-03-29T09:02:06.999Z</time></trkpt><trkpt lat="44.39112698513178" lon="7.8207097037413575"><ele>392.0</ele><time>2026-03-29T09:02:07.999Z</time></trkpt><trkpt lat="44.39122201996891" lon="7.82069776424975"><ele>392.0</ele><time>2026-03-29T09:02:08.999Z</time></trkpt><trkpt lat="44.39132040800569" lon="7.82068763904822"><ele>392.0</ele><time>2026-03-29T09:02:09.999Z</time></trkpt><trkpt lat="44.39142358321979" lon="7.820688324248243"><ele>392.0</ele><time>2026-03-29T09:02:10.999Z</time></trkpt><trkpt lat="44.3915162305045" lon="7.8206755625848725"><ele>391.40000000000003</ele><time>2026-03-29T09:02:11.999Z</time></trkpt><trkpt lat="44.391583414243755" lon="7.820661228246096"><ele>390.8</ele><time>2026-03-29T09:02:12.999Z</time></trkpt><trkpt lat="44.391673904761575" lon="7.820645404619064"><ele>390.2</ele><time>2026-03-29T09:02:13.999Z</time></trkpt><trkpt lat="44.39175558946765" lon="7.820631871594571"><ele>389.6</ele><time>2026-03-29T09:02:14.999Z</time></trkpt><trkpt lat="44.39184723620314" lon="7.820614188597487"><ele>389.0</ele><time>2026-03-29T09:02:15.999Z</time></trkpt><trkpt lat="44.39210257914405" lon="7.8206138749997525"><ele>388.8333333333333</ele><time>2026-03-29T09:02:18.999Z</time></trkpt><trkpt lat="44.392186575083436" lon="7.820609401209765"><ele>388.66666666666663</ele><time>2026-03-29T09:02:19.999Z</time></trkpt><trkpt lat="44.392264752947725" lon="7.820607977464327"><ele>388.5</ele><time>2026-03-29T09:02:20.999Z</time></trkpt><trkpt lat="44.39234430861516" lon="7.820607920954054"><ele>388.33333333333337</ele><time>2026-03-29T09:02:21.999Z</time></trkpt><trkpt lat="44.39241573123764" lon="7.820611174826173"><ele>388.1666666666667</ele><time>2026-03-29T09:02:22.999Z</time></trkpt><trkpt lat="44.39250794164979" lon="7.820603896882584"><ele>388.0</ele><time>2026-03-29T09:02:23.999Z</time></trkpt><trkpt lat="44.39257547120561" lon="7.820595526352923"><ele>388.00000000000006</ele><time>2026-03-29T09:02:24.999Z</time></trkpt><trkpt lat="44.39264371475977" lon="7.820586387836021"><ele>388.0</ele><time>2026-03-29T09:02:25.999Z</time></trkpt><trkpt lat="44.39271319508734" lon="7.820586945390734"><ele>388.0</ele><time>2026-03-29T09:02:26.999Z</time></trkpt><trkpt lat="44.39281560229852" lon="7.820594114538087"><ele>388.0</ele><time>2026-03-29T09:02:28.999Z</time></trkpt><trkpt lat="44.392917211888495" lon="7.820729495309353"><ele>388.00000000000006</ele><time>2026-03-29T09:02:31.999Z</time></trkpt><trkpt lat="44.3929323673618" lon="7.820822720283958"><ele>388.0</ele><time>2026-03-29T09:02:33.999Z</time></trkpt><trkpt lat="44.392994345133054" lon="7.820965831618579"><ele>387.50000000000006</ele><time>2026-03-29T09:02:35.999Z</time></trkpt><trkpt lat="44.393051901195996" lon="7.821053603454843"><ele>387.0</ele><time>2026-03-29T09:02:36.999Z</time></trkpt><trkpt lat="44.39309501784788" lon="7.821120395172122"><ele>386.5</ele><time>2026-03-29T09:02:37.999Z</time></trkpt><trkpt lat="44.393046990284965" lon="7.821243067847887"><ele>386.0</ele><time>2026-03-29T09:02:38.999Z</time></trkpt><trkpt lat="44.393052652985325" lon="7.821366453742602"><ele>385.50000000000006</ele><time>2026-03-29T09:02:39.999Z</time></trkpt><trkpt lat="44.39303337571323" lon="7.821497162553656"><ele>385.0</ele><time>2026-03-29T09:02:40.998Z</time></trkpt><trkpt lat="44.393032739439015" lon="7.821643501194957"><ele>385.0</ele><time>2026-03-29T09:02:41.998Z</time></trkpt><trkpt lat="44.393031401990726" lon="7.821778762016496"><ele>385.0</ele><time>2026-03-29T09:02:42.998Z</time></trkpt><trkpt lat="44.393038192935826" lon="7.821879446087296"><ele>385.0</ele><time>2026-03-29T09:02:43.998Z</time></trkpt><trkpt lat="44.393067551843984" lon="7.822047887964141"><ele>385.0</ele><time>2026-03-29T09:02:45.998Z</time></trkpt><trkpt lat="44.3931506130276" lon="7.822138721875657"><ele>385.0</ele><time>2026-03-29T09:02:46.998Z</time></trkpt><trkpt lat="44.393230347121396" lon="7.822219816791625"><ele>384.4</ele><time>2026-03-29T09:02:47.998Z</time></trkpt><trkpt lat="44.393288002591326" lon="7.822265863970531"><ele>383.8</ele><time>2026-03-29T09:02:48.998Z</time></trkpt><trkpt lat="44.39335340657675" lon="7.822337634102485"><ele>383.20000000000005</ele><time>2026-03-29T09:02:49.998Z</time></trkpt><trkpt lat="44.39343249854337" lon="7.822408780683925"><ele>382.6</ele><time>2026-03-29T09:02:50.998Z</time></trkpt><trkpt lat="44.39352312124341" lon="7.822474265041008"><ele>382.0</ele><time>2026-03-29T09:02:51.998Z</time></trkpt><trkpt lat="44.39363257645893" lon="7.82257195387377"><ele>381.6</ele><time>2026-03-29T09:02:52.998Z</time></trkpt><trkpt lat="44.39373095827773" lon="7.822661059605701"><ele>381.20000000000005</ele><time>2026-03-29T09:02:53.998Z</time></trkpt><trkpt lat="44.393829413878294" lon="7.822760708172779"><ele>380.8</ele><time>2026-03-29T09:02:54.998Z</time></trkpt><trkpt lat="44.39389479800911" lon="7.822852509535107"><ele>380.4</ele><time>2026-03-29T09:02:55.998Z</time></trkpt><trkpt lat="44.39398554283005" lon="7.822943318827887"><ele>380.0</ele><time>2026-03-29T09:02:56.998Z</time></trkpt><trkpt lat="44.39408441399897" lon="7.823027034213677"><ele>379.75</ele><time>2026-03-29T09:02:57.998Z</time></trkpt><trkpt lat="44.39417200238446" lon="7.823116295945753"><ele>379.5</ele><time>2026-03-29T09:02:58.998Z</time></trkpt><trkpt lat="44.39426374177175" lon="7.8231991586582525"><ele>379.25</ele><time>2026-03-29T09:02:59.998Z</time></trkpt><trkpt lat="44.39436812841743" lon="7.823303332978933"><ele>379.0</ele><time>2026-03-29T09:03:00.998Z</time></trkpt><trkpt lat="44.39447124874964" lon="7.823377003328089"><ele>379.0</ele><time>2026-03-29T09:03:01.998Z</time></trkpt><trkpt lat="44.39457548967635" lon="7.823455094371454"><ele>379.0</ele><time>2026-03-29T09:03:02.998Z</time></trkpt><trkpt lat="44.39467004245508" lon="7.82353001538517"><ele>379.0</ele><time>2026-03-29T09:03:03.998Z</time></trkpt><trkpt lat="44.394745824518566" lon="7.823598003064827"><ele>379.0</ele><time>2026-03-29T09:03:04.998Z</time></trkpt><trkpt lat="44.39482427194576" lon="7.823680130841102"><ele>379.0</ele><time>2026-03-29T09:03:05.998Z</time></trkpt><trkpt lat="44.39489770014611" lon="7.823752500304341"><ele>379.4</ele><time>2026-03-29T09:03:06.998Z</time></trkpt><trkpt lat="44.3949680959985" lon="7.823822311876493"><ele>379.79999999999995</ele><time>2026-03-29T09:03:08Z</time></trkpt><trkpt lat="44.395035636030606" lon="7.823973515995534"><ele>380.20000000000005</ele><time>2026-03-29T09:03:10Z</time></trkpt><trkpt lat="44.395107351084164" lon="7.824087828281143"><ele>380.6</ele><time>2026-03-29T09:03:12Z</time></trkpt><trkpt lat="44.39517171719016" lon="7.824115838108189"><ele>381.0</ele><time>2026-03-29T09:03:13Z</time></trkpt><trkpt lat="44.39524615146569" lon="7.824125020701389"><ele>381.0</ele><time>2026-03-29T09:03:14Z</time></trkpt><trkpt lat="44.39532978858779" lon="7.824129355001156"><ele>381.0</ele><time>2026-03-29T09:03:15Z</time></trkpt><trkpt lat="44.39542327240484" lon="7.824161066959009"><ele>381.0</ele><time>2026-03-29T09:03:16Z</time></trkpt><trkpt lat="44.39551559775754" lon="7.824232184779089"><ele>381.0</ele><time>2026-03-29T09:03:17Z</time></trkpt><trkpt lat="44.39561136053504" lon="7.824301952323645"><ele>381.0</ele><time>2026-03-29T09:03:18Z</time></trkpt><trkpt lat="44.395731388656024" lon="7.824377226607032"><ele>380.75</ele><time>2026-03-29T09:03:19Z</time></trkpt><trkpt lat="44.39584552295999" lon="7.824442584984492"><ele>380.5</ele><time>2026-03-29T09:03:20Z</time></trkpt><trkpt lat="44.39596525330729" lon="7.824497637287136"><ele>380.25</ele><time>2026-03-29T09:03:21Z</time></trkpt><trkpt lat="44.39607463997421" lon="7.824548872009864"><ele>380.0</ele><time>2026-03-29T09:03:22Z</time></trkpt><trkpt lat="44.39620052591136" lon="7.824603885904163"><ele>380.0</ele><time>2026-03-29T09:03:23Z</time></trkpt><trkpt lat="44.396335533088134" lon="7.824637719815309"><ele>380.0</ele><time>2026-03-29T09:03:24Z</time></trkpt><trkpt lat="44.3965097091062" lon="7.82464963731186"><ele>380.0</ele><time>2026-03-29T09:03:25Z</time></trkpt><trkpt lat="44.396650986395684" lon="7.824665832347573"><ele>382.75</ele><time>2026-03-29T09:03:26Z</time></trkpt><trkpt lat="44.39679122877936" lon="7.824682663838857"><ele>385.5</ele><time>2026-03-29T09:03:27Z</time></trkpt><trkpt lat="44.39694380534448" lon="7.824654191712498"><ele>388.25</ele><time>2026-03-29T09:03:28Z</time></trkpt><trkpt lat="44.39708603046533" lon="7.824632596096734"><ele>391.0</ele><time>2026-03-29T09:03:29Z</time></trkpt><trkpt lat="44.39721768714359" lon="7.824631313149541"><ele>393.0</ele><time>2026-03-29T09:03:30Z</time></trkpt><trkpt lat="44.397359832738886" lon="7.8246045191244376"><ele>395.0</ele><time>2026-03-29T09:03:31Z</time></trkpt><trkpt lat="44.39758977408713" lon="7.824631069012478"><ele>397.0</ele><time>2026-03-29T09:03:33Z</time></trkpt><trkpt lat="44.39770573675242" lon="7.8247192744430265"><ele>397.0</ele><time>2026-03-29T09:03:34Z</time></trkpt><trkpt lat="44.39780591478392" lon="7.824787162819897"><ele>397.0</ele><time>2026-03-29T09:03:35Z</time></trkpt><trkpt lat="44.39789793380655" lon="7.8248233252402235"><ele>397.0</ele><time>2026-03-29T09:03:36Z</time></trkpt><trkpt lat="44.39797094890217" lon="7.82489318264631"><ele>397.0</ele><time>2026-03-29T09:03:37Z</time></trkpt><trkpt lat="44.39803320532277" lon="7.824936459816368"><ele>397.0</ele><time>2026-03-29T09:03:38Z</time></trkpt><trkpt lat="44.398114774230834" lon="7.824989762192145"><ele>398.5</ele><time>2026-03-29T09:03:39Z</time></trkpt><trkpt lat="44.39821170544061" lon="7.825022509438161"><ele>400.0</ele><time>2026-03-29T09:03:40Z</time></trkpt><trkpt lat="44.39832050101672" lon="7.825007698351943"><ele>401.5</ele><time>2026-03-29T09:03:41Z</time></trkpt><trkpt lat="44.39843743787556" lon="7.825029971562492"><ele>403.0</ele><time>2026-03-29T09:03:42Z</time></trkpt><trkpt lat="44.398537254166904" lon="7.825208193532419"><ele>402.0</ele><time>2026-03-29T09:03:43Z</time></trkpt><trkpt lat="44.39865744540271" lon="7.825313543004271"><ele>401.0</ele><time>2026-03-29T09:03:44Z</time></trkpt><trkpt lat="44.39878746698045" lon="7.8254280288402525"><ele>400.0</ele><time>2026-03-29T09:03:45Z</time></trkpt><trkpt lat="44.398907895011035" lon="7.825556577924081"><ele>399.0</ele><time>2026-03-29T09:03:46Z</time></trkpt><trkpt lat="44.39901618460191" lon="7.825657360197964"><ele>399.0</ele><time>2026-03-29T09:03:47Z</time></trkpt><trkpt lat="44.39913646224965" lon="7.825766347216065"><ele>399.0</ele><time>2026-03-29T09:03:48Z</time></trkpt><trkpt lat="44.3992564826612" lon="7.825882421337199"><ele>399.0</ele><time>2026-03-29T09:03:49Z</time></trkpt><trkpt lat="44.39937730749647" lon="7.826002153376735"><ele>399.0</ele><time>2026-03-29T09:03:49.999Z</time></trkpt><trkpt lat="44.39950346180644" lon="7.826115795078062"><ele>398.0</ele><time>2026-03-29T09:03:50.999Z</time></trkpt><trkpt lat="44.39961089390953" lon="7.8262034863896535"><ele>397.0</ele><time>2026-03-29T09:03:51.999Z</time></trkpt><trkpt lat="44.39973289225627" lon="7.826304010230415"><ele>396.0</ele><time>2026-03-29T09:03:52.999Z</time></trkpt><trkpt lat="44.39986349022016" lon="7.826410398643109"><ele>395.0</ele><time>2026-03-29T09:03:53.999Z</time></trkpt><trkpt lat="44.40001107676797" lon="7.826500526587872"><ele>395.0</ele><time>2026-03-29T09:03:54.999Z</time></trkpt><trkpt lat="44.400146059367366" lon="7.826565871852062"><ele>395.0</ele><time>2026-03-29T09:03:55.999Z</time></trkpt><trkpt lat="44.400273486540584" lon="7.826610130319138"><ele>395.0</ele><time>2026-03-29T09:03:56.999Z</time></trkpt><trkpt lat="44.40039728047513" lon="7.826657709649939"><ele>395.0</ele><time>2026-03-29T09:03:57.999Z</time></trkpt><trkpt lat="44.40052759982868" lon="7.82672636297166"><ele>393.75</ele><time>2026-03-29T09:03:58.999Z</time></trkpt><trkpt lat="44.400655222147066" lon="7.82679973100609"><ele>392.5</ele><time>2026-03-29T09:03:59.999Z</time></trkpt><trkpt lat="44.40076651516713" lon="7.826897240144634"><ele>391.25</ele><time>2026-03-29T09:04:00.999Z</time></trkpt><trkpt lat="44.400896601017806" lon="7.8270199751201766"><ele>390.0</ele><time>2026-03-29T09:04:01.999Z</time></trkpt><trkpt lat="44.40100613429477" lon="7.827128122851154"><ele>390.0</ele><time>2026-03-29T09:04:02.999Z</time></trkpt><trkpt lat="44.40109724930897" lon="7.827206359785753"><ele>390.0</ele><time>2026-03-29T09:04:03.999Z</time></trkpt><trkpt lat="44.401217950749015" lon="7.827315534785062"><ele>390.0</ele><time>2026-03-29T09:04:04.999Z</time></trkpt><trkpt lat="44.40129853690516" lon="7.827448542575517"><ele>390.0</ele><time>2026-03-29T09:04:05.999Z</time></trkpt><trkpt lat="44.40139410574245" lon="7.827546225376001"><ele>390.8</ele><time>2026-03-29T09:04:06.999Z</time></trkpt><trkpt lat="44.40148110735592" lon="7.827635186309544"><ele>391.6</ele><time>2026-03-29T09:04:07.999Z</time></trkpt><trkpt lat="44.401583771435014" lon="7.827727173154726"><ele>392.4</ele><time>2026-03-29T09:04:08.999Z</time></trkpt><trkpt lat="44.40167402242041" lon="7.827818121086897"><ele>393.2</ele><time>2026-03-29T09:04:09.999Z</time></trkpt><trkpt lat="44.4017524321853" lon="7.827890846307968"><ele>394.0</ele><time>2026-03-29T09:04:10.999Z</time></trkpt><trkpt lat="44.40182122714919" lon="7.827982966424004"><ele>394.0</ele><time>2026-03-29T09:04:11.999Z</time></trkpt><trkpt lat="44.40191385857779" lon="7.828038710504464"><ele>394.0</ele><time>2026-03-29T09:04:12.999Z</time></trkpt><trkpt lat="44.40200199972357" lon="7.828134571196586"><ele>394.0</ele><time>2026-03-29T09:04:13.999Z</time></trkpt><trkpt lat="44.40209078164979" lon="7.8282376004401115"><ele>394.0</ele><time>2026-03-29T09:04:14.999Z</time></trkpt><trkpt lat="44.40218411868367" lon="7.8283337214517035"><ele>394.0</ele><time>2026-03-29T09:04:15.999Z</time></trkpt><trkpt lat="44.40227310446426" lon="7.828420514598506"><ele>394.4</ele><time>2026-03-29T09:04:16.999Z</time></trkpt><trkpt lat="44.402353025403485" lon="7.828509511317416"><ele>394.79999999999995</ele><time>2026-03-29T09:04:17.999Z</time></trkpt><trkpt lat="44.40242874589334" lon="7.8285899080641395"><ele>395.20000000000005</ele><time>2026-03-29T09:04:18.999Z</time></trkpt><trkpt lat="44.4024935824625" lon="7.8286622291493515"><ele>395.6</ele><time>2026-03-29T09:04:19.999Z</time></trkpt><trkpt lat="44.402562976347404" lon="7.828725000494324"><ele>396.0</ele><time>2026-03-29T09:04:20.999Z</time></trkpt><trkpt lat="44.4026478889131" lon="7.828814523059894"><ele>396.0</ele><time>2026-03-29T09:04:21.999Z</time></trkpt><trkpt lat="44.40272761750954" lon="7.828913534199802"><ele>396.0</ele><time>2026-03-29T09:04:22.999Z</time></trkpt><trkpt lat="44.40281584192766" lon="7.8289847662219305"><ele>396.0</ele><time>2026-03-29T09:04:23.999Z</time></trkpt><trkpt lat="44.40290563211292" lon="7.829068760230428"><ele>396.0</ele><time>2026-03-29T09:04:24.999Z</time></trkpt><trkpt lat="44.40295333130278" lon="7.829135624838978"><ele>396.0</ele><time>2026-03-29T09:04:25.999Z</time></trkpt><trkpt lat="44.403026052444176" lon="7.829184825178174"><ele>396.4</ele><time>2026-03-29T09:04:26.999Z</time></trkpt><trkpt lat="44.40308723545371" lon="7.829227797716038"><ele>396.8</ele><time>2026-03-29T09:04:27.999Z</time></trkpt><trkpt lat="44.403169999219244" lon="7.829315709429373"><ele>397.2</ele><time>2026-03-29T09:04:28.999Z</time></trkpt><trkpt lat="44.403244689739935" lon="7.829392181812582"><ele>397.59999999999997</ele><time>2026-03-29T09:04:29.999Z</time></trkpt><trkpt lat="44.4033160322013" lon="7.829467164421183"><ele>398.0</ele><time>2026-03-29T09:04:30.999Z</time></trkpt><trkpt lat="44.403395152412614" lon="7.829561235130257"><ele>398.0</ele><time>2026-03-29T09:04:31.999Z</time></trkpt><trkpt lat="44.40346310567253" lon="7.829647648262315"><ele>398.0</ele><time>2026-03-29T09:04:32.999Z</time></trkpt><trkpt lat="44.403536744580904" lon="7.829720173125335"><ele>398.0</ele><time>2026-03-29T09:04:33.999Z</time></trkpt><trkpt lat="44.40360993703955" lon="7.8297900874096795"><ele>398.0</ele><time>2026-03-29T09:04:34.999Z</time></trkpt><trkpt lat="44.403676706459386" lon="7.829876611598433"><ele>398.0</ele><time>2026-03-29T09:04:35.999Z</time></trkpt><trkpt lat="44.40376235596805" lon="7.829961289456591"><ele>397.79999999999995</ele><time>2026-03-29T09:04:36.999Z</time></trkpt><trkpt lat="44.40384333993247" lon="7.830042793880683"><ele>397.6</ele><time>2026-03-29T09:04:37.999Z</time></trkpt><trkpt lat="44.403936058083495" lon="7.830110011717972"><ele>397.4</ele><time>2026-03-29T09:04:38.999Z</time></trkpt><trkpt lat="44.404019715716736" lon="7.830197432427885"><ele>397.20000000000005</ele><time>2026-03-29T09:04:39.999Z</time></trkpt><trkpt lat="44.404102924661665" lon="7.830311251250911"><ele>397.0</ele><time>2026-03-29T09:04:40.999Z</time></trkpt><trkpt lat="44.404207759286095" lon="7.830397398063903"><ele>396.8</ele><time>2026-03-29T09:04:41.999Z</time></trkpt><trkpt lat="44.40429183392504" lon="7.83046939890419"><ele>396.6</ele><time>2026-03-29T09:04:42.999Z</time></trkpt><trkpt lat="44.404374133229894" lon="7.83056337530392"><ele>396.40000000000003</ele><time>2026-03-29T09:04:43.999Z</time></trkpt><trkpt lat="44.40447016969479" lon="7.830669373633255"><ele>396.20000000000005</ele><time>2026-03-29T09:04:44.999Z</time></trkpt><trkpt lat="44.4045561523512" lon="7.830754497474593"><ele>396.0</ele><time>2026-03-29T09:04:45.999Z</time></trkpt><trkpt lat="44.404653512643804" lon="7.830849329022268"><ele>396.0</ele><time>2026-03-29T09:04:46.998Z</time></trkpt><trkpt lat="44.404734485560745" lon="7.830955382399968"><ele>396.0</ele><time>2026-03-29T09:04:47.998Z</time></trkpt><trkpt lat="44.40482162379214" lon="7.831042680663579"><ele>396.0</ele><time>2026-03-29T09:04:48.998Z</time></trkpt><trkpt lat="44.40490745232335" lon="7.831128666838164"><ele>396.0</ele><time>2026-03-29T09:04:49.998Z</time></trkpt><trkpt lat="44.40501212813662" lon="7.831206118673168"><ele>396.0</ele><time>2026-03-29T09:04:50.998Z</time></trkpt><trkpt lat="44.405103065032456" lon="7.831307256164346"><ele>396.0</ele><time>2026-03-29T09:04:51.998Z</time></trkpt><trkpt lat="44.405169217412116" lon="7.831391480574351"><ele>396.0</ele><time>2026-03-29T09:04:52.998Z</time></trkpt><trkpt lat="44.40524892185639" lon="7.831455962804149"><ele>396.0</ele><time>2026-03-29T09:04:53.998Z</time></trkpt><trkpt lat="44.405308487577685" lon="7.831515146877806"><ele>396.0</ele><time>2026-03-29T09:04:54.998Z</time></trkpt><trkpt lat="44.40537941357884" lon="7.831596254732827"><ele>396.0</ele><time>2026-03-29T09:04:55.998Z</time></trkpt><trkpt lat="44.40545370660862" lon="7.83169046618005"><ele>396.0</ele><time>2026-03-29T09:04:56.998Z</time></trkpt><trkpt lat="44.40553123238897" lon="7.8317990293973185"><ele>396.5</ele><time>2026-03-29T09:04:57.998Z</time></trkpt><trkpt lat="44.4055793946695" lon="7.83198505669249"><ele>397.0</ele><time>2026-03-29T09:04:58.998Z</time></trkpt><trkpt lat="44.40562454046164" lon="7.832182131481258"><ele>397.5</ele><time>2026-03-29T09:04:59.998Z</time></trkpt><trkpt lat="44.40568561070233" lon="7.832353955197905"><ele>398.0</ele><time>2026-03-29T09:05:00.998Z</time></trkpt><trkpt lat="44.405751329690915" lon="7.8325446995579"><ele>396.5</ele><time>2026-03-29T09:05:01.998Z</time></trkpt><trkpt lat="44.40581158536583" lon="7.832727491247014"><ele>395.0</ele><time>2026-03-29T09:05:02.998Z</time></trkpt><trkpt lat="44.405864658441374" lon="7.832912959795979"><ele>393.5</ele><time>2026-03-29T09:05:03.998Z</time></trkpt><trkpt lat="44.405907463221716" lon="7.833122838695036"><ele>392.0</ele><time>2026-03-29T09:05:04.998Z</time></trkpt><trkpt lat="44.405947317266474" lon="7.833334126904024"><ele>392.0</ele><time>2026-03-29T09:05:05.998Z</time></trkpt><trkpt lat="44.40598262691508" lon="7.833530309942596"><ele>392.0</ele><time>2026-03-29T09:05:06.998Z</time></trkpt><trkpt lat="44.4060219414983" lon="7.833727127347822"><ele>392.0</ele><time>2026-03-29T09:05:07.998Z</time></trkpt><trkpt lat="44.40609256798253" lon="7.833922043229365"><ele>392.0</ele><time>2026-03-29T09:05:08.998Z</time></trkpt><trkpt lat="44.4061592887102" lon="7.834118657978834"><ele>392.0</ele><time>2026-03-29T09:05:09.998Z</time></trkpt><trkpt lat="44.4062426788747" lon="7.834296892636457"><ele>392.0</ele><time>2026-03-29T09:05:10.998Z</time></trkpt><trkpt lat="44.40633666599049" lon="7.834479317355277"><ele>392.0</ele><time>2026-03-29T09:05:11.998Z</time></trkpt><trkpt lat="44.4064471292738" lon="7.834655424941247"><ele>393.3333333333333</ele><time>2026-03-29T09:05:12.998Z</time></trkpt><trkpt lat="44.40658530224879" lon="7.834839236267284"><ele>394.66666666666663</ele><time>2026-03-29T09:05:14Z</time></trkpt><trkpt lat="44.40673511809467" lon="7.834982292446085"><ele>396.0</ele><time>2026-03-29T09:05:15Z</time></trkpt><trkpt lat="44.40689134725622" lon="7.83516773115319"><ele>396.0</ele><time>2026-03-29T09:05:16Z</time></trkpt><trkpt lat="44.40703743998478" lon="7.835353427899256"><ele>396.0</ele><time>2026-03-29T09:05:17Z</time></trkpt><trkpt lat="44.40717709173613" lon="7.835519281656076"><ele>396.0</ele><time>2026-03-29T09:05:18Z</time></trkpt><trkpt lat="44.40732970187176" lon="7.835704991817857"><ele>396.33333333333337</ele><time>2026-03-29T09:05:19Z</time></trkpt><trkpt lat="44.40747270622626" lon="7.835876071542367"><ele>396.6666666666667</ele><time>2026-03-29T09:05:20Z</time></trkpt><trkpt lat="44.40761634308568" lon="7.8360569075861015"><ele>397.0</ele><time>2026-03-29T09:05:21Z</time></trkpt><trkpt lat="44.40776355213402" lon="7.8362208012423995"><ele>397.0</ele><time>2026-03-29T09:05:22Z</time></trkpt><trkpt lat="44.40791580462793" lon="7.836397852687736"><ele>397.0</ele><time>2026-03-29T09:05:23Z</time></trkpt><trkpt lat="44.40804991885208" lon="7.836585884215328"><ele>397.0</ele><time>2026-03-29T09:05:24Z</time></trkpt><trkpt lat="44.408188608359794" lon="7.836753393963241"><ele>397.0</ele><time>2026-03-29T09:05:25Z</time></trkpt><trkpt lat="44.40833060083533" lon="7.836924893063116"><ele>397.0</ele><time>2026-03-29T09:05:26Z</time></trkpt><trkpt lat="44.40847624976051" lon="7.837075020164373"><ele>397.0</ele><time>2026-03-29T09:05:27Z</time></trkpt><trkpt lat="44.40861142068339" lon="7.837240340886606"><ele>397.0</ele><time>2026-03-29T09:05:28Z</time></trkpt><trkpt lat="44.40875325569868" lon="7.837416480019127"><ele>397.0</ele><time>2026-03-29T09:05:29Z</time></trkpt><trkpt lat="44.40888931581439" lon="7.83757845543057"><ele>397.0</ele><time>2026-03-29T09:05:30Z</time></trkpt><trkpt lat="44.40903116317883" lon="7.837755709845437"><ele>397.0</ele><time>2026-03-29T09:05:31Z</time></trkpt><trkpt lat="44.409161913076844" lon="7.837924579548389"><ele>397.0</ele><time>2026-03-29T09:05:32Z</time></trkpt><trkpt lat="44.40930398466096" lon="7.8380962678971"><ele>397.0</ele><time>2026-03-29T09:05:33Z</time></trkpt><trkpt lat="44.40944276691776" lon="7.838257939681037"><ele>397.0</ele><time>2026-03-29T09:05:34Z</time></trkpt><trkpt lat="44.40958349992117" lon="7.838429751348807"><ele>397.0</ele><time>2026-03-29T09:05:35Z</time></trkpt><trkpt lat="44.40971449069721" lon="7.838585052368692"><ele>397.0</ele><time>2026-03-29T09:05:36Z</time></trkpt><trkpt lat="44.40985169580247" lon="7.838752659983552"><ele>396.33333333333337</ele><time>2026-03-29T09:05:37Z</time></trkpt><trkpt lat="44.40998504383441" lon="7.8389185775689905"><ele>395.66666666666663</ele><time>2026-03-29T09:05:38Z</time></trkpt><trkpt lat="44.41011996711636" lon="7.839076558347472"><ele>395.0</ele><time>2026-03-29T09:05:39Z</time></trkpt><trkpt lat="44.410266288469266" lon="7.8392538023074305"><ele>394.3333333333333</ele><time>2026-03-29T09:05:40Z</time></trkpt><trkpt lat="44.410415911861314" lon="7.839426484512217"><ele>393.66666666666663</ele><time>2026-03-29T09:05:41Z</time></trkpt><trkpt lat="44.41057506405977" lon="7.839595277304001"><ele>393.0</ele><time>2026-03-29T09:05:42Z</time></trkpt><trkpt lat="44.410739566289436" lon="7.839793231041067"><ele>392.66666666666663</ele><time>2026-03-29T09:05:43Z</time></trkpt><trkpt lat="44.41087780982872" lon="7.840028972940898"><ele>392.3333333333333</ele><time>2026-03-29T09:05:44Z</time></trkpt><trkpt lat="44.41101858861055" lon="7.840202740957535"><ele>392.0</ele><time>2026-03-29T09:05:45Z</time></trkpt><trkpt lat="44.411153678687114" lon="7.840369487566552"><ele>392.0</ele><time>2026-03-29T09:05:46Z</time></trkpt><trkpt lat="44.411289653121685" lon="7.840516068596041"><ele>392.0</ele><time>2026-03-29T09:05:47Z</time></trkpt><trkpt lat="44.41142189986245" lon="7.840680676882526"><ele>392.0</ele><time>2026-03-29T09:05:48Z</time></trkpt><trkpt lat="44.41152804523779" lon="7.8408189338670855"><ele>392.0</ele><time>2026-03-29T09:05:49Z</time></trkpt><trkpt lat="44.411638905610104" lon="7.8409673292129805"><ele>392.0</ele><time>2026-03-29T09:05:50Z</time></trkpt><trkpt lat="44.41174658602216" lon="7.841100127292514"><ele>392.0</ele><time>2026-03-29T09:05:51Z</time></trkpt><trkpt lat="44.41184649322694" lon="7.841224849895836"><ele>392.0</ele><time>2026-03-29T09:05:52Z</time></trkpt><trkpt lat="44.41194443135804" lon="7.841338597589375"><ele>392.0</ele><time>2026-03-29T09:05:53Z</time></trkpt><trkpt lat="44.412020880830305" lon="7.841428276196682"><ele>392.0</ele><time>2026-03-29T09:05:54Z</time></trkpt><trkpt lat="44.4120919199657" lon="7.8415208156253335"><ele>392.0</ele><time>2026-03-29T09:05:55Z</time></trkpt><trkpt lat="44.41215322782346" lon="7.841616491395411"><ele>392.0</ele><time>2026-03-29T09:05:56Z</time></trkpt><trkpt lat="44.41220463232984" lon="7.841716437873895"><ele>392.0</ele><time>2026-03-29T09:05:56.999Z</time></trkpt><trkpt lat="44.41224751826956" lon="7.8418121459271735"><ele>391.8</ele><time>2026-03-29T09:05:57.999Z</time></trkpt><trkpt lat="44.412285319861645" lon="7.841909907749424"><ele>391.6</ele><time>2026-03-29T09:05:58.999Z</time></trkpt><trkpt lat="44.412321497584635" lon="7.8420220736283195"><ele>391.40000000000003</ele><time>2026-03-29T09:05:59.999Z</time></trkpt><trkpt lat="44.412314852773896" lon="7.842166833637664"><ele>391.20000000000005</ele><time>2026-03-29T09:06:00.999Z</time></trkpt><trkpt lat="44.412297392124245" lon="7.8423303605986305"><ele>391.0</ele><time>2026-03-29T09:06:02.999Z</time></trkpt><trkpt lat="44.412353250625216" lon="7.842479610822723"><ele>391.0</ele><time>2026-03-29T09:06:04.999Z</time></trkpt><trkpt lat="44.412410721334304" lon="7.842524900981454"><ele>391.0</ele><time>2026-03-29T09:06:05.999Z</time></trkpt><trkpt lat="44.41247922795775" lon="7.842538507614781"><ele>391.0</ele><time>2026-03-29T09:06:06.999Z</time></trkpt><trkpt lat="44.41258661298253" lon="7.842476596977159"><ele>391.0</ele><time>2026-03-29T09:06:08.999Z</time></trkpt><trkpt lat="44.412669778665766" lon="7.842371685651341"><ele>391.0</ele><time>2026-03-29T09:06:10.999Z</time></trkpt><trkpt lat="44.41273016301434" lon="7.842257521673097"><ele>391.0</ele><time>2026-03-29T09:06:12.999Z</time></trkpt><trkpt lat="44.41280285088518" lon="7.842223428377399"><ele>391.0</ele><time>2026-03-29T09:06:14.999Z</time></trkpt><trkpt lat="44.41288749802527" lon="7.842215160462326"><ele>391.0</ele><time>2026-03-29T09:06:16.999Z</time></trkpt><trkpt lat="44.41303184498994" lon="7.8422452892528"><ele>391.0</ele><time>2026-03-29T09:06:19.999Z</time></trkpt><trkpt lat="44.413098423129135" lon="7.842281783944388"><ele>391.0</ele><time>2026-03-29T09:06:20.999Z</time></trkpt><trkpt lat="44.41317359891748" lon="7.842337371569736"><ele>391.0</ele><time>2026-03-29T09:06:21.999Z</time></trkpt><trkpt lat="44.41323491530337" lon="7.842377097917683"><ele>391.0</ele><time>2026-03-29T09:06:22.999Z</time></trkpt><trkpt lat="44.41331237953645" lon="7.84242336337091"><ele>391.0</ele><time>2026-03-29T09:06:23.999Z</time></trkpt><trkpt lat="44.41343092086035" lon="7.842487997971486"><ele>391.0</ele><time>2026-03-29T09:06:24.999Z</time></trkpt><trkpt lat="44.41354693878973" lon="7.842547907865491"><ele>391.0</ele><time>2026-03-29T09:06:25.999Z</time></trkpt><trkpt lat="44.413670068472676" lon="7.842631340602927"><ele>391.0</ele><time>2026-03-29T09:06:26.999Z</time></trkpt><trkpt lat="44.413781528229215" lon="7.8427026257927945"><ele>391.0</ele><time>2026-03-29T09:06:27.999Z</time></trkpt><trkpt lat="44.413887944190684" lon="7.842761864102654"><ele>391.0</ele><time>2026-03-29T09:06:28.999Z</time></trkpt><trkpt lat="44.41400794804422" lon="7.842830186264229"><ele>391.0</ele><time>2026-03-29T09:06:29.999Z</time></trkpt><trkpt lat="44.414110765578435" lon="7.842885217232897"><ele>391.0</ele><time>2026-03-29T09:06:30.999Z</time></trkpt><trkpt lat="44.41419653395551" lon="7.842967869817024"><ele>391.0</ele><time>2026-03-29T09:06:31.999Z</time></trkpt><trkpt lat="44.41429790199737" lon="7.843026866642917"><ele>391.0</ele><time>2026-03-29T09:06:32.999Z</time></trkpt><trkpt lat="44.41440041900392" lon="7.843088277576894"><ele>391.0</ele><time>2026-03-29T09:06:33.999Z</time></trkpt><trkpt lat="44.41453054353811" lon="7.843163565127662"><ele>391.0</ele><time>2026-03-29T09:06:34.999Z</time></trkpt><trkpt lat="44.41464310206436" lon="7.8432244813092185"><ele>391.0</ele><time>2026-03-29T09:06:35.999Z</time></trkpt><trkpt lat="44.414757378957596" lon="7.843292778242957"><ele>391.0</ele><time>2026-03-29T09:06:36.999Z</time></trkpt><trkpt lat="44.41487124966464" lon="7.84335710189423"><ele>391.0</ele><time>2026-03-29T09:06:37.999Z</time></trkpt><trkpt lat="44.414995641837805" lon="7.8434305737760885"><ele>390.75</ele><time>2026-03-29T09:06:38.999Z</time></trkpt><trkpt lat="44.415113589032856" lon="7.843502537259743"><ele>390.5</ele><time>2026-03-29T09:06:39.999Z</time></trkpt><trkpt lat="44.41522744867033" lon="7.843576238323516"><ele>390.25</ele><time>2026-03-29T09:06:40.999Z</time></trkpt><trkpt lat="44.41533621053546" lon="7.843649923164942"><ele>390.0</ele><time>2026-03-29T09:06:41.999Z</time></trkpt><trkpt lat="44.415461640365024" lon="7.843732847679976"><ele>390.25</ele><time>2026-03-29T09:06:42.999Z</time></trkpt><trkpt lat="44.41557145572783" lon="7.843827829239623"><ele>390.5</ele><time>2026-03-29T09:06:43.999Z</time></trkpt><trkpt lat="44.41568812283252" lon="7.84392640709617"><ele>390.75</ele><time>2026-03-29T09:06:44.999Z</time></trkpt><trkpt lat="44.41581201981255" lon="7.844028026785137"><ele>391.0</ele><time>2026-03-29T09:06:45.999Z</time></trkpt><trkpt lat="44.41592381148824" lon="7.844126752414041"><ele>391.0</ele><time>2026-03-29T09:06:46.999Z</time></trkpt><trkpt lat="44.416050119987524" lon="7.844231427240132"><ele>391.0</ele><time>2026-03-29T09:06:47.999Z</time></trkpt><trkpt lat="44.41617703422011" lon="7.844347602397932"><ele>391.0</ele><time>2026-03-29T09:06:48.999Z</time></trkpt><trkpt lat="44.41629794300659" lon="7.844455031878024"><ele>391.0</ele><time>2026-03-29T09:06:49.999Z</time></trkpt><trkpt lat="44.416421153802126" lon="7.844562318162211"><ele>390.5</ele><time>2026-03-29T09:06:50.999Z</time></trkpt><trkpt lat="44.41654884009186" lon="7.844679099887521"><ele>390.0</ele><time>2026-03-29T09:06:51.999Z</time></trkpt><trkpt lat="44.416670880264455" lon="7.8447934240055215"><ele>389.5</ele><time>2026-03-29T09:06:52.999Z</time></trkpt><trkpt lat="44.416793176417215" lon="7.8449105645378046"><ele>389.0</ele><time>2026-03-29T09:06:53.998Z</time></trkpt><trkpt lat="44.41692164087314" lon="7.845026144690194"><ele>389.25</ele><time>2026-03-29T09:06:54.998Z</time></trkpt><trkpt lat="44.417050399314995" lon="7.845138965432982"><ele>389.5</ele><time>2026-03-29T09:06:55.998Z</time></trkpt><trkpt lat="44.41716478166727" lon="7.84523456306601"><ele>389.75</ele><time>2026-03-29T09:06:56.998Z</time></trkpt><trkpt lat="44.41728962067128" lon="7.845343307517341"><ele>390.0</ele><time>2026-03-29T09:06:57.998Z</time></trkpt><trkpt lat="44.417401584200185" lon="7.845447986763925"><ele>390.25</ele><time>2026-03-29T09:06:58.998Z</time></trkpt><trkpt lat="44.41751829974258" lon="7.845562933748467"><ele>390.5</ele><time>2026-03-29T09:06:59.998Z</time></trkpt><trkpt lat="44.41763059845397" lon="7.845655819560259"><ele>390.75</ele><time>2026-03-29T09:07:00.998Z</time></trkpt><trkpt lat="44.41773872612444" lon="7.845740699433994"><ele>391.0</ele><time>2026-03-29T09:07:01.998Z</time></trkpt><trkpt lat="44.41784730700673" lon="7.845843731688154"><ele>391.0</ele><time>2026-03-29T09:07:02.998Z</time></trkpt><trkpt lat="44.41795064078742" lon="7.845935301968408"><ele>391.0</ele><time>2026-03-29T09:07:03.998Z</time></trkpt><trkpt lat="44.41805237232701" lon="7.846022788507214"><ele>391.0</ele><time>2026-03-29T09:07:04.998Z</time></trkpt><trkpt lat="44.41815116341532" lon="7.846104135406402"><ele>391.0</ele><time>2026-03-29T09:07:05.998Z</time></trkpt><trkpt lat="44.4182596807614" lon="7.8461985021352785"><ele>390.8</ele><time>2026-03-29T09:07:06.998Z</time></trkpt><trkpt lat="44.418347508102165" lon="7.846269502708224"><ele>390.6</ele><time>2026-03-29T09:07:07.998Z</time></trkpt><trkpt lat="44.418449286862426" lon="7.8463509631524095"><ele>390.4</ele><time>2026-03-29T09:07:08.998Z</time></trkpt><trkpt lat="44.41854452904625" lon="7.8464355240892925"><ele>390.2</ele><time>2026-03-29T09:07:09.998Z</time></trkpt><trkpt lat="44.41863805632212" lon="7.8465159722327105"><ele>390.0</ele><time>2026-03-29T09:07:10.998Z</time></trkpt><trkpt lat="44.41872383058261" lon="7.846586251807271"><ele>390.0</ele><time>2026-03-29T09:07:11.998Z</time></trkpt><trkpt lat="44.41880973211136" lon="7.846664751183456"><ele>390.0</ele><time>2026-03-29T09:07:12.998Z</time></trkpt><trkpt lat="44.41888618844061" lon="7.846716339051071"><ele>390.0</ele><time>2026-03-29T09:07:13.998Z</time></trkpt><trkpt lat="44.41896079184959" lon="7.84677776760376"><ele>390.0</ele><time>2026-03-29T09:07:14.998Z</time></trkpt><trkpt lat="44.419023847373616" lon="7.846836527606094"><ele>390.0</ele><time>2026-03-29T09:07:15.998Z</time></trkpt><trkpt lat="44.419076706937446" lon="7.846905412084625"><ele>390.0</ele><time>2026-03-29T09:07:16.998Z</time></trkpt><trkpt lat="44.41911087598695" lon="7.846988173939796"><ele>389.6666666666667</ele><time>2026-03-29T09:07:17.998Z</time></trkpt><trkpt lat="44.41915218052006" lon="7.847063058004624"><ele>389.33333333333337</ele><time>2026-03-29T09:07:18.998Z</time></trkpt><trkpt lat="44.419137101453984" lon="7.847202727987638"><ele>389.0</ele><time>2026-03-29T09:07:20Z</time></trkpt><trkpt lat="44.419137680157725" lon="7.847333577383692"><ele>388.6666666666667</ele><time>2026-03-29T09:07:21Z</time></trkpt><trkpt lat="44.4191307484217" lon="7.847434513244062"><ele>388.33333333333337</ele><time>2026-03-29T09:07:22Z</time></trkpt><trkpt lat="44.41915923325296" lon="7.847534035346921"><ele>388.0</ele><time>2026-03-29T09:07:23Z</time></trkpt><trkpt lat="44.419079862843155" lon="7.847655350913757"><ele>387.75</ele><time>2026-03-29T09:07:24Z</time></trkpt><trkpt lat="44.41901651656235" lon="7.847756569280408"><ele>387.5</ele><time>2026-03-29T09:07:25Z</time></trkpt><trkpt lat="44.418938697196474" lon="7.847883643470189"><ele>387.25</ele><time>2026-03-29T09:07:26Z</time></trkpt><trkpt lat="44.41885847065358" lon="7.848017934144101"><ele>387.0</ele><time>2026-03-29T09:07:27Z</time></trkpt><trkpt lat="44.41878038471618" lon="7.848175847368694"><ele>387.0</ele><time>2026-03-29T09:07:28Z</time></trkpt><trkpt lat="44.4187020490134" lon="7.848363410607729"><ele>387.0</ele><time>2026-03-29T09:07:29Z</time></trkpt><trkpt lat="44.418628527986066" lon="7.848537297569735"><ele>387.0</ele><time>2026-03-29T09:07:30Z</time></trkpt><trkpt lat="44.41856533382679" lon="7.848693717383684"><ele>387.0</ele><time>2026-03-29T09:07:31Z</time></trkpt><trkpt lat="44.41851147379223" lon="7.84882660200297"><ele>386.8</ele><time>2026-03-29T09:07:32Z</time></trkpt><trkpt lat="44.418469186704854" lon="7.848944650048494"><ele>386.6</ele><time>2026-03-29T09:07:33Z</time></trkpt><trkpt lat="44.41843768018882" lon="7.849068987747483"><ele>386.40000000000003</ele><time>2026-03-29T09:07:34Z</time></trkpt><trkpt lat="44.41841817877673" lon="7.849191187471228"><ele>386.20000000000005</ele><time>2026-03-29T09:07:35Z</time></trkpt><trkpt lat="44.41843451379885" lon="7.849309559843008"><ele>386.0</ele><time>2026-03-29T09:07:36Z</time></trkpt><trkpt lat="44.41848320704936" lon="7.849419473418937"><ele>385.99999999999994</ele><time>2026-03-29T09:07:37Z</time></trkpt><trkpt lat="44.41854162277797" lon="7.84950018774608"><ele>386.0</ele><time>2026-03-29T09:07:38Z</time></trkpt><trkpt lat="44.41860553147142" lon="7.849564875858314"><ele>386.0</ele><time>2026-03-29T09:07:39Z</time></trkpt><trkpt lat="44.41868448477254" lon="7.84958381766642"><ele>386.0</ele><time>2026-03-29T09:07:40Z</time></trkpt><trkpt lat="44.418790451397896" lon="7.8496271212904425"><ele>385.99999999999994</ele><time>2026-03-29T09:07:42Z</time></trkpt><trkpt lat="44.4188572353041" lon="7.849705566462426"><ele>386.0</ele><time>2026-03-29T09:07:44Z</time></trkpt><trkpt lat="44.41891453548146" lon="7.849846365386217"><ele>386.0</ele><time>2026-03-29T09:07:46Z</time></trkpt><trkpt lat="44.418986214845454" lon="7.849953561214842"><ele>386.0</ele><time>2026-03-29T09:07:48Z</time></trkpt><trkpt lat="44.41907349588075" lon="7.849983083865117"><ele>386.0</ele><time>2026-03-29T09:07:50Z</time></trkpt><trkpt lat="44.4191685042739" lon="7.849947758924469"><ele>386.0</ele><time>2026-03-29T09:07:52Z</time></trkpt><trkpt lat="44.419255191553724" lon="7.849849982063718"><ele>386.0</ele><time>2026-03-29T09:07:54Z</time></trkpt><trkpt lat="44.41932102692568" lon="7.84977336320862"><ele>385.99999999999994</ele><time>2026-03-29T09:07:55Z</time></trkpt><trkpt lat="44.41939235277485" lon="7.84973369932292"><ele>386.0</ele><time>2026-03-29T09:07:56Z</time></trkpt><trkpt lat="44.419468242424486" lon="7.849722850951991"><ele>386.0</ele><time>2026-03-29T09:07:57Z</time></trkpt><trkpt lat="44.419564035291984" lon="7.849733201634984"><ele>386.0</ele><time>2026-03-29T09:07:58Z</time></trkpt><trkpt lat="44.41964157273404" lon="7.849701231014224"><ele>385.99999999999994</ele><time>2026-03-29T09:07:58.999Z</time></trkpt><trkpt lat="44.41971076925277" lon="7.8496927875456874"><ele>386.0</ele><time>2026-03-29T09:07:59.999Z</time></trkpt><trkpt lat="44.41981024626606" lon="7.849765899190384"><ele>385.99999999999994</ele><time>2026-03-29T09:08:01.999Z</time></trkpt><trkpt lat="44.419884673944075" lon="7.849762823072742"><ele>386.0</ele><time>2026-03-29T09:08:03.999Z</time></trkpt><trkpt lat="44.419949455612425" lon="7.849749090038683"><ele>386.0</ele><time>2026-03-29T09:08:05.999Z</time></trkpt><trkpt lat="44.42002588362486" lon="7.849780901586907"><ele>386.0</ele><time>2026-03-29T09:08:07.999Z</time></trkpt><trkpt lat="44.420085319636605" lon="7.849900086835065"><ele>385.99999999999994</ele><time>2026-03-29T09:08:09.999Z</time></trkpt><trkpt lat="44.420146829125265" lon="7.84998644845249"><ele>386.0</ele><time>2026-03-29T09:08:11.999Z</time></trkpt><trkpt lat="44.42021691091794" lon="7.850038005923202"><ele>386.0</ele><time>2026-03-29T09:08:13.999Z</time></trkpt><trkpt lat="44.42031108820355" lon="7.849989040585621"><ele>386.0</ele><time>2026-03-29T09:08:15.999Z</time></trkpt><trkpt lat="44.420286355585596" lon="7.850193105579218"><ele>386.0</ele><time>2026-03-29T09:08:16.999Z</time></trkpt><trkpt lat="44.42029953034853" lon="7.8503145038464215"><ele>386.0</ele><time>2026-03-29T09:08:18.999Z</time></trkpt><trkpt lat="44.420310145664814" lon="7.850417435585839"><ele>386.0</ele><time>2026-03-29T09:08:20.999Z</time></trkpt><trkpt lat="44.42032436154029" lon="7.8505062394969505"><ele>386.0</ele><time>2026-03-29T09:08:22.999Z</time></trkpt><trkpt lat="44.420332517332234" lon="7.850635841093038"><ele>386.0</ele><time>2026-03-29T09:08:24.999Z</time></trkpt><trkpt lat="44.42033834762471" lon="7.850726700099627"><ele>386.0</ele><time>2026-03-29T09:08:25.999Z</time></trkpt><trkpt lat="44.42040916522997" lon="7.850809799081444"><ele>386.0</ele><time>2026-03-29T09:08:26.999Z</time></trkpt><trkpt lat="44.42035141873165" lon="7.8509011258059775"><ele>386.0</ele><time>2026-03-29T09:08:27.999Z</time></trkpt><trkpt lat="44.42036742559624" lon="7.851061434317957"><ele>385.8</ele><time>2026-03-29T09:08:29.999Z</time></trkpt><trkpt lat="44.420382725015706" lon="7.851156609871012"><ele>385.6</ele><time>2026-03-29T09:08:30.999Z</time></trkpt><trkpt lat="44.42039759895219" lon="7.8513367305784145"><ele>385.4</ele><time>2026-03-29T09:08:32.999Z</time></trkpt><trkpt lat="44.42040934618876" lon="7.851508014088295"><ele>385.2</ele><time>2026-03-29T09:08:34.999Z</time></trkpt><trkpt lat="44.420423235894255" lon="7.851677663394457"><ele>385.0</ele><time>2026-03-29T09:08:36.999Z</time></trkpt><trkpt lat="44.42043178293713" lon="7.851782862920453"><ele>384.75</ele><time>2026-03-29T09:08:37.999Z</time></trkpt><trkpt lat="44.42044818093459" lon="7.851937026659365"><ele>384.5</ele><time>2026-03-29T09:08:39.999Z</time></trkpt><trkpt lat="44.42053804726461" lon="7.851995090481153"><ele>384.25</ele><time>2026-03-29T09:08:40.999Z</time></trkpt><trkpt lat="44.42046549856956" lon="7.852132236024505"><ele>384.0</ele><time>2026-03-29T09:08:41.999Z</time></trkpt><trkpt lat="44.420481804753194" lon="7.852299537160355"><ele>384.0</ele><time>2026-03-29T09:08:43.999Z</time></trkpt><trkpt lat="44.42049688978637" lon="7.852405600509195"><ele>384.0</ele><time>2026-03-29T09:08:44.999Z</time></trkpt><trkpt lat="44.420506863033665" lon="7.85249760465251"><ele>384.0</ele><time>2026-03-29T09:08:45.999Z</time></trkpt><trkpt lat="44.42052177002233" lon="7.852636077712432"><ele>384.0</ele><time>2026-03-29T09:08:47.999Z</time></trkpt><trkpt lat="44.42052831427482" lon="7.852741810710763"><ele>384.0</ele><time>2026-03-29T09:08:49.999Z</time></trkpt><trkpt lat="44.42053621878488" lon="7.852847785311807"><ele>384.0</ele><time>2026-03-29T09:08:51.999Z</time></trkpt><trkpt lat="44.42052884573883" lon="7.852976350828319"><ele>384.0</ele><time>2026-03-29T09:08:53.999Z</time></trkpt><trkpt lat="44.42048349543458" lon="7.853102419069607"><ele>384.0</ele><time>2026-03-29T09:08:55.998Z</time></trkpt><trkpt lat="44.420438581346" lon="7.853188070111953"><ele>384.0</ele><time>2026-03-29T09:08:58.998Z</time></trkpt><trkpt lat="44.42034183836725" lon="7.8532536894153715"><ele>384.0</ele><time>2026-03-29T09:09:00.998Z</time></trkpt><trkpt lat="44.42030861347725" lon="7.853337752525307"><ele>384.0</ele><time>2026-03-29T09:09:01.998Z</time></trkpt><trkpt lat="44.42014823265894" lon="7.853232730687254"><ele>384.2</ele><time>2026-03-29T09:09:02.998Z</time></trkpt><trkpt lat="44.42006071456517" lon="7.853291907777637"><ele>384.4</ele><time>2026-03-29T09:09:03.998Z</time></trkpt><trkpt lat="44.41997932711577" lon="7.853297328020207"><ele>384.6</ele><time>2026-03-29T09:09:04.998Z</time></trkpt><trkpt lat="44.41990525447598" lon="7.85329816052842"><ele>384.8</ele><time>2026-03-29T09:09:05.998Z</time></trkpt><trkpt lat="44.419791067731325" lon="7.8532821432818505"><ele>385.0</ele><time>2026-03-29T09:09:07.998Z</time></trkpt><trkpt lat="44.41965838069442" lon="7.853248182266713"><ele>384.6</ele><time>2026-03-29T09:09:09.998Z</time></trkpt><trkpt lat="44.41958892552967" lon="7.853177652074795"><ele>384.2</ele><time>2026-03-29T09:09:11.998Z</time></trkpt><trkpt lat="44.41949313140011" lon="7.853096779843181"><ele>383.79999999999995</ele><time>2026-03-29T09:09:13.998Z</time></trkpt><trkpt lat="44.41943486938677" lon="7.8530475926489824"><ele>383.4</ele><time>2026-03-29T09:09:14.998Z</time></trkpt><trkpt lat="44.41937235706586" lon="7.8529948171600905"><ele>383.0</ele><time>2026-03-29T09:09:16.998Z</time></trkpt><trkpt lat="44.41918342833866" lon="7.853214738720615"><ele>383.0</ele><time>2026-03-29T09:09:18.998Z</time></trkpt><trkpt lat="44.41911988060573" lon="7.853198807300392"><ele>383.0</ele><time>2026-03-29T09:09:20.998Z</time></trkpt><trkpt lat="44.419180038827754" lon="7.85317230501308"><ele>383.0</ele><time>2026-03-29T09:12:46.999Z</time></trkpt><trkpt lat="44.419224293661564" lon="7.853108446018285"><ele>383.0</ele><time>2026-03-29T09:13:00.999Z</time></trkpt><trkpt lat="44.419214522647614" lon="7.853009739075315"><ele>383.0</ele><time>2026-03-29T09:13:27.998Z</time></trkpt><trkpt lat="44.419184952775204" lon="7.852734498473273"><ele>383.0</ele><time>2026-03-29T09:14:18.858Z</time></trkpt><trkpt lat="44.41924771350524" lon="7.852703360699112"><ele>383.0</ele><time>2026-03-29T09:15:17.998Z</time></trkpt><trkpt lat="44.419302452059334" lon="7.852576785466536"><ele>383.0</ele><time>2026-03-29T09:15:18.998Z</time></trkpt><trkpt lat="44.41925641079324" lon="7.852488990321385"><ele>383.0</ele><time>2026-03-29T09:15:25.998Z</time></trkpt><trkpt lat="44.419244795073475" lon="7.852394591643767"><ele>383.0</ele><time>2026-03-29T09:15:36.998Z</time></trkpt><trkpt lat="44.41920299529361" lon="7.852322258586443"><ele>383.0</ele><time>2026-03-29T09:15:38.998Z</time></trkpt><trkpt lat="44.419157447278" lon="7.852232506213572"><ele>383.0</ele><time>2026-03-29T09:15:41.998Z</time></trkpt><trkpt lat="44.419146170526055" lon="7.852119617747361"><ele>383.0</ele><time>2026-03-29T09:15:47Z</time></trkpt><trkpt lat="44.41914314919744" lon="7.852005088162423"><ele>383.0</ele><time>2026-03-29T09:15:51Z</time></trkpt><trkpt lat="44.41920165814528" lon="7.851942445518903"><ele>383.0</ele><time>2026-03-29T09:15:58Z</time></trkpt><trkpt lat="44.419193578690596" lon="7.8518236724040475"><ele>383.0</ele><time>2026-03-29T09:16:03Z</time></trkpt><trkpt lat="44.41924695193536" lon="7.851766185202673"><ele>383.0</ele><time>2026-03-29T09:16:06Z</time></trkpt><trkpt lat="44.419297735485074" lon="7.851712893674635"><ele>383.0</ele><time>2026-03-29T09:16:08Z</time></trkpt><trkpt lat="44.4192245243045" lon="7.851653387434634"><ele>383.0</ele><time>2026-03-29T09:16:13Z</time></trkpt><trkpt lat="44.41924521669156" lon="7.851800120809991"><ele>383.0</ele><time>2026-03-29T09:16:23.999Z</time></trkpt><trkpt lat="44.41920306279301" lon="7.851891746895978"><ele>383.0</ele><time>2026-03-29T09:16:27.999Z</time></trkpt><trkpt lat="44.41918647459046" lon="7.851982932341485"><ele>383.0</ele><time>2026-03-29T09:16:34.999Z</time></trkpt><trkpt lat="44.41916714610014" lon="7.852071039361327"><ele>383.0</ele><time>2026-03-29T09:16:39.999Z</time></trkpt><trkpt lat="44.41913978359929" lon="7.85215918115259"><ele>383.0</ele><time>2026-03-29T09:16:45.999Z</time></trkpt><trkpt lat="44.419079112601956" lon="7.852193117667083"><ele>383.0</ele><time>2026-03-29T09:16:50.999Z</time></trkpt><trkpt lat="44.419015092280205" lon="7.852217174700176"><ele>383.0</ele><time>2026-03-29T09:16:55.999Z</time></trkpt><trkpt lat="44.418946371678835" lon="7.852119815943301"><ele>383.0</ele><time>2026-03-29T09:17:01.999Z</time></trkpt><trkpt lat="44.4188833791785" lon="7.852033935321683"><ele>383.0</ele><time>2026-03-29T09:17:53Z</time></trkpt><trkpt lat="44.41883628913599" lon="7.852118045842874"><ele>383.0</ele><time>2026-03-29T09:18:02Z</time></trkpt><trkpt lat="44.41884683934221" lon="7.852209727888374"><ele>383.0</ele><time>2026-03-29T09:18:08Z</time></trkpt><trkpt lat="44.41879306239749" lon="7.85227548938718"><ele>383.0</ele><time>2026-03-29T09:18:21Z</time></trkpt><trkpt lat="44.41883236532975" lon="7.852195304613874"><ele>383.0</ele><time>2026-03-29T09:18:30.999Z</time></trkpt><trkpt lat="44.41893875735379" lon="7.852153273592063"><ele>383.0</ele><time>2026-03-29T09:19:00.999Z</time></trkpt><trkpt lat="44.41894567085552" lon="7.852412008330487"><ele>383.0</ele><time>2026-03-29T09:19:01.999Z</time></trkpt><trkpt lat="44.41888696983893" lon="7.852378115065258"><ele>383.0</ele><time>2026-03-29T09:19:10.999Z</time></trkpt><trkpt lat="44.41875675697315" lon="7.852040492005506"><ele>383.0</ele><time>2026-03-29T09:19:15.999Z</time></trkpt><trkpt lat="44.41886052493442" lon="7.852308377630871"><ele>383.0</ele><time>2026-03-29T09:19:52.998Z</time></trkpt><trkpt lat="44.418922802474995" lon="7.85244751722352"><ele>383.0</ele><time>2026-03-29T09:19:58Z</time></trkpt><trkpt lat="44.418943808867155" lon="7.85232476904203"><ele>383.0</ele><time>2026-03-29T09:20:03Z</time></trkpt><trkpt lat="44.41892675399063" lon="7.85223655158384"><ele>383.0</ele><time>2026-03-29T09:20:04Z</time></trkpt><trkpt lat="44.418742263676656" lon="7.852024738729635"><ele>383.0</ele><time>2026-03-29T09:20:06Z</time></trkpt><trkpt lat="44.418679806286704" lon="7.851945103116313"><ele>383.0</ele><time>2026-03-29T09:20:09Z</time></trkpt><trkpt lat="44.418968715088056" lon="7.852019393633947"><ele>383.0</ele><time>2026-03-29T09:20:31Z</time></trkpt><trkpt lat="44.41891532604284" lon="7.852109697321516"><ele>383.0</ele><time>2026-03-29T09:20:39.999Z</time></trkpt><trkpt lat="44.41872825850236" lon="7.851857179783146"><ele>383.0</ele><time>2026-03-29T09:20:48.999Z</time></trkpt><trkpt lat="44.41896630963485" lon="7.852020125851214"><ele>382.5</ele><time>2026-03-29T09:21:12.999Z</time></trkpt><trkpt lat="44.418633668725086" lon="7.8520803060455755"><ele>382.0</ele><time>2026-03-29T09:21:56.998Z</time></trkpt><trkpt lat="44.4187950631125" lon="7.8521177174558785"><ele>382.5</ele><time>2026-03-29T09:22:18Z</time></trkpt><trkpt lat="44.41882108808" lon="7.85248909146325"><ele>383.0</ele><time>2026-03-29T09:22:19Z</time></trkpt><trkpt lat="44.41899643575929" lon="7.852087973883803"><ele>383.0</ele><time>2026-03-29T09:22:22Z</time></trkpt><trkpt lat="44.41903468691513" lon="7.852164350553572"><ele>383.0</ele><time>2026-03-29T09:22:31Z</time></trkpt><trkpt lat="44.41895447478839" lon="7.852307575777398"><ele>383.0</ele><time>2026-03-29T09:22:48Z</time></trkpt><trkpt lat="44.41891903721822" lon="7.852221750349069"><ele>383.0</ele><time>2026-03-29T09:22:52.999Z</time></trkpt><trkpt lat="44.41883919682923" lon="7.852256389493221"><ele>383.0</ele><time>2026-03-29T09:23:08.999Z</time></trkpt><trkpt lat="44.41886015512782" lon="7.852158253005219"><ele>383.0</ele><time>2026-03-29T09:23:36.999Z</time></trkpt><trkpt lat="44.41891298485015" lon="7.852049835976796"><ele>383.0</ele><time>2026-03-29T09:24:04.998Z</time></trkpt><trkpt lat="44.41884988076342" lon="7.852041522200639"><ele>383.0</ele><time>2026-03-29T09:24:23Z</time></trkpt><trkpt lat="44.41878940448601" lon="7.852008976049586"><ele>383.0</ele><time>2026-03-29T09:24:39Z</time></trkpt><trkpt lat="44.418720211875325" lon="7.851968407638232"><ele>383.0</ele><time>2026-03-29T09:24:44.999Z</time></trkpt><trkpt lat="44.418655168306714" lon="7.851941753186147"><ele>383.0</ele><time>2026-03-29T09:24:50.999Z</time></trkpt><trkpt lat="44.41858941227634" lon="7.8519334551020075"><ele>383.0</ele><time>2026-03-29T09:24:53.999Z</time></trkpt><trkpt lat="44.41896040043382" lon="7.8520593950438835"><ele>383.0</ele><time>2026-03-29T09:24:55.999Z</time></trkpt><trkpt lat="44.418876190400205" lon="7.851903811339742"><ele>383.0</ele><time>2026-03-29T09:25:05.999Z</time></trkpt><trkpt lat="44.41881257565506" lon="7.851879908789777"><ele>383.0</ele><time>2026-03-29T09:25:09.999Z</time></trkpt><trkpt lat="44.418793030982314" lon="7.851788319140151"><ele>383.0</ele><time>2026-03-29T09:25:16.999Z</time></trkpt><trkpt lat="44.418746992055965" lon="7.851718291647594"><ele>383.0</ele><time>2026-03-29T09:25:18.999Z</time></trkpt><trkpt lat="44.41860999685912" lon="7.8517077464867375"><ele>382.5</ele><time>2026-03-29T09:25:22.999Z</time></trkpt><trkpt lat="44.418649894571594" lon="7.851811996216834"><ele>382.0</ele><time>2026-03-29T09:25:23.999Z</time></trkpt><trkpt lat="44.41902339102217" lon="7.851770757794055"><ele>382.6</ele><time>2026-03-29T09:25:50.634Z</time></trkpt><trkpt lat="44.4190466450941" lon="7.851538667462628"><ele>383.20000000000005</ele><time>2026-03-29T09:25:53.998Z</time></trkpt><trkpt lat="44.41897780650813" lon="7.851490819093539"><ele>383.8</ele><time>2026-03-29T09:26:00.998Z</time></trkpt><trkpt lat="44.41898013588577" lon="7.8516478328697925"><ele>384.4</ele><time>2026-03-29T09:26:15Z</time></trkpt><trkpt lat="44.41903888044599" lon="7.851748691866791"><ele>385.0</ele><time>2026-03-29T09:29:18.999Z</time></trkpt><trkpt lat="44.419102381173666" lon="7.851743024626055"><ele>385.00000000000006</ele><time>2026-03-29T09:29:25.999Z</time></trkpt><trkpt lat="44.41920200447518" lon="7.851664845754544"><ele>385.0</ele><time>2026-03-29T09:30:04.998Z</time></trkpt><trkpt lat="44.41914242886109" lon="7.851694813830809"><ele>385.0</ele><time>2026-03-29T09:31:01Z</time></trkpt><trkpt lat="44.419055908396636" lon="7.851709433492545"><ele>385.0</ele><time>2026-03-29T09:31:45.999Z</time></trkpt><trkpt lat="44.4190200979095" lon="7.851635228715063"><ele>385.00000000000006</ele><time>2026-03-29T09:34:10.999Z</time></trkpt><trkpt lat="44.41901206974377" lon="7.851470354951782"><ele>385.0</ele><time>2026-03-29T09:34:13.999Z</time></trkpt><trkpt lat="44.41901659224239" lon="7.851671580510742"><ele>385.00000000000006</ele><time>2026-03-29T09:34:23.998Z</time></trkpt><trkpt lat="44.419099953998526" lon="7.851700689650934"><ele>385.0</ele><time>2026-03-29T09:43:21Z</time></trkpt><trkpt lat="44.419030026964336" lon="7.851762422703898"><ele>385.0</ele><time>2026-03-29T09:47:01.998Z</time></trkpt><trkpt lat="44.41905862790256" lon="7.85161733561768"><ele>385.0</ele><time>2026-03-29T09:47:07.998Z</time></trkpt><trkpt lat="44.41899591999786" lon="7.851587597143271"><ele>385.00000000000006</ele><time>2026-03-29T09:47:12.998Z</time></trkpt><trkpt lat="44.418927015190114" lon="7.851592333233471"><ele>385.0</ele><time>2026-03-29T09:47:16Z</time></trkpt><trkpt lat="44.41909098370687" lon="7.851602467301476"><ele>385.00000000000006</ele><time>2026-03-29T09:58:51.999Z</time></trkpt><trkpt lat="44.41910794249529" lon="7.851694136004505"><ele>385.0</ele><time>2026-03-29T10:01:01.999Z</time></trkpt><trkpt lat="44.419190936121055" lon="7.851696660664793"><ele>385.0</ele><time>2026-03-29T10:01:12.999Z</time></trkpt><trkpt lat="44.419171629763866" lon="7.85178938819486"><ele>385.0</ele><time>2026-03-29T10:01:32.999Z</time></trkpt><trkpt lat="44.41914194564548" lon="7.851869631015808"><ele>385.00000000000006</ele><time>2026-03-29T10:01:36.998Z</time></trkpt><trkpt lat="44.41913020350805" lon="7.851970549294923"><ele>385.0</ele><time>2026-03-29T10:01:52.998Z</time></trkpt><trkpt lat="44.4191806094773" lon="7.852082309974052"><ele>384.6</ele><time>2026-03-29T10:02:02Z</time></trkpt><trkpt lat="44.41912481861768" lon="7.852157735848287"><ele>384.2</ele><time>2026-03-29T10:02:09Z</time></trkpt><trkpt lat="44.41919123292406" lon="7.852168735124031"><ele>383.79999999999995</ele><time>2026-03-29T10:05:29.999Z</time></trkpt><trkpt lat="44.41915912492073" lon="7.85208954333116"><ele>383.4</ele><time>2026-03-29T10:05:44.999Z</time></trkpt><trkpt lat="44.41927970391203" lon="7.8520223870946575"><ele>383.0</ele><time>2026-03-29T10:05:51.998Z</time></trkpt><trkpt lat="44.41914387764898" lon="7.852031082604377"><ele>383.0</ele><time>2026-03-29T10:05:56.998Z</time></trkpt><trkpt lat="44.41921973139484" lon="7.852013837553423"><ele>383.0</ele><time>2026-03-29T10:09:28.999Z</time></trkpt><trkpt lat="44.419187796343756" lon="7.851934628568452"><ele>383.0</ele><time>2026-03-29T10:09:38.999Z</time></trkpt><trkpt lat="44.4191652071147" lon="7.851843182004849"><ele>383.0</ele><time>2026-03-29T10:09:43.999Z</time></trkpt><trkpt lat="44.41917366357821" lon="7.851721928115348"><ele>383.0</ele><time>2026-03-29T10:09:48.999Z</time></trkpt><trkpt lat="44.4192851521491" lon="7.851633802063624"><ele>383.0</ele><time>2026-03-29T10:09:53.999Z</time></trkpt><trkpt lat="44.418997257202804" lon="7.85182050282177"><ele>383.6666666666667</ele><time>2026-03-29T10:09:57.999Z</time></trkpt><trkpt lat="44.41919067454408" lon="7.851750199353516"><ele>384.33333333333337</ele><time>2026-03-29T10:10:00.999Z</time></trkpt><trkpt lat="44.41926240032654" lon="7.8517280876617015"><ele>385.0</ele><time>2026-03-29T10:10:01.999Z</time></trkpt><trkpt lat="44.419559030835224" lon="7.851653750993174"><ele>385.0</ele><time>2026-03-29T10:10:39Z</time></trkpt><trkpt lat="44.41964135996382" lon="7.851599840916615"><ele>385.0</ele><time>2026-03-29T10:10:42Z</time></trkpt><trkpt lat="44.41948154014041" lon="7.851658696316044"><ele>385.0</ele><time>2026-03-29T10:10:48Z</time></trkpt><trkpt lat="44.41943942107697" lon="7.851360635839264"><ele>385.0</ele><time>2026-03-29T10:10:52Z</time></trkpt><trkpt lat="44.41939474236927" lon="7.851202672681957"><ele>385.0</ele><time>2026-03-29T10:11:03Z</time></trkpt><trkpt lat="44.419493699006125" lon="7.8511945918562445"><ele>385.0</ele><time>2026-03-29T10:11:06Z</time></trkpt><trkpt lat="44.41961768319573" lon="7.85105278687093"><ele>385.0</ele><time>2026-03-29T10:11:09.999Z</time></trkpt><trkpt lat="44.419669500630555" lon="7.850969625145093"><ele>385.2</ele><time>2026-03-29T10:11:13.999Z</time></trkpt><trkpt lat="44.419675250409156" lon="7.850768727822446"><ele>385.4</ele><time>2026-03-29T10:11:35.999Z</time></trkpt><trkpt lat="44.41971983168426" lon="7.850692489559728"><ele>385.6</ele><time>2026-03-29T10:11:43.999Z</time></trkpt><trkpt lat="44.419761094227404" lon="7.850550862893479"><ele>385.8</ele><time>2026-03-29T10:11:45.999Z</time></trkpt><trkpt lat="44.419699003300245" lon="7.850622775589765"><ele>386.0</ele><time>2026-03-29T10:11:49.999Z</time></trkpt><trkpt lat="44.419760816866095" lon="7.850581821111173"><ele>386.00000000000006</ele><time>2026-03-29T10:17:58.999Z</time></trkpt><trkpt lat="44.41979234946475" lon="7.850500290161473"><ele>386.0</ele><time>2026-03-29T10:18:03.999Z</time></trkpt><trkpt lat="44.419852720037255" lon="7.85045494132251"><ele>386.0</ele><time>2026-03-29T10:18:12.999Z</time></trkpt><trkpt lat="44.4199190069437" lon="7.850450771879646"><ele>386.0</ele><time>2026-03-29T10:18:20.999Z</time></trkpt><trkpt lat="44.41998353960332" lon="7.850429899020838"><ele>386.0</ele><time>2026-03-29T10:18:26.999Z</time></trkpt><trkpt lat="44.42004643909256" lon="7.850416717436206"><ele>386.00000000000006</ele><time>2026-03-29T10:18:34.998Z</time></trkpt><trkpt lat="44.42010932816809" lon="7.850380457898902"><ele>386.0</ele><time>2026-03-29T10:18:40.998Z</time></trkpt><trkpt lat="44.42011474112413" lon="7.850284349352673"><ele>386.00000000000006</ele><time>2026-03-29T10:18:50Z</time></trkpt><trkpt lat="44.420141312950896" lon="7.850200333513895"><ele>386.0</ele><time>2026-03-29T10:18:58Z</time></trkpt><trkpt lat="44.42008165336246" lon="7.850237079586118"><ele>386.0</ele><time>2026-03-29T10:20:39.998Z</time></trkpt><trkpt lat="44.42002045567785" lon="7.850197309072998"><ele>386.0</ele><time>2026-03-29T10:20:44.998Z</time></trkpt><trkpt lat="44.419952656949135" lon="7.850182456245187"><ele>386.0</ele><time>2026-03-29T10:20:50Z</time></trkpt><trkpt lat="44.419883937076804" lon="7.850191945492823"><ele>386.00000000000006</ele><time>2026-03-29T10:20:55Z</time></trkpt><trkpt lat="44.419950629371996" lon="7.850231720090734"><ele>386.0</ele><time>2026-03-29T10:21:15Z</time></trkpt><trkpt lat="44.42001537001921" lon="7.850215890199895"><ele>385.99999999999994</ele><time>2026-03-29T10:21:21Z</time></trkpt><trkpt lat="44.420084462857226" lon="7.850223646053377"><ele>386.0</ele><time>2026-03-29T10:21:38.999Z</time></trkpt><trkpt lat="44.42015776842998" lon="7.850203573297876"><ele>386.0</ele><time>2026-03-29T10:22:31.999Z</time></trkpt><trkpt lat="44.42024255394331" lon="7.850191527516866"><ele>386.0</ele><time>2026-03-29T10:22:35.998Z</time></trkpt><trkpt lat="44.420288369187574" lon="7.850287125303199"><ele>385.99999999999994</ele><time>2026-03-29T10:22:43.998Z</time></trkpt><trkpt lat="44.42029527410225" lon="7.850413361392985"><ele>386.0</ele><time>2026-03-29T10:22:45.998Z</time></trkpt><trkpt lat="44.4203095609209" lon="7.850559845133494"><ele>385.99999999999994</ele><time>2026-03-29T10:22:47.998Z</time></trkpt><trkpt lat="44.420314793493716" lon="7.850654461301643"><ele>386.0</ele><time>2026-03-29T10:22:48.998Z</time></trkpt><trkpt lat="44.4203264930145" lon="7.850746435796873"><ele>386.0</ele><time>2026-03-29T10:22:49.998Z</time></trkpt><trkpt lat="44.420341471546514" lon="7.85084734233868"><ele>386.0</ele><time>2026-03-29T10:22:50.998Z</time></trkpt><trkpt lat="44.42035668941919" lon="7.8509986907870255"><ele>385.99999999999994</ele><time>2026-03-29T10:22:52.998Z</time></trkpt><trkpt lat="44.420371305731265" lon="7.851163026883202"><ele>386.0</ele><time>2026-03-29T10:22:55Z</time></trkpt><trkpt lat="44.42037480960409" lon="7.8512531616214565"><ele>385.8571428571429</ele><time>2026-03-29T10:22:56Z</time></trkpt><trkpt lat="44.42038077444498" lon="7.851341163678585"><ele>385.7142857142857</ele><time>2026-03-29T10:22:57Z</time></trkpt><trkpt lat="44.420388282887835" lon="7.8514364406540516"><ele>385.57142857142856</ele><time>2026-03-29T10:22:58Z</time></trkpt><trkpt lat="44.420406550557836" lon="7.851531551764927"><ele>385.42857142857144</ele><time>2026-03-29T10:22:59Z</time></trkpt><trkpt lat="44.42041583410788" lon="7.8516886183938945"><ele>385.2857142857143</ele><time>2026-03-29T10:23:01Z</time></trkpt><trkpt lat="44.420435475277365" lon="7.851775944330719"><ele>385.14285714285717</ele><time>2026-03-29T10:23:02Z</time></trkpt><trkpt lat="44.42043629019132" lon="7.851866901691488"><ele>385.0</ele><time>2026-03-29T10:23:03Z</time></trkpt><trkpt lat="44.420451249151576" lon="7.851965959366589"><ele>384.85714285714283</ele><time>2026-03-29T10:23:04Z</time></trkpt><trkpt lat="44.42045535258989" lon="7.852061837622954"><ele>384.7142857142857</ele><time>2026-03-29T10:23:05Z</time></trkpt><trkpt lat="44.42046340965323" lon="7.852160821999735"><ele>384.57142857142856</ele><time>2026-03-29T10:23:06Z</time></trkpt><trkpt lat="44.42047161454852" lon="7.852249329129679"><ele>384.42857142857144</ele><time>2026-03-29T10:23:07Z</time></trkpt><trkpt lat="44.420481219302985" lon="7.852340968911534"><ele>384.2857142857143</ele><time>2026-03-29T10:23:08Z</time></trkpt><trkpt lat="44.420489054453725" lon="7.852437729623358"><ele>384.1428571428571</ele><time>2026-03-29T10:23:09Z</time></trkpt><trkpt lat="44.42050192839724" lon="7.852537713792479"><ele>384.0</ele><time>2026-03-29T10:23:10Z</time></trkpt><trkpt lat="44.42051111202218" lon="7.852640985145376"><ele>384.0</ele><time>2026-03-29T10:23:11Z</time></trkpt><trkpt lat="44.420525085079696" lon="7.852734777809923"><ele>384.0</ele><time>2026-03-29T10:23:12Z</time></trkpt><trkpt lat="44.420536095107195" lon="7.852827694989385"><ele>384.0</ele><time>2026-03-29T10:23:13Z</time></trkpt><trkpt lat="44.42053204986185" lon="7.852974220368154"><ele>384.0</ele><time>2026-03-29T10:23:15Z</time></trkpt><trkpt lat="44.420480220977936" lon="7.853110949987744"><ele>384.0</ele><time>2026-03-29T10:23:17Z</time></trkpt><trkpt lat="44.420402536360285" lon="7.853212343895333"><ele>384.1666666666667</ele><time>2026-03-29T10:23:19Z</time></trkpt><trkpt lat="44.42034100563151" lon="7.85330740211923"><ele>384.33333333333337</ele><time>2026-03-29T10:23:21Z</time></trkpt><trkpt lat="44.420274953061096" lon="7.853378785286331"><ele>384.5</ele><time>2026-03-29T10:23:24Z</time></trkpt><trkpt lat="44.420216077884305" lon="7.853472623774558"><ele>384.6666666666667</ele><time>2026-03-29T10:23:27Z</time></trkpt><trkpt lat="44.420131231135684" lon="7.853444462123853"><ele>384.83333333333337</ele><time>2026-03-29T10:23:30Z</time></trkpt><trkpt lat="44.420042758036956" lon="7.853409748788331"><ele>385.0</ele><time>2026-03-29T10:24:02.999Z</time></trkpt><trkpt lat="44.419960394851635" lon="7.853398777563172"><ele>385.0</ele><time>2026-03-29T10:24:05.999Z</time></trkpt><trkpt lat="44.41989084060301" lon="7.8533676288550165"><ele>385.0</ele><time>2026-03-29T10:24:07.999Z</time></trkpt><trkpt lat="44.41981296667322" lon="7.853320056322846"><ele>385.0</ele><time>2026-03-29T10:24:09.999Z</time></trkpt><trkpt lat="44.419723873159775" lon="7.853263031996515"><ele>385.0</ele><time>2026-03-29T10:24:11.999Z</time></trkpt><trkpt lat="44.41963682414132" lon="7.85323519340563"><ele>385.0</ele><time>2026-03-29T10:24:13.999Z</time></trkpt><trkpt lat="44.41972246405398" lon="7.853137328675653"><ele>385.0</ele><time>2026-03-29T10:24:19.999Z</time></trkpt><trkpt lat="44.41979164869976" lon="7.853129727035793"><ele>385.0</ele><time>2026-03-29T10:24:23.999Z</time></trkpt><trkpt lat="44.41994334524891" lon="7.853112586715147"><ele>385.0</ele><time>2026-03-29T10:24:28.999Z</time></trkpt><trkpt lat="44.42002312179795" lon="7.853088961776234"><ele>385.0</ele><time>2026-03-29T10:24:30.999Z</time></trkpt><trkpt lat="44.420128595900074" lon="7.853066778402786"><ele>385.0</ele><time>2026-03-29T10:24:33.999Z</time></trkpt><trkpt lat="44.42020780006515" lon="7.853051676191551"><ele>385.0</ele><time>2026-03-29T10:24:35.999Z</time></trkpt><trkpt lat="44.42025837063097" lon="7.85295413974235"><ele>385.0</ele><time>2026-03-29T10:24:39.999Z</time></trkpt><trkpt lat="44.42022596949421" lon="7.8530307382494655"><ele>385.0</ele><time>2026-03-29T10:25:09Z</time></trkpt><trkpt lat="44.420166608798915" lon="7.853088682336496"><ele>385.0</ele><time>2026-03-29T10:25:17Z</time></trkpt><trkpt lat="44.42013895243105" lon="7.853173133958439"><ele>385.0</ele><time>2026-03-29T10:25:24Z</time></trkpt><trkpt lat="44.420080983312076" lon="7.853209813421537"><ele>385.0</ele><time>2026-03-29T10:25:31Z</time></trkpt><trkpt lat="44.42003501919874" lon="7.853271459776528"><ele>385.0</ele><time>2026-03-29T10:25:37Z</time></trkpt><trkpt lat="44.420020731711524" lon="7.853363143433669"><ele>385.0</ele><time>2026-03-29T10:25:43Z</time></trkpt><trkpt lat="44.41998367998804" lon="7.853446598434087"><ele>385.0</ele><time>2026-03-29T10:25:51.999Z</time></trkpt><trkpt lat="44.41994003874898" lon="7.853534860834604"><ele>385.0</ele><time>2026-03-29T10:25:58.999Z</time></trkpt><trkpt lat="44.41989680606334" lon="7.853619968925554"><ele>385.0</ele><time>2026-03-29T10:26:06.999Z</time></trkpt><trkpt lat="44.419833408830875" lon="7.853665806592074"><ele>385.0</ele><time>2026-03-29T10:26:13.999Z</time></trkpt><trkpt lat="44.41978907931849" lon="7.853740850658666"><ele>385.0</ele><time>2026-03-29T10:26:19.999Z</time></trkpt><trkpt lat="44.41974845557266" lon="7.853815933695975"><ele>385.0</ele><time>2026-03-29T10:26:24.999Z</time></trkpt><trkpt lat="44.419703388714105" lon="7.853893398745481"><ele>384.42857142857144</ele><time>2026-03-29T10:26:30.999Z</time></trkpt><trkpt lat="44.41966857126957" lon="7.853967418069885"><ele>383.8571428571429</ele><time>2026-03-29T10:26:37.999Z</time></trkpt><trkpt lat="44.41962000480925" lon="7.854028332474091"><ele>383.2857142857143</ele><time>2026-03-29T10:26:43.999Z</time></trkpt><trkpt lat="44.41958153217245" lon="7.854100085927909"><ele>382.7142857142857</ele><time>2026-03-29T10:26:50.998Z</time></trkpt><trkpt lat="44.41959547044526" lon="7.8542045462763115"><ele>382.14285714285717</ele><time>2026-03-29T10:26:58.998Z</time></trkpt><trkpt lat="44.41964029266267" lon="7.854297081214691"><ele>381.57142857142856</ele><time>2026-03-29T10:27:10Z</time></trkpt><trkpt lat="44.41964505729055" lon="7.8543850087728595"><ele>381.0</ele><time>2026-03-29T10:27:17Z</time></trkpt><trkpt lat="44.41959974466414" lon="7.854455007299288"><ele>379.8</ele><time>2026-03-29T10:27:28Z</time></trkpt><trkpt lat="44.419549003551616" lon="7.85455336825558"><ele>378.6</ele><time>2026-03-29T10:27:40Z</time></trkpt><trkpt lat="44.419485920559126" lon="7.854535278268853"><ele>377.4</ele><time>2026-03-29T10:29:44Z</time></trkpt><trkpt lat="44.41949314706812" lon="7.854631143015731"><ele>376.2</ele><time>2026-03-29T10:29:52Z</time></trkpt><trkpt lat="44.41946743859447" lon="7.854851956600032"><ele>375.0</ele><time>2026-03-29T10:30:41.999Z</time></trkpt><trkpt lat="44.41954950858308" lon="7.8548039398352625"><ele>375.0</ele><time>2026-03-29T10:31:40Z</time></trkpt><trkpt lat="44.41948092196484" lon="7.8548370233708855"><ele>375.0</ele><time>2026-03-29T10:31:47Z</time></trkpt><trkpt lat="44.4194280318025" lon="7.854781207799999"><ele>375.0</ele><time>2026-03-29T10:32:09.999Z</time></trkpt><trkpt lat="44.41941635860783" lon="7.854678542635433"><ele>375.0</ele><time>2026-03-29T10:32:19.999Z</time></trkpt><trkpt lat="44.419493552294554" lon="7.854678431576604"><ele>375.0</ele><time>2026-03-29T10:32:51.999Z</time></trkpt><trkpt lat="44.41954474970953" lon="7.8545741869349"><ele>375.0</ele><time>2026-03-29T10:32:59.999Z</time></trkpt><trkpt lat="44.41960349666842" lon="7.8545196102313355"><ele>375.0</ele><time>2026-03-29T10:33:37Z</time></trkpt><trkpt lat="44.41964762615233" lon="7.85443292822413"><ele>375.0</ele><time>2026-03-29T10:33:43Z</time></trkpt><trkpt lat="44.419711200989056" lon="7.854380260012933"><ele>375.0</ele><time>2026-03-29T10:39:39.998Z</time></trkpt><trkpt lat="44.41962311852095" lon="7.854379580520371"><ele>375.0</ele><time>2026-03-29T10:40:21Z</time></trkpt><trkpt lat="44.41959497223388" lon="7.854291651795417"><ele>375.0</ele><time>2026-03-29T10:41:00.999Z</time></trkpt><trkpt lat="44.4195574717727" lon="7.854476781603287"><ele>375.0</ele><time>2026-03-29T10:42:14Z</time></trkpt><trkpt lat="44.41955710732219" lon="7.854595284734555"><ele>375.0</ele><time>2026-03-29T10:42:17Z</time></trkpt><trkpt lat="44.419616131120556" lon="7.854551789437179"><ele>375.0</ele><time>2026-03-29T10:42:45.999Z</time></trkpt><trkpt lat="44.41960522034273" lon="7.854460422071494"><ele>375.0</ele><time>2026-03-29T10:42:52.999Z</time></trkpt><trkpt lat="44.41959296159755" lon="7.854367223901096"><ele>375.0</ele><time>2026-03-29T10:42:54.999Z</time></trkpt><trkpt lat="44.41952436372922" lon="7.854331452380986"><ele>375.0</ele><time>2026-03-29T10:42:59.999Z</time></trkpt><trkpt lat="44.41953371904864" lon="7.85422845650425"><ele>375.0</ele><time>2026-03-29T10:43:05.999Z</time></trkpt><trkpt lat="44.4195400468049" lon="7.854118831062835"><ele>375.0</ele><time>2026-03-29T10:43:09.999Z</time></trkpt><trkpt lat="44.41953871593256" lon="7.854009445204962"><ele>375.42857142857144</ele><time>2026-03-29T10:43:18.999Z</time></trkpt><trkpt lat="44.419485860424345" lon="7.85394516470017"><ele>375.85714285714283</ele><time>2026-03-29T10:43:25.999Z</time></trkpt><trkpt lat="44.419431125965254" lon="7.853868539439621"><ele>376.2857142857143</ele><time>2026-03-29T10:43:32.999Z</time></trkpt><trkpt lat="44.41939230357663" lon="7.853772878067713"><ele>376.7142857142857</ele><time>2026-03-29T10:43:39.998Z</time></trkpt><trkpt lat="44.4193519938554" lon="7.853687889616744"><ele>377.1428571428571</ele><time>2026-03-29T10:43:44.998Z</time></trkpt><trkpt lat="44.4192958784216" lon="7.853610304334249"><ele>377.57142857142856</ele><time>2026-03-29T10:43:50.998Z</time></trkpt><trkpt lat="44.41927816706305" lon="7.853515340937909"><ele>378.0</ele><time>2026-03-29T10:43:55Z</time></trkpt><trkpt lat="44.419240621444736" lon="7.853440723226346"><ele>378.8333333333333</ele><time>2026-03-29T10:43:59Z</time></trkpt><trkpt lat="44.41918686709529" lon="7.853365557157848"><ele>379.6666666666667</ele><time>2026-03-29T10:44:05Z</time></trkpt><trkpt lat="44.41918579970294" lon="7.853250380640133"><ele>380.5</ele><time>2026-03-29T10:44:27Z</time></trkpt><trkpt lat="44.419156887872546" lon="7.853141717722288"><ele>381.33333333333337</ele><time>2026-03-29T10:44:42.999Z</time></trkpt><trkpt lat="44.41926563253729" lon="7.85305179211079"><ele>382.1666666666667</ele><time>2026-03-29T10:46:02Z</time></trkpt><trkpt lat="44.41932325918146" lon="7.853015668540553"><ele>383.0</ele><time>2026-03-29T10:46:04Z</time></trkpt><trkpt lat="44.419532777599265" lon="7.852950476007178"><ele>383.0</ele><time>2026-03-29T10:46:22Z</time></trkpt><trkpt lat="44.41956908878353" lon="7.852875389502548"><ele>383.0</ele><time>2026-03-29T10:46:24Z</time></trkpt><trkpt lat="44.419584972531965" lon="7.852753246346033"><ele>383.0</ele><time>2026-03-29T10:46:26Z</time></trkpt><trkpt lat="44.41961889852415" lon="7.852586463164861"><ele>383.0</ele><time>2026-03-29T10:46:28Z</time></trkpt><trkpt lat="44.41964536065218" lon="7.852492526964718"><ele>383.0</ele><time>2026-03-29T10:46:29Z</time></trkpt><trkpt lat="44.41967185526359" lon="7.852361482198285"><ele>383.0</ele><time>2026-03-29T10:46:30Z</time></trkpt><trkpt lat="44.41970115338301" lon="7.852222904002621"><ele>383.25</ele><time>2026-03-29T10:46:31Z</time></trkpt><trkpt lat="44.41973045383933" lon="7.852061882199686"><ele>383.5</ele><time>2026-03-29T10:46:32Z</time></trkpt><trkpt lat="44.41975145044802" lon="7.851911027829525"><ele>383.75</ele><time>2026-03-29T10:46:33Z</time></trkpt><trkpt lat="44.41978877011809" lon="7.851722237366118"><ele>384.0</ele><time>2026-03-29T10:46:34Z</time></trkpt><trkpt lat="44.41983496149495" lon="7.851550732251388"><ele>384.2</ele><time>2026-03-29T10:46:35Z</time></trkpt><trkpt lat="44.41986418710247" lon="7.851407837935414"><ele>384.4</ele><time>2026-03-29T10:46:36Z</time></trkpt><trkpt lat="44.419894150319166" lon="7.851278655235952"><ele>384.6</ele><time>2026-03-29T10:46:37Z</time></trkpt><trkpt lat="44.41992014646108" lon="7.851142759654959"><ele>384.8</ele><time>2026-03-29T10:46:38Z</time></trkpt><trkpt lat="44.41994626859919" lon="7.851037562775308"><ele>385.0</ele><time>2026-03-29T10:46:39Z</time></trkpt><trkpt lat="44.4199566919084" lon="7.850934612523706"><ele>385.1666666666667</ele><time>2026-03-29T10:46:40Z</time></trkpt><trkpt lat="44.41993389072037" lon="7.850843188369442"><ele>385.33333333333337</ele><time>2026-03-29T10:46:41Z</time></trkpt><trkpt lat="44.41989906322617" lon="7.85075905712219"><ele>385.5</ele><time>2026-03-29T10:46:42Z</time></trkpt><trkpt lat="44.41985605498269" lon="7.8506622061884315"><ele>385.66666666666663</ele><time>2026-03-29T10:46:43Z</time></trkpt><trkpt lat="44.419815502931485" lon="7.850557473972292"><ele>385.8333333333333</ele><time>2026-03-29T10:46:44Z</time></trkpt><trkpt lat="44.41977380540486" lon="7.85047393459506"><ele>386.0</ele><time>2026-03-29T10:46:45Z</time></trkpt><trkpt lat="44.419735423648305" lon="7.850369479656797"><ele>385.99999999999994</ele><time>2026-03-29T10:46:46Z</time></trkpt><trkpt lat="44.41970437631086" lon="7.850291525624517"><ele>386.0</ele><time>2026-03-29T10:46:47Z</time></trkpt><trkpt lat="44.41961341596629" lon="7.850170527615239"><ele>386.0</ele><time>2026-03-29T10:46:48.999Z</time></trkpt><trkpt lat="44.4195474321832" lon="7.85013425528438"><ele>386.0</ele><time>2026-03-29T10:46:49.999Z</time></trkpt><trkpt lat="44.41947194537762" lon="7.850142385477536"><ele>385.99999999999994</ele><time>2026-03-29T10:46:50.999Z</time></trkpt><trkpt lat="44.41938206071292" lon="7.850108411013822"><ele>386.0</ele><time>2026-03-29T10:46:52.999Z</time></trkpt><trkpt lat="44.419304244518536" lon="7.850071822626114"><ele>386.0</ele><time>2026-03-29T10:46:54.999Z</time></trkpt><trkpt lat="44.41925535792376" lon="7.849970917128122"><ele>386.0</ele><time>2026-03-29T10:46:56.999Z</time></trkpt><trkpt lat="44.41924478557521" lon="7.849805409829183"><ele>386.0</ele><time>2026-03-29T10:46:58.999Z</time></trkpt><trkpt lat="44.41924880498552" lon="7.849668871111436"><ele>386.0</ele><time>2026-03-29T10:47:00.999Z</time></trkpt><trkpt lat="44.41919578727478" lon="7.84956155628351"><ele>386.0</ele><time>2026-03-29T10:47:01.999Z</time></trkpt><trkpt lat="44.419122986298675" lon="7.849513390755018"><ele>386.0</ele><time>2026-03-29T10:47:02.999Z</time></trkpt><trkpt lat="44.41905619298766" lon="7.849508384700998"><ele>386.0</ele><time>2026-03-29T10:47:03.999Z</time></trkpt><trkpt lat="44.41893900654388" lon="7.849564455034496"><ele>386.0</ele><time>2026-03-29T10:47:05.999Z</time></trkpt><trkpt lat="44.41880427797726" lon="7.849561750934246"><ele>386.0</ele><time>2026-03-29T10:47:07.999Z</time></trkpt><trkpt lat="44.41873155219619" lon="7.849530054729879"><ele>386.0</ele><time>2026-03-29T10:47:08.999Z</time></trkpt><trkpt lat="44.41865387307444" lon="7.849480196039312"><ele>385.99999999999994</ele><time>2026-03-29T10:47:09.999Z</time></trkpt><trkpt lat="44.418584942535404" lon="7.849431748804081"><ele>386.0</ele><time>2026-03-29T10:47:10.999Z</time></trkpt><trkpt lat="44.41846827040733" lon="7.849355704423488"><ele>386.0</ele><time>2026-03-29T10:47:12.999Z</time></trkpt><trkpt lat="44.418462019757314" lon="7.849202067976607"><ele>386.0</ele><time>2026-03-29T10:47:13.999Z</time></trkpt><trkpt lat="44.41846979218092" lon="7.849111277678991"><ele>385.99999999999994</ele><time>2026-03-29T10:47:14.999Z</time></trkpt><trkpt lat="44.41847465617076" lon="7.849019264211822"><ele>386.0</ele><time>2026-03-29T10:47:15.999Z</time></trkpt><trkpt lat="44.418496925996685" lon="7.848932246227583"><ele>385.99999999999994</ele><time>2026-03-29T10:47:16.999Z</time></trkpt><trkpt lat="44.41854098239888" lon="7.848840525245195"><ele>386.0</ele><time>2026-03-29T10:47:17.999Z</time></trkpt><trkpt lat="44.41857624953616" lon="7.848756759934674"><ele>386.0</ele><time>2026-03-29T10:47:18.999Z</time></trkpt><trkpt lat="44.41863431701461" lon="7.848677123022593"><ele>386.0</ele><time>2026-03-29T10:47:19.999Z</time></trkpt><trkpt lat="44.418702782987374" lon="7.848496240574876"><ele>385.99999999999994</ele><time>2026-03-29T10:47:21.999Z</time></trkpt><trkpt lat="44.41874081925978" lon="7.848423930586424"><ele>386.0</ele><time>2026-03-29T10:47:22.999Z</time></trkpt><trkpt lat="44.41881488260065" lon="7.8482915691513515"><ele>386.20000000000005</ele><time>2026-03-29T10:47:24.999Z</time></trkpt><trkpt lat="44.418842107718355" lon="7.848212063527092"><ele>386.40000000000003</ele><time>2026-03-29T10:47:25.999Z</time></trkpt><trkpt lat="44.41887749228146" lon="7.848119056366803"><ele>386.6</ele><time>2026-03-29T10:47:26.999Z</time></trkpt><trkpt lat="44.41893287984651" lon="7.848008390125991"><ele>386.8</ele><time>2026-03-29T10:47:27.999Z</time></trkpt><trkpt lat="44.418994090362126" lon="7.847856980314274"><ele>387.0</ele><time>2026-03-29T10:47:29.999Z</time></trkpt><trkpt lat="44.41905352582219" lon="7.8477238767934585"><ele>387.20000000000005</ele><time>2026-03-29T10:47:31.999Z</time></trkpt><trkpt lat="44.419136076593105" lon="7.847610584310688"><ele>387.4</ele><time>2026-03-29T10:47:33.999Z</time></trkpt><trkpt lat="44.41923206350837" lon="7.847485595935227"><ele>387.6</ele><time>2026-03-29T10:47:35.999Z</time></trkpt><trkpt lat="44.41932478489144" lon="7.847463991548217"><ele>387.79999999999995</ele><time>2026-03-29T10:47:36.999Z</time></trkpt><trkpt lat="44.41941714454612" lon="7.847431399583662"><ele>388.0</ele><time>2026-03-29T10:47:37.999Z</time></trkpt><trkpt lat="44.41957107232811" lon="7.8474461922359176"><ele>388.0</ele><time>2026-03-29T10:47:39.999Z</time></trkpt><trkpt lat="44.419661069142265" lon="7.847492803742273"><ele>388.0</ele><time>2026-03-29T10:47:40.999Z</time></trkpt><trkpt lat="44.41974114947571" lon="7.847552890106349"><ele>388.0</ele><time>2026-03-29T10:47:41.999Z</time></trkpt><trkpt lat="44.41981760865274" lon="7.847626714554205"><ele>388.0</ele><time>2026-03-29T10:47:42.999Z</time></trkpt><trkpt lat="44.41990098943426" lon="7.847678314023405"><ele>388.0</ele><time>2026-03-29T10:47:43.999Z</time></trkpt><trkpt lat="44.419978181966776" lon="7.84777547316708"><ele>388.0</ele><time>2026-03-29T10:47:44.999Z</time></trkpt><trkpt lat="44.42006885419667" lon="7.847864267694346"><ele>388.0</ele><time>2026-03-29T10:47:45.999Z</time></trkpt><trkpt lat="44.420152774592886" lon="7.847957922780632"><ele>388.0</ele><time>2026-03-29T10:47:46.999Z</time></trkpt><trkpt lat="44.42023350621636" lon="7.8480585148989155"><ele>388.0</ele><time>2026-03-29T10:47:47.999Z</time></trkpt><trkpt lat="44.42032013447851" lon="7.848144266937061"><ele>388.0</ele><time>2026-03-29T10:47:48.999Z</time></trkpt><trkpt lat="44.4204021769169" lon="7.848239395689404"><ele>388.0</ele><time>2026-03-29T10:47:49.998Z</time></trkpt><trkpt lat="44.42047921238749" lon="7.84833181436072"><ele>388.0</ele><time>2026-03-29T10:47:50.998Z</time></trkpt><trkpt lat="44.4205598167114" lon="7.848415851188845"><ele>388.0</ele><time>2026-03-29T10:47:51.998Z</time></trkpt><trkpt lat="44.42064422344713" lon="7.848512585115335"><ele>388.0</ele><time>2026-03-29T10:47:52.998Z</time></trkpt><trkpt lat="44.420738389941754" lon="7.848609739026474"><ele>388.0</ele><time>2026-03-29T10:47:53.998Z</time></trkpt><trkpt lat="44.420825482209686" lon="7.848713974317881"><ele>387.59999999999997</ele><time>2026-03-29T10:47:54.998Z</time></trkpt><trkpt lat="44.4209136388809" lon="7.8487872157750145"><ele>387.2</ele><time>2026-03-29T10:47:55.998Z</time></trkpt><trkpt lat="44.421001695428835" lon="7.8488451112212845"><ele>386.8</ele><time>2026-03-29T10:47:56.998Z</time></trkpt><trkpt lat="44.421088660836496" lon="7.848907774987001"><ele>386.4</ele><time>2026-03-29T10:47:57.998Z</time></trkpt><trkpt lat="44.42118300354808" lon="7.848933334876027"><ele>386.0</ele><time>2026-03-29T10:47:58.998Z</time></trkpt><trkpt lat="44.421266459164535" lon="7.848974634160771"><ele>385.8333333333333</ele><time>2026-03-29T10:47:59.998Z</time></trkpt><trkpt lat="44.421338678357664" lon="7.849006700322523"><ele>385.66666666666663</ele><time>2026-03-29T10:48:00.998Z</time></trkpt><trkpt lat="44.421444368722256" lon="7.849058528378111"><ele>385.5</ele><time>2026-03-29T10:48:02.998Z</time></trkpt><trkpt lat="44.421526301357815" lon="7.849161486807188"><ele>385.33333333333337</ele><time>2026-03-29T10:48:04.998Z</time></trkpt><trkpt lat="44.42153445277554" lon="7.849257339335385"><ele>385.1666666666667</ele><time>2026-03-29T10:48:06Z</time></trkpt><trkpt lat="44.42154961298528" lon="7.849354416034869"><ele>385.0</ele><time>2026-03-29T10:48:07Z</time></trkpt><trkpt lat="44.42156924096371" lon="7.849452106316534"><ele>385.00000000000006</ele><time>2026-03-29T10:48:08Z</time></trkpt><trkpt lat="44.421615078528795" lon="7.8495369017448064"><ele>385.0</ele><time>2026-03-29T10:48:09Z</time></trkpt><trkpt lat="44.42167224840363" lon="7.849604864121857"><ele>385.0</ele><time>2026-03-29T10:48:10Z</time></trkpt><trkpt lat="44.42173517059383" lon="7.849644888380338"><ele>385.0</ele><time>2026-03-29T10:48:11Z</time></trkpt><trkpt lat="44.42180490774637" lon="7.849666591232429"><ele>385.00000000000006</ele><time>2026-03-29T10:48:12Z</time></trkpt><trkpt lat="44.421885116390406" lon="7.849645734917738"><ele>385.0</ele><time>2026-03-29T10:48:13Z</time></trkpt><trkpt lat="44.42195428803861" lon="7.84959727328852"><ele>385.0</ele><time>2026-03-29T10:48:14Z</time></trkpt><trkpt lat="44.42202051399992" lon="7.849524718286833"><ele>385.0</ele><time>2026-03-29T10:48:15Z</time></trkpt><trkpt lat="44.42206333844917" lon="7.849431545859999"><ele>385.0</ele><time>2026-03-29T10:48:16Z</time></trkpt><trkpt lat="44.42210578011517" lon="7.849347578328603"><ele>385.0</ele><time>2026-03-29T10:48:17Z</time></trkpt><trkpt lat="44.4221615244019" lon="7.849278479387417"><ele>385.0</ele><time>2026-03-29T10:48:18Z</time></trkpt><trkpt lat="44.42229751754279" lon="7.849216351713244"><ele>385.00000000000006</ele><time>2026-03-29T10:48:20Z</time></trkpt><trkpt lat="44.42237392671167" lon="7.849233260496628"><ele>385.0</ele><time>2026-03-29T10:48:21Z</time></trkpt><trkpt lat="44.42245883213048" lon="7.849272880986877"><ele>385.0</ele><time>2026-03-29T10:48:22Z</time></trkpt><trkpt lat="44.42254812259751" lon="7.849320323994367"><ele>385.0</ele><time>2026-03-29T10:48:23Z</time></trkpt><trkpt lat="44.42263131072271" lon="7.8493858715406635"><ele>385.00000000000006</ele><time>2026-03-29T10:48:24Z</time></trkpt><trkpt lat="44.422707325502884" lon="7.849450784211476"><ele>385.0</ele><time>2026-03-29T10:48:25Z</time></trkpt><trkpt lat="44.42277737674399" lon="7.849528359531112"><ele>385.0</ele><time>2026-03-29T10:48:26Z</time></trkpt><trkpt lat="44.42285779592416" lon="7.849637582192488"><ele>385.0</ele><time>2026-03-29T10:48:27Z</time></trkpt><trkpt lat="44.422931469518154" lon="7.8497346182872825"><ele>385.0</ele><time>2026-03-29T10:48:28Z</time></trkpt><trkpt lat="44.422993834409255" lon="7.849831498839931"><ele>385.0</ele><time>2026-03-29T10:48:29Z</time></trkpt><trkpt lat="44.42304524362737" lon="7.849949836209526"><ele>385.0</ele><time>2026-03-29T10:48:30Z</time></trkpt><trkpt lat="44.42309104739114" lon="7.850052068952435"><ele>384.75</ele><time>2026-03-29T10:48:31Z</time></trkpt><trkpt lat="44.423151759471615" lon="7.850151589313068"><ele>384.5</ele><time>2026-03-29T10:48:32Z</time></trkpt><trkpt lat="44.42323956361936" lon="7.8502511046780565"><ele>384.25</ele><time>2026-03-29T10:48:33Z</time></trkpt><trkpt lat="44.42333955441187" lon="7.850339282099321"><ele>384.0</ele><time>2026-03-29T10:48:34Z</time></trkpt><trkpt lat="44.423440707471805" lon="7.850448058014257"><ele>384.0</ele><time>2026-03-29T10:48:35Z</time></trkpt><trkpt lat="44.423529745686096" lon="7.850581179987261"><ele>384.0</ele><time>2026-03-29T10:48:36Z</time></trkpt><trkpt lat="44.42361948854318" lon="7.850745041281434"><ele>384.0</ele><time>2026-03-29T10:48:37Z</time></trkpt><trkpt lat="44.42370599994909" lon="7.850910706035232"><ele>384.0</ele><time>2026-03-29T10:48:38Z</time></trkpt><trkpt lat="44.42380201957513" lon="7.851090928675471"><ele>383.6666666666667</ele><time>2026-03-29T10:48:39Z</time></trkpt><trkpt lat="44.42387555804483" lon="7.851300031106539"><ele>383.33333333333337</ele><time>2026-03-29T10:48:40Z</time></trkpt><trkpt lat="44.42397869664488" lon="7.851491454350277"><ele>383.0</ele><time>2026-03-29T10:48:41Z</time></trkpt><trkpt lat="44.42407159197396" lon="7.851713818179105"><ele>382.6666666666667</ele><time>2026-03-29T10:48:42Z</time></trkpt><trkpt lat="44.42417152503321" lon="7.851931980742094"><ele>382.3333333333333</ele><time>2026-03-29T10:48:43Z</time></trkpt><trkpt lat="44.42427416483494" lon="7.852168637370236"><ele>382.0</ele><time>2026-03-29T10:48:44Z</time></trkpt><trkpt lat="44.42436680527954" lon="7.852404407989841"><ele>382.0</ele><time>2026-03-29T10:48:45Z</time></trkpt><trkpt lat="44.42449364706799" lon="7.8526274304804184"><ele>382.0</ele><time>2026-03-29T10:48:46Z</time></trkpt><trkpt lat="44.424612641736985" lon="7.852859588188303"><ele>382.0</ele><time>2026-03-29T10:48:47Z</time></trkpt><trkpt lat="44.42474617367968" lon="7.853070652879292"><ele>382.0</ele><time>2026-03-29T10:48:48Z</time></trkpt><trkpt lat="44.424898680079075" lon="7.853267470688626"><ele>382.0</ele><time>2026-03-29T10:48:49Z</time></trkpt><trkpt lat="44.42504933064065" lon="7.853460759909138"><ele>382.0</ele><time>2026-03-29T10:48:50Z</time></trkpt><trkpt lat="44.425199928994886" lon="7.853659629431478"><ele>382.3333333333333</ele><time>2026-03-29T10:48:51Z</time></trkpt><trkpt lat="44.425351302930984" lon="7.853848805744945"><ele>382.6666666666667</ele><time>2026-03-29T10:48:52Z</time></trkpt><trkpt lat="44.425507963711766" lon="7.8540529113172015"><ele>383.0</ele><time>2026-03-29T10:48:52.999Z</time></trkpt><trkpt lat="44.42566557561321" lon="7.854259643965996"><ele>383.0</ele><time>2026-03-29T10:48:53.999Z</time></trkpt><trkpt lat="44.42583006978923" lon="7.854481437203858"><ele>383.0</ele><time>2026-03-29T10:48:54.999Z</time></trkpt><trkpt lat="44.425994010478504" lon="7.854684778893682"><ele>383.0</ele><time>2026-03-29T10:48:55.999Z</time></trkpt><trkpt lat="44.42616327198273" lon="7.854902140912166"><ele>382.5</ele><time>2026-03-29T10:48:56.999Z</time></trkpt><trkpt lat="44.42633052452513" lon="7.855135835382153"><ele>382.0</ele><time>2026-03-29T10:48:57.999Z</time></trkpt><trkpt lat="44.42651106995783" lon="7.855359089227318"><ele>382.0</ele><time>2026-03-29T10:48:58.999Z</time></trkpt><trkpt lat="44.42669191670989" lon="7.855585051597721"><ele>382.0</ele><time>2026-03-29T10:48:59.999Z</time></trkpt><trkpt lat="44.42686946373867" lon="7.855823784925125"><ele>382.0</ele><time>2026-03-29T10:49:00.999Z</time></trkpt><trkpt lat="44.4270494017102" lon="7.856057744719802"><ele>382.0</ele><time>2026-03-29T10:49:01.999Z</time></trkpt><trkpt lat="44.427230169430885" lon="7.856288101683336"><ele>382.0</ele><time>2026-03-29T10:49:02.999Z</time></trkpt><trkpt lat="44.42741250421233" lon="7.856518619818825"><ele>382.0</ele><time>2026-03-29T10:49:03.999Z</time></trkpt><trkpt lat="44.42759488639723" lon="7.856768294044413"><ele>381.5</ele><time>2026-03-29T10:49:04.999Z</time></trkpt><trkpt lat="44.42778372815847" lon="7.857003587445325"><ele>381.0</ele><time>2026-03-29T10:49:05.999Z</time></trkpt><trkpt lat="44.42796907586174" lon="7.8572408315416125"><ele>380.0</ele><time>2026-03-29T10:49:06.999Z</time></trkpt><trkpt lat="44.428169201364504" lon="7.857455243397975"><ele>379.0</ele><time>2026-03-29T10:49:07.999Z</time></trkpt><trkpt lat="44.428368367145616" lon="7.8576761118985585"><ele>379.0</ele><time>2026-03-29T10:49:08.999Z</time></trkpt><trkpt lat="44.428570342970495" lon="7.857904202637356"><ele>379.0</ele><time>2026-03-29T10:49:09.999Z</time></trkpt><trkpt lat="44.428765284075986" lon="7.858136526013268"><ele>379.0</ele><time>2026-03-29T10:49:10.999Z</time></trkpt><trkpt lat="44.42897140135561" lon="7.8583412774181784"><ele>379.0</ele><time>2026-03-29T10:49:11.999Z</time></trkpt><trkpt lat="44.42916892311527" lon="7.858568906287112"><ele>379.0</ele><time>2026-03-29T10:49:12.999Z</time></trkpt><trkpt lat="44.42936706425145" lon="7.858789462707198"><ele>379.0</ele><time>2026-03-29T10:49:13.999Z</time></trkpt><trkpt lat="44.42956685215404" lon="7.859000117527595"><ele>378.5</ele><time>2026-03-29T10:49:14.999Z</time></trkpt><trkpt lat="44.429765127864016" lon="7.8592111286609265"><ele>378.0</ele><time>2026-03-29T10:49:15.999Z</time></trkpt><trkpt lat="44.42996267081336" lon="7.859427679194823"><ele>379.0</ele><time>2026-03-29T10:49:16.999Z</time></trkpt><trkpt lat="44.4301488943764" lon="7.859662203055313"><ele>380.0</ele><time>2026-03-29T10:49:17.999Z</time></trkpt><trkpt lat="44.43034444497236" lon="7.859881990916518"><ele>379.0</ele><time>2026-03-29T10:49:18.999Z</time></trkpt><trkpt lat="44.43054257717173" lon="7.8601046803540715"><ele>378.0</ele><time>2026-03-29T10:49:19.999Z</time></trkpt><trkpt lat="44.43073833963121" lon="7.8603238486203795"><ele>378.0</ele><time>2026-03-29T10:49:20.999Z</time></trkpt><trkpt lat="44.43093513625164" lon="7.860543663100227"><ele>378.0</ele><time>2026-03-29T10:49:21.999Z</time></trkpt><trkpt lat="44.43112982515892" lon="7.860763497594484"><ele>378.5</ele><time>2026-03-29T10:49:22.999Z</time></trkpt><trkpt lat="44.431325569091044" lon="7.860983566494801"><ele>379.0</ele><time>2026-03-29T10:49:23.999Z</time></trkpt><trkpt lat="44.431522641264756" lon="7.861204544501813"><ele>379.0</ele><time>2026-03-29T10:49:24.999Z</time></trkpt><trkpt lat="44.431721951635936" lon="7.861428031820061"><ele>379.0</ele><time>2026-03-29T10:49:25.999Z</time></trkpt><trkpt lat="44.43192271991775" lon="7.861653153969287"><ele>378.5</ele><time>2026-03-29T10:49:26.999Z</time></trkpt><trkpt lat="44.43211523613484" lon="7.861869023094045"><ele>378.0</ele><time>2026-03-29T10:49:27.999Z</time></trkpt><trkpt lat="44.43231862435454" lon="7.862097083002607"><ele>376.5</ele><time>2026-03-29T10:49:28.999Z</time></trkpt><trkpt lat="44.43251626217954" lon="7.862318695004968"><ele>375.0</ele><time>2026-03-29T10:49:29.999Z</time></trkpt><trkpt lat="44.43272673355163" lon="7.862524927107529"><ele>375.0</ele><time>2026-03-29T10:49:30.999Z</time></trkpt><trkpt lat="44.43292047425002" lon="7.862771128546749"><ele>375.0</ele><time>2026-03-29T10:49:31.999Z</time></trkpt><trkpt lat="44.43311566302825" lon="7.86299780927831"><ele>375.0</ele><time>2026-03-29T10:49:32.999Z</time></trkpt><trkpt lat="44.433314755063705" lon="7.863212917854122"><ele>375.0</ele><time>2026-03-29T10:49:33.999Z</time></trkpt><trkpt lat="44.43350971137075" lon="7.8634339419613095"><ele>375.0</ele><time>2026-03-29T10:49:34.999Z</time></trkpt><trkpt lat="44.43370330865062" lon="7.863647631885878"><ele>375.0</ele><time>2026-03-29T10:49:35.999Z</time></trkpt><trkpt lat="44.4338978831232" lon="7.863870730213284"><ele>374.5</ele><time>2026-03-29T10:49:36.999Z</time></trkpt><trkpt lat="44.43409258266971" lon="7.864080816892435"><ele>374.0</ele><time>2026-03-29T10:49:37.999Z</time></trkpt><trkpt lat="44.43428483646737" lon="7.864300288364297"><ele>374.0</ele><time>2026-03-29T10:49:38.999Z</time></trkpt><trkpt lat="44.43447877957475" lon="7.864504501085332"><ele>374.0</ele><time>2026-03-29T10:49:39.999Z</time></trkpt><trkpt lat="44.43467403231847" lon="7.864719821116038"><ele>374.0</ele><time>2026-03-29T10:49:40.999Z</time></trkpt><trkpt lat="44.434871487416984" lon="7.864939869826686"><ele>374.0</ele><time>2026-03-29T10:49:41.999Z</time></trkpt><trkpt lat="44.435071043033766" lon="7.86515299182136"><ele>374.0</ele><time>2026-03-29T10:49:42.999Z</time></trkpt><trkpt lat="44.43527006150844" lon="7.865375699995375"><ele>374.0</ele><time>2026-03-29T10:49:43.999Z</time></trkpt><trkpt lat="44.435452274671505" lon="7.865595927835939"><ele>374.0</ele><time>2026-03-29T10:49:44.999Z</time></trkpt><trkpt lat="44.43565124261665" lon="7.865816926135238"><ele>374.0</ele><time>2026-03-29T10:49:45.999Z</time></trkpt><trkpt lat="44.43585659338368" lon="7.866031218420909"><ele>374.0</ele><time>2026-03-29T10:49:46.999Z</time></trkpt><trkpt lat="44.43605997867641" lon="7.866231611778389"><ele>374.0</ele><time>2026-03-29T10:49:47.999Z</time></trkpt><trkpt lat="44.4362291491287" lon="7.8664437239297476"><ele>374.0</ele><time>2026-03-29T10:49:48.999Z</time></trkpt><trkpt lat="44.436401488868036" lon="7.866658898441236"><ele>374.0</ele><time>2026-03-29T10:49:49.999Z</time></trkpt><trkpt lat="44.43656793381702" lon="7.866852283907341"><ele>374.0</ele><time>2026-03-29T10:49:50.999Z</time></trkpt><trkpt lat="44.43673739113656" lon="7.867049210762697"><ele>373.6666666666667</ele><time>2026-03-29T10:49:51.999Z</time></trkpt><trkpt lat="44.43690038114484" lon="7.867236289831426"><ele>373.3333333333333</ele><time>2026-03-29T10:49:52.998Z</time></trkpt><trkpt lat="44.43705296451915" lon="7.8674069668688364"><ele>373.0</ele><time>2026-03-29T10:49:53.998Z</time></trkpt><trkpt lat="44.43719885848722" lon="7.867566086065068"><ele>372.3333333333333</ele><time>2026-03-29T10:49:54.998Z</time></trkpt><trkpt lat="44.4373394640336" lon="7.867713198532993"><ele>371.6666666666667</ele><time>2026-03-29T10:49:55.998Z</time></trkpt><trkpt lat="44.437472897501976" lon="7.867854889676869"><ele>371.0</ele><time>2026-03-29T10:49:56.998Z</time></trkpt><trkpt lat="44.437598934784404" lon="7.867993003644421"><ele>371.0</ele><time>2026-03-29T10:49:57.998Z</time></trkpt><trkpt lat="44.43772870863268" lon="7.868132304453263"><ele>371.0</ele><time>2026-03-29T10:49:58.998Z</time></trkpt><trkpt lat="44.437864114887205" lon="7.868274557438021"><ele>371.0</ele><time>2026-03-29T10:49:59.998Z</time></trkpt><trkpt lat="44.43800599222837" lon="7.868418527833753"><ele>371.0</ele><time>2026-03-29T10:50:00.998Z</time></trkpt><trkpt lat="44.438160308654616" lon="7.868555648658019"><ele>371.0</ele><time>2026-03-29T10:50:01.998Z</time></trkpt><trkpt lat="44.43829983535036" lon="7.86867944150785"><ele>371.0</ele><time>2026-03-29T10:50:02.998Z</time></trkpt><trkpt lat="44.4384347875408" lon="7.8687984922093674"><ele>371.0</ele><time>2026-03-29T10:50:03.998Z</time></trkpt><trkpt lat="44.43858072290465" lon="7.868925295047015"><ele>371.0</ele><time>2026-03-29T10:50:04.998Z</time></trkpt><trkpt lat="44.43872671962811" lon="7.8690494366464865"><ele>371.0</ele><time>2026-03-29T10:50:05.998Z</time></trkpt><trkpt lat="44.438874582756355" lon="7.8691753543268605"><ele>371.0</ele><time>2026-03-29T10:50:06.998Z</time></trkpt><trkpt lat="44.43902543315763" lon="7.869294198710864"><ele>371.0</ele><time>2026-03-29T10:50:07.998Z</time></trkpt><trkpt lat="44.439179414859865" lon="7.869416065271655"><ele>371.0</ele><time>2026-03-29T10:50:08.998Z</time></trkpt><trkpt lat="44.439328883152605" lon="7.869528480419537"><ele>371.0</ele><time>2026-03-29T10:50:09.998Z</time></trkpt><trkpt lat="44.43947426640214" lon="7.869636782910119"><ele>371.0</ele><time>2026-03-29T10:50:10.998Z</time></trkpt><trkpt lat="44.43962056413891" lon="7.8697525376176"><ele>371.0</ele><time>2026-03-29T10:50:12Z</time></trkpt><trkpt lat="44.4397725743399" lon="7.869863064391597"><ele>371.0</ele><time>2026-03-29T10:50:13Z</time></trkpt><trkpt lat="44.43991285843419" lon="7.869977839109279"><ele>371.0</ele><time>2026-03-29T10:50:14Z</time></trkpt><trkpt lat="44.44005818033621" lon="7.8700879751407165"><ele>371.0</ele><time>2026-03-29T10:50:15Z</time></trkpt><trkpt lat="44.44020841803347" lon="7.870203979292182"><ele>371.0</ele><time>2026-03-29T10:50:16Z</time></trkpt><trkpt lat="44.440346191287844" lon="7.870323147954287"><ele>371.0</ele><time>2026-03-29T10:50:17Z</time></trkpt><trkpt lat="44.440491971959936" lon="7.870425408396067"><ele>371.0</ele><time>2026-03-29T10:50:18Z</time></trkpt><trkpt lat="44.440633787222936" lon="7.870535350067501"><ele>370.6666666666667</ele><time>2026-03-29T10:50:19Z</time></trkpt><trkpt lat="44.44077696932728" lon="7.870645652513871"><ele>370.3333333333333</ele><time>2026-03-29T10:50:20Z</time></trkpt><trkpt lat="44.440924460735566" lon="7.870753709460881"><ele>370.0</ele><time>2026-03-29T10:50:21Z</time></trkpt><trkpt lat="44.44107198472615" lon="7.8708577698991"><ele>369.3333333333333</ele><time>2026-03-29T10:50:22Z</time></trkpt><trkpt lat="44.44121620515595" lon="7.870966328973543"><ele>368.6666666666667</ele><time>2026-03-29T10:50:23Z</time></trkpt><trkpt lat="44.44136874759257" lon="7.871078544505633"><ele>368.0</ele><time>2026-03-29T10:50:24Z</time></trkpt><trkpt lat="44.44151225492815" lon="7.87119003545304"><ele>366.33333333333337</ele><time>2026-03-29T10:50:25Z</time></trkpt><trkpt lat="44.4416705353702" lon="7.87130922283682"><ele>364.6666666666667</ele><time>2026-03-29T10:50:26Z</time></trkpt><trkpt lat="44.44181608329836" lon="7.87142338748086"><ele>363.0</ele><time>2026-03-29T10:50:27Z</time></trkpt><trkpt lat="44.441954808024924" lon="7.871533840945142"><ele>363.0</ele><time>2026-03-29T10:50:28Z</time></trkpt><trkpt lat="44.44209080409064" lon="7.871648484926065"><ele>363.0</ele><time>2026-03-29T10:50:29Z</time></trkpt><trkpt lat="44.44223659861033" lon="7.871763883714448"><ele>363.0</ele><time>2026-03-29T10:50:30Z</time></trkpt><trkpt lat="44.44238861979949" lon="7.871881501919739"><ele>361.0</ele><time>2026-03-29T10:50:31Z</time></trkpt><trkpt lat="44.44253825182683" lon="7.871993408329223"><ele>359.0</ele><time>2026-03-29T10:50:32Z</time></trkpt><trkpt lat="44.44268935694171" lon="7.87211015215089"><ele>357.0</ele><time>2026-03-29T10:50:33Z</time></trkpt><trkpt lat="44.442832504663016" lon="7.872232935025631"><ele>356.0</ele><time>2026-03-29T10:50:34Z</time></trkpt><trkpt lat="44.442973682432964" lon="7.872363149636541"><ele>355.0</ele><time>2026-03-29T10:50:35Z</time></trkpt><trkpt lat="44.443110003509304" lon="7.8724910457835575"><ele>354.0</ele><time>2026-03-29T10:50:36Z</time></trkpt><trkpt lat="44.443252392007345" lon="7.872627535286933"><ele>350.0</ele><time>2026-03-29T10:50:37Z</time></trkpt><trkpt lat="44.443404227347386" lon="7.872771574225198"><ele>346.0</ele><time>2026-03-29T10:50:38Z</time></trkpt><trkpt lat="44.443536290546845" lon="7.872914843956841"><ele>342.0</ele><time>2026-03-29T10:50:39Z</time></trkpt><trkpt lat="44.443675087927275" lon="7.873045493023588"><ele>342.3333333333333</ele><time>2026-03-29T10:50:40Z</time></trkpt><trkpt lat="44.44381150447757" lon="7.873188042386846"><ele>342.66666666666663</ele><time>2026-03-29T10:50:41Z</time></trkpt><trkpt lat="44.44394716694844" lon="7.873322521800288"><ele>343.0</ele><time>2026-03-29T10:50:42Z</time></trkpt><trkpt lat="44.444083856111796" lon="7.873458650568519"><ele>338.0</ele><time>2026-03-29T10:50:43Z</time></trkpt><trkpt lat="44.444215659473805" lon="7.873592452873124"><ele>333.0</ele><time>2026-03-29T10:50:44Z</time></trkpt><trkpt lat="44.444348704501564" lon="7.873701727745234"><ele>328.0</ele><time>2026-03-29T10:50:45Z</time></trkpt><trkpt lat="44.44447977346223" lon="7.873832228548084"><ele>328.0</ele><time>2026-03-29T10:50:46Z</time></trkpt><trkpt lat="44.44461394847391" lon="7.87396554062793"><ele>328.0</ele><time>2026-03-29T10:50:47Z</time></trkpt><trkpt lat="44.444753371613146" lon="7.8741093317094215"><ele>328.0</ele><time>2026-03-29T10:50:48Z</time></trkpt><trkpt lat="44.444882098030064" lon="7.874272295812836"><ele>328.0</ele><time>2026-03-29T10:50:49Z</time></trkpt><trkpt lat="44.44499190359408" lon="7.874445756030427"><ele>328.0</ele><time>2026-03-29T10:50:50Z</time></trkpt><trkpt lat="44.445091103779724" lon="7.874633546338585"><ele>328.0</ele><time>2026-03-29T10:50:51Z</time></trkpt><trkpt lat="44.44518231834448" lon="7.874837889191131"><ele>328.0</ele><time>2026-03-29T10:50:52Z</time></trkpt><trkpt lat="44.445269259580385" lon="7.875065174126797"><ele>328.0</ele><time>2026-03-29T10:50:53Z</time></trkpt><trkpt lat="44.445342382340186" lon="7.8753011665410035"><ele>328.0</ele><time>2026-03-29T10:50:54Z</time></trkpt><trkpt lat="44.44541127667113" lon="7.875543005417432"><ele>330.0</ele><time>2026-03-29T10:50:55Z</time></trkpt><trkpt lat="44.445464060551934" lon="7.875786293105363"><ele>332.0</ele><time>2026-03-29T10:50:56Z</time></trkpt><trkpt lat="44.445501415062196" lon="7.8760259501100816"><ele>334.0</ele><time>2026-03-29T10:50:57Z</time></trkpt><trkpt lat="44.445542213645744" lon="7.876261696447112"><ele>334.0</ele><time>2026-03-29T10:50:57.999Z</time></trkpt><trkpt lat="44.44558522496151" lon="7.876478508908457"><ele>334.0</ele><time>2026-03-29T10:50:58.999Z</time></trkpt><trkpt lat="44.44562159018014" lon="7.876680613439792"><ele>334.0</ele><time>2026-03-29T10:50:59.999Z</time></trkpt><trkpt lat="44.44566265132444" lon="7.876889938064881"><ele>329.66666666666663</ele><time>2026-03-29T10:51:00.999Z</time></trkpt><trkpt lat="44.445715822215206" lon="7.877088385748148"><ele>325.3333333333333</ele><time>2026-03-29T10:51:01.999Z</time></trkpt><trkpt lat="44.44578541515387" lon="7.8772880146625415"><ele>321.0</ele><time>2026-03-29T10:51:02.999Z</time></trkpt><trkpt lat="44.44587099065152" lon="7.877471907707543"><ele>314.0</ele><time>2026-03-29T10:51:03.999Z</time></trkpt><trkpt lat="44.44596421918241" lon="7.877648585701954"><ele>307.0</ele><time>2026-03-29T10:51:04.999Z</time></trkpt><trkpt lat="44.446083692254646" lon="7.877830144820674"><ele>300.0</ele><time>2026-03-29T10:51:05.999Z</time></trkpt><trkpt lat="44.446224017721406" lon="7.877990046251276"><ele>308.3333333333333</ele><time>2026-03-29T10:51:06.999Z</time></trkpt><trkpt lat="44.44636158582077" lon="7.8781358076583015"><ele>316.66666666666663</ele><time>2026-03-29T10:51:07.999Z</time></trkpt><trkpt lat="44.44649626659408" lon="7.878266685539389"><ele>325.0</ele><time>2026-03-29T10:51:08.999Z</time></trkpt><trkpt lat="44.446629556252574" lon="7.878408147673779"><ele>317.66666666666663</ele><time>2026-03-29T10:51:09.999Z</time></trkpt><trkpt lat="44.44674297505719" lon="7.878596634244441"><ele>310.3333333333333</ele><time>2026-03-29T10:51:10.999Z</time></trkpt><trkpt lat="44.44685705764204" lon="7.878791321768928"><ele>303.0</ele><time>2026-03-29T10:51:11.999Z</time></trkpt><trkpt lat="44.446948154070206" lon="7.878992706357337"><ele>303.0</ele><time>2026-03-29T10:51:12.999Z</time></trkpt><trkpt lat="44.44702557534289" lon="7.879233485484983"><ele>303.0</ele><time>2026-03-29T10:51:13.999Z</time></trkpt><trkpt lat="44.44710032999302" lon="7.879494600189295"><ele>303.0</ele><time>2026-03-29T10:51:14.999Z</time></trkpt><trkpt lat="44.44713400750534" lon="7.879779484403846"><ele>307.3333333333333</ele><time>2026-03-29T10:51:15.999Z</time></trkpt><trkpt lat="44.44715056160222" lon="7.880079960788659"><ele>311.66666666666663</ele><time>2026-03-29T10:51:16.999Z</time></trkpt><trkpt lat="44.44717269237289" lon="7.880385659464124"><ele>316.0</ele><time>2026-03-29T10:51:17.999Z</time></trkpt><trkpt lat="44.44718509369652" lon="7.88071451969437"><ele>312.5</ele><time>2026-03-29T10:51:18.999Z</time></trkpt><trkpt lat="44.44720934811205" lon="7.881041404736926"><ele>309.0</ele><time>2026-03-29T10:51:19.999Z</time></trkpt><trkpt lat="44.44722277624693" lon="7.881365251364449"><ele>309.0</ele><time>2026-03-29T10:51:20.999Z</time></trkpt><trkpt lat="44.44723695521679" lon="7.881717128565543"><ele>309.0</ele><time>2026-03-29T10:51:21.999Z</time></trkpt><trkpt lat="44.44725533607845" lon="7.882041358361707"><ele>308.0</ele><time>2026-03-29T10:51:22.999Z</time></trkpt><trkpt lat="44.447275107491855" lon="7.882357635712279"><ele>307.0</ele><time>2026-03-29T10:51:23.999Z</time></trkpt><trkpt lat="44.447291816976225" lon="7.8826507753908395"><ele>306.0</ele><time>2026-03-29T10:51:24.999Z</time></trkpt><trkpt lat="44.44730821005495" lon="7.882932635899731"><ele>304.6666666666667</ele><time>2026-03-29T10:51:25.999Z</time></trkpt><trkpt lat="44.44733067895179" lon="7.883226441638502"><ele>303.33333333333337</ele><time>2026-03-29T10:51:26.999Z</time></trkpt><trkpt lat="44.447360218174396" lon="7.883496711995304"><ele>302.0</ele><time>2026-03-29T10:51:27.999Z</time></trkpt><trkpt lat="44.447393199756426" lon="7.883772866152269"><ele>299.6666666666667</ele><time>2026-03-29T10:51:28.999Z</time></trkpt><trkpt lat="44.447444840476884" lon="7.884030119636607"><ele>297.3333333333333</ele><time>2026-03-29T10:51:29.999Z</time></trkpt><trkpt lat="44.4475103422087" lon="7.884280865681504"><ele>295.0</ele><time>2026-03-29T10:51:30.999Z</time></trkpt><trkpt lat="44.44759300960157" lon="7.884540988500907"><ele>294.3333333333333</ele><time>2026-03-29T10:51:31.999Z</time></trkpt><trkpt lat="44.44767646372977" lon="7.884772006777151"><ele>293.6666666666667</ele><time>2026-03-29T10:51:32.999Z</time></trkpt><trkpt lat="44.447764264441034" lon="7.885004760390157"><ele>293.0</ele><time>2026-03-29T10:51:33.999Z</time></trkpt><trkpt lat="44.4478584290927" lon="7.885212962180357"><ele>292.0</ele><time>2026-03-29T10:51:34.999Z</time></trkpt><trkpt lat="44.44794807465936" lon="7.885420788511485"><ele>291.0</ele><time>2026-03-29T10:51:35.999Z</time></trkpt><trkpt lat="44.44804556167675" lon="7.885628405233022"><ele>290.0</ele><time>2026-03-29T10:51:36.999Z</time></trkpt><trkpt lat="44.44815036874145" lon="7.8858286233584804"><ele>291.0</ele><time>2026-03-29T10:51:37.999Z</time></trkpt><trkpt lat="44.448253474881454" lon="7.8860453362666165"><ele>292.0</ele><time>2026-03-29T10:51:38.999Z</time></trkpt><trkpt lat="44.44835888937938" lon="7.886241116637497"><ele>293.0</ele><time>2026-03-29T10:51:39.999Z</time></trkpt><trkpt lat="44.44846554949816" lon="7.886448014365546"><ele>293.0</ele><time>2026-03-29T10:51:40.999Z</time></trkpt><trkpt lat="44.44856921437586" lon="7.886677041115529"><ele>293.0</ele><time>2026-03-29T10:51:41.999Z</time></trkpt><trkpt lat="44.44868187054107" lon="7.88690391730145"><ele>293.0</ele><time>2026-03-29T10:51:42.999Z</time></trkpt><trkpt lat="44.44879883240446" lon="7.887141050691216"><ele>293.0</ele><time>2026-03-29T10:51:43.999Z</time></trkpt><trkpt lat="44.448921939558346" lon="7.887391696110072"><ele>293.0</ele><time>2026-03-29T10:51:44.999Z</time></trkpt><trkpt lat="44.44904644163144" lon="7.887643465793986"><ele>293.0</ele><time>2026-03-29T10:51:45.999Z</time></trkpt><trkpt lat="44.44918979194103" lon="7.88789258149389"><ele>293.0</ele><time>2026-03-29T10:51:46.999Z</time></trkpt><trkpt lat="44.44932533663442" lon="7.888165130437066"><ele>293.0</ele><time>2026-03-29T10:51:47.999Z</time></trkpt><trkpt lat="44.44946785103705" lon="7.888450066749821"><ele>290.0</ele><time>2026-03-29T10:51:48.999Z</time></trkpt><trkpt lat="44.44961000814802" lon="7.8887356834489415"><ele>287.0</ele><time>2026-03-29T10:51:49.999Z</time></trkpt><trkpt lat="44.44974267252159" lon="7.8890472649578465"><ele>288.0</ele><time>2026-03-29T10:51:50.999Z</time></trkpt><trkpt lat="44.44988648327817" lon="7.889336897916427"><ele>289.0</ele><time>2026-03-29T10:51:51.999Z</time></trkpt><trkpt lat="44.4500247744931" lon="7.889613809875577"><ele>289.0</ele><time>2026-03-29T10:51:52.999Z</time></trkpt><trkpt lat="44.45017102556166" lon="7.889868701610297"><ele>289.0</ele><time>2026-03-29T10:51:53.999Z</time></trkpt><trkpt lat="44.45030962047943" lon="7.890147171615682"><ele>288.5</ele><time>2026-03-29T10:51:54.999Z</time></trkpt><trkpt lat="44.45044057231286" lon="7.89042869737356"><ele>288.0</ele><time>2026-03-29T10:51:55.999Z</time></trkpt><trkpt lat="44.45056982260154" lon="7.8906733755501826"><ele>286.6666666666667</ele><time>2026-03-29T10:51:56.998Z</time></trkpt><trkpt lat="44.45067722098744" lon="7.890920802302599"><ele>285.33333333333337</ele><time>2026-03-29T10:51:57.998Z</time></trkpt><trkpt lat="44.45079716622066" lon="7.891133186206101"><ele>284.0</ele><time>2026-03-29T10:51:58.998Z</time></trkpt><trkpt lat="44.45089504179408" lon="7.891337425018049"><ele>284.0</ele><time>2026-03-29T10:51:59.998Z</time></trkpt><trkpt lat="44.45099155355832" lon="7.8915429342998715"><ele>284.0</ele><time>2026-03-29T10:52:00.998Z</time></trkpt><trkpt lat="44.451073631829985" lon="7.891702796643857"><ele>284.0</ele><time>2026-03-29T10:52:01.998Z</time></trkpt><trkpt lat="44.45114636233157" lon="7.891877618350763"><ele>284.0</ele><time>2026-03-29T10:52:02.998Z</time></trkpt><trkpt lat="44.45119297992196" lon="7.8920024314567065"><ele>284.0</ele><time>2026-03-29T10:52:03.998Z</time></trkpt><trkpt lat="44.45122755379673" lon="7.892138761430013"><ele>284.0</ele><time>2026-03-29T10:52:04.998Z</time></trkpt><trkpt lat="44.45124708729804" lon="7.892270501873051"><ele>284.0</ele><time>2026-03-29T10:52:05.998Z</time></trkpt><trkpt lat="44.45126001021764" lon="7.892406233586763"><ele>284.0</ele><time>2026-03-29T10:52:06.998Z</time></trkpt><trkpt lat="44.45127096301177" lon="7.892525091960854"><ele>283.59999999999997</ele><time>2026-03-29T10:52:07.998Z</time></trkpt><trkpt lat="44.45128520951016" lon="7.892631464450233"><ele>283.2</ele><time>2026-03-29T10:52:08.998Z</time></trkpt><trkpt lat="44.4513181446368" lon="7.892715058542972"><ele>282.79999999999995</ele><time>2026-03-29T10:52:09.998Z</time></trkpt><trkpt lat="44.451437670195155" lon="7.892834591621485"><ele>282.4</ele><time>2026-03-29T10:52:11.998Z</time></trkpt><trkpt lat="44.45152215141648" lon="7.892832865335749"><ele>282.0</ele><time>2026-03-29T10:52:12.998Z</time></trkpt><trkpt lat="44.451611828258514" lon="7.892778487581821"><ele>282.0</ele><time>2026-03-29T10:52:13.998Z</time></trkpt><trkpt lat="44.45170461036365" lon="7.892733870740758"><ele>282.0</ele><time>2026-03-29T10:52:14.998Z</time></trkpt><trkpt lat="44.451808683951164" lon="7.892680669597926"><ele>282.0</ele><time>2026-03-29T10:52:15.998Z</time></trkpt><trkpt lat="44.45192431072046" lon="7.892610338324359"><ele>282.0</ele><time>2026-03-29T10:52:16.998Z</time></trkpt><trkpt lat="44.452038565821645" lon="7.892521575486068"><ele>281.3333333333333</ele><time>2026-03-29T10:52:18Z</time></trkpt><trkpt lat="44.45218439519282" lon="7.892508860852376"><ele>280.66666666666663</ele><time>2026-03-29T10:52:19Z</time></trkpt><trkpt lat="44.452330398703026" lon="7.892459344082535"><ele>280.0</ele><time>2026-03-29T10:52:20Z</time></trkpt><trkpt lat="44.45248471404893" lon="7.892409099529155"><ele>280.0</ele><time>2026-03-29T10:52:21Z</time></trkpt><trkpt lat="44.45264273867824" lon="7.892357063874139"><ele>280.0</ele><time>2026-03-29T10:52:22Z</time></trkpt><trkpt lat="44.452813750662195" lon="7.892303791107299"><ele>280.0</ele><time>2026-03-29T10:52:23Z</time></trkpt><trkpt lat="44.45298520653968" lon="7.892239743617816"><ele>279.3333333333333</ele><time>2026-03-29T10:52:24Z</time></trkpt><trkpt lat="44.45317216060353" lon="7.892178085073634"><ele>278.6666666666667</ele><time>2026-03-29T10:52:25Z</time></trkpt><trkpt lat="44.45336058767256" lon="7.892105142183202"><ele>278.0</ele><time>2026-03-29T10:52:26Z</time></trkpt><trkpt lat="44.453553012021295" lon="7.892033860033662"><ele>278.0</ele><time>2026-03-29T10:52:27Z</time></trkpt><trkpt lat="44.453737687383175" lon="7.89196594559054"><ele>278.0</ele><time>2026-03-29T10:52:28Z</time></trkpt><trkpt lat="44.45392928646199" lon="7.891893187190331"><ele>278.0</ele><time>2026-03-29T10:52:29Z</time></trkpt><trkpt lat="44.454138846008746" lon="7.8918199072938755"><ele>280.0</ele><time>2026-03-29T10:52:30Z</time></trkpt><trkpt lat="44.454359096026124" lon="7.891744934160538"><ele>282.0</ele><time>2026-03-29T10:52:31Z</time></trkpt><trkpt lat="44.454585184535105" lon="7.891665022881742"><ele>283.5</ele><time>2026-03-29T10:52:32Z</time></trkpt><trkpt lat="44.45482032649216" lon="7.891585524804393"><ele>285.0</ele><time>2026-03-29T10:52:33Z</time></trkpt><trkpt lat="44.45505708951313" lon="7.891505163494584"><ele>285.0</ele><time>2026-03-29T10:52:34Z</time></trkpt><trkpt lat="44.45529426950645" lon="7.891421473173473"><ele>285.0</ele><time>2026-03-29T10:52:35Z</time></trkpt><trkpt lat="44.455543374912956" lon="7.8913387937438575"><ele>283.5</ele><time>2026-03-29T10:52:36Z</time></trkpt><trkpt lat="44.45579577940372" lon="7.891252109497636"><ele>282.0</ele><time>2026-03-29T10:52:37Z</time></trkpt><trkpt lat="44.45604100085348" lon="7.891166577369854"><ele>278.5</ele><time>2026-03-29T10:52:38Z</time></trkpt><trkpt lat="44.45628997296075" lon="7.891082780788485"><ele>275.0</ele><time>2026-03-29T10:52:39Z</time></trkpt><trkpt lat="44.456528577963404" lon="7.890997281812792"><ele>275.5</ele><time>2026-03-29T10:52:40Z</time></trkpt><trkpt lat="44.45678552509074" lon="7.890906280451549"><ele>276.0</ele><time>2026-03-29T10:52:41Z</time></trkpt><trkpt lat="44.45703870157843" lon="7.890824333172801"><ele>274.0</ele><time>2026-03-29T10:52:42Z</time></trkpt><trkpt lat="44.45729721849433" lon="7.89073152702629"><ele>272.0</ele><time>2026-03-29T10:52:43Z</time></trkpt><trkpt lat="44.457553446582985" lon="7.890639204654048"><ele>272.0</ele><time>2026-03-29T10:52:44Z</time></trkpt><trkpt lat="44.45781531573171" lon="7.890563906878652"><ele>272.0</ele><time>2026-03-29T10:52:45Z</time></trkpt><trkpt lat="44.45806456696407" lon="7.890464725557054"><ele>272.5</ele><time>2026-03-29T10:52:46Z</time></trkpt><trkpt lat="44.45828286269757" lon="7.890381940751163"><ele>273.0</ele><time>2026-03-29T10:52:47Z</time></trkpt><trkpt lat="44.45851133378325" lon="7.890312684037897"><ele>273.0</ele><time>2026-03-29T10:52:48Z</time></trkpt><trkpt lat="44.45868567215161" lon="7.890246335079402"><ele>273.0</ele><time>2026-03-29T10:52:49Z</time></trkpt><trkpt lat="44.4588804909664" lon="7.890173196133415"><ele>273.0</ele><time>2026-03-29T10:52:50Z</time></trkpt><trkpt lat="44.45905667152513" lon="7.890091837648752"><ele>274.3333333333333</ele><time>2026-03-29T10:52:51Z</time></trkpt><trkpt lat="44.45923685510855" lon="7.889995443918185"><ele>275.66666666666663</ele><time>2026-03-29T10:52:52Z</time></trkpt><trkpt lat="44.459417936881714" lon="7.889871114579509"><ele>277.0</ele><time>2026-03-29T10:52:53Z</time></trkpt><trkpt lat="44.45959682165702" lon="7.8897265505565715"><ele>277.0</ele><time>2026-03-29T10:52:54Z</time></trkpt><trkpt lat="44.45978141198713" lon="7.889568265769352"><ele>277.0</ele><time>2026-03-29T10:52:55Z</time></trkpt><trkpt lat="44.459961353115524" lon="7.889386885327792"><ele>277.0</ele><time>2026-03-29T10:52:56Z</time></trkpt><trkpt lat="44.460138556280526" lon="7.8891917471"><ele>278.0</ele><time>2026-03-29T10:52:57Z</time></trkpt><trkpt lat="44.460308577759804" lon="7.888978977376188"><ele>279.0</ele><time>2026-03-29T10:52:58Z</time></trkpt><trkpt lat="44.46048076923936" lon="7.888761488044243"><ele>279.0</ele><time>2026-03-29T10:52:59Z</time></trkpt><trkpt lat="44.460672140920295" lon="7.888546862788845"><ele>279.0</ele><time>2026-03-29T10:53:00Z</time></trkpt><trkpt lat="44.46084122117217" lon="7.888329628849262"><ele>280.0</ele><time>2026-03-29T10:53:01Z</time></trkpt><trkpt lat="44.461015097040566" lon="7.8881104046524655"><ele>281.0</ele><time>2026-03-29T10:53:02Z</time></trkpt><trkpt lat="44.46119796566746" lon="7.887886441986213"><ele>281.5</ele><time>2026-03-29T10:53:02.999Z</time></trkpt><trkpt lat="44.46137814941545" lon="7.887656081030857"><ele>282.0</ele><time>2026-03-29T10:53:03.999Z</time></trkpt><trkpt lat="44.46156221160008" lon="7.887426634695515"><ele>282.0</ele><time>2026-03-29T10:53:04.999Z</time></trkpt><trkpt lat="44.46175695479767" lon="7.8871951598365335"><ele>282.0</ele><time>2026-03-29T10:53:05.999Z</time></trkpt><trkpt lat="44.46195462323618" lon="7.886955255792003"><ele>284.0</ele><time>2026-03-29T10:53:06.999Z</time></trkpt><trkpt lat="44.4621441286365" lon="7.886715725085251"><ele>286.0</ele><time>2026-03-29T10:53:07.999Z</time></trkpt><trkpt lat="44.462339944802004" lon="7.886490314548527"><ele>286.0</ele><time>2026-03-29T10:53:08.999Z</time></trkpt><trkpt lat="44.46252658744348" lon="7.886266084948418"><ele>286.0</ele><time>2026-03-29T10:53:09.999Z</time></trkpt><trkpt lat="44.462711890940895" lon="7.8860450649297755"><ele>286.5</ele><time>2026-03-29T10:53:10.999Z</time></trkpt><trkpt lat="44.46289111656436" lon="7.885824767044577"><ele>287.0</ele><time>2026-03-29T10:53:11.999Z</time></trkpt><trkpt lat="44.46307411732713" lon="7.885620631433978"><ele>280.0</ele><time>2026-03-29T10:53:12.999Z</time></trkpt><trkpt lat="44.46324571564769" lon="7.885424459782217"><ele>273.0</ele><time>2026-03-29T10:53:13.999Z</time></trkpt><trkpt lat="44.463433501933956" lon="7.885242391599153"><ele>274.5</ele><time>2026-03-29T10:53:14.999Z</time></trkpt><trkpt lat="44.46363634503914" lon="7.885066189537976"><ele>276.0</ele><time>2026-03-29T10:53:15.999Z</time></trkpt><trkpt lat="44.46382905002748" lon="7.8849065097693805"><ele>276.3333333333333</ele><time>2026-03-29T10:53:16.999Z</time></trkpt><trkpt lat="44.46402269615789" lon="7.88476273276222"><ele>276.66666666666663</ele><time>2026-03-29T10:53:17.999Z</time></trkpt><trkpt lat="44.46422337858238" lon="7.884621990617311"><ele>277.0</ele><time>2026-03-29T10:53:18.999Z</time></trkpt><trkpt lat="44.464432110084935" lon="7.884506227227234"><ele>276.3333333333333</ele><time>2026-03-29T10:53:19.999Z</time></trkpt><trkpt lat="44.4646484585809" lon="7.884412377019938"><ele>275.6666666666667</ele><time>2026-03-29T10:53:20.999Z</time></trkpt><trkpt lat="44.464861731077626" lon="7.8843213993177725"><ele>275.0</ele><time>2026-03-29T10:53:21.999Z</time></trkpt><trkpt lat="44.46508062432247" lon="7.884231144589658"><ele>277.0</ele><time>2026-03-29T10:53:22.999Z</time></trkpt><trkpt lat="44.46530780057191" lon="7.884163091287995"><ele>279.0</ele><time>2026-03-29T10:53:23.999Z</time></trkpt><trkpt lat="44.46553251783367" lon="7.884107012261689"><ele>279.5</ele><time>2026-03-29T10:53:24.999Z</time></trkpt><trkpt lat="44.4657677026681" lon="7.884066092693019"><ele>280.0</ele><time>2026-03-29T10:53:25.999Z</time></trkpt><trkpt lat="44.46600512043508" lon="7.884034135060265"><ele>280.0</ele><time>2026-03-29T10:53:26.999Z</time></trkpt><trkpt lat="44.46623641910747" lon="7.884016502124837"><ele>280.0</ele><time>2026-03-29T10:53:27.999Z</time></trkpt><trkpt lat="44.46647920282711" lon="7.884016255919592"><ele>282.5</ele><time>2026-03-29T10:53:28.999Z</time></trkpt><trkpt lat="44.46672360914149" lon="7.884046358435207"><ele>285.0</ele><time>2026-03-29T10:53:29.999Z</time></trkpt><trkpt lat="44.46695438816021" lon="7.884090114508492"><ele>286.0</ele><time>2026-03-29T10:53:30.999Z</time></trkpt><trkpt lat="44.46718147159627" lon="7.884147557655444"><ele>287.0</ele><time>2026-03-29T10:53:31.999Z</time></trkpt><trkpt lat="44.467402434078686" lon="7.8842013805933515"><ele>286.0</ele><time>2026-03-29T10:53:32.999Z</time></trkpt><trkpt lat="44.46763235731605" lon="7.884273617254355"><ele>285.0</ele><time>2026-03-29T10:53:33.999Z</time></trkpt><trkpt lat="44.46785316798894" lon="7.8843597058542265"><ele>285.0</ele><time>2026-03-29T10:53:34.999Z</time></trkpt><trkpt lat="44.46807738286912" lon="7.884468831972141"><ele>285.0</ele><time>2026-03-29T10:53:35.999Z</time></trkpt><trkpt lat="44.468298566120815" lon="7.884599618334553"><ele>285.0</ele><time>2026-03-29T10:53:36.999Z</time></trkpt><trkpt lat="44.46851943458874" lon="7.884742572104056"><ele>285.0</ele><time>2026-03-29T10:53:37.999Z</time></trkpt><trkpt lat="44.46873652786164" lon="7.884895088925835"><ele>285.5</ele><time>2026-03-29T10:53:38.999Z</time></trkpt><trkpt lat="44.46895112510477" lon="7.885074277033966"><ele>286.0</ele><time>2026-03-29T10:53:39.999Z</time></trkpt><trkpt lat="44.46915411521336" lon="7.885245998004709"><ele>286.0</ele><time>2026-03-29T10:53:40.999Z</time></trkpt><trkpt lat="44.46933177128166" lon="7.885421198489592"><ele>286.0</ele><time>2026-03-29T10:53:41.999Z</time></trkpt><trkpt lat="44.469489781420144" lon="7.885592322048295"><ele>286.0</ele><time>2026-03-29T10:53:42.999Z</time></trkpt><trkpt lat="44.46962564968124" lon="7.885755853662312"><ele>286.0</ele><time>2026-03-29T10:53:43.999Z</time></trkpt><trkpt lat="44.46975872765804" lon="7.8859150131853575"><ele>286.0</ele><time>2026-03-29T10:53:44.999Z</time></trkpt><trkpt lat="44.46987593015684" lon="7.886068860731358"><ele>286.0</ele><time>2026-03-29T10:53:45.999Z</time></trkpt><trkpt lat="44.46997826480628" lon="7.8862212496568675"><ele>286.3333333333333</ele><time>2026-03-29T10:53:46.999Z</time></trkpt><trkpt lat="44.470082821665365" lon="7.886369435355912"><ele>286.6666666666667</ele><time>2026-03-29T10:53:47.999Z</time></trkpt><trkpt lat="44.47019252614848" lon="7.88651860631936"><ele>287.0</ele><time>2026-03-29T10:53:48.999Z</time></trkpt><trkpt lat="44.47029728640907" lon="7.886666648591426"><ele>286.33333333333337</ele><time>2026-03-29T10:53:49.999Z</time></trkpt><trkpt lat="44.47040931951332" lon="7.8868146222833175"><ele>285.6666666666667</ele><time>2026-03-29T10:53:50.999Z</time></trkpt><trkpt lat="44.47052817494099" lon="7.8869622153455055"><ele>285.0</ele><time>2026-03-29T10:53:51.999Z</time></trkpt><trkpt lat="44.47064244875639" lon="7.887109996932068"><ele>285.0</ele><time>2026-03-29T10:53:52.999Z</time></trkpt><trkpt lat="44.47075770161672" lon="7.8872641336986975"><ele>285.0</ele><time>2026-03-29T10:53:53.999Z</time></trkpt><trkpt lat="44.47087039491651" lon="7.887433357640254"><ele>285.0</ele><time>2026-03-29T10:53:54.999Z</time></trkpt><trkpt lat="44.470989697926406" lon="7.887594996685529"><ele>284.0</ele><time>2026-03-29T10:53:55.999Z</time></trkpt><trkpt lat="44.471111460253766" lon="7.887745712693402"><ele>283.0</ele><time>2026-03-29T10:53:56.999Z</time></trkpt><trkpt lat="44.47123913896209" lon="7.887901034896764"><ele>282.0</ele><time>2026-03-29T10:53:57.999Z</time></trkpt><trkpt lat="44.471379423091335" lon="7.888050312821418"><ele>281.6666666666667</ele><time>2026-03-29T10:53:58.999Z</time></trkpt><trkpt lat="44.47152197186562" lon="7.888193080752737"><ele>281.33333333333337</ele><time>2026-03-29T10:53:59.999Z</time></trkpt><trkpt lat="44.47166363569865" lon="7.888332953472296"><ele>281.0</ele><time>2026-03-29T10:54:00.998Z</time></trkpt><trkpt lat="44.47181472658416" lon="7.888467867300659"><ele>280.33333333333337</ele><time>2026-03-29T10:54:01.998Z</time></trkpt><trkpt lat="44.47197120321878" lon="7.888600571726338"><ele>279.6666666666667</ele><time>2026-03-29T10:54:02.998Z</time></trkpt><trkpt lat="44.472125529674486" lon="7.888727990987335"><ele>279.0</ele><time>2026-03-29T10:54:03.998Z</time></trkpt><trkpt lat="44.47228920284636" lon="7.888847939477984"><ele>279.0</ele><time>2026-03-29T10:54:04.998Z</time></trkpt><trkpt lat="44.47245665799265" lon="7.888952718442962"><ele>279.0</ele><time>2026-03-29T10:54:05.998Z</time></trkpt><trkpt lat="44.472625226524514" lon="7.889052445098718"><ele>279.0</ele><time>2026-03-29T10:54:06.998Z</time></trkpt><trkpt lat="44.47281841886261" lon="7.889153604448655"><ele>278.3333333333333</ele><time>2026-03-29T10:54:07.998Z</time></trkpt><trkpt lat="44.47301308243694" lon="7.889258588915079"><ele>277.66666666666663</ele><time>2026-03-29T10:54:08.998Z</time></trkpt><trkpt lat="44.47320866382009" lon="7.889350844728922"><ele>277.0</ele><time>2026-03-29T10:54:09.998Z</time></trkpt><trkpt lat="44.47341297967278" lon="7.889431972441159"><ele>277.0</ele><time>2026-03-29T10:54:10.998Z</time></trkpt><trkpt lat="44.47362181993164" lon="7.889510513507987"><ele>277.0</ele><time>2026-03-29T10:54:11.998Z</time></trkpt><trkpt lat="44.47384812779518" lon="7.889571472409998"><ele>277.0</ele><time>2026-03-29T10:54:12.998Z</time></trkpt><trkpt lat="44.474080561310416" lon="7.8896292053048125"><ele>277.5</ele><time>2026-03-29T10:54:13.998Z</time></trkpt><trkpt lat="44.47431877376052" lon="7.889667848227052"><ele>278.0</ele><time>2026-03-29T10:54:14.998Z</time></trkpt><trkpt lat="44.474560995362815" lon="7.88969493581076"><ele>277.0</ele><time>2026-03-29T10:54:15.998Z</time></trkpt><trkpt lat="44.474811577302596" lon="7.88970478926769"><ele>276.0</ele><time>2026-03-29T10:54:16.998Z</time></trkpt><trkpt lat="44.475058318594115" lon="7.889711692700962"><ele>276.0</ele><time>2026-03-29T10:54:17.998Z</time></trkpt><trkpt lat="44.47531326941523" lon="7.889703979486533"><ele>276.0</ele><time>2026-03-29T10:54:18.998Z</time></trkpt><trkpt lat="44.47555756885655" lon="7.889703641835149"><ele>275.0</ele><time>2026-03-29T10:54:19.998Z</time></trkpt><trkpt lat="44.47578938478024" lon="7.889715885382458"><ele>274.0</ele><time>2026-03-29T10:54:20.998Z</time></trkpt><trkpt lat="44.47603361430427" lon="7.889709623736451"><ele>274.0</ele><time>2026-03-29T10:54:21.998Z</time></trkpt><trkpt lat="44.476276875551335" lon="7.8897327358848255"><ele>274.0</ele><time>2026-03-29T10:54:22.998Z</time></trkpt><trkpt lat="44.4765119026261" lon="7.8897789918884165"><ele>274.0</ele><time>2026-03-29T10:54:24Z</time></trkpt><trkpt lat="44.47675811444017" lon="7.8898462078254665"><ele>274.0</ele><time>2026-03-29T10:54:25Z</time></trkpt><trkpt lat="44.47700671146792" lon="7.889931119059441"><ele>274.5</ele><time>2026-03-29T10:54:26Z</time></trkpt><trkpt lat="44.477242488736835" lon="7.890018111046957"><ele>275.0</ele><time>2026-03-29T10:54:27Z</time></trkpt><trkpt lat="44.477456734643745" lon="7.890103450161576"><ele>275.33333333333337</ele><time>2026-03-29T10:54:28Z</time></trkpt><trkpt lat="44.477656481141665" lon="7.8901744464359025"><ele>275.6666666666667</ele><time>2026-03-29T10:54:29Z</time></trkpt><trkpt lat="44.47785521288227" lon="7.890242638803061"><ele>276.0</ele><time>2026-03-29T10:54:30Z</time></trkpt><trkpt lat="44.47804581760528" lon="7.890289075373959"><ele>275.0</ele><time>2026-03-29T10:54:31Z</time></trkpt><trkpt lat="44.47821575773852" lon="7.8903198014659806"><ele>274.0</ele><time>2026-03-29T10:54:32Z</time></trkpt><trkpt lat="44.47838431042455" lon="7.890350544947521"><ele>273.0</ele><time>2026-03-29T10:54:33Z</time></trkpt><trkpt lat="44.47853991095545" lon="7.890361123870617"><ele>273.0</ele><time>2026-03-29T10:54:34Z</time></trkpt><trkpt lat="44.47868406091672" lon="7.890344202913923"><ele>273.0</ele><time>2026-03-29T10:54:35Z</time></trkpt><trkpt lat="44.47880723820953" lon="7.890323695495665"><ele>273.0</ele><time>2026-03-29T10:54:36Z</time></trkpt><trkpt lat="44.47893720937694" lon="7.8903054317827666"><ele>273.0</ele><time>2026-03-29T10:54:37Z</time></trkpt><trkpt lat="44.47904893052385" lon="7.890278957784544"><ele>273.1666666666667</ele><time>2026-03-29T10:54:38Z</time></trkpt><trkpt lat="44.479156953641414" lon="7.890255815360803"><ele>273.3333333333333</ele><time>2026-03-29T10:54:39Z</time></trkpt><trkpt lat="44.47925239831429" lon="7.890258962828314"><ele>273.5</ele><time>2026-03-29T10:54:40Z</time></trkpt><trkpt lat="44.47933807041495" lon="7.890284911812914"><ele>273.66666666666663</ele><time>2026-03-29T10:54:41Z</time></trkpt><trkpt lat="44.479407056389796" lon="7.890297502548632"><ele>273.8333333333333</ele><time>2026-03-29T10:54:42Z</time></trkpt><trkpt lat="44.479487244069325" lon="7.890321332926118"><ele>274.0</ele><time>2026-03-29T10:54:43Z</time></trkpt><trkpt lat="44.479541613790545" lon="7.890233482938694"><ele>274.0</ele><time>2026-03-29T10:54:44Z</time></trkpt><trkpt lat="44.47959359358708" lon="7.8901755085102785"><ele>274.0</ele><time>2026-03-29T10:54:45Z</time></trkpt><trkpt lat="44.47959202070705" lon="7.8899736624751"><ele>274.0</ele><time>2026-03-29T10:54:47Z</time></trkpt><trkpt lat="44.47955750025494" lon="7.889846813850775"><ele>274.0</ele><time>2026-03-29T10:54:48Z</time></trkpt><trkpt lat="44.479502298214676" lon="7.889719758132014"><ele>274.0</ele><time>2026-03-29T10:54:49Z</time></trkpt><trkpt lat="44.479461682916664" lon="7.889542942517942"><ele>274.0</ele><time>2026-03-29T10:54:50Z</time></trkpt><trkpt lat="44.47943699925701" lon="7.8893465867501735"><ele>274.0</ele><time>2026-03-29T10:54:51Z</time></trkpt><trkpt lat="44.479434181688944" lon="7.889151129180869"><ele>274.0</ele><time>2026-03-29T10:54:52Z</time></trkpt><trkpt lat="44.479424757767475" lon="7.888931311432116"><ele>274.0</ele><time>2026-03-29T10:54:53Z</time></trkpt><trkpt lat="44.479403647042105" lon="7.888715331466012"><ele>274.4</ele><time>2026-03-29T10:54:54Z</time></trkpt><trkpt lat="44.479392453623504" lon="7.888525670944042"><ele>274.79999999999995</ele><time>2026-03-29T10:54:55Z</time></trkpt><trkpt lat="44.47938805674349" lon="7.888361964451072"><ele>275.20000000000005</ele><time>2026-03-29T10:54:56Z</time></trkpt><trkpt lat="44.479389963795924" lon="7.8882230901685055"><ele>275.6</ele><time>2026-03-29T10:54:57Z</time></trkpt><trkpt lat="44.4794008218007" lon="7.8880882069448806"><ele>276.0</ele><time>2026-03-29T10:54:58Z</time></trkpt><trkpt lat="44.479456032126656" lon="7.8879596531366705"><ele>276.5</ele><time>2026-03-29T10:54:59Z</time></trkpt><trkpt lat="44.479548249816254" lon="7.887857478031391"><ele>277.0</ele><time>2026-03-29T10:55:00Z</time></trkpt><trkpt lat="44.47965469192272" lon="7.887726098733487"><ele>277.5</ele><time>2026-03-29T10:55:01Z</time></trkpt><trkpt lat="44.47975244178863" lon="7.887634084747843"><ele>278.0</ele><time>2026-03-29T10:55:02Z</time></trkpt><trkpt lat="44.47982811725819" lon="7.887515576627539"><ele>282.0</ele><time>2026-03-29T10:55:03Z</time></trkpt><trkpt lat="44.47988274701787" lon="7.887378679253195"><ele>286.0</ele><time>2026-03-29T10:55:04Z</time></trkpt><trkpt lat="44.47991229163066" lon="7.88721761294743"><ele>290.0</ele><time>2026-03-29T10:55:05Z</time></trkpt><trkpt lat="44.479899535338184" lon="7.887038127849534"><ele>294.0</ele><time>2026-03-29T10:55:06Z</time></trkpt><trkpt lat="44.47985469924422" lon="7.886869325971623"><ele>296.75</ele><time>2026-03-29T10:55:07Z</time></trkpt><trkpt lat="44.4798194776171" lon="7.886688892925608"><ele>299.5</ele><time>2026-03-29T10:55:07.999Z</time></trkpt><trkpt lat="44.4797816400371" lon="7.886483839979494"><ele>302.25</ele><time>2026-03-29T10:55:08.999Z</time></trkpt><trkpt lat="44.47974448592886" lon="7.886272744328826"><ele>305.0</ele><time>2026-03-29T10:55:09.999Z</time></trkpt><trkpt lat="44.479696910570816" lon="7.886065044456856"><ele>308.6666666666667</ele><time>2026-03-29T10:55:10.999Z</time></trkpt><trkpt lat="44.479648464047685" lon="7.885847081499852"><ele>312.3333333333333</ele><time>2026-03-29T10:55:11.999Z</time></trkpt><trkpt lat="44.479595601937916" lon="7.885626203122704"><ele>316.0</ele><time>2026-03-29T10:55:12.999Z</time></trkpt><trkpt lat="44.47953909148248" lon="7.885396592300235"><ele>311.0</ele><time>2026-03-29T10:55:13.999Z</time></trkpt><trkpt lat="44.47947037489738" lon="7.885159018723097"><ele>306.0</ele><time>2026-03-29T10:55:14.999Z</time></trkpt><trkpt lat="44.47937589370181" lon="7.884932293127004"><ele>301.0</ele><time>2026-03-29T10:55:15.999Z</time></trkpt><trkpt lat="44.47928051436607" lon="7.884733201965822"><ele>301.0</ele><time>2026-03-29T10:55:16.999Z</time></trkpt><trkpt lat="44.479152716812564" lon="7.884524770403484"><ele>301.0</ele><time>2026-03-29T10:55:17.999Z</time></trkpt><trkpt lat="44.47901279407194" lon="7.8843302238817605"><ele>301.0</ele><time>2026-03-29T10:55:18.999Z</time></trkpt><trkpt lat="44.47890081522632" lon="7.884135684889869"><ele>299.25</ele><time>2026-03-29T10:55:19.999Z</time></trkpt><trkpt lat="44.4787938232475" lon="7.883991110872405"><ele>297.5</ele><time>2026-03-29T10:55:20.999Z</time></trkpt><trkpt lat="44.47869580779418" lon="7.883874550684797"><ele>295.75</ele><time>2026-03-29T10:55:21.999Z</time></trkpt><trkpt lat="44.47864719021107" lon="7.883746521099342"><ele>294.0</ele><time>2026-03-29T10:55:22.999Z</time></trkpt><trkpt lat="44.478609869046046" lon="7.883633035556246"><ele>294.0</ele><time>2026-03-29T10:55:23.999Z</time></trkpt><trkpt lat="44.47860527674738" lon="7.883515658724296"><ele>294.0</ele><time>2026-03-29T10:55:24.999Z</time></trkpt><trkpt lat="44.47862326005162" lon="7.883411752063419"><ele>294.0</ele><time>2026-03-29T10:55:25.999Z</time></trkpt><trkpt lat="44.47866464534665" lon="7.883300002389268"><ele>294.0</ele><time>2026-03-29T10:55:26.999Z</time></trkpt><trkpt lat="44.478741810608895" lon="7.8832329553174025"><ele>294.0</ele><time>2026-03-29T10:55:27.999Z</time></trkpt><trkpt lat="44.47883245554268" lon="7.883181991425701"><ele>294.0</ele><time>2026-03-29T10:55:28.999Z</time></trkpt><trkpt lat="44.47892422983535" lon="7.88310349209612"><ele>300.0</ele><time>2026-03-29T10:55:29.999Z</time></trkpt><trkpt lat="44.479018646853945" lon="7.8830398718921355"><ele>306.0</ele><time>2026-03-29T10:55:30.999Z</time></trkpt><trkpt lat="44.47909149967288" lon="7.882987704036571"><ele>312.0</ele><time>2026-03-29T10:55:31.999Z</time></trkpt><trkpt lat="44.47916778476965" lon="7.882911348216478"><ele>318.0</ele><time>2026-03-29T10:55:32.999Z</time></trkpt><trkpt lat="44.47923312977706" lon="7.882825912858684"><ele>324.0</ele><time>2026-03-29T10:55:33.999Z</time></trkpt><trkpt lat="44.47928412458289" lon="7.882712977723954"><ele>324.0</ele><time>2026-03-29T10:55:34.999Z</time></trkpt><trkpt lat="44.479318601139546" lon="7.882610460678795"><ele>324.0</ele><time>2026-03-29T10:55:35.999Z</time></trkpt><trkpt lat="44.47931557997792" lon="7.882490606974891"><ele>324.0</ele><time>2026-03-29T10:55:36.999Z</time></trkpt><trkpt lat="44.47927969010836" lon="7.8823912517459975"><ele>324.0</ele><time>2026-03-29T10:55:37.999Z</time></trkpt><trkpt lat="44.479218688296875" lon="7.882333785739855"><ele>324.0</ele><time>2026-03-29T10:55:38.999Z</time></trkpt><trkpt lat="44.479140043219424" lon="7.882304061466993"><ele>324.0</ele><time>2026-03-29T10:55:39.999Z</time></trkpt><trkpt lat="44.47905711730939" lon="7.882314478004832"><ele>324.4</ele><time>2026-03-29T10:55:40.999Z</time></trkpt><trkpt lat="44.47897919313022" lon="7.882353582086936"><ele>324.79999999999995</ele><time>2026-03-29T10:55:41.999Z</time></trkpt><trkpt lat="44.478896717635884" lon="7.882423433494147"><ele>325.20000000000005</ele><time>2026-03-29T10:55:42.999Z</time></trkpt><trkpt lat="44.47879768517673" lon="7.8824552969682555"><ele>325.6</ele><time>2026-03-29T10:55:43.999Z</time></trkpt><trkpt lat="44.47870843135835" lon="7.882459874014185"><ele>326.0</ele><time>2026-03-29T10:55:44.999Z</time></trkpt><trkpt lat="44.478621359848994" lon="7.8824575286146175"><ele>323.8</ele><time>2026-03-29T10:55:45.999Z</time></trkpt><trkpt lat="44.47853521648303" lon="7.882396283216149"><ele>321.6</ele><time>2026-03-29T10:55:46.999Z</time></trkpt><trkpt lat="44.47844979383316" lon="7.882304783980466"><ele>319.4</ele><time>2026-03-29T10:55:47.999Z</time></trkpt><trkpt lat="44.478363047479725" lon="7.8821948368849295"><ele>317.2</ele><time>2026-03-29T10:55:48.999Z</time></trkpt><trkpt lat="44.47826300703413" lon="7.882087900896938"><ele>315.0</ele><time>2026-03-29T10:55:49.999Z</time></trkpt><trkpt lat="44.47814586477852" lon="7.881950808069292"><ele>315.0</ele><time>2026-03-29T10:55:50.999Z</time></trkpt><trkpt lat="44.478031522697144" lon="7.881838675244451"><ele>315.0</ele><time>2026-03-29T10:55:51.999Z</time></trkpt><trkpt lat="44.47792856165094" lon="7.88168216549566"><ele>315.0</ele><time>2026-03-29T10:55:52.999Z</time></trkpt><trkpt lat="44.47783799644223" lon="7.881512345048602"><ele>315.0</ele><time>2026-03-29T10:55:53.999Z</time></trkpt><trkpt lat="44.477766933818906" lon="7.881351889113385"><ele>314.6</ele><time>2026-03-29T10:55:54.999Z</time></trkpt><trkpt lat="44.47770756868655" lon="7.881215431784411"><ele>314.2</ele><time>2026-03-29T10:55:55.999Z</time></trkpt><trkpt lat="44.47766350170599" lon="7.881098836539189"><ele>313.8</ele><time>2026-03-29T10:55:56.999Z</time></trkpt><trkpt lat="44.477640731617534" lon="7.881001275199604"><ele>313.4</ele><time>2026-03-29T10:55:57.999Z</time></trkpt><trkpt lat="44.477626911114015" lon="7.8808907388434415"><ele>313.0</ele><time>2026-03-29T10:55:59.999Z</time></trkpt><trkpt lat="44.477718391973276" lon="7.880862921834939"><ele>313.0</ele><time>2026-03-29T10:56:01.999Z</time></trkpt><trkpt lat="44.47773634281976" lon="7.8809628236845155"><ele>313.0</ele><time>2026-03-29T10:56:02.999Z</time></trkpt><trkpt lat="44.47776183172908" lon="7.881070713174587"><ele>313.0</ele><time>2026-03-29T10:56:03.999Z</time></trkpt><trkpt lat="44.477803982586934" lon="7.881191604126637"><ele>313.0</ele><time>2026-03-29T10:56:04.999Z</time></trkpt><trkpt lat="44.47785115162362" lon="7.88130383351488"><ele>313.0</ele><time>2026-03-29T10:56:05.998Z</time></trkpt><trkpt lat="44.47794724739726" lon="7.8814360120324904"><ele>313.5</ele><time>2026-03-29T10:56:06.998Z</time></trkpt><trkpt lat="44.47804258532182" lon="7.881556848545038"><ele>314.0</ele><time>2026-03-29T10:56:07.998Z</time></trkpt><trkpt lat="44.478148926050885" lon="7.88166171719506"><ele>314.5</ele><time>2026-03-29T10:56:08.998Z</time></trkpt><trkpt lat="44.47826975705751" lon="7.88174712335599"><ele>315.0</ele><time>2026-03-29T10:56:09.998Z</time></trkpt><trkpt lat="44.47838000703235" lon="7.881849996056143"><ele>315.0</ele><time>2026-03-29T10:56:10.998Z</time></trkpt><trkpt lat="44.478478744786294" lon="7.881933987461961"><ele>315.0</ele><time>2026-03-29T10:56:11.998Z</time></trkpt><trkpt lat="44.478552118589036" lon="7.881994867538352"><ele>315.0</ele><time>2026-03-29T10:56:12.998Z</time></trkpt><trkpt lat="44.478609741913594" lon="7.882039859260657"><ele>315.0</ele><time>2026-03-29T10:56:13.998Z</time></trkpt><trkpt lat="44.47870898124131" lon="7.882075837716391"><ele>315.0</ele><time>2026-03-29T10:56:15.998Z</time></trkpt><trkpt lat="44.47874847735518" lon="7.881999158459549"><ele>315.0</ele><time>2026-03-29T10:56:16.998Z</time></trkpt><trkpt lat="44.47872574405513" lon="7.881890683585024"><ele>315.0</ele><time>2026-03-29T10:56:17.998Z</time></trkpt><trkpt lat="44.47863557675619" lon="7.881825764500782"><ele>315.0</ele><time>2026-03-29T10:56:18.998Z</time></trkpt><trkpt lat="44.47856594601959" lon="7.88175723989068"><ele>315.0</ele><time>2026-03-29T10:56:19.998Z</time></trkpt><trkpt lat="44.478485802656294" lon="7.881682044976966"><ele>315.0</ele><time>2026-03-29T10:56:20.998Z</time></trkpt><trkpt lat="44.47839259019026" lon="7.881598154580943"><ele>315.0</ele><time>2026-03-29T10:56:21.998Z</time></trkpt><trkpt lat="44.478303058107116" lon="7.881503076097024"><ele>320.0</ele><time>2026-03-29T10:56:22.998Z</time></trkpt><trkpt lat="44.47821171760842" lon="7.881378515113452"><ele>325.0</ele><time>2026-03-29T10:56:23.998Z</time></trkpt><trkpt lat="44.478128610253606" lon="7.881217618232728"><ele>330.0</ele><time>2026-03-29T10:56:24.998Z</time></trkpt><trkpt lat="44.478061564771124" lon="7.881053552565145"><ele>335.0</ele><time>2026-03-29T10:56:25.998Z</time></trkpt><trkpt lat="44.47801709786641" lon="7.880887342444493"><ele>333.6</ele><time>2026-03-29T10:56:26.998Z</time></trkpt><trkpt lat="44.47799921042881" lon="7.880738802685765"><ele>332.2</ele><time>2026-03-29T10:56:27.998Z</time></trkpt><trkpt lat="44.477980762216575" lon="7.880602338774311"><ele>330.79999999999995</ele><time>2026-03-29T10:56:28.998Z</time></trkpt><trkpt lat="44.47795153458242" lon="7.880476006799356"><ele>329.4</ele><time>2026-03-29T10:56:30Z</time></trkpt><trkpt lat="44.477925369421115" lon="7.880358404516075"><ele>328.0</ele><time>2026-03-29T10:56:31Z</time></trkpt><trkpt lat="44.477903000495644" lon="7.88024219659566"><ele>328.0</ele><time>2026-03-29T10:56:32Z</time></trkpt><trkpt lat="44.47789739297179" lon="7.880115869461203"><ele>328.0</ele><time>2026-03-29T10:56:33Z</time></trkpt><trkpt lat="44.47790498991807" lon="7.879980829620623"><ele>328.0</ele><time>2026-03-29T10:56:34Z</time></trkpt><trkpt lat="44.47792754965627" lon="7.879857122902315"><ele>328.0</ele><time>2026-03-29T10:56:35Z</time></trkpt><trkpt lat="44.47795821119848" lon="7.879726875012237"><ele>328.0</ele><time>2026-03-29T10:56:36Z</time></trkpt><trkpt lat="44.47798490779114" lon="7.879595448095296"><ele>334.4</ele><time>2026-03-29T10:56:37Z</time></trkpt><trkpt lat="44.47800199681825" lon="7.879472369008621"><ele>340.79999999999995</ele><time>2026-03-29T10:56:38Z</time></trkpt><trkpt lat="44.47801461200817" lon="7.8793402905209255"><ele>347.2</ele><time>2026-03-29T10:56:39Z</time></trkpt><trkpt lat="44.47801532787731" lon="7.879234448035177"><ele>353.6</ele><time>2026-03-29T10:56:40Z</time></trkpt><trkpt lat="44.47801212971092" lon="7.879124533438321"><ele>360.0</ele><time>2026-03-29T10:56:41Z</time></trkpt><trkpt lat="44.478013257014595" lon="7.878968102336484"><ele>360.4</ele><time>2026-03-29T10:56:43Z</time></trkpt><trkpt lat="44.47805608746113" lon="7.878821437416651"><ele>360.8</ele><time>2026-03-29T10:56:45Z</time></trkpt><trkpt lat="44.47813842548459" lon="7.878815693339034"><ele>361.20000000000005</ele><time>2026-03-29T10:56:46Z</time></trkpt><trkpt lat="44.478195155493694" lon="7.87874309373695"><ele>361.6</ele><time>2026-03-29T10:56:47Z</time></trkpt><trkpt lat="44.478257586901464" lon="7.878678111301241"><ele>362.0</ele><time>2026-03-29T10:56:48Z</time></trkpt><trkpt lat="44.47835229925189" lon="7.878588061512401"><ele>362.0</ele><time>2026-03-29T10:56:49Z</time></trkpt><trkpt lat="44.478455690911844" lon="7.878490449158261"><ele>362.0</ele><time>2026-03-29T10:56:50Z</time></trkpt><trkpt lat="44.47854725833438" lon="7.878389303324458"><ele>362.0</ele><time>2026-03-29T10:56:51Z</time></trkpt><trkpt lat="44.47864693317327" lon="7.87826090980319"><ele>362.0</ele><time>2026-03-29T10:56:52Z</time></trkpt><trkpt lat="44.47870625308507" lon="7.878169380335942"><ele>362.40000000000003</ele><time>2026-03-29T10:56:53Z</time></trkpt><trkpt lat="44.47876868638724" lon="7.878053045839657"><ele>362.8</ele><time>2026-03-29T10:56:54Z</time></trkpt><trkpt lat="44.47881948380349" lon="7.877942274495148"><ele>363.2</ele><time>2026-03-29T10:56:55Z</time></trkpt><trkpt lat="44.47886535400488" lon="7.8778412231258725"><ele>363.6</ele><time>2026-03-29T10:56:56Z</time></trkpt><trkpt lat="44.47890601315886" lon="7.877752939891872"><ele>364.0</ele><time>2026-03-29T10:56:57Z</time></trkpt><trkpt lat="44.47896234005181" lon="7.877632356170747"><ele>364.0</ele><time>2026-03-29T10:56:59Z</time></trkpt><trkpt lat="44.47900454184509" lon="7.877545153710295"><ele>364.0</ele><time>2026-03-29T10:57:00Z</time></trkpt><trkpt lat="44.479074458145725" lon="7.877414000693192"><ele>364.0</ele><time>2026-03-29T10:57:01Z</time></trkpt><trkpt lat="44.479149940168604" lon="7.877315920504698"><ele>364.0</ele><time>2026-03-29T10:57:02Z</time></trkpt><trkpt lat="44.47921158962352" lon="7.877247968843127"><ele>364.0</ele><time>2026-03-29T10:57:03Z</time></trkpt><trkpt lat="44.47928351592178" lon="7.877167854172938"><ele>364.0</ele><time>2026-03-29T10:57:04Z</time></trkpt><trkpt lat="44.47934777564226" lon="7.877096576923818"><ele>364.0</ele><time>2026-03-29T10:57:05Z</time></trkpt><trkpt lat="44.47940703046251" lon="7.877018465509548"><ele>364.0</ele><time>2026-03-29T10:57:07Z</time></trkpt><trkpt lat="44.47946496824175" lon="7.8769687485280855"><ele>364.0</ele><time>2026-03-29T10:57:13Z</time></trkpt><trkpt lat="44.479514181106104" lon="7.876805955166555"><ele>364.0</ele><time>2026-03-29T10:57:14.999Z</time></trkpt><trkpt lat="44.47949611163929" lon="7.876715146421768"><ele>364.0</ele><time>2026-03-29T10:57:15.999Z</time></trkpt><trkpt lat="44.47947952672271" lon="7.876625201719176"><ele>363.5</ele><time>2026-03-29T10:57:16.999Z</time></trkpt><trkpt lat="44.47946381900117" lon="7.876484268546146"><ele>363.0</ele><time>2026-03-29T10:57:18.999Z</time></trkpt><trkpt lat="44.479451240712194" lon="7.876382994694127"><ele>362.5</ele><time>2026-03-29T10:57:20.999Z</time></trkpt><trkpt lat="44.47948405954751" lon="7.876265131774972"><ele>362.0</ele><time>2026-03-29T10:57:23.999Z</time></trkpt><trkpt lat="44.47948986942275" lon="7.876154907090731"><ele>361.5</ele><time>2026-03-29T10:57:25.999Z</time></trkpt><trkpt lat="44.479466981745325" lon="7.8760576345679585"><ele>361.0</ele><time>2026-03-29T10:57:26.999Z</time></trkpt><trkpt lat="44.47945975084459" lon="7.875892185988981"><ele>361.0</ele><time>2026-03-29T10:57:28.999Z</time></trkpt><trkpt lat="44.47946240755251" lon="7.875800002920274"><ele>361.0</ele><time>2026-03-29T10:57:29.999Z</time></trkpt><trkpt lat="44.4795130675898" lon="7.8757189330690505"><ele>361.0</ele><time>2026-03-29T10:57:30.999Z</time></trkpt><trkpt lat="44.47947603427956" lon="7.875622211824401"><ele>361.0</ele><time>2026-03-29T10:57:31.999Z</time></trkpt><trkpt lat="44.479490729167004" lon="7.875518889363813"><ele>361.0</ele><time>2026-03-29T10:57:32.999Z</time></trkpt><trkpt lat="44.479499136720285" lon="7.875361911960298"><ele>361.0</ele><time>2026-03-29T10:57:34.999Z</time></trkpt><trkpt lat="44.4794998058332" lon="7.8752709085099974"><ele>361.0</ele><time>2026-03-29T10:57:35.999Z</time></trkpt><trkpt lat="44.4795005461511" lon="7.875164458371806"><ele>361.0</ele><time>2026-03-29T10:57:36.999Z</time></trkpt><trkpt lat="44.47950425574691" lon="7.875046620927958"><ele>361.0</ele><time>2026-03-29T10:57:37.999Z</time></trkpt><trkpt lat="44.47950734579238" lon="7.874914486276343"><ele>361.0</ele><time>2026-03-29T10:57:38.999Z</time></trkpt><trkpt lat="44.47949379981788" lon="7.874814652347569"><ele>361.0</ele><time>2026-03-29T10:57:39.999Z</time></trkpt><trkpt lat="44.47948163390886" lon="7.8746941141605955"><ele>361.0</ele><time>2026-03-29T10:57:40.999Z</time></trkpt><trkpt lat="44.47945781097119" lon="7.874553024529589"><ele>361.0</ele><time>2026-03-29T10:57:41.999Z</time></trkpt><trkpt lat="44.47944633413013" lon="7.87444711073048"><ele>361.0</ele><time>2026-03-29T10:57:42.999Z</time></trkpt><trkpt lat="44.479435471122095" lon="7.874336946937012"><ele>361.0</ele><time>2026-03-29T10:57:43.999Z</time></trkpt><trkpt lat="44.479415836055495" lon="7.874210605721415"><ele>361.0</ele><time>2026-03-29T10:57:44.999Z</time></trkpt><trkpt lat="44.47940061046552" lon="7.874106899912635"><ele>361.0</ele><time>2026-03-29T10:57:45.999Z</time></trkpt><trkpt lat="44.479381035375596" lon="7.873991954483324"><ele>361.0</ele><time>2026-03-29T10:57:46.999Z</time></trkpt><trkpt lat="44.479354747742974" lon="7.873869820160662"><ele>361.20000000000005</ele><time>2026-03-29T10:57:47.999Z</time></trkpt><trkpt lat="44.47933944433407" lon="7.87376230680836"><ele>361.40000000000003</ele><time>2026-03-29T10:57:48.999Z</time></trkpt><trkpt lat="44.479305621377684" lon="7.8736052160267604"><ele>361.6</ele><time>2026-03-29T10:57:50.999Z</time></trkpt><trkpt lat="44.47927496538166" lon="7.8734770871220325"><ele>361.8</ele><time>2026-03-29T10:57:52.999Z</time></trkpt><trkpt lat="44.479235584782124" lon="7.873347018466946"><ele>362.0</ele><time>2026-03-29T10:57:54.999Z</time></trkpt><trkpt lat="44.479202502618726" lon="7.873231727940836"><ele>362.33333333333337</ele><time>2026-03-29T10:57:56.999Z</time></trkpt><trkpt lat="44.479158035615136" lon="7.873089749117729"><ele>362.6666666666667</ele><time>2026-03-29T10:57:58.999Z</time></trkpt><trkpt lat="44.479119230473444" lon="7.872969593525926"><ele>363.0</ele><time>2026-03-29T10:58:00.999Z</time></trkpt><trkpt lat="44.47909992605759" lon="7.87287469757075"><ele>363.3333333333333</ele><time>2026-03-29T10:58:02.999Z</time></trkpt><trkpt lat="44.479181308986306" lon="7.872846906931653"><ele>363.66666666666663</ele><time>2026-03-29T10:58:04.999Z</time></trkpt><trkpt lat="44.47925552708742" lon="7.8728074086615045"><ele>364.0</ele><time>2026-03-29T10:58:05.999Z</time></trkpt><trkpt lat="44.47932810966026" lon="7.872771129682655"><ele>364.0</ele><time>2026-03-29T10:58:06.999Z</time></trkpt><trkpt lat="44.479390599742615" lon="7.872743148013988"><ele>364.0</ele><time>2026-03-29T10:58:07.999Z</time></trkpt><trkpt lat="44.47945683312147" lon="7.872719174304575"><ele>364.0</ele><time>2026-03-29T10:58:10.998Z</time></trkpt><trkpt lat="44.47942685203724" lon="7.872814584966893"><ele>364.0</ele><time>2026-03-29T10:58:50Z</time></trkpt><trkpt lat="44.479455870651954" lon="7.872937552326004"><ele>364.0</ele><time>2026-03-29T10:58:57Z</time></trkpt><trkpt lat="44.479507832738676" lon="7.873003679675637"><ele>364.0</ele><time>2026-03-29T10:59:00Z</time></trkpt><trkpt lat="44.479647237570724" lon="7.873000857015599"><ele>364.0</ele><time>2026-03-29T10:59:46.018Z</time></trkpt><trkpt lat="44.47958189056831" lon="7.872930063424901"><ele>364.0</ele><time>2026-03-29T11:00:28.998Z</time></trkpt><trkpt lat="44.4795285528159" lon="7.872847878255652"><ele>364.0</ele><time>2026-03-29T11:00:34.998Z</time></trkpt><trkpt lat="44.47959067724133" lon="7.872809126207947"><ele>364.0</ele><time>2026-03-29T11:00:42Z</time></trkpt><trkpt lat="44.479676192174004" lon="7.872754169227948"><ele>364.0</ele><time>2026-03-29T11:00:47Z</time></trkpt><trkpt lat="44.47961550576889" lon="7.872781190491025"><ele>364.0</ele><time>2026-03-29T11:01:58.999Z</time></trkpt><trkpt lat="44.47970577848863" lon="7.872888110179468"><ele>363.0</ele><time>2026-03-29T11:02:14.017Z</time></trkpt></trkseg></trk></gpx>